<?xml version="1.0" encoding="UTF-8"?>
<gpx creator="StravaGPX iPhone" xmlns:xsi="http://www.w3.org/2001/XMLSchema-instance" xsi:schemaLocation="http://www.topografix.com/GPX/1/1 http://www.topografix.com/GPX/1/1/gpx.xsd" version="1.1" xmlns="http://www.topografix.com/GPX/1/1">
 <metadata>
  <time>2020-06-14T06:00:05Z</time>
 </metadata>
 <trk>
  <name>Rit 20 - fietsen door de bomen</name>
  <type>1</type>
  <trkseg>
   <trkpt lat="51.1450270" lon="5.7421710">
    <ele>32.7</ele>
    <time>2020-06-14T06:00:05Z</time>
   </trkpt>
   <trkpt lat="51.1450380" lon="5.7421670">
    <ele>32.7</ele>
    <time>2020-06-14T06:00:07Z</time>
   </trkpt>
   <trkpt lat="51.1450480" lon="5.7421660">
    <ele>32.7</ele>
    <time>2020-06-14T06:00:08Z</time>
   </trkpt>
   <trkpt lat="51.1450580" lon="5.7421660">
    <ele>32.7</ele>
    <time>2020-06-14T06:00:09Z</time>
   </trkpt>
   <trkpt lat="51.1450680" lon="5.7421660">
    <ele>32.7</ele>
    <time>2020-06-14T06:00:10Z</time>
   </trkpt>
   <trkpt lat="51.1450780" lon="5.7421650">
    <ele>32.7</ele>
    <time>2020-06-14T06:00:11Z</time>
   </trkpt>
   <trkpt lat="51.1450890" lon="5.7421650">
    <ele>32.7</ele>
    <time>2020-06-14T06:00:12Z</time>
   </trkpt>
   <trkpt lat="51.1450990" lon="5.7421650">
    <ele>32.7</ele>
    <time>2020-06-14T06:00:13Z</time>
   </trkpt>
   <trkpt lat="51.1451090" lon="5.7421640">
    <ele>32.7</ele>
    <time>2020-06-14T06:00:14Z</time>
   </trkpt>
   <trkpt lat="51.1451190" lon="5.7421640">
    <ele>32.7</ele>
    <time>2020-06-14T06:00:15Z</time>
   </trkpt>
   <trkpt lat="51.1451290" lon="5.7421640">
    <ele>32.7</ele>
    <time>2020-06-14T06:00:17Z</time>
   </trkpt>
   <trkpt lat="51.1451390" lon="5.7421630">
    <ele>32.7</ele>
    <time>2020-06-14T06:00:18Z</time>
   </trkpt>
   <trkpt lat="51.1451490" lon="5.7421630">
    <ele>32.7</ele>
    <time>2020-06-14T06:00:19Z</time>
   </trkpt>
   <trkpt lat="51.1451780" lon="5.7421740">
    <ele>32.7</ele>
    <time>2020-06-14T06:00:20Z</time>
   </trkpt>
   <trkpt lat="51.1452330" lon="5.7421810">
    <ele>32.7</ele>
    <time>2020-06-14T06:00:21Z</time>
   </trkpt>
   <trkpt lat="51.1452430" lon="5.7422220">
    <ele>32.7</ele>
    <time>2020-06-14T06:00:22Z</time>
   </trkpt>
   <trkpt lat="51.1452330" lon="5.7421880">
    <ele>32.7</ele>
    <time>2020-06-14T06:00:23Z</time>
   </trkpt>
   <trkpt lat="51.1452250" lon="5.7421890">
    <ele>32.7</ele>
    <time>2020-06-14T06:00:24Z</time>
   </trkpt>
   <trkpt lat="51.1451980" lon="5.7421920">
    <ele>32.7</ele>
    <time>2020-06-14T06:00:25Z</time>
   </trkpt>
   <trkpt lat="51.1451880" lon="5.7421900">
    <ele>32.7</ele>
    <time>2020-06-14T06:00:26Z</time>
   </trkpt>
   <trkpt lat="51.1451700" lon="5.7421850">
    <ele>32.7</ele>
    <time>2020-06-14T06:00:27Z</time>
   </trkpt>
   <trkpt lat="51.1451580" lon="5.7421800">
    <ele>32.7</ele>
    <time>2020-06-14T06:00:28Z</time>
   </trkpt>
   <trkpt lat="51.1451480" lon="5.7421660">
    <ele>32.7</ele>
    <time>2020-06-14T06:00:29Z</time>
   </trkpt>
   <trkpt lat="51.1451250" lon="5.7421620">
    <ele>32.7</ele>
    <time>2020-06-14T06:00:30Z</time>
   </trkpt>
   <trkpt lat="51.1451180" lon="5.7421480">
    <ele>32.7</ele>
    <time>2020-06-14T06:00:31Z</time>
   </trkpt>
   <trkpt lat="51.1451140" lon="5.7421180">
    <ele>32.7</ele>
    <time>2020-06-14T06:00:32Z</time>
   </trkpt>
   <trkpt lat="51.1451190" lon="5.7420650">
    <ele>32.7</ele>
    <time>2020-06-14T06:00:33Z</time>
   </trkpt>
   <trkpt lat="51.1451170" lon="5.7420220">
    <ele>32.7</ele>
    <time>2020-06-14T06:00:34Z</time>
   </trkpt>
   <trkpt lat="51.1451180" lon="5.7420030">
    <ele>32.7</ele>
    <time>2020-06-14T06:00:35Z</time>
   </trkpt>
   <trkpt lat="51.1451140" lon="5.7419590">
    <ele>32.7</ele>
    <time>2020-06-14T06:00:36Z</time>
   </trkpt>
   <trkpt lat="51.1451060" lon="5.7419130">
    <ele>32.7</ele>
    <time>2020-06-14T06:00:37Z</time>
   </trkpt>
   <trkpt lat="51.1450900" lon="5.7418680">
    <ele>32.7</ele>
    <time>2020-06-14T06:00:38Z</time>
   </trkpt>
   <trkpt lat="51.1450480" lon="5.7418470">
    <ele>32.7</ele>
    <time>2020-06-14T06:00:39Z</time>
   </trkpt>
   <trkpt lat="51.1450270" lon="5.7418460">
    <ele>32.7</ele>
    <time>2020-06-14T06:00:40Z</time>
   </trkpt>
   <trkpt lat="51.1449750" lon="5.7418400">
    <ele>32.5</ele>
    <time>2020-06-14T06:00:41Z</time>
   </trkpt>
   <trkpt lat="51.1449240" lon="5.7418370">
    <ele>32.5</ele>
    <time>2020-06-14T06:00:42Z</time>
   </trkpt>
   <trkpt lat="51.1448670" lon="5.7418410">
    <ele>32.4</ele>
    <time>2020-06-14T06:00:43Z</time>
   </trkpt>
   <trkpt lat="51.1448040" lon="5.7418350">
    <ele>32.4</ele>
    <time>2020-06-14T06:00:44Z</time>
   </trkpt>
   <trkpt lat="51.1447450" lon="5.7418320">
    <ele>32.3</ele>
    <time>2020-06-14T06:00:45Z</time>
   </trkpt>
   <trkpt lat="51.1446190" lon="5.7418390">
    <ele>32.2</ele>
    <time>2020-06-14T06:00:46Z</time>
   </trkpt>
   <trkpt lat="51.1445660" lon="5.7418450">
    <ele>32.1</ele>
    <time>2020-06-14T06:00:47Z</time>
   </trkpt>
   <trkpt lat="51.1445130" lon="5.7418560">
    <ele>32.1</ele>
    <time>2020-06-14T06:00:48Z</time>
   </trkpt>
   <trkpt lat="51.1444550" lon="5.7418610">
    <ele>32.0</ele>
    <time>2020-06-14T06:00:49Z</time>
   </trkpt>
   <trkpt lat="51.1444030" lon="5.7418660">
    <ele>32.0</ele>
    <time>2020-06-14T06:00:50Z</time>
   </trkpt>
   <trkpt lat="51.1443570" lon="5.7418730">
    <ele>32.0</ele>
    <time>2020-06-14T06:00:51Z</time>
   </trkpt>
   <trkpt lat="51.1443040" lon="5.7418700">
    <ele>32.0</ele>
    <time>2020-06-14T06:00:52Z</time>
   </trkpt>
   <trkpt lat="51.1442590" lon="5.7418740">
    <ele>32.0</ele>
    <time>2020-06-14T06:00:53Z</time>
   </trkpt>
   <trkpt lat="51.1442080" lon="5.7418490">
    <ele>32.0</ele>
    <time>2020-06-14T06:00:54Z</time>
   </trkpt>
   <trkpt lat="51.1441700" lon="5.7418130">
    <ele>32.0</ele>
    <time>2020-06-14T06:00:55Z</time>
   </trkpt>
   <trkpt lat="51.1441360" lon="5.7417450">
    <ele>32.2</ele>
    <time>2020-06-14T06:00:56Z</time>
   </trkpt>
   <trkpt lat="51.1441000" lon="5.7416610">
    <ele>32.1</ele>
    <time>2020-06-14T06:00:57Z</time>
   </trkpt>
   <trkpt lat="51.1440790" lon="5.7415650">
    <ele>32.0</ele>
    <time>2020-06-14T06:00:58Z</time>
   </trkpt>
   <trkpt lat="51.1440620" lon="5.7414710">
    <ele>31.9</ele>
    <time>2020-06-14T06:00:59Z</time>
   </trkpt>
   <trkpt lat="51.1440450" lon="5.7413750">
    <ele>31.8</ele>
    <time>2020-06-14T06:01:00Z</time>
   </trkpt>
   <trkpt lat="51.1440250" lon="5.7412740">
    <ele>31.7</ele>
    <time>2020-06-14T06:01:01Z</time>
   </trkpt>
   <trkpt lat="51.1440040" lon="5.7411740">
    <ele>31.6</ele>
    <time>2020-06-14T06:01:02Z</time>
   </trkpt>
   <trkpt lat="51.1439960" lon="5.7410770">
    <ele>31.6</ele>
    <time>2020-06-14T06:01:03Z</time>
   </trkpt>
   <trkpt lat="51.1439840" lon="5.7409780">
    <ele>31.5</ele>
    <time>2020-06-14T06:01:04Z</time>
   </trkpt>
   <trkpt lat="51.1439770" lon="5.7408810">
    <ele>31.5</ele>
    <time>2020-06-14T06:01:05Z</time>
   </trkpt>
   <trkpt lat="51.1439660" lon="5.7407820">
    <ele>31.4</ele>
    <time>2020-06-14T06:01:06Z</time>
   </trkpt>
   <trkpt lat="51.1439580" lon="5.7406780">
    <ele>31.4</ele>
    <time>2020-06-14T06:01:07Z</time>
   </trkpt>
   <trkpt lat="51.1439530" lon="5.7405750">
    <ele>31.4</ele>
    <time>2020-06-14T06:01:08Z</time>
   </trkpt>
   <trkpt lat="51.1439460" lon="5.7404780">
    <ele>31.4</ele>
    <time>2020-06-14T06:01:09Z</time>
   </trkpt>
   <trkpt lat="51.1439350" lon="5.7403800">
    <ele>31.4</ele>
    <time>2020-06-14T06:01:10Z</time>
   </trkpt>
   <trkpt lat="51.1439190" lon="5.7402820">
    <ele>31.4</ele>
    <time>2020-06-14T06:01:11Z</time>
   </trkpt>
   <trkpt lat="51.1439070" lon="5.7401810">
    <ele>31.4</ele>
    <time>2020-06-14T06:01:12Z</time>
   </trkpt>
   <trkpt lat="51.1438910" lon="5.7400830">
    <ele>31.5</ele>
    <time>2020-06-14T06:01:13Z</time>
   </trkpt>
   <trkpt lat="51.1438800" lon="5.7399740">
    <ele>31.5</ele>
    <time>2020-06-14T06:01:14Z</time>
   </trkpt>
   <trkpt lat="51.1438750" lon="5.7398710">
    <ele>31.5</ele>
    <time>2020-06-14T06:01:15Z</time>
   </trkpt>
   <trkpt lat="51.1438680" lon="5.7397710">
    <ele>31.5</ele>
    <time>2020-06-14T06:01:16Z</time>
   </trkpt>
   <trkpt lat="51.1438580" lon="5.7396600">
    <ele>31.5</ele>
    <time>2020-06-14T06:01:17Z</time>
   </trkpt>
   <trkpt lat="51.1438440" lon="5.7395470">
    <ele>31.5</ele>
    <time>2020-06-14T06:01:18Z</time>
   </trkpt>
   <trkpt lat="51.1438360" lon="5.7394450">
    <ele>31.5</ele>
    <time>2020-06-14T06:01:19Z</time>
   </trkpt>
   <trkpt lat="51.1438270" lon="5.7393380">
    <ele>31.5</ele>
    <time>2020-06-14T06:01:20Z</time>
   </trkpt>
   <trkpt lat="51.1438220" lon="5.7392380">
    <ele>31.5</ele>
    <time>2020-06-14T06:01:21Z</time>
   </trkpt>
   <trkpt lat="51.1438150" lon="5.7391460">
    <ele>31.5</ele>
    <time>2020-06-14T06:01:22Z</time>
   </trkpt>
   <trkpt lat="51.1438000" lon="5.7390580">
    <ele>31.5</ele>
    <time>2020-06-14T06:01:23Z</time>
   </trkpt>
   <trkpt lat="51.1437850" lon="5.7389700">
    <ele>31.5</ele>
    <time>2020-06-14T06:01:24Z</time>
   </trkpt>
   <trkpt lat="51.1437680" lon="5.7388750">
    <ele>31.4</ele>
    <time>2020-06-14T06:01:25Z</time>
   </trkpt>
   <trkpt lat="51.1437490" lon="5.7387840">
    <ele>31.4</ele>
    <time>2020-06-14T06:01:26Z</time>
   </trkpt>
   <trkpt lat="51.1437220" lon="5.7386830">
    <ele>31.4</ele>
    <time>2020-06-14T06:01:27Z</time>
   </trkpt>
   <trkpt lat="51.1436940" lon="5.7385810">
    <ele>31.4</ele>
    <time>2020-06-14T06:01:28Z</time>
   </trkpt>
   <trkpt lat="51.1436680" lon="5.7384820">
    <ele>31.3</ele>
    <time>2020-06-14T06:01:29Z</time>
   </trkpt>
   <trkpt lat="51.1436380" lon="5.7383850">
    <ele>31.3</ele>
    <time>2020-06-14T06:01:30Z</time>
   </trkpt>
   <trkpt lat="51.1436180" lon="5.7382850">
    <ele>31.3</ele>
    <time>2020-06-14T06:01:31Z</time>
   </trkpt>
   <trkpt lat="51.1435950" lon="5.7381810">
    <ele>31.3</ele>
    <time>2020-06-14T06:01:32Z</time>
   </trkpt>
   <trkpt lat="51.1435770" lon="5.7380750">
    <ele>31.4</ele>
    <time>2020-06-14T06:01:33Z</time>
   </trkpt>
   <trkpt lat="51.1435530" lon="5.7379830">
    <ele>31.4</ele>
    <time>2020-06-14T06:01:34Z</time>
   </trkpt>
   <trkpt lat="51.1435280" lon="5.7378790">
    <ele>31.4</ele>
    <time>2020-06-14T06:01:35Z</time>
   </trkpt>
   <trkpt lat="51.1435000" lon="5.7377770">
    <ele>31.5</ele>
    <time>2020-06-14T06:01:36Z</time>
   </trkpt>
   <trkpt lat="51.1434720" lon="5.7376830">
    <ele>31.5</ele>
    <time>2020-06-14T06:01:37Z</time>
   </trkpt>
   <trkpt lat="51.1434490" lon="5.7375840">
    <ele>31.6</ele>
    <time>2020-06-14T06:01:38Z</time>
   </trkpt>
   <trkpt lat="51.1434220" lon="5.7374820">
    <ele>31.6</ele>
    <time>2020-06-14T06:01:39Z</time>
   </trkpt>
   <trkpt lat="51.1433920" lon="5.7373710">
    <ele>31.7</ele>
    <time>2020-06-14T06:01:40Z</time>
   </trkpt>
   <trkpt lat="51.1433620" lon="5.7372600">
    <ele>31.7</ele>
    <time>2020-06-14T06:01:41Z</time>
   </trkpt>
   <trkpt lat="51.1433320" lon="5.7371520">
    <ele>31.7</ele>
    <time>2020-06-14T06:01:42Z</time>
   </trkpt>
   <trkpt lat="51.1433140" lon="5.7370590">
    <ele>31.7</ele>
    <time>2020-06-14T06:01:43Z</time>
   </trkpt>
   <trkpt lat="51.1432920" lon="5.7369680">
    <ele>31.7</ele>
    <time>2020-06-14T06:01:44Z</time>
   </trkpt>
   <trkpt lat="51.1432630" lon="5.7368570">
    <ele>31.6</ele>
    <time>2020-06-14T06:01:45Z</time>
   </trkpt>
   <trkpt lat="51.1432390" lon="5.7367640">
    <ele>31.6</ele>
    <time>2020-06-14T06:01:46Z</time>
   </trkpt>
   <trkpt lat="51.1432170" lon="5.7366670">
    <ele>31.5</ele>
    <time>2020-06-14T06:01:47Z</time>
   </trkpt>
   <trkpt lat="51.1431930" lon="5.7365810">
    <ele>31.4</ele>
    <time>2020-06-14T06:01:48Z</time>
   </trkpt>
   <trkpt lat="51.1431680" lon="5.7364800">
    <ele>31.4</ele>
    <time>2020-06-14T06:01:49Z</time>
   </trkpt>
   <trkpt lat="51.1431420" lon="5.7363830">
    <ele>31.4</ele>
    <time>2020-06-14T06:01:50Z</time>
   </trkpt>
   <trkpt lat="51.1431180" lon="5.7362980">
    <ele>31.3</ele>
    <time>2020-06-14T06:01:51Z</time>
   </trkpt>
   <trkpt lat="51.1430920" lon="5.7362200">
    <ele>31.3</ele>
    <time>2020-06-14T06:01:52Z</time>
   </trkpt>
   <trkpt lat="51.1430630" lon="5.7361140">
    <ele>31.3</ele>
    <time>2020-06-14T06:01:53Z</time>
   </trkpt>
   <trkpt lat="51.1430330" lon="5.7360100">
    <ele>31.3</ele>
    <time>2020-06-14T06:01:54Z</time>
   </trkpt>
   <trkpt lat="51.1430000" lon="5.7359030">
    <ele>31.3</ele>
    <time>2020-06-14T06:01:55Z</time>
   </trkpt>
   <trkpt lat="51.1429690" lon="5.7357970">
    <ele>31.3</ele>
    <time>2020-06-14T06:01:56Z</time>
   </trkpt>
   <trkpt lat="51.1429410" lon="5.7357060">
    <ele>31.3</ele>
    <time>2020-06-14T06:01:57Z</time>
   </trkpt>
   <trkpt lat="51.1429110" lon="5.7356100">
    <ele>31.3</ele>
    <time>2020-06-14T06:01:58Z</time>
   </trkpt>
   <trkpt lat="51.1428820" lon="5.7355150">
    <ele>31.3</ele>
    <time>2020-06-14T06:01:59Z</time>
   </trkpt>
   <trkpt lat="51.1428530" lon="5.7354280">
    <ele>31.3</ele>
    <time>2020-06-14T06:02:00Z</time>
   </trkpt>
   <trkpt lat="51.1428240" lon="5.7353320">
    <ele>31.3</ele>
    <time>2020-06-14T06:02:01Z</time>
   </trkpt>
   <trkpt lat="51.1427920" lon="5.7352330">
    <ele>31.2</ele>
    <time>2020-06-14T06:02:02Z</time>
   </trkpt>
   <trkpt lat="51.1427550" lon="5.7351400">
    <ele>31.2</ele>
    <time>2020-06-14T06:02:03Z</time>
   </trkpt>
   <trkpt lat="51.1427220" lon="5.7350320">
    <ele>31.2</ele>
    <time>2020-06-14T06:02:04Z</time>
   </trkpt>
   <trkpt lat="51.1426870" lon="5.7349280">
    <ele>31.2</ele>
    <time>2020-06-14T06:02:05Z</time>
   </trkpt>
   <trkpt lat="51.1426520" lon="5.7348310">
    <ele>31.1</ele>
    <time>2020-06-14T06:02:06Z</time>
   </trkpt>
   <trkpt lat="51.1426190" lon="5.7347330">
    <ele>31.0</ele>
    <time>2020-06-14T06:02:07Z</time>
   </trkpt>
   <trkpt lat="51.1425850" lon="5.7346360">
    <ele>31.0</ele>
    <time>2020-06-14T06:02:08Z</time>
   </trkpt>
   <trkpt lat="51.1425570" lon="5.7345350">
    <ele>30.9</ele>
    <time>2020-06-14T06:02:09Z</time>
   </trkpt>
   <trkpt lat="51.1425320" lon="5.7344290">
    <ele>30.9</ele>
    <time>2020-06-14T06:02:10Z</time>
   </trkpt>
   <trkpt lat="51.1425170" lon="5.7343250">
    <ele>30.9</ele>
    <time>2020-06-14T06:02:11Z</time>
   </trkpt>
   <trkpt lat="51.1425100" lon="5.7342140">
    <ele>30.9</ele>
    <time>2020-06-14T06:02:12Z</time>
   </trkpt>
   <trkpt lat="51.1425050" lon="5.7341090">
    <ele>30.9</ele>
    <time>2020-06-14T06:02:13Z</time>
   </trkpt>
   <trkpt lat="51.1425010" lon="5.7339990">
    <ele>30.9</ele>
    <time>2020-06-14T06:02:14Z</time>
   </trkpt>
   <trkpt lat="51.1425010" lon="5.7338950">
    <ele>30.9</ele>
    <time>2020-06-14T06:02:15Z</time>
   </trkpt>
   <trkpt lat="51.1425090" lon="5.7338030">
    <ele>30.9</ele>
    <time>2020-06-14T06:02:16Z</time>
   </trkpt>
   <trkpt lat="51.1425180" lon="5.7337040">
    <ele>30.8</ele>
    <time>2020-06-14T06:02:17Z</time>
   </trkpt>
   <trkpt lat="51.1425280" lon="5.7336040">
    <ele>30.8</ele>
    <time>2020-06-14T06:02:18Z</time>
   </trkpt>
   <trkpt lat="51.1425470" lon="5.7335010">
    <ele>30.8</ele>
    <time>2020-06-14T06:02:19Z</time>
   </trkpt>
   <trkpt lat="51.1425670" lon="5.7333910">
    <ele>30.8</ele>
    <time>2020-06-14T06:02:20Z</time>
   </trkpt>
   <trkpt lat="51.1425860" lon="5.7332850">
    <ele>30.8</ele>
    <time>2020-06-14T06:02:21Z</time>
   </trkpt>
   <trkpt lat="51.1426050" lon="5.7331770">
    <ele>30.7</ele>
    <time>2020-06-14T06:02:22Z</time>
   </trkpt>
   <trkpt lat="51.1426270" lon="5.7330780">
    <ele>30.7</ele>
    <time>2020-06-14T06:02:23Z</time>
   </trkpt>
   <trkpt lat="51.1426440" lon="5.7329800">
    <ele>30.6</ele>
    <time>2020-06-14T06:02:24Z</time>
   </trkpt>
   <trkpt lat="51.1426630" lon="5.7328840">
    <ele>30.6</ele>
    <time>2020-06-14T06:02:25Z</time>
   </trkpt>
   <trkpt lat="51.1426850" lon="5.7327770">
    <ele>30.5</ele>
    <time>2020-06-14T06:02:26Z</time>
   </trkpt>
   <trkpt lat="51.1427080" lon="5.7326700">
    <ele>30.4</ele>
    <time>2020-06-14T06:02:27Z</time>
   </trkpt>
   <trkpt lat="51.1427320" lon="5.7325680">
    <ele>30.4</ele>
    <time>2020-06-14T06:02:28Z</time>
   </trkpt>
   <trkpt lat="51.1427520" lon="5.7324820">
    <ele>30.3</ele>
    <time>2020-06-14T06:02:29Z</time>
   </trkpt>
   <trkpt lat="51.1427800" lon="5.7323830">
    <ele>30.3</ele>
    <time>2020-06-14T06:02:30Z</time>
   </trkpt>
   <trkpt lat="51.1428080" lon="5.7322800">
    <ele>30.2</ele>
    <time>2020-06-14T06:02:31Z</time>
   </trkpt>
   <trkpt lat="51.1428350" lon="5.7321850">
    <ele>30.2</ele>
    <time>2020-06-14T06:02:32Z</time>
   </trkpt>
   <trkpt lat="51.1428630" lon="5.7320870">
    <ele>30.2</ele>
    <time>2020-06-14T06:02:33Z</time>
   </trkpt>
   <trkpt lat="51.1428910" lon="5.7320050">
    <ele>30.2</ele>
    <time>2020-06-14T06:02:34Z</time>
   </trkpt>
   <trkpt lat="51.1429180" lon="5.7319250">
    <ele>30.2</ele>
    <time>2020-06-14T06:02:35Z</time>
   </trkpt>
   <trkpt lat="51.1429460" lon="5.7318340">
    <ele>30.2</ele>
    <time>2020-06-14T06:02:36Z</time>
   </trkpt>
   <trkpt lat="51.1429750" lon="5.7317420">
    <ele>30.2</ele>
    <time>2020-06-14T06:02:37Z</time>
   </trkpt>
   <trkpt lat="51.1430010" lon="5.7316510">
    <ele>30.3</ele>
    <time>2020-06-14T06:02:38Z</time>
   </trkpt>
   <trkpt lat="51.1430290" lon="5.7315610">
    <ele>30.3</ele>
    <time>2020-06-14T06:02:39Z</time>
   </trkpt>
   <trkpt lat="51.1430600" lon="5.7314610">
    <ele>30.4</ele>
    <time>2020-06-14T06:02:40Z</time>
   </trkpt>
   <trkpt lat="51.1430880" lon="5.7313690">
    <ele>30.4</ele>
    <time>2020-06-14T06:02:41Z</time>
   </trkpt>
   <trkpt lat="51.1431160" lon="5.7312790">
    <ele>30.4</ele>
    <time>2020-06-14T06:02:42Z</time>
   </trkpt>
   <trkpt lat="51.1431450" lon="5.7311890">
    <ele>30.4</ele>
    <time>2020-06-14T06:02:43Z</time>
   </trkpt>
   <trkpt lat="51.1431730" lon="5.7310910">
    <ele>30.4</ele>
    <time>2020-06-14T06:02:44Z</time>
   </trkpt>
   <trkpt lat="51.1432020" lon="5.7309870">
    <ele>30.5</ele>
    <time>2020-06-14T06:02:45Z</time>
   </trkpt>
   <trkpt lat="51.1432250" lon="5.7308920">
    <ele>30.5</ele>
    <time>2020-06-14T06:02:46Z</time>
   </trkpt>
   <trkpt lat="51.1432520" lon="5.7307930">
    <ele>30.5</ele>
    <time>2020-06-14T06:02:47Z</time>
   </trkpt>
   <trkpt lat="51.1432750" lon="5.7307020">
    <ele>30.4</ele>
    <time>2020-06-14T06:02:48Z</time>
   </trkpt>
   <trkpt lat="51.1433000" lon="5.7306000">
    <ele>30.4</ele>
    <time>2020-06-14T06:02:49Z</time>
   </trkpt>
   <trkpt lat="51.1433240" lon="5.7305020">
    <ele>30.4</ele>
    <time>2020-06-14T06:02:50Z</time>
   </trkpt>
   <trkpt lat="51.1433410" lon="5.7304040">
    <ele>30.5</ele>
    <time>2020-06-14T06:02:51Z</time>
   </trkpt>
   <trkpt lat="51.1433570" lon="5.7302910">
    <ele>30.5</ele>
    <time>2020-06-14T06:02:52Z</time>
   </trkpt>
   <trkpt lat="51.1433760" lon="5.7301870">
    <ele>30.5</ele>
    <time>2020-06-14T06:02:53Z</time>
   </trkpt>
   <trkpt lat="51.1433960" lon="5.7300800">
    <ele>30.6</ele>
    <time>2020-06-14T06:02:54Z</time>
   </trkpt>
   <trkpt lat="51.1434050" lon="5.7299850">
    <ele>30.6</ele>
    <time>2020-06-14T06:02:55Z</time>
   </trkpt>
   <trkpt lat="51.1434140" lon="5.7298850">
    <ele>30.7</ele>
    <time>2020-06-14T06:02:56Z</time>
   </trkpt>
   <trkpt lat="51.1434170" lon="5.7297820">
    <ele>30.7</ele>
    <time>2020-06-14T06:02:57Z</time>
   </trkpt>
   <trkpt lat="51.1434210" lon="5.7296800">
    <ele>30.8</ele>
    <time>2020-06-14T06:02:58Z</time>
   </trkpt>
   <trkpt lat="51.1434260" lon="5.7295800">
    <ele>30.8</ele>
    <time>2020-06-14T06:02:59Z</time>
   </trkpt>
   <trkpt lat="51.1434300" lon="5.7294840">
    <ele>30.9</ele>
    <time>2020-06-14T06:03:00Z</time>
   </trkpt>
   <trkpt lat="51.1434330" lon="5.7293920">
    <ele>30.9</ele>
    <time>2020-06-14T06:03:01Z</time>
   </trkpt>
   <trkpt lat="51.1434370" lon="5.7292950">
    <ele>30.9</ele>
    <time>2020-06-14T06:03:02Z</time>
   </trkpt>
   <trkpt lat="51.1434370" lon="5.7292020">
    <ele>30.9</ele>
    <time>2020-06-14T06:03:03Z</time>
   </trkpt>
   <trkpt lat="51.1434380" lon="5.7291220">
    <ele>30.9</ele>
    <time>2020-06-14T06:03:04Z</time>
   </trkpt>
   <trkpt lat="51.1434460" lon="5.7290680">
    <ele>31.0</ele>
    <time>2020-06-14T06:03:05Z</time>
   </trkpt>
   <trkpt lat="51.1434520" lon="5.7290080">
    <ele>31.0</ele>
    <time>2020-06-14T06:03:06Z</time>
   </trkpt>
   <trkpt lat="51.1434570" lon="5.7289130">
    <ele>31.1</ele>
    <time>2020-06-14T06:03:07Z</time>
   </trkpt>
   <trkpt lat="51.1434610" lon="5.7288120">
    <ele>31.2</ele>
    <time>2020-06-14T06:03:08Z</time>
   </trkpt>
   <trkpt lat="51.1434720" lon="5.7287040">
    <ele>31.3</ele>
    <time>2020-06-14T06:03:09Z</time>
   </trkpt>
   <trkpt lat="51.1434750" lon="5.7286060">
    <ele>31.5</ele>
    <time>2020-06-14T06:03:10Z</time>
   </trkpt>
   <trkpt lat="51.1434780" lon="5.7285140">
    <ele>31.6</ele>
    <time>2020-06-14T06:03:11Z</time>
   </trkpt>
   <trkpt lat="51.1434820" lon="5.7284150">
    <ele>31.7</ele>
    <time>2020-06-14T06:03:12Z</time>
   </trkpt>
   <trkpt lat="51.1434880" lon="5.7283170">
    <ele>31.9</ele>
    <time>2020-06-14T06:03:13Z</time>
   </trkpt>
   <trkpt lat="51.1434900" lon="5.7282210">
    <ele>32.1</ele>
    <time>2020-06-14T06:03:14Z</time>
   </trkpt>
   <trkpt lat="51.1434900" lon="5.7281110">
    <ele>32.3</ele>
    <time>2020-06-14T06:03:15Z</time>
   </trkpt>
   <trkpt lat="51.1434900" lon="5.7280140">
    <ele>32.5</ele>
    <time>2020-06-14T06:03:16Z</time>
   </trkpt>
   <trkpt lat="51.1434900" lon="5.7279170">
    <ele>32.3</ele>
    <time>2020-06-14T06:03:17Z</time>
   </trkpt>
   <trkpt lat="51.1434910" lon="5.7278090">
    <ele>32.2</ele>
    <time>2020-06-14T06:03:18Z</time>
   </trkpt>
   <trkpt lat="51.1434940" lon="5.7277010">
    <ele>32.2</ele>
    <time>2020-06-14T06:03:19Z</time>
   </trkpt>
   <trkpt lat="51.1434970" lon="5.7276010">
    <ele>32.1</ele>
    <time>2020-06-14T06:03:20Z</time>
   </trkpt>
   <trkpt lat="51.1435000" lon="5.7275030">
    <ele>32.0</ele>
    <time>2020-06-14T06:03:21Z</time>
   </trkpt>
   <trkpt lat="51.1435090" lon="5.7273980">
    <ele>32.0</ele>
    <time>2020-06-14T06:03:22Z</time>
   </trkpt>
   <trkpt lat="51.1435170" lon="5.7273030">
    <ele>31.9</ele>
    <time>2020-06-14T06:03:23Z</time>
   </trkpt>
   <trkpt lat="51.1434990" lon="5.7272120">
    <ele>31.9</ele>
    <time>2020-06-14T06:03:24Z</time>
   </trkpt>
   <trkpt lat="51.1435010" lon="5.7271170">
    <ele>31.9</ele>
    <time>2020-06-14T06:03:25Z</time>
   </trkpt>
   <trkpt lat="51.1435030" lon="5.7270170">
    <ele>31.8</ele>
    <time>2020-06-14T06:03:26Z</time>
   </trkpt>
   <trkpt lat="51.1435060" lon="5.7269060">
    <ele>31.7</ele>
    <time>2020-06-14T06:03:27Z</time>
   </trkpt>
   <trkpt lat="51.1435090" lon="5.7267970">
    <ele>31.7</ele>
    <time>2020-06-14T06:03:28Z</time>
   </trkpt>
   <trkpt lat="51.1435110" lon="5.7266980">
    <ele>31.6</ele>
    <time>2020-06-14T06:03:29Z</time>
   </trkpt>
   <trkpt lat="51.1435120" lon="5.7265970">
    <ele>31.6</ele>
    <time>2020-06-14T06:03:30Z</time>
   </trkpt>
   <trkpt lat="51.1435130" lon="5.7264900">
    <ele>31.6</ele>
    <time>2020-06-14T06:03:31Z</time>
   </trkpt>
   <trkpt lat="51.1435170" lon="5.7263790">
    <ele>31.5</ele>
    <time>2020-06-14T06:03:32Z</time>
   </trkpt>
   <trkpt lat="51.1435200" lon="5.7262790">
    <ele>31.5</ele>
    <time>2020-06-14T06:03:33Z</time>
   </trkpt>
   <trkpt lat="51.1435240" lon="5.7261760">
    <ele>31.4</ele>
    <time>2020-06-14T06:03:34Z</time>
   </trkpt>
   <trkpt lat="51.1435230" lon="5.7260800">
    <ele>31.4</ele>
    <time>2020-06-14T06:03:35Z</time>
   </trkpt>
   <trkpt lat="51.1435210" lon="5.7259910">
    <ele>31.4</ele>
    <time>2020-06-14T06:03:36Z</time>
   </trkpt>
   <trkpt lat="51.1435240" lon="5.7258950">
    <ele>31.4</ele>
    <time>2020-06-14T06:03:37Z</time>
   </trkpt>
   <trkpt lat="51.1435260" lon="5.7257950">
    <ele>31.4</ele>
    <time>2020-06-14T06:03:38Z</time>
   </trkpt>
   <trkpt lat="51.1435250" lon="5.7256960">
    <ele>31.4</ele>
    <time>2020-06-14T06:03:39Z</time>
   </trkpt>
   <trkpt lat="51.1435220" lon="5.7256050">
    <ele>31.5</ele>
    <time>2020-06-14T06:03:40Z</time>
   </trkpt>
   <trkpt lat="51.1435190" lon="5.7255060">
    <ele>31.5</ele>
    <time>2020-06-14T06:03:41Z</time>
   </trkpt>
   <trkpt lat="51.1435150" lon="5.7254210">
    <ele>31.6</ele>
    <time>2020-06-14T06:03:42Z</time>
   </trkpt>
   <trkpt lat="51.1435070" lon="5.7253220">
    <ele>31.6</ele>
    <time>2020-06-14T06:03:43Z</time>
   </trkpt>
   <trkpt lat="51.1434870" lon="5.7252190">
    <ele>31.6</ele>
    <time>2020-06-14T06:03:44Z</time>
   </trkpt>
   <trkpt lat="51.1434650" lon="5.7251200">
    <ele>31.7</ele>
    <time>2020-06-14T06:03:45Z</time>
   </trkpt>
   <trkpt lat="51.1434440" lon="5.7250260">
    <ele>31.7</ele>
    <time>2020-06-14T06:03:46Z</time>
   </trkpt>
   <trkpt lat="51.1434250" lon="5.7249310">
    <ele>31.7</ele>
    <time>2020-06-14T06:03:47Z</time>
   </trkpt>
   <trkpt lat="51.1434080" lon="5.7248460">
    <ele>31.7</ele>
    <time>2020-06-14T06:03:48Z</time>
   </trkpt>
   <trkpt lat="51.1433860" lon="5.7247600">
    <ele>31.7</ele>
    <time>2020-06-14T06:03:49Z</time>
   </trkpt>
   <trkpt lat="51.1433670" lon="5.7246650">
    <ele>31.7</ele>
    <time>2020-06-14T06:03:50Z</time>
   </trkpt>
   <trkpt lat="51.1433480" lon="5.7245600">
    <ele>31.7</ele>
    <time>2020-06-14T06:03:51Z</time>
   </trkpt>
   <trkpt lat="51.1433280" lon="5.7244600">
    <ele>31.8</ele>
    <time>2020-06-14T06:03:52Z</time>
   </trkpt>
   <trkpt lat="51.1433070" lon="5.7243570">
    <ele>31.8</ele>
    <time>2020-06-14T06:03:53Z</time>
   </trkpt>
   <trkpt lat="51.1432880" lon="5.7242650">
    <ele>31.8</ele>
    <time>2020-06-14T06:03:54Z</time>
   </trkpt>
   <trkpt lat="51.1432650" lon="5.7241660">
    <ele>31.8</ele>
    <time>2020-06-14T06:03:55Z</time>
   </trkpt>
   <trkpt lat="51.1432470" lon="5.7240720">
    <ele>31.8</ele>
    <time>2020-06-14T06:03:56Z</time>
   </trkpt>
   <trkpt lat="51.1432240" lon="5.7239850">
    <ele>31.8</ele>
    <time>2020-06-14T06:03:57Z</time>
   </trkpt>
   <trkpt lat="51.1431940" lon="5.7238810">
    <ele>31.8</ele>
    <time>2020-06-14T06:03:58Z</time>
   </trkpt>
   <trkpt lat="51.1431590" lon="5.7237850">
    <ele>31.8</ele>
    <time>2020-06-14T06:03:59Z</time>
   </trkpt>
   <trkpt lat="51.1431260" lon="5.7236970">
    <ele>31.8</ele>
    <time>2020-06-14T06:04:00Z</time>
   </trkpt>
   <trkpt lat="51.1430940" lon="5.7236030">
    <ele>31.8</ele>
    <time>2020-06-14T06:04:01Z</time>
   </trkpt>
   <trkpt lat="51.1430640" lon="5.7235200">
    <ele>31.8</ele>
    <time>2020-06-14T06:04:02Z</time>
   </trkpt>
   <trkpt lat="51.1430360" lon="5.7234430">
    <ele>31.7</ele>
    <time>2020-06-14T06:04:03Z</time>
   </trkpt>
   <trkpt lat="51.1430040" lon="5.7233520">
    <ele>31.7</ele>
    <time>2020-06-14T06:04:04Z</time>
   </trkpt>
   <trkpt lat="51.1429750" lon="5.7232590">
    <ele>31.7</ele>
    <time>2020-06-14T06:04:05Z</time>
   </trkpt>
   <trkpt lat="51.1429500" lon="5.7231650">
    <ele>31.7</ele>
    <time>2020-06-14T06:04:06Z</time>
   </trkpt>
   <trkpt lat="51.1429210" lon="5.7230640">
    <ele>31.7</ele>
    <time>2020-06-14T06:04:07Z</time>
   </trkpt>
   <trkpt lat="51.1428980" lon="5.7229660">
    <ele>31.8</ele>
    <time>2020-06-14T06:04:08Z</time>
   </trkpt>
   <trkpt lat="51.1428770" lon="5.7228710">
    <ele>31.8</ele>
    <time>2020-06-14T06:04:09Z</time>
   </trkpt>
   <trkpt lat="51.1428560" lon="5.7227710">
    <ele>31.8</ele>
    <time>2020-06-14T06:04:10Z</time>
   </trkpt>
   <trkpt lat="51.1428400" lon="5.7226740">
    <ele>31.8</ele>
    <time>2020-06-14T06:04:11Z</time>
   </trkpt>
   <trkpt lat="51.1428250" lon="5.7225770">
    <ele>31.8</ele>
    <time>2020-06-14T06:04:12Z</time>
   </trkpt>
   <trkpt lat="51.1428060" lon="5.7224770">
    <ele>31.8</ele>
    <time>2020-06-14T06:04:13Z</time>
   </trkpt>
   <trkpt lat="51.1427890" lon="5.7223700">
    <ele>31.8</ele>
    <time>2020-06-14T06:04:14Z</time>
   </trkpt>
   <trkpt lat="51.1427690" lon="5.7222650">
    <ele>31.8</ele>
    <time>2020-06-14T06:04:15Z</time>
   </trkpt>
   <trkpt lat="51.1427500" lon="5.7221690">
    <ele>31.8</ele>
    <time>2020-06-14T06:04:16Z</time>
   </trkpt>
   <trkpt lat="51.1427340" lon="5.7220710">
    <ele>31.8</ele>
    <time>2020-06-14T06:04:17Z</time>
   </trkpt>
   <trkpt lat="51.1427160" lon="5.7219760">
    <ele>31.8</ele>
    <time>2020-06-14T06:04:18Z</time>
   </trkpt>
   <trkpt lat="51.1426990" lon="5.7218880">
    <ele>31.8</ele>
    <time>2020-06-14T06:04:19Z</time>
   </trkpt>
   <trkpt lat="51.1426820" lon="5.7217910">
    <ele>31.8</ele>
    <time>2020-06-14T06:04:20Z</time>
   </trkpt>
   <trkpt lat="51.1426690" lon="5.7217240">
    <ele>31.9</ele>
    <time>2020-06-14T06:04:21Z</time>
   </trkpt>
   <trkpt lat="51.1426520" lon="5.7216260">
    <ele>31.9</ele>
    <time>2020-06-14T06:04:22Z</time>
   </trkpt>
   <trkpt lat="51.1426320" lon="5.7215210">
    <ele>31.9</ele>
    <time>2020-06-14T06:04:23Z</time>
   </trkpt>
   <trkpt lat="51.1426110" lon="5.7214150">
    <ele>31.9</ele>
    <time>2020-06-14T06:04:24Z</time>
   </trkpt>
   <trkpt lat="51.1425980" lon="5.7213290">
    <ele>31.8</ele>
    <time>2020-06-14T06:04:25Z</time>
   </trkpt>
   <trkpt lat="51.1425780" lon="5.7212290">
    <ele>31.8</ele>
    <time>2020-06-14T06:04:26Z</time>
   </trkpt>
   <trkpt lat="51.1425610" lon="5.7211150">
    <ele>31.8</ele>
    <time>2020-06-14T06:04:27Z</time>
   </trkpt>
   <trkpt lat="51.1425450" lon="5.7210120">
    <ele>31.8</ele>
    <time>2020-06-14T06:04:28Z</time>
   </trkpt>
   <trkpt lat="51.1425250" lon="5.7209150">
    <ele>31.8</ele>
    <time>2020-06-14T06:04:29Z</time>
   </trkpt>
   <trkpt lat="51.1425050" lon="5.7208220">
    <ele>31.8</ele>
    <time>2020-06-14T06:04:30Z</time>
   </trkpt>
   <trkpt lat="51.1424900" lon="5.7207210">
    <ele>31.8</ele>
    <time>2020-06-14T06:04:31Z</time>
   </trkpt>
   <trkpt lat="51.1424760" lon="5.7206200">
    <ele>31.9</ele>
    <time>2020-06-14T06:04:32Z</time>
   </trkpt>
   <trkpt lat="51.1424630" lon="5.7205200">
    <ele>31.9</ele>
    <time>2020-06-14T06:04:33Z</time>
   </trkpt>
   <trkpt lat="51.1424500" lon="5.7204270">
    <ele>31.9</ele>
    <time>2020-06-14T06:04:34Z</time>
   </trkpt>
   <trkpt lat="51.1424360" lon="5.7203290">
    <ele>31.9</ele>
    <time>2020-06-14T06:04:35Z</time>
   </trkpt>
   <trkpt lat="51.1424210" lon="5.7202290">
    <ele>31.9</ele>
    <time>2020-06-14T06:04:36Z</time>
   </trkpt>
   <trkpt lat="51.1424030" lon="5.7201310">
    <ele>31.9</ele>
    <time>2020-06-14T06:04:37Z</time>
   </trkpt>
   <trkpt lat="51.1423870" lon="5.7200410">
    <ele>31.9</ele>
    <time>2020-06-14T06:04:38Z</time>
   </trkpt>
   <trkpt lat="51.1423730" lon="5.7199430">
    <ele>31.9</ele>
    <time>2020-06-14T06:04:39Z</time>
   </trkpt>
   <trkpt lat="51.1423540" lon="5.7198430">
    <ele>31.9</ele>
    <time>2020-06-14T06:04:40Z</time>
   </trkpt>
   <trkpt lat="51.1423360" lon="5.7197410">
    <ele>32.0</ele>
    <time>2020-06-14T06:04:41Z</time>
   </trkpt>
   <trkpt lat="51.1423130" lon="5.7196290">
    <ele>32.0</ele>
    <time>2020-06-14T06:04:42Z</time>
   </trkpt>
   <trkpt lat="51.1422920" lon="5.7195340">
    <ele>32.0</ele>
    <time>2020-06-14T06:04:43Z</time>
   </trkpt>
   <trkpt lat="51.1422830" lon="5.7194470">
    <ele>32.0</ele>
    <time>2020-06-14T06:04:44Z</time>
   </trkpt>
   <trkpt lat="51.1422690" lon="5.7193560">
    <ele>32.0</ele>
    <time>2020-06-14T06:04:45Z</time>
   </trkpt>
   <trkpt lat="51.1422580" lon="5.7192690">
    <ele>32.0</ele>
    <time>2020-06-14T06:04:46Z</time>
   </trkpt>
   <trkpt lat="51.1422460" lon="5.7191860">
    <ele>32.0</ele>
    <time>2020-06-14T06:04:47Z</time>
   </trkpt>
   <trkpt lat="51.1422330" lon="5.7191030">
    <ele>32.0</ele>
    <time>2020-06-14T06:04:48Z</time>
   </trkpt>
   <trkpt lat="51.1422200" lon="5.7190260">
    <ele>32.0</ele>
    <time>2020-06-14T06:04:49Z</time>
   </trkpt>
   <trkpt lat="51.1422120" lon="5.7189490">
    <ele>32.0</ele>
    <time>2020-06-14T06:04:50Z</time>
   </trkpt>
   <trkpt lat="51.1422040" lon="5.7188680">
    <ele>32.0</ele>
    <time>2020-06-14T06:04:51Z</time>
   </trkpt>
   <trkpt lat="51.1421960" lon="5.7187850">
    <ele>32.1</ele>
    <time>2020-06-14T06:04:52Z</time>
   </trkpt>
   <trkpt lat="51.1421880" lon="5.7187150">
    <ele>32.1</ele>
    <time>2020-06-14T06:04:53Z</time>
   </trkpt>
   <trkpt lat="51.1421780" lon="5.7186450">
    <ele>32.1</ele>
    <time>2020-06-14T06:04:54Z</time>
   </trkpt>
   <trkpt lat="51.1421600" lon="5.7185800">
    <ele>32.1</ele>
    <time>2020-06-14T06:04:55Z</time>
   </trkpt>
   <trkpt lat="51.1421450" lon="5.7185180">
    <ele>32.1</ele>
    <time>2020-06-14T06:04:56Z</time>
   </trkpt>
   <trkpt lat="51.1421080" lon="5.7184760">
    <ele>31.9</ele>
    <time>2020-06-14T06:04:57Z</time>
   </trkpt>
   <trkpt lat="51.1420620" lon="5.7184480">
    <ele>31.8</ele>
    <time>2020-06-14T06:04:58Z</time>
   </trkpt>
   <trkpt lat="51.1420190" lon="5.7184440">
    <ele>31.8</ele>
    <time>2020-06-14T06:04:59Z</time>
   </trkpt>
   <trkpt lat="51.1419670" lon="5.7184440">
    <ele>31.7</ele>
    <time>2020-06-14T06:05:00Z</time>
   </trkpt>
   <trkpt lat="51.1419140" lon="5.7184410">
    <ele>31.7</ele>
    <time>2020-06-14T06:05:01Z</time>
   </trkpt>
   <trkpt lat="51.1418460" lon="5.7184510">
    <ele>31.6</ele>
    <time>2020-06-14T06:05:02Z</time>
   </trkpt>
   <trkpt lat="51.1417920" lon="5.7184650">
    <ele>31.6</ele>
    <time>2020-06-14T06:05:03Z</time>
   </trkpt>
   <trkpt lat="51.1417220" lon="5.7184800">
    <ele>31.5</ele>
    <time>2020-06-14T06:05:04Z</time>
   </trkpt>
   <trkpt lat="51.1416540" lon="5.7184940">
    <ele>31.5</ele>
    <time>2020-06-14T06:05:05Z</time>
   </trkpt>
   <trkpt lat="51.1415790" lon="5.7185010">
    <ele>31.5</ele>
    <time>2020-06-14T06:05:06Z</time>
   </trkpt>
   <trkpt lat="51.1415110" lon="5.7185160">
    <ele>31.4</ele>
    <time>2020-06-14T06:05:07Z</time>
   </trkpt>
   <trkpt lat="51.1414490" lon="5.7185210">
    <ele>31.4</ele>
    <time>2020-06-14T06:05:08Z</time>
   </trkpt>
   <trkpt lat="51.1413810" lon="5.7185130">
    <ele>31.4</ele>
    <time>2020-06-14T06:05:09Z</time>
   </trkpt>
   <trkpt lat="51.1413150" lon="5.7185090">
    <ele>31.4</ele>
    <time>2020-06-14T06:05:10Z</time>
   </trkpt>
   <trkpt lat="51.1412610" lon="5.7185140">
    <ele>31.4</ele>
    <time>2020-06-14T06:05:11Z</time>
   </trkpt>
   <trkpt lat="51.1411950" lon="5.7185200">
    <ele>31.4</ele>
    <time>2020-06-14T06:05:12Z</time>
   </trkpt>
   <trkpt lat="51.1411220" lon="5.7185330">
    <ele>31.3</ele>
    <time>2020-06-14T06:05:13Z</time>
   </trkpt>
   <trkpt lat="51.1410600" lon="5.7185290">
    <ele>31.3</ele>
    <time>2020-06-14T06:05:14Z</time>
   </trkpt>
   <trkpt lat="51.1410000" lon="5.7185320">
    <ele>31.3</ele>
    <time>2020-06-14T06:05:15Z</time>
   </trkpt>
   <trkpt lat="51.1409410" lon="5.7185400">
    <ele>31.3</ele>
    <time>2020-06-14T06:05:16Z</time>
   </trkpt>
   <trkpt lat="51.1408780" lon="5.7185370">
    <ele>31.3</ele>
    <time>2020-06-14T06:05:17Z</time>
   </trkpt>
   <trkpt lat="51.1408150" lon="5.7185280">
    <ele>31.3</ele>
    <time>2020-06-14T06:05:18Z</time>
   </trkpt>
   <trkpt lat="51.1407520" lon="5.7185280">
    <ele>31.3</ele>
    <time>2020-06-14T06:05:19Z</time>
   </trkpt>
   <trkpt lat="51.1406840" lon="5.7185220">
    <ele>31.4</ele>
    <time>2020-06-14T06:05:20Z</time>
   </trkpt>
   <trkpt lat="51.1406180" lon="5.7185200">
    <ele>31.4</ele>
    <time>2020-06-14T06:05:21Z</time>
   </trkpt>
   <trkpt lat="51.1405410" lon="5.7185290">
    <ele>31.4</ele>
    <time>2020-06-14T06:05:22Z</time>
   </trkpt>
   <trkpt lat="51.1404740" lon="5.7185270">
    <ele>31.4</ele>
    <time>2020-06-14T06:05:23Z</time>
   </trkpt>
   <trkpt lat="51.1404130" lon="5.7185260">
    <ele>31.5</ele>
    <time>2020-06-14T06:05:24Z</time>
   </trkpt>
   <trkpt lat="51.1403490" lon="5.7185190">
    <ele>31.5</ele>
    <time>2020-06-14T06:05:25Z</time>
   </trkpt>
   <trkpt lat="51.1402840" lon="5.7185080">
    <ele>31.5</ele>
    <time>2020-06-14T06:05:26Z</time>
   </trkpt>
   <trkpt lat="51.1402290" lon="5.7184700">
    <ele>31.6</ele>
    <time>2020-06-14T06:05:27Z</time>
   </trkpt>
   <trkpt lat="51.1401960" lon="5.7184050">
    <ele>31.6</ele>
    <time>2020-06-14T06:05:28Z</time>
   </trkpt>
   <trkpt lat="51.1401660" lon="5.7183250">
    <ele>31.5</ele>
    <time>2020-06-14T06:05:29Z</time>
   </trkpt>
   <trkpt lat="51.1401380" lon="5.7182300">
    <ele>31.5</ele>
    <time>2020-06-14T06:05:30Z</time>
   </trkpt>
   <trkpt lat="51.1401110" lon="5.7181370">
    <ele>31.4</ele>
    <time>2020-06-14T06:05:31Z</time>
   </trkpt>
   <trkpt lat="51.1400790" lon="5.7180370">
    <ele>31.4</ele>
    <time>2020-06-14T06:05:32Z</time>
   </trkpt>
   <trkpt lat="51.1400560" lon="5.7179430">
    <ele>31.4</ele>
    <time>2020-06-14T06:05:33Z</time>
   </trkpt>
   <trkpt lat="51.1400340" lon="5.7178400">
    <ele>31.4</ele>
    <time>2020-06-14T06:05:34Z</time>
   </trkpt>
   <trkpt lat="51.1400060" lon="5.7177320">
    <ele>31.4</ele>
    <time>2020-06-14T06:05:35Z</time>
   </trkpt>
   <trkpt lat="51.1399750" lon="5.7176180">
    <ele>31.4</ele>
    <time>2020-06-14T06:05:36Z</time>
   </trkpt>
   <trkpt lat="51.1399480" lon="5.7174990">
    <ele>31.4</ele>
    <time>2020-06-14T06:05:37Z</time>
   </trkpt>
   <trkpt lat="51.1399170" lon="5.7173900">
    <ele>31.3</ele>
    <time>2020-06-14T06:05:38Z</time>
   </trkpt>
   <trkpt lat="51.1398930" lon="5.7172780">
    <ele>31.3</ele>
    <time>2020-06-14T06:05:39Z</time>
   </trkpt>
   <trkpt lat="51.1398650" lon="5.7171600">
    <ele>31.2</ele>
    <time>2020-06-14T06:05:40Z</time>
   </trkpt>
   <trkpt lat="51.1398410" lon="5.7170440">
    <ele>31.2</ele>
    <time>2020-06-14T06:05:41Z</time>
   </trkpt>
   <trkpt lat="51.1398200" lon="5.7169520">
    <ele>31.2</ele>
    <time>2020-06-14T06:05:42Z</time>
   </trkpt>
   <trkpt lat="51.1397930" lon="5.7168500">
    <ele>31.2</ele>
    <time>2020-06-14T06:05:43Z</time>
   </trkpt>
   <trkpt lat="51.1397590" lon="5.7167580">
    <ele>31.2</ele>
    <time>2020-06-14T06:05:44Z</time>
   </trkpt>
   <trkpt lat="51.1397350" lon="5.7166530">
    <ele>31.3</ele>
    <time>2020-06-14T06:05:45Z</time>
   </trkpt>
   <trkpt lat="51.1397090" lon="5.7165390">
    <ele>31.3</ele>
    <time>2020-06-14T06:05:46Z</time>
   </trkpt>
   <trkpt lat="51.1396900" lon="5.7164430">
    <ele>31.3</ele>
    <time>2020-06-14T06:05:47Z</time>
   </trkpt>
   <trkpt lat="51.1396690" lon="5.7163540">
    <ele>31.3</ele>
    <time>2020-06-14T06:05:48Z</time>
   </trkpt>
   <trkpt lat="51.1396490" lon="5.7162620">
    <ele>31.4</ele>
    <time>2020-06-14T06:05:49Z</time>
   </trkpt>
   <trkpt lat="51.1396320" lon="5.7161610">
    <ele>31.4</ele>
    <time>2020-06-14T06:05:50Z</time>
   </trkpt>
   <trkpt lat="51.1396140" lon="5.7160650">
    <ele>31.5</ele>
    <time>2020-06-14T06:05:51Z</time>
   </trkpt>
   <trkpt lat="51.1396020" lon="5.7159890">
    <ele>31.5</ele>
    <time>2020-06-14T06:05:52Z</time>
   </trkpt>
   <trkpt lat="51.1395890" lon="5.7159120">
    <ele>31.5</ele>
    <time>2020-06-14T06:05:53Z</time>
   </trkpt>
   <trkpt lat="51.1395710" lon="5.7158460">
    <ele>31.5</ele>
    <time>2020-06-14T06:05:54Z</time>
   </trkpt>
   <trkpt lat="51.1395530" lon="5.7157780">
    <ele>31.5</ele>
    <time>2020-06-14T06:05:55Z</time>
   </trkpt>
   <trkpt lat="51.1395290" lon="5.7157110">
    <ele>31.5</ele>
    <time>2020-06-14T06:05:56Z</time>
   </trkpt>
   <trkpt lat="51.1395030" lon="5.7156400">
    <ele>31.5</ele>
    <time>2020-06-14T06:05:57Z</time>
   </trkpt>
   <trkpt lat="51.1394790" lon="5.7155660">
    <ele>31.5</ele>
    <time>2020-06-14T06:05:58Z</time>
   </trkpt>
   <trkpt lat="51.1394520" lon="5.7154870">
    <ele>31.5</ele>
    <time>2020-06-14T06:05:59Z</time>
   </trkpt>
   <trkpt lat="51.1394280" lon="5.7153990">
    <ele>31.5</ele>
    <time>2020-06-14T06:06:00Z</time>
   </trkpt>
   <trkpt lat="51.1394020" lon="5.7153100">
    <ele>31.5</ele>
    <time>2020-06-14T06:06:01Z</time>
   </trkpt>
   <trkpt lat="51.1393740" lon="5.7152130">
    <ele>31.5</ele>
    <time>2020-06-14T06:06:02Z</time>
   </trkpt>
   <trkpt lat="51.1393460" lon="5.7151200">
    <ele>31.5</ele>
    <time>2020-06-14T06:06:03Z</time>
   </trkpt>
   <trkpt lat="51.1393220" lon="5.7150200">
    <ele>31.5</ele>
    <time>2020-06-14T06:06:04Z</time>
   </trkpt>
   <trkpt lat="51.1393030" lon="5.7149320">
    <ele>31.5</ele>
    <time>2020-06-14T06:06:05Z</time>
   </trkpt>
   <trkpt lat="51.1392800" lon="5.7148350">
    <ele>31.5</ele>
    <time>2020-06-14T06:06:06Z</time>
   </trkpt>
   <trkpt lat="51.1392590" lon="5.7147370">
    <ele>31.5</ele>
    <time>2020-06-14T06:06:07Z</time>
   </trkpt>
   <trkpt lat="51.1392340" lon="5.7146420">
    <ele>31.6</ele>
    <time>2020-06-14T06:06:08Z</time>
   </trkpt>
   <trkpt lat="51.1392060" lon="5.7145460">
    <ele>31.6</ele>
    <time>2020-06-14T06:06:09Z</time>
   </trkpt>
   <trkpt lat="51.1391840" lon="5.7144450">
    <ele>31.6</ele>
    <time>2020-06-14T06:06:10Z</time>
   </trkpt>
   <trkpt lat="51.1391590" lon="5.7143380">
    <ele>31.6</ele>
    <time>2020-06-14T06:06:11Z</time>
   </trkpt>
   <trkpt lat="51.1391370" lon="5.7142260">
    <ele>31.6</ele>
    <time>2020-06-14T06:06:12Z</time>
   </trkpt>
   <trkpt lat="51.1391140" lon="5.7141300">
    <ele>31.7</ele>
    <time>2020-06-14T06:06:13Z</time>
   </trkpt>
   <trkpt lat="51.1390970" lon="5.7140450">
    <ele>31.6</ele>
    <time>2020-06-14T06:06:14Z</time>
   </trkpt>
   <trkpt lat="51.1390790" lon="5.7139560">
    <ele>31.6</ele>
    <time>2020-06-14T06:06:15Z</time>
   </trkpt>
   <trkpt lat="51.1390570" lon="5.7138630">
    <ele>31.6</ele>
    <time>2020-06-14T06:06:16Z</time>
   </trkpt>
   <trkpt lat="51.1390460" lon="5.7137680">
    <ele>31.5</ele>
    <time>2020-06-14T06:06:17Z</time>
   </trkpt>
   <trkpt lat="51.1390350" lon="5.7136860">
    <ele>31.5</ele>
    <time>2020-06-14T06:06:18Z</time>
   </trkpt>
   <trkpt lat="51.1390170" lon="5.7136000">
    <ele>31.5</ele>
    <time>2020-06-14T06:06:19Z</time>
   </trkpt>
   <trkpt lat="51.1389900" lon="5.7134910">
    <ele>31.5</ele>
    <time>2020-06-14T06:06:20Z</time>
   </trkpt>
   <trkpt lat="51.1389720" lon="5.7133690">
    <ele>31.5</ele>
    <time>2020-06-14T06:06:21Z</time>
   </trkpt>
   <trkpt lat="51.1389410" lon="5.7132390">
    <ele>31.5</ele>
    <time>2020-06-14T06:06:22Z</time>
   </trkpt>
   <trkpt lat="51.1389140" lon="5.7131280">
    <ele>31.5</ele>
    <time>2020-06-14T06:06:23Z</time>
   </trkpt>
   <trkpt lat="51.1388880" lon="5.7130150">
    <ele>31.4</ele>
    <time>2020-06-14T06:06:24Z</time>
   </trkpt>
   <trkpt lat="51.1388600" lon="5.7129130">
    <ele>31.4</ele>
    <time>2020-06-14T06:06:25Z</time>
   </trkpt>
   <trkpt lat="51.1388320" lon="5.7128080">
    <ele>31.4</ele>
    <time>2020-06-14T06:06:26Z</time>
   </trkpt>
   <trkpt lat="51.1388030" lon="5.7126970">
    <ele>31.4</ele>
    <time>2020-06-14T06:06:27Z</time>
   </trkpt>
   <trkpt lat="51.1387760" lon="5.7125940">
    <ele>31.4</ele>
    <time>2020-06-14T06:06:28Z</time>
   </trkpt>
   <trkpt lat="51.1387450" lon="5.7124840">
    <ele>31.4</ele>
    <time>2020-06-14T06:06:29Z</time>
   </trkpt>
   <trkpt lat="51.1387200" lon="5.7123860">
    <ele>31.4</ele>
    <time>2020-06-14T06:06:30Z</time>
   </trkpt>
   <trkpt lat="51.1386970" lon="5.7123010">
    <ele>31.4</ele>
    <time>2020-06-14T06:06:31Z</time>
   </trkpt>
   <trkpt lat="51.1386730" lon="5.7122130">
    <ele>31.4</ele>
    <time>2020-06-14T06:06:32Z</time>
   </trkpt>
   <trkpt lat="51.1386470" lon="5.7121150">
    <ele>31.5</ele>
    <time>2020-06-14T06:06:33Z</time>
   </trkpt>
   <trkpt lat="51.1386210" lon="5.7120160">
    <ele>31.5</ele>
    <time>2020-06-14T06:06:34Z</time>
   </trkpt>
   <trkpt lat="51.1385920" lon="5.7119070">
    <ele>31.5</ele>
    <time>2020-06-14T06:06:35Z</time>
   </trkpt>
   <trkpt lat="51.1385660" lon="5.7118130">
    <ele>31.5</ele>
    <time>2020-06-14T06:06:36Z</time>
   </trkpt>
   <trkpt lat="51.1385430" lon="5.7117270">
    <ele>31.5</ele>
    <time>2020-06-14T06:06:37Z</time>
   </trkpt>
   <trkpt lat="51.1385170" lon="5.7116420">
    <ele>31.6</ele>
    <time>2020-06-14T06:06:38Z</time>
   </trkpt>
   <trkpt lat="51.1384970" lon="5.7115670">
    <ele>31.6</ele>
    <time>2020-06-14T06:06:39Z</time>
   </trkpt>
   <trkpt lat="51.1384770" lon="5.7114880">
    <ele>31.6</ele>
    <time>2020-06-14T06:06:40Z</time>
   </trkpt>
   <trkpt lat="51.1384520" lon="5.7114030">
    <ele>31.6</ele>
    <time>2020-06-14T06:06:41Z</time>
   </trkpt>
   <trkpt lat="51.1384280" lon="5.7113120">
    <ele>31.6</ele>
    <time>2020-06-14T06:06:42Z</time>
   </trkpt>
   <trkpt lat="51.1384050" lon="5.7112250">
    <ele>31.6</ele>
    <time>2020-06-14T06:06:43Z</time>
   </trkpt>
   <trkpt lat="51.1383810" lon="5.7111330">
    <ele>31.6</ele>
    <time>2020-06-14T06:06:44Z</time>
   </trkpt>
   <trkpt lat="51.1383600" lon="5.7110450">
    <ele>31.6</ele>
    <time>2020-06-14T06:06:45Z</time>
   </trkpt>
   <trkpt lat="51.1383310" lon="5.7109400">
    <ele>31.6</ele>
    <time>2020-06-14T06:06:46Z</time>
   </trkpt>
   <trkpt lat="51.1383050" lon="5.7108430">
    <ele>31.6</ele>
    <time>2020-06-14T06:06:47Z</time>
   </trkpt>
   <trkpt lat="51.1382800" lon="5.7107480">
    <ele>31.5</ele>
    <time>2020-06-14T06:06:48Z</time>
   </trkpt>
   <trkpt lat="51.1382560" lon="5.7106580">
    <ele>31.5</ele>
    <time>2020-06-14T06:06:49Z</time>
   </trkpt>
   <trkpt lat="51.1382300" lon="5.7105600">
    <ele>31.5</ele>
    <time>2020-06-14T06:06:50Z</time>
   </trkpt>
   <trkpt lat="51.1381980" lon="5.7104460">
    <ele>31.5</ele>
    <time>2020-06-14T06:06:51Z</time>
   </trkpt>
   <trkpt lat="51.1381750" lon="5.7103560">
    <ele>31.5</ele>
    <time>2020-06-14T06:06:52Z</time>
   </trkpt>
   <trkpt lat="51.1381520" lon="5.7102660">
    <ele>31.5</ele>
    <time>2020-06-14T06:06:53Z</time>
   </trkpt>
   <trkpt lat="51.1381340" lon="5.7101850">
    <ele>31.5</ele>
    <time>2020-06-14T06:06:54Z</time>
   </trkpt>
   <trkpt lat="51.1381010" lon="5.7100920">
    <ele>31.5</ele>
    <time>2020-06-14T06:06:55Z</time>
   </trkpt>
   <trkpt lat="51.1380760" lon="5.7099990">
    <ele>31.5</ele>
    <time>2020-06-14T06:06:56Z</time>
   </trkpt>
   <trkpt lat="51.1380600" lon="5.7099190">
    <ele>31.5</ele>
    <time>2020-06-14T06:06:57Z</time>
   </trkpt>
   <trkpt lat="51.1380400" lon="5.7098380">
    <ele>31.5</ele>
    <time>2020-06-14T06:06:58Z</time>
   </trkpt>
   <trkpt lat="51.1380110" lon="5.7097630">
    <ele>31.5</ele>
    <time>2020-06-14T06:06:59Z</time>
   </trkpt>
   <trkpt lat="51.1379670" lon="5.7096950">
    <ele>31.5</ele>
    <time>2020-06-14T06:07:00Z</time>
   </trkpt>
   <trkpt lat="51.1379170" lon="5.7096520">
    <ele>31.5</ele>
    <time>2020-06-14T06:07:01Z</time>
   </trkpt>
   <trkpt lat="51.1378580" lon="5.7095960">
    <ele>31.5</ele>
    <time>2020-06-14T06:07:02Z</time>
   </trkpt>
   <trkpt lat="51.1377940" lon="5.7095300">
    <ele>31.5</ele>
    <time>2020-06-14T06:07:03Z</time>
   </trkpt>
   <trkpt lat="51.1377320" lon="5.7094670">
    <ele>31.5</ele>
    <time>2020-06-14T06:07:04Z</time>
   </trkpt>
   <trkpt lat="51.1376730" lon="5.7093990">
    <ele>31.6</ele>
    <time>2020-06-14T06:07:05Z</time>
   </trkpt>
   <trkpt lat="51.1376210" lon="5.7093350">
    <ele>31.6</ele>
    <time>2020-06-14T06:07:06Z</time>
   </trkpt>
   <trkpt lat="51.1375690" lon="5.7092770">
    <ele>31.7</ele>
    <time>2020-06-14T06:07:07Z</time>
   </trkpt>
   <trkpt lat="51.1375150" lon="5.7092230">
    <ele>31.7</ele>
    <time>2020-06-14T06:07:08Z</time>
   </trkpt>
   <trkpt lat="51.1374680" lon="5.7091730">
    <ele>31.8</ele>
    <time>2020-06-14T06:07:09Z</time>
   </trkpt>
   <trkpt lat="51.1374240" lon="5.7091320">
    <ele>31.9</ele>
    <time>2020-06-14T06:07:10Z</time>
   </trkpt>
   <trkpt lat="51.1373960" lon="5.7090740">
    <ele>31.9</ele>
    <time>2020-06-14T06:07:11Z</time>
   </trkpt>
   <trkpt lat="51.1373920" lon="5.7089910">
    <ele>31.8</ele>
    <time>2020-06-14T06:07:12Z</time>
   </trkpt>
   <trkpt lat="51.1374090" lon="5.7089020">
    <ele>31.8</ele>
    <time>2020-06-14T06:07:13Z</time>
   </trkpt>
   <trkpt lat="51.1374420" lon="5.7088170">
    <ele>31.7</ele>
    <time>2020-06-14T06:07:14Z</time>
   </trkpt>
   <trkpt lat="51.1374710" lon="5.7087250">
    <ele>31.6</ele>
    <time>2020-06-14T06:07:15Z</time>
   </trkpt>
   <trkpt lat="51.1374950" lon="5.7086260">
    <ele>31.6</ele>
    <time>2020-06-14T06:07:16Z</time>
   </trkpt>
   <trkpt lat="51.1375170" lon="5.7085210">
    <ele>31.5</ele>
    <time>2020-06-14T06:07:17Z</time>
   </trkpt>
   <trkpt lat="51.1375440" lon="5.7084290">
    <ele>31.5</ele>
    <time>2020-06-14T06:07:18Z</time>
   </trkpt>
   <trkpt lat="51.1376030" lon="5.7083420">
    <ele>31.4</ele>
    <time>2020-06-14T06:07:19Z</time>
   </trkpt>
   <trkpt lat="51.1376340" lon="5.7082360">
    <ele>31.4</ele>
    <time>2020-06-14T06:07:20Z</time>
   </trkpt>
   <trkpt lat="51.1376690" lon="5.7081250">
    <ele>31.4</ele>
    <time>2020-06-14T06:07:21Z</time>
   </trkpt>
   <trkpt lat="51.1377040" lon="5.7080150">
    <ele>31.4</ele>
    <time>2020-06-14T06:07:22Z</time>
   </trkpt>
   <trkpt lat="51.1377410" lon="5.7078970">
    <ele>31.4</ele>
    <time>2020-06-14T06:07:23Z</time>
   </trkpt>
   <trkpt lat="51.1377760" lon="5.7077860">
    <ele>31.4</ele>
    <time>2020-06-14T06:07:24Z</time>
   </trkpt>
   <trkpt lat="51.1378120" lon="5.7076720">
    <ele>31.4</ele>
    <time>2020-06-14T06:07:25Z</time>
   </trkpt>
   <trkpt lat="51.1378480" lon="5.7075600">
    <ele>31.4</ele>
    <time>2020-06-14T06:07:26Z</time>
   </trkpt>
   <trkpt lat="51.1378800" lon="5.7074520">
    <ele>31.4</ele>
    <time>2020-06-14T06:07:27Z</time>
   </trkpt>
   <trkpt lat="51.1379110" lon="5.7073500">
    <ele>31.5</ele>
    <time>2020-06-14T06:07:28Z</time>
   </trkpt>
   <trkpt lat="51.1379340" lon="5.7072740">
    <ele>31.6</ele>
    <time>2020-06-14T06:07:29Z</time>
   </trkpt>
   <trkpt lat="51.1379570" lon="5.7072010">
    <ele>31.6</ele>
    <time>2020-06-14T06:07:30Z</time>
   </trkpt>
   <trkpt lat="51.1379740" lon="5.7071420">
    <ele>31.7</ele>
    <time>2020-06-14T06:07:31Z</time>
   </trkpt>
   <trkpt lat="51.1379890" lon="5.7070800">
    <ele>31.7</ele>
    <time>2020-06-14T06:07:32Z</time>
   </trkpt>
   <trkpt lat="51.1380280" lon="5.7070260">
    <ele>31.8</ele>
    <time>2020-06-14T06:07:33Z</time>
   </trkpt>
   <trkpt lat="51.1380910" lon="5.7069910">
    <ele>31.9</ele>
    <time>2020-06-14T06:07:34Z</time>
   </trkpt>
   <trkpt lat="51.1381600" lon="5.7069810">
    <ele>32.0</ele>
    <time>2020-06-14T06:07:35Z</time>
   </trkpt>
   <trkpt lat="51.1382250" lon="5.7069750">
    <ele>32.1</ele>
    <time>2020-06-14T06:07:36Z</time>
   </trkpt>
   <trkpt lat="51.1382800" lon="5.7069770">
    <ele>32.2</ele>
    <time>2020-06-14T06:07:37Z</time>
   </trkpt>
   <trkpt lat="51.1383250" lon="5.7069760">
    <ele>32.3</ele>
    <time>2020-06-14T06:07:38Z</time>
   </trkpt>
   <trkpt lat="51.1383750" lon="5.7069730">
    <ele>32.3</ele>
    <time>2020-06-14T06:07:39Z</time>
   </trkpt>
   <trkpt lat="51.1384230" lon="5.7069510">
    <ele>32.2</ele>
    <time>2020-06-14T06:07:40Z</time>
   </trkpt>
   <trkpt lat="51.1384590" lon="5.7068920">
    <ele>32.1</ele>
    <time>2020-06-14T06:07:41Z</time>
   </trkpt>
   <trkpt lat="51.1384950" lon="5.7068190">
    <ele>32.0</ele>
    <time>2020-06-14T06:07:42Z</time>
   </trkpt>
   <trkpt lat="51.1385190" lon="5.7067480">
    <ele>31.9</ele>
    <time>2020-06-14T06:07:43Z</time>
   </trkpt>
   <trkpt lat="51.1385450" lon="5.7066730">
    <ele>31.8</ele>
    <time>2020-06-14T06:07:44Z</time>
   </trkpt>
   <trkpt lat="51.1385670" lon="5.7065890">
    <ele>31.7</ele>
    <time>2020-06-14T06:07:45Z</time>
   </trkpt>
   <trkpt lat="51.1385810" lon="5.7064950">
    <ele>31.6</ele>
    <time>2020-06-14T06:07:46Z</time>
   </trkpt>
   <trkpt lat="51.1385880" lon="5.7063880">
    <ele>31.5</ele>
    <time>2020-06-14T06:07:47Z</time>
   </trkpt>
   <trkpt lat="51.1385910" lon="5.7062590">
    <ele>31.4</ele>
    <time>2020-06-14T06:07:48Z</time>
   </trkpt>
   <trkpt lat="51.1385800" lon="5.7061160">
    <ele>31.4</ele>
    <time>2020-06-14T06:07:49Z</time>
   </trkpt>
   <trkpt lat="51.1385750" lon="5.7059980">
    <ele>31.3</ele>
    <time>2020-06-14T06:07:51Z</time>
   </trkpt>
   <trkpt lat="51.1385730" lon="5.7058780">
    <ele>31.3</ele>
    <time>2020-06-14T06:07:52Z</time>
   </trkpt>
   <trkpt lat="51.1385770" lon="5.7057490">
    <ele>31.3</ele>
    <time>2020-06-14T06:07:53Z</time>
   </trkpt>
   <trkpt lat="51.1385400" lon="5.7056270">
    <ele>31.3</ele>
    <time>2020-06-14T06:07:54Z</time>
   </trkpt>
   <trkpt lat="51.1385390" lon="5.7055110">
    <ele>31.3</ele>
    <time>2020-06-14T06:07:55Z</time>
   </trkpt>
   <trkpt lat="51.1385380" lon="5.7054010">
    <ele>31.3</ele>
    <time>2020-06-14T06:07:56Z</time>
   </trkpt>
   <trkpt lat="51.1385440" lon="5.7053020">
    <ele>31.4</ele>
    <time>2020-06-14T06:07:57Z</time>
   </trkpt>
   <trkpt lat="51.1385450" lon="5.7051900">
    <ele>31.4</ele>
    <time>2020-06-14T06:07:58Z</time>
   </trkpt>
   <trkpt lat="51.1385150" lon="5.7050840">
    <ele>31.4</ele>
    <time>2020-06-14T06:07:59Z</time>
   </trkpt>
   <trkpt lat="51.1384990" lon="5.7049790">
    <ele>31.4</ele>
    <time>2020-06-14T06:08:00Z</time>
   </trkpt>
   <trkpt lat="51.1384900" lon="5.7048720">
    <ele>31.4</ele>
    <time>2020-06-14T06:08:01Z</time>
   </trkpt>
   <trkpt lat="51.1384850" lon="5.7047760">
    <ele>31.4</ele>
    <time>2020-06-14T06:08:02Z</time>
   </trkpt>
   <trkpt lat="51.1384710" lon="5.7046650">
    <ele>31.4</ele>
    <time>2020-06-14T06:08:03Z</time>
   </trkpt>
   <trkpt lat="51.1384570" lon="5.7045600">
    <ele>31.5</ele>
    <time>2020-06-14T06:08:04Z</time>
   </trkpt>
   <trkpt lat="51.1384430" lon="5.7044500">
    <ele>31.5</ele>
    <time>2020-06-14T06:08:05Z</time>
   </trkpt>
   <trkpt lat="51.1384300" lon="5.7043490">
    <ele>31.6</ele>
    <time>2020-06-14T06:08:06Z</time>
   </trkpt>
   <trkpt lat="51.1384180" lon="5.7042410">
    <ele>31.6</ele>
    <time>2020-06-14T06:08:07Z</time>
   </trkpt>
   <trkpt lat="51.1384050" lon="5.7041530">
    <ele>31.6</ele>
    <time>2020-06-14T06:08:08Z</time>
   </trkpt>
   <trkpt lat="51.1383900" lon="5.7040550">
    <ele>31.7</ele>
    <time>2020-06-14T06:08:09Z</time>
   </trkpt>
   <trkpt lat="51.1383770" lon="5.7039330">
    <ele>31.7</ele>
    <time>2020-06-14T06:08:10Z</time>
   </trkpt>
   <trkpt lat="51.1383650" lon="5.7038210">
    <ele>31.7</ele>
    <time>2020-06-14T06:08:11Z</time>
   </trkpt>
   <trkpt lat="51.1383470" lon="5.7037090">
    <ele>31.7</ele>
    <time>2020-06-14T06:08:12Z</time>
   </trkpt>
   <trkpt lat="51.1383310" lon="5.7035980">
    <ele>31.7</ele>
    <time>2020-06-14T06:08:13Z</time>
   </trkpt>
   <trkpt lat="51.1383180" lon="5.7035120">
    <ele>31.7</ele>
    <time>2020-06-14T06:08:14Z</time>
   </trkpt>
   <trkpt lat="51.1383050" lon="5.7034130">
    <ele>31.7</ele>
    <time>2020-06-14T06:08:15Z</time>
   </trkpt>
   <trkpt lat="51.1382930" lon="5.7033200">
    <ele>31.7</ele>
    <time>2020-06-14T06:08:16Z</time>
   </trkpt>
   <trkpt lat="51.1382800" lon="5.7032160">
    <ele>31.7</ele>
    <time>2020-06-14T06:08:17Z</time>
   </trkpt>
   <trkpt lat="51.1382650" lon="5.7031060">
    <ele>31.7</ele>
    <time>2020-06-14T06:08:18Z</time>
   </trkpt>
   <trkpt lat="51.1382510" lon="5.7030030">
    <ele>31.7</ele>
    <time>2020-06-14T06:08:19Z</time>
   </trkpt>
   <trkpt lat="51.1382370" lon="5.7029010">
    <ele>31.7</ele>
    <time>2020-06-14T06:08:20Z</time>
   </trkpt>
   <trkpt lat="51.1382250" lon="5.7027910">
    <ele>31.7</ele>
    <time>2020-06-14T06:08:21Z</time>
   </trkpt>
   <trkpt lat="51.1382120" lon="5.7026750">
    <ele>31.7</ele>
    <time>2020-06-14T06:08:22Z</time>
   </trkpt>
   <trkpt lat="51.1381970" lon="5.7025680">
    <ele>31.8</ele>
    <time>2020-06-14T06:08:23Z</time>
   </trkpt>
   <trkpt lat="51.1381830" lon="5.7024920">
    <ele>31.8</ele>
    <time>2020-06-14T06:08:24Z</time>
   </trkpt>
   <trkpt lat="51.1381660" lon="5.7023770">
    <ele>31.8</ele>
    <time>2020-06-14T06:08:25Z</time>
   </trkpt>
   <trkpt lat="51.1381500" lon="5.7022750">
    <ele>31.9</ele>
    <time>2020-06-14T06:08:26Z</time>
   </trkpt>
   <trkpt lat="51.1381360" lon="5.7021810">
    <ele>31.9</ele>
    <time>2020-06-14T06:08:27Z</time>
   </trkpt>
   <trkpt lat="51.1381200" lon="5.7020800">
    <ele>31.9</ele>
    <time>2020-06-14T06:08:28Z</time>
   </trkpt>
   <trkpt lat="51.1381060" lon="5.7019710">
    <ele>32.0</ele>
    <time>2020-06-14T06:08:29Z</time>
   </trkpt>
   <trkpt lat="51.1380870" lon="5.7018590">
    <ele>32.0</ele>
    <time>2020-06-14T06:08:30Z</time>
   </trkpt>
   <trkpt lat="51.1380720" lon="5.7017610">
    <ele>32.1</ele>
    <time>2020-06-14T06:08:31Z</time>
   </trkpt>
   <trkpt lat="51.1380630" lon="5.7016550">
    <ele>32.1</ele>
    <time>2020-06-14T06:08:32Z</time>
   </trkpt>
   <trkpt lat="51.1380490" lon="5.7015510">
    <ele>32.2</ele>
    <time>2020-06-14T06:08:33Z</time>
   </trkpt>
   <trkpt lat="51.1380330" lon="5.7014410">
    <ele>32.2</ele>
    <time>2020-06-14T06:08:34Z</time>
   </trkpt>
   <trkpt lat="51.1380180" lon="5.7013360">
    <ele>32.2</ele>
    <time>2020-06-14T06:08:35Z</time>
   </trkpt>
   <trkpt lat="51.1380030" lon="5.7012420">
    <ele>32.2</ele>
    <time>2020-06-14T06:08:36Z</time>
   </trkpt>
   <trkpt lat="51.1379910" lon="5.7011460">
    <ele>32.3</ele>
    <time>2020-06-14T06:08:37Z</time>
   </trkpt>
   <trkpt lat="51.1379770" lon="5.7010330">
    <ele>32.3</ele>
    <time>2020-06-14T06:08:38Z</time>
   </trkpt>
   <trkpt lat="51.1379700" lon="5.7009230">
    <ele>32.3</ele>
    <time>2020-06-14T06:08:39Z</time>
   </trkpt>
   <trkpt lat="51.1379580" lon="5.7008100">
    <ele>32.4</ele>
    <time>2020-06-14T06:08:40Z</time>
   </trkpt>
   <trkpt lat="51.1379450" lon="5.7007030">
    <ele>32.5</ele>
    <time>2020-06-14T06:08:41Z</time>
   </trkpt>
   <trkpt lat="51.1379320" lon="5.7005900">
    <ele>32.6</ele>
    <time>2020-06-14T06:08:42Z</time>
   </trkpt>
   <trkpt lat="51.1379160" lon="5.7004940">
    <ele>32.6</ele>
    <time>2020-06-14T06:08:43Z</time>
   </trkpt>
   <trkpt lat="51.1378990" lon="5.7003880">
    <ele>32.6</ele>
    <time>2020-06-14T06:08:44Z</time>
   </trkpt>
   <trkpt lat="51.1378830" lon="5.7002930">
    <ele>32.6</ele>
    <time>2020-06-14T06:08:45Z</time>
   </trkpt>
   <trkpt lat="51.1378700" lon="5.7001800">
    <ele>32.6</ele>
    <time>2020-06-14T06:08:46Z</time>
   </trkpt>
   <trkpt lat="51.1378580" lon="5.7000620">
    <ele>32.6</ele>
    <time>2020-06-14T06:08:47Z</time>
   </trkpt>
   <trkpt lat="51.1378380" lon="5.6999490">
    <ele>32.6</ele>
    <time>2020-06-14T06:08:48Z</time>
   </trkpt>
   <trkpt lat="51.1378260" lon="5.6998390">
    <ele>32.6</ele>
    <time>2020-06-14T06:08:49Z</time>
   </trkpt>
   <trkpt lat="51.1378130" lon="5.6997380">
    <ele>32.7</ele>
    <time>2020-06-14T06:08:50Z</time>
   </trkpt>
   <trkpt lat="51.1378030" lon="5.6996520">
    <ele>32.7</ele>
    <time>2020-06-14T06:08:51Z</time>
   </trkpt>
   <trkpt lat="51.1377900" lon="5.6995660">
    <ele>32.7</ele>
    <time>2020-06-14T06:08:52Z</time>
   </trkpt>
   <trkpt lat="51.1377780" lon="5.6994780">
    <ele>32.7</ele>
    <time>2020-06-14T06:08:53Z</time>
   </trkpt>
   <trkpt lat="51.1377660" lon="5.6993770">
    <ele>32.7</ele>
    <time>2020-06-14T06:08:54Z</time>
   </trkpt>
   <trkpt lat="51.1377550" lon="5.6992610">
    <ele>32.8</ele>
    <time>2020-06-14T06:08:55Z</time>
   </trkpt>
   <trkpt lat="51.1377410" lon="5.6991490">
    <ele>32.8</ele>
    <time>2020-06-14T06:08:56Z</time>
   </trkpt>
   <trkpt lat="51.1377210" lon="5.6990450">
    <ele>32.8</ele>
    <time>2020-06-14T06:08:57Z</time>
   </trkpt>
   <trkpt lat="51.1377050" lon="5.6989400">
    <ele>32.8</ele>
    <time>2020-06-14T06:08:58Z</time>
   </trkpt>
   <trkpt lat="51.1376900" lon="5.6988290">
    <ele>32.8</ele>
    <time>2020-06-14T06:08:59Z</time>
   </trkpt>
   <trkpt lat="51.1376800" lon="5.6987250">
    <ele>32.8</ele>
    <time>2020-06-14T06:09:00Z</time>
   </trkpt>
   <trkpt lat="51.1376700" lon="5.6986280">
    <ele>32.8</ele>
    <time>2020-06-14T06:09:01Z</time>
   </trkpt>
   <trkpt lat="51.1376600" lon="5.6985330">
    <ele>32.9</ele>
    <time>2020-06-14T06:09:02Z</time>
   </trkpt>
   <trkpt lat="51.1376490" lon="5.6984340">
    <ele>32.9</ele>
    <time>2020-06-14T06:09:03Z</time>
   </trkpt>
   <trkpt lat="51.1376370" lon="5.6983250">
    <ele>32.9</ele>
    <time>2020-06-14T06:09:04Z</time>
   </trkpt>
   <trkpt lat="51.1375980" lon="5.6982210">
    <ele>32.9</ele>
    <time>2020-06-14T06:09:05Z</time>
   </trkpt>
   <trkpt lat="51.1375850" lon="5.6981210">
    <ele>32.9</ele>
    <time>2020-06-14T06:09:06Z</time>
   </trkpt>
   <trkpt lat="51.1375750" lon="5.6980210">
    <ele>32.9</ele>
    <time>2020-06-14T06:09:07Z</time>
   </trkpt>
   <trkpt lat="51.1375620" lon="5.6979070">
    <ele>33.0</ele>
    <time>2020-06-14T06:09:08Z</time>
   </trkpt>
   <trkpt lat="51.1375460" lon="5.6978070">
    <ele>33.0</ele>
    <time>2020-06-14T06:09:09Z</time>
   </trkpt>
   <trkpt lat="51.1375310" lon="5.6977030">
    <ele>33.0</ele>
    <time>2020-06-14T06:09:10Z</time>
   </trkpt>
   <trkpt lat="51.1375210" lon="5.6975980">
    <ele>33.0</ele>
    <time>2020-06-14T06:09:11Z</time>
   </trkpt>
   <trkpt lat="51.1375050" lon="5.6974890">
    <ele>33.0</ele>
    <time>2020-06-14T06:09:12Z</time>
   </trkpt>
   <trkpt lat="51.1374900" lon="5.6973940">
    <ele>33.0</ele>
    <time>2020-06-14T06:09:13Z</time>
   </trkpt>
   <trkpt lat="51.1374740" lon="5.6972980">
    <ele>33.0</ele>
    <time>2020-06-14T06:09:14Z</time>
   </trkpt>
   <trkpt lat="51.1374590" lon="5.6971870">
    <ele>33.0</ele>
    <time>2020-06-14T06:09:15Z</time>
   </trkpt>
   <trkpt lat="51.1374470" lon="5.6970790">
    <ele>33.0</ele>
    <time>2020-06-14T06:09:16Z</time>
   </trkpt>
   <trkpt lat="51.1374330" lon="5.6969830">
    <ele>33.1</ele>
    <time>2020-06-14T06:09:17Z</time>
   </trkpt>
   <trkpt lat="51.1374180" lon="5.6968830">
    <ele>33.1</ele>
    <time>2020-06-14T06:09:18Z</time>
   </trkpt>
   <trkpt lat="51.1374060" lon="5.6967990">
    <ele>33.1</ele>
    <time>2020-06-14T06:09:19Z</time>
   </trkpt>
   <trkpt lat="51.1373940" lon="5.6967110">
    <ele>33.1</ele>
    <time>2020-06-14T06:09:20Z</time>
   </trkpt>
   <trkpt lat="51.1373840" lon="5.6966360">
    <ele>33.1</ele>
    <time>2020-06-14T06:09:21Z</time>
   </trkpt>
   <trkpt lat="51.1373720" lon="5.6965440">
    <ele>33.1</ele>
    <time>2020-06-14T06:09:22Z</time>
   </trkpt>
   <trkpt lat="51.1373600" lon="5.6964520">
    <ele>33.1</ele>
    <time>2020-06-14T06:09:23Z</time>
   </trkpt>
   <trkpt lat="51.1373500" lon="5.6963620">
    <ele>33.1</ele>
    <time>2020-06-14T06:09:24Z</time>
   </trkpt>
   <trkpt lat="51.1373350" lon="5.6962650">
    <ele>33.1</ele>
    <time>2020-06-14T06:09:25Z</time>
   </trkpt>
   <trkpt lat="51.1373170" lon="5.6961550">
    <ele>33.1</ele>
    <time>2020-06-14T06:09:26Z</time>
   </trkpt>
   <trkpt lat="51.1372960" lon="5.6960440">
    <ele>33.1</ele>
    <time>2020-06-14T06:09:27Z</time>
   </trkpt>
   <trkpt lat="51.1372780" lon="5.6959310">
    <ele>33.1</ele>
    <time>2020-06-14T06:09:28Z</time>
   </trkpt>
   <trkpt lat="51.1372610" lon="5.6958210">
    <ele>33.1</ele>
    <time>2020-06-14T06:09:29Z</time>
   </trkpt>
   <trkpt lat="51.1372460" lon="5.6957240">
    <ele>33.1</ele>
    <time>2020-06-14T06:09:30Z</time>
   </trkpt>
   <trkpt lat="51.1372260" lon="5.6956130">
    <ele>33.1</ele>
    <time>2020-06-14T06:09:31Z</time>
   </trkpt>
   <trkpt lat="51.1372050" lon="5.6955010">
    <ele>33.2</ele>
    <time>2020-06-14T06:09:32Z</time>
   </trkpt>
   <trkpt lat="51.1371850" lon="5.6953880">
    <ele>33.2</ele>
    <time>2020-06-14T06:09:33Z</time>
   </trkpt>
   <trkpt lat="51.1371690" lon="5.6952880">
    <ele>33.3</ele>
    <time>2020-06-14T06:09:34Z</time>
   </trkpt>
   <trkpt lat="51.1371530" lon="5.6952030">
    <ele>33.3</ele>
    <time>2020-06-14T06:09:35Z</time>
   </trkpt>
   <trkpt lat="51.1371410" lon="5.6950920">
    <ele>33.3</ele>
    <time>2020-06-14T06:09:36Z</time>
   </trkpt>
   <trkpt lat="51.1371190" lon="5.6949700">
    <ele>33.3</ele>
    <time>2020-06-14T06:09:37Z</time>
   </trkpt>
   <trkpt lat="51.1371010" lon="5.6948530">
    <ele>33.3</ele>
    <time>2020-06-14T06:09:38Z</time>
   </trkpt>
   <trkpt lat="51.1370870" lon="5.6947460">
    <ele>33.3</ele>
    <time>2020-06-14T06:09:39Z</time>
   </trkpt>
   <trkpt lat="51.1370760" lon="5.6946330">
    <ele>33.3</ele>
    <time>2020-06-14T06:09:40Z</time>
   </trkpt>
   <trkpt lat="51.1370690" lon="5.6945340">
    <ele>33.3</ele>
    <time>2020-06-14T06:09:41Z</time>
   </trkpt>
   <trkpt lat="51.1370670" lon="5.6944220">
    <ele>33.3</ele>
    <time>2020-06-14T06:09:42Z</time>
   </trkpt>
   <trkpt lat="51.1370630" lon="5.6943110">
    <ele>33.3</ele>
    <time>2020-06-14T06:09:43Z</time>
   </trkpt>
   <trkpt lat="51.1370590" lon="5.6942230">
    <ele>33.3</ele>
    <time>2020-06-14T06:09:44Z</time>
   </trkpt>
   <trkpt lat="51.1370480" lon="5.6941220">
    <ele>33.3</ele>
    <time>2020-06-14T06:09:45Z</time>
   </trkpt>
   <trkpt lat="51.1370460" lon="5.6940300">
    <ele>33.3</ele>
    <time>2020-06-14T06:09:46Z</time>
   </trkpt>
   <trkpt lat="51.1370400" lon="5.6939170">
    <ele>33.3</ele>
    <time>2020-06-14T06:09:47Z</time>
   </trkpt>
   <trkpt lat="51.1370380" lon="5.6937880">
    <ele>33.3</ele>
    <time>2020-06-14T06:09:48Z</time>
   </trkpt>
   <trkpt lat="51.1370430" lon="5.6936930">
    <ele>33.3</ele>
    <time>2020-06-14T06:09:49Z</time>
   </trkpt>
   <trkpt lat="51.1370440" lon="5.6935810">
    <ele>33.2</ele>
    <time>2020-06-14T06:09:50Z</time>
   </trkpt>
   <trkpt lat="51.1370400" lon="5.6934780">
    <ele>33.2</ele>
    <time>2020-06-14T06:09:51Z</time>
   </trkpt>
   <trkpt lat="51.1370420" lon="5.6933540">
    <ele>33.1</ele>
    <time>2020-06-14T06:09:52Z</time>
   </trkpt>
   <trkpt lat="51.1370430" lon="5.6932360">
    <ele>33.1</ele>
    <time>2020-06-14T06:09:53Z</time>
   </trkpt>
   <trkpt lat="51.1370440" lon="5.6931260">
    <ele>33.1</ele>
    <time>2020-06-14T06:09:54Z</time>
   </trkpt>
   <trkpt lat="51.1370460" lon="5.6930140">
    <ele>33.1</ele>
    <time>2020-06-14T06:09:55Z</time>
   </trkpt>
   <trkpt lat="51.1370490" lon="5.6929010">
    <ele>33.0</ele>
    <time>2020-06-14T06:09:56Z</time>
   </trkpt>
   <trkpt lat="51.1370520" lon="5.6927860">
    <ele>33.0</ele>
    <time>2020-06-14T06:09:57Z</time>
   </trkpt>
   <trkpt lat="51.1370590" lon="5.6926790">
    <ele>33.0</ele>
    <time>2020-06-14T06:09:58Z</time>
   </trkpt>
   <trkpt lat="51.1370610" lon="5.6925800">
    <ele>33.0</ele>
    <time>2020-06-14T06:09:59Z</time>
   </trkpt>
   <trkpt lat="51.1371010" lon="5.6924870">
    <ele>33.0</ele>
    <time>2020-06-14T06:10:00Z</time>
   </trkpt>
   <trkpt lat="51.1371050" lon="5.6923930">
    <ele>33.0</ele>
    <time>2020-06-14T06:10:01Z</time>
   </trkpt>
   <trkpt lat="51.1371120" lon="5.6923100">
    <ele>33.0</ele>
    <time>2020-06-14T06:10:02Z</time>
   </trkpt>
   <trkpt lat="51.1371120" lon="5.6921930">
    <ele>33.0</ele>
    <time>2020-06-14T06:10:03Z</time>
   </trkpt>
   <trkpt lat="51.1371060" lon="5.6920820">
    <ele>33.0</ele>
    <time>2020-06-14T06:10:04Z</time>
   </trkpt>
   <trkpt lat="51.1371060" lon="5.6919800">
    <ele>33.0</ele>
    <time>2020-06-14T06:10:05Z</time>
   </trkpt>
   <trkpt lat="51.1370990" lon="5.6918770">
    <ele>33.0</ele>
    <time>2020-06-14T06:10:06Z</time>
   </trkpt>
   <trkpt lat="51.1370940" lon="5.6917790">
    <ele>33.0</ele>
    <time>2020-06-14T06:10:07Z</time>
   </trkpt>
   <trkpt lat="51.1370900" lon="5.6916570">
    <ele>33.0</ele>
    <time>2020-06-14T06:10:08Z</time>
   </trkpt>
   <trkpt lat="51.1370860" lon="5.6915420">
    <ele>33.0</ele>
    <time>2020-06-14T06:10:09Z</time>
   </trkpt>
   <trkpt lat="51.1370800" lon="5.6914350">
    <ele>33.0</ele>
    <time>2020-06-14T06:10:10Z</time>
   </trkpt>
   <trkpt lat="51.1370700" lon="5.6913180">
    <ele>32.9</ele>
    <time>2020-06-14T06:10:11Z</time>
   </trkpt>
   <trkpt lat="51.1370610" lon="5.6912040">
    <ele>32.9</ele>
    <time>2020-06-14T06:10:12Z</time>
   </trkpt>
   <trkpt lat="51.1370550" lon="5.6910980">
    <ele>32.9</ele>
    <time>2020-06-14T06:10:13Z</time>
   </trkpt>
   <trkpt lat="51.1370520" lon="5.6909870">
    <ele>32.9</ele>
    <time>2020-06-14T06:10:14Z</time>
   </trkpt>
   <trkpt lat="51.1370490" lon="5.6908950">
    <ele>32.9</ele>
    <time>2020-06-14T06:10:15Z</time>
   </trkpt>
   <trkpt lat="51.1370430" lon="5.6908000">
    <ele>32.9</ele>
    <time>2020-06-14T06:10:16Z</time>
   </trkpt>
   <trkpt lat="51.1370360" lon="5.6907020">
    <ele>32.9</ele>
    <time>2020-06-14T06:10:17Z</time>
   </trkpt>
   <trkpt lat="51.1370310" lon="5.6905990">
    <ele>33.0</ele>
    <time>2020-06-14T06:10:18Z</time>
   </trkpt>
   <trkpt lat="51.1370240" lon="5.6905020">
    <ele>33.0</ele>
    <time>2020-06-14T06:10:19Z</time>
   </trkpt>
   <trkpt lat="51.1370210" lon="5.6903980">
    <ele>33.0</ele>
    <time>2020-06-14T06:10:20Z</time>
   </trkpt>
   <trkpt lat="51.1370070" lon="5.6903020">
    <ele>32.9</ele>
    <time>2020-06-14T06:10:21Z</time>
   </trkpt>
   <trkpt lat="51.1369860" lon="5.6902170">
    <ele>33.0</ele>
    <time>2020-06-14T06:10:22Z</time>
   </trkpt>
   <trkpt lat="51.1369550" lon="5.6901270">
    <ele>33.0</ele>
    <time>2020-06-14T06:10:23Z</time>
   </trkpt>
   <trkpt lat="51.1369260" lon="5.6900320">
    <ele>33.0</ele>
    <time>2020-06-14T06:10:24Z</time>
   </trkpt>
   <trkpt lat="51.1368900" lon="5.6899390">
    <ele>33.0</ele>
    <time>2020-06-14T06:10:25Z</time>
   </trkpt>
   <trkpt lat="51.1368560" lon="5.6898420">
    <ele>33.0</ele>
    <time>2020-06-14T06:10:26Z</time>
   </trkpt>
   <trkpt lat="51.1368070" lon="5.6897590">
    <ele>33.0</ele>
    <time>2020-06-14T06:10:27Z</time>
   </trkpt>
   <trkpt lat="51.1367710" lon="5.6897070">
    <ele>33.0</ele>
    <time>2020-06-14T06:10:28Z</time>
   </trkpt>
   <trkpt lat="51.1367350" lon="5.6896190">
    <ele>33.0</ele>
    <time>2020-06-14T06:10:29Z</time>
   </trkpt>
   <trkpt lat="51.1366990" lon="5.6895310">
    <ele>33.1</ele>
    <time>2020-06-14T06:10:30Z</time>
   </trkpt>
   <trkpt lat="51.1366590" lon="5.6894340">
    <ele>33.1</ele>
    <time>2020-06-14T06:10:31Z</time>
   </trkpt>
   <trkpt lat="51.1366190" lon="5.6893360">
    <ele>33.1</ele>
    <time>2020-06-14T06:10:32Z</time>
   </trkpt>
   <trkpt lat="51.1365780" lon="5.6892330">
    <ele>33.1</ele>
    <time>2020-06-14T06:10:33Z</time>
   </trkpt>
   <trkpt lat="51.1365380" lon="5.6891410">
    <ele>33.2</ele>
    <time>2020-06-14T06:10:34Z</time>
   </trkpt>
   <trkpt lat="51.1365010" lon="5.6890550">
    <ele>33.2</ele>
    <time>2020-06-14T06:10:35Z</time>
   </trkpt>
   <trkpt lat="51.1364640" lon="5.6889700">
    <ele>33.2</ele>
    <time>2020-06-14T06:10:36Z</time>
   </trkpt>
   <trkpt lat="51.1364220" lon="5.6888710">
    <ele>33.2</ele>
    <time>2020-06-14T06:10:37Z</time>
   </trkpt>
   <trkpt lat="51.1363780" lon="5.6887620">
    <ele>33.2</ele>
    <time>2020-06-14T06:10:38Z</time>
   </trkpt>
   <trkpt lat="51.1363410" lon="5.6886740">
    <ele>33.2</ele>
    <time>2020-06-14T06:10:39Z</time>
   </trkpt>
   <trkpt lat="51.1363050" lon="5.6885900">
    <ele>33.2</ele>
    <time>2020-06-14T06:10:40Z</time>
   </trkpt>
   <trkpt lat="51.1362730" lon="5.6885120">
    <ele>33.2</ele>
    <time>2020-06-14T06:10:41Z</time>
   </trkpt>
   <trkpt lat="51.1362350" lon="5.6884220">
    <ele>33.2</ele>
    <time>2020-06-14T06:10:42Z</time>
   </trkpt>
   <trkpt lat="51.1361940" lon="5.6883240">
    <ele>33.2</ele>
    <time>2020-06-14T06:10:43Z</time>
   </trkpt>
   <trkpt lat="51.1361530" lon="5.6882300">
    <ele>33.2</ele>
    <time>2020-06-14T06:10:44Z</time>
   </trkpt>
   <trkpt lat="51.1361130" lon="5.6881430">
    <ele>33.2</ele>
    <time>2020-06-14T06:10:45Z</time>
   </trkpt>
   <trkpt lat="51.1360720" lon="5.6880500">
    <ele>33.2</ele>
    <time>2020-06-14T06:10:46Z</time>
   </trkpt>
   <trkpt lat="51.1360290" lon="5.6879550">
    <ele>33.2</ele>
    <time>2020-06-14T06:10:47Z</time>
   </trkpt>
   <trkpt lat="51.1359880" lon="5.6878660">
    <ele>33.2</ele>
    <time>2020-06-14T06:10:48Z</time>
   </trkpt>
   <trkpt lat="51.1359460" lon="5.6877730">
    <ele>33.2</ele>
    <time>2020-06-14T06:10:49Z</time>
   </trkpt>
   <trkpt lat="51.1359010" lon="5.6876770">
    <ele>33.3</ele>
    <time>2020-06-14T06:10:50Z</time>
   </trkpt>
   <trkpt lat="51.1358610" lon="5.6875860">
    <ele>33.3</ele>
    <time>2020-06-14T06:10:51Z</time>
   </trkpt>
   <trkpt lat="51.1358220" lon="5.6875020">
    <ele>33.3</ele>
    <time>2020-06-14T06:10:52Z</time>
   </trkpt>
   <trkpt lat="51.1357780" lon="5.6874100">
    <ele>33.3</ele>
    <time>2020-06-14T06:10:53Z</time>
   </trkpt>
   <trkpt lat="51.1357390" lon="5.6873280">
    <ele>33.3</ele>
    <time>2020-06-14T06:10:54Z</time>
   </trkpt>
   <trkpt lat="51.1357040" lon="5.6872550">
    <ele>33.3</ele>
    <time>2020-06-14T06:10:55Z</time>
   </trkpt>
   <trkpt lat="51.1356700" lon="5.6871830">
    <ele>33.3</ele>
    <time>2020-06-14T06:10:56Z</time>
   </trkpt>
   <trkpt lat="51.1356320" lon="5.6871050">
    <ele>33.3</ele>
    <time>2020-06-14T06:10:57Z</time>
   </trkpt>
   <trkpt lat="51.1355950" lon="5.6870260">
    <ele>33.3</ele>
    <time>2020-06-14T06:10:58Z</time>
   </trkpt>
   <trkpt lat="51.1355620" lon="5.6869570">
    <ele>33.4</ele>
    <time>2020-06-14T06:10:59Z</time>
   </trkpt>
   <trkpt lat="51.1355220" lon="5.6868810">
    <ele>33.4</ele>
    <time>2020-06-14T06:11:00Z</time>
   </trkpt>
   <trkpt lat="51.1354790" lon="5.6867980">
    <ele>33.5</ele>
    <time>2020-06-14T06:11:01Z</time>
   </trkpt>
   <trkpt lat="51.1354360" lon="5.6867120">
    <ele>33.5</ele>
    <time>2020-06-14T06:11:02Z</time>
   </trkpt>
   <trkpt lat="51.1353940" lon="5.6866320">
    <ele>33.6</ele>
    <time>2020-06-14T06:11:03Z</time>
   </trkpt>
   <trkpt lat="51.1353510" lon="5.6865480">
    <ele>33.6</ele>
    <time>2020-06-14T06:11:04Z</time>
   </trkpt>
   <trkpt lat="51.1353130" lon="5.6864770">
    <ele>33.6</ele>
    <time>2020-06-14T06:11:05Z</time>
   </trkpt>
   <trkpt lat="51.1352740" lon="5.6864040">
    <ele>33.6</ele>
    <time>2020-06-14T06:11:06Z</time>
   </trkpt>
   <trkpt lat="51.1352390" lon="5.6863410">
    <ele>33.6</ele>
    <time>2020-06-14T06:11:07Z</time>
   </trkpt>
   <trkpt lat="51.1351980" lon="5.6862610">
    <ele>33.6</ele>
    <time>2020-06-14T06:11:08Z</time>
   </trkpt>
   <trkpt lat="51.1351610" lon="5.6861930">
    <ele>33.6</ele>
    <time>2020-06-14T06:11:09Z</time>
   </trkpt>
   <trkpt lat="51.1351310" lon="5.6861380">
    <ele>33.6</ele>
    <time>2020-06-14T06:11:10Z</time>
   </trkpt>
   <trkpt lat="51.1350950" lon="5.6860670">
    <ele>33.6</ele>
    <time>2020-06-14T06:11:11Z</time>
   </trkpt>
   <trkpt lat="51.1350590" lon="5.6860020">
    <ele>33.6</ele>
    <time>2020-06-14T06:11:12Z</time>
   </trkpt>
   <trkpt lat="51.1350190" lon="5.6859260">
    <ele>33.7</ele>
    <time>2020-06-14T06:11:13Z</time>
   </trkpt>
   <trkpt lat="51.1349890" lon="5.6858680">
    <ele>33.7</ele>
    <time>2020-06-14T06:11:14Z</time>
   </trkpt>
   <trkpt lat="51.1349520" lon="5.6857950">
    <ele>33.7</ele>
    <time>2020-06-14T06:11:15Z</time>
   </trkpt>
   <trkpt lat="51.1349130" lon="5.6857190">
    <ele>33.7</ele>
    <time>2020-06-14T06:11:16Z</time>
   </trkpt>
   <trkpt lat="51.1348730" lon="5.6856430">
    <ele>33.7</ele>
    <time>2020-06-14T06:11:17Z</time>
   </trkpt>
   <trkpt lat="51.1348270" lon="5.6855580">
    <ele>33.6</ele>
    <time>2020-06-14T06:11:18Z</time>
   </trkpt>
   <trkpt lat="51.1347760" lon="5.6854620">
    <ele>33.6</ele>
    <time>2020-06-14T06:11:19Z</time>
   </trkpt>
   <trkpt lat="51.1347280" lon="5.6853720">
    <ele>33.6</ele>
    <time>2020-06-14T06:11:20Z</time>
   </trkpt>
   <trkpt lat="51.1346810" lon="5.6852850">
    <ele>33.6</ele>
    <time>2020-06-14T06:11:21Z</time>
   </trkpt>
   <trkpt lat="51.1346420" lon="5.6852090">
    <ele>33.6</ele>
    <time>2020-06-14T06:11:22Z</time>
   </trkpt>
   <trkpt lat="51.1346050" lon="5.6851410">
    <ele>33.7</ele>
    <time>2020-06-14T06:11:23Z</time>
   </trkpt>
   <trkpt lat="51.1345680" lon="5.6850760">
    <ele>33.7</ele>
    <time>2020-06-14T06:11:24Z</time>
   </trkpt>
   <trkpt lat="51.1345280" lon="5.6850000">
    <ele>33.7</ele>
    <time>2020-06-14T06:11:25Z</time>
   </trkpt>
   <trkpt lat="51.1344800" lon="5.6849080">
    <ele>33.8</ele>
    <time>2020-06-14T06:11:26Z</time>
   </trkpt>
   <trkpt lat="51.1344350" lon="5.6848230">
    <ele>33.8</ele>
    <time>2020-06-14T06:11:27Z</time>
   </trkpt>
   <trkpt lat="51.1343970" lon="5.6847520">
    <ele>33.9</ele>
    <time>2020-06-14T06:11:28Z</time>
   </trkpt>
   <trkpt lat="51.1343550" lon="5.6846720">
    <ele>33.9</ele>
    <time>2020-06-14T06:11:29Z</time>
   </trkpt>
   <trkpt lat="51.1343120" lon="5.6845860">
    <ele>33.9</ele>
    <time>2020-06-14T06:11:30Z</time>
   </trkpt>
   <trkpt lat="51.1342640" lon="5.6844920">
    <ele>33.9</ele>
    <time>2020-06-14T06:11:31Z</time>
   </trkpt>
   <trkpt lat="51.1342150" lon="5.6844020">
    <ele>33.9</ele>
    <time>2020-06-14T06:11:32Z</time>
   </trkpt>
   <trkpt lat="51.1341690" lon="5.6843140">
    <ele>33.9</ele>
    <time>2020-06-14T06:11:33Z</time>
   </trkpt>
   <trkpt lat="51.1341170" lon="5.6842170">
    <ele>33.9</ele>
    <time>2020-06-14T06:11:34Z</time>
   </trkpt>
   <trkpt lat="51.1340700" lon="5.6841320">
    <ele>33.9</ele>
    <time>2020-06-14T06:11:35Z</time>
   </trkpt>
   <trkpt lat="51.1340250" lon="5.6840560">
    <ele>33.9</ele>
    <time>2020-06-14T06:11:36Z</time>
   </trkpt>
   <trkpt lat="51.1339750" lon="5.6839680">
    <ele>34.0</ele>
    <time>2020-06-14T06:11:37Z</time>
   </trkpt>
   <trkpt lat="51.1339210" lon="5.6838770">
    <ele>34.1</ele>
    <time>2020-06-14T06:11:38Z</time>
   </trkpt>
   <trkpt lat="51.1338690" lon="5.6837880">
    <ele>34.1</ele>
    <time>2020-06-14T06:11:39Z</time>
   </trkpt>
   <trkpt lat="51.1338160" lon="5.6837000">
    <ele>34.1</ele>
    <time>2020-06-14T06:11:40Z</time>
   </trkpt>
   <trkpt lat="51.1337700" lon="5.6836260">
    <ele>34.2</ele>
    <time>2020-06-14T06:11:41Z</time>
   </trkpt>
   <trkpt lat="51.1337200" lon="5.6835410">
    <ele>34.2</ele>
    <time>2020-06-14T06:11:42Z</time>
   </trkpt>
   <trkpt lat="51.1336690" lon="5.6834540">
    <ele>34.2</ele>
    <time>2020-06-14T06:11:43Z</time>
   </trkpt>
   <trkpt lat="51.1336200" lon="5.6833670">
    <ele>34.2</ele>
    <time>2020-06-14T06:11:44Z</time>
   </trkpt>
   <trkpt lat="51.1335750" lon="5.6832820">
    <ele>34.2</ele>
    <time>2020-06-14T06:11:45Z</time>
   </trkpt>
   <trkpt lat="51.1335310" lon="5.6831910">
    <ele>34.2</ele>
    <time>2020-06-14T06:11:46Z</time>
   </trkpt>
   <trkpt lat="51.1334900" lon="5.6830910">
    <ele>34.2</ele>
    <time>2020-06-14T06:11:47Z</time>
   </trkpt>
   <trkpt lat="51.1334560" lon="5.6829790">
    <ele>34.2</ele>
    <time>2020-06-14T06:11:48Z</time>
   </trkpt>
   <trkpt lat="51.1334320" lon="5.6828690">
    <ele>34.3</ele>
    <time>2020-06-14T06:11:49Z</time>
   </trkpt>
   <trkpt lat="51.1334080" lon="5.6827570">
    <ele>34.3</ele>
    <time>2020-06-14T06:11:50Z</time>
   </trkpt>
   <trkpt lat="51.1333890" lon="5.6826440">
    <ele>34.3</ele>
    <time>2020-06-14T06:11:51Z</time>
   </trkpt>
   <trkpt lat="51.1333720" lon="5.6825290">
    <ele>34.4</ele>
    <time>2020-06-14T06:11:52Z</time>
   </trkpt>
   <trkpt lat="51.1333530" lon="5.6824140">
    <ele>34.4</ele>
    <time>2020-06-14T06:11:53Z</time>
   </trkpt>
   <trkpt lat="51.1333370" lon="5.6822970">
    <ele>34.4</ele>
    <time>2020-06-14T06:11:54Z</time>
   </trkpt>
   <trkpt lat="51.1333140" lon="5.6821780">
    <ele>34.5</ele>
    <time>2020-06-14T06:11:55Z</time>
   </trkpt>
   <trkpt lat="51.1332930" lon="5.6820660">
    <ele>34.5</ele>
    <time>2020-06-14T06:11:56Z</time>
   </trkpt>
   <trkpt lat="51.1332690" lon="5.6819480">
    <ele>34.5</ele>
    <time>2020-06-14T06:11:57Z</time>
   </trkpt>
   <trkpt lat="51.1332430" lon="5.6818400">
    <ele>34.5</ele>
    <time>2020-06-14T06:11:58Z</time>
   </trkpt>
   <trkpt lat="51.1332200" lon="5.6817270">
    <ele>34.5</ele>
    <time>2020-06-14T06:11:59Z</time>
   </trkpt>
   <trkpt lat="51.1331990" lon="5.6816150">
    <ele>34.5</ele>
    <time>2020-06-14T06:12:00Z</time>
   </trkpt>
   <trkpt lat="51.1331750" lon="5.6815070">
    <ele>34.5</ele>
    <time>2020-06-14T06:12:01Z</time>
   </trkpt>
   <trkpt lat="51.1331520" lon="5.6813990">
    <ele>34.5</ele>
    <time>2020-06-14T06:12:02Z</time>
   </trkpt>
   <trkpt lat="51.1331280" lon="5.6812910">
    <ele>34.5</ele>
    <time>2020-06-14T06:12:03Z</time>
   </trkpt>
   <trkpt lat="51.1331070" lon="5.6811860">
    <ele>34.5</ele>
    <time>2020-06-14T06:12:04Z</time>
   </trkpt>
   <trkpt lat="51.1330840" lon="5.6810850">
    <ele>34.5</ele>
    <time>2020-06-14T06:12:05Z</time>
   </trkpt>
   <trkpt lat="51.1330610" lon="5.6809810">
    <ele>34.5</ele>
    <time>2020-06-14T06:12:06Z</time>
   </trkpt>
   <trkpt lat="51.1330370" lon="5.6808760">
    <ele>34.5</ele>
    <time>2020-06-14T06:12:07Z</time>
   </trkpt>
   <trkpt lat="51.1330130" lon="5.6807720">
    <ele>34.6</ele>
    <time>2020-06-14T06:12:08Z</time>
   </trkpt>
   <trkpt lat="51.1329920" lon="5.6806690">
    <ele>34.6</ele>
    <time>2020-06-14T06:12:09Z</time>
   </trkpt>
   <trkpt lat="51.1329660" lon="5.6805640">
    <ele>34.6</ele>
    <time>2020-06-14T06:12:10Z</time>
   </trkpt>
   <trkpt lat="51.1329370" lon="5.6804640">
    <ele>34.6</ele>
    <time>2020-06-14T06:12:11Z</time>
   </trkpt>
   <trkpt lat="51.1329160" lon="5.6803660">
    <ele>34.5</ele>
    <time>2020-06-14T06:12:12Z</time>
   </trkpt>
   <trkpt lat="51.1328930" lon="5.6802660">
    <ele>34.5</ele>
    <time>2020-06-14T06:12:13Z</time>
   </trkpt>
   <trkpt lat="51.1328630" lon="5.6801620">
    <ele>34.5</ele>
    <time>2020-06-14T06:12:14Z</time>
   </trkpt>
   <trkpt lat="51.1328410" lon="5.6800610">
    <ele>34.5</ele>
    <time>2020-06-14T06:12:15Z</time>
   </trkpt>
   <trkpt lat="51.1328190" lon="5.6799650">
    <ele>34.5</ele>
    <time>2020-06-14T06:12:16Z</time>
   </trkpt>
   <trkpt lat="51.1327940" lon="5.6798750">
    <ele>34.5</ele>
    <time>2020-06-14T06:12:17Z</time>
   </trkpt>
   <trkpt lat="51.1327750" lon="5.6797740">
    <ele>34.5</ele>
    <time>2020-06-14T06:12:18Z</time>
   </trkpt>
   <trkpt lat="51.1327470" lon="5.6796690">
    <ele>34.5</ele>
    <time>2020-06-14T06:12:19Z</time>
   </trkpt>
   <trkpt lat="51.1327220" lon="5.6795640">
    <ele>34.5</ele>
    <time>2020-06-14T06:12:20Z</time>
   </trkpt>
   <trkpt lat="51.1327770" lon="5.6794370">
    <ele>34.6</ele>
    <time>2020-06-14T06:12:21Z</time>
   </trkpt>
   <trkpt lat="51.1327580" lon="5.6793340">
    <ele>34.6</ele>
    <time>2020-06-14T06:12:22Z</time>
   </trkpt>
   <trkpt lat="51.1327360" lon="5.6792330">
    <ele>34.6</ele>
    <time>2020-06-14T06:12:23Z</time>
   </trkpt>
   <trkpt lat="51.1327150" lon="5.6791280">
    <ele>34.6</ele>
    <time>2020-06-14T06:12:24Z</time>
   </trkpt>
   <trkpt lat="51.1326910" lon="5.6790300">
    <ele>34.6</ele>
    <time>2020-06-14T06:12:25Z</time>
   </trkpt>
   <trkpt lat="51.1326650" lon="5.6789310">
    <ele>34.6</ele>
    <time>2020-06-14T06:12:26Z</time>
   </trkpt>
   <trkpt lat="51.1326420" lon="5.6788310">
    <ele>34.5</ele>
    <time>2020-06-14T06:12:27Z</time>
   </trkpt>
   <trkpt lat="51.1326210" lon="5.6787290">
    <ele>34.5</ele>
    <time>2020-06-14T06:12:28Z</time>
   </trkpt>
   <trkpt lat="51.1325980" lon="5.6786290">
    <ele>34.5</ele>
    <time>2020-06-14T06:12:29Z</time>
   </trkpt>
   <trkpt lat="51.1325740" lon="5.6785280">
    <ele>34.5</ele>
    <time>2020-06-14T06:12:30Z</time>
   </trkpt>
   <trkpt lat="51.1325490" lon="5.6784280">
    <ele>34.4</ele>
    <time>2020-06-14T06:12:31Z</time>
   </trkpt>
   <trkpt lat="51.1325240" lon="5.6783260">
    <ele>34.3</ele>
    <time>2020-06-14T06:12:32Z</time>
   </trkpt>
   <trkpt lat="51.1324980" lon="5.6782290">
    <ele>34.3</ele>
    <time>2020-06-14T06:12:33Z</time>
   </trkpt>
   <trkpt lat="51.1324700" lon="5.6781330">
    <ele>34.3</ele>
    <time>2020-06-14T06:12:34Z</time>
   </trkpt>
   <trkpt lat="51.1324410" lon="5.6780370">
    <ele>34.2</ele>
    <time>2020-06-14T06:12:35Z</time>
   </trkpt>
   <trkpt lat="51.1324050" lon="5.6779460">
    <ele>34.2</ele>
    <time>2020-06-14T06:12:36Z</time>
   </trkpt>
   <trkpt lat="51.1323750" lon="5.6778530">
    <ele>34.2</ele>
    <time>2020-06-14T06:12:37Z</time>
   </trkpt>
   <trkpt lat="51.1323480" lon="5.6777590">
    <ele>34.2</ele>
    <time>2020-06-14T06:12:38Z</time>
   </trkpt>
   <trkpt lat="51.1323250" lon="5.6776570">
    <ele>34.3</ele>
    <time>2020-06-14T06:12:39Z</time>
   </trkpt>
   <trkpt lat="51.1323000" lon="5.6775580">
    <ele>34.3</ele>
    <time>2020-06-14T06:12:40Z</time>
   </trkpt>
   <trkpt lat="51.1322660" lon="5.6774590">
    <ele>34.3</ele>
    <time>2020-06-14T06:12:41Z</time>
   </trkpt>
   <trkpt lat="51.1322310" lon="5.6773590">
    <ele>34.3</ele>
    <time>2020-06-14T06:12:42Z</time>
   </trkpt>
   <trkpt lat="51.1321990" lon="5.6772570">
    <ele>34.2</ele>
    <time>2020-06-14T06:12:43Z</time>
   </trkpt>
   <trkpt lat="51.1321670" lon="5.6771560">
    <ele>34.2</ele>
    <time>2020-06-14T06:12:44Z</time>
   </trkpt>
   <trkpt lat="51.1321340" lon="5.6770620">
    <ele>34.2</ele>
    <time>2020-06-14T06:12:45Z</time>
   </trkpt>
   <trkpt lat="51.1321010" lon="5.6769760">
    <ele>34.2</ele>
    <time>2020-06-14T06:12:46Z</time>
   </trkpt>
   <trkpt lat="51.1320640" lon="5.6768900">
    <ele>34.2</ele>
    <time>2020-06-14T06:12:47Z</time>
   </trkpt>
   <trkpt lat="51.1320350" lon="5.6767990">
    <ele>34.2</ele>
    <time>2020-06-14T06:12:48Z</time>
   </trkpt>
   <trkpt lat="51.1320050" lon="5.6767070">
    <ele>34.2</ele>
    <time>2020-06-14T06:12:49Z</time>
   </trkpt>
   <trkpt lat="51.1319700" lon="5.6766170">
    <ele>34.2</ele>
    <time>2020-06-14T06:12:50Z</time>
   </trkpt>
   <trkpt lat="51.1319350" lon="5.6765260">
    <ele>34.2</ele>
    <time>2020-06-14T06:12:51Z</time>
   </trkpt>
   <trkpt lat="51.1318980" lon="5.6764310">
    <ele>34.2</ele>
    <time>2020-06-14T06:12:52Z</time>
   </trkpt>
   <trkpt lat="51.1318610" lon="5.6763290">
    <ele>34.2</ele>
    <time>2020-06-14T06:12:53Z</time>
   </trkpt>
   <trkpt lat="51.1318210" lon="5.6762340">
    <ele>34.3</ele>
    <time>2020-06-14T06:12:54Z</time>
   </trkpt>
   <trkpt lat="51.1317800" lon="5.6761410">
    <ele>34.3</ele>
    <time>2020-06-14T06:12:55Z</time>
   </trkpt>
   <trkpt lat="51.1317420" lon="5.6760530">
    <ele>34.3</ele>
    <time>2020-06-14T06:12:56Z</time>
   </trkpt>
   <trkpt lat="51.1317020" lon="5.6759700">
    <ele>34.4</ele>
    <time>2020-06-14T06:12:57Z</time>
   </trkpt>
   <trkpt lat="51.1316580" lon="5.6758890">
    <ele>34.4</ele>
    <time>2020-06-14T06:12:58Z</time>
   </trkpt>
   <trkpt lat="51.1316180" lon="5.6758060">
    <ele>34.4</ele>
    <time>2020-06-14T06:12:59Z</time>
   </trkpt>
   <trkpt lat="51.1315810" lon="5.6757220">
    <ele>34.5</ele>
    <time>2020-06-14T06:13:00Z</time>
   </trkpt>
   <trkpt lat="51.1315430" lon="5.6756340">
    <ele>34.5</ele>
    <time>2020-06-14T06:13:01Z</time>
   </trkpt>
   <trkpt lat="51.1315000" lon="5.6755470">
    <ele>34.6</ele>
    <time>2020-06-14T06:13:02Z</time>
   </trkpt>
   <trkpt lat="51.1314590" lon="5.6754560">
    <ele>34.6</ele>
    <time>2020-06-14T06:13:03Z</time>
   </trkpt>
   <trkpt lat="51.1314270" lon="5.6753610">
    <ele>34.6</ele>
    <time>2020-06-14T06:13:04Z</time>
   </trkpt>
   <trkpt lat="51.1313910" lon="5.6752710">
    <ele>34.6</ele>
    <time>2020-06-14T06:13:05Z</time>
   </trkpt>
   <trkpt lat="51.1313570" lon="5.6751790">
    <ele>34.6</ele>
    <time>2020-06-14T06:13:06Z</time>
   </trkpt>
   <trkpt lat="51.1313210" lon="5.6750850">
    <ele>34.6</ele>
    <time>2020-06-14T06:13:07Z</time>
   </trkpt>
   <trkpt lat="51.1312830" lon="5.6749900">
    <ele>34.6</ele>
    <time>2020-06-14T06:13:08Z</time>
   </trkpt>
   <trkpt lat="51.1312400" lon="5.6748990">
    <ele>34.6</ele>
    <time>2020-06-14T06:13:09Z</time>
   </trkpt>
   <trkpt lat="51.1311980" lon="5.6748030">
    <ele>34.6</ele>
    <time>2020-06-14T06:13:10Z</time>
   </trkpt>
   <trkpt lat="51.1311590" lon="5.6747090">
    <ele>34.6</ele>
    <time>2020-06-14T06:13:11Z</time>
   </trkpt>
   <trkpt lat="51.1311180" lon="5.6746190">
    <ele>34.6</ele>
    <time>2020-06-14T06:13:12Z</time>
   </trkpt>
   <trkpt lat="51.1310770" lon="5.6745320">
    <ele>34.6</ele>
    <time>2020-06-14T06:13:13Z</time>
   </trkpt>
   <trkpt lat="51.1310380" lon="5.6744460">
    <ele>34.6</ele>
    <time>2020-06-14T06:13:14Z</time>
   </trkpt>
   <trkpt lat="51.1309960" lon="5.6743570">
    <ele>34.6</ele>
    <time>2020-06-14T06:13:15Z</time>
   </trkpt>
   <trkpt lat="51.1309580" lon="5.6742670">
    <ele>34.6</ele>
    <time>2020-06-14T06:13:16Z</time>
   </trkpt>
   <trkpt lat="51.1309220" lon="5.6741760">
    <ele>34.7</ele>
    <time>2020-06-14T06:13:17Z</time>
   </trkpt>
   <trkpt lat="51.1308830" lon="5.6740860">
    <ele>34.7</ele>
    <time>2020-06-14T06:13:18Z</time>
   </trkpt>
   <trkpt lat="51.1308440" lon="5.6739930">
    <ele>34.7</ele>
    <time>2020-06-14T06:13:19Z</time>
   </trkpt>
   <trkpt lat="51.1308050" lon="5.6739000">
    <ele>34.7</ele>
    <time>2020-06-14T06:13:20Z</time>
   </trkpt>
   <trkpt lat="51.1307640" lon="5.6738070">
    <ele>34.7</ele>
    <time>2020-06-14T06:13:21Z</time>
   </trkpt>
   <trkpt lat="51.1307220" lon="5.6737140">
    <ele>34.8</ele>
    <time>2020-06-14T06:13:22Z</time>
   </trkpt>
   <trkpt lat="51.1306800" lon="5.6736190">
    <ele>34.8</ele>
    <time>2020-06-14T06:13:23Z</time>
   </trkpt>
   <trkpt lat="51.1306370" lon="5.6735260">
    <ele>34.8</ele>
    <time>2020-06-14T06:13:24Z</time>
   </trkpt>
   <trkpt lat="51.1305980" lon="5.6734300">
    <ele>34.8</ele>
    <time>2020-06-14T06:13:25Z</time>
   </trkpt>
   <trkpt lat="51.1305620" lon="5.6733500">
    <ele>34.8</ele>
    <time>2020-06-14T06:13:26Z</time>
   </trkpt>
   <trkpt lat="51.1305200" lon="5.6732540">
    <ele>34.8</ele>
    <time>2020-06-14T06:13:27Z</time>
   </trkpt>
   <trkpt lat="51.1304800" lon="5.6731580">
    <ele>34.8</ele>
    <time>2020-06-14T06:13:28Z</time>
   </trkpt>
   <trkpt lat="51.1304380" lon="5.6730630">
    <ele>34.8</ele>
    <time>2020-06-14T06:13:29Z</time>
   </trkpt>
   <trkpt lat="51.1304020" lon="5.6729680">
    <ele>34.8</ele>
    <time>2020-06-14T06:13:30Z</time>
   </trkpt>
   <trkpt lat="51.1303610" lon="5.6728750">
    <ele>34.8</ele>
    <time>2020-06-14T06:13:31Z</time>
   </trkpt>
   <trkpt lat="51.1303240" lon="5.6727880">
    <ele>34.8</ele>
    <time>2020-06-14T06:13:32Z</time>
   </trkpt>
   <trkpt lat="51.1302820" lon="5.6726940">
    <ele>34.8</ele>
    <time>2020-06-14T06:13:33Z</time>
   </trkpt>
   <trkpt lat="51.1302520" lon="5.6725960">
    <ele>34.8</ele>
    <time>2020-06-14T06:13:34Z</time>
   </trkpt>
   <trkpt lat="51.1302200" lon="5.6724930">
    <ele>34.8</ele>
    <time>2020-06-14T06:13:35Z</time>
   </trkpt>
   <trkpt lat="51.1301930" lon="5.6723950">
    <ele>34.8</ele>
    <time>2020-06-14T06:13:36Z</time>
   </trkpt>
   <trkpt lat="51.1301690" lon="5.6723020">
    <ele>34.9</ele>
    <time>2020-06-14T06:13:37Z</time>
   </trkpt>
   <trkpt lat="51.1301460" lon="5.6722030">
    <ele>34.9</ele>
    <time>2020-06-14T06:13:38Z</time>
   </trkpt>
   <trkpt lat="51.1301230" lon="5.6720900">
    <ele>34.9</ele>
    <time>2020-06-14T06:13:39Z</time>
   </trkpt>
   <trkpt lat="51.1301030" lon="5.6719820">
    <ele>35.0</ele>
    <time>2020-06-14T06:13:40Z</time>
   </trkpt>
   <trkpt lat="51.1300840" lon="5.6718850">
    <ele>35.0</ele>
    <time>2020-06-14T06:13:41Z</time>
   </trkpt>
   <trkpt lat="51.1300630" lon="5.6717940">
    <ele>35.0</ele>
    <time>2020-06-14T06:13:42Z</time>
   </trkpt>
   <trkpt lat="51.1300370" lon="5.6717020">
    <ele>35.0</ele>
    <time>2020-06-14T06:13:43Z</time>
   </trkpt>
   <trkpt lat="51.1300080" lon="5.6716020">
    <ele>35.0</ele>
    <time>2020-06-14T06:13:44Z</time>
   </trkpt>
   <trkpt lat="51.1299790" lon="5.6715010">
    <ele>35.0</ele>
    <time>2020-06-14T06:13:45Z</time>
   </trkpt>
   <trkpt lat="51.1299530" lon="5.6713960">
    <ele>35.0</ele>
    <time>2020-06-14T06:13:46Z</time>
   </trkpt>
   <trkpt lat="51.1299270" lon="5.6712870">
    <ele>35.0</ele>
    <time>2020-06-14T06:13:47Z</time>
   </trkpt>
   <trkpt lat="51.1299020" lon="5.6711850">
    <ele>35.0</ele>
    <time>2020-06-14T06:13:48Z</time>
   </trkpt>
   <trkpt lat="51.1298800" lon="5.6710810">
    <ele>35.0</ele>
    <time>2020-06-14T06:13:49Z</time>
   </trkpt>
   <trkpt lat="51.1298520" lon="5.6709720">
    <ele>35.0</ele>
    <time>2020-06-14T06:13:50Z</time>
   </trkpt>
   <trkpt lat="51.1298250" lon="5.6708670">
    <ele>35.0</ele>
    <time>2020-06-14T06:13:51Z</time>
   </trkpt>
   <trkpt lat="51.1297930" lon="5.6707600">
    <ele>35.0</ele>
    <time>2020-06-14T06:13:52Z</time>
   </trkpt>
   <trkpt lat="51.1297570" lon="5.6706590">
    <ele>35.1</ele>
    <time>2020-06-14T06:13:53Z</time>
   </trkpt>
   <trkpt lat="51.1297170" lon="5.6705690">
    <ele>35.1</ele>
    <time>2020-06-14T06:13:54Z</time>
   </trkpt>
   <trkpt lat="51.1296790" lon="5.6704770">
    <ele>35.1</ele>
    <time>2020-06-14T06:13:55Z</time>
   </trkpt>
   <trkpt lat="51.1296450" lon="5.6703820">
    <ele>35.2</ele>
    <time>2020-06-14T06:13:56Z</time>
   </trkpt>
   <trkpt lat="51.1296030" lon="5.6702950">
    <ele>35.2</ele>
    <time>2020-06-14T06:13:57Z</time>
   </trkpt>
   <trkpt lat="51.1295620" lon="5.6702140">
    <ele>35.2</ele>
    <time>2020-06-14T06:13:58Z</time>
   </trkpt>
   <trkpt lat="51.1295190" lon="5.6701340">
    <ele>35.3</ele>
    <time>2020-06-14T06:13:59Z</time>
   </trkpt>
   <trkpt lat="51.1294790" lon="5.6700590">
    <ele>35.3</ele>
    <time>2020-06-14T06:14:00Z</time>
   </trkpt>
   <trkpt lat="51.1294330" lon="5.6699810">
    <ele>35.3</ele>
    <time>2020-06-14T06:14:01Z</time>
   </trkpt>
   <trkpt lat="51.1293870" lon="5.6699090">
    <ele>35.3</ele>
    <time>2020-06-14T06:14:02Z</time>
   </trkpt>
   <trkpt lat="51.1293400" lon="5.6698420">
    <ele>35.3</ele>
    <time>2020-06-14T06:14:03Z</time>
   </trkpt>
   <trkpt lat="51.1292960" lon="5.6697630">
    <ele>35.4</ele>
    <time>2020-06-14T06:14:04Z</time>
   </trkpt>
   <trkpt lat="51.1292460" lon="5.6696760">
    <ele>35.4</ele>
    <time>2020-06-14T06:14:05Z</time>
   </trkpt>
   <trkpt lat="51.1292010" lon="5.6695910">
    <ele>35.5</ele>
    <time>2020-06-14T06:14:06Z</time>
   </trkpt>
   <trkpt lat="51.1291550" lon="5.6695060">
    <ele>35.5</ele>
    <time>2020-06-14T06:14:07Z</time>
   </trkpt>
   <trkpt lat="51.1291070" lon="5.6694260">
    <ele>35.4</ele>
    <time>2020-06-14T06:14:08Z</time>
   </trkpt>
   <trkpt lat="51.1290590" lon="5.6693470">
    <ele>35.4</ele>
    <time>2020-06-14T06:14:09Z</time>
   </trkpt>
   <trkpt lat="51.1290100" lon="5.6692630">
    <ele>35.4</ele>
    <time>2020-06-14T06:14:10Z</time>
   </trkpt>
   <trkpt lat="51.1289620" lon="5.6691800">
    <ele>35.4</ele>
    <time>2020-06-14T06:14:11Z</time>
   </trkpt>
   <trkpt lat="51.1289150" lon="5.6690980">
    <ele>35.5</ele>
    <time>2020-06-14T06:14:12Z</time>
   </trkpt>
   <trkpt lat="51.1288680" lon="5.6690180">
    <ele>35.5</ele>
    <time>2020-06-14T06:14:13Z</time>
   </trkpt>
   <trkpt lat="51.1288240" lon="5.6689360">
    <ele>35.5</ele>
    <time>2020-06-14T06:14:14Z</time>
   </trkpt>
   <trkpt lat="51.1287790" lon="5.6688570">
    <ele>35.6</ele>
    <time>2020-06-14T06:14:15Z</time>
   </trkpt>
   <trkpt lat="51.1287390" lon="5.6687780">
    <ele>35.6</ele>
    <time>2020-06-14T06:14:16Z</time>
   </trkpt>
   <trkpt lat="51.1287010" lon="5.6687010">
    <ele>35.6</ele>
    <time>2020-06-14T06:14:17Z</time>
   </trkpt>
   <trkpt lat="51.1286620" lon="5.6686260">
    <ele>35.6</ele>
    <time>2020-06-14T06:14:18Z</time>
   </trkpt>
   <trkpt lat="51.1286170" lon="5.6685520">
    <ele>35.6</ele>
    <time>2020-06-14T06:14:19Z</time>
   </trkpt>
   <trkpt lat="51.1285750" lon="5.6684740">
    <ele>35.5</ele>
    <time>2020-06-14T06:14:20Z</time>
   </trkpt>
   <trkpt lat="51.1285340" lon="5.6683970">
    <ele>35.5</ele>
    <time>2020-06-14T06:14:21Z</time>
   </trkpt>
   <trkpt lat="51.1284880" lon="5.6683250">
    <ele>35.5</ele>
    <time>2020-06-14T06:14:22Z</time>
   </trkpt>
   <trkpt lat="51.1284420" lon="5.6682440">
    <ele>35.5</ele>
    <time>2020-06-14T06:14:23Z</time>
   </trkpt>
   <trkpt lat="51.1283950" lon="5.6681650">
    <ele>35.5</ele>
    <time>2020-06-14T06:14:24Z</time>
   </trkpt>
   <trkpt lat="51.1283430" lon="5.6680960">
    <ele>35.6</ele>
    <time>2020-06-14T06:14:25Z</time>
   </trkpt>
   <trkpt lat="51.1282990" lon="5.6680200">
    <ele>35.6</ele>
    <time>2020-06-14T06:14:26Z</time>
   </trkpt>
   <trkpt lat="51.1282540" lon="5.6679450">
    <ele>35.6</ele>
    <time>2020-06-14T06:14:27Z</time>
   </trkpt>
   <trkpt lat="51.1282230" lon="5.6678490">
    <ele>35.6</ele>
    <time>2020-06-14T06:14:28Z</time>
   </trkpt>
   <trkpt lat="51.1281770" lon="5.6677660">
    <ele>35.6</ele>
    <time>2020-06-14T06:14:29Z</time>
   </trkpt>
   <trkpt lat="51.1281300" lon="5.6676840">
    <ele>35.6</ele>
    <time>2020-06-14T06:14:30Z</time>
   </trkpt>
   <trkpt lat="51.1280800" lon="5.6676050">
    <ele>35.6</ele>
    <time>2020-06-14T06:14:31Z</time>
   </trkpt>
   <trkpt lat="51.1280300" lon="5.6675300">
    <ele>35.7</ele>
    <time>2020-06-14T06:14:32Z</time>
   </trkpt>
   <trkpt lat="51.1279800" lon="5.6674530">
    <ele>35.7</ele>
    <time>2020-06-14T06:14:33Z</time>
   </trkpt>
   <trkpt lat="51.1279310" lon="5.6673700">
    <ele>35.7</ele>
    <time>2020-06-14T06:14:34Z</time>
   </trkpt>
   <trkpt lat="51.1278840" lon="5.6672910">
    <ele>35.7</ele>
    <time>2020-06-14T06:14:35Z</time>
   </trkpt>
   <trkpt lat="51.1278420" lon="5.6672100">
    <ele>35.7</ele>
    <time>2020-06-14T06:14:36Z</time>
   </trkpt>
   <trkpt lat="51.1277960" lon="5.6671330">
    <ele>35.7</ele>
    <time>2020-06-14T06:14:37Z</time>
   </trkpt>
   <trkpt lat="51.1277560" lon="5.6670460">
    <ele>35.7</ele>
    <time>2020-06-14T06:14:38Z</time>
   </trkpt>
   <trkpt lat="51.1277180" lon="5.6669570">
    <ele>35.7</ele>
    <time>2020-06-14T06:14:39Z</time>
   </trkpt>
   <trkpt lat="51.1276760" lon="5.6668740">
    <ele>35.8</ele>
    <time>2020-06-14T06:14:40Z</time>
   </trkpt>
   <trkpt lat="51.1276330" lon="5.6667960">
    <ele>35.8</ele>
    <time>2020-06-14T06:14:41Z</time>
   </trkpt>
   <trkpt lat="51.1275900" lon="5.6667120">
    <ele>35.9</ele>
    <time>2020-06-14T06:14:42Z</time>
   </trkpt>
   <trkpt lat="51.1275420" lon="5.6666290">
    <ele>35.8</ele>
    <time>2020-06-14T06:14:43Z</time>
   </trkpt>
   <trkpt lat="51.1274950" lon="5.6665440">
    <ele>35.7</ele>
    <time>2020-06-14T06:14:44Z</time>
   </trkpt>
   <trkpt lat="51.1274510" lon="5.6664600">
    <ele>35.7</ele>
    <time>2020-06-14T06:14:45Z</time>
   </trkpt>
   <trkpt lat="51.1274100" lon="5.6663770">
    <ele>35.7</ele>
    <time>2020-06-14T06:14:46Z</time>
   </trkpt>
   <trkpt lat="51.1273720" lon="5.6662890">
    <ele>35.6</ele>
    <time>2020-06-14T06:14:47Z</time>
   </trkpt>
   <trkpt lat="51.1273340" lon="5.6662070">
    <ele>35.6</ele>
    <time>2020-06-14T06:14:48Z</time>
   </trkpt>
   <trkpt lat="51.1272950" lon="5.6661190">
    <ele>35.6</ele>
    <time>2020-06-14T06:14:49Z</time>
   </trkpt>
   <trkpt lat="51.1272600" lon="5.6660250">
    <ele>35.6</ele>
    <time>2020-06-14T06:14:50Z</time>
   </trkpt>
   <trkpt lat="51.1272300" lon="5.6659320">
    <ele>35.6</ele>
    <time>2020-06-14T06:14:51Z</time>
   </trkpt>
   <trkpt lat="51.1272080" lon="5.6658370">
    <ele>35.6</ele>
    <time>2020-06-14T06:14:52Z</time>
   </trkpt>
   <trkpt lat="51.1271840" lon="5.6657400">
    <ele>35.6</ele>
    <time>2020-06-14T06:14:53Z</time>
   </trkpt>
   <trkpt lat="51.1271620" lon="5.6656410">
    <ele>35.6</ele>
    <time>2020-06-14T06:14:54Z</time>
   </trkpt>
   <trkpt lat="51.1271410" lon="5.6655400">
    <ele>35.6</ele>
    <time>2020-06-14T06:14:55Z</time>
   </trkpt>
   <trkpt lat="51.1271200" lon="5.6654340">
    <ele>35.6</ele>
    <time>2020-06-14T06:14:56Z</time>
   </trkpt>
   <trkpt lat="51.1271000" lon="5.6653240">
    <ele>35.6</ele>
    <time>2020-06-14T06:14:57Z</time>
   </trkpt>
   <trkpt lat="51.1270840" lon="5.6652130">
    <ele>35.6</ele>
    <time>2020-06-14T06:14:58Z</time>
   </trkpt>
   <trkpt lat="51.1270710" lon="5.6650990">
    <ele>35.6</ele>
    <time>2020-06-14T06:14:59Z</time>
   </trkpt>
   <trkpt lat="51.1270590" lon="5.6649870">
    <ele>35.6</ele>
    <time>2020-06-14T06:15:00Z</time>
   </trkpt>
   <trkpt lat="51.1270510" lon="5.6648770">
    <ele>35.6</ele>
    <time>2020-06-14T06:15:01Z</time>
   </trkpt>
   <trkpt lat="51.1270450" lon="5.6647670">
    <ele>35.5</ele>
    <time>2020-06-14T06:15:02Z</time>
   </trkpt>
   <trkpt lat="51.1270410" lon="5.6646570">
    <ele>35.5</ele>
    <time>2020-06-14T06:15:03Z</time>
   </trkpt>
   <trkpt lat="51.1270350" lon="5.6645510">
    <ele>35.5</ele>
    <time>2020-06-14T06:15:04Z</time>
   </trkpt>
   <trkpt lat="51.1270250" lon="5.6644450">
    <ele>35.5</ele>
    <time>2020-06-14T06:15:05Z</time>
   </trkpt>
   <trkpt lat="51.1270200" lon="5.6643370">
    <ele>35.5</ele>
    <time>2020-06-14T06:15:06Z</time>
   </trkpt>
   <trkpt lat="51.1270170" lon="5.6642350">
    <ele>35.5</ele>
    <time>2020-06-14T06:15:07Z</time>
   </trkpt>
   <trkpt lat="51.1270140" lon="5.6641370">
    <ele>35.6</ele>
    <time>2020-06-14T06:15:08Z</time>
   </trkpt>
   <trkpt lat="51.1270110" lon="5.6640380">
    <ele>35.6</ele>
    <time>2020-06-14T06:15:09Z</time>
   </trkpt>
   <trkpt lat="51.1270040" lon="5.6639430">
    <ele>35.6</ele>
    <time>2020-06-14T06:15:10Z</time>
   </trkpt>
   <trkpt lat="51.1269960" lon="5.6638470">
    <ele>35.6</ele>
    <time>2020-06-14T06:15:11Z</time>
   </trkpt>
   <trkpt lat="51.1269910" lon="5.6637540">
    <ele>35.6</ele>
    <time>2020-06-14T06:15:12Z</time>
   </trkpt>
   <trkpt lat="51.1269930" lon="5.6636640">
    <ele>35.7</ele>
    <time>2020-06-14T06:15:13Z</time>
   </trkpt>
   <trkpt lat="51.1269970" lon="5.6635740">
    <ele>35.7</ele>
    <time>2020-06-14T06:15:14Z</time>
   </trkpt>
   <trkpt lat="51.1270170" lon="5.6635060">
    <ele>35.7</ele>
    <time>2020-06-14T06:15:15Z</time>
   </trkpt>
   <trkpt lat="51.1270310" lon="5.6634220">
    <ele>35.7</ele>
    <time>2020-06-14T06:15:16Z</time>
   </trkpt>
   <trkpt lat="51.1270590" lon="5.6633470">
    <ele>35.8</ele>
    <time>2020-06-14T06:15:17Z</time>
   </trkpt>
   <trkpt lat="51.1270920" lon="5.6632700">
    <ele>35.8</ele>
    <time>2020-06-14T06:15:18Z</time>
   </trkpt>
   <trkpt lat="51.1271360" lon="5.6631880">
    <ele>35.9</ele>
    <time>2020-06-14T06:15:19Z</time>
   </trkpt>
   <trkpt lat="51.1271860" lon="5.6631350">
    <ele>36.0</ele>
    <time>2020-06-14T06:15:20Z</time>
   </trkpt>
   <trkpt lat="51.1272520" lon="5.6631010">
    <ele>36.0</ele>
    <time>2020-06-14T06:15:21Z</time>
   </trkpt>
   <trkpt lat="51.1273200" lon="5.6630720">
    <ele>36.1</ele>
    <time>2020-06-14T06:15:22Z</time>
   </trkpt>
   <trkpt lat="51.1273900" lon="5.6630370">
    <ele>36.2</ele>
    <time>2020-06-14T06:15:23Z</time>
   </trkpt>
   <trkpt lat="51.1274580" lon="5.6629980">
    <ele>36.2</ele>
    <time>2020-06-14T06:15:24Z</time>
   </trkpt>
   <trkpt lat="51.1275230" lon="5.6629570">
    <ele>36.3</ele>
    <time>2020-06-14T06:15:25Z</time>
   </trkpt>
   <trkpt lat="51.1275820" lon="5.6629170">
    <ele>36.5</ele>
    <time>2020-06-14T06:15:26Z</time>
   </trkpt>
   <trkpt lat="51.1276430" lon="5.6628750">
    <ele>36.6</ele>
    <time>2020-06-14T06:15:27Z</time>
   </trkpt>
   <trkpt lat="51.1277040" lon="5.6628430">
    <ele>36.8</ele>
    <time>2020-06-14T06:15:28Z</time>
   </trkpt>
   <trkpt lat="51.1277660" lon="5.6628260">
    <ele>36.8</ele>
    <time>2020-06-14T06:15:29Z</time>
   </trkpt>
   <trkpt lat="51.1278300" lon="5.6628480">
    <ele>36.8</ele>
    <time>2020-06-14T06:15:30Z</time>
   </trkpt>
   <trkpt lat="51.1278920" lon="5.6628850">
    <ele>36.7</ele>
    <time>2020-06-14T06:15:31Z</time>
   </trkpt>
   <trkpt lat="51.1279630" lon="5.6629190">
    <ele>36.7</ele>
    <time>2020-06-14T06:15:32Z</time>
   </trkpt>
   <trkpt lat="51.1280300" lon="5.6629560">
    <ele>36.7</ele>
    <time>2020-06-14T06:15:33Z</time>
   </trkpt>
   <trkpt lat="51.1281030" lon="5.6629990">
    <ele>36.7</ele>
    <time>2020-06-14T06:15:34Z</time>
   </trkpt>
   <trkpt lat="51.1281710" lon="5.6630380">
    <ele>36.7</ele>
    <time>2020-06-14T06:15:35Z</time>
   </trkpt>
   <trkpt lat="51.1282420" lon="5.6630740">
    <ele>36.7</ele>
    <time>2020-06-14T06:15:36Z</time>
   </trkpt>
   <trkpt lat="51.1283080" lon="5.6631090">
    <ele>36.7</ele>
    <time>2020-06-14T06:15:37Z</time>
   </trkpt>
   <trkpt lat="51.1283760" lon="5.6631490">
    <ele>36.8</ele>
    <time>2020-06-14T06:15:38Z</time>
   </trkpt>
   <trkpt lat="51.1284440" lon="5.6631910">
    <ele>36.9</ele>
    <time>2020-06-14T06:15:39Z</time>
   </trkpt>
   <trkpt lat="51.1285080" lon="5.6632210">
    <ele>36.9</ele>
    <time>2020-06-14T06:15:40Z</time>
   </trkpt>
   <trkpt lat="51.1285690" lon="5.6632570">
    <ele>36.9</ele>
    <time>2020-06-14T06:15:41Z</time>
   </trkpt>
   <trkpt lat="51.1286240" lon="5.6632810">
    <ele>37.0</ele>
    <time>2020-06-14T06:15:42Z</time>
   </trkpt>
   <trkpt lat="51.1286770" lon="5.6632960">
    <ele>37.1</ele>
    <time>2020-06-14T06:15:43Z</time>
   </trkpt>
   <trkpt lat="51.1287310" lon="5.6632970">
    <ele>37.1</ele>
    <time>2020-06-14T06:15:44Z</time>
   </trkpt>
   <trkpt lat="51.1287760" lon="5.6632980">
    <ele>37.2</ele>
    <time>2020-06-14T06:15:45Z</time>
   </trkpt>
   <trkpt lat="51.1288200" lon="5.6632950">
    <ele>37.3</ele>
    <time>2020-06-14T06:15:46Z</time>
   </trkpt>
   <trkpt lat="51.1288720" lon="5.6632780">
    <ele>37.3</ele>
    <time>2020-06-14T06:15:47Z</time>
   </trkpt>
   <trkpt lat="51.1289120" lon="5.6632560">
    <ele>37.4</ele>
    <time>2020-06-14T06:15:48Z</time>
   </trkpt>
   <trkpt lat="51.1289450" lon="5.6631750">
    <ele>37.5</ele>
    <time>2020-06-14T06:15:49Z</time>
   </trkpt>
   <trkpt lat="51.1289620" lon="5.6631030">
    <ele>37.5</ele>
    <time>2020-06-14T06:15:50Z</time>
   </trkpt>
   <trkpt lat="51.1289630" lon="5.6630220">
    <ele>37.4</ele>
    <time>2020-06-14T06:15:51Z</time>
   </trkpt>
   <trkpt lat="51.1289510" lon="5.6629090">
    <ele>37.4</ele>
    <time>2020-06-14T06:15:52Z</time>
   </trkpt>
   <trkpt lat="51.1289280" lon="5.6627960">
    <ele>37.4</ele>
    <time>2020-06-14T06:15:53Z</time>
   </trkpt>
   <trkpt lat="51.1289030" lon="5.6626650">
    <ele>37.4</ele>
    <time>2020-06-14T06:15:54Z</time>
   </trkpt>
   <trkpt lat="51.1288750" lon="5.6625260">
    <ele>37.4</ele>
    <time>2020-06-14T06:15:55Z</time>
   </trkpt>
   <trkpt lat="51.1288460" lon="5.6624090">
    <ele>37.4</ele>
    <time>2020-06-14T06:15:56Z</time>
   </trkpt>
   <trkpt lat="51.1288220" lon="5.6623160">
    <ele>37.5</ele>
    <time>2020-06-14T06:15:57Z</time>
   </trkpt>
   <trkpt lat="51.1287860" lon="5.6622270">
    <ele>37.5</ele>
    <time>2020-06-14T06:15:58Z</time>
   </trkpt>
   <trkpt lat="51.1287630" lon="5.6621270">
    <ele>37.6</ele>
    <time>2020-06-14T06:15:59Z</time>
   </trkpt>
   <trkpt lat="51.1287350" lon="5.6620000">
    <ele>37.6</ele>
    <time>2020-06-14T06:16:00Z</time>
   </trkpt>
   <trkpt lat="51.1287140" lon="5.6618760">
    <ele>37.7</ele>
    <time>2020-06-14T06:16:01Z</time>
   </trkpt>
   <trkpt lat="51.1286970" lon="5.6617530">
    <ele>37.7</ele>
    <time>2020-06-14T06:16:02Z</time>
   </trkpt>
   <trkpt lat="51.1286770" lon="5.6616380">
    <ele>37.8</ele>
    <time>2020-06-14T06:16:03Z</time>
   </trkpt>
   <trkpt lat="51.1286550" lon="5.6615200">
    <ele>37.9</ele>
    <time>2020-06-14T06:16:04Z</time>
   </trkpt>
   <trkpt lat="51.1286310" lon="5.6613950">
    <ele>38.0</ele>
    <time>2020-06-14T06:16:05Z</time>
   </trkpt>
   <trkpt lat="51.1286080" lon="5.6612700">
    <ele>37.9</ele>
    <time>2020-06-14T06:16:06Z</time>
   </trkpt>
   <trkpt lat="51.1285900" lon="5.6611710">
    <ele>37.9</ele>
    <time>2020-06-14T06:16:07Z</time>
   </trkpt>
   <trkpt lat="51.1285730" lon="5.6610640">
    <ele>37.9</ele>
    <time>2020-06-14T06:16:08Z</time>
   </trkpt>
   <trkpt lat="51.1285540" lon="5.6609530">
    <ele>37.8</ele>
    <time>2020-06-14T06:16:09Z</time>
   </trkpt>
   <trkpt lat="51.1285340" lon="5.6608350">
    <ele>37.8</ele>
    <time>2020-06-14T06:16:10Z</time>
   </trkpt>
   <trkpt lat="51.1285130" lon="5.6607240">
    <ele>37.8</ele>
    <time>2020-06-14T06:16:11Z</time>
   </trkpt>
   <trkpt lat="51.1284910" lon="5.6606190">
    <ele>37.7</ele>
    <time>2020-06-14T06:16:12Z</time>
   </trkpt>
   <trkpt lat="51.1284700" lon="5.6605240">
    <ele>37.7</ele>
    <time>2020-06-14T06:16:13Z</time>
   </trkpt>
   <trkpt lat="51.1284490" lon="5.6604320">
    <ele>37.7</ele>
    <time>2020-06-14T06:16:14Z</time>
   </trkpt>
   <trkpt lat="51.1284290" lon="5.6603300">
    <ele>37.7</ele>
    <time>2020-06-14T06:16:15Z</time>
   </trkpt>
   <trkpt lat="51.1283980" lon="5.6602370">
    <ele>37.8</ele>
    <time>2020-06-14T06:16:16Z</time>
   </trkpt>
   <trkpt lat="51.1283670" lon="5.6601430">
    <ele>37.8</ele>
    <time>2020-06-14T06:16:17Z</time>
   </trkpt>
   <trkpt lat="51.1283320" lon="5.6600590">
    <ele>37.7</ele>
    <time>2020-06-14T06:16:18Z</time>
   </trkpt>
   <trkpt lat="51.1282990" lon="5.6599710">
    <ele>37.7</ele>
    <time>2020-06-14T06:16:19Z</time>
   </trkpt>
   <trkpt lat="51.1282640" lon="5.6598810">
    <ele>37.7</ele>
    <time>2020-06-14T06:16:20Z</time>
   </trkpt>
   <trkpt lat="51.1282280" lon="5.6597920">
    <ele>37.7</ele>
    <time>2020-06-14T06:16:21Z</time>
   </trkpt>
   <trkpt lat="51.1281920" lon="5.6597060">
    <ele>37.8</ele>
    <time>2020-06-14T06:16:22Z</time>
   </trkpt>
   <trkpt lat="51.1281560" lon="5.6596210">
    <ele>37.8</ele>
    <time>2020-06-14T06:16:23Z</time>
   </trkpt>
   <trkpt lat="51.1281210" lon="5.6595330">
    <ele>37.8</ele>
    <time>2020-06-14T06:16:24Z</time>
   </trkpt>
   <trkpt lat="51.1280840" lon="5.6594420">
    <ele>37.8</ele>
    <time>2020-06-14T06:16:25Z</time>
   </trkpt>
   <trkpt lat="51.1280390" lon="5.6593560">
    <ele>37.9</ele>
    <time>2020-06-14T06:16:26Z</time>
   </trkpt>
   <trkpt lat="51.1280000" lon="5.6592770">
    <ele>37.9</ele>
    <time>2020-06-14T06:16:27Z</time>
   </trkpt>
   <trkpt lat="51.1279610" lon="5.6591940">
    <ele>37.9</ele>
    <time>2020-06-14T06:16:28Z</time>
   </trkpt>
   <trkpt lat="51.1279170" lon="5.6591050">
    <ele>37.9</ele>
    <time>2020-06-14T06:16:29Z</time>
   </trkpt>
   <trkpt lat="51.1278590" lon="5.6590240">
    <ele>37.9</ele>
    <time>2020-06-14T06:16:30Z</time>
   </trkpt>
   <trkpt lat="51.1278240" lon="5.6589520">
    <ele>37.9</ele>
    <time>2020-06-14T06:16:31Z</time>
   </trkpt>
   <trkpt lat="51.1277900" lon="5.6588810">
    <ele>37.9</ele>
    <time>2020-06-14T06:16:32Z</time>
   </trkpt>
   <trkpt lat="51.1277620" lon="5.6588140">
    <ele>37.9</ele>
    <time>2020-06-14T06:16:33Z</time>
   </trkpt>
   <trkpt lat="51.1277290" lon="5.6587390">
    <ele>37.9</ele>
    <time>2020-06-14T06:16:34Z</time>
   </trkpt>
   <trkpt lat="51.1277040" lon="5.6586760">
    <ele>37.9</ele>
    <time>2020-06-14T06:16:35Z</time>
   </trkpt>
   <trkpt lat="51.1276800" lon="5.6586190">
    <ele>38.0</ele>
    <time>2020-06-14T06:16:36Z</time>
   </trkpt>
   <trkpt lat="51.1276530" lon="5.6585580">
    <ele>38.0</ele>
    <time>2020-06-14T06:16:37Z</time>
   </trkpt>
   <trkpt lat="51.1276230" lon="5.6584930">
    <ele>38.0</ele>
    <time>2020-06-14T06:16:38Z</time>
   </trkpt>
   <trkpt lat="51.1275910" lon="5.6584350">
    <ele>38.1</ele>
    <time>2020-06-14T06:16:39Z</time>
   </trkpt>
   <trkpt lat="51.1275580" lon="5.6583790">
    <ele>38.1</ele>
    <time>2020-06-14T06:16:40Z</time>
   </trkpt>
   <trkpt lat="51.1275300" lon="5.6583170">
    <ele>38.1</ele>
    <time>2020-06-14T06:16:41Z</time>
   </trkpt>
   <trkpt lat="51.1275110" lon="5.6582490">
    <ele>38.1</ele>
    <time>2020-06-14T06:16:42Z</time>
   </trkpt>
   <trkpt lat="51.1275310" lon="5.6581650">
    <ele>38.1</ele>
    <time>2020-06-14T06:16:43Z</time>
   </trkpt>
   <trkpt lat="51.1275730" lon="5.6580760">
    <ele>38.0</ele>
    <time>2020-06-14T06:16:44Z</time>
   </trkpt>
   <trkpt lat="51.1276440" lon="5.6580270">
    <ele>37.9</ele>
    <time>2020-06-14T06:16:45Z</time>
   </trkpt>
   <trkpt lat="51.1276940" lon="5.6579500">
    <ele>37.8</ele>
    <time>2020-06-14T06:16:46Z</time>
   </trkpt>
   <trkpt lat="51.1277350" lon="5.6578690">
    <ele>37.7</ele>
    <time>2020-06-14T06:16:47Z</time>
   </trkpt>
   <trkpt lat="51.1277780" lon="5.6577830">
    <ele>37.7</ele>
    <time>2020-06-14T06:16:48Z</time>
   </trkpt>
   <trkpt lat="51.1278270" lon="5.6576820">
    <ele>37.7</ele>
    <time>2020-06-14T06:16:49Z</time>
   </trkpt>
   <trkpt lat="51.1278690" lon="5.6575820">
    <ele>37.7</ele>
    <time>2020-06-14T06:16:50Z</time>
   </trkpt>
   <trkpt lat="51.1279040" lon="5.6574860">
    <ele>37.8</ele>
    <time>2020-06-14T06:16:51Z</time>
   </trkpt>
   <trkpt lat="51.1279470" lon="5.6573810">
    <ele>37.9</ele>
    <time>2020-06-14T06:16:52Z</time>
   </trkpt>
   <trkpt lat="51.1279850" lon="5.6572870">
    <ele>37.9</ele>
    <time>2020-06-14T06:16:53Z</time>
   </trkpt>
   <trkpt lat="51.1280350" lon="5.6571960">
    <ele>37.9</ele>
    <time>2020-06-14T06:16:54Z</time>
   </trkpt>
   <trkpt lat="51.1280900" lon="5.6571120">
    <ele>37.8</ele>
    <time>2020-06-14T06:16:55Z</time>
   </trkpt>
   <trkpt lat="51.1281460" lon="5.6570390">
    <ele>37.8</ele>
    <time>2020-06-14T06:16:56Z</time>
   </trkpt>
   <trkpt lat="51.1282040" lon="5.6569800">
    <ele>37.8</ele>
    <time>2020-06-14T06:16:57Z</time>
   </trkpt>
   <trkpt lat="51.1282650" lon="5.6569240">
    <ele>37.8</ele>
    <time>2020-06-14T06:16:58Z</time>
   </trkpt>
   <trkpt lat="51.1283220" lon="5.6568620">
    <ele>37.8</ele>
    <time>2020-06-14T06:16:59Z</time>
   </trkpt>
   <trkpt lat="51.1283850" lon="5.6568060">
    <ele>37.8</ele>
    <time>2020-06-14T06:17:00Z</time>
   </trkpt>
   <trkpt lat="51.1284380" lon="5.6567320">
    <ele>37.8</ele>
    <time>2020-06-14T06:17:01Z</time>
   </trkpt>
   <trkpt lat="51.1284950" lon="5.6566670">
    <ele>37.8</ele>
    <time>2020-06-14T06:17:02Z</time>
   </trkpt>
   <trkpt lat="51.1285570" lon="5.6566010">
    <ele>37.9</ele>
    <time>2020-06-14T06:17:03Z</time>
   </trkpt>
   <trkpt lat="51.1286240" lon="5.6565330">
    <ele>37.9</ele>
    <time>2020-06-14T06:17:04Z</time>
   </trkpt>
   <trkpt lat="51.1286810" lon="5.6564720">
    <ele>37.9</ele>
    <time>2020-06-14T06:17:05Z</time>
   </trkpt>
   <trkpt lat="51.1287380" lon="5.6564090">
    <ele>38.0</ele>
    <time>2020-06-14T06:17:06Z</time>
   </trkpt>
   <trkpt lat="51.1288020" lon="5.6563400">
    <ele>38.0</ele>
    <time>2020-06-14T06:17:07Z</time>
   </trkpt>
   <trkpt lat="51.1288630" lon="5.6562760">
    <ele>38.1</ele>
    <time>2020-06-14T06:17:08Z</time>
   </trkpt>
   <trkpt lat="51.1289250" lon="5.6562110">
    <ele>38.1</ele>
    <time>2020-06-14T06:17:09Z</time>
   </trkpt>
   <trkpt lat="51.1289830" lon="5.6561460">
    <ele>38.2</ele>
    <time>2020-06-14T06:17:10Z</time>
   </trkpt>
   <trkpt lat="51.1290400" lon="5.6560880">
    <ele>38.3</ele>
    <time>2020-06-14T06:17:11Z</time>
   </trkpt>
   <trkpt lat="51.1290970" lon="5.6560240">
    <ele>38.3</ele>
    <time>2020-06-14T06:17:12Z</time>
   </trkpt>
   <trkpt lat="51.1291570" lon="5.6559510">
    <ele>38.4</ele>
    <time>2020-06-14T06:17:13Z</time>
   </trkpt>
   <trkpt lat="51.1292120" lon="5.6558870">
    <ele>38.4</ele>
    <time>2020-06-14T06:17:14Z</time>
   </trkpt>
   <trkpt lat="51.1292690" lon="5.6558170">
    <ele>38.4</ele>
    <time>2020-06-14T06:17:15Z</time>
   </trkpt>
   <trkpt lat="51.1293250" lon="5.6557530">
    <ele>38.4</ele>
    <time>2020-06-14T06:17:16Z</time>
   </trkpt>
   <trkpt lat="51.1293800" lon="5.6556860">
    <ele>38.5</ele>
    <time>2020-06-14T06:17:17Z</time>
   </trkpt>
   <trkpt lat="51.1294310" lon="5.6556250">
    <ele>38.5</ele>
    <time>2020-06-14T06:17:18Z</time>
   </trkpt>
   <trkpt lat="51.1294850" lon="5.6555580">
    <ele>38.5</ele>
    <time>2020-06-14T06:17:19Z</time>
   </trkpt>
   <trkpt lat="51.1295350" lon="5.6554950">
    <ele>38.5</ele>
    <time>2020-06-14T06:17:20Z</time>
   </trkpt>
   <trkpt lat="51.1295870" lon="5.6554310">
    <ele>38.5</ele>
    <time>2020-06-14T06:17:21Z</time>
   </trkpt>
   <trkpt lat="51.1296440" lon="5.6553670">
    <ele>38.5</ele>
    <time>2020-06-14T06:17:22Z</time>
   </trkpt>
   <trkpt lat="51.1297020" lon="5.6553080">
    <ele>38.5</ele>
    <time>2020-06-14T06:17:23Z</time>
   </trkpt>
   <trkpt lat="51.1297550" lon="5.6552510">
    <ele>38.5</ele>
    <time>2020-06-14T06:17:24Z</time>
   </trkpt>
   <trkpt lat="51.1298080" lon="5.6551930">
    <ele>38.5</ele>
    <time>2020-06-14T06:17:25Z</time>
   </trkpt>
   <trkpt lat="51.1298630" lon="5.6551370">
    <ele>38.5</ele>
    <time>2020-06-14T06:17:26Z</time>
   </trkpt>
   <trkpt lat="51.1299210" lon="5.6550750">
    <ele>38.5</ele>
    <time>2020-06-14T06:17:27Z</time>
   </trkpt>
   <trkpt lat="51.1299750" lon="5.6550120">
    <ele>38.6</ele>
    <time>2020-06-14T06:17:28Z</time>
   </trkpt>
   <trkpt lat="51.1300320" lon="5.6549500">
    <ele>38.6</ele>
    <time>2020-06-14T06:17:29Z</time>
   </trkpt>
   <trkpt lat="51.1300910" lon="5.6548900">
    <ele>38.7</ele>
    <time>2020-06-14T06:17:30Z</time>
   </trkpt>
   <trkpt lat="51.1301460" lon="5.6548210">
    <ele>38.7</ele>
    <time>2020-06-14T06:17:31Z</time>
   </trkpt>
   <trkpt lat="51.1302000" lon="5.6547540">
    <ele>38.8</ele>
    <time>2020-06-14T06:17:32Z</time>
   </trkpt>
   <trkpt lat="51.1302550" lon="5.6546970">
    <ele>38.8</ele>
    <time>2020-06-14T06:17:33Z</time>
   </trkpt>
   <trkpt lat="51.1303130" lon="5.6546370">
    <ele>38.8</ele>
    <time>2020-06-14T06:17:34Z</time>
   </trkpt>
   <trkpt lat="51.1303690" lon="5.6545710">
    <ele>38.8</ele>
    <time>2020-06-14T06:17:35Z</time>
   </trkpt>
   <trkpt lat="51.1304260" lon="5.6545120">
    <ele>38.8</ele>
    <time>2020-06-14T06:17:36Z</time>
   </trkpt>
   <trkpt lat="51.1304820" lon="5.6544490">
    <ele>38.9</ele>
    <time>2020-06-14T06:17:37Z</time>
   </trkpt>
   <trkpt lat="51.1305380" lon="5.6543860">
    <ele>38.9</ele>
    <time>2020-06-14T06:17:38Z</time>
   </trkpt>
   <trkpt lat="51.1305970" lon="5.6543260">
    <ele>38.9</ele>
    <time>2020-06-14T06:17:39Z</time>
   </trkpt>
   <trkpt lat="51.1306570" lon="5.6542630">
    <ele>38.9</ele>
    <time>2020-06-14T06:17:40Z</time>
   </trkpt>
   <trkpt lat="51.1307160" lon="5.6542040">
    <ele>38.9</ele>
    <time>2020-06-14T06:17:41Z</time>
   </trkpt>
   <trkpt lat="51.1307770" lon="5.6541460">
    <ele>39.0</ele>
    <time>2020-06-14T06:17:42Z</time>
   </trkpt>
   <trkpt lat="51.1308350" lon="5.6540850">
    <ele>39.0</ele>
    <time>2020-06-14T06:17:43Z</time>
   </trkpt>
   <trkpt lat="51.1308910" lon="5.6540210">
    <ele>39.0</ele>
    <time>2020-06-14T06:17:44Z</time>
   </trkpt>
   <trkpt lat="51.1309470" lon="5.6539630">
    <ele>39.0</ele>
    <time>2020-06-14T06:17:45Z</time>
   </trkpt>
   <trkpt lat="51.1310110" lon="5.6539090">
    <ele>39.0</ele>
    <time>2020-06-14T06:17:46Z</time>
   </trkpt>
   <trkpt lat="51.1310700" lon="5.6538480">
    <ele>39.0</ele>
    <time>2020-06-14T06:17:47Z</time>
   </trkpt>
   <trkpt lat="51.1311320" lon="5.6537860">
    <ele>39.0</ele>
    <time>2020-06-14T06:17:48Z</time>
   </trkpt>
   <trkpt lat="51.1311950" lon="5.6537260">
    <ele>39.0</ele>
    <time>2020-06-14T06:17:49Z</time>
   </trkpt>
   <trkpt lat="51.1312560" lon="5.6536680">
    <ele>38.9</ele>
    <time>2020-06-14T06:17:50Z</time>
   </trkpt>
   <trkpt lat="51.1313170" lon="5.6536090">
    <ele>38.9</ele>
    <time>2020-06-14T06:17:51Z</time>
   </trkpt>
   <trkpt lat="51.1313780" lon="5.6535520">
    <ele>38.9</ele>
    <time>2020-06-14T06:17:52Z</time>
   </trkpt>
   <trkpt lat="51.1314960" lon="5.6534290">
    <ele>38.9</ele>
    <time>2020-06-14T06:17:53Z</time>
   </trkpt>
   <trkpt lat="51.1315540" lon="5.6533620">
    <ele>38.9</ele>
    <time>2020-06-14T06:17:54Z</time>
   </trkpt>
   <trkpt lat="51.1316130" lon="5.6532940">
    <ele>38.9</ele>
    <time>2020-06-14T06:17:55Z</time>
   </trkpt>
   <trkpt lat="51.1316710" lon="5.6532240">
    <ele>38.8</ele>
    <time>2020-06-14T06:17:56Z</time>
   </trkpt>
   <trkpt lat="51.1317330" lon="5.6531540">
    <ele>38.8</ele>
    <time>2020-06-14T06:17:57Z</time>
   </trkpt>
   <trkpt lat="51.1317950" lon="5.6530840">
    <ele>38.8</ele>
    <time>2020-06-14T06:17:58Z</time>
   </trkpt>
   <trkpt lat="51.1318560" lon="5.6530200">
    <ele>38.8</ele>
    <time>2020-06-14T06:17:59Z</time>
   </trkpt>
   <trkpt lat="51.1319170" lon="5.6529560">
    <ele>38.9</ele>
    <time>2020-06-14T06:18:00Z</time>
   </trkpt>
   <trkpt lat="51.1319780" lon="5.6528960">
    <ele>38.9</ele>
    <time>2020-06-14T06:18:01Z</time>
   </trkpt>
   <trkpt lat="51.1320380" lon="5.6528400">
    <ele>38.9</ele>
    <time>2020-06-14T06:18:02Z</time>
   </trkpt>
   <trkpt lat="51.1320990" lon="5.6527810">
    <ele>38.9</ele>
    <time>2020-06-14T06:18:03Z</time>
   </trkpt>
   <trkpt lat="51.1321550" lon="5.6527170">
    <ele>38.9</ele>
    <time>2020-06-14T06:18:04Z</time>
   </trkpt>
   <trkpt lat="51.1322090" lon="5.6526530">
    <ele>38.9</ele>
    <time>2020-06-14T06:18:05Z</time>
   </trkpt>
   <trkpt lat="51.1322640" lon="5.6525890">
    <ele>38.9</ele>
    <time>2020-06-14T06:18:06Z</time>
   </trkpt>
   <trkpt lat="51.1323180" lon="5.6525280">
    <ele>38.9</ele>
    <time>2020-06-14T06:18:07Z</time>
   </trkpt>
   <trkpt lat="51.1323740" lon="5.6524670">
    <ele>38.9</ele>
    <time>2020-06-14T06:18:08Z</time>
   </trkpt>
   <trkpt lat="51.1324300" lon="5.6524050">
    <ele>38.9</ele>
    <time>2020-06-14T06:18:09Z</time>
   </trkpt>
   <trkpt lat="51.1324880" lon="5.6523450">
    <ele>38.9</ele>
    <time>2020-06-14T06:18:10Z</time>
   </trkpt>
   <trkpt lat="51.1325460" lon="5.6522850">
    <ele>38.8</ele>
    <time>2020-06-14T06:18:11Z</time>
   </trkpt>
   <trkpt lat="51.1326040" lon="5.6522260">
    <ele>38.8</ele>
    <time>2020-06-14T06:18:12Z</time>
   </trkpt>
   <trkpt lat="51.1326570" lon="5.6521640">
    <ele>38.8</ele>
    <time>2020-06-14T06:18:13Z</time>
   </trkpt>
   <trkpt lat="51.1327100" lon="5.6521000">
    <ele>38.7</ele>
    <time>2020-06-14T06:18:14Z</time>
   </trkpt>
   <trkpt lat="51.1327620" lon="5.6520300">
    <ele>38.7</ele>
    <time>2020-06-14T06:18:15Z</time>
   </trkpt>
   <trkpt lat="51.1328200" lon="5.6519720">
    <ele>38.7</ele>
    <time>2020-06-14T06:18:16Z</time>
   </trkpt>
   <trkpt lat="51.1328760" lon="5.6519110">
    <ele>38.7</ele>
    <time>2020-06-14T06:18:17Z</time>
   </trkpt>
   <trkpt lat="51.1329330" lon="5.6518520">
    <ele>38.7</ele>
    <time>2020-06-14T06:18:18Z</time>
   </trkpt>
   <trkpt lat="51.1329920" lon="5.6517940">
    <ele>38.7</ele>
    <time>2020-06-14T06:18:19Z</time>
   </trkpt>
   <trkpt lat="51.1330520" lon="5.6517270">
    <ele>38.6</ele>
    <time>2020-06-14T06:18:20Z</time>
   </trkpt>
   <trkpt lat="51.1331130" lon="5.6516630">
    <ele>38.6</ele>
    <time>2020-06-14T06:18:21Z</time>
   </trkpt>
   <trkpt lat="51.1331720" lon="5.6515980">
    <ele>38.6</ele>
    <time>2020-06-14T06:18:22Z</time>
   </trkpt>
   <trkpt lat="51.1332280" lon="5.6515260">
    <ele>38.6</ele>
    <time>2020-06-14T06:18:23Z</time>
   </trkpt>
   <trkpt lat="51.1332880" lon="5.6514680">
    <ele>38.6</ele>
    <time>2020-06-14T06:18:24Z</time>
   </trkpt>
   <trkpt lat="51.1333490" lon="5.6514050">
    <ele>38.6</ele>
    <time>2020-06-14T06:18:25Z</time>
   </trkpt>
   <trkpt lat="51.1334060" lon="5.6513410">
    <ele>38.6</ele>
    <time>2020-06-14T06:18:26Z</time>
   </trkpt>
   <trkpt lat="51.1334630" lon="5.6512760">
    <ele>38.6</ele>
    <time>2020-06-14T06:18:27Z</time>
   </trkpt>
   <trkpt lat="51.1335240" lon="5.6512150">
    <ele>38.6</ele>
    <time>2020-06-14T06:18:28Z</time>
   </trkpt>
   <trkpt lat="51.1335820" lon="5.6511520">
    <ele>38.6</ele>
    <time>2020-06-14T06:18:29Z</time>
   </trkpt>
   <trkpt lat="51.1336390" lon="5.6510970">
    <ele>38.6</ele>
    <time>2020-06-14T06:18:30Z</time>
   </trkpt>
   <trkpt lat="51.1336980" lon="5.6510400">
    <ele>38.6</ele>
    <time>2020-06-14T06:18:31Z</time>
   </trkpt>
   <trkpt lat="51.1337570" lon="5.6509810">
    <ele>38.5</ele>
    <time>2020-06-14T06:18:32Z</time>
   </trkpt>
   <trkpt lat="51.1338160" lon="5.6509180">
    <ele>38.5</ele>
    <time>2020-06-14T06:18:33Z</time>
   </trkpt>
   <trkpt lat="51.1338790" lon="5.6508590">
    <ele>38.4</ele>
    <time>2020-06-14T06:18:34Z</time>
   </trkpt>
   <trkpt lat="51.1339390" lon="5.6507950">
    <ele>38.3</ele>
    <time>2020-06-14T06:18:35Z</time>
   </trkpt>
   <trkpt lat="51.1340000" lon="5.6507350">
    <ele>38.2</ele>
    <time>2020-06-14T06:18:36Z</time>
   </trkpt>
   <trkpt lat="51.1340600" lon="5.6506740">
    <ele>38.1</ele>
    <time>2020-06-14T06:18:37Z</time>
   </trkpt>
   <trkpt lat="51.1341190" lon="5.6506140">
    <ele>38.1</ele>
    <time>2020-06-14T06:18:38Z</time>
   </trkpt>
   <trkpt lat="51.1341800" lon="5.6505550">
    <ele>38.0</ele>
    <time>2020-06-14T06:18:39Z</time>
   </trkpt>
   <trkpt lat="51.1342410" lon="5.6504940">
    <ele>37.9</ele>
    <time>2020-06-14T06:18:40Z</time>
   </trkpt>
   <trkpt lat="51.1343020" lon="5.6504320">
    <ele>37.8</ele>
    <time>2020-06-14T06:18:41Z</time>
   </trkpt>
   <trkpt lat="51.1343640" lon="5.6503710">
    <ele>37.8</ele>
    <time>2020-06-14T06:18:42Z</time>
   </trkpt>
   <trkpt lat="51.1344250" lon="5.6503090">
    <ele>37.7</ele>
    <time>2020-06-14T06:18:43Z</time>
   </trkpt>
   <trkpt lat="51.1344880" lon="5.6502490">
    <ele>37.6</ele>
    <time>2020-06-14T06:18:44Z</time>
   </trkpt>
   <trkpt lat="51.1345520" lon="5.6501980">
    <ele>37.6</ele>
    <time>2020-06-14T06:18:45Z</time>
   </trkpt>
   <trkpt lat="51.1346140" lon="5.6501400">
    <ele>37.6</ele>
    <time>2020-06-14T06:18:46Z</time>
   </trkpt>
   <trkpt lat="51.1346760" lon="5.6500810">
    <ele>37.5</ele>
    <time>2020-06-14T06:18:47Z</time>
   </trkpt>
   <trkpt lat="51.1347400" lon="5.6500280">
    <ele>37.5</ele>
    <time>2020-06-14T06:18:48Z</time>
   </trkpt>
   <trkpt lat="51.1348090" lon="5.6499840">
    <ele>37.4</ele>
    <time>2020-06-14T06:18:49Z</time>
   </trkpt>
   <trkpt lat="51.1348750" lon="5.6499400">
    <ele>37.4</ele>
    <time>2020-06-14T06:18:50Z</time>
   </trkpt>
   <trkpt lat="51.1349420" lon="5.6498920">
    <ele>37.4</ele>
    <time>2020-06-14T06:18:51Z</time>
   </trkpt>
   <trkpt lat="51.1350130" lon="5.6498480">
    <ele>37.4</ele>
    <time>2020-06-14T06:18:52Z</time>
   </trkpt>
   <trkpt lat="51.1350820" lon="5.6498050">
    <ele>37.3</ele>
    <time>2020-06-14T06:18:53Z</time>
   </trkpt>
   <trkpt lat="51.1351470" lon="5.6497580">
    <ele>37.3</ele>
    <time>2020-06-14T06:18:54Z</time>
   </trkpt>
   <trkpt lat="51.1352150" lon="5.6497200">
    <ele>37.2</ele>
    <time>2020-06-14T06:18:55Z</time>
   </trkpt>
   <trkpt lat="51.1352810" lon="5.6496750">
    <ele>37.2</ele>
    <time>2020-06-14T06:18:56Z</time>
   </trkpt>
   <trkpt lat="51.1353430" lon="5.6496200">
    <ele>37.1</ele>
    <time>2020-06-14T06:18:57Z</time>
   </trkpt>
   <trkpt lat="51.1354090" lon="5.6495690">
    <ele>37.1</ele>
    <time>2020-06-14T06:18:58Z</time>
   </trkpt>
   <trkpt lat="51.1354770" lon="5.6495220">
    <ele>37.1</ele>
    <time>2020-06-14T06:18:59Z</time>
   </trkpt>
   <trkpt lat="51.1355440" lon="5.6494720">
    <ele>37.0</ele>
    <time>2020-06-14T06:19:00Z</time>
   </trkpt>
   <trkpt lat="51.1356060" lon="5.6494200">
    <ele>37.0</ele>
    <time>2020-06-14T06:19:01Z</time>
   </trkpt>
   <trkpt lat="51.1356680" lon="5.6493620">
    <ele>36.9</ele>
    <time>2020-06-14T06:19:02Z</time>
   </trkpt>
   <trkpt lat="51.1357320" lon="5.6493190">
    <ele>36.8</ele>
    <time>2020-06-14T06:19:03Z</time>
   </trkpt>
   <trkpt lat="51.1357970" lon="5.6492730">
    <ele>36.8</ele>
    <time>2020-06-14T06:19:04Z</time>
   </trkpt>
   <trkpt lat="51.1358640" lon="5.6492320">
    <ele>36.7</ele>
    <time>2020-06-14T06:19:05Z</time>
   </trkpt>
   <trkpt lat="51.1359340" lon="5.6491910">
    <ele>36.6</ele>
    <time>2020-06-14T06:19:06Z</time>
   </trkpt>
   <trkpt lat="51.1360060" lon="5.6491610">
    <ele>36.5</ele>
    <time>2020-06-14T06:19:07Z</time>
   </trkpt>
   <trkpt lat="51.1360750" lon="5.6491340">
    <ele>36.4</ele>
    <time>2020-06-14T06:19:08Z</time>
   </trkpt>
   <trkpt lat="51.1361440" lon="5.6491180">
    <ele>36.3</ele>
    <time>2020-06-14T06:19:09Z</time>
   </trkpt>
   <trkpt lat="51.1362170" lon="5.6491100">
    <ele>36.2</ele>
    <time>2020-06-14T06:19:10Z</time>
   </trkpt>
   <trkpt lat="51.1362900" lon="5.6490980">
    <ele>36.1</ele>
    <time>2020-06-14T06:19:11Z</time>
   </trkpt>
   <trkpt lat="51.1363600" lon="5.6490740">
    <ele>36.1</ele>
    <time>2020-06-14T06:19:12Z</time>
   </trkpt>
   <trkpt lat="51.1364280" lon="5.6490490">
    <ele>36.1</ele>
    <time>2020-06-14T06:19:13Z</time>
   </trkpt>
   <trkpt lat="51.1364940" lon="5.6490150">
    <ele>36.1</ele>
    <time>2020-06-14T06:19:14Z</time>
   </trkpt>
   <trkpt lat="51.1365610" lon="5.6489810">
    <ele>36.1</ele>
    <time>2020-06-14T06:19:15Z</time>
   </trkpt>
   <trkpt lat="51.1366290" lon="5.6489440">
    <ele>36.2</ele>
    <time>2020-06-14T06:19:16Z</time>
   </trkpt>
   <trkpt lat="51.1367040" lon="5.6489060">
    <ele>36.2</ele>
    <time>2020-06-14T06:19:17Z</time>
   </trkpt>
   <trkpt lat="51.1367730" lon="5.6488580">
    <ele>36.2</ele>
    <time>2020-06-14T06:19:18Z</time>
   </trkpt>
   <trkpt lat="51.1368350" lon="5.6488060">
    <ele>36.3</ele>
    <time>2020-06-14T06:19:19Z</time>
   </trkpt>
   <trkpt lat="51.1368950" lon="5.6487470">
    <ele>36.3</ele>
    <time>2020-06-14T06:19:20Z</time>
   </trkpt>
   <trkpt lat="51.1369550" lon="5.6486920">
    <ele>36.3</ele>
    <time>2020-06-14T06:19:21Z</time>
   </trkpt>
   <trkpt lat="51.1370100" lon="5.6486270">
    <ele>36.3</ele>
    <time>2020-06-14T06:19:22Z</time>
   </trkpt>
   <trkpt lat="51.1370630" lon="5.6485620">
    <ele>36.4</ele>
    <time>2020-06-14T06:19:23Z</time>
   </trkpt>
   <trkpt lat="51.1371180" lon="5.6485060">
    <ele>36.4</ele>
    <time>2020-06-14T06:19:24Z</time>
   </trkpt>
   <trkpt lat="51.1371690" lon="5.6484420">
    <ele>36.4</ele>
    <time>2020-06-14T06:19:25Z</time>
   </trkpt>
   <trkpt lat="51.1372190" lon="5.6483790">
    <ele>36.4</ele>
    <time>2020-06-14T06:19:26Z</time>
   </trkpt>
   <trkpt lat="51.1372700" lon="5.6483150">
    <ele>36.5</ele>
    <time>2020-06-14T06:19:27Z</time>
   </trkpt>
   <trkpt lat="51.1373250" lon="5.6482520">
    <ele>36.5</ele>
    <time>2020-06-14T06:19:28Z</time>
   </trkpt>
   <trkpt lat="51.1373830" lon="5.6481900">
    <ele>36.5</ele>
    <time>2020-06-14T06:19:29Z</time>
   </trkpt>
   <trkpt lat="51.1374400" lon="5.6481280">
    <ele>36.5</ele>
    <time>2020-06-14T06:19:30Z</time>
   </trkpt>
   <trkpt lat="51.1374980" lon="5.6480670">
    <ele>36.6</ele>
    <time>2020-06-14T06:19:31Z</time>
   </trkpt>
   <trkpt lat="51.1375540" lon="5.6480000">
    <ele>36.6</ele>
    <time>2020-06-14T06:19:32Z</time>
   </trkpt>
   <trkpt lat="51.1376100" lon="5.6479330">
    <ele>36.7</ele>
    <time>2020-06-14T06:19:33Z</time>
   </trkpt>
   <trkpt lat="51.1376640" lon="5.6478630">
    <ele>36.8</ele>
    <time>2020-06-14T06:19:34Z</time>
   </trkpt>
   <trkpt lat="51.1377170" lon="5.6478010">
    <ele>36.8</ele>
    <time>2020-06-14T06:19:35Z</time>
   </trkpt>
   <trkpt lat="51.1377700" lon="5.6477420">
    <ele>36.8</ele>
    <time>2020-06-14T06:19:36Z</time>
   </trkpt>
   <trkpt lat="51.1378210" lon="5.6476850">
    <ele>36.8</ele>
    <time>2020-06-14T06:19:37Z</time>
   </trkpt>
   <trkpt lat="51.1378710" lon="5.6476240">
    <ele>36.8</ele>
    <time>2020-06-14T06:19:38Z</time>
   </trkpt>
   <trkpt lat="51.1379200" lon="5.6475570">
    <ele>36.8</ele>
    <time>2020-06-14T06:19:39Z</time>
   </trkpt>
   <trkpt lat="51.1379720" lon="5.6474860">
    <ele>36.8</ele>
    <time>2020-06-14T06:19:40Z</time>
   </trkpt>
   <trkpt lat="51.1380210" lon="5.6474090">
    <ele>36.8</ele>
    <time>2020-06-14T06:19:41Z</time>
   </trkpt>
   <trkpt lat="51.1380700" lon="5.6473320">
    <ele>36.8</ele>
    <time>2020-06-14T06:19:42Z</time>
   </trkpt>
   <trkpt lat="51.1381170" lon="5.6472540">
    <ele>36.7</ele>
    <time>2020-06-14T06:19:43Z</time>
   </trkpt>
   <trkpt lat="51.1381640" lon="5.6471730">
    <ele>36.7</ele>
    <time>2020-06-14T06:19:44Z</time>
   </trkpt>
   <trkpt lat="51.1382140" lon="5.6470940">
    <ele>36.7</ele>
    <time>2020-06-14T06:19:45Z</time>
   </trkpt>
   <trkpt lat="51.1382620" lon="5.6470110">
    <ele>36.7</ele>
    <time>2020-06-14T06:19:46Z</time>
   </trkpt>
   <trkpt lat="51.1383100" lon="5.6469300">
    <ele>36.6</ele>
    <time>2020-06-14T06:19:47Z</time>
   </trkpt>
   <trkpt lat="51.1383600" lon="5.6468490">
    <ele>36.6</ele>
    <time>2020-06-14T06:19:48Z</time>
   </trkpt>
   <trkpt lat="51.1384060" lon="5.6467630">
    <ele>36.5</ele>
    <time>2020-06-14T06:19:49Z</time>
   </trkpt>
   <trkpt lat="51.1384520" lon="5.6466790">
    <ele>36.5</ele>
    <time>2020-06-14T06:19:50Z</time>
   </trkpt>
   <trkpt lat="51.1384940" lon="5.6465910">
    <ele>36.5</ele>
    <time>2020-06-14T06:19:51Z</time>
   </trkpt>
   <trkpt lat="51.1385280" lon="5.6464990">
    <ele>36.5</ele>
    <time>2020-06-14T06:19:52Z</time>
   </trkpt>
   <trkpt lat="51.1385610" lon="5.6464150">
    <ele>36.5</ele>
    <time>2020-06-14T06:19:53Z</time>
   </trkpt>
   <trkpt lat="51.1385900" lon="5.6463330">
    <ele>36.5</ele>
    <time>2020-06-14T06:19:54Z</time>
   </trkpt>
   <trkpt lat="51.1386090" lon="5.6462460">
    <ele>36.6</ele>
    <time>2020-06-14T06:19:55Z</time>
   </trkpt>
   <trkpt lat="51.1386320" lon="5.6461630">
    <ele>36.6</ele>
    <time>2020-06-14T06:19:56Z</time>
   </trkpt>
   <trkpt lat="51.1386510" lon="5.6460820">
    <ele>36.6</ele>
    <time>2020-06-14T06:19:57Z</time>
   </trkpt>
   <trkpt lat="51.1386690" lon="5.6459930">
    <ele>36.6</ele>
    <time>2020-06-14T06:19:58Z</time>
   </trkpt>
   <trkpt lat="51.1386780" lon="5.6458960">
    <ele>36.6</ele>
    <time>2020-06-14T06:19:59Z</time>
   </trkpt>
   <trkpt lat="51.1386760" lon="5.6457900">
    <ele>36.7</ele>
    <time>2020-06-14T06:20:00Z</time>
   </trkpt>
   <trkpt lat="51.1386710" lon="5.6456840">
    <ele>36.7</ele>
    <time>2020-06-14T06:20:01Z</time>
   </trkpt>
   <trkpt lat="51.1386690" lon="5.6455850">
    <ele>36.7</ele>
    <time>2020-06-14T06:20:02Z</time>
   </trkpt>
   <trkpt lat="51.1386670" lon="5.6454880">
    <ele>36.7</ele>
    <time>2020-06-14T06:20:03Z</time>
   </trkpt>
   <trkpt lat="51.1386720" lon="5.6453830">
    <ele>36.7</ele>
    <time>2020-06-14T06:20:04Z</time>
   </trkpt>
   <trkpt lat="51.1386750" lon="5.6452740">
    <ele>36.8</ele>
    <time>2020-06-14T06:20:05Z</time>
   </trkpt>
   <trkpt lat="51.1386780" lon="5.6451710">
    <ele>36.8</ele>
    <time>2020-06-14T06:20:06Z</time>
   </trkpt>
   <trkpt lat="51.1386830" lon="5.6450770">
    <ele>36.9</ele>
    <time>2020-06-14T06:20:07Z</time>
   </trkpt>
   <trkpt lat="51.1386990" lon="5.6449860">
    <ele>36.9</ele>
    <time>2020-06-14T06:20:08Z</time>
   </trkpt>
   <trkpt lat="51.1387320" lon="5.6449070">
    <ele>37.0</ele>
    <time>2020-06-14T06:20:09Z</time>
   </trkpt>
   <trkpt lat="51.1387650" lon="5.6448330">
    <ele>37.0</ele>
    <time>2020-06-14T06:20:10Z</time>
   </trkpt>
   <trkpt lat="51.1388050" lon="5.6447710">
    <ele>36.9</ele>
    <time>2020-06-14T06:20:11Z</time>
   </trkpt>
   <trkpt lat="51.1388560" lon="5.6447320">
    <ele>36.9</ele>
    <time>2020-06-14T06:20:12Z</time>
   </trkpt>
   <trkpt lat="51.1389060" lon="5.6446720">
    <ele>36.8</ele>
    <time>2020-06-14T06:20:13Z</time>
   </trkpt>
   <trkpt lat="51.1389580" lon="5.6446100">
    <ele>36.7</ele>
    <time>2020-06-14T06:20:14Z</time>
   </trkpt>
   <trkpt lat="51.1390160" lon="5.6445570">
    <ele>36.7</ele>
    <time>2020-06-14T06:20:15Z</time>
   </trkpt>
   <trkpt lat="51.1390700" lon="5.6444920">
    <ele>36.6</ele>
    <time>2020-06-14T06:20:16Z</time>
   </trkpt>
   <trkpt lat="51.1391300" lon="5.6444290">
    <ele>36.6</ele>
    <time>2020-06-14T06:20:17Z</time>
   </trkpt>
   <trkpt lat="51.1392200" lon="5.6444520">
    <ele>36.6</ele>
    <time>2020-06-14T06:20:18Z</time>
   </trkpt>
   <trkpt lat="51.1392860" lon="5.6444160">
    <ele>36.6</ele>
    <time>2020-06-14T06:20:19Z</time>
   </trkpt>
   <trkpt lat="51.1393440" lon="5.6443810">
    <ele>36.6</ele>
    <time>2020-06-14T06:20:20Z</time>
   </trkpt>
   <trkpt lat="51.1393970" lon="5.6443470">
    <ele>36.7</ele>
    <time>2020-06-14T06:20:21Z</time>
   </trkpt>
   <trkpt lat="51.1394480" lon="5.6443100">
    <ele>36.7</ele>
    <time>2020-06-14T06:20:22Z</time>
   </trkpt>
   <trkpt lat="51.1394980" lon="5.6442750">
    <ele>36.9</ele>
    <time>2020-06-14T06:20:23Z</time>
   </trkpt>
   <trkpt lat="51.1395430" lon="5.6442360">
    <ele>37.0</ele>
    <time>2020-06-14T06:20:24Z</time>
   </trkpt>
   <trkpt lat="51.1395890" lon="5.6441820">
    <ele>37.1</ele>
    <time>2020-06-14T06:20:25Z</time>
   </trkpt>
   <trkpt lat="51.1396180" lon="5.6441070">
    <ele>37.2</ele>
    <time>2020-06-14T06:20:26Z</time>
   </trkpt>
   <trkpt lat="51.1396110" lon="5.6440220">
    <ele>37.0</ele>
    <time>2020-06-14T06:20:27Z</time>
   </trkpt>
   <trkpt lat="51.1395820" lon="5.6439400">
    <ele>36.9</ele>
    <time>2020-06-14T06:20:28Z</time>
   </trkpt>
   <trkpt lat="51.1395500" lon="5.6438550">
    <ele>36.8</ele>
    <time>2020-06-14T06:20:29Z</time>
   </trkpt>
   <trkpt lat="51.1395180" lon="5.6437690">
    <ele>36.8</ele>
    <time>2020-06-14T06:20:30Z</time>
   </trkpt>
   <trkpt lat="51.1394870" lon="5.6436760">
    <ele>36.7</ele>
    <time>2020-06-14T06:20:31Z</time>
   </trkpt>
   <trkpt lat="51.1394640" lon="5.6435720">
    <ele>36.6</ele>
    <time>2020-06-14T06:20:32Z</time>
   </trkpt>
   <trkpt lat="51.1394500" lon="5.6434620">
    <ele>36.6</ele>
    <time>2020-06-14T06:20:33Z</time>
   </trkpt>
   <trkpt lat="51.1394460" lon="5.6433460">
    <ele>36.6</ele>
    <time>2020-06-14T06:20:34Z</time>
   </trkpt>
   <trkpt lat="51.1393970" lon="5.6432240">
    <ele>36.6</ele>
    <time>2020-06-14T06:20:35Z</time>
   </trkpt>
   <trkpt lat="51.1393870" lon="5.6430980">
    <ele>36.6</ele>
    <time>2020-06-14T06:20:36Z</time>
   </trkpt>
   <trkpt lat="51.1393830" lon="5.6429760">
    <ele>36.6</ele>
    <time>2020-06-14T06:20:37Z</time>
   </trkpt>
   <trkpt lat="51.1393810" lon="5.6428560">
    <ele>36.6</ele>
    <time>2020-06-14T06:20:38Z</time>
   </trkpt>
   <trkpt lat="51.1393820" lon="5.6427360">
    <ele>36.6</ele>
    <time>2020-06-14T06:20:39Z</time>
   </trkpt>
   <trkpt lat="51.1393850" lon="5.6426210">
    <ele>36.7</ele>
    <time>2020-06-14T06:20:40Z</time>
   </trkpt>
   <trkpt lat="51.1393870" lon="5.6425130">
    <ele>36.8</ele>
    <time>2020-06-14T06:20:41Z</time>
   </trkpt>
   <trkpt lat="51.1393850" lon="5.6424160">
    <ele>36.9</ele>
    <time>2020-06-14T06:20:42Z</time>
   </trkpt>
   <trkpt lat="51.1393800" lon="5.6423280">
    <ele>36.9</ele>
    <time>2020-06-14T06:20:43Z</time>
   </trkpt>
   <trkpt lat="51.1393790" lon="5.6422390">
    <ele>37.0</ele>
    <time>2020-06-14T06:20:44Z</time>
   </trkpt>
   <trkpt lat="51.1393790" lon="5.6421510">
    <ele>37.2</ele>
    <time>2020-06-14T06:20:45Z</time>
   </trkpt>
   <trkpt lat="51.1393800" lon="5.6420650">
    <ele>37.3</ele>
    <time>2020-06-14T06:20:46Z</time>
   </trkpt>
   <trkpt lat="51.1393800" lon="5.6419850">
    <ele>37.4</ele>
    <time>2020-06-14T06:20:47Z</time>
   </trkpt>
   <trkpt lat="51.1393830" lon="5.6419090">
    <ele>37.5</ele>
    <time>2020-06-14T06:20:48Z</time>
   </trkpt>
   <trkpt lat="51.1393970" lon="5.6418350">
    <ele>37.6</ele>
    <time>2020-06-14T06:20:49Z</time>
   </trkpt>
   <trkpt lat="51.1394250" lon="5.6417720">
    <ele>37.6</ele>
    <time>2020-06-14T06:20:50Z</time>
   </trkpt>
   <trkpt lat="51.1394730" lon="5.6417360">
    <ele>37.5</ele>
    <time>2020-06-14T06:20:51Z</time>
   </trkpt>
   <trkpt lat="51.1395320" lon="5.6417310">
    <ele>37.4</ele>
    <time>2020-06-14T06:20:52Z</time>
   </trkpt>
   <trkpt lat="51.1395960" lon="5.6417200">
    <ele>37.3</ele>
    <time>2020-06-14T06:20:53Z</time>
   </trkpt>
   <trkpt lat="51.1396650" lon="5.6416930">
    <ele>37.3</ele>
    <time>2020-06-14T06:20:54Z</time>
   </trkpt>
   <trkpt lat="51.1397380" lon="5.6416810">
    <ele>37.2</ele>
    <time>2020-06-14T06:20:55Z</time>
   </trkpt>
   <trkpt lat="51.1398150" lon="5.6416720">
    <ele>37.2</ele>
    <time>2020-06-14T06:20:56Z</time>
   </trkpt>
   <trkpt lat="51.1398880" lon="5.6416410">
    <ele>37.2</ele>
    <time>2020-06-14T06:20:57Z</time>
   </trkpt>
   <trkpt lat="51.1399620" lon="5.6416340">
    <ele>37.2</ele>
    <time>2020-06-14T06:20:58Z</time>
   </trkpt>
   <trkpt lat="51.1400370" lon="5.6416290">
    <ele>37.2</ele>
    <time>2020-06-14T06:20:59Z</time>
   </trkpt>
   <trkpt lat="51.1401130" lon="5.6416240">
    <ele>37.1</ele>
    <time>2020-06-14T06:21:00Z</time>
   </trkpt>
   <trkpt lat="51.1401910" lon="5.6416120">
    <ele>37.1</ele>
    <time>2020-06-14T06:21:01Z</time>
   </trkpt>
   <trkpt lat="51.1402690" lon="5.6416040">
    <ele>37.1</ele>
    <time>2020-06-14T06:21:02Z</time>
   </trkpt>
   <trkpt lat="51.1403460" lon="5.6415980">
    <ele>37.0</ele>
    <time>2020-06-14T06:21:03Z</time>
   </trkpt>
   <trkpt lat="51.1404250" lon="5.6415850">
    <ele>37.0</ele>
    <time>2020-06-14T06:21:04Z</time>
   </trkpt>
   <trkpt lat="51.1405030" lon="5.6415660">
    <ele>37.0</ele>
    <time>2020-06-14T06:21:05Z</time>
   </trkpt>
   <trkpt lat="51.1405800" lon="5.6415540">
    <ele>37.0</ele>
    <time>2020-06-14T06:21:06Z</time>
   </trkpt>
   <trkpt lat="51.1406550" lon="5.6415310">
    <ele>37.0</ele>
    <time>2020-06-14T06:21:07Z</time>
   </trkpt>
   <trkpt lat="51.1407290" lon="5.6415140">
    <ele>37.0</ele>
    <time>2020-06-14T06:21:08Z</time>
   </trkpt>
   <trkpt lat="51.1408020" lon="5.6414870">
    <ele>37.0</ele>
    <time>2020-06-14T06:21:09Z</time>
   </trkpt>
   <trkpt lat="51.1408720" lon="5.6414680">
    <ele>37.1</ele>
    <time>2020-06-14T06:21:10Z</time>
   </trkpt>
   <trkpt lat="51.1409420" lon="5.6414490">
    <ele>37.1</ele>
    <time>2020-06-14T06:21:11Z</time>
   </trkpt>
   <trkpt lat="51.1410110" lon="5.6414300">
    <ele>37.1</ele>
    <time>2020-06-14T06:21:12Z</time>
   </trkpt>
   <trkpt lat="51.1410800" lon="5.6414100">
    <ele>37.1</ele>
    <time>2020-06-14T06:21:13Z</time>
   </trkpt>
   <trkpt lat="51.1411480" lon="5.6414040">
    <ele>37.1</ele>
    <time>2020-06-14T06:21:14Z</time>
   </trkpt>
   <trkpt lat="51.1412140" lon="5.6413890">
    <ele>37.1</ele>
    <time>2020-06-14T06:21:15Z</time>
   </trkpt>
   <trkpt lat="51.1412820" lon="5.6413670">
    <ele>37.1</ele>
    <time>2020-06-14T06:21:16Z</time>
   </trkpt>
   <trkpt lat="51.1413500" lon="5.6413450">
    <ele>37.1</ele>
    <time>2020-06-14T06:21:17Z</time>
   </trkpt>
   <trkpt lat="51.1414180" lon="5.6413250">
    <ele>37.2</ele>
    <time>2020-06-14T06:21:18Z</time>
   </trkpt>
   <trkpt lat="51.1414840" lon="5.6413080">
    <ele>37.2</ele>
    <time>2020-06-14T06:21:19Z</time>
   </trkpt>
   <trkpt lat="51.1415500" lon="5.6412930">
    <ele>37.2</ele>
    <time>2020-06-14T06:21:20Z</time>
   </trkpt>
   <trkpt lat="51.1416160" lon="5.6412720">
    <ele>37.3</ele>
    <time>2020-06-14T06:21:21Z</time>
   </trkpt>
   <trkpt lat="51.1416820" lon="5.6412570">
    <ele>37.3</ele>
    <time>2020-06-14T06:21:22Z</time>
   </trkpt>
   <trkpt lat="51.1417500" lon="5.6412360">
    <ele>37.4</ele>
    <time>2020-06-14T06:21:23Z</time>
   </trkpt>
   <trkpt lat="51.1418190" lon="5.6412150">
    <ele>37.5</ele>
    <time>2020-06-14T06:21:24Z</time>
   </trkpt>
   <trkpt lat="51.1418910" lon="5.6411930">
    <ele>37.5</ele>
    <time>2020-06-14T06:21:25Z</time>
   </trkpt>
   <trkpt lat="51.1419610" lon="5.6411700">
    <ele>37.6</ele>
    <time>2020-06-14T06:21:26Z</time>
   </trkpt>
   <trkpt lat="51.1420270" lon="5.6411320">
    <ele>37.6</ele>
    <time>2020-06-14T06:21:27Z</time>
   </trkpt>
   <trkpt lat="51.1420920" lon="5.6410940">
    <ele>37.7</ele>
    <time>2020-06-14T06:21:28Z</time>
   </trkpt>
   <trkpt lat="51.1421550" lon="5.6410510">
    <ele>37.8</ele>
    <time>2020-06-14T06:21:29Z</time>
   </trkpt>
   <trkpt lat="51.1422150" lon="5.6410070">
    <ele>37.8</ele>
    <time>2020-06-14T06:21:30Z</time>
   </trkpt>
   <trkpt lat="51.1422720" lon="5.6409600">
    <ele>37.9</ele>
    <time>2020-06-14T06:21:31Z</time>
   </trkpt>
   <trkpt lat="51.1423250" lon="5.6409140">
    <ele>37.9</ele>
    <time>2020-06-14T06:21:32Z</time>
   </trkpt>
   <trkpt lat="51.1423750" lon="5.6408650">
    <ele>38.0</ele>
    <time>2020-06-14T06:21:33Z</time>
   </trkpt>
   <trkpt lat="51.1424230" lon="5.6408100">
    <ele>38.1</ele>
    <time>2020-06-14T06:21:34Z</time>
   </trkpt>
   <trkpt lat="51.1424700" lon="5.6407640">
    <ele>38.2</ele>
    <time>2020-06-14T06:21:35Z</time>
   </trkpt>
   <trkpt lat="51.1425150" lon="5.6407180">
    <ele>38.3</ele>
    <time>2020-06-14T06:21:36Z</time>
   </trkpt>
   <trkpt lat="51.1425570" lon="5.6406720">
    <ele>38.4</ele>
    <time>2020-06-14T06:21:37Z</time>
   </trkpt>
   <trkpt lat="51.1425930" lon="5.6406170">
    <ele>38.5</ele>
    <time>2020-06-14T06:21:38Z</time>
   </trkpt>
   <trkpt lat="51.1426290" lon="5.6405740">
    <ele>38.7</ele>
    <time>2020-06-14T06:21:39Z</time>
   </trkpt>
   <trkpt lat="51.1426690" lon="5.6405390">
    <ele>38.8</ele>
    <time>2020-06-14T06:21:40Z</time>
   </trkpt>
   <trkpt lat="51.1427040" lon="5.6405000">
    <ele>39.0</ele>
    <time>2020-06-14T06:21:41Z</time>
   </trkpt>
   <trkpt lat="51.1427370" lon="5.6404610">
    <ele>39.2</ele>
    <time>2020-06-14T06:21:42Z</time>
   </trkpt>
   <trkpt lat="51.1427740" lon="5.6404290">
    <ele>39.3</ele>
    <time>2020-06-14T06:21:43Z</time>
   </trkpt>
   <trkpt lat="51.1428080" lon="5.6403950">
    <ele>39.4</ele>
    <time>2020-06-14T06:21:44Z</time>
   </trkpt>
   <trkpt lat="51.1428470" lon="5.6403590">
    <ele>39.4</ele>
    <time>2020-06-14T06:21:45Z</time>
   </trkpt>
   <trkpt lat="51.1428890" lon="5.6403200">
    <ele>39.4</ele>
    <time>2020-06-14T06:21:46Z</time>
   </trkpt>
   <trkpt lat="51.1429320" lon="5.6402790">
    <ele>39.4</ele>
    <time>2020-06-14T06:21:47Z</time>
   </trkpt>
   <trkpt lat="51.1429760" lon="5.6402190">
    <ele>39.5</ele>
    <time>2020-06-14T06:21:48Z</time>
   </trkpt>
   <trkpt lat="51.1430290" lon="5.6401590">
    <ele>39.3</ele>
    <time>2020-06-14T06:21:49Z</time>
   </trkpt>
   <trkpt lat="51.1430890" lon="5.6400950">
    <ele>39.1</ele>
    <time>2020-06-14T06:21:50Z</time>
   </trkpt>
   <trkpt lat="51.1431530" lon="5.6400260">
    <ele>38.9</ele>
    <time>2020-06-14T06:21:51Z</time>
   </trkpt>
   <trkpt lat="51.1432170" lon="5.6399530">
    <ele>38.6</ele>
    <time>2020-06-14T06:21:52Z</time>
   </trkpt>
   <trkpt lat="51.1432810" lon="5.6398830">
    <ele>38.5</ele>
    <time>2020-06-14T06:21:53Z</time>
   </trkpt>
   <trkpt lat="51.1433500" lon="5.6398190">
    <ele>38.4</ele>
    <time>2020-06-14T06:21:54Z</time>
   </trkpt>
   <trkpt lat="51.1434170" lon="5.6397560">
    <ele>38.3</ele>
    <time>2020-06-14T06:21:55Z</time>
   </trkpt>
   <trkpt lat="51.1434820" lon="5.6396880">
    <ele>38.3</ele>
    <time>2020-06-14T06:21:56Z</time>
   </trkpt>
   <trkpt lat="51.1435500" lon="5.6396270">
    <ele>38.2</ele>
    <time>2020-06-14T06:21:57Z</time>
   </trkpt>
   <trkpt lat="51.1436140" lon="5.6395630">
    <ele>38.1</ele>
    <time>2020-06-14T06:21:58Z</time>
   </trkpt>
   <trkpt lat="51.1436810" lon="5.6395070">
    <ele>38.1</ele>
    <time>2020-06-14T06:21:59Z</time>
   </trkpt>
   <trkpt lat="51.1437480" lon="5.6394470">
    <ele>38.0</ele>
    <time>2020-06-14T06:22:00Z</time>
   </trkpt>
   <trkpt lat="51.1438150" lon="5.6393860">
    <ele>38.0</ele>
    <time>2020-06-14T06:22:01Z</time>
   </trkpt>
   <trkpt lat="51.1438850" lon="5.6393240">
    <ele>37.8</ele>
    <time>2020-06-14T06:22:02Z</time>
   </trkpt>
   <trkpt lat="51.1439550" lon="5.6392630">
    <ele>37.6</ele>
    <time>2020-06-14T06:22:03Z</time>
   </trkpt>
   <trkpt lat="51.1440220" lon="5.6391920">
    <ele>37.4</ele>
    <time>2020-06-14T06:22:04Z</time>
   </trkpt>
   <trkpt lat="51.1440880" lon="5.6391230">
    <ele>37.3</ele>
    <time>2020-06-14T06:22:05Z</time>
   </trkpt>
   <trkpt lat="51.1441570" lon="5.6390580">
    <ele>37.3</ele>
    <time>2020-06-14T06:22:06Z</time>
   </trkpt>
   <trkpt lat="51.1442240" lon="5.6389840">
    <ele>37.2</ele>
    <time>2020-06-14T06:22:07Z</time>
   </trkpt>
   <trkpt lat="51.1442880" lon="5.6389150">
    <ele>37.1</ele>
    <time>2020-06-14T06:22:08Z</time>
   </trkpt>
   <trkpt lat="51.1443520" lon="5.6388440">
    <ele>37.0</ele>
    <time>2020-06-14T06:22:09Z</time>
   </trkpt>
   <trkpt lat="51.1444180" lon="5.6387740">
    <ele>37.0</ele>
    <time>2020-06-14T06:22:10Z</time>
   </trkpt>
   <trkpt lat="51.1444820" lon="5.6387070">
    <ele>36.9</ele>
    <time>2020-06-14T06:22:11Z</time>
   </trkpt>
   <trkpt lat="51.1445440" lon="5.6386430">
    <ele>36.9</ele>
    <time>2020-06-14T06:22:12Z</time>
   </trkpt>
   <trkpt lat="51.1446110" lon="5.6385820">
    <ele>36.8</ele>
    <time>2020-06-14T06:22:13Z</time>
   </trkpt>
   <trkpt lat="51.1446760" lon="5.6385160">
    <ele>36.8</ele>
    <time>2020-06-14T06:22:14Z</time>
   </trkpt>
   <trkpt lat="51.1447400" lon="5.6384500">
    <ele>36.7</ele>
    <time>2020-06-14T06:22:15Z</time>
   </trkpt>
   <trkpt lat="51.1447980" lon="5.6383900">
    <ele>36.7</ele>
    <time>2020-06-14T06:22:16Z</time>
   </trkpt>
   <trkpt lat="51.1448510" lon="5.6383330">
    <ele>36.6</ele>
    <time>2020-06-14T06:22:17Z</time>
   </trkpt>
   <trkpt lat="51.1448970" lon="5.6382760">
    <ele>36.5</ele>
    <time>2020-06-14T06:22:18Z</time>
   </trkpt>
   <trkpt lat="51.1449390" lon="5.6382160">
    <ele>36.5</ele>
    <time>2020-06-14T06:22:19Z</time>
   </trkpt>
   <trkpt lat="51.1449850" lon="5.6381740">
    <ele>36.5</ele>
    <time>2020-06-14T06:22:20Z</time>
   </trkpt>
   <trkpt lat="51.1450330" lon="5.6381340">
    <ele>36.4</ele>
    <time>2020-06-14T06:22:21Z</time>
   </trkpt>
   <trkpt lat="51.1450840" lon="5.6380990">
    <ele>36.4</ele>
    <time>2020-06-14T06:22:22Z</time>
   </trkpt>
   <trkpt lat="51.1451350" lon="5.6380610">
    <ele>36.4</ele>
    <time>2020-06-14T06:22:23Z</time>
   </trkpt>
   <trkpt lat="51.1451890" lon="5.6380140">
    <ele>36.4</ele>
    <time>2020-06-14T06:22:24Z</time>
   </trkpt>
   <trkpt lat="51.1452470" lon="5.6379690">
    <ele>36.4</ele>
    <time>2020-06-14T06:22:25Z</time>
   </trkpt>
   <trkpt lat="51.1453060" lon="5.6379220">
    <ele>36.5</ele>
    <time>2020-06-14T06:22:26Z</time>
   </trkpt>
   <trkpt lat="51.1453700" lon="5.6378710">
    <ele>36.5</ele>
    <time>2020-06-14T06:22:27Z</time>
   </trkpt>
   <trkpt lat="51.1454350" lon="5.6378170">
    <ele>36.5</ele>
    <time>2020-06-14T06:22:28Z</time>
   </trkpt>
   <trkpt lat="51.1455020" lon="5.6377610">
    <ele>36.4</ele>
    <time>2020-06-14T06:22:29Z</time>
   </trkpt>
   <trkpt lat="51.1455690" lon="5.6377040">
    <ele>36.4</ele>
    <time>2020-06-14T06:22:30Z</time>
   </trkpt>
   <trkpt lat="51.1456370" lon="5.6376480">
    <ele>36.5</ele>
    <time>2020-06-14T06:22:31Z</time>
   </trkpt>
   <trkpt lat="51.1457090" lon="5.6375840">
    <ele>36.5</ele>
    <time>2020-06-14T06:22:32Z</time>
   </trkpt>
   <trkpt lat="51.1457830" lon="5.6375220">
    <ele>36.6</ele>
    <time>2020-06-14T06:22:33Z</time>
   </trkpt>
   <trkpt lat="51.1458540" lon="5.6374560">
    <ele>36.6</ele>
    <time>2020-06-14T06:22:34Z</time>
   </trkpt>
   <trkpt lat="51.1459270" lon="5.6373870">
    <ele>36.7</ele>
    <time>2020-06-14T06:22:35Z</time>
   </trkpt>
   <trkpt lat="51.1459950" lon="5.6373160">
    <ele>36.7</ele>
    <time>2020-06-14T06:22:36Z</time>
   </trkpt>
   <trkpt lat="51.1460610" lon="5.6372360">
    <ele>36.8</ele>
    <time>2020-06-14T06:22:37Z</time>
   </trkpt>
   <trkpt lat="51.1461270" lon="5.6371640">
    <ele>36.8</ele>
    <time>2020-06-14T06:22:38Z</time>
   </trkpt>
   <trkpt lat="51.1461840" lon="5.6370870">
    <ele>36.8</ele>
    <time>2020-06-14T06:22:39Z</time>
   </trkpt>
   <trkpt lat="51.1462320" lon="5.6369880">
    <ele>36.9</ele>
    <time>2020-06-14T06:22:40Z</time>
   </trkpt>
   <trkpt lat="51.1462770" lon="5.6368880">
    <ele>36.9</ele>
    <time>2020-06-14T06:22:41Z</time>
   </trkpt>
   <trkpt lat="51.1463160" lon="5.6367840">
    <ele>36.9</ele>
    <time>2020-06-14T06:22:42Z</time>
   </trkpt>
   <trkpt lat="51.1463480" lon="5.6366750">
    <ele>37.0</ele>
    <time>2020-06-14T06:22:43Z</time>
   </trkpt>
   <trkpt lat="51.1463760" lon="5.6365630">
    <ele>37.0</ele>
    <time>2020-06-14T06:22:44Z</time>
   </trkpt>
   <trkpt lat="51.1463910" lon="5.6364500">
    <ele>37.1</ele>
    <time>2020-06-14T06:22:45Z</time>
   </trkpt>
   <trkpt lat="51.1464010" lon="5.6363390">
    <ele>37.1</ele>
    <time>2020-06-14T06:22:46Z</time>
   </trkpt>
   <trkpt lat="51.1464030" lon="5.6362240">
    <ele>37.2</ele>
    <time>2020-06-14T06:22:47Z</time>
   </trkpt>
   <trkpt lat="51.1463940" lon="5.6361080">
    <ele>37.2</ele>
    <time>2020-06-14T06:22:48Z</time>
   </trkpt>
   <trkpt lat="51.1463910" lon="5.6359920">
    <ele>37.2</ele>
    <time>2020-06-14T06:22:49Z</time>
   </trkpt>
   <trkpt lat="51.1463850" lon="5.6358770">
    <ele>37.3</ele>
    <time>2020-06-14T06:22:50Z</time>
   </trkpt>
   <trkpt lat="51.1463770" lon="5.6357660">
    <ele>37.3</ele>
    <time>2020-06-14T06:22:51Z</time>
   </trkpt>
   <trkpt lat="51.1463820" lon="5.6356580">
    <ele>37.4</ele>
    <time>2020-06-14T06:22:52Z</time>
   </trkpt>
   <trkpt lat="51.1463760" lon="5.6355550">
    <ele>37.4</ele>
    <time>2020-06-14T06:22:53Z</time>
   </trkpt>
   <trkpt lat="51.1463740" lon="5.6354450">
    <ele>37.5</ele>
    <time>2020-06-14T06:22:54Z</time>
   </trkpt>
   <trkpt lat="51.1463790" lon="5.6353280">
    <ele>37.5</ele>
    <time>2020-06-14T06:22:55Z</time>
   </trkpt>
   <trkpt lat="51.1463810" lon="5.6352120">
    <ele>37.5</ele>
    <time>2020-06-14T06:22:56Z</time>
   </trkpt>
   <trkpt lat="51.1463800" lon="5.6350990">
    <ele>37.6</ele>
    <time>2020-06-14T06:22:57Z</time>
   </trkpt>
   <trkpt lat="51.1463760" lon="5.6349900">
    <ele>37.6</ele>
    <time>2020-06-14T06:22:58Z</time>
   </trkpt>
   <trkpt lat="51.1463760" lon="5.6348830">
    <ele>37.7</ele>
    <time>2020-06-14T06:22:59Z</time>
   </trkpt>
   <trkpt lat="51.1463750" lon="5.6347770">
    <ele>37.7</ele>
    <time>2020-06-14T06:23:00Z</time>
   </trkpt>
   <trkpt lat="51.1463800" lon="5.6346690">
    <ele>37.7</ele>
    <time>2020-06-14T06:23:01Z</time>
   </trkpt>
   <trkpt lat="51.1463870" lon="5.6345630">
    <ele>37.8</ele>
    <time>2020-06-14T06:23:02Z</time>
   </trkpt>
   <trkpt lat="51.1463990" lon="5.6344600">
    <ele>37.8</ele>
    <time>2020-06-14T06:23:03Z</time>
   </trkpt>
   <trkpt lat="51.1464170" lon="5.6343540">
    <ele>37.8</ele>
    <time>2020-06-14T06:23:04Z</time>
   </trkpt>
   <trkpt lat="51.1464410" lon="5.6342450">
    <ele>37.8</ele>
    <time>2020-06-14T06:23:05Z</time>
   </trkpt>
   <trkpt lat="51.1464740" lon="5.6341440">
    <ele>37.8</ele>
    <time>2020-06-14T06:23:06Z</time>
   </trkpt>
   <trkpt lat="51.1465090" lon="5.6340410">
    <ele>37.8</ele>
    <time>2020-06-14T06:23:07Z</time>
   </trkpt>
   <trkpt lat="51.1465450" lon="5.6339390">
    <ele>37.8</ele>
    <time>2020-06-14T06:23:08Z</time>
   </trkpt>
   <trkpt lat="51.1465810" lon="5.6338420">
    <ele>37.9</ele>
    <time>2020-06-14T06:23:09Z</time>
   </trkpt>
   <trkpt lat="51.1466190" lon="5.6337420">
    <ele>37.9</ele>
    <time>2020-06-14T06:23:10Z</time>
   </trkpt>
   <trkpt lat="51.1466570" lon="5.6336400">
    <ele>37.9</ele>
    <time>2020-06-14T06:23:11Z</time>
   </trkpt>
   <trkpt lat="51.1466920" lon="5.6335400">
    <ele>37.9</ele>
    <time>2020-06-14T06:23:12Z</time>
   </trkpt>
   <trkpt lat="51.1467280" lon="5.6334400">
    <ele>37.9</ele>
    <time>2020-06-14T06:23:13Z</time>
   </trkpt>
   <trkpt lat="51.1467690" lon="5.6333460">
    <ele>37.9</ele>
    <time>2020-06-14T06:23:14Z</time>
   </trkpt>
   <trkpt lat="51.1468060" lon="5.6332540">
    <ele>37.9</ele>
    <time>2020-06-14T06:23:15Z</time>
   </trkpt>
   <trkpt lat="51.1468420" lon="5.6331630">
    <ele>37.9</ele>
    <time>2020-06-14T06:23:16Z</time>
   </trkpt>
   <trkpt lat="51.1468800" lon="5.6330750">
    <ele>37.9</ele>
    <time>2020-06-14T06:23:17Z</time>
   </trkpt>
   <trkpt lat="51.1469130" lon="5.6329820">
    <ele>37.9</ele>
    <time>2020-06-14T06:23:18Z</time>
   </trkpt>
   <trkpt lat="51.1469470" lon="5.6328920">
    <ele>37.9</ele>
    <time>2020-06-14T06:23:19Z</time>
   </trkpt>
   <trkpt lat="51.1469810" lon="5.6328040">
    <ele>37.9</ele>
    <time>2020-06-14T06:23:20Z</time>
   </trkpt>
   <trkpt lat="51.1470170" lon="5.6327120">
    <ele>37.9</ele>
    <time>2020-06-14T06:23:21Z</time>
   </trkpt>
   <trkpt lat="51.1470500" lon="5.6326170">
    <ele>37.9</ele>
    <time>2020-06-14T06:23:22Z</time>
   </trkpt>
   <trkpt lat="51.1470810" lon="5.6325230">
    <ele>37.9</ele>
    <time>2020-06-14T06:23:23Z</time>
   </trkpt>
   <trkpt lat="51.1471070" lon="5.6324280">
    <ele>37.9</ele>
    <time>2020-06-14T06:23:24Z</time>
   </trkpt>
   <trkpt lat="51.1471320" lon="5.6323300">
    <ele>37.9</ele>
    <time>2020-06-14T06:23:25Z</time>
   </trkpt>
   <trkpt lat="51.1471650" lon="5.6322340">
    <ele>37.9</ele>
    <time>2020-06-14T06:23:26Z</time>
   </trkpt>
   <trkpt lat="51.1471950" lon="5.6321350">
    <ele>37.9</ele>
    <time>2020-06-14T06:23:27Z</time>
   </trkpt>
   <trkpt lat="51.1472220" lon="5.6320360">
    <ele>37.9</ele>
    <time>2020-06-14T06:23:28Z</time>
   </trkpt>
   <trkpt lat="51.1472440" lon="5.6319370">
    <ele>37.8</ele>
    <time>2020-06-14T06:23:29Z</time>
   </trkpt>
   <trkpt lat="51.1472630" lon="5.6318330">
    <ele>37.8</ele>
    <time>2020-06-14T06:23:30Z</time>
   </trkpt>
   <trkpt lat="51.1472880" lon="5.6317300">
    <ele>37.8</ele>
    <time>2020-06-14T06:23:31Z</time>
   </trkpt>
   <trkpt lat="51.1473130" lon="5.6316250">
    <ele>37.8</ele>
    <time>2020-06-14T06:23:32Z</time>
   </trkpt>
   <trkpt lat="51.1473380" lon="5.6315210">
    <ele>37.8</ele>
    <time>2020-06-14T06:23:33Z</time>
   </trkpt>
   <trkpt lat="51.1473610" lon="5.6314240">
    <ele>37.8</ele>
    <time>2020-06-14T06:23:34Z</time>
   </trkpt>
   <trkpt lat="51.1473760" lon="5.6313260">
    <ele>37.9</ele>
    <time>2020-06-14T06:23:35Z</time>
   </trkpt>
   <trkpt lat="51.1473960" lon="5.6312340">
    <ele>37.9</ele>
    <time>2020-06-14T06:23:36Z</time>
   </trkpt>
   <trkpt lat="51.1474150" lon="5.6311390">
    <ele>37.9</ele>
    <time>2020-06-14T06:23:37Z</time>
   </trkpt>
   <trkpt lat="51.1474340" lon="5.6310570">
    <ele>37.9</ele>
    <time>2020-06-14T06:23:38Z</time>
   </trkpt>
   <trkpt lat="51.1474600" lon="5.6309750">
    <ele>38.0</ele>
    <time>2020-06-14T06:23:39Z</time>
   </trkpt>
   <trkpt lat="51.1474930" lon="5.6308980">
    <ele>38.0</ele>
    <time>2020-06-14T06:23:40Z</time>
   </trkpt>
   <trkpt lat="51.1475390" lon="5.6308530">
    <ele>37.9</ele>
    <time>2020-06-14T06:23:41Z</time>
   </trkpt>
   <trkpt lat="51.1475900" lon="5.6308270">
    <ele>37.9</ele>
    <time>2020-06-14T06:23:42Z</time>
   </trkpt>
   <trkpt lat="51.1476520" lon="5.6308190">
    <ele>37.9</ele>
    <time>2020-06-14T06:23:43Z</time>
   </trkpt>
   <trkpt lat="51.1477190" lon="5.6308050">
    <ele>37.9</ele>
    <time>2020-06-14T06:23:44Z</time>
   </trkpt>
   <trkpt lat="51.1477890" lon="5.6307930">
    <ele>37.8</ele>
    <time>2020-06-14T06:23:45Z</time>
   </trkpt>
   <trkpt lat="51.1478610" lon="5.6307810">
    <ele>37.8</ele>
    <time>2020-06-14T06:23:46Z</time>
   </trkpt>
   <trkpt lat="51.1479320" lon="5.6307680">
    <ele>37.8</ele>
    <time>2020-06-14T06:23:47Z</time>
   </trkpt>
   <trkpt lat="51.1480020" lon="5.6307520">
    <ele>37.8</ele>
    <time>2020-06-14T06:23:48Z</time>
   </trkpt>
   <trkpt lat="51.1480770" lon="5.6307320">
    <ele>37.8</ele>
    <time>2020-06-14T06:23:49Z</time>
   </trkpt>
   <trkpt lat="51.1481480" lon="5.6307160">
    <ele>37.8</ele>
    <time>2020-06-14T06:23:50Z</time>
   </trkpt>
   <trkpt lat="51.1482140" lon="5.6306990">
    <ele>37.8</ele>
    <time>2020-06-14T06:23:51Z</time>
   </trkpt>
   <trkpt lat="51.1482800" lon="5.6306790">
    <ele>37.8</ele>
    <time>2020-06-14T06:23:52Z</time>
   </trkpt>
   <trkpt lat="51.1483560" lon="5.6306530">
    <ele>37.8</ele>
    <time>2020-06-14T06:23:53Z</time>
   </trkpt>
   <trkpt lat="51.1484240" lon="5.6306310">
    <ele>37.9</ele>
    <time>2020-06-14T06:23:54Z</time>
   </trkpt>
   <trkpt lat="51.1484900" lon="5.6306100">
    <ele>37.9</ele>
    <time>2020-06-14T06:23:55Z</time>
   </trkpt>
   <trkpt lat="51.1485520" lon="5.6305820">
    <ele>37.9</ele>
    <time>2020-06-14T06:23:56Z</time>
   </trkpt>
   <trkpt lat="51.1486180" lon="5.6305570">
    <ele>38.0</ele>
    <time>2020-06-14T06:23:57Z</time>
   </trkpt>
   <trkpt lat="51.1486830" lon="5.6305300">
    <ele>38.1</ele>
    <time>2020-06-14T06:23:58Z</time>
   </trkpt>
   <trkpt lat="51.1487500" lon="5.6305110">
    <ele>38.1</ele>
    <time>2020-06-14T06:23:59Z</time>
   </trkpt>
   <trkpt lat="51.1488210" lon="5.6304900">
    <ele>38.1</ele>
    <time>2020-06-14T06:24:00Z</time>
   </trkpt>
   <trkpt lat="51.1488940" lon="5.6304630">
    <ele>38.1</ele>
    <time>2020-06-14T06:24:01Z</time>
   </trkpt>
   <trkpt lat="51.1489640" lon="5.6304460">
    <ele>38.1</ele>
    <time>2020-06-14T06:24:02Z</time>
   </trkpt>
   <trkpt lat="51.1490410" lon="5.6304170">
    <ele>38.1</ele>
    <time>2020-06-14T06:24:03Z</time>
   </trkpt>
   <trkpt lat="51.1491150" lon="5.6303900">
    <ele>38.1</ele>
    <time>2020-06-14T06:24:04Z</time>
   </trkpt>
   <trkpt lat="51.1491880" lon="5.6303580">
    <ele>38.1</ele>
    <time>2020-06-14T06:24:05Z</time>
   </trkpt>
   <trkpt lat="51.1492580" lon="5.6303400">
    <ele>38.1</ele>
    <time>2020-06-14T06:24:06Z</time>
   </trkpt>
   <trkpt lat="51.1493240" lon="5.6303180">
    <ele>38.1</ele>
    <time>2020-06-14T06:24:07Z</time>
   </trkpt>
   <trkpt lat="51.1493930" lon="5.6303060">
    <ele>38.1</ele>
    <time>2020-06-14T06:24:08Z</time>
   </trkpt>
   <trkpt lat="51.1494620" lon="5.6302850">
    <ele>38.1</ele>
    <time>2020-06-14T06:24:09Z</time>
   </trkpt>
   <trkpt lat="51.1495320" lon="5.6302620">
    <ele>38.1</ele>
    <time>2020-06-14T06:24:11Z</time>
   </trkpt>
   <trkpt lat="51.1496000" lon="5.6302390">
    <ele>38.0</ele>
    <time>2020-06-14T06:24:12Z</time>
   </trkpt>
   <trkpt lat="51.1496640" lon="5.6302170">
    <ele>38.0</ele>
    <time>2020-06-14T06:24:13Z</time>
   </trkpt>
   <trkpt lat="51.1497260" lon="5.6301970">
    <ele>38.0</ele>
    <time>2020-06-14T06:24:14Z</time>
   </trkpt>
   <trkpt lat="51.1497880" lon="5.6301880">
    <ele>38.0</ele>
    <time>2020-06-14T06:24:15Z</time>
   </trkpt>
   <trkpt lat="51.1498480" lon="5.6301740">
    <ele>38.0</ele>
    <time>2020-06-14T06:24:16Z</time>
   </trkpt>
   <trkpt lat="51.1499030" lon="5.6301650">
    <ele>37.9</ele>
    <time>2020-06-14T06:24:17Z</time>
   </trkpt>
   <trkpt lat="51.1499560" lon="5.6301530">
    <ele>37.9</ele>
    <time>2020-06-14T06:24:18Z</time>
   </trkpt>
   <trkpt lat="51.1500090" lon="5.6301390">
    <ele>37.9</ele>
    <time>2020-06-14T06:24:19Z</time>
   </trkpt>
   <trkpt lat="51.1500630" lon="5.6301240">
    <ele>38.0</ele>
    <time>2020-06-14T06:24:20Z</time>
   </trkpt>
   <trkpt lat="51.1501220" lon="5.6301160">
    <ele>38.0</ele>
    <time>2020-06-14T06:24:21Z</time>
   </trkpt>
   <trkpt lat="51.1501820" lon="5.6301040">
    <ele>38.0</ele>
    <time>2020-06-14T06:24:22Z</time>
   </trkpt>
   <trkpt lat="51.1502460" lon="5.6300970">
    <ele>38.0</ele>
    <time>2020-06-14T06:24:23Z</time>
   </trkpt>
   <trkpt lat="51.1503120" lon="5.6300810">
    <ele>37.9</ele>
    <time>2020-06-14T06:24:24Z</time>
   </trkpt>
   <trkpt lat="51.1503870" lon="5.6300550">
    <ele>37.8</ele>
    <time>2020-06-14T06:24:25Z</time>
   </trkpt>
   <trkpt lat="51.1504660" lon="5.6300330">
    <ele>37.7</ele>
    <time>2020-06-14T06:24:26Z</time>
   </trkpt>
   <trkpt lat="51.1505450" lon="5.6300180">
    <ele>37.7</ele>
    <time>2020-06-14T06:24:27Z</time>
   </trkpt>
   <trkpt lat="51.1506220" lon="5.6300020">
    <ele>37.7</ele>
    <time>2020-06-14T06:24:28Z</time>
   </trkpt>
   <trkpt lat="51.1506990" lon="5.6299830">
    <ele>37.6</ele>
    <time>2020-06-14T06:24:29Z</time>
   </trkpt>
   <trkpt lat="51.1507770" lon="5.6299570">
    <ele>37.6</ele>
    <time>2020-06-14T06:24:30Z</time>
   </trkpt>
   <trkpt lat="51.1508540" lon="5.6299280">
    <ele>37.6</ele>
    <time>2020-06-14T06:24:31Z</time>
   </trkpt>
   <trkpt lat="51.1509320" lon="5.6299000">
    <ele>37.6</ele>
    <time>2020-06-14T06:24:32Z</time>
   </trkpt>
   <trkpt lat="51.1510120" lon="5.6298740">
    <ele>37.5</ele>
    <time>2020-06-14T06:24:33Z</time>
   </trkpt>
   <trkpt lat="51.1510910" lon="5.6298520">
    <ele>37.5</ele>
    <time>2020-06-14T06:24:34Z</time>
   </trkpt>
   <trkpt lat="51.1511690" lon="5.6298290">
    <ele>37.5</ele>
    <time>2020-06-14T06:24:35Z</time>
   </trkpt>
   <trkpt lat="51.1512510" lon="5.6298060">
    <ele>37.5</ele>
    <time>2020-06-14T06:24:36Z</time>
   </trkpt>
   <trkpt lat="51.1513340" lon="5.6297820">
    <ele>37.5</ele>
    <time>2020-06-14T06:24:37Z</time>
   </trkpt>
   <trkpt lat="51.1514160" lon="5.6297570">
    <ele>37.5</ele>
    <time>2020-06-14T06:24:38Z</time>
   </trkpt>
   <trkpt lat="51.1514890" lon="5.6297300">
    <ele>37.5</ele>
    <time>2020-06-14T06:24:39Z</time>
   </trkpt>
   <trkpt lat="51.1515640" lon="5.6297150">
    <ele>37.5</ele>
    <time>2020-06-14T06:24:40Z</time>
   </trkpt>
   <trkpt lat="51.1516410" lon="5.6296980">
    <ele>37.4</ele>
    <time>2020-06-14T06:24:41Z</time>
   </trkpt>
   <trkpt lat="51.1517180" lon="5.6296770">
    <ele>37.4</ele>
    <time>2020-06-14T06:24:42Z</time>
   </trkpt>
   <trkpt lat="51.1517900" lon="5.6296570">
    <ele>37.3</ele>
    <time>2020-06-14T06:24:43Z</time>
   </trkpt>
   <trkpt lat="51.1518590" lon="5.6296390">
    <ele>37.2</ele>
    <time>2020-06-14T06:24:44Z</time>
   </trkpt>
   <trkpt lat="51.1519370" lon="5.6296150">
    <ele>37.2</ele>
    <time>2020-06-14T06:24:45Z</time>
   </trkpt>
   <trkpt lat="51.1520230" lon="5.6295840">
    <ele>37.1</ele>
    <time>2020-06-14T06:24:46Z</time>
   </trkpt>
   <trkpt lat="51.1521090" lon="5.6295580">
    <ele>37.1</ele>
    <time>2020-06-14T06:24:47Z</time>
   </trkpt>
   <trkpt lat="51.1521940" lon="5.6295210">
    <ele>37.0</ele>
    <time>2020-06-14T06:24:48Z</time>
   </trkpt>
   <trkpt lat="51.1522750" lon="5.6294760">
    <ele>36.9</ele>
    <time>2020-06-14T06:24:49Z</time>
   </trkpt>
   <trkpt lat="51.1523570" lon="5.6294170">
    <ele>36.9</ele>
    <time>2020-06-14T06:24:50Z</time>
   </trkpt>
   <trkpt lat="51.1524180" lon="5.6293350">
    <ele>36.8</ele>
    <time>2020-06-14T06:24:51Z</time>
   </trkpt>
   <trkpt lat="51.1524790" lon="5.6292460">
    <ele>36.9</ele>
    <time>2020-06-14T06:24:52Z</time>
   </trkpt>
   <trkpt lat="51.1525320" lon="5.6291570">
    <ele>36.9</ele>
    <time>2020-06-14T06:24:53Z</time>
   </trkpt>
   <trkpt lat="51.1525830" lon="5.6290740">
    <ele>36.9</ele>
    <time>2020-06-14T06:24:54Z</time>
   </trkpt>
   <trkpt lat="51.1526360" lon="5.6289870">
    <ele>36.9</ele>
    <time>2020-06-14T06:24:55Z</time>
   </trkpt>
   <trkpt lat="51.1526900" lon="5.6289020">
    <ele>36.9</ele>
    <time>2020-06-14T06:24:56Z</time>
   </trkpt>
   <trkpt lat="51.1527450" lon="5.6288240">
    <ele>36.9</ele>
    <time>2020-06-14T06:24:57Z</time>
   </trkpt>
   <trkpt lat="51.1527940" lon="5.6287440">
    <ele>36.9</ele>
    <time>2020-06-14T06:24:58Z</time>
   </trkpt>
   <trkpt lat="51.1528420" lon="5.6286680">
    <ele>36.9</ele>
    <time>2020-06-14T06:24:59Z</time>
   </trkpt>
   <trkpt lat="51.1528950" lon="5.6285980">
    <ele>36.9</ele>
    <time>2020-06-14T06:25:00Z</time>
   </trkpt>
   <trkpt lat="51.1529460" lon="5.6285270">
    <ele>36.9</ele>
    <time>2020-06-14T06:25:01Z</time>
   </trkpt>
   <trkpt lat="51.1529940" lon="5.6284550">
    <ele>36.9</ele>
    <time>2020-06-14T06:25:02Z</time>
   </trkpt>
   <trkpt lat="51.1530410" lon="5.6283790">
    <ele>36.9</ele>
    <time>2020-06-14T06:25:03Z</time>
   </trkpt>
   <trkpt lat="51.1530940" lon="5.6283020">
    <ele>36.9</ele>
    <time>2020-06-14T06:25:04Z</time>
   </trkpt>
   <trkpt lat="51.1531480" lon="5.6282270">
    <ele>37.0</ele>
    <time>2020-06-14T06:25:05Z</time>
   </trkpt>
   <trkpt lat="51.1532010" lon="5.6281490">
    <ele>37.0</ele>
    <time>2020-06-14T06:25:06Z</time>
   </trkpt>
   <trkpt lat="51.1532570" lon="5.6280740">
    <ele>37.0</ele>
    <time>2020-06-14T06:25:07Z</time>
   </trkpt>
   <trkpt lat="51.1533140" lon="5.6279990">
    <ele>37.1</ele>
    <time>2020-06-14T06:25:08Z</time>
   </trkpt>
   <trkpt lat="51.1533700" lon="5.6279190">
    <ele>37.0</ele>
    <time>2020-06-14T06:25:09Z</time>
   </trkpt>
   <trkpt lat="51.1534260" lon="5.6278430">
    <ele>36.9</ele>
    <time>2020-06-14T06:25:10Z</time>
   </trkpt>
   <trkpt lat="51.1534780" lon="5.6277660">
    <ele>36.8</ele>
    <time>2020-06-14T06:25:11Z</time>
   </trkpt>
   <trkpt lat="51.1535300" lon="5.6276880">
    <ele>36.8</ele>
    <time>2020-06-14T06:25:12Z</time>
   </trkpt>
   <trkpt lat="51.1535780" lon="5.6276130">
    <ele>36.8</ele>
    <time>2020-06-14T06:25:13Z</time>
   </trkpt>
   <trkpt lat="51.1536220" lon="5.6275350">
    <ele>36.9</ele>
    <time>2020-06-14T06:25:14Z</time>
   </trkpt>
   <trkpt lat="51.1536730" lon="5.6274640">
    <ele>36.9</ele>
    <time>2020-06-14T06:25:15Z</time>
   </trkpt>
   <trkpt lat="51.1537220" lon="5.6273940">
    <ele>37.0</ele>
    <time>2020-06-14T06:25:16Z</time>
   </trkpt>
   <trkpt lat="51.1537730" lon="5.6273300">
    <ele>37.0</ele>
    <time>2020-06-14T06:25:17Z</time>
   </trkpt>
   <trkpt lat="51.1538250" lon="5.6272650">
    <ele>37.0</ele>
    <time>2020-06-14T06:25:18Z</time>
   </trkpt>
   <trkpt lat="51.1538770" lon="5.6271970">
    <ele>37.0</ele>
    <time>2020-06-14T06:25:19Z</time>
   </trkpt>
   <trkpt lat="51.1539270" lon="5.6271230">
    <ele>37.0</ele>
    <time>2020-06-14T06:25:20Z</time>
   </trkpt>
   <trkpt lat="51.1539840" lon="5.6270570">
    <ele>37.0</ele>
    <time>2020-06-14T06:25:21Z</time>
   </trkpt>
   <trkpt lat="51.1540410" lon="5.6269930">
    <ele>37.0</ele>
    <time>2020-06-14T06:25:22Z</time>
   </trkpt>
   <trkpt lat="51.1540940" lon="5.6269190">
    <ele>37.0</ele>
    <time>2020-06-14T06:25:23Z</time>
   </trkpt>
   <trkpt lat="51.1541480" lon="5.6268440">
    <ele>37.0</ele>
    <time>2020-06-14T06:25:24Z</time>
   </trkpt>
   <trkpt lat="51.1542060" lon="5.6267800">
    <ele>37.0</ele>
    <time>2020-06-14T06:25:25Z</time>
   </trkpt>
   <trkpt lat="51.1542630" lon="5.6267120">
    <ele>37.0</ele>
    <time>2020-06-14T06:25:26Z</time>
   </trkpt>
   <trkpt lat="51.1543180" lon="5.6266490">
    <ele>37.0</ele>
    <time>2020-06-14T06:25:27Z</time>
   </trkpt>
   <trkpt lat="51.1543750" lon="5.6265930">
    <ele>37.0</ele>
    <time>2020-06-14T06:25:28Z</time>
   </trkpt>
   <trkpt lat="51.1544300" lon="5.6265340">
    <ele>37.0</ele>
    <time>2020-06-14T06:25:29Z</time>
   </trkpt>
   <trkpt lat="51.1544860" lon="5.6264740">
    <ele>37.0</ele>
    <time>2020-06-14T06:25:30Z</time>
   </trkpt>
   <trkpt lat="51.1545460" lon="5.6264290">
    <ele>37.0</ele>
    <time>2020-06-14T06:25:31Z</time>
   </trkpt>
   <trkpt lat="51.1546080" lon="5.6263790">
    <ele>37.0</ele>
    <time>2020-06-14T06:25:32Z</time>
   </trkpt>
   <trkpt lat="51.1546690" lon="5.6263230">
    <ele>37.0</ele>
    <time>2020-06-14T06:25:33Z</time>
   </trkpt>
   <trkpt lat="51.1547310" lon="5.6262680">
    <ele>37.0</ele>
    <time>2020-06-14T06:25:34Z</time>
   </trkpt>
   <trkpt lat="51.1547960" lon="5.6262120">
    <ele>37.0</ele>
    <time>2020-06-14T06:25:35Z</time>
   </trkpt>
   <trkpt lat="51.1548570" lon="5.6261500">
    <ele>37.0</ele>
    <time>2020-06-14T06:25:36Z</time>
   </trkpt>
   <trkpt lat="51.1549160" lon="5.6260800">
    <ele>37.1</ele>
    <time>2020-06-14T06:25:37Z</time>
   </trkpt>
   <trkpt lat="51.1549710" lon="5.6259960">
    <ele>37.1</ele>
    <time>2020-06-14T06:25:38Z</time>
   </trkpt>
   <trkpt lat="51.1550240" lon="5.6259100">
    <ele>37.0</ele>
    <time>2020-06-14T06:25:39Z</time>
   </trkpt>
   <trkpt lat="51.1550690" lon="5.6258110">
    <ele>37.0</ele>
    <time>2020-06-14T06:25:40Z</time>
   </trkpt>
   <trkpt lat="51.1551120" lon="5.6257120">
    <ele>36.9</ele>
    <time>2020-06-14T06:25:41Z</time>
   </trkpt>
   <trkpt lat="51.1551490" lon="5.6256110">
    <ele>36.9</ele>
    <time>2020-06-14T06:25:42Z</time>
   </trkpt>
   <trkpt lat="51.1551860" lon="5.6255120">
    <ele>36.9</ele>
    <time>2020-06-14T06:25:43Z</time>
   </trkpt>
   <trkpt lat="51.1552210" lon="5.6254210">
    <ele>36.9</ele>
    <time>2020-06-14T06:25:44Z</time>
   </trkpt>
   <trkpt lat="51.1552580" lon="5.6253240">
    <ele>36.9</ele>
    <time>2020-06-14T06:25:45Z</time>
   </trkpt>
   <trkpt lat="51.1552940" lon="5.6252260">
    <ele>36.8</ele>
    <time>2020-06-14T06:25:46Z</time>
   </trkpt>
   <trkpt lat="51.1553310" lon="5.6251310">
    <ele>36.8</ele>
    <time>2020-06-14T06:25:47Z</time>
   </trkpt>
   <trkpt lat="51.1553690" lon="5.6250350">
    <ele>36.8</ele>
    <time>2020-06-14T06:25:48Z</time>
   </trkpt>
   <trkpt lat="51.1554050" lon="5.6249390">
    <ele>36.7</ele>
    <time>2020-06-14T06:25:49Z</time>
   </trkpt>
   <trkpt lat="51.1554420" lon="5.6248550">
    <ele>36.7</ele>
    <time>2020-06-14T06:25:50Z</time>
   </trkpt>
   <trkpt lat="51.1554770" lon="5.6247830">
    <ele>36.6</ele>
    <time>2020-06-14T06:25:51Z</time>
   </trkpt>
   <trkpt lat="51.1555110" lon="5.6247150">
    <ele>36.6</ele>
    <time>2020-06-14T06:25:52Z</time>
   </trkpt>
   <trkpt lat="51.1555600" lon="5.6246660">
    <ele>36.6</ele>
    <time>2020-06-14T06:25:53Z</time>
   </trkpt>
   <trkpt lat="51.1556230" lon="5.6246650">
    <ele>36.5</ele>
    <time>2020-06-14T06:25:54Z</time>
   </trkpt>
   <trkpt lat="51.1556890" lon="5.6246630">
    <ele>36.5</ele>
    <time>2020-06-14T06:25:55Z</time>
   </trkpt>
   <trkpt lat="51.1557550" lon="5.6246630">
    <ele>36.5</ele>
    <time>2020-06-14T06:25:56Z</time>
   </trkpt>
   <trkpt lat="51.1558210" lon="5.6246530">
    <ele>36.5</ele>
    <time>2020-06-14T06:25:57Z</time>
   </trkpt>
   <trkpt lat="51.1558960" lon="5.6246480">
    <ele>36.5</ele>
    <time>2020-06-14T06:25:58Z</time>
   </trkpt>
   <trkpt lat="51.1559770" lon="5.6246420">
    <ele>36.5</ele>
    <time>2020-06-14T06:25:59Z</time>
   </trkpt>
   <trkpt lat="51.1560570" lon="5.6246400">
    <ele>36.5</ele>
    <time>2020-06-14T06:26:00Z</time>
   </trkpt>
   <trkpt lat="51.1561350" lon="5.6246380">
    <ele>36.5</ele>
    <time>2020-06-14T06:26:01Z</time>
   </trkpt>
   <trkpt lat="51.1562100" lon="5.6246280">
    <ele>36.5</ele>
    <time>2020-06-14T06:26:02Z</time>
   </trkpt>
   <trkpt lat="51.1562840" lon="5.6246210">
    <ele>36.5</ele>
    <time>2020-06-14T06:26:03Z</time>
   </trkpt>
   <trkpt lat="51.1563630" lon="5.6246090">
    <ele>36.6</ele>
    <time>2020-06-14T06:26:04Z</time>
   </trkpt>
   <trkpt lat="51.1564450" lon="5.6245990">
    <ele>36.7</ele>
    <time>2020-06-14T06:26:05Z</time>
   </trkpt>
   <trkpt lat="51.1565210" lon="5.6245730">
    <ele>36.7</ele>
    <time>2020-06-14T06:26:06Z</time>
   </trkpt>
   <trkpt lat="51.1565990" lon="5.6245620">
    <ele>36.7</ele>
    <time>2020-06-14T06:26:07Z</time>
   </trkpt>
   <trkpt lat="51.1566720" lon="5.6245290">
    <ele>36.7</ele>
    <time>2020-06-14T06:26:08Z</time>
   </trkpt>
   <trkpt lat="51.1567440" lon="5.6244880">
    <ele>36.8</ele>
    <time>2020-06-14T06:26:09Z</time>
   </trkpt>
   <trkpt lat="51.1568140" lon="5.6244390">
    <ele>36.8</ele>
    <time>2020-06-14T06:26:10Z</time>
   </trkpt>
   <trkpt lat="51.1568850" lon="5.6243840">
    <ele>36.8</ele>
    <time>2020-06-14T06:26:11Z</time>
   </trkpt>
   <trkpt lat="51.1569590" lon="5.6243350">
    <ele>36.8</ele>
    <time>2020-06-14T06:26:12Z</time>
   </trkpt>
   <trkpt lat="51.1570330" lon="5.6242850">
    <ele>36.9</ele>
    <time>2020-06-14T06:26:13Z</time>
   </trkpt>
   <trkpt lat="51.1571050" lon="5.6242430">
    <ele>37.0</ele>
    <time>2020-06-14T06:26:14Z</time>
   </trkpt>
   <trkpt lat="51.1571710" lon="5.6241980">
    <ele>37.1</ele>
    <time>2020-06-14T06:26:15Z</time>
   </trkpt>
   <trkpt lat="51.1572370" lon="5.6241550">
    <ele>37.1</ele>
    <time>2020-06-14T06:26:16Z</time>
   </trkpt>
   <trkpt lat="51.1573040" lon="5.6241160">
    <ele>37.0</ele>
    <time>2020-06-14T06:26:17Z</time>
   </trkpt>
   <trkpt lat="51.1573760" lon="5.6240860">
    <ele>37.0</ele>
    <time>2020-06-14T06:26:18Z</time>
   </trkpt>
   <trkpt lat="51.1574500" lon="5.6240570">
    <ele>37.0</ele>
    <time>2020-06-14T06:26:19Z</time>
   </trkpt>
   <trkpt lat="51.1575230" lon="5.6240360">
    <ele>36.9</ele>
    <time>2020-06-14T06:26:20Z</time>
   </trkpt>
   <trkpt lat="51.1575920" lon="5.6240120">
    <ele>36.9</ele>
    <time>2020-06-14T06:26:21Z</time>
   </trkpt>
   <trkpt lat="51.1576620" lon="5.6239950">
    <ele>36.9</ele>
    <time>2020-06-14T06:26:22Z</time>
   </trkpt>
   <trkpt lat="51.1577300" lon="5.6239790">
    <ele>36.9</ele>
    <time>2020-06-14T06:26:23Z</time>
   </trkpt>
   <trkpt lat="51.1577970" lon="5.6239550">
    <ele>36.9</ele>
    <time>2020-06-14T06:26:24Z</time>
   </trkpt>
   <trkpt lat="51.1578650" lon="5.6239310">
    <ele>36.8</ele>
    <time>2020-06-14T06:26:25Z</time>
   </trkpt>
   <trkpt lat="51.1579340" lon="5.6239050">
    <ele>36.8</ele>
    <time>2020-06-14T06:26:26Z</time>
   </trkpt>
   <trkpt lat="51.1580020" lon="5.6238710">
    <ele>36.7</ele>
    <time>2020-06-14T06:26:27Z</time>
   </trkpt>
   <trkpt lat="51.1580730" lon="5.6238450">
    <ele>36.7</ele>
    <time>2020-06-14T06:26:28Z</time>
   </trkpt>
   <trkpt lat="51.1581450" lon="5.6238220">
    <ele>36.7</ele>
    <time>2020-06-14T06:26:29Z</time>
   </trkpt>
   <trkpt lat="51.1582140" lon="5.6237970">
    <ele>36.7</ele>
    <time>2020-06-14T06:26:30Z</time>
   </trkpt>
   <trkpt lat="51.1582830" lon="5.6237790">
    <ele>36.7</ele>
    <time>2020-06-14T06:26:31Z</time>
   </trkpt>
   <trkpt lat="51.1583490" lon="5.6237570">
    <ele>36.7</ele>
    <time>2020-06-14T06:26:32Z</time>
   </trkpt>
   <trkpt lat="51.1584150" lon="5.6237390">
    <ele>36.8</ele>
    <time>2020-06-14T06:26:33Z</time>
   </trkpt>
   <trkpt lat="51.1584830" lon="5.6237240">
    <ele>36.8</ele>
    <time>2020-06-14T06:26:34Z</time>
   </trkpt>
   <trkpt lat="51.1585490" lon="5.6237110">
    <ele>36.8</ele>
    <time>2020-06-14T06:26:35Z</time>
   </trkpt>
   <trkpt lat="51.1586170" lon="5.6236920">
    <ele>36.8</ele>
    <time>2020-06-14T06:26:36Z</time>
   </trkpt>
   <trkpt lat="51.1586850" lon="5.6236670">
    <ele>36.8</ele>
    <time>2020-06-14T06:26:37Z</time>
   </trkpt>
   <trkpt lat="51.1587540" lon="5.6236460">
    <ele>36.8</ele>
    <time>2020-06-14T06:26:38Z</time>
   </trkpt>
   <trkpt lat="51.1588240" lon="5.6236290">
    <ele>36.8</ele>
    <time>2020-06-14T06:26:39Z</time>
   </trkpt>
   <trkpt lat="51.1588940" lon="5.6236060">
    <ele>36.8</ele>
    <time>2020-06-14T06:26:40Z</time>
   </trkpt>
   <trkpt lat="51.1589620" lon="5.6235790">
    <ele>36.9</ele>
    <time>2020-06-14T06:26:41Z</time>
   </trkpt>
   <trkpt lat="51.1590340" lon="5.6235490">
    <ele>36.9</ele>
    <time>2020-06-14T06:26:42Z</time>
   </trkpt>
   <trkpt lat="51.1591100" lon="5.6235160">
    <ele>36.9</ele>
    <time>2020-06-14T06:26:43Z</time>
   </trkpt>
   <trkpt lat="51.1591830" lon="5.6234830">
    <ele>36.9</ele>
    <time>2020-06-14T06:26:44Z</time>
   </trkpt>
   <trkpt lat="51.1592560" lon="5.6234520">
    <ele>36.9</ele>
    <time>2020-06-14T06:26:45Z</time>
   </trkpt>
   <trkpt lat="51.1593260" lon="5.6234250">
    <ele>36.9</ele>
    <time>2020-06-14T06:26:46Z</time>
   </trkpt>
   <trkpt lat="51.1593900" lon="5.6234020">
    <ele>37.0</ele>
    <time>2020-06-14T06:26:47Z</time>
   </trkpt>
   <trkpt lat="51.1594560" lon="5.6233820">
    <ele>37.0</ele>
    <time>2020-06-14T06:26:48Z</time>
   </trkpt>
   <trkpt lat="51.1595230" lon="5.6233600">
    <ele>36.9</ele>
    <time>2020-06-14T06:26:49Z</time>
   </trkpt>
   <trkpt lat="51.1595910" lon="5.6233360">
    <ele>36.9</ele>
    <time>2020-06-14T06:26:50Z</time>
   </trkpt>
   <trkpt lat="51.1596560" lon="5.6233100">
    <ele>36.8</ele>
    <time>2020-06-14T06:26:51Z</time>
   </trkpt>
   <trkpt lat="51.1597220" lon="5.6232810">
    <ele>36.8</ele>
    <time>2020-06-14T06:26:52Z</time>
   </trkpt>
   <trkpt lat="51.1597860" lon="5.6232510">
    <ele>36.8</ele>
    <time>2020-06-14T06:26:53Z</time>
   </trkpt>
   <trkpt lat="51.1598510" lon="5.6232190">
    <ele>36.8</ele>
    <time>2020-06-14T06:26:54Z</time>
   </trkpt>
   <trkpt lat="51.1599170" lon="5.6231890">
    <ele>36.9</ele>
    <time>2020-06-14T06:26:55Z</time>
   </trkpt>
   <trkpt lat="51.1599840" lon="5.6231570">
    <ele>36.9</ele>
    <time>2020-06-14T06:26:56Z</time>
   </trkpt>
   <trkpt lat="51.1600560" lon="5.6231190">
    <ele>36.9</ele>
    <time>2020-06-14T06:26:57Z</time>
   </trkpt>
   <trkpt lat="51.1601260" lon="5.6230820">
    <ele>37.0</ele>
    <time>2020-06-14T06:26:58Z</time>
   </trkpt>
   <trkpt lat="51.1601950" lon="5.6230510">
    <ele>37.0</ele>
    <time>2020-06-14T06:26:59Z</time>
   </trkpt>
   <trkpt lat="51.1602610" lon="5.6230160">
    <ele>37.1</ele>
    <time>2020-06-14T06:27:00Z</time>
   </trkpt>
   <trkpt lat="51.1603270" lon="5.6229740">
    <ele>37.1</ele>
    <time>2020-06-14T06:27:01Z</time>
   </trkpt>
   <trkpt lat="51.1603940" lon="5.6229260">
    <ele>37.2</ele>
    <time>2020-06-14T06:27:02Z</time>
   </trkpt>
   <trkpt lat="51.1604580" lon="5.6228750">
    <ele>37.2</ele>
    <time>2020-06-14T06:27:03Z</time>
   </trkpt>
   <trkpt lat="51.1605230" lon="5.6228250">
    <ele>37.3</ele>
    <time>2020-06-14T06:27:04Z</time>
   </trkpt>
   <trkpt lat="51.1605890" lon="5.6227800">
    <ele>37.3</ele>
    <time>2020-06-14T06:27:05Z</time>
   </trkpt>
   <trkpt lat="51.1606520" lon="5.6227410">
    <ele>37.3</ele>
    <time>2020-06-14T06:27:06Z</time>
   </trkpt>
   <trkpt lat="51.1607130" lon="5.6226890">
    <ele>37.3</ele>
    <time>2020-06-14T06:27:07Z</time>
   </trkpt>
   <trkpt lat="51.1607760" lon="5.6226320">
    <ele>37.4</ele>
    <time>2020-06-14T06:27:08Z</time>
   </trkpt>
   <trkpt lat="51.1608350" lon="5.6225680">
    <ele>37.4</ele>
    <time>2020-06-14T06:27:09Z</time>
   </trkpt>
   <trkpt lat="51.1608940" lon="5.6225120">
    <ele>37.4</ele>
    <time>2020-06-14T06:27:10Z</time>
   </trkpt>
   <trkpt lat="51.1609530" lon="5.6224530">
    <ele>37.5</ele>
    <time>2020-06-14T06:27:11Z</time>
   </trkpt>
   <trkpt lat="51.1610100" lon="5.6223840">
    <ele>37.5</ele>
    <time>2020-06-14T06:27:12Z</time>
   </trkpt>
   <trkpt lat="51.1610640" lon="5.6223010">
    <ele>37.5</ele>
    <time>2020-06-14T06:27:13Z</time>
   </trkpt>
   <trkpt lat="51.1611150" lon="5.6222150">
    <ele>37.5</ele>
    <time>2020-06-14T06:27:14Z</time>
   </trkpt>
   <trkpt lat="51.1611660" lon="5.6221260">
    <ele>37.5</ele>
    <time>2020-06-14T06:27:15Z</time>
   </trkpt>
   <trkpt lat="51.1612220" lon="5.6220450">
    <ele>37.4</ele>
    <time>2020-06-14T06:27:16Z</time>
   </trkpt>
   <trkpt lat="51.1612590" lon="5.6219420">
    <ele>37.3</ele>
    <time>2020-06-14T06:27:17Z</time>
   </trkpt>
   <trkpt lat="51.1612920" lon="5.6218360">
    <ele>37.2</ele>
    <time>2020-06-14T06:27:18Z</time>
   </trkpt>
   <trkpt lat="51.1613270" lon="5.6217330">
    <ele>37.2</ele>
    <time>2020-06-14T06:27:19Z</time>
   </trkpt>
   <trkpt lat="51.1613620" lon="5.6216250">
    <ele>37.2</ele>
    <time>2020-06-14T06:27:20Z</time>
   </trkpt>
   <trkpt lat="51.1613970" lon="5.6215200">
    <ele>37.2</ele>
    <time>2020-06-14T06:27:21Z</time>
   </trkpt>
   <trkpt lat="51.1614260" lon="5.6214090">
    <ele>37.2</ele>
    <time>2020-06-14T06:27:22Z</time>
   </trkpt>
   <trkpt lat="51.1614520" lon="5.6213030">
    <ele>37.2</ele>
    <time>2020-06-14T06:27:23Z</time>
   </trkpt>
   <trkpt lat="51.1614770" lon="5.6211980">
    <ele>37.2</ele>
    <time>2020-06-14T06:27:24Z</time>
   </trkpt>
   <trkpt lat="51.1615070" lon="5.6210970">
    <ele>37.2</ele>
    <time>2020-06-14T06:27:25Z</time>
   </trkpt>
   <trkpt lat="51.1615340" lon="5.6209990">
    <ele>37.2</ele>
    <time>2020-06-14T06:27:26Z</time>
   </trkpt>
   <trkpt lat="51.1615620" lon="5.6209070">
    <ele>37.2</ele>
    <time>2020-06-14T06:27:27Z</time>
   </trkpt>
   <trkpt lat="51.1615910" lon="5.6208130">
    <ele>37.3</ele>
    <time>2020-06-14T06:27:28Z</time>
   </trkpt>
   <trkpt lat="51.1616210" lon="5.6207150">
    <ele>37.3</ele>
    <time>2020-06-14T06:27:29Z</time>
   </trkpt>
   <trkpt lat="51.1616510" lon="5.6206150">
    <ele>37.3</ele>
    <time>2020-06-14T06:27:30Z</time>
   </trkpt>
   <trkpt lat="51.1616820" lon="5.6205110">
    <ele>37.4</ele>
    <time>2020-06-14T06:27:31Z</time>
   </trkpt>
   <trkpt lat="51.1617120" lon="5.6204070">
    <ele>37.4</ele>
    <time>2020-06-14T06:27:32Z</time>
   </trkpt>
   <trkpt lat="51.1617440" lon="5.6203020">
    <ele>37.4</ele>
    <time>2020-06-14T06:27:33Z</time>
   </trkpt>
   <trkpt lat="51.1617760" lon="5.6201970">
    <ele>37.5</ele>
    <time>2020-06-14T06:27:34Z</time>
   </trkpt>
   <trkpt lat="51.1618130" lon="5.6200990">
    <ele>37.5</ele>
    <time>2020-06-14T06:27:35Z</time>
   </trkpt>
   <trkpt lat="51.1618480" lon="5.6199990">
    <ele>37.5</ele>
    <time>2020-06-14T06:27:36Z</time>
   </trkpt>
   <trkpt lat="51.1618790" lon="5.6199000">
    <ele>37.5</ele>
    <time>2020-06-14T06:27:37Z</time>
   </trkpt>
   <trkpt lat="51.1619130" lon="5.6198040">
    <ele>37.5</ele>
    <time>2020-06-14T06:27:38Z</time>
   </trkpt>
   <trkpt lat="51.1619430" lon="5.6197060">
    <ele>37.5</ele>
    <time>2020-06-14T06:27:39Z</time>
   </trkpt>
   <trkpt lat="51.1619740" lon="5.6196090">
    <ele>37.5</ele>
    <time>2020-06-14T06:27:40Z</time>
   </trkpt>
   <trkpt lat="51.1620080" lon="5.6195160">
    <ele>37.5</ele>
    <time>2020-06-14T06:27:41Z</time>
   </trkpt>
   <trkpt lat="51.1620400" lon="5.6194210">
    <ele>37.5</ele>
    <time>2020-06-14T06:27:42Z</time>
   </trkpt>
   <trkpt lat="51.1620720" lon="5.6193240">
    <ele>37.6</ele>
    <time>2020-06-14T06:27:43Z</time>
   </trkpt>
   <trkpt lat="51.1621110" lon="5.6192280">
    <ele>37.6</ele>
    <time>2020-06-14T06:27:44Z</time>
   </trkpt>
   <trkpt lat="51.1621500" lon="5.6191310">
    <ele>37.6</ele>
    <time>2020-06-14T06:27:45Z</time>
   </trkpt>
   <trkpt lat="51.1621880" lon="5.6190330">
    <ele>37.6</ele>
    <time>2020-06-14T06:27:46Z</time>
   </trkpt>
   <trkpt lat="51.1622250" lon="5.6189380">
    <ele>37.6</ele>
    <time>2020-06-14T06:27:47Z</time>
   </trkpt>
   <trkpt lat="51.1622640" lon="5.6188450">
    <ele>37.7</ele>
    <time>2020-06-14T06:27:48Z</time>
   </trkpt>
   <trkpt lat="51.1623040" lon="5.6187570">
    <ele>37.7</ele>
    <time>2020-06-14T06:27:49Z</time>
   </trkpt>
   <trkpt lat="51.1623370" lon="5.6186640">
    <ele>37.8</ele>
    <time>2020-06-14T06:27:50Z</time>
   </trkpt>
   <trkpt lat="51.1623720" lon="5.6185730">
    <ele>37.8</ele>
    <time>2020-06-14T06:27:51Z</time>
   </trkpt>
   <trkpt lat="51.1624110" lon="5.6184870">
    <ele>37.8</ele>
    <time>2020-06-14T06:27:52Z</time>
   </trkpt>
   <trkpt lat="51.1624500" lon="5.6184010">
    <ele>37.8</ele>
    <time>2020-06-14T06:27:53Z</time>
   </trkpt>
   <trkpt lat="51.1624910" lon="5.6183090">
    <ele>37.8</ele>
    <time>2020-06-14T06:27:54Z</time>
   </trkpt>
   <trkpt lat="51.1625310" lon="5.6182170">
    <ele>37.8</ele>
    <time>2020-06-14T06:27:55Z</time>
   </trkpt>
   <trkpt lat="51.1625690" lon="5.6181240">
    <ele>37.8</ele>
    <time>2020-06-14T06:27:56Z</time>
   </trkpt>
   <trkpt lat="51.1626020" lon="5.6180280">
    <ele>37.8</ele>
    <time>2020-06-14T06:27:57Z</time>
   </trkpt>
   <trkpt lat="51.1626470" lon="5.6179410">
    <ele>37.8</ele>
    <time>2020-06-14T06:27:58Z</time>
   </trkpt>
   <trkpt lat="51.1626920" lon="5.6178550">
    <ele>37.8</ele>
    <time>2020-06-14T06:27:59Z</time>
   </trkpt>
   <trkpt lat="51.1627280" lon="5.6177610">
    <ele>37.8</ele>
    <time>2020-06-14T06:28:00Z</time>
   </trkpt>
   <trkpt lat="51.1627680" lon="5.6176640">
    <ele>37.8</ele>
    <time>2020-06-14T06:28:01Z</time>
   </trkpt>
   <trkpt lat="51.1628080" lon="5.6175680">
    <ele>37.8</ele>
    <time>2020-06-14T06:28:02Z</time>
   </trkpt>
   <trkpt lat="51.1628470" lon="5.6174730">
    <ele>37.8</ele>
    <time>2020-06-14T06:28:03Z</time>
   </trkpt>
   <trkpt lat="51.1628860" lon="5.6173800">
    <ele>37.8</ele>
    <time>2020-06-14T06:28:04Z</time>
   </trkpt>
   <trkpt lat="51.1629210" lon="5.6172880">
    <ele>37.8</ele>
    <time>2020-06-14T06:28:05Z</time>
   </trkpt>
   <trkpt lat="51.1629650" lon="5.6172020">
    <ele>37.8</ele>
    <time>2020-06-14T06:28:06Z</time>
   </trkpt>
   <trkpt lat="51.1630100" lon="5.6171150">
    <ele>37.7</ele>
    <time>2020-06-14T06:28:07Z</time>
   </trkpt>
   <trkpt lat="51.1630560" lon="5.6170320">
    <ele>37.6</ele>
    <time>2020-06-14T06:28:08Z</time>
   </trkpt>
   <trkpt lat="51.1631040" lon="5.6169550">
    <ele>37.6</ele>
    <time>2020-06-14T06:28:09Z</time>
   </trkpt>
   <trkpt lat="51.1631480" lon="5.6168730">
    <ele>37.4</ele>
    <time>2020-06-14T06:28:10Z</time>
   </trkpt>
   <trkpt lat="51.1631900" lon="5.6167840">
    <ele>37.2</ele>
    <time>2020-06-14T06:28:11Z</time>
   </trkpt>
   <trkpt lat="51.1632350" lon="5.6167030">
    <ele>37.1</ele>
    <time>2020-06-14T06:28:12Z</time>
   </trkpt>
   <trkpt lat="51.1632770" lon="5.6166200">
    <ele>37.0</ele>
    <time>2020-06-14T06:28:13Z</time>
   </trkpt>
   <trkpt lat="51.1633150" lon="5.6165320">
    <ele>37.0</ele>
    <time>2020-06-14T06:28:14Z</time>
   </trkpt>
   <trkpt lat="51.1633550" lon="5.6164460">
    <ele>36.9</ele>
    <time>2020-06-14T06:28:15Z</time>
   </trkpt>
   <trkpt lat="51.1633990" lon="5.6163670">
    <ele>36.9</ele>
    <time>2020-06-14T06:28:16Z</time>
   </trkpt>
   <trkpt lat="51.1634420" lon="5.6162850">
    <ele>36.9</ele>
    <time>2020-06-14T06:28:17Z</time>
   </trkpt>
   <trkpt lat="51.1634840" lon="5.6162070">
    <ele>36.9</ele>
    <time>2020-06-14T06:28:18Z</time>
   </trkpt>
   <trkpt lat="51.1635290" lon="5.6161340">
    <ele>36.9</ele>
    <time>2020-06-14T06:28:19Z</time>
   </trkpt>
   <trkpt lat="51.1635690" lon="5.6160560">
    <ele>36.9</ele>
    <time>2020-06-14T06:28:20Z</time>
   </trkpt>
   <trkpt lat="51.1636100" lon="5.6159750">
    <ele>36.9</ele>
    <time>2020-06-14T06:28:21Z</time>
   </trkpt>
   <trkpt lat="51.1636530" lon="5.6158960">
    <ele>36.9</ele>
    <time>2020-06-14T06:28:22Z</time>
   </trkpt>
   <trkpt lat="51.1637020" lon="5.6158310">
    <ele>36.9</ele>
    <time>2020-06-14T06:28:23Z</time>
   </trkpt>
   <trkpt lat="51.1637510" lon="5.6157670">
    <ele>36.9</ele>
    <time>2020-06-14T06:28:24Z</time>
   </trkpt>
   <trkpt lat="51.1638040" lon="5.6157080">
    <ele>37.0</ele>
    <time>2020-06-14T06:28:25Z</time>
   </trkpt>
   <trkpt lat="51.1638620" lon="5.6156740">
    <ele>37.1</ele>
    <time>2020-06-14T06:28:26Z</time>
   </trkpt>
   <trkpt lat="51.1639210" lon="5.6156500">
    <ele>37.1</ele>
    <time>2020-06-14T06:28:27Z</time>
   </trkpt>
   <trkpt lat="51.1639810" lon="5.6156330">
    <ele>37.2</ele>
    <time>2020-06-14T06:28:28Z</time>
   </trkpt>
   <trkpt lat="51.1640370" lon="5.6156020">
    <ele>37.3</ele>
    <time>2020-06-14T06:28:29Z</time>
   </trkpt>
   <trkpt lat="51.1640880" lon="5.6155760">
    <ele>37.4</ele>
    <time>2020-06-14T06:28:30Z</time>
   </trkpt>
   <trkpt lat="51.1641290" lon="5.6155510">
    <ele>37.4</ele>
    <time>2020-06-14T06:28:31Z</time>
   </trkpt>
   <trkpt lat="51.1641700" lon="5.6155270">
    <ele>37.5</ele>
    <time>2020-06-14T06:28:32Z</time>
   </trkpt>
   <trkpt lat="51.1642090" lon="5.6154920">
    <ele>37.6</ele>
    <time>2020-06-14T06:28:33Z</time>
   </trkpt>
   <trkpt lat="51.1642490" lon="5.6154570">
    <ele>37.6</ele>
    <time>2020-06-14T06:28:34Z</time>
   </trkpt>
   <trkpt lat="51.1642920" lon="5.6154220">
    <ele>37.7</ele>
    <time>2020-06-14T06:28:35Z</time>
   </trkpt>
   <trkpt lat="51.1643390" lon="5.6153920">
    <ele>37.7</ele>
    <time>2020-06-14T06:28:36Z</time>
   </trkpt>
   <trkpt lat="51.1643870" lon="5.6153410">
    <ele>37.8</ele>
    <time>2020-06-14T06:28:37Z</time>
   </trkpt>
   <trkpt lat="51.1644190" lon="5.6152640">
    <ele>37.7</ele>
    <time>2020-06-14T06:28:38Z</time>
   </trkpt>
   <trkpt lat="51.1644300" lon="5.6151760">
    <ele>37.7</ele>
    <time>2020-06-14T06:28:39Z</time>
   </trkpt>
   <trkpt lat="51.1644100" lon="5.6150830">
    <ele>37.6</ele>
    <time>2020-06-14T06:28:40Z</time>
   </trkpt>
   <trkpt lat="51.1643810" lon="5.6149840">
    <ele>37.6</ele>
    <time>2020-06-14T06:28:41Z</time>
   </trkpt>
   <trkpt lat="51.1643610" lon="5.6148810">
    <ele>37.6</ele>
    <time>2020-06-14T06:28:42Z</time>
   </trkpt>
   <trkpt lat="51.1643390" lon="5.6147720">
    <ele>37.6</ele>
    <time>2020-06-14T06:28:43Z</time>
   </trkpt>
   <trkpt lat="51.1643250" lon="5.6146570">
    <ele>37.7</ele>
    <time>2020-06-14T06:28:44Z</time>
   </trkpt>
   <trkpt lat="51.1643060" lon="5.6145410">
    <ele>37.8</ele>
    <time>2020-06-14T06:28:45Z</time>
   </trkpt>
   <trkpt lat="51.1642860" lon="5.6144240">
    <ele>37.9</ele>
    <time>2020-06-14T06:28:46Z</time>
   </trkpt>
   <trkpt lat="51.1642650" lon="5.6143070">
    <ele>38.1</ele>
    <time>2020-06-14T06:28:47Z</time>
   </trkpt>
   <trkpt lat="51.1642370" lon="5.6141920">
    <ele>38.2</ele>
    <time>2020-06-14T06:28:48Z</time>
   </trkpt>
   <trkpt lat="51.1642030" lon="5.6140810">
    <ele>38.3</ele>
    <time>2020-06-14T06:28:49Z</time>
   </trkpt>
   <trkpt lat="51.1641720" lon="5.6139710">
    <ele>38.4</ele>
    <time>2020-06-14T06:28:50Z</time>
   </trkpt>
   <trkpt lat="51.1641360" lon="5.6138640">
    <ele>38.6</ele>
    <time>2020-06-14T06:28:51Z</time>
   </trkpt>
   <trkpt lat="51.1641030" lon="5.6137540">
    <ele>38.8</ele>
    <time>2020-06-14T06:28:52Z</time>
   </trkpt>
   <trkpt lat="51.1640720" lon="5.6136460">
    <ele>39.0</ele>
    <time>2020-06-14T06:28:53Z</time>
   </trkpt>
   <trkpt lat="51.1640450" lon="5.6135350">
    <ele>39.2</ele>
    <time>2020-06-14T06:28:54Z</time>
   </trkpt>
   <trkpt lat="51.1640150" lon="5.6134300">
    <ele>39.4</ele>
    <time>2020-06-14T06:28:55Z</time>
   </trkpt>
   <trkpt lat="51.1639880" lon="5.6133270">
    <ele>39.6</ele>
    <time>2020-06-14T06:28:56Z</time>
   </trkpt>
   <trkpt lat="51.1639620" lon="5.6132260">
    <ele>39.8</ele>
    <time>2020-06-14T06:28:57Z</time>
   </trkpt>
   <trkpt lat="51.1639350" lon="5.6131310">
    <ele>39.9</ele>
    <time>2020-06-14T06:28:58Z</time>
   </trkpt>
   <trkpt lat="51.1639090" lon="5.6130380">
    <ele>40.1</ele>
    <time>2020-06-14T06:28:59Z</time>
   </trkpt>
   <trkpt lat="51.1638840" lon="5.6129450">
    <ele>40.3</ele>
    <time>2020-06-14T06:29:00Z</time>
   </trkpt>
   <trkpt lat="51.1638530" lon="5.6128570">
    <ele>40.5</ele>
    <time>2020-06-14T06:29:01Z</time>
   </trkpt>
   <trkpt lat="51.1638240" lon="5.6127710">
    <ele>40.7</ele>
    <time>2020-06-14T06:29:02Z</time>
   </trkpt>
   <trkpt lat="51.1638030" lon="5.6126830">
    <ele>40.9</ele>
    <time>2020-06-14T06:29:03Z</time>
   </trkpt>
   <trkpt lat="51.1637760" lon="5.6125970">
    <ele>41.1</ele>
    <time>2020-06-14T06:29:04Z</time>
   </trkpt>
   <trkpt lat="51.1637500" lon="5.6125060">
    <ele>41.3</ele>
    <time>2020-06-14T06:29:05Z</time>
   </trkpt>
   <trkpt lat="51.1637240" lon="5.6124150">
    <ele>41.6</ele>
    <time>2020-06-14T06:29:06Z</time>
   </trkpt>
   <trkpt lat="51.1636960" lon="5.6123240">
    <ele>41.8</ele>
    <time>2020-06-14T06:29:07Z</time>
   </trkpt>
   <trkpt lat="51.1636670" lon="5.6122340">
    <ele>42.0</ele>
    <time>2020-06-14T06:29:08Z</time>
   </trkpt>
   <trkpt lat="51.1636420" lon="5.6121420">
    <ele>42.2</ele>
    <time>2020-06-14T06:29:09Z</time>
   </trkpt>
   <trkpt lat="51.1636220" lon="5.6120490">
    <ele>42.5</ele>
    <time>2020-06-14T06:29:10Z</time>
   </trkpt>
   <trkpt lat="51.1635970" lon="5.6119600">
    <ele>42.7</ele>
    <time>2020-06-14T06:29:11Z</time>
   </trkpt>
   <trkpt lat="51.1635710" lon="5.6118720">
    <ele>43.0</ele>
    <time>2020-06-14T06:29:12Z</time>
   </trkpt>
   <trkpt lat="51.1635470" lon="5.6117860">
    <ele>43.3</ele>
    <time>2020-06-14T06:29:13Z</time>
   </trkpt>
   <trkpt lat="51.1635270" lon="5.6116980">
    <ele>43.6</ele>
    <time>2020-06-14T06:29:14Z</time>
   </trkpt>
   <trkpt lat="51.1635070" lon="5.6116090">
    <ele>43.8</ele>
    <time>2020-06-14T06:29:15Z</time>
   </trkpt>
   <trkpt lat="51.1634850" lon="5.6115210">
    <ele>44.1</ele>
    <time>2020-06-14T06:29:16Z</time>
   </trkpt>
   <trkpt lat="51.1634610" lon="5.6114380">
    <ele>44.4</ele>
    <time>2020-06-14T06:29:17Z</time>
   </trkpt>
   <trkpt lat="51.1634400" lon="5.6113520">
    <ele>44.7</ele>
    <time>2020-06-14T06:29:18Z</time>
   </trkpt>
   <trkpt lat="51.1634180" lon="5.6112680">
    <ele>45.0</ele>
    <time>2020-06-14T06:29:19Z</time>
   </trkpt>
   <trkpt lat="51.1634000" lon="5.6111840">
    <ele>45.2</ele>
    <time>2020-06-14T06:29:20Z</time>
   </trkpt>
   <trkpt lat="51.1633790" lon="5.6111040">
    <ele>45.4</ele>
    <time>2020-06-14T06:29:21Z</time>
   </trkpt>
   <trkpt lat="51.1633590" lon="5.6110220">
    <ele>45.7</ele>
    <time>2020-06-14T06:29:22Z</time>
   </trkpt>
   <trkpt lat="51.1633450" lon="5.6109490">
    <ele>45.9</ele>
    <time>2020-06-14T06:29:23Z</time>
   </trkpt>
   <trkpt lat="51.1633280" lon="5.6108730">
    <ele>46.1</ele>
    <time>2020-06-14T06:29:24Z</time>
   </trkpt>
   <trkpt lat="51.1633110" lon="5.6108050">
    <ele>46.3</ele>
    <time>2020-06-14T06:29:25Z</time>
   </trkpt>
   <trkpt lat="51.1632990" lon="5.6107490">
    <ele>46.4</ele>
    <time>2020-06-14T06:29:26Z</time>
   </trkpt>
   <trkpt lat="51.1632880" lon="5.6106970">
    <ele>46.7</ele>
    <time>2020-06-14T06:29:27Z</time>
   </trkpt>
   <trkpt lat="51.1632820" lon="5.6106360">
    <ele>46.8</ele>
    <time>2020-06-14T06:29:28Z</time>
   </trkpt>
   <trkpt lat="51.1632710" lon="5.6105840">
    <ele>46.9</ele>
    <time>2020-06-14T06:29:29Z</time>
   </trkpt>
   <trkpt lat="51.1632540" lon="5.6105240">
    <ele>47.0</ele>
    <time>2020-06-14T06:29:30Z</time>
   </trkpt>
   <trkpt lat="51.1632390" lon="5.6104630">
    <ele>47.1</ele>
    <time>2020-06-14T06:29:31Z</time>
   </trkpt>
   <trkpt lat="51.1632270" lon="5.6104030">
    <ele>47.2</ele>
    <time>2020-06-14T06:29:32Z</time>
   </trkpt>
   <trkpt lat="51.1632180" lon="5.6103410">
    <ele>47.2</ele>
    <time>2020-06-14T06:29:33Z</time>
   </trkpt>
   <trkpt lat="51.1632040" lon="5.6102830">
    <ele>47.3</ele>
    <time>2020-06-14T06:29:34Z</time>
   </trkpt>
   <trkpt lat="51.1631870" lon="5.6102190">
    <ele>47.4</ele>
    <time>2020-06-14T06:29:35Z</time>
   </trkpt>
   <trkpt lat="51.1631720" lon="5.6101400">
    <ele>47.6</ele>
    <time>2020-06-14T06:29:36Z</time>
   </trkpt>
   <trkpt lat="51.1631550" lon="5.6100590">
    <ele>47.7</ele>
    <time>2020-06-14T06:29:37Z</time>
   </trkpt>
   <trkpt lat="51.1631350" lon="5.6099720">
    <ele>47.8</ele>
    <time>2020-06-14T06:29:38Z</time>
   </trkpt>
   <trkpt lat="51.1631110" lon="5.6098800">
    <ele>47.9</ele>
    <time>2020-06-14T06:29:39Z</time>
   </trkpt>
   <trkpt lat="51.1630950" lon="5.6098000">
    <ele>47.9</ele>
    <time>2020-06-14T06:29:40Z</time>
   </trkpt>
   <trkpt lat="51.1630780" lon="5.6096910">
    <ele>47.9</ele>
    <time>2020-06-14T06:29:41Z</time>
   </trkpt>
   <trkpt lat="51.1630630" lon="5.6095980">
    <ele>47.8</ele>
    <time>2020-06-14T06:29:42Z</time>
   </trkpt>
   <trkpt lat="51.1630480" lon="5.6095080">
    <ele>47.8</ele>
    <time>2020-06-14T06:29:43Z</time>
   </trkpt>
   <trkpt lat="51.1630350" lon="5.6094140">
    <ele>47.7</ele>
    <time>2020-06-14T06:29:44Z</time>
   </trkpt>
   <trkpt lat="51.1630210" lon="5.6093300">
    <ele>47.6</ele>
    <time>2020-06-14T06:29:45Z</time>
   </trkpt>
   <trkpt lat="51.1630040" lon="5.6092420">
    <ele>47.5</ele>
    <time>2020-06-14T06:29:46Z</time>
   </trkpt>
   <trkpt lat="51.1629840" lon="5.6091450">
    <ele>47.4</ele>
    <time>2020-06-14T06:29:47Z</time>
   </trkpt>
   <trkpt lat="51.1629650" lon="5.6090430">
    <ele>47.3</ele>
    <time>2020-06-14T06:29:48Z</time>
   </trkpt>
   <trkpt lat="51.1629440" lon="5.6089430">
    <ele>47.1</ele>
    <time>2020-06-14T06:29:49Z</time>
   </trkpt>
   <trkpt lat="51.1629270" lon="5.6088410">
    <ele>47.0</ele>
    <time>2020-06-14T06:29:50Z</time>
   </trkpt>
   <trkpt lat="51.1629060" lon="5.6087360">
    <ele>46.8</ele>
    <time>2020-06-14T06:29:51Z</time>
   </trkpt>
   <trkpt lat="51.1628820" lon="5.6086350">
    <ele>46.6</ele>
    <time>2020-06-14T06:29:52Z</time>
   </trkpt>
   <trkpt lat="51.1628480" lon="5.6085420">
    <ele>46.4</ele>
    <time>2020-06-14T06:29:53Z</time>
   </trkpt>
   <trkpt lat="51.1628120" lon="5.6084480">
    <ele>46.2</ele>
    <time>2020-06-14T06:29:54Z</time>
   </trkpt>
   <trkpt lat="51.1627680" lon="5.6083590">
    <ele>45.9</ele>
    <time>2020-06-14T06:29:55Z</time>
   </trkpt>
   <trkpt lat="51.1627170" lon="5.6082690">
    <ele>45.7</ele>
    <time>2020-06-14T06:29:56Z</time>
   </trkpt>
   <trkpt lat="51.1626600" lon="5.6081870">
    <ele>45.5</ele>
    <time>2020-06-14T06:29:57Z</time>
   </trkpt>
   <trkpt lat="51.1626010" lon="5.6081200">
    <ele>45.2</ele>
    <time>2020-06-14T06:29:58Z</time>
   </trkpt>
   <trkpt lat="51.1625340" lon="5.6080650">
    <ele>45.0</ele>
    <time>2020-06-14T06:29:59Z</time>
   </trkpt>
   <trkpt lat="51.1624570" lon="5.6080260">
    <ele>44.8</ele>
    <time>2020-06-14T06:30:00Z</time>
   </trkpt>
   <trkpt lat="51.1623790" lon="5.6080060">
    <ele>44.6</ele>
    <time>2020-06-14T06:30:01Z</time>
   </trkpt>
   <trkpt lat="51.1623010" lon="5.6079920">
    <ele>44.4</ele>
    <time>2020-06-14T06:30:02Z</time>
   </trkpt>
   <trkpt lat="51.1622190" lon="5.6079900">
    <ele>44.2</ele>
    <time>2020-06-14T06:30:03Z</time>
   </trkpt>
   <trkpt lat="51.1621340" lon="5.6079930">
    <ele>44.0</ele>
    <time>2020-06-14T06:30:04Z</time>
   </trkpt>
   <trkpt lat="51.1620550" lon="5.6079960">
    <ele>43.7</ele>
    <time>2020-06-14T06:30:05Z</time>
   </trkpt>
   <trkpt lat="51.1619770" lon="5.6079940">
    <ele>43.5</ele>
    <time>2020-06-14T06:30:06Z</time>
   </trkpt>
   <trkpt lat="51.1619060" lon="5.6079780">
    <ele>43.3</ele>
    <time>2020-06-14T06:30:07Z</time>
   </trkpt>
   <trkpt lat="51.1618340" lon="5.6079510">
    <ele>43.1</ele>
    <time>2020-06-14T06:30:08Z</time>
   </trkpt>
   <trkpt lat="51.1617650" lon="5.6079190">
    <ele>42.9</ele>
    <time>2020-06-14T06:30:09Z</time>
   </trkpt>
   <trkpt lat="51.1616890" lon="5.6078790">
    <ele>42.7</ele>
    <time>2020-06-14T06:30:10Z</time>
   </trkpt>
   <trkpt lat="51.1616100" lon="5.6078270">
    <ele>42.4</ele>
    <time>2020-06-14T06:30:11Z</time>
   </trkpt>
   <trkpt lat="51.1615350" lon="5.6077710">
    <ele>42.2</ele>
    <time>2020-06-14T06:30:12Z</time>
   </trkpt>
   <trkpt lat="51.1614680" lon="5.6077130">
    <ele>42.0</ele>
    <time>2020-06-14T06:30:13Z</time>
   </trkpt>
   <trkpt lat="51.1614030" lon="5.6076600">
    <ele>41.8</ele>
    <time>2020-06-14T06:30:14Z</time>
   </trkpt>
   <trkpt lat="51.1613310" lon="5.6075960">
    <ele>41.6</ele>
    <time>2020-06-14T06:30:15Z</time>
   </trkpt>
   <trkpt lat="51.1612520" lon="5.6075310">
    <ele>41.5</ele>
    <time>2020-06-14T06:30:16Z</time>
   </trkpt>
   <trkpt lat="51.1611730" lon="5.6074700">
    <ele>41.3</ele>
    <time>2020-06-14T06:30:17Z</time>
   </trkpt>
   <trkpt lat="51.1610990" lon="5.6074130">
    <ele>41.2</ele>
    <time>2020-06-14T06:30:18Z</time>
   </trkpt>
   <trkpt lat="51.1610240" lon="5.6073500">
    <ele>41.0</ele>
    <time>2020-06-14T06:30:19Z</time>
   </trkpt>
   <trkpt lat="51.1609490" lon="5.6072810">
    <ele>40.9</ele>
    <time>2020-06-14T06:30:20Z</time>
   </trkpt>
   <trkpt lat="51.1608700" lon="5.6072220">
    <ele>40.8</ele>
    <time>2020-06-14T06:30:21Z</time>
   </trkpt>
   <trkpt lat="51.1607940" lon="5.6071580">
    <ele>40.7</ele>
    <time>2020-06-14T06:30:22Z</time>
   </trkpt>
   <trkpt lat="51.1607180" lon="5.6070890">
    <ele>40.6</ele>
    <time>2020-06-14T06:30:23Z</time>
   </trkpt>
   <trkpt lat="51.1606490" lon="5.6070150">
    <ele>40.5</ele>
    <time>2020-06-14T06:30:24Z</time>
   </trkpt>
   <trkpt lat="51.1605780" lon="5.6069480">
    <ele>40.4</ele>
    <time>2020-06-14T06:30:25Z</time>
   </trkpt>
   <trkpt lat="51.1605050" lon="5.6068810">
    <ele>40.3</ele>
    <time>2020-06-14T06:30:26Z</time>
   </trkpt>
   <trkpt lat="51.1604350" lon="5.6068150">
    <ele>40.2</ele>
    <time>2020-06-14T06:30:27Z</time>
   </trkpt>
   <trkpt lat="51.1603650" lon="5.6067550">
    <ele>40.1</ele>
    <time>2020-06-14T06:30:28Z</time>
   </trkpt>
   <trkpt lat="51.1602980" lon="5.6066880">
    <ele>40.0</ele>
    <time>2020-06-14T06:30:29Z</time>
   </trkpt>
   <trkpt lat="51.1602330" lon="5.6066160">
    <ele>39.9</ele>
    <time>2020-06-14T06:30:30Z</time>
   </trkpt>
   <trkpt lat="51.1601690" lon="5.6065440">
    <ele>39.9</ele>
    <time>2020-06-14T06:30:31Z</time>
   </trkpt>
   <trkpt lat="51.1601060" lon="5.6064630">
    <ele>39.9</ele>
    <time>2020-06-14T06:30:32Z</time>
   </trkpt>
   <trkpt lat="51.1600470" lon="5.6063800">
    <ele>39.8</ele>
    <time>2020-06-14T06:30:33Z</time>
   </trkpt>
   <trkpt lat="51.1599880" lon="5.6063020">
    <ele>39.8</ele>
    <time>2020-06-14T06:30:34Z</time>
   </trkpt>
   <trkpt lat="51.1599290" lon="5.6062210">
    <ele>39.9</ele>
    <time>2020-06-14T06:30:35Z</time>
   </trkpt>
   <trkpt lat="51.1598750" lon="5.6061390">
    <ele>39.9</ele>
    <time>2020-06-14T06:30:36Z</time>
   </trkpt>
   <trkpt lat="51.1598180" lon="5.6060590">
    <ele>39.9</ele>
    <time>2020-06-14T06:30:37Z</time>
   </trkpt>
   <trkpt lat="51.1597630" lon="5.6059770">
    <ele>39.9</ele>
    <time>2020-06-14T06:30:38Z</time>
   </trkpt>
   <trkpt lat="51.1597060" lon="5.6059000">
    <ele>40.0</ele>
    <time>2020-06-14T06:30:39Z</time>
   </trkpt>
   <trkpt lat="51.1596490" lon="5.6058250">
    <ele>40.0</ele>
    <time>2020-06-14T06:30:40Z</time>
   </trkpt>
   <trkpt lat="51.1595930" lon="5.6057570">
    <ele>40.0</ele>
    <time>2020-06-14T06:30:41Z</time>
   </trkpt>
   <trkpt lat="51.1595350" lon="5.6056980">
    <ele>40.0</ele>
    <time>2020-06-14T06:30:42Z</time>
   </trkpt>
   <trkpt lat="51.1594760" lon="5.6056430">
    <ele>40.0</ele>
    <time>2020-06-14T06:30:43Z</time>
   </trkpt>
   <trkpt lat="51.1594140" lon="5.6055940">
    <ele>40.0</ele>
    <time>2020-06-14T06:30:44Z</time>
   </trkpt>
   <trkpt lat="51.1593470" lon="5.6055520">
    <ele>40.1</ele>
    <time>2020-06-14T06:30:45Z</time>
   </trkpt>
   <trkpt lat="51.1592830" lon="5.6055090">
    <ele>40.1</ele>
    <time>2020-06-14T06:30:46Z</time>
   </trkpt>
   <trkpt lat="51.1592200" lon="5.6054720">
    <ele>40.1</ele>
    <time>2020-06-14T06:30:47Z</time>
   </trkpt>
   <trkpt lat="51.1591550" lon="5.6054360">
    <ele>40.1</ele>
    <time>2020-06-14T06:30:48Z</time>
   </trkpt>
   <trkpt lat="51.1590900" lon="5.6053930">
    <ele>40.0</ele>
    <time>2020-06-14T06:30:49Z</time>
   </trkpt>
   <trkpt lat="51.1590200" lon="5.6053580">
    <ele>40.0</ele>
    <time>2020-06-14T06:30:50Z</time>
   </trkpt>
   <trkpt lat="51.1589520" lon="5.6053250">
    <ele>40.0</ele>
    <time>2020-06-14T06:30:51Z</time>
   </trkpt>
   <trkpt lat="51.1588830" lon="5.6052970">
    <ele>40.0</ele>
    <time>2020-06-14T06:30:52Z</time>
   </trkpt>
   <trkpt lat="51.1588160" lon="5.6052720">
    <ele>40.0</ele>
    <time>2020-06-14T06:30:53Z</time>
   </trkpt>
   <trkpt lat="51.1587510" lon="5.6052380">
    <ele>40.1</ele>
    <time>2020-06-14T06:30:54Z</time>
   </trkpt>
   <trkpt lat="51.1586860" lon="5.6052000">
    <ele>40.1</ele>
    <time>2020-06-14T06:30:55Z</time>
   </trkpt>
   <trkpt lat="51.1586210" lon="5.6051640">
    <ele>40.2</ele>
    <time>2020-06-14T06:30:56Z</time>
   </trkpt>
   <trkpt lat="51.1585540" lon="5.6051330">
    <ele>40.2</ele>
    <time>2020-06-14T06:30:57Z</time>
   </trkpt>
   <trkpt lat="51.1584830" lon="5.6051050">
    <ele>40.2</ele>
    <time>2020-06-14T06:30:58Z</time>
   </trkpt>
   <trkpt lat="51.1584160" lon="5.6050780">
    <ele>40.2</ele>
    <time>2020-06-14T06:30:59Z</time>
   </trkpt>
   <trkpt lat="51.1583490" lon="5.6050570">
    <ele>40.2</ele>
    <time>2020-06-14T06:31:00Z</time>
   </trkpt>
   <trkpt lat="51.1582840" lon="5.6050300">
    <ele>40.2</ele>
    <time>2020-06-14T06:31:01Z</time>
   </trkpt>
   <trkpt lat="51.1582160" lon="5.6050040">
    <ele>40.3</ele>
    <time>2020-06-14T06:31:02Z</time>
   </trkpt>
   <trkpt lat="51.1581500" lon="5.6049650">
    <ele>40.3</ele>
    <time>2020-06-14T06:31:03Z</time>
   </trkpt>
   <trkpt lat="51.1580870" lon="5.6049320">
    <ele>40.3</ele>
    <time>2020-06-14T06:31:04Z</time>
   </trkpt>
   <trkpt lat="51.1580220" lon="5.6049060">
    <ele>40.4</ele>
    <time>2020-06-14T06:31:05Z</time>
   </trkpt>
   <trkpt lat="51.1579570" lon="5.6048770">
    <ele>40.4</ele>
    <time>2020-06-14T06:31:06Z</time>
   </trkpt>
   <trkpt lat="51.1578860" lon="5.6048500">
    <ele>40.4</ele>
    <time>2020-06-14T06:31:07Z</time>
   </trkpt>
   <trkpt lat="51.1578160" lon="5.6048270">
    <ele>40.5</ele>
    <time>2020-06-14T06:31:08Z</time>
   </trkpt>
   <trkpt lat="51.1577490" lon="5.6047970">
    <ele>40.5</ele>
    <time>2020-06-14T06:31:09Z</time>
   </trkpt>
   <trkpt lat="51.1576840" lon="5.6047610">
    <ele>40.5</ele>
    <time>2020-06-14T06:31:10Z</time>
   </trkpt>
   <trkpt lat="51.1576200" lon="5.6047230">
    <ele>40.6</ele>
    <time>2020-06-14T06:31:11Z</time>
   </trkpt>
   <trkpt lat="51.1575540" lon="5.6046850">
    <ele>40.6</ele>
    <time>2020-06-14T06:31:12Z</time>
   </trkpt>
   <trkpt lat="51.1574890" lon="5.6046540">
    <ele>40.6</ele>
    <time>2020-06-14T06:31:13Z</time>
   </trkpt>
   <trkpt lat="51.1574260" lon="5.6046230">
    <ele>40.6</ele>
    <time>2020-06-14T06:31:14Z</time>
   </trkpt>
   <trkpt lat="51.1573620" lon="5.6045990">
    <ele>40.6</ele>
    <time>2020-06-14T06:31:15Z</time>
   </trkpt>
   <trkpt lat="51.1572980" lon="5.6045710">
    <ele>40.7</ele>
    <time>2020-06-14T06:31:16Z</time>
   </trkpt>
   <trkpt lat="51.1572340" lon="5.6045440">
    <ele>40.7</ele>
    <time>2020-06-14T06:31:17Z</time>
   </trkpt>
   <trkpt lat="51.1571690" lon="5.6045130">
    <ele>40.7</ele>
    <time>2020-06-14T06:31:18Z</time>
   </trkpt>
   <trkpt lat="51.1571020" lon="5.6044810">
    <ele>40.7</ele>
    <time>2020-06-14T06:31:19Z</time>
   </trkpt>
   <trkpt lat="51.1570360" lon="5.6044430">
    <ele>40.7</ele>
    <time>2020-06-14T06:31:20Z</time>
   </trkpt>
   <trkpt lat="51.1569700" lon="5.6043960">
    <ele>40.7</ele>
    <time>2020-06-14T06:31:21Z</time>
   </trkpt>
   <trkpt lat="51.1569030" lon="5.6043580">
    <ele>40.7</ele>
    <time>2020-06-14T06:31:22Z</time>
   </trkpt>
   <trkpt lat="51.1568390" lon="5.6043250">
    <ele>40.7</ele>
    <time>2020-06-14T06:31:23Z</time>
   </trkpt>
   <trkpt lat="51.1567800" lon="5.6042840">
    <ele>40.7</ele>
    <time>2020-06-14T06:31:24Z</time>
   </trkpt>
   <trkpt lat="51.1567190" lon="5.6042420">
    <ele>40.7</ele>
    <time>2020-06-14T06:31:25Z</time>
   </trkpt>
   <trkpt lat="51.1566570" lon="5.6041980">
    <ele>40.7</ele>
    <time>2020-06-14T06:31:26Z</time>
   </trkpt>
   <trkpt lat="51.1565940" lon="5.6041480">
    <ele>40.7</ele>
    <time>2020-06-14T06:31:27Z</time>
   </trkpt>
   <trkpt lat="51.1565320" lon="5.6040930">
    <ele>40.7</ele>
    <time>2020-06-14T06:31:28Z</time>
   </trkpt>
   <trkpt lat="51.1564690" lon="5.6040470">
    <ele>40.7</ele>
    <time>2020-06-14T06:31:29Z</time>
   </trkpt>
   <trkpt lat="51.1564090" lon="5.6039930">
    <ele>40.6</ele>
    <time>2020-06-14T06:31:30Z</time>
   </trkpt>
   <trkpt lat="51.1563500" lon="5.6039390">
    <ele>40.6</ele>
    <time>2020-06-14T06:31:31Z</time>
   </trkpt>
   <trkpt lat="51.1562890" lon="5.6038970">
    <ele>40.6</ele>
    <time>2020-06-14T06:31:32Z</time>
   </trkpt>
   <trkpt lat="51.1562270" lon="5.6038420">
    <ele>40.6</ele>
    <time>2020-06-14T06:31:33Z</time>
   </trkpt>
   <trkpt lat="51.1561670" lon="5.6037850">
    <ele>40.6</ele>
    <time>2020-06-14T06:31:34Z</time>
   </trkpt>
   <trkpt lat="51.1561110" lon="5.6037190">
    <ele>40.6</ele>
    <time>2020-06-14T06:31:35Z</time>
   </trkpt>
   <trkpt lat="51.1560560" lon="5.6036530">
    <ele>40.6</ele>
    <time>2020-06-14T06:31:36Z</time>
   </trkpt>
   <trkpt lat="51.1560060" lon="5.6035910">
    <ele>40.6</ele>
    <time>2020-06-14T06:31:37Z</time>
   </trkpt>
   <trkpt lat="51.1559560" lon="5.6035270">
    <ele>40.5</ele>
    <time>2020-06-14T06:31:38Z</time>
   </trkpt>
   <trkpt lat="51.1559080" lon="5.6034600">
    <ele>40.5</ele>
    <time>2020-06-14T06:31:39Z</time>
   </trkpt>
   <trkpt lat="51.1558610" lon="5.6033990">
    <ele>40.5</ele>
    <time>2020-06-14T06:31:40Z</time>
   </trkpt>
   <trkpt lat="51.1558140" lon="5.6033280">
    <ele>40.4</ele>
    <time>2020-06-14T06:31:41Z</time>
   </trkpt>
   <trkpt lat="51.1557650" lon="5.6032570">
    <ele>40.4</ele>
    <time>2020-06-14T06:31:42Z</time>
   </trkpt>
   <trkpt lat="51.1557180" lon="5.6031880">
    <ele>40.4</ele>
    <time>2020-06-14T06:31:43Z</time>
   </trkpt>
   <trkpt lat="51.1556750" lon="5.6031140">
    <ele>40.4</ele>
    <time>2020-06-14T06:31:44Z</time>
   </trkpt>
   <trkpt lat="51.1556360" lon="5.6030380">
    <ele>40.4</ele>
    <time>2020-06-14T06:31:45Z</time>
   </trkpt>
   <trkpt lat="51.1555970" lon="5.6029630">
    <ele>40.4</ele>
    <time>2020-06-14T06:31:46Z</time>
   </trkpt>
   <trkpt lat="51.1555630" lon="5.6028930">
    <ele>40.4</ele>
    <time>2020-06-14T06:31:47Z</time>
   </trkpt>
   <trkpt lat="51.1555250" lon="5.6028260">
    <ele>40.4</ele>
    <time>2020-06-14T06:31:48Z</time>
   </trkpt>
   <trkpt lat="51.1554850" lon="5.6027670">
    <ele>40.4</ele>
    <time>2020-06-14T06:31:49Z</time>
   </trkpt>
   <trkpt lat="51.1554480" lon="5.6027150">
    <ele>40.4</ele>
    <time>2020-06-14T06:31:50Z</time>
   </trkpt>
   <trkpt lat="51.1554050" lon="5.6026840">
    <ele>40.4</ele>
    <time>2020-06-14T06:31:51Z</time>
   </trkpt>
   <trkpt lat="51.1553620" lon="5.6026620">
    <ele>40.4</ele>
    <time>2020-06-14T06:31:52Z</time>
   </trkpt>
   <trkpt lat="51.1553260" lon="5.6026310">
    <ele>40.4</ele>
    <time>2020-06-14T06:31:53Z</time>
   </trkpt>
   <trkpt lat="51.1552890" lon="5.6025880">
    <ele>40.4</ele>
    <time>2020-06-14T06:31:54Z</time>
   </trkpt>
   <trkpt lat="51.1552640" lon="5.6025120">
    <ele>40.4</ele>
    <time>2020-06-14T06:31:55Z</time>
   </trkpt>
   <trkpt lat="51.1552640" lon="5.6024320">
    <ele>40.4</ele>
    <time>2020-06-14T06:31:56Z</time>
   </trkpt>
   <trkpt lat="51.1552770" lon="5.6023610">
    <ele>40.4</ele>
    <time>2020-06-14T06:31:57Z</time>
   </trkpt>
   <trkpt lat="51.1552840" lon="5.6022960">
    <ele>40.4</ele>
    <time>2020-06-14T06:31:58Z</time>
   </trkpt>
   <trkpt lat="51.1552870" lon="5.6022340">
    <ele>40.5</ele>
    <time>2020-06-14T06:31:59Z</time>
   </trkpt>
   <trkpt lat="51.1552820" lon="5.6021840">
    <ele>40.5</ele>
    <time>2020-06-14T06:32:00Z</time>
   </trkpt>
   <trkpt lat="51.1552850" lon="5.6021230">
    <ele>40.5</ele>
    <time>2020-06-14T06:32:01Z</time>
   </trkpt>
   <trkpt lat="51.1552880" lon="5.6020500">
    <ele>40.6</ele>
    <time>2020-06-14T06:32:02Z</time>
   </trkpt>
   <trkpt lat="51.1552910" lon="5.6019780">
    <ele>40.7</ele>
    <time>2020-06-14T06:32:03Z</time>
   </trkpt>
   <trkpt lat="51.1552670" lon="5.6019080">
    <ele>40.7</ele>
    <time>2020-06-14T06:32:04Z</time>
   </trkpt>
   <trkpt lat="51.1552390" lon="5.6018310">
    <ele>40.8</ele>
    <time>2020-06-14T06:32:05Z</time>
   </trkpt>
   <trkpt lat="51.1552180" lon="5.6017410">
    <ele>40.8</ele>
    <time>2020-06-14T06:32:06Z</time>
   </trkpt>
   <trkpt lat="51.1552000" lon="5.6016490">
    <ele>40.8</ele>
    <time>2020-06-14T06:32:07Z</time>
   </trkpt>
   <trkpt lat="51.1551860" lon="5.6015520">
    <ele>40.9</ele>
    <time>2020-06-14T06:32:08Z</time>
   </trkpt>
   <trkpt lat="51.1551260" lon="5.6014680">
    <ele>40.9</ele>
    <time>2020-06-14T06:32:09Z</time>
   </trkpt>
   <trkpt lat="51.1551080" lon="5.6013610">
    <ele>40.9</ele>
    <time>2020-06-14T06:32:10Z</time>
   </trkpt>
   <trkpt lat="51.1550890" lon="5.6012480">
    <ele>40.9</ele>
    <time>2020-06-14T06:32:11Z</time>
   </trkpt>
   <trkpt lat="51.1550710" lon="5.6011300">
    <ele>41.0</ele>
    <time>2020-06-14T06:32:12Z</time>
   </trkpt>
   <trkpt lat="51.1550480" lon="5.6010180">
    <ele>41.0</ele>
    <time>2020-06-14T06:32:13Z</time>
   </trkpt>
   <trkpt lat="51.1550240" lon="5.6009100">
    <ele>41.0</ele>
    <time>2020-06-14T06:32:14Z</time>
   </trkpt>
   <trkpt lat="51.1550020" lon="5.6007950">
    <ele>41.1</ele>
    <time>2020-06-14T06:32:15Z</time>
   </trkpt>
   <trkpt lat="51.1549770" lon="5.6006850">
    <ele>41.1</ele>
    <time>2020-06-14T06:32:16Z</time>
   </trkpt>
   <trkpt lat="51.1549510" lon="5.6005740">
    <ele>41.2</ele>
    <time>2020-06-14T06:32:17Z</time>
   </trkpt>
   <trkpt lat="51.1549240" lon="5.6004630">
    <ele>41.2</ele>
    <time>2020-06-14T06:32:18Z</time>
   </trkpt>
   <trkpt lat="51.1549000" lon="5.6003590">
    <ele>41.2</ele>
    <time>2020-06-14T06:32:19Z</time>
   </trkpt>
   <trkpt lat="51.1548770" lon="5.6002510">
    <ele>41.3</ele>
    <time>2020-06-14T06:32:20Z</time>
   </trkpt>
   <trkpt lat="51.1548530" lon="5.6001470">
    <ele>41.3</ele>
    <time>2020-06-14T06:32:21Z</time>
   </trkpt>
   <trkpt lat="51.1548320" lon="5.6000320">
    <ele>41.3</ele>
    <time>2020-06-14T06:32:22Z</time>
   </trkpt>
   <trkpt lat="51.1548110" lon="5.5999280">
    <ele>41.3</ele>
    <time>2020-06-14T06:32:23Z</time>
   </trkpt>
   <trkpt lat="51.1547870" lon="5.5998130">
    <ele>41.4</ele>
    <time>2020-06-14T06:32:24Z</time>
   </trkpt>
   <trkpt lat="51.1547640" lon="5.5997030">
    <ele>41.4</ele>
    <time>2020-06-14T06:32:25Z</time>
   </trkpt>
   <trkpt lat="51.1547440" lon="5.5995830">
    <ele>41.5</ele>
    <time>2020-06-14T06:32:26Z</time>
   </trkpt>
   <trkpt lat="51.1547190" lon="5.5994650">
    <ele>41.5</ele>
    <time>2020-06-14T06:32:27Z</time>
   </trkpt>
   <trkpt lat="51.1546990" lon="5.5993550">
    <ele>41.5</ele>
    <time>2020-06-14T06:32:28Z</time>
   </trkpt>
   <trkpt lat="51.1546730" lon="5.5992380">
    <ele>41.5</ele>
    <time>2020-06-14T06:32:29Z</time>
   </trkpt>
   <trkpt lat="51.1546420" lon="5.5991330">
    <ele>41.5</ele>
    <time>2020-06-14T06:32:30Z</time>
   </trkpt>
   <trkpt lat="51.1546150" lon="5.5990270">
    <ele>41.5</ele>
    <time>2020-06-14T06:32:31Z</time>
   </trkpt>
   <trkpt lat="51.1545860" lon="5.5989170">
    <ele>41.5</ele>
    <time>2020-06-14T06:32:32Z</time>
   </trkpt>
   <trkpt lat="51.1545580" lon="5.5988040">
    <ele>41.6</ele>
    <time>2020-06-14T06:32:33Z</time>
   </trkpt>
   <trkpt lat="51.1545360" lon="5.5986960">
    <ele>41.6</ele>
    <time>2020-06-14T06:32:34Z</time>
   </trkpt>
   <trkpt lat="51.1545180" lon="5.5985840">
    <ele>41.6</ele>
    <time>2020-06-14T06:32:35Z</time>
   </trkpt>
   <trkpt lat="51.1545050" lon="5.5984740">
    <ele>41.6</ele>
    <time>2020-06-14T06:32:36Z</time>
   </trkpt>
   <trkpt lat="51.1544890" lon="5.5983720">
    <ele>41.6</ele>
    <time>2020-06-14T06:32:37Z</time>
   </trkpt>
   <trkpt lat="51.1544770" lon="5.5982660">
    <ele>41.6</ele>
    <time>2020-06-14T06:32:38Z</time>
   </trkpt>
   <trkpt lat="51.1544630" lon="5.5981590">
    <ele>41.7</ele>
    <time>2020-06-14T06:32:39Z</time>
   </trkpt>
   <trkpt lat="51.1544450" lon="5.5980540">
    <ele>41.8</ele>
    <time>2020-06-14T06:32:40Z</time>
   </trkpt>
   <trkpt lat="51.1544290" lon="5.5979490">
    <ele>41.8</ele>
    <time>2020-06-14T06:32:41Z</time>
   </trkpt>
   <trkpt lat="51.1544140" lon="5.5978410">
    <ele>41.9</ele>
    <time>2020-06-14T06:32:42Z</time>
   </trkpt>
   <trkpt lat="51.1543970" lon="5.5977340">
    <ele>41.9</ele>
    <time>2020-06-14T06:32:43Z</time>
   </trkpt>
   <trkpt lat="51.1543810" lon="5.5976270">
    <ele>41.9</ele>
    <time>2020-06-14T06:32:44Z</time>
   </trkpt>
   <trkpt lat="51.1543610" lon="5.5975180">
    <ele>41.9</ele>
    <time>2020-06-14T06:32:45Z</time>
   </trkpt>
   <trkpt lat="51.1543400" lon="5.5974050">
    <ele>41.9</ele>
    <time>2020-06-14T06:32:46Z</time>
   </trkpt>
   <trkpt lat="51.1543240" lon="5.5972950">
    <ele>41.9</ele>
    <time>2020-06-14T06:32:47Z</time>
   </trkpt>
   <trkpt lat="51.1543090" lon="5.5971870">
    <ele>41.9</ele>
    <time>2020-06-14T06:32:48Z</time>
   </trkpt>
   <trkpt lat="51.1542950" lon="5.5970810">
    <ele>42.0</ele>
    <time>2020-06-14T06:32:49Z</time>
   </trkpt>
   <trkpt lat="51.1542820" lon="5.5969750">
    <ele>42.0</ele>
    <time>2020-06-14T06:32:50Z</time>
   </trkpt>
   <trkpt lat="51.1542660" lon="5.5968730">
    <ele>42.0</ele>
    <time>2020-06-14T06:32:51Z</time>
   </trkpt>
   <trkpt lat="51.1542490" lon="5.5967730">
    <ele>42.0</ele>
    <time>2020-06-14T06:32:52Z</time>
   </trkpt>
   <trkpt lat="51.1542290" lon="5.5966740">
    <ele>42.1</ele>
    <time>2020-06-14T06:32:53Z</time>
   </trkpt>
   <trkpt lat="51.1542130" lon="5.5965760">
    <ele>42.1</ele>
    <time>2020-06-14T06:32:54Z</time>
   </trkpt>
   <trkpt lat="51.1541970" lon="5.5964810">
    <ele>42.1</ele>
    <time>2020-06-14T06:32:55Z</time>
   </trkpt>
   <trkpt lat="51.1541850" lon="5.5963900">
    <ele>42.2</ele>
    <time>2020-06-14T06:32:56Z</time>
   </trkpt>
   <trkpt lat="51.1541730" lon="5.5962990">
    <ele>42.2</ele>
    <time>2020-06-14T06:32:57Z</time>
   </trkpt>
   <trkpt lat="51.1541650" lon="5.5962000">
    <ele>42.3</ele>
    <time>2020-06-14T06:32:58Z</time>
   </trkpt>
   <trkpt lat="51.1541570" lon="5.5961040">
    <ele>42.3</ele>
    <time>2020-06-14T06:32:59Z</time>
   </trkpt>
   <trkpt lat="51.1541520" lon="5.5960120">
    <ele>42.3</ele>
    <time>2020-06-14T06:33:00Z</time>
   </trkpt>
   <trkpt lat="51.1541450" lon="5.5959270">
    <ele>42.3</ele>
    <time>2020-06-14T06:33:01Z</time>
   </trkpt>
   <trkpt lat="51.1541260" lon="5.5958510">
    <ele>42.4</ele>
    <time>2020-06-14T06:33:02Z</time>
   </trkpt>
   <trkpt lat="51.1541250" lon="5.5957720">
    <ele>42.4</ele>
    <time>2020-06-14T06:33:03Z</time>
   </trkpt>
   <trkpt lat="51.1541110" lon="5.5957020">
    <ele>42.4</ele>
    <time>2020-06-14T06:33:04Z</time>
   </trkpt>
   <trkpt lat="51.1540900" lon="5.5956380">
    <ele>42.5</ele>
    <time>2020-06-14T06:33:05Z</time>
   </trkpt>
   <trkpt lat="51.1540650" lon="5.5955790">
    <ele>42.5</ele>
    <time>2020-06-14T06:33:06Z</time>
   </trkpt>
   <trkpt lat="51.1540480" lon="5.5955160">
    <ele>42.6</ele>
    <time>2020-06-14T06:33:07Z</time>
   </trkpt>
   <trkpt lat="51.1540460" lon="5.5954500">
    <ele>42.7</ele>
    <time>2020-06-14T06:33:08Z</time>
   </trkpt>
   <trkpt lat="51.1540460" lon="5.5953850">
    <ele>42.8</ele>
    <time>2020-06-14T06:33:09Z</time>
   </trkpt>
   <trkpt lat="51.1540380" lon="5.5953180">
    <ele>42.8</ele>
    <time>2020-06-14T06:33:10Z</time>
   </trkpt>
   <trkpt lat="51.1540270" lon="5.5952460">
    <ele>42.8</ele>
    <time>2020-06-14T06:33:11Z</time>
   </trkpt>
   <trkpt lat="51.1540220" lon="5.5951600">
    <ele>42.8</ele>
    <time>2020-06-14T06:33:12Z</time>
   </trkpt>
   <trkpt lat="51.1540180" lon="5.5950670">
    <ele>42.8</ele>
    <time>2020-06-14T06:33:13Z</time>
   </trkpt>
   <trkpt lat="51.1540030" lon="5.5949740">
    <ele>42.8</ele>
    <time>2020-06-14T06:33:14Z</time>
   </trkpt>
   <trkpt lat="51.1539900" lon="5.5948790">
    <ele>42.8</ele>
    <time>2020-06-14T06:33:15Z</time>
   </trkpt>
   <trkpt lat="51.1539850" lon="5.5947750">
    <ele>42.8</ele>
    <time>2020-06-14T06:33:16Z</time>
   </trkpt>
   <trkpt lat="51.1539810" lon="5.5946650">
    <ele>42.7</ele>
    <time>2020-06-14T06:33:17Z</time>
   </trkpt>
   <trkpt lat="51.1539720" lon="5.5945530">
    <ele>42.7</ele>
    <time>2020-06-14T06:33:18Z</time>
   </trkpt>
   <trkpt lat="51.1539650" lon="5.5944390">
    <ele>42.6</ele>
    <time>2020-06-14T06:33:19Z</time>
   </trkpt>
   <trkpt lat="51.1539570" lon="5.5943250">
    <ele>42.6</ele>
    <time>2020-06-14T06:33:20Z</time>
   </trkpt>
   <trkpt lat="51.1539460" lon="5.5942080">
    <ele>42.6</ele>
    <time>2020-06-14T06:33:21Z</time>
   </trkpt>
   <trkpt lat="51.1539420" lon="5.5940870">
    <ele>42.5</ele>
    <time>2020-06-14T06:33:22Z</time>
   </trkpt>
   <trkpt lat="51.1539360" lon="5.5939630">
    <ele>42.5</ele>
    <time>2020-06-14T06:33:23Z</time>
   </trkpt>
   <trkpt lat="51.1539310" lon="5.5938420">
    <ele>42.5</ele>
    <time>2020-06-14T06:33:24Z</time>
   </trkpt>
   <trkpt lat="51.1539300" lon="5.5937110">
    <ele>42.5</ele>
    <time>2020-06-14T06:33:25Z</time>
   </trkpt>
   <trkpt lat="51.1539320" lon="5.5935890">
    <ele>42.5</ele>
    <time>2020-06-14T06:33:26Z</time>
   </trkpt>
   <trkpt lat="51.1539340" lon="5.5934890">
    <ele>42.5</ele>
    <time>2020-06-14T06:33:27Z</time>
   </trkpt>
   <trkpt lat="51.1539360" lon="5.5933900">
    <ele>42.5</ele>
    <time>2020-06-14T06:33:28Z</time>
   </trkpt>
   <trkpt lat="51.1539390" lon="5.5932830">
    <ele>42.5</ele>
    <time>2020-06-14T06:33:29Z</time>
   </trkpt>
   <trkpt lat="51.1539390" lon="5.5931720">
    <ele>42.5</ele>
    <time>2020-06-14T06:33:30Z</time>
   </trkpt>
   <trkpt lat="51.1539420" lon="5.5930650">
    <ele>42.4</ele>
    <time>2020-06-14T06:33:31Z</time>
   </trkpt>
   <trkpt lat="51.1539470" lon="5.5929640">
    <ele>42.4</ele>
    <time>2020-06-14T06:33:32Z</time>
   </trkpt>
   <trkpt lat="51.1539540" lon="5.5928510">
    <ele>42.4</ele>
    <time>2020-06-14T06:33:33Z</time>
   </trkpt>
   <trkpt lat="51.1539540" lon="5.5927440">
    <ele>42.4</ele>
    <time>2020-06-14T06:33:34Z</time>
   </trkpt>
   <trkpt lat="51.1539630" lon="5.5926340">
    <ele>42.4</ele>
    <time>2020-06-14T06:33:35Z</time>
   </trkpt>
   <trkpt lat="51.1539760" lon="5.5925320">
    <ele>42.4</ele>
    <time>2020-06-14T06:33:36Z</time>
   </trkpt>
   <trkpt lat="51.1539980" lon="5.5924280">
    <ele>42.4</ele>
    <time>2020-06-14T06:33:37Z</time>
   </trkpt>
   <trkpt lat="51.1540190" lon="5.5923220">
    <ele>42.5</ele>
    <time>2020-06-14T06:33:38Z</time>
   </trkpt>
   <trkpt lat="51.1540450" lon="5.5922190">
    <ele>42.5</ele>
    <time>2020-06-14T06:33:39Z</time>
   </trkpt>
   <trkpt lat="51.1540670" lon="5.5921160">
    <ele>42.6</ele>
    <time>2020-06-14T06:33:40Z</time>
   </trkpt>
   <trkpt lat="51.1540940" lon="5.5920180">
    <ele>42.6</ele>
    <time>2020-06-14T06:33:41Z</time>
   </trkpt>
   <trkpt lat="51.1541220" lon="5.5919210">
    <ele>42.7</ele>
    <time>2020-06-14T06:33:42Z</time>
   </trkpt>
   <trkpt lat="51.1541490" lon="5.5918210">
    <ele>42.7</ele>
    <time>2020-06-14T06:33:43Z</time>
   </trkpt>
   <trkpt lat="51.1541710" lon="5.5917220">
    <ele>42.8</ele>
    <time>2020-06-14T06:33:44Z</time>
   </trkpt>
   <trkpt lat="51.1541900" lon="5.5916260">
    <ele>42.8</ele>
    <time>2020-06-14T06:33:45Z</time>
   </trkpt>
   <trkpt lat="51.1542090" lon="5.5915300">
    <ele>42.8</ele>
    <time>2020-06-14T06:33:46Z</time>
   </trkpt>
   <trkpt lat="51.1542300" lon="5.5914400">
    <ele>42.9</ele>
    <time>2020-06-14T06:33:47Z</time>
   </trkpt>
   <trkpt lat="51.1542470" lon="5.5913430">
    <ele>42.9</ele>
    <time>2020-06-14T06:33:48Z</time>
   </trkpt>
   <trkpt lat="51.1542680" lon="5.5912560">
    <ele>43.0</ele>
    <time>2020-06-14T06:33:49Z</time>
   </trkpt>
   <trkpt lat="51.1542760" lon="5.5911600">
    <ele>43.0</ele>
    <time>2020-06-14T06:33:50Z</time>
   </trkpt>
   <trkpt lat="51.1542650" lon="5.5910610">
    <ele>43.0</ele>
    <time>2020-06-14T06:33:51Z</time>
   </trkpt>
   <trkpt lat="51.1542410" lon="5.5909540">
    <ele>43.1</ele>
    <time>2020-06-14T06:33:52Z</time>
   </trkpt>
   <trkpt lat="51.1542120" lon="5.5908520">
    <ele>43.1</ele>
    <time>2020-06-14T06:33:53Z</time>
   </trkpt>
   <trkpt lat="51.1541780" lon="5.5907560">
    <ele>43.1</ele>
    <time>2020-06-14T06:33:54Z</time>
   </trkpt>
   <trkpt lat="51.1541480" lon="5.5906610">
    <ele>43.1</ele>
    <time>2020-06-14T06:33:55Z</time>
   </trkpt>
   <trkpt lat="51.1541220" lon="5.5905620">
    <ele>43.1</ele>
    <time>2020-06-14T06:33:56Z</time>
   </trkpt>
   <trkpt lat="51.1540940" lon="5.5904620">
    <ele>43.0</ele>
    <time>2020-06-14T06:33:57Z</time>
   </trkpt>
   <trkpt lat="51.1540640" lon="5.5903600">
    <ele>43.0</ele>
    <time>2020-06-14T06:33:58Z</time>
   </trkpt>
   <trkpt lat="51.1540360" lon="5.5902700">
    <ele>42.9</ele>
    <time>2020-06-14T06:33:59Z</time>
   </trkpt>
   <trkpt lat="51.1540070" lon="5.5901610">
    <ele>42.9</ele>
    <time>2020-06-14T06:34:00Z</time>
   </trkpt>
   <trkpt lat="51.1539790" lon="5.5900520">
    <ele>42.8</ele>
    <time>2020-06-14T06:34:01Z</time>
   </trkpt>
   <trkpt lat="51.1539540" lon="5.5899430">
    <ele>42.8</ele>
    <time>2020-06-14T06:34:02Z</time>
   </trkpt>
   <trkpt lat="51.1539320" lon="5.5898330">
    <ele>42.7</ele>
    <time>2020-06-14T06:34:03Z</time>
   </trkpt>
   <trkpt lat="51.1539180" lon="5.5897240">
    <ele>42.7</ele>
    <time>2020-06-14T06:34:04Z</time>
   </trkpt>
   <trkpt lat="51.1539080" lon="5.5896190">
    <ele>42.6</ele>
    <time>2020-06-14T06:34:05Z</time>
   </trkpt>
   <trkpt lat="51.1539080" lon="5.5895060">
    <ele>42.6</ele>
    <time>2020-06-14T06:34:06Z</time>
   </trkpt>
   <trkpt lat="51.1539160" lon="5.5894010">
    <ele>42.5</ele>
    <time>2020-06-14T06:34:07Z</time>
   </trkpt>
   <trkpt lat="51.1539220" lon="5.5892850">
    <ele>42.5</ele>
    <time>2020-06-14T06:34:08Z</time>
   </trkpt>
   <trkpt lat="51.1539320" lon="5.5891740">
    <ele>42.5</ele>
    <time>2020-06-14T06:34:09Z</time>
   </trkpt>
   <trkpt lat="51.1539480" lon="5.5890710">
    <ele>42.5</ele>
    <time>2020-06-14T06:34:10Z</time>
   </trkpt>
   <trkpt lat="51.1539700" lon="5.5889680">
    <ele>42.5</ele>
    <time>2020-06-14T06:34:11Z</time>
   </trkpt>
   <trkpt lat="51.1539940" lon="5.5888660">
    <ele>42.5</ele>
    <time>2020-06-14T06:34:12Z</time>
   </trkpt>
   <trkpt lat="51.1540190" lon="5.5887650">
    <ele>42.5</ele>
    <time>2020-06-14T06:34:13Z</time>
   </trkpt>
   <trkpt lat="51.1540450" lon="5.5886570">
    <ele>42.5</ele>
    <time>2020-06-14T06:34:14Z</time>
   </trkpt>
   <trkpt lat="51.1540750" lon="5.5885510">
    <ele>42.5</ele>
    <time>2020-06-14T06:34:15Z</time>
   </trkpt>
   <trkpt lat="51.1541110" lon="5.5884440">
    <ele>42.5</ele>
    <time>2020-06-14T06:34:16Z</time>
   </trkpt>
   <trkpt lat="51.1541440" lon="5.5883360">
    <ele>42.5</ele>
    <time>2020-06-14T06:34:17Z</time>
   </trkpt>
   <trkpt lat="51.1541710" lon="5.5882380">
    <ele>42.5</ele>
    <time>2020-06-14T06:34:18Z</time>
   </trkpt>
   <trkpt lat="51.1542430" lon="5.5880940">
    <ele>42.6</ele>
    <time>2020-06-14T06:34:19Z</time>
   </trkpt>
   <trkpt lat="51.1542870" lon="5.5880500">
    <ele>42.6</ele>
    <time>2020-06-14T06:34:20Z</time>
   </trkpt>
   <trkpt lat="51.1543320" lon="5.5880050">
    <ele>42.6</ele>
    <time>2020-06-14T06:34:21Z</time>
   </trkpt>
   <trkpt lat="51.1543490" lon="5.5879260">
    <ele>42.6</ele>
    <time>2020-06-14T06:34:22Z</time>
   </trkpt>
   <trkpt lat="51.1543750" lon="5.5878410">
    <ele>42.7</ele>
    <time>2020-06-14T06:34:23Z</time>
   </trkpt>
   <trkpt lat="51.1544050" lon="5.5877540">
    <ele>42.6</ele>
    <time>2020-06-14T06:34:24Z</time>
   </trkpt>
   <trkpt lat="51.1544390" lon="5.5876700">
    <ele>42.5</ele>
    <time>2020-06-14T06:34:25Z</time>
   </trkpt>
   <trkpt lat="51.1544810" lon="5.5875830">
    <ele>42.4</ele>
    <time>2020-06-14T06:34:26Z</time>
   </trkpt>
   <trkpt lat="51.1545280" lon="5.5875010">
    <ele>42.4</ele>
    <time>2020-06-14T06:34:27Z</time>
   </trkpt>
   <trkpt lat="51.1545810" lon="5.5874260">
    <ele>42.4</ele>
    <time>2020-06-14T06:34:28Z</time>
   </trkpt>
   <trkpt lat="51.1546300" lon="5.5873510">
    <ele>42.4</ele>
    <time>2020-06-14T06:34:29Z</time>
   </trkpt>
   <trkpt lat="51.1546730" lon="5.5872700">
    <ele>42.3</ele>
    <time>2020-06-14T06:34:30Z</time>
   </trkpt>
   <trkpt lat="51.1547110" lon="5.5871810">
    <ele>42.3</ele>
    <time>2020-06-14T06:34:31Z</time>
   </trkpt>
   <trkpt lat="51.1547460" lon="5.5870880">
    <ele>42.3</ele>
    <time>2020-06-14T06:34:32Z</time>
   </trkpt>
   <trkpt lat="51.1547810" lon="5.5869990">
    <ele>42.3</ele>
    <time>2020-06-14T06:34:33Z</time>
   </trkpt>
   <trkpt lat="51.1548120" lon="5.5869070">
    <ele>42.3</ele>
    <time>2020-06-14T06:34:34Z</time>
   </trkpt>
   <trkpt lat="51.1548470" lon="5.5868200">
    <ele>42.3</ele>
    <time>2020-06-14T06:34:35Z</time>
   </trkpt>
   <trkpt lat="51.1548730" lon="5.5867310">
    <ele>42.3</ele>
    <time>2020-06-14T06:34:36Z</time>
   </trkpt>
   <trkpt lat="51.1549010" lon="5.5866450">
    <ele>42.2</ele>
    <time>2020-06-14T06:34:37Z</time>
   </trkpt>
   <trkpt lat="51.1549210" lon="5.5865560">
    <ele>42.2</ele>
    <time>2020-06-14T06:34:38Z</time>
   </trkpt>
   <trkpt lat="51.1549400" lon="5.5864600">
    <ele>42.2</ele>
    <time>2020-06-14T06:34:39Z</time>
   </trkpt>
   <trkpt lat="51.1549600" lon="5.5863610">
    <ele>42.2</ele>
    <time>2020-06-14T06:34:40Z</time>
   </trkpt>
   <trkpt lat="51.1549760" lon="5.5862650">
    <ele>42.2</ele>
    <time>2020-06-14T06:34:41Z</time>
   </trkpt>
   <trkpt lat="51.1549710" lon="5.5861580">
    <ele>42.3</ele>
    <time>2020-06-14T06:34:42Z</time>
   </trkpt>
   <trkpt lat="51.1549620" lon="5.5860400">
    <ele>42.3</ele>
    <time>2020-06-14T06:34:43Z</time>
   </trkpt>
   <trkpt lat="51.1549430" lon="5.5859270">
    <ele>42.3</ele>
    <time>2020-06-14T06:34:44Z</time>
   </trkpt>
   <trkpt lat="51.1549210" lon="5.5858130">
    <ele>42.3</ele>
    <time>2020-06-14T06:34:45Z</time>
   </trkpt>
   <trkpt lat="51.1548910" lon="5.5857020">
    <ele>42.3</ele>
    <time>2020-06-14T06:34:46Z</time>
   </trkpt>
   <trkpt lat="51.1548650" lon="5.5856050">
    <ele>42.4</ele>
    <time>2020-06-14T06:34:47Z</time>
   </trkpt>
   <trkpt lat="51.1548400" lon="5.5855080">
    <ele>42.4</ele>
    <time>2020-06-14T06:34:48Z</time>
   </trkpt>
   <trkpt lat="51.1548160" lon="5.5854160">
    <ele>42.4</ele>
    <time>2020-06-14T06:34:49Z</time>
   </trkpt>
   <trkpt lat="51.1548000" lon="5.5853220">
    <ele>42.4</ele>
    <time>2020-06-14T06:34:50Z</time>
   </trkpt>
   <trkpt lat="51.1548010" lon="5.5852330">
    <ele>42.5</ele>
    <time>2020-06-14T06:34:51Z</time>
   </trkpt>
   <trkpt lat="51.1548170" lon="5.5851490">
    <ele>42.4</ele>
    <time>2020-06-14T06:34:52Z</time>
   </trkpt>
   <trkpt lat="51.1548520" lon="5.5850720">
    <ele>42.3</ele>
    <time>2020-06-14T06:34:53Z</time>
   </trkpt>
   <trkpt lat="51.1549100" lon="5.5850480">
    <ele>42.3</ele>
    <time>2020-06-14T06:34:54Z</time>
   </trkpt>
   <trkpt lat="51.1549670" lon="5.5850020">
    <ele>42.3</ele>
    <time>2020-06-14T06:34:55Z</time>
   </trkpt>
   <trkpt lat="51.1550220" lon="5.5849440">
    <ele>42.3</ele>
    <time>2020-06-14T06:34:56Z</time>
   </trkpt>
   <trkpt lat="51.1550790" lon="5.5848890">
    <ele>42.3</ele>
    <time>2020-06-14T06:34:57Z</time>
   </trkpt>
   <trkpt lat="51.1551420" lon="5.5848400">
    <ele>42.2</ele>
    <time>2020-06-14T06:34:58Z</time>
   </trkpt>
   <trkpt lat="51.1551980" lon="5.5847800">
    <ele>42.3</ele>
    <time>2020-06-14T06:34:59Z</time>
   </trkpt>
   <trkpt lat="51.1552550" lon="5.5847180">
    <ele>42.3</ele>
    <time>2020-06-14T06:35:00Z</time>
   </trkpt>
   <trkpt lat="51.1553130" lon="5.5846560">
    <ele>42.3</ele>
    <time>2020-06-14T06:35:01Z</time>
   </trkpt>
   <trkpt lat="51.1553700" lon="5.5845930">
    <ele>42.4</ele>
    <time>2020-06-14T06:35:02Z</time>
   </trkpt>
   <trkpt lat="51.1554230" lon="5.5845320">
    <ele>42.5</ele>
    <time>2020-06-14T06:35:03Z</time>
   </trkpt>
   <trkpt lat="51.1554710" lon="5.5844720">
    <ele>42.6</ele>
    <time>2020-06-14T06:35:04Z</time>
   </trkpt>
   <trkpt lat="51.1555180" lon="5.5844150">
    <ele>42.7</ele>
    <time>2020-06-14T06:35:05Z</time>
   </trkpt>
   <trkpt lat="51.1555660" lon="5.5843630">
    <ele>42.8</ele>
    <time>2020-06-14T06:35:06Z</time>
   </trkpt>
   <trkpt lat="51.1556150" lon="5.5843210">
    <ele>43.0</ele>
    <time>2020-06-14T06:35:07Z</time>
   </trkpt>
   <trkpt lat="51.1556590" lon="5.5842890">
    <ele>43.1</ele>
    <time>2020-06-14T06:35:08Z</time>
   </trkpt>
   <trkpt lat="51.1556940" lon="5.5842470">
    <ele>43.2</ele>
    <time>2020-06-14T06:35:09Z</time>
   </trkpt>
   <trkpt lat="51.1557240" lon="5.5842050">
    <ele>43.4</ele>
    <time>2020-06-14T06:35:10Z</time>
   </trkpt>
   <trkpt lat="51.1557540" lon="5.5841670">
    <ele>43.5</ele>
    <time>2020-06-14T06:35:11Z</time>
   </trkpt>
   <trkpt lat="51.1557830" lon="5.5841220">
    <ele>43.6</ele>
    <time>2020-06-14T06:35:12Z</time>
   </trkpt>
   <trkpt lat="51.1558070" lon="5.5840910">
    <ele>43.7</ele>
    <time>2020-06-14T06:35:13Z</time>
   </trkpt>
   <trkpt lat="51.1558120" lon="5.5840380">
    <ele>43.6</ele>
    <time>2020-06-14T06:35:14Z</time>
   </trkpt>
   <trkpt lat="51.1558070" lon="5.5840200">
    <ele>43.6</ele>
    <time>2020-06-14T06:35:15Z</time>
   </trkpt>
   <trkpt lat="51.1557690" lon="5.5839700">
    <ele>43.5</ele>
    <time>2020-06-14T06:35:16Z</time>
   </trkpt>
   <trkpt lat="51.1557380" lon="5.5838830">
    <ele>43.4</ele>
    <time>2020-06-14T06:35:17Z</time>
   </trkpt>
   <trkpt lat="51.1556950" lon="5.5838030">
    <ele>43.4</ele>
    <time>2020-06-14T06:35:18Z</time>
   </trkpt>
   <trkpt lat="51.1556480" lon="5.5837220">
    <ele>43.3</ele>
    <time>2020-06-14T06:35:19Z</time>
   </trkpt>
   <trkpt lat="51.1556030" lon="5.5836390">
    <ele>43.3</ele>
    <time>2020-06-14T06:35:20Z</time>
   </trkpt>
   <trkpt lat="51.1555340" lon="5.5835760">
    <ele>43.3</ele>
    <time>2020-06-14T06:35:21Z</time>
   </trkpt>
   <trkpt lat="51.1554760" lon="5.5835000">
    <ele>43.3</ele>
    <time>2020-06-14T06:35:22Z</time>
   </trkpt>
   <trkpt lat="51.1554250" lon="5.5834150">
    <ele>43.3</ele>
    <time>2020-06-14T06:35:23Z</time>
   </trkpt>
   <trkpt lat="51.1553790" lon="5.5833220">
    <ele>43.4</ele>
    <time>2020-06-14T06:35:24Z</time>
   </trkpt>
   <trkpt lat="51.1553330" lon="5.5832220">
    <ele>43.4</ele>
    <time>2020-06-14T06:35:25Z</time>
   </trkpt>
   <trkpt lat="51.1552870" lon="5.5831100">
    <ele>43.4</ele>
    <time>2020-06-14T06:35:26Z</time>
   </trkpt>
   <trkpt lat="51.1552390" lon="5.5830040">
    <ele>43.4</ele>
    <time>2020-06-14T06:35:27Z</time>
   </trkpt>
   <trkpt lat="51.1551920" lon="5.5828980">
    <ele>43.5</ele>
    <time>2020-06-14T06:35:28Z</time>
   </trkpt>
   <trkpt lat="51.1551420" lon="5.5828010">
    <ele>43.6</ele>
    <time>2020-06-14T06:35:29Z</time>
   </trkpt>
   <trkpt lat="51.1550920" lon="5.5827000">
    <ele>43.7</ele>
    <time>2020-06-14T06:35:30Z</time>
   </trkpt>
   <trkpt lat="51.1550400" lon="5.5826000">
    <ele>43.8</ele>
    <time>2020-06-14T06:35:31Z</time>
   </trkpt>
   <trkpt lat="51.1549890" lon="5.5824980">
    <ele>43.8</ele>
    <time>2020-06-14T06:35:32Z</time>
   </trkpt>
   <trkpt lat="51.1549380" lon="5.5823930">
    <ele>43.9</ele>
    <time>2020-06-14T06:35:33Z</time>
   </trkpt>
   <trkpt lat="51.1548870" lon="5.5822950">
    <ele>44.0</ele>
    <time>2020-06-14T06:35:34Z</time>
   </trkpt>
   <trkpt lat="51.1548470" lon="5.5822060">
    <ele>44.1</ele>
    <time>2020-06-14T06:35:35Z</time>
   </trkpt>
   <trkpt lat="51.1548020" lon="5.5821060">
    <ele>44.2</ele>
    <time>2020-06-14T06:35:36Z</time>
   </trkpt>
   <trkpt lat="51.1547600" lon="5.5820110">
    <ele>44.2</ele>
    <time>2020-06-14T06:35:37Z</time>
   </trkpt>
   <trkpt lat="51.1547180" lon="5.5819220">
    <ele>44.3</ele>
    <time>2020-06-14T06:35:38Z</time>
   </trkpt>
   <trkpt lat="51.1546850" lon="5.5818390">
    <ele>44.4</ele>
    <time>2020-06-14T06:35:39Z</time>
   </trkpt>
   <trkpt lat="51.1546500" lon="5.5817640">
    <ele>44.5</ele>
    <time>2020-06-14T06:35:40Z</time>
   </trkpt>
   <trkpt lat="51.1546120" lon="5.5816890">
    <ele>44.6</ele>
    <time>2020-06-14T06:35:41Z</time>
   </trkpt>
   <trkpt lat="51.1545630" lon="5.5816070">
    <ele>44.7</ele>
    <time>2020-06-14T06:35:42Z</time>
   </trkpt>
   <trkpt lat="51.1545140" lon="5.5815280">
    <ele>44.7</ele>
    <time>2020-06-14T06:35:43Z</time>
   </trkpt>
   <trkpt lat="51.1544740" lon="5.5814620">
    <ele>44.7</ele>
    <time>2020-06-14T06:35:44Z</time>
   </trkpt>
   <trkpt lat="51.1544350" lon="5.5813930">
    <ele>44.7</ele>
    <time>2020-06-14T06:35:45Z</time>
   </trkpt>
   <trkpt lat="51.1543990" lon="5.5813150">
    <ele>44.7</ele>
    <time>2020-06-14T06:35:46Z</time>
   </trkpt>
   <trkpt lat="51.1543650" lon="5.5812350">
    <ele>44.8</ele>
    <time>2020-06-14T06:35:47Z</time>
   </trkpt>
   <trkpt lat="51.1543260" lon="5.5811490">
    <ele>44.8</ele>
    <time>2020-06-14T06:35:48Z</time>
   </trkpt>
   <trkpt lat="51.1542960" lon="5.5810830">
    <ele>44.8</ele>
    <time>2020-06-14T06:35:49Z</time>
   </trkpt>
   <trkpt lat="51.1542590" lon="5.5810130">
    <ele>44.9</ele>
    <time>2020-06-14T06:35:50Z</time>
   </trkpt>
   <trkpt lat="51.1542210" lon="5.5809380">
    <ele>44.9</ele>
    <time>2020-06-14T06:35:51Z</time>
   </trkpt>
   <trkpt lat="51.1541800" lon="5.5808580">
    <ele>44.9</ele>
    <time>2020-06-14T06:35:52Z</time>
   </trkpt>
   <trkpt lat="51.1541400" lon="5.5807800">
    <ele>44.9</ele>
    <time>2020-06-14T06:35:53Z</time>
   </trkpt>
   <trkpt lat="51.1540960" lon="5.5807030">
    <ele>44.9</ele>
    <time>2020-06-14T06:35:54Z</time>
   </trkpt>
   <trkpt lat="51.1540140" lon="5.5805280">
    <ele>45.0</ele>
    <time>2020-06-14T06:35:55Z</time>
   </trkpt>
   <trkpt lat="51.1539680" lon="5.5804470">
    <ele>45.0</ele>
    <time>2020-06-14T06:35:56Z</time>
   </trkpt>
   <trkpt lat="51.1539300" lon="5.5803640">
    <ele>45.0</ele>
    <time>2020-06-14T06:35:57Z</time>
   </trkpt>
   <trkpt lat="51.1538850" lon="5.5802750">
    <ele>45.0</ele>
    <time>2020-06-14T06:35:58Z</time>
   </trkpt>
   <trkpt lat="51.1538430" lon="5.5801900">
    <ele>45.0</ele>
    <time>2020-06-14T06:35:59Z</time>
   </trkpt>
   <trkpt lat="51.1538040" lon="5.5801020">
    <ele>45.0</ele>
    <time>2020-06-14T06:36:00Z</time>
   </trkpt>
   <trkpt lat="51.1537610" lon="5.5800130">
    <ele>44.9</ele>
    <time>2020-06-14T06:36:01Z</time>
   </trkpt>
   <trkpt lat="51.1537240" lon="5.5799210">
    <ele>44.9</ele>
    <time>2020-06-14T06:36:02Z</time>
   </trkpt>
   <trkpt lat="51.1536850" lon="5.5798290">
    <ele>44.9</ele>
    <time>2020-06-14T06:36:03Z</time>
   </trkpt>
   <trkpt lat="51.1536450" lon="5.5797350">
    <ele>44.9</ele>
    <time>2020-06-14T06:36:04Z</time>
   </trkpt>
   <trkpt lat="51.1536060" lon="5.5796450">
    <ele>44.9</ele>
    <time>2020-06-14T06:36:05Z</time>
   </trkpt>
   <trkpt lat="51.1535690" lon="5.5795610">
    <ele>44.9</ele>
    <time>2020-06-14T06:36:06Z</time>
   </trkpt>
   <trkpt lat="51.1535330" lon="5.5794830">
    <ele>44.9</ele>
    <time>2020-06-14T06:36:07Z</time>
   </trkpt>
   <trkpt lat="51.1534990" lon="5.5794030">
    <ele>44.9</ele>
    <time>2020-06-14T06:36:08Z</time>
   </trkpt>
   <trkpt lat="51.1534590" lon="5.5793170">
    <ele>44.9</ele>
    <time>2020-06-14T06:36:09Z</time>
   </trkpt>
   <trkpt lat="51.1534250" lon="5.5792380">
    <ele>44.9</ele>
    <time>2020-06-14T06:36:10Z</time>
   </trkpt>
   <trkpt lat="51.1533840" lon="5.5791680">
    <ele>44.9</ele>
    <time>2020-06-14T06:36:11Z</time>
   </trkpt>
   <trkpt lat="51.1533500" lon="5.5791060">
    <ele>44.9</ele>
    <time>2020-06-14T06:36:12Z</time>
   </trkpt>
   <trkpt lat="51.1533180" lon="5.5790430">
    <ele>44.9</ele>
    <time>2020-06-14T06:36:13Z</time>
   </trkpt>
   <trkpt lat="51.1532860" lon="5.5789800">
    <ele>44.9</ele>
    <time>2020-06-14T06:36:14Z</time>
   </trkpt>
   <trkpt lat="51.1532550" lon="5.5789140">
    <ele>44.9</ele>
    <time>2020-06-14T06:36:15Z</time>
   </trkpt>
   <trkpt lat="51.1532180" lon="5.5788420">
    <ele>44.8</ele>
    <time>2020-06-14T06:36:16Z</time>
   </trkpt>
   <trkpt lat="51.1531910" lon="5.5787730">
    <ele>44.8</ele>
    <time>2020-06-14T06:36:17Z</time>
   </trkpt>
   <trkpt lat="51.1531690" lon="5.5787030">
    <ele>44.7</ele>
    <time>2020-06-14T06:36:18Z</time>
   </trkpt>
   <trkpt lat="51.1531890" lon="5.5786140">
    <ele>44.6</ele>
    <time>2020-06-14T06:36:19Z</time>
   </trkpt>
   <trkpt lat="51.1532440" lon="5.5785470">
    <ele>44.5</ele>
    <time>2020-06-14T06:36:20Z</time>
   </trkpt>
   <trkpt lat="51.1533090" lon="5.5784940">
    <ele>44.4</ele>
    <time>2020-06-14T06:36:21Z</time>
   </trkpt>
   <trkpt lat="51.1533650" lon="5.5784540">
    <ele>44.4</ele>
    <time>2020-06-14T06:36:22Z</time>
   </trkpt>
   <trkpt lat="51.1534240" lon="5.5784040">
    <ele>44.4</ele>
    <time>2020-06-14T06:36:23Z</time>
   </trkpt>
   <trkpt lat="51.1534870" lon="5.5783550">
    <ele>44.3</ele>
    <time>2020-06-14T06:36:24Z</time>
   </trkpt>
   <trkpt lat="51.1535540" lon="5.5782940">
    <ele>44.3</ele>
    <time>2020-06-14T06:36:25Z</time>
   </trkpt>
   <trkpt lat="51.1536170" lon="5.5782370">
    <ele>44.3</ele>
    <time>2020-06-14T06:36:26Z</time>
   </trkpt>
   <trkpt lat="51.1536760" lon="5.5781830">
    <ele>44.3</ele>
    <time>2020-06-14T06:36:27Z</time>
   </trkpt>
   <trkpt lat="51.1537330" lon="5.5781380">
    <ele>44.3</ele>
    <time>2020-06-14T06:36:28Z</time>
   </trkpt>
   <trkpt lat="51.1537910" lon="5.5780840">
    <ele>44.3</ele>
    <time>2020-06-14T06:36:29Z</time>
   </trkpt>
   <trkpt lat="51.1538530" lon="5.5780180">
    <ele>44.2</ele>
    <time>2020-06-14T06:36:30Z</time>
   </trkpt>
   <trkpt lat="51.1538920" lon="5.5779420">
    <ele>44.2</ele>
    <time>2020-06-14T06:36:31Z</time>
   </trkpt>
   <trkpt lat="51.1538910" lon="5.5778600">
    <ele>44.0</ele>
    <time>2020-06-14T06:36:32Z</time>
   </trkpt>
   <trkpt lat="51.1538760" lon="5.5777710">
    <ele>43.9</ele>
    <time>2020-06-14T06:36:33Z</time>
   </trkpt>
   <trkpt lat="51.1538480" lon="5.5776880">
    <ele>43.8</ele>
    <time>2020-06-14T06:36:34Z</time>
   </trkpt>
   <trkpt lat="51.1538020" lon="5.5775810">
    <ele>43.7</ele>
    <time>2020-06-14T06:36:35Z</time>
   </trkpt>
   <trkpt lat="51.1537590" lon="5.5774830">
    <ele>43.6</ele>
    <time>2020-06-14T06:36:36Z</time>
   </trkpt>
   <trkpt lat="51.1537180" lon="5.5773890">
    <ele>43.6</ele>
    <time>2020-06-14T06:36:37Z</time>
   </trkpt>
   <trkpt lat="51.1536610" lon="5.5773040">
    <ele>43.6</ele>
    <time>2020-06-14T06:36:38Z</time>
   </trkpt>
   <trkpt lat="51.1536020" lon="5.5772090">
    <ele>43.6</ele>
    <time>2020-06-14T06:36:39Z</time>
   </trkpt>
   <trkpt lat="51.1535480" lon="5.5771310">
    <ele>43.6</ele>
    <time>2020-06-14T06:36:40Z</time>
   </trkpt>
   <trkpt lat="51.1534990" lon="5.5770520">
    <ele>43.6</ele>
    <time>2020-06-14T06:36:41Z</time>
   </trkpt>
   <trkpt lat="51.1534530" lon="5.5769680">
    <ele>43.6</ele>
    <time>2020-06-14T06:36:42Z</time>
   </trkpt>
   <trkpt lat="51.1534110" lon="5.5768960">
    <ele>43.6</ele>
    <time>2020-06-14T06:36:43Z</time>
   </trkpt>
   <trkpt lat="51.1533800" lon="5.5768050">
    <ele>43.6</ele>
    <time>2020-06-14T06:36:44Z</time>
   </trkpt>
   <trkpt lat="51.1533620" lon="5.5767030">
    <ele>43.6</ele>
    <time>2020-06-14T06:36:45Z</time>
   </trkpt>
   <trkpt lat="51.1533520" lon="5.5765960">
    <ele>43.6</ele>
    <time>2020-06-14T06:36:46Z</time>
   </trkpt>
   <trkpt lat="51.1533410" lon="5.5764870">
    <ele>43.6</ele>
    <time>2020-06-14T06:36:47Z</time>
   </trkpt>
   <trkpt lat="51.1533390" lon="5.5763950">
    <ele>43.6</ele>
    <time>2020-06-14T06:36:48Z</time>
   </trkpt>
   <trkpt lat="51.1533240" lon="5.5762750">
    <ele>43.6</ele>
    <time>2020-06-14T06:36:49Z</time>
   </trkpt>
   <trkpt lat="51.1533160" lon="5.5761530">
    <ele>43.6</ele>
    <time>2020-06-14T06:36:50Z</time>
   </trkpt>
   <trkpt lat="51.1533080" lon="5.5760470">
    <ele>43.6</ele>
    <time>2020-06-14T06:36:51Z</time>
   </trkpt>
   <trkpt lat="51.1532980" lon="5.5759420">
    <ele>43.6</ele>
    <time>2020-06-14T06:36:52Z</time>
   </trkpt>
   <trkpt lat="51.1532870" lon="5.5758280">
    <ele>43.6</ele>
    <time>2020-06-14T06:36:53Z</time>
   </trkpt>
   <trkpt lat="51.1532780" lon="5.5757190">
    <ele>43.6</ele>
    <time>2020-06-14T06:36:54Z</time>
   </trkpt>
   <trkpt lat="51.1532690" lon="5.5756100">
    <ele>43.6</ele>
    <time>2020-06-14T06:36:55Z</time>
   </trkpt>
   <trkpt lat="51.1532590" lon="5.5755000">
    <ele>43.7</ele>
    <time>2020-06-14T06:36:56Z</time>
   </trkpt>
   <trkpt lat="51.1532480" lon="5.5753810">
    <ele>43.7</ele>
    <time>2020-06-14T06:36:57Z</time>
   </trkpt>
   <trkpt lat="51.1532400" lon="5.5752650">
    <ele>43.7</ele>
    <time>2020-06-14T06:36:58Z</time>
   </trkpt>
   <trkpt lat="51.1532310" lon="5.5751620">
    <ele>43.7</ele>
    <time>2020-06-14T06:36:59Z</time>
   </trkpt>
   <trkpt lat="51.1532220" lon="5.5750570">
    <ele>43.8</ele>
    <time>2020-06-14T06:37:00Z</time>
   </trkpt>
   <trkpt lat="51.1532090" lon="5.5749480">
    <ele>43.9</ele>
    <time>2020-06-14T06:37:01Z</time>
   </trkpt>
   <trkpt lat="51.1531990" lon="5.5748680">
    <ele>43.9</ele>
    <time>2020-06-14T06:37:02Z</time>
   </trkpt>
   <trkpt lat="51.1531920" lon="5.5747870">
    <ele>44.0</ele>
    <time>2020-06-14T06:37:03Z</time>
   </trkpt>
   <trkpt lat="51.1531860" lon="5.5747010">
    <ele>44.1</ele>
    <time>2020-06-14T06:37:04Z</time>
   </trkpt>
   <trkpt lat="51.1531790" lon="5.5746310">
    <ele>44.2</ele>
    <time>2020-06-14T06:37:05Z</time>
   </trkpt>
   <trkpt lat="51.1531600" lon="5.5745770">
    <ele>44.2</ele>
    <time>2020-06-14T06:37:06Z</time>
   </trkpt>
   <trkpt lat="51.1531310" lon="5.5745300">
    <ele>44.3</ele>
    <time>2020-06-14T06:37:07Z</time>
   </trkpt>
   <trkpt lat="51.1531120" lon="5.5744750">
    <ele>44.4</ele>
    <time>2020-06-14T06:37:08Z</time>
   </trkpt>
   <trkpt lat="51.1530860" lon="5.5743960">
    <ele>44.5</ele>
    <time>2020-06-14T06:37:09Z</time>
   </trkpt>
   <trkpt lat="51.1530790" lon="5.5743120">
    <ele>44.5</ele>
    <time>2020-06-14T06:37:10Z</time>
   </trkpt>
   <trkpt lat="51.1530830" lon="5.5742190">
    <ele>44.5</ele>
    <time>2020-06-14T06:37:11Z</time>
   </trkpt>
   <trkpt lat="51.1530910" lon="5.5741390">
    <ele>44.5</ele>
    <time>2020-06-14T06:37:12Z</time>
   </trkpt>
   <trkpt lat="51.1531090" lon="5.5740480">
    <ele>44.5</ele>
    <time>2020-06-14T06:37:13Z</time>
   </trkpt>
   <trkpt lat="51.1531260" lon="5.5739470">
    <ele>44.5</ele>
    <time>2020-06-14T06:37:14Z</time>
   </trkpt>
   <trkpt lat="51.1531370" lon="5.5738160">
    <ele>44.3</ele>
    <time>2020-06-14T06:37:15Z</time>
   </trkpt>
   <trkpt lat="51.1531370" lon="5.5737040">
    <ele>44.3</ele>
    <time>2020-06-14T06:37:16Z</time>
   </trkpt>
   <trkpt lat="51.1531210" lon="5.5735840">
    <ele>44.2</ele>
    <time>2020-06-14T06:37:17Z</time>
   </trkpt>
   <trkpt lat="51.1531090" lon="5.5734590">
    <ele>44.2</ele>
    <time>2020-06-14T06:37:18Z</time>
   </trkpt>
   <trkpt lat="51.1531040" lon="5.5733230">
    <ele>44.2</ele>
    <time>2020-06-14T06:37:19Z</time>
   </trkpt>
   <trkpt lat="51.1531000" lon="5.5732030">
    <ele>44.2</ele>
    <time>2020-06-14T06:37:20Z</time>
   </trkpt>
   <trkpt lat="51.1530960" lon="5.5730730">
    <ele>44.2</ele>
    <time>2020-06-14T06:37:21Z</time>
   </trkpt>
   <trkpt lat="51.1530900" lon="5.5729480">
    <ele>44.2</ele>
    <time>2020-06-14T06:37:22Z</time>
   </trkpt>
   <trkpt lat="51.1530870" lon="5.5728300">
    <ele>44.2</ele>
    <time>2020-06-14T06:37:23Z</time>
   </trkpt>
   <trkpt lat="51.1530820" lon="5.5727110">
    <ele>44.2</ele>
    <time>2020-06-14T06:37:24Z</time>
   </trkpt>
   <trkpt lat="51.1530770" lon="5.5725990">
    <ele>44.3</ele>
    <time>2020-06-14T06:37:25Z</time>
   </trkpt>
   <trkpt lat="51.1530720" lon="5.5724860">
    <ele>44.2</ele>
    <time>2020-06-14T06:37:26Z</time>
   </trkpt>
   <trkpt lat="51.1530690" lon="5.5723820">
    <ele>44.2</ele>
    <time>2020-06-14T06:37:27Z</time>
   </trkpt>
   <trkpt lat="51.1530650" lon="5.5722790">
    <ele>44.2</ele>
    <time>2020-06-14T06:37:28Z</time>
   </trkpt>
   <trkpt lat="51.1530610" lon="5.5721770">
    <ele>44.2</ele>
    <time>2020-06-14T06:37:29Z</time>
   </trkpt>
   <trkpt lat="51.1530600" lon="5.5720630">
    <ele>44.2</ele>
    <time>2020-06-14T06:37:30Z</time>
   </trkpt>
   <trkpt lat="51.1530570" lon="5.5719370">
    <ele>44.2</ele>
    <time>2020-06-14T06:37:31Z</time>
   </trkpt>
   <trkpt lat="51.1530530" lon="5.5718100">
    <ele>44.2</ele>
    <time>2020-06-14T06:37:32Z</time>
   </trkpt>
   <trkpt lat="51.1530480" lon="5.5716850">
    <ele>44.2</ele>
    <time>2020-06-14T06:37:33Z</time>
   </trkpt>
   <trkpt lat="51.1530440" lon="5.5715670">
    <ele>44.2</ele>
    <time>2020-06-14T06:37:34Z</time>
   </trkpt>
   <trkpt lat="51.1530400" lon="5.5714540">
    <ele>44.2</ele>
    <time>2020-06-14T06:37:35Z</time>
   </trkpt>
   <trkpt lat="51.1530340" lon="5.5713390">
    <ele>44.2</ele>
    <time>2020-06-14T06:37:36Z</time>
   </trkpt>
   <trkpt lat="51.1530260" lon="5.5712260">
    <ele>44.2</ele>
    <time>2020-06-14T06:37:37Z</time>
   </trkpt>
   <trkpt lat="51.1530170" lon="5.5711140">
    <ele>44.2</ele>
    <time>2020-06-14T06:37:38Z</time>
   </trkpt>
   <trkpt lat="51.1530090" lon="5.5710070">
    <ele>44.3</ele>
    <time>2020-06-14T06:37:39Z</time>
   </trkpt>
   <trkpt lat="51.1530000" lon="5.5709070">
    <ele>44.3</ele>
    <time>2020-06-14T06:37:40Z</time>
   </trkpt>
   <trkpt lat="51.1529950" lon="5.5708010">
    <ele>44.3</ele>
    <time>2020-06-14T06:37:41Z</time>
   </trkpt>
   <trkpt lat="51.1529870" lon="5.5706970">
    <ele>44.3</ele>
    <time>2020-06-14T06:37:42Z</time>
   </trkpt>
   <trkpt lat="51.1529830" lon="5.5705900">
    <ele>44.3</ele>
    <time>2020-06-14T06:37:43Z</time>
   </trkpt>
   <trkpt lat="51.1529810" lon="5.5704820">
    <ele>44.4</ele>
    <time>2020-06-14T06:37:44Z</time>
   </trkpt>
   <trkpt lat="51.1529790" lon="5.5703790">
    <ele>44.4</ele>
    <time>2020-06-14T06:37:45Z</time>
   </trkpt>
   <trkpt lat="51.1529750" lon="5.5702770">
    <ele>44.4</ele>
    <time>2020-06-14T06:37:46Z</time>
   </trkpt>
   <trkpt lat="51.1529710" lon="5.5701780">
    <ele>44.4</ele>
    <time>2020-06-14T06:37:47Z</time>
   </trkpt>
   <trkpt lat="51.1529710" lon="5.5700780">
    <ele>44.4</ele>
    <time>2020-06-14T06:37:48Z</time>
   </trkpt>
   <trkpt lat="51.1529690" lon="5.5699780">
    <ele>44.5</ele>
    <time>2020-06-14T06:37:49Z</time>
   </trkpt>
   <trkpt lat="51.1529680" lon="5.5698750">
    <ele>44.5</ele>
    <time>2020-06-14T06:37:50Z</time>
   </trkpt>
   <trkpt lat="51.1529700" lon="5.5697750">
    <ele>44.5</ele>
    <time>2020-06-14T06:37:51Z</time>
   </trkpt>
   <trkpt lat="51.1529720" lon="5.5696740">
    <ele>44.6</ele>
    <time>2020-06-14T06:37:52Z</time>
   </trkpt>
   <trkpt lat="51.1529640" lon="5.5695700">
    <ele>44.6</ele>
    <time>2020-06-14T06:37:53Z</time>
   </trkpt>
   <trkpt lat="51.1529550" lon="5.5694590">
    <ele>44.6</ele>
    <time>2020-06-14T06:37:54Z</time>
   </trkpt>
   <trkpt lat="51.1529730" lon="5.5693510">
    <ele>44.7</ele>
    <time>2020-06-14T06:37:55Z</time>
   </trkpt>
   <trkpt lat="51.1529650" lon="5.5692440">
    <ele>44.7</ele>
    <time>2020-06-14T06:37:56Z</time>
   </trkpt>
   <trkpt lat="51.1529680" lon="5.5691390">
    <ele>44.8</ele>
    <time>2020-06-14T06:37:57Z</time>
   </trkpt>
   <trkpt lat="51.1529570" lon="5.5690350">
    <ele>44.8</ele>
    <time>2020-06-14T06:37:58Z</time>
   </trkpt>
   <trkpt lat="51.1529540" lon="5.5689330">
    <ele>44.8</ele>
    <time>2020-06-14T06:37:59Z</time>
   </trkpt>
   <trkpt lat="51.1529510" lon="5.5688290">
    <ele>44.9</ele>
    <time>2020-06-14T06:38:00Z</time>
   </trkpt>
   <trkpt lat="51.1529520" lon="5.5687220">
    <ele>44.9</ele>
    <time>2020-06-14T06:38:01Z</time>
   </trkpt>
   <trkpt lat="51.1529510" lon="5.5686140">
    <ele>45.0</ele>
    <time>2020-06-14T06:38:02Z</time>
   </trkpt>
   <trkpt lat="51.1529480" lon="5.5685060">
    <ele>45.0</ele>
    <time>2020-06-14T06:38:03Z</time>
   </trkpt>
   <trkpt lat="51.1529450" lon="5.5684010">
    <ele>45.1</ele>
    <time>2020-06-14T06:38:04Z</time>
   </trkpt>
   <trkpt lat="51.1529410" lon="5.5682970">
    <ele>45.1</ele>
    <time>2020-06-14T06:38:05Z</time>
   </trkpt>
   <trkpt lat="51.1529380" lon="5.5681860">
    <ele>45.1</ele>
    <time>2020-06-14T06:38:06Z</time>
   </trkpt>
   <trkpt lat="51.1529350" lon="5.5680750">
    <ele>45.2</ele>
    <time>2020-06-14T06:38:07Z</time>
   </trkpt>
   <trkpt lat="51.1529280" lon="5.5679690">
    <ele>45.3</ele>
    <time>2020-06-14T06:38:08Z</time>
   </trkpt>
   <trkpt lat="51.1529270" lon="5.5678640">
    <ele>45.3</ele>
    <time>2020-06-14T06:38:09Z</time>
   </trkpt>
   <trkpt lat="51.1529250" lon="5.5677600">
    <ele>45.4</ele>
    <time>2020-06-14T06:38:10Z</time>
   </trkpt>
   <trkpt lat="51.1529200" lon="5.5676550">
    <ele>45.4</ele>
    <time>2020-06-14T06:38:11Z</time>
   </trkpt>
   <trkpt lat="51.1529160" lon="5.5675600">
    <ele>45.4</ele>
    <time>2020-06-14T06:38:12Z</time>
   </trkpt>
   <trkpt lat="51.1529130" lon="5.5674660">
    <ele>45.4</ele>
    <time>2020-06-14T06:38:13Z</time>
   </trkpt>
   <trkpt lat="51.1529090" lon="5.5673730">
    <ele>45.4</ele>
    <time>2020-06-14T06:38:14Z</time>
   </trkpt>
   <trkpt lat="51.1529050" lon="5.5672740">
    <ele>45.5</ele>
    <time>2020-06-14T06:38:15Z</time>
   </trkpt>
   <trkpt lat="51.1529010" lon="5.5671720">
    <ele>45.5</ele>
    <time>2020-06-14T06:38:16Z</time>
   </trkpt>
   <trkpt lat="51.1528970" lon="5.5670670">
    <ele>45.5</ele>
    <time>2020-06-14T06:38:17Z</time>
   </trkpt>
   <trkpt lat="51.1528980" lon="5.5669620">
    <ele>45.5</ele>
    <time>2020-06-14T06:38:18Z</time>
   </trkpt>
   <trkpt lat="51.1528970" lon="5.5668550">
    <ele>45.5</ele>
    <time>2020-06-14T06:38:19Z</time>
   </trkpt>
   <trkpt lat="51.1528930" lon="5.5667510">
    <ele>45.6</ele>
    <time>2020-06-14T06:38:20Z</time>
   </trkpt>
   <trkpt lat="51.1528910" lon="5.5666360">
    <ele>45.6</ele>
    <time>2020-06-14T06:38:21Z</time>
   </trkpt>
   <trkpt lat="51.1528630" lon="5.5665270">
    <ele>45.6</ele>
    <time>2020-06-14T06:38:22Z</time>
   </trkpt>
   <trkpt lat="51.1528430" lon="5.5664230">
    <ele>45.7</ele>
    <time>2020-06-14T06:38:23Z</time>
   </trkpt>
   <trkpt lat="51.1528280" lon="5.5663170">
    <ele>45.7</ele>
    <time>2020-06-14T06:38:24Z</time>
   </trkpt>
   <trkpt lat="51.1528170" lon="5.5662130">
    <ele>45.7</ele>
    <time>2020-06-14T06:38:25Z</time>
   </trkpt>
   <trkpt lat="51.1528040" lon="5.5661110">
    <ele>45.8</ele>
    <time>2020-06-14T06:38:26Z</time>
   </trkpt>
   <trkpt lat="51.1527890" lon="5.5660150">
    <ele>45.8</ele>
    <time>2020-06-14T06:38:27Z</time>
   </trkpt>
   <trkpt lat="51.1527760" lon="5.5659160">
    <ele>45.8</ele>
    <time>2020-06-14T06:38:28Z</time>
   </trkpt>
   <trkpt lat="51.1527630" lon="5.5658130">
    <ele>45.8</ele>
    <time>2020-06-14T06:38:29Z</time>
   </trkpt>
   <trkpt lat="51.1527490" lon="5.5657060">
    <ele>45.8</ele>
    <time>2020-06-14T06:38:30Z</time>
   </trkpt>
   <trkpt lat="51.1527330" lon="5.5655990">
    <ele>45.7</ele>
    <time>2020-06-14T06:38:31Z</time>
   </trkpt>
   <trkpt lat="51.1527160" lon="5.5654950">
    <ele>45.7</ele>
    <time>2020-06-14T06:38:32Z</time>
   </trkpt>
   <trkpt lat="51.1526980" lon="5.5653920">
    <ele>45.7</ele>
    <time>2020-06-14T06:38:33Z</time>
   </trkpt>
   <trkpt lat="51.1526830" lon="5.5652840">
    <ele>45.7</ele>
    <time>2020-06-14T06:38:34Z</time>
   </trkpt>
   <trkpt lat="51.1526720" lon="5.5651720">
    <ele>45.7</ele>
    <time>2020-06-14T06:38:35Z</time>
   </trkpt>
   <trkpt lat="51.1526390" lon="5.5650650">
    <ele>45.7</ele>
    <time>2020-06-14T06:38:36Z</time>
   </trkpt>
   <trkpt lat="51.1526280" lon="5.5649550">
    <ele>45.7</ele>
    <time>2020-06-14T06:38:37Z</time>
   </trkpt>
   <trkpt lat="51.1526120" lon="5.5648500">
    <ele>45.7</ele>
    <time>2020-06-14T06:38:38Z</time>
   </trkpt>
   <trkpt lat="51.1525950" lon="5.5647420">
    <ele>45.7</ele>
    <time>2020-06-14T06:38:39Z</time>
   </trkpt>
   <trkpt lat="51.1525780" lon="5.5646360">
    <ele>45.7</ele>
    <time>2020-06-14T06:38:40Z</time>
   </trkpt>
   <trkpt lat="51.1525630" lon="5.5645280">
    <ele>45.7</ele>
    <time>2020-06-14T06:38:41Z</time>
   </trkpt>
   <trkpt lat="51.1525470" lon="5.5644240">
    <ele>45.7</ele>
    <time>2020-06-14T06:38:42Z</time>
   </trkpt>
   <trkpt lat="51.1525300" lon="5.5643290">
    <ele>45.7</ele>
    <time>2020-06-14T06:38:43Z</time>
   </trkpt>
   <trkpt lat="51.1525130" lon="5.5642430">
    <ele>45.8</ele>
    <time>2020-06-14T06:38:44Z</time>
   </trkpt>
   <trkpt lat="51.1525020" lon="5.5641540">
    <ele>45.8</ele>
    <time>2020-06-14T06:38:45Z</time>
   </trkpt>
   <trkpt lat="51.1524920" lon="5.5640630">
    <ele>45.8</ele>
    <time>2020-06-14T06:38:46Z</time>
   </trkpt>
   <trkpt lat="51.1524760" lon="5.5639730">
    <ele>45.8</ele>
    <time>2020-06-14T06:38:47Z</time>
   </trkpt>
   <trkpt lat="51.1524590" lon="5.5638790">
    <ele>45.9</ele>
    <time>2020-06-14T06:38:48Z</time>
   </trkpt>
   <trkpt lat="51.1524430" lon="5.5637900">
    <ele>45.9</ele>
    <time>2020-06-14T06:38:49Z</time>
   </trkpt>
   <trkpt lat="51.1524320" lon="5.5637050">
    <ele>45.9</ele>
    <time>2020-06-14T06:38:50Z</time>
   </trkpt>
   <trkpt lat="51.1524230" lon="5.5636190">
    <ele>46.0</ele>
    <time>2020-06-14T06:38:51Z</time>
   </trkpt>
   <trkpt lat="51.1524140" lon="5.5635270">
    <ele>45.8</ele>
    <time>2020-06-14T06:38:52Z</time>
   </trkpt>
   <trkpt lat="51.1524050" lon="5.5634310">
    <ele>45.7</ele>
    <time>2020-06-14T06:38:53Z</time>
   </trkpt>
   <trkpt lat="51.1523900" lon="5.5633400">
    <ele>45.7</ele>
    <time>2020-06-14T06:38:54Z</time>
   </trkpt>
   <trkpt lat="51.1523770" lon="5.5632520">
    <ele>45.6</ele>
    <time>2020-06-14T06:38:55Z</time>
   </trkpt>
   <trkpt lat="51.1523570" lon="5.5631690">
    <ele>45.6</ele>
    <time>2020-06-14T06:38:56Z</time>
   </trkpt>
   <trkpt lat="51.1523260" lon="5.5630880">
    <ele>45.6</ele>
    <time>2020-06-14T06:38:57Z</time>
   </trkpt>
   <trkpt lat="51.1523120" lon="5.5630040">
    <ele>45.7</ele>
    <time>2020-06-14T06:38:58Z</time>
   </trkpt>
   <trkpt lat="51.1523010" lon="5.5629240">
    <ele>45.7</ele>
    <time>2020-06-14T06:38:59Z</time>
   </trkpt>
   <trkpt lat="51.1522900" lon="5.5628500">
    <ele>45.7</ele>
    <time>2020-06-14T06:39:00Z</time>
   </trkpt>
   <trkpt lat="51.1522760" lon="5.5627820">
    <ele>45.8</ele>
    <time>2020-06-14T06:39:01Z</time>
   </trkpt>
   <trkpt lat="51.1522620" lon="5.5627240">
    <ele>45.8</ele>
    <time>2020-06-14T06:39:02Z</time>
   </trkpt>
   <trkpt lat="51.1522490" lon="5.5626750">
    <ele>45.9</ele>
    <time>2020-06-14T06:39:03Z</time>
   </trkpt>
   <trkpt lat="51.1522300" lon="5.5626230">
    <ele>45.9</ele>
    <time>2020-06-14T06:39:04Z</time>
   </trkpt>
   <trkpt lat="51.1522350" lon="5.5625730">
    <ele>46.0</ele>
    <time>2020-06-14T06:39:05Z</time>
   </trkpt>
   <trkpt lat="51.1522640" lon="5.5625320">
    <ele>46.0</ele>
    <time>2020-06-14T06:39:06Z</time>
   </trkpt>
   <trkpt lat="51.1523090" lon="5.5625220">
    <ele>45.9</ele>
    <time>2020-06-14T06:39:07Z</time>
   </trkpt>
   <trkpt lat="51.1523570" lon="5.5625080">
    <ele>45.8</ele>
    <time>2020-06-14T06:39:08Z</time>
   </trkpt>
   <trkpt lat="51.1524100" lon="5.5624860">
    <ele>45.7</ele>
    <time>2020-06-14T06:39:09Z</time>
   </trkpt>
   <trkpt lat="51.1524690" lon="5.5624560">
    <ele>45.5</ele>
    <time>2020-06-14T06:39:10Z</time>
   </trkpt>
   <trkpt lat="51.1525330" lon="5.5624300">
    <ele>45.4</ele>
    <time>2020-06-14T06:39:11Z</time>
   </trkpt>
   <trkpt lat="51.1525990" lon="5.5623960">
    <ele>45.3</ele>
    <time>2020-06-14T06:39:12Z</time>
   </trkpt>
   <trkpt lat="51.1526690" lon="5.5623580">
    <ele>45.2</ele>
    <time>2020-06-14T06:39:13Z</time>
   </trkpt>
   <trkpt lat="51.1527420" lon="5.5623170">
    <ele>45.1</ele>
    <time>2020-06-14T06:39:14Z</time>
   </trkpt>
   <trkpt lat="51.1528160" lon="5.5622830">
    <ele>45.0</ele>
    <time>2020-06-14T06:39:15Z</time>
   </trkpt>
   <trkpt lat="51.1528900" lon="5.5622510">
    <ele>44.9</ele>
    <time>2020-06-14T06:39:16Z</time>
   </trkpt>
   <trkpt lat="51.1529650" lon="5.5622190">
    <ele>44.9</ele>
    <time>2020-06-14T06:39:17Z</time>
   </trkpt>
   <trkpt lat="51.1530400" lon="5.5621900">
    <ele>44.8</ele>
    <time>2020-06-14T06:39:18Z</time>
   </trkpt>
   <trkpt lat="51.1531110" lon="5.5621520">
    <ele>44.8</ele>
    <time>2020-06-14T06:39:19Z</time>
   </trkpt>
   <trkpt lat="51.1531770" lon="5.5621070">
    <ele>44.8</ele>
    <time>2020-06-14T06:39:20Z</time>
   </trkpt>
   <trkpt lat="51.1532400" lon="5.5620540">
    <ele>44.7</ele>
    <time>2020-06-14T06:39:21Z</time>
   </trkpt>
   <trkpt lat="51.1533060" lon="5.5620100">
    <ele>44.7</ele>
    <time>2020-06-14T06:39:22Z</time>
   </trkpt>
   <trkpt lat="51.1533730" lon="5.5619650">
    <ele>44.7</ele>
    <time>2020-06-14T06:39:23Z</time>
   </trkpt>
   <trkpt lat="51.1534450" lon="5.5619130">
    <ele>44.7</ele>
    <time>2020-06-14T06:39:24Z</time>
   </trkpt>
   <trkpt lat="51.1535140" lon="5.5618690">
    <ele>44.8</ele>
    <time>2020-06-14T06:39:25Z</time>
   </trkpt>
   <trkpt lat="51.1535810" lon="5.5618300">
    <ele>44.8</ele>
    <time>2020-06-14T06:39:26Z</time>
   </trkpt>
   <trkpt lat="51.1536490" lon="5.5617860">
    <ele>44.8</ele>
    <time>2020-06-14T06:39:27Z</time>
   </trkpt>
   <trkpt lat="51.1537170" lon="5.5617440">
    <ele>44.8</ele>
    <time>2020-06-14T06:39:28Z</time>
   </trkpt>
   <trkpt lat="51.1537850" lon="5.5617070">
    <ele>44.9</ele>
    <time>2020-06-14T06:39:29Z</time>
   </trkpt>
   <trkpt lat="51.1538460" lon="5.5616740">
    <ele>44.9</ele>
    <time>2020-06-14T06:39:30Z</time>
   </trkpt>
   <trkpt lat="51.1539040" lon="5.5616500">
    <ele>44.9</ele>
    <time>2020-06-14T06:39:31Z</time>
   </trkpt>
   <trkpt lat="51.1539630" lon="5.5616380">
    <ele>45.0</ele>
    <time>2020-06-14T06:39:32Z</time>
   </trkpt>
   <trkpt lat="51.1540180" lon="5.5616410">
    <ele>45.1</ele>
    <time>2020-06-14T06:39:33Z</time>
   </trkpt>
   <trkpt lat="51.1540820" lon="5.5616390">
    <ele>45.2</ele>
    <time>2020-06-14T06:39:34Z</time>
   </trkpt>
   <trkpt lat="51.1541410" lon="5.5616590">
    <ele>45.2</ele>
    <time>2020-06-14T06:39:35Z</time>
   </trkpt>
   <trkpt lat="51.1541960" lon="5.5616740">
    <ele>45.3</ele>
    <time>2020-06-14T06:39:36Z</time>
   </trkpt>
   <trkpt lat="51.1542570" lon="5.5616810">
    <ele>45.4</ele>
    <time>2020-06-14T06:39:37Z</time>
   </trkpt>
   <trkpt lat="51.1543210" lon="5.5616600">
    <ele>45.5</ele>
    <time>2020-06-14T06:39:38Z</time>
   </trkpt>
   <trkpt lat="51.1543870" lon="5.5616090">
    <ele>45.6</ele>
    <time>2020-06-14T06:39:39Z</time>
   </trkpt>
   <trkpt lat="51.1544480" lon="5.5615410">
    <ele>45.7</ele>
    <time>2020-06-14T06:39:40Z</time>
   </trkpt>
   <trkpt lat="51.1545020" lon="5.5614570">
    <ele>45.9</ele>
    <time>2020-06-14T06:39:41Z</time>
   </trkpt>
   <trkpt lat="51.1545550" lon="5.5613800">
    <ele>45.9</ele>
    <time>2020-06-14T06:39:42Z</time>
   </trkpt>
   <trkpt lat="51.1546030" lon="5.5613160">
    <ele>45.9</ele>
    <time>2020-06-14T06:39:43Z</time>
   </trkpt>
   <trkpt lat="51.1546530" lon="5.5612500">
    <ele>46.0</ele>
    <time>2020-06-14T06:39:44Z</time>
   </trkpt>
   <trkpt lat="51.1547070" lon="5.5611840">
    <ele>46.0</ele>
    <time>2020-06-14T06:39:45Z</time>
   </trkpt>
   <trkpt lat="51.1547640" lon="5.5611170">
    <ele>46.1</ele>
    <time>2020-06-14T06:39:46Z</time>
   </trkpt>
   <trkpt lat="51.1548260" lon="5.5610500">
    <ele>46.2</ele>
    <time>2020-06-14T06:39:47Z</time>
   </trkpt>
   <trkpt lat="51.1548910" lon="5.5609920">
    <ele>46.4</ele>
    <time>2020-06-14T06:39:48Z</time>
   </trkpt>
   <trkpt lat="51.1549490" lon="5.5609280">
    <ele>46.5</ele>
    <time>2020-06-14T06:39:49Z</time>
   </trkpt>
   <trkpt lat="51.1550010" lon="5.5608640">
    <ele>46.6</ele>
    <time>2020-06-14T06:39:50Z</time>
   </trkpt>
   <trkpt lat="51.1550470" lon="5.5607960">
    <ele>46.7</ele>
    <time>2020-06-14T06:39:51Z</time>
   </trkpt>
   <trkpt lat="51.1550980" lon="5.5607210">
    <ele>46.8</ele>
    <time>2020-06-14T06:39:52Z</time>
   </trkpt>
   <trkpt lat="51.1551610" lon="5.5606390">
    <ele>47.0</ele>
    <time>2020-06-14T06:39:53Z</time>
   </trkpt>
   <trkpt lat="51.1552160" lon="5.5605670">
    <ele>47.1</ele>
    <time>2020-06-14T06:39:54Z</time>
   </trkpt>
   <trkpt lat="51.1552730" lon="5.5604870">
    <ele>47.2</ele>
    <time>2020-06-14T06:39:55Z</time>
   </trkpt>
   <trkpt lat="51.1553260" lon="5.5604080">
    <ele>47.4</ele>
    <time>2020-06-14T06:39:56Z</time>
   </trkpt>
   <trkpt lat="51.1553770" lon="5.5603260">
    <ele>47.5</ele>
    <time>2020-06-14T06:39:57Z</time>
   </trkpt>
   <trkpt lat="51.1554310" lon="5.5602540">
    <ele>47.7</ele>
    <time>2020-06-14T06:39:58Z</time>
   </trkpt>
   <trkpt lat="51.1554820" lon="5.5601890">
    <ele>47.9</ele>
    <time>2020-06-14T06:39:59Z</time>
   </trkpt>
   <trkpt lat="51.1555390" lon="5.5601160">
    <ele>48.1</ele>
    <time>2020-06-14T06:40:00Z</time>
   </trkpt>
   <trkpt lat="51.1555910" lon="5.5600500">
    <ele>48.3</ele>
    <time>2020-06-14T06:40:01Z</time>
   </trkpt>
   <trkpt lat="51.1556440" lon="5.5599920">
    <ele>48.2</ele>
    <time>2020-06-14T06:40:02Z</time>
   </trkpt>
   <trkpt lat="51.1556970" lon="5.5599300">
    <ele>48.2</ele>
    <time>2020-06-14T06:40:03Z</time>
   </trkpt>
   <trkpt lat="51.1557440" lon="5.5598670">
    <ele>48.2</ele>
    <time>2020-06-14T06:40:04Z</time>
   </trkpt>
   <trkpt lat="51.1557850" lon="5.5598000">
    <ele>48.2</ele>
    <time>2020-06-14T06:40:05Z</time>
   </trkpt>
   <trkpt lat="51.1558290" lon="5.5597260">
    <ele>48.2</ele>
    <time>2020-06-14T06:40:06Z</time>
   </trkpt>
   <trkpt lat="51.1558780" lon="5.5596480">
    <ele>48.2</ele>
    <time>2020-06-14T06:40:07Z</time>
   </trkpt>
   <trkpt lat="51.1559240" lon="5.5595650">
    <ele>48.2</ele>
    <time>2020-06-14T06:40:08Z</time>
   </trkpt>
   <trkpt lat="51.1559700" lon="5.5594880">
    <ele>48.2</ele>
    <time>2020-06-14T06:40:09Z</time>
   </trkpt>
   <trkpt lat="51.1560210" lon="5.5594090">
    <ele>48.2</ele>
    <time>2020-06-14T06:40:10Z</time>
   </trkpt>
   <trkpt lat="51.1560670" lon="5.5593300">
    <ele>48.3</ele>
    <time>2020-06-14T06:40:11Z</time>
   </trkpt>
   <trkpt lat="51.1561140" lon="5.5592550">
    <ele>48.3</ele>
    <time>2020-06-14T06:40:12Z</time>
   </trkpt>
   <trkpt lat="51.1561660" lon="5.5591790">
    <ele>48.3</ele>
    <time>2020-06-14T06:40:13Z</time>
   </trkpt>
   <trkpt lat="51.1562220" lon="5.5590970">
    <ele>48.4</ele>
    <time>2020-06-14T06:40:14Z</time>
   </trkpt>
   <trkpt lat="51.1562740" lon="5.5590240">
    <ele>48.4</ele>
    <time>2020-06-14T06:40:15Z</time>
   </trkpt>
   <trkpt lat="51.1563280" lon="5.5589480">
    <ele>48.4</ele>
    <time>2020-06-14T06:40:16Z</time>
   </trkpt>
   <trkpt lat="51.1563820" lon="5.5588720">
    <ele>48.5</ele>
    <time>2020-06-14T06:40:17Z</time>
   </trkpt>
   <trkpt lat="51.1564300" lon="5.5588050">
    <ele>48.5</ele>
    <time>2020-06-14T06:40:18Z</time>
   </trkpt>
   <trkpt lat="51.1564820" lon="5.5587340">
    <ele>48.5</ele>
    <time>2020-06-14T06:40:19Z</time>
   </trkpt>
   <trkpt lat="51.1565330" lon="5.5586640">
    <ele>48.5</ele>
    <time>2020-06-14T06:40:20Z</time>
   </trkpt>
   <trkpt lat="51.1565850" lon="5.5585990">
    <ele>48.6</ele>
    <time>2020-06-14T06:40:21Z</time>
   </trkpt>
   <trkpt lat="51.1566390" lon="5.5585320">
    <ele>48.6</ele>
    <time>2020-06-14T06:40:22Z</time>
   </trkpt>
   <trkpt lat="51.1566900" lon="5.5584740">
    <ele>48.7</ele>
    <time>2020-06-14T06:40:23Z</time>
   </trkpt>
   <trkpt lat="51.1567420" lon="5.5584100">
    <ele>48.7</ele>
    <time>2020-06-14T06:40:24Z</time>
   </trkpt>
   <trkpt lat="51.1567970" lon="5.5583530">
    <ele>48.7</ele>
    <time>2020-06-14T06:40:25Z</time>
   </trkpt>
   <trkpt lat="51.1568580" lon="5.5583030">
    <ele>48.7</ele>
    <time>2020-06-14T06:40:26Z</time>
   </trkpt>
   <trkpt lat="51.1569140" lon="5.5582500">
    <ele>48.7</ele>
    <time>2020-06-14T06:40:27Z</time>
   </trkpt>
   <trkpt lat="51.1569720" lon="5.5582000">
    <ele>48.7</ele>
    <time>2020-06-14T06:40:28Z</time>
   </trkpt>
   <trkpt lat="51.1570320" lon="5.5581470">
    <ele>48.7</ele>
    <time>2020-06-14T06:40:29Z</time>
   </trkpt>
   <trkpt lat="51.1570900" lon="5.5580950">
    <ele>48.6</ele>
    <time>2020-06-14T06:40:30Z</time>
   </trkpt>
   <trkpt lat="51.1571500" lon="5.5580460">
    <ele>48.6</ele>
    <time>2020-06-14T06:40:31Z</time>
   </trkpt>
   <trkpt lat="51.1572080" lon="5.5579960">
    <ele>48.6</ele>
    <time>2020-06-14T06:40:32Z</time>
   </trkpt>
   <trkpt lat="51.1572700" lon="5.5579490">
    <ele>48.5</ele>
    <time>2020-06-14T06:40:33Z</time>
   </trkpt>
   <trkpt lat="51.1573330" lon="5.5579060">
    <ele>48.5</ele>
    <time>2020-06-14T06:40:34Z</time>
   </trkpt>
   <trkpt lat="51.1573960" lon="5.5578620">
    <ele>48.4</ele>
    <time>2020-06-14T06:40:35Z</time>
   </trkpt>
   <trkpt lat="51.1574590" lon="5.5578140">
    <ele>48.3</ele>
    <time>2020-06-14T06:40:36Z</time>
   </trkpt>
   <trkpt lat="51.1575220" lon="5.5577740">
    <ele>48.3</ele>
    <time>2020-06-14T06:40:37Z</time>
   </trkpt>
   <trkpt lat="51.1575830" lon="5.5577300">
    <ele>48.3</ele>
    <time>2020-06-14T06:40:38Z</time>
   </trkpt>
   <trkpt lat="51.1576500" lon="5.5576990">
    <ele>48.2</ele>
    <time>2020-06-14T06:40:39Z</time>
   </trkpt>
   <trkpt lat="51.1577170" lon="5.5576640">
    <ele>48.2</ele>
    <time>2020-06-14T06:40:40Z</time>
   </trkpt>
   <trkpt lat="51.1577800" lon="5.5576240">
    <ele>48.2</ele>
    <time>2020-06-14T06:40:41Z</time>
   </trkpt>
   <trkpt lat="51.1578440" lon="5.5575900">
    <ele>48.1</ele>
    <time>2020-06-14T06:40:42Z</time>
   </trkpt>
   <trkpt lat="51.1579080" lon="5.5575620">
    <ele>48.0</ele>
    <time>2020-06-14T06:40:43Z</time>
   </trkpt>
   <trkpt lat="51.1579710" lon="5.5575330">
    <ele>48.0</ele>
    <time>2020-06-14T06:40:44Z</time>
   </trkpt>
   <trkpt lat="51.1580340" lon="5.5575010">
    <ele>47.9</ele>
    <time>2020-06-14T06:40:45Z</time>
   </trkpt>
   <trkpt lat="51.1580940" lon="5.5574700">
    <ele>47.9</ele>
    <time>2020-06-14T06:40:46Z</time>
   </trkpt>
   <trkpt lat="51.1581530" lon="5.5574460">
    <ele>47.9</ele>
    <time>2020-06-14T06:40:47Z</time>
   </trkpt>
   <trkpt lat="51.1582140" lon="5.5574240">
    <ele>47.8</ele>
    <time>2020-06-14T06:40:48Z</time>
   </trkpt>
   <trkpt lat="51.1582770" lon="5.5574040">
    <ele>47.8</ele>
    <time>2020-06-14T06:40:49Z</time>
   </trkpt>
   <trkpt lat="51.1583350" lon="5.5573760">
    <ele>47.8</ele>
    <time>2020-06-14T06:40:50Z</time>
   </trkpt>
   <trkpt lat="51.1583920" lon="5.5573470">
    <ele>47.7</ele>
    <time>2020-06-14T06:40:51Z</time>
   </trkpt>
   <trkpt lat="51.1584480" lon="5.5573170">
    <ele>47.7</ele>
    <time>2020-06-14T06:40:52Z</time>
   </trkpt>
   <trkpt lat="51.1584960" lon="5.5572720">
    <ele>47.7</ele>
    <time>2020-06-14T06:40:53Z</time>
   </trkpt>
   <trkpt lat="51.1585360" lon="5.5572080">
    <ele>47.7</ele>
    <time>2020-06-14T06:40:54Z</time>
   </trkpt>
   <trkpt lat="51.1585800" lon="5.5571510">
    <ele>47.7</ele>
    <time>2020-06-14T06:40:55Z</time>
   </trkpt>
   <trkpt lat="51.1586250" lon="5.5571010">
    <ele>47.7</ele>
    <time>2020-06-14T06:40:56Z</time>
   </trkpt>
   <trkpt lat="51.1586680" lon="5.5570640">
    <ele>47.6</ele>
    <time>2020-06-14T06:40:57Z</time>
   </trkpt>
   <trkpt lat="51.1587170" lon="5.5570980">
    <ele>47.5</ele>
    <time>2020-06-14T06:40:58Z</time>
   </trkpt>
   <trkpt lat="51.1587700" lon="5.5571350">
    <ele>47.4</ele>
    <time>2020-06-14T06:40:59Z</time>
   </trkpt>
   <trkpt lat="51.1588110" lon="5.5572270">
    <ele>47.2</ele>
    <time>2020-06-14T06:41:00Z</time>
   </trkpt>
   <trkpt lat="51.1588410" lon="5.5573420">
    <ele>47.1</ele>
    <time>2020-06-14T06:41:01Z</time>
   </trkpt>
   <trkpt lat="51.1588750" lon="5.5574550">
    <ele>46.9</ele>
    <time>2020-06-14T06:41:02Z</time>
   </trkpt>
   <trkpt lat="51.1589120" lon="5.5575670">
    <ele>46.7</ele>
    <time>2020-06-14T06:41:03Z</time>
   </trkpt>
   <trkpt lat="51.1589560" lon="5.5576720">
    <ele>46.6</ele>
    <time>2020-06-14T06:41:04Z</time>
   </trkpt>
   <trkpt lat="51.1590040" lon="5.5577740">
    <ele>46.4</ele>
    <time>2020-06-14T06:41:05Z</time>
   </trkpt>
   <trkpt lat="51.1590500" lon="5.5578820">
    <ele>46.3</ele>
    <time>2020-06-14T06:41:06Z</time>
   </trkpt>
   <trkpt lat="51.1590950" lon="5.5579880">
    <ele>46.2</ele>
    <time>2020-06-14T06:41:07Z</time>
   </trkpt>
   <trkpt lat="51.1591330" lon="5.5581010">
    <ele>46.0</ele>
    <time>2020-06-14T06:41:08Z</time>
   </trkpt>
   <trkpt lat="51.1591720" lon="5.5582160">
    <ele>45.9</ele>
    <time>2020-06-14T06:41:09Z</time>
   </trkpt>
   <trkpt lat="51.1592140" lon="5.5583270">
    <ele>45.9</ele>
    <time>2020-06-14T06:41:10Z</time>
   </trkpt>
   <trkpt lat="51.1592460" lon="5.5584400">
    <ele>45.8</ele>
    <time>2020-06-14T06:41:11Z</time>
   </trkpt>
   <trkpt lat="51.1592850" lon="5.5585500">
    <ele>45.7</ele>
    <time>2020-06-14T06:41:12Z</time>
   </trkpt>
   <trkpt lat="51.1593240" lon="5.5586690">
    <ele>45.6</ele>
    <time>2020-06-14T06:41:13Z</time>
   </trkpt>
   <trkpt lat="51.1593660" lon="5.5587880">
    <ele>45.6</ele>
    <time>2020-06-14T06:41:14Z</time>
   </trkpt>
   <trkpt lat="51.1594080" lon="5.5589140">
    <ele>45.5</ele>
    <time>2020-06-14T06:41:15Z</time>
   </trkpt>
   <trkpt lat="51.1594410" lon="5.5590350">
    <ele>45.4</ele>
    <time>2020-06-14T06:41:16Z</time>
   </trkpt>
   <trkpt lat="51.1594740" lon="5.5591570">
    <ele>45.3</ele>
    <time>2020-06-14T06:41:17Z</time>
   </trkpt>
   <trkpt lat="51.1595170" lon="5.5592720">
    <ele>45.2</ele>
    <time>2020-06-14T06:41:18Z</time>
   </trkpt>
   <trkpt lat="51.1595630" lon="5.5593840">
    <ele>45.1</ele>
    <time>2020-06-14T06:41:19Z</time>
   </trkpt>
   <trkpt lat="51.1596020" lon="5.5594910">
    <ele>45.1</ele>
    <time>2020-06-14T06:41:20Z</time>
   </trkpt>
   <trkpt lat="51.1596340" lon="5.5595830">
    <ele>45.0</ele>
    <time>2020-06-14T06:41:21Z</time>
   </trkpt>
   <trkpt lat="51.1596650" lon="5.5596690">
    <ele>44.9</ele>
    <time>2020-06-14T06:41:22Z</time>
   </trkpt>
   <trkpt lat="51.1596950" lon="5.5597560">
    <ele>44.9</ele>
    <time>2020-06-14T06:41:23Z</time>
   </trkpt>
   <trkpt lat="51.1597210" lon="5.5598410">
    <ele>44.8</ele>
    <time>2020-06-14T06:41:24Z</time>
   </trkpt>
   <trkpt lat="51.1597540" lon="5.5599250">
    <ele>44.8</ele>
    <time>2020-06-14T06:41:25Z</time>
   </trkpt>
   <trkpt lat="51.1597830" lon="5.5600090">
    <ele>44.8</ele>
    <time>2020-06-14T06:41:26Z</time>
   </trkpt>
   <trkpt lat="51.1598090" lon="5.5600940">
    <ele>44.8</ele>
    <time>2020-06-14T06:41:27Z</time>
   </trkpt>
   <trkpt lat="51.1598340" lon="5.5601810">
    <ele>44.7</ele>
    <time>2020-06-14T06:41:28Z</time>
   </trkpt>
   <trkpt lat="51.1598600" lon="5.5602750">
    <ele>44.7</ele>
    <time>2020-06-14T06:41:29Z</time>
   </trkpt>
   <trkpt lat="51.1598830" lon="5.5603700">
    <ele>44.6</ele>
    <time>2020-06-14T06:41:30Z</time>
   </trkpt>
   <trkpt lat="51.1599090" lon="5.5604710">
    <ele>44.5</ele>
    <time>2020-06-14T06:41:31Z</time>
   </trkpt>
   <trkpt lat="51.1599340" lon="5.5605770">
    <ele>44.5</ele>
    <time>2020-06-14T06:41:32Z</time>
   </trkpt>
   <trkpt lat="51.1599910" lon="5.5606660">
    <ele>44.4</ele>
    <time>2020-06-14T06:41:33Z</time>
   </trkpt>
   <trkpt lat="51.1600200" lon="5.5607710">
    <ele>44.4</ele>
    <time>2020-06-14T06:41:34Z</time>
   </trkpt>
   <trkpt lat="51.1600470" lon="5.5608730">
    <ele>44.3</ele>
    <time>2020-06-14T06:41:35Z</time>
   </trkpt>
   <trkpt lat="51.1600780" lon="5.5609750">
    <ele>44.3</ele>
    <time>2020-06-14T06:41:36Z</time>
   </trkpt>
   <trkpt lat="51.1601160" lon="5.5610760">
    <ele>44.3</ele>
    <time>2020-06-14T06:41:37Z</time>
   </trkpt>
   <trkpt lat="51.1601470" lon="5.5611850">
    <ele>44.3</ele>
    <time>2020-06-14T06:41:38Z</time>
   </trkpt>
   <trkpt lat="51.1601900" lon="5.5612870">
    <ele>44.3</ele>
    <time>2020-06-14T06:41:39Z</time>
   </trkpt>
   <trkpt lat="51.1602520" lon="5.5613670">
    <ele>44.3</ele>
    <time>2020-06-14T06:41:40Z</time>
   </trkpt>
   <trkpt lat="51.1603220" lon="5.5614360">
    <ele>44.2</ele>
    <time>2020-06-14T06:41:41Z</time>
   </trkpt>
   <trkpt lat="51.1603890" lon="5.5615030">
    <ele>44.2</ele>
    <time>2020-06-14T06:41:42Z</time>
   </trkpt>
   <trkpt lat="51.1604460" lon="5.5615710">
    <ele>44.2</ele>
    <time>2020-06-14T06:41:43Z</time>
   </trkpt>
   <trkpt lat="51.1605000" lon="5.5616410">
    <ele>44.3</ele>
    <time>2020-06-14T06:41:44Z</time>
   </trkpt>
   <trkpt lat="51.1605560" lon="5.5617110">
    <ele>44.3</ele>
    <time>2020-06-14T06:41:45Z</time>
   </trkpt>
   <trkpt lat="51.1606150" lon="5.5617720">
    <ele>44.4</ele>
    <time>2020-06-14T06:41:46Z</time>
   </trkpt>
   <trkpt lat="51.1606730" lon="5.5618320">
    <ele>44.5</ele>
    <time>2020-06-14T06:41:47Z</time>
   </trkpt>
   <trkpt lat="51.1607280" lon="5.5618940">
    <ele>44.4</ele>
    <time>2020-06-14T06:41:48Z</time>
   </trkpt>
   <trkpt lat="51.1607780" lon="5.5619560">
    <ele>44.4</ele>
    <time>2020-06-14T06:41:49Z</time>
   </trkpt>
   <trkpt lat="51.1608280" lon="5.5620160">
    <ele>44.4</ele>
    <time>2020-06-14T06:41:50Z</time>
   </trkpt>
   <trkpt lat="51.1608800" lon="5.5620630">
    <ele>44.5</ele>
    <time>2020-06-14T06:41:51Z</time>
   </trkpt>
   <trkpt lat="51.1609260" lon="5.5621120">
    <ele>44.5</ele>
    <time>2020-06-14T06:41:52Z</time>
   </trkpt>
   <trkpt lat="51.1609670" lon="5.5621630">
    <ele>44.6</ele>
    <time>2020-06-14T06:41:53Z</time>
   </trkpt>
   <trkpt lat="51.1610040" lon="5.5622180">
    <ele>44.6</ele>
    <time>2020-06-14T06:41:54Z</time>
   </trkpt>
   <trkpt lat="51.1610400" lon="5.5622600">
    <ele>44.6</ele>
    <time>2020-06-14T06:41:55Z</time>
   </trkpt>
   <trkpt lat="51.1610850" lon="5.5622670">
    <ele>44.6</ele>
    <time>2020-06-14T06:41:56Z</time>
   </trkpt>
   <trkpt lat="51.1611390" lon="5.5622200">
    <ele>44.6</ele>
    <time>2020-06-14T06:41:57Z</time>
   </trkpt>
   <trkpt lat="51.1611930" lon="5.5621610">
    <ele>44.5</ele>
    <time>2020-06-14T06:41:58Z</time>
   </trkpt>
   <trkpt lat="51.1612460" lon="5.5621000">
    <ele>44.5</ele>
    <time>2020-06-14T06:41:59Z</time>
   </trkpt>
   <trkpt lat="51.1613000" lon="5.5620300">
    <ele>44.5</ele>
    <time>2020-06-14T06:42:00Z</time>
   </trkpt>
   <trkpt lat="51.1613560" lon="5.5619530">
    <ele>44.6</ele>
    <time>2020-06-14T06:42:01Z</time>
   </trkpt>
   <trkpt lat="51.1614170" lon="5.5618760">
    <ele>44.7</ele>
    <time>2020-06-14T06:42:02Z</time>
   </trkpt>
   <trkpt lat="51.1614800" lon="5.5617990">
    <ele>44.7</ele>
    <time>2020-06-14T06:42:03Z</time>
   </trkpt>
   <trkpt lat="51.1615440" lon="5.5617300">
    <ele>44.8</ele>
    <time>2020-06-14T06:42:04Z</time>
   </trkpt>
   <trkpt lat="51.1616090" lon="5.5616560">
    <ele>44.8</ele>
    <time>2020-06-14T06:42:05Z</time>
   </trkpt>
   <trkpt lat="51.1616740" lon="5.5615830">
    <ele>44.8</ele>
    <time>2020-06-14T06:42:06Z</time>
   </trkpt>
   <trkpt lat="51.1617410" lon="5.5615160">
    <ele>44.8</ele>
    <time>2020-06-14T06:42:07Z</time>
   </trkpt>
   <trkpt lat="51.1618050" lon="5.5614470">
    <ele>44.8</ele>
    <time>2020-06-14T06:42:08Z</time>
   </trkpt>
   <trkpt lat="51.1618730" lon="5.5613810">
    <ele>44.8</ele>
    <time>2020-06-14T06:42:09Z</time>
   </trkpt>
   <trkpt lat="51.1619390" lon="5.5613120">
    <ele>44.8</ele>
    <time>2020-06-14T06:42:10Z</time>
   </trkpt>
   <trkpt lat="51.1620000" lon="5.5612370">
    <ele>44.8</ele>
    <time>2020-06-14T06:42:11Z</time>
   </trkpt>
   <trkpt lat="51.1620620" lon="5.5611670">
    <ele>44.9</ele>
    <time>2020-06-14T06:42:12Z</time>
   </trkpt>
   <trkpt lat="51.1621240" lon="5.5610980">
    <ele>44.9</ele>
    <time>2020-06-14T06:42:13Z</time>
   </trkpt>
   <trkpt lat="51.1621880" lon="5.5610360">
    <ele>44.9</ele>
    <time>2020-06-14T06:42:14Z</time>
   </trkpt>
   <trkpt lat="51.1622490" lon="5.5609730">
    <ele>44.9</ele>
    <time>2020-06-14T06:42:15Z</time>
   </trkpt>
   <trkpt lat="51.1623070" lon="5.5609070">
    <ele>45.0</ele>
    <time>2020-06-14T06:42:16Z</time>
   </trkpt>
   <trkpt lat="51.1623610" lon="5.5608360">
    <ele>45.0</ele>
    <time>2020-06-14T06:42:17Z</time>
   </trkpt>
   <trkpt lat="51.1624150" lon="5.5607660">
    <ele>45.1</ele>
    <time>2020-06-14T06:42:18Z</time>
   </trkpt>
   <trkpt lat="51.1624730" lon="5.5607070">
    <ele>45.1</ele>
    <time>2020-06-14T06:42:19Z</time>
   </trkpt>
   <trkpt lat="51.1625300" lon="5.5606540">
    <ele>45.2</ele>
    <time>2020-06-14T06:42:20Z</time>
   </trkpt>
   <trkpt lat="51.1625800" lon="5.5605980">
    <ele>45.2</ele>
    <time>2020-06-14T06:42:21Z</time>
   </trkpt>
   <trkpt lat="51.1626310" lon="5.5605370">
    <ele>45.2</ele>
    <time>2020-06-14T06:42:22Z</time>
   </trkpt>
   <trkpt lat="51.1626810" lon="5.5604720">
    <ele>45.2</ele>
    <time>2020-06-14T06:42:23Z</time>
   </trkpt>
   <trkpt lat="51.1627290" lon="5.5604130">
    <ele>45.2</ele>
    <time>2020-06-14T06:42:24Z</time>
   </trkpt>
   <trkpt lat="51.1627770" lon="5.5603590">
    <ele>45.2</ele>
    <time>2020-06-14T06:42:25Z</time>
   </trkpt>
   <trkpt lat="51.1628250" lon="5.5603140">
    <ele>45.2</ele>
    <time>2020-06-14T06:42:26Z</time>
   </trkpt>
   <trkpt lat="51.1628710" lon="5.5602680">
    <ele>45.2</ele>
    <time>2020-06-14T06:42:27Z</time>
   </trkpt>
   <trkpt lat="51.1629180" lon="5.5602180">
    <ele>45.2</ele>
    <time>2020-06-14T06:42:28Z</time>
   </trkpt>
   <trkpt lat="51.1629640" lon="5.5601690">
    <ele>45.2</ele>
    <time>2020-06-14T06:42:29Z</time>
   </trkpt>
   <trkpt lat="51.1630040" lon="5.5601150">
    <ele>45.2</ele>
    <time>2020-06-14T06:42:30Z</time>
   </trkpt>
   <trkpt lat="51.1630370" lon="5.5600590">
    <ele>45.3</ele>
    <time>2020-06-14T06:42:31Z</time>
   </trkpt>
   <trkpt lat="51.1630720" lon="5.5599890">
    <ele>45.3</ele>
    <time>2020-06-14T06:42:32Z</time>
   </trkpt>
   <trkpt lat="51.1631120" lon="5.5599220">
    <ele>45.3</ele>
    <time>2020-06-14T06:42:33Z</time>
   </trkpt>
   <trkpt lat="51.1631510" lon="5.5598590">
    <ele>45.3</ele>
    <time>2020-06-14T06:42:34Z</time>
   </trkpt>
   <trkpt lat="51.1631920" lon="5.5597920">
    <ele>45.3</ele>
    <time>2020-06-14T06:42:35Z</time>
   </trkpt>
   <trkpt lat="51.1632280" lon="5.5597140">
    <ele>45.3</ele>
    <time>2020-06-14T06:42:36Z</time>
   </trkpt>
   <trkpt lat="51.1632780" lon="5.5596480">
    <ele>45.2</ele>
    <time>2020-06-14T06:42:37Z</time>
   </trkpt>
   <trkpt lat="51.1633300" lon="5.5595840">
    <ele>45.3</ele>
    <time>2020-06-14T06:42:38Z</time>
   </trkpt>
   <trkpt lat="51.1633800" lon="5.5595110">
    <ele>45.3</ele>
    <time>2020-06-14T06:42:39Z</time>
   </trkpt>
   <trkpt lat="51.1634260" lon="5.5594450">
    <ele>45.3</ele>
    <time>2020-06-14T06:42:40Z</time>
   </trkpt>
   <trkpt lat="51.1634720" lon="5.5593840">
    <ele>45.3</ele>
    <time>2020-06-14T06:42:41Z</time>
   </trkpt>
   <trkpt lat="51.1635150" lon="5.5593240">
    <ele>45.4</ele>
    <time>2020-06-14T06:42:42Z</time>
   </trkpt>
   <trkpt lat="51.1635540" lon="5.5592630">
    <ele>45.4</ele>
    <time>2020-06-14T06:42:43Z</time>
   </trkpt>
   <trkpt lat="51.1635940" lon="5.5592020">
    <ele>45.4</ele>
    <time>2020-06-14T06:42:44Z</time>
   </trkpt>
   <trkpt lat="51.1636350" lon="5.5591430">
    <ele>45.5</ele>
    <time>2020-06-14T06:42:45Z</time>
   </trkpt>
   <trkpt lat="51.1636790" lon="5.5590810">
    <ele>45.5</ele>
    <time>2020-06-14T06:42:46Z</time>
   </trkpt>
   <trkpt lat="51.1637300" lon="5.5590160">
    <ele>45.5</ele>
    <time>2020-06-14T06:42:47Z</time>
   </trkpt>
   <trkpt lat="51.1637990" lon="5.5589300">
    <ele>45.5</ele>
    <time>2020-06-14T06:42:48Z</time>
   </trkpt>
   <trkpt lat="51.1638570" lon="5.5588380">
    <ele>45.5</ele>
    <time>2020-06-14T06:42:49Z</time>
   </trkpt>
   <trkpt lat="51.1638980" lon="5.5587320">
    <ele>45.6</ele>
    <time>2020-06-14T06:42:50Z</time>
   </trkpt>
   <trkpt lat="51.1639400" lon="5.5586300">
    <ele>45.6</ele>
    <time>2020-06-14T06:42:51Z</time>
   </trkpt>
   <trkpt lat="51.1639760" lon="5.5585300">
    <ele>45.6</ele>
    <time>2020-06-14T06:42:52Z</time>
   </trkpt>
   <trkpt lat="51.1640090" lon="5.5584220">
    <ele>45.5</ele>
    <time>2020-06-14T06:42:53Z</time>
   </trkpt>
   <trkpt lat="51.1640600" lon="5.5583340">
    <ele>45.5</ele>
    <time>2020-06-14T06:42:54Z</time>
   </trkpt>
   <trkpt lat="51.1641030" lon="5.5582360">
    <ele>45.6</ele>
    <time>2020-06-14T06:42:55Z</time>
   </trkpt>
   <trkpt lat="51.1641420" lon="5.5581410">
    <ele>45.6</ele>
    <time>2020-06-14T06:42:56Z</time>
   </trkpt>
   <trkpt lat="51.1641900" lon="5.5580590">
    <ele>45.6</ele>
    <time>2020-06-14T06:42:57Z</time>
   </trkpt>
   <trkpt lat="51.1642340" lon="5.5579710">
    <ele>45.6</ele>
    <time>2020-06-14T06:42:58Z</time>
   </trkpt>
   <trkpt lat="51.1642820" lon="5.5578870">
    <ele>45.6</ele>
    <time>2020-06-14T06:42:59Z</time>
   </trkpt>
   <trkpt lat="51.1643270" lon="5.5578040">
    <ele>45.6</ele>
    <time>2020-06-14T06:43:00Z</time>
   </trkpt>
   <trkpt lat="51.1643710" lon="5.5577240">
    <ele>45.6</ele>
    <time>2020-06-14T06:43:01Z</time>
   </trkpt>
   <trkpt lat="51.1644210" lon="5.5576420">
    <ele>45.6</ele>
    <time>2020-06-14T06:43:02Z</time>
   </trkpt>
   <trkpt lat="51.1644740" lon="5.5575570">
    <ele>45.6</ele>
    <time>2020-06-14T06:43:03Z</time>
   </trkpt>
   <trkpt lat="51.1645280" lon="5.5574780">
    <ele>45.6</ele>
    <time>2020-06-14T06:43:04Z</time>
   </trkpt>
   <trkpt lat="51.1645780" lon="5.5573990">
    <ele>45.7</ele>
    <time>2020-06-14T06:43:05Z</time>
   </trkpt>
   <trkpt lat="51.1646240" lon="5.5573230">
    <ele>45.7</ele>
    <time>2020-06-14T06:43:06Z</time>
   </trkpt>
   <trkpt lat="51.1646730" lon="5.5572420">
    <ele>45.7</ele>
    <time>2020-06-14T06:43:07Z</time>
   </trkpt>
   <trkpt lat="51.1647280" lon="5.5571700">
    <ele>45.8</ele>
    <time>2020-06-14T06:43:08Z</time>
   </trkpt>
   <trkpt lat="51.1647800" lon="5.5571010">
    <ele>45.8</ele>
    <time>2020-06-14T06:43:09Z</time>
   </trkpt>
   <trkpt lat="51.1648350" lon="5.5570380">
    <ele>45.8</ele>
    <time>2020-06-14T06:43:10Z</time>
   </trkpt>
   <trkpt lat="51.1648890" lon="5.5569650">
    <ele>45.9</ele>
    <time>2020-06-14T06:43:11Z</time>
   </trkpt>
   <trkpt lat="51.1649460" lon="5.5568840">
    <ele>45.9</ele>
    <time>2020-06-14T06:43:12Z</time>
   </trkpt>
   <trkpt lat="51.1650070" lon="5.5567970">
    <ele>45.9</ele>
    <time>2020-06-14T06:43:13Z</time>
   </trkpt>
   <trkpt lat="51.1650640" lon="5.5567130">
    <ele>45.9</ele>
    <time>2020-06-14T06:43:14Z</time>
   </trkpt>
   <trkpt lat="51.1651250" lon="5.5566370">
    <ele>46.0</ele>
    <time>2020-06-14T06:43:15Z</time>
   </trkpt>
   <trkpt lat="51.1651860" lon="5.5565650">
    <ele>46.0</ele>
    <time>2020-06-14T06:43:16Z</time>
   </trkpt>
   <trkpt lat="51.1652570" lon="5.5565120">
    <ele>46.0</ele>
    <time>2020-06-14T06:43:17Z</time>
   </trkpt>
   <trkpt lat="51.1653250" lon="5.5564580">
    <ele>45.9</ele>
    <time>2020-06-14T06:43:18Z</time>
   </trkpt>
   <trkpt lat="51.1653900" lon="5.5564000">
    <ele>45.9</ele>
    <time>2020-06-14T06:43:19Z</time>
   </trkpt>
   <trkpt lat="51.1654570" lon="5.5563380">
    <ele>45.8</ele>
    <time>2020-06-14T06:43:20Z</time>
   </trkpt>
   <trkpt lat="51.1655230" lon="5.5562790">
    <ele>45.8</ele>
    <time>2020-06-14T06:43:21Z</time>
   </trkpt>
   <trkpt lat="51.1655910" lon="5.5562200">
    <ele>45.7</ele>
    <time>2020-06-14T06:43:22Z</time>
   </trkpt>
   <trkpt lat="51.1656570" lon="5.5561640">
    <ele>45.7</ele>
    <time>2020-06-14T06:43:23Z</time>
   </trkpt>
   <trkpt lat="51.1657220" lon="5.5561090">
    <ele>45.7</ele>
    <time>2020-06-14T06:43:24Z</time>
   </trkpt>
   <trkpt lat="51.1657880" lon="5.5560560">
    <ele>45.6</ele>
    <time>2020-06-14T06:43:25Z</time>
   </trkpt>
   <trkpt lat="51.1658560" lon="5.5560010">
    <ele>45.5</ele>
    <time>2020-06-14T06:43:26Z</time>
   </trkpt>
   <trkpt lat="51.1659210" lon="5.5559460">
    <ele>45.4</ele>
    <time>2020-06-14T06:43:27Z</time>
   </trkpt>
   <trkpt lat="51.1659860" lon="5.5558910">
    <ele>45.4</ele>
    <time>2020-06-14T06:43:28Z</time>
   </trkpt>
   <trkpt lat="51.1660530" lon="5.5558350">
    <ele>45.3</ele>
    <time>2020-06-14T06:43:29Z</time>
   </trkpt>
   <trkpt lat="51.1661210" lon="5.5557850">
    <ele>45.2</ele>
    <time>2020-06-14T06:43:30Z</time>
   </trkpt>
   <trkpt lat="51.1661870" lon="5.5557340">
    <ele>45.1</ele>
    <time>2020-06-14T06:43:31Z</time>
   </trkpt>
   <trkpt lat="51.1662550" lon="5.5556830">
    <ele>45.0</ele>
    <time>2020-06-14T06:43:32Z</time>
   </trkpt>
   <trkpt lat="51.1663230" lon="5.5556340">
    <ele>44.9</ele>
    <time>2020-06-14T06:43:33Z</time>
   </trkpt>
   <trkpt lat="51.1663860" lon="5.5555860">
    <ele>44.9</ele>
    <time>2020-06-14T06:43:34Z</time>
   </trkpt>
   <trkpt lat="51.1664470" lon="5.5555330">
    <ele>44.8</ele>
    <time>2020-06-14T06:43:35Z</time>
   </trkpt>
   <trkpt lat="51.1665080" lon="5.5554820">
    <ele>44.7</ele>
    <time>2020-06-14T06:43:36Z</time>
   </trkpt>
   <trkpt lat="51.1665720" lon="5.5554300">
    <ele>44.7</ele>
    <time>2020-06-14T06:43:37Z</time>
   </trkpt>
   <trkpt lat="51.1666380" lon="5.5553800">
    <ele>44.6</ele>
    <time>2020-06-14T06:43:38Z</time>
   </trkpt>
   <trkpt lat="51.1666990" lon="5.5553070">
    <ele>44.6</ele>
    <time>2020-06-14T06:43:39Z</time>
   </trkpt>
   <trkpt lat="51.1667560" lon="5.5552300">
    <ele>44.7</ele>
    <time>2020-06-14T06:43:40Z</time>
   </trkpt>
   <trkpt lat="51.1668070" lon="5.5551530">
    <ele>44.7</ele>
    <time>2020-06-14T06:43:41Z</time>
   </trkpt>
   <trkpt lat="51.1668500" lon="5.5550690">
    <ele>44.7</ele>
    <time>2020-06-14T06:43:42Z</time>
   </trkpt>
   <trkpt lat="51.1668860" lon="5.5549840">
    <ele>44.7</ele>
    <time>2020-06-14T06:43:43Z</time>
   </trkpt>
   <trkpt lat="51.1669180" lon="5.5548950">
    <ele>44.7</ele>
    <time>2020-06-14T06:43:44Z</time>
   </trkpt>
   <trkpt lat="51.1669530" lon="5.5547980">
    <ele>44.7</ele>
    <time>2020-06-14T06:43:45Z</time>
   </trkpt>
   <trkpt lat="51.1669920" lon="5.5546980">
    <ele>44.7</ele>
    <time>2020-06-14T06:43:46Z</time>
   </trkpt>
   <trkpt lat="51.1670490" lon="5.5546100">
    <ele>44.7</ele>
    <time>2020-06-14T06:43:47Z</time>
   </trkpt>
   <trkpt lat="51.1670970" lon="5.5545140">
    <ele>44.7</ele>
    <time>2020-06-14T06:43:48Z</time>
   </trkpt>
   <trkpt lat="51.1671430" lon="5.5544180">
    <ele>44.7</ele>
    <time>2020-06-14T06:43:49Z</time>
   </trkpt>
   <trkpt lat="51.1671880" lon="5.5543260">
    <ele>44.7</ele>
    <time>2020-06-14T06:43:50Z</time>
   </trkpt>
   <trkpt lat="51.1672280" lon="5.5542320">
    <ele>44.7</ele>
    <time>2020-06-14T06:43:51Z</time>
   </trkpt>
   <trkpt lat="51.1672690" lon="5.5541370">
    <ele>44.7</ele>
    <time>2020-06-14T06:43:52Z</time>
   </trkpt>
   <trkpt lat="51.1673090" lon="5.5540450">
    <ele>44.7</ele>
    <time>2020-06-14T06:43:53Z</time>
   </trkpt>
   <trkpt lat="51.1673440" lon="5.5539580">
    <ele>44.8</ele>
    <time>2020-06-14T06:43:54Z</time>
   </trkpt>
   <trkpt lat="51.1673810" lon="5.5538710">
    <ele>44.8</ele>
    <time>2020-06-14T06:43:55Z</time>
   </trkpt>
   <trkpt lat="51.1674210" lon="5.5537840">
    <ele>44.8</ele>
    <time>2020-06-14T06:43:56Z</time>
   </trkpt>
   <trkpt lat="51.1674630" lon="5.5536960">
    <ele>44.8</ele>
    <time>2020-06-14T06:43:57Z</time>
   </trkpt>
   <trkpt lat="51.1675150" lon="5.5536220">
    <ele>44.7</ele>
    <time>2020-06-14T06:43:58Z</time>
   </trkpt>
   <trkpt lat="51.1675660" lon="5.5535460">
    <ele>44.7</ele>
    <time>2020-06-14T06:43:59Z</time>
   </trkpt>
   <trkpt lat="51.1676200" lon="5.5534720">
    <ele>44.7</ele>
    <time>2020-06-14T06:44:01Z</time>
   </trkpt>
   <trkpt lat="51.1676760" lon="5.5534000">
    <ele>44.7</ele>
    <time>2020-06-14T06:44:02Z</time>
   </trkpt>
   <trkpt lat="51.1677330" lon="5.5533290">
    <ele>44.8</ele>
    <time>2020-06-14T06:44:03Z</time>
   </trkpt>
   <trkpt lat="51.1677890" lon="5.5532650">
    <ele>44.8</ele>
    <time>2020-06-14T06:44:04Z</time>
   </trkpt>
   <trkpt lat="51.1678470" lon="5.5532010">
    <ele>44.8</ele>
    <time>2020-06-14T06:44:05Z</time>
   </trkpt>
   <trkpt lat="51.1679080" lon="5.5531390">
    <ele>44.8</ele>
    <time>2020-06-14T06:44:06Z</time>
   </trkpt>
   <trkpt lat="51.1679690" lon="5.5530810">
    <ele>44.8</ele>
    <time>2020-06-14T06:44:07Z</time>
   </trkpt>
   <trkpt lat="51.1680300" lon="5.5530250">
    <ele>44.8</ele>
    <time>2020-06-14T06:44:08Z</time>
   </trkpt>
   <trkpt lat="51.1680880" lon="5.5529630">
    <ele>44.8</ele>
    <time>2020-06-14T06:44:09Z</time>
   </trkpt>
   <trkpt lat="51.1681430" lon="5.5529010">
    <ele>44.8</ele>
    <time>2020-06-14T06:44:10Z</time>
   </trkpt>
   <trkpt lat="51.1682020" lon="5.5528460">
    <ele>44.8</ele>
    <time>2020-06-14T06:44:11Z</time>
   </trkpt>
   <trkpt lat="51.1682600" lon="5.5527900">
    <ele>44.8</ele>
    <time>2020-06-14T06:44:12Z</time>
   </trkpt>
   <trkpt lat="51.1683200" lon="5.5527380">
    <ele>44.8</ele>
    <time>2020-06-14T06:44:13Z</time>
   </trkpt>
   <trkpt lat="51.1683810" lon="5.5526830">
    <ele>44.8</ele>
    <time>2020-06-14T06:44:14Z</time>
   </trkpt>
   <trkpt lat="51.1684400" lon="5.5526190">
    <ele>44.8</ele>
    <time>2020-06-14T06:44:15Z</time>
   </trkpt>
   <trkpt lat="51.1685000" lon="5.5525600">
    <ele>44.8</ele>
    <time>2020-06-14T06:44:16Z</time>
   </trkpt>
   <trkpt lat="51.1685590" lon="5.5525020">
    <ele>44.8</ele>
    <time>2020-06-14T06:44:17Z</time>
   </trkpt>
   <trkpt lat="51.1686170" lon="5.5524430">
    <ele>44.8</ele>
    <time>2020-06-14T06:44:18Z</time>
   </trkpt>
   <trkpt lat="51.1686740" lon="5.5523820">
    <ele>44.8</ele>
    <time>2020-06-14T06:44:19Z</time>
   </trkpt>
   <trkpt lat="51.1687350" lon="5.5523330">
    <ele>44.8</ele>
    <time>2020-06-14T06:44:20Z</time>
   </trkpt>
   <trkpt lat="51.1687930" lon="5.5522830">
    <ele>44.8</ele>
    <time>2020-06-14T06:44:21Z</time>
   </trkpt>
   <trkpt lat="51.1688390" lon="5.5522220">
    <ele>44.7</ele>
    <time>2020-06-14T06:44:22Z</time>
   </trkpt>
   <trkpt lat="51.1688880" lon="5.5521730">
    <ele>44.7</ele>
    <time>2020-06-14T06:44:23Z</time>
   </trkpt>
   <trkpt lat="51.1689410" lon="5.5521230">
    <ele>44.7</ele>
    <time>2020-06-14T06:44:24Z</time>
   </trkpt>
   <trkpt lat="51.1690010" lon="5.5520740">
    <ele>44.7</ele>
    <time>2020-06-14T06:44:25Z</time>
   </trkpt>
   <trkpt lat="51.1690600" lon="5.5520300">
    <ele>44.6</ele>
    <time>2020-06-14T06:44:26Z</time>
   </trkpt>
   <trkpt lat="51.1691150" lon="5.5519750">
    <ele>44.6</ele>
    <time>2020-06-14T06:44:27Z</time>
   </trkpt>
   <trkpt lat="51.1691720" lon="5.5519250">
    <ele>44.6</ele>
    <time>2020-06-14T06:44:28Z</time>
   </trkpt>
   <trkpt lat="51.1692280" lon="5.5518720">
    <ele>44.6</ele>
    <time>2020-06-14T06:44:29Z</time>
   </trkpt>
   <trkpt lat="51.1692810" lon="5.5518170">
    <ele>44.6</ele>
    <time>2020-06-14T06:44:30Z</time>
   </trkpt>
   <trkpt lat="51.1693340" lon="5.5517600">
    <ele>44.6</ele>
    <time>2020-06-14T06:44:31Z</time>
   </trkpt>
   <trkpt lat="51.1693900" lon="5.5517080">
    <ele>44.5</ele>
    <time>2020-06-14T06:44:32Z</time>
   </trkpt>
   <trkpt lat="51.1694450" lon="5.5516490">
    <ele>44.5</ele>
    <time>2020-06-14T06:44:33Z</time>
   </trkpt>
   <trkpt lat="51.1694980" lon="5.5515910">
    <ele>44.5</ele>
    <time>2020-06-14T06:44:34Z</time>
   </trkpt>
   <trkpt lat="51.1695520" lon="5.5515330">
    <ele>44.5</ele>
    <time>2020-06-14T06:44:35Z</time>
   </trkpt>
   <trkpt lat="51.1696050" lon="5.5514740">
    <ele>44.5</ele>
    <time>2020-06-14T06:44:36Z</time>
   </trkpt>
   <trkpt lat="51.1696630" lon="5.5514230">
    <ele>44.6</ele>
    <time>2020-06-14T06:44:37Z</time>
   </trkpt>
   <trkpt lat="51.1697160" lon="5.5513730">
    <ele>44.6</ele>
    <time>2020-06-14T06:44:38Z</time>
   </trkpt>
   <trkpt lat="51.1697670" lon="5.5513170">
    <ele>44.6</ele>
    <time>2020-06-14T06:44:39Z</time>
   </trkpt>
   <trkpt lat="51.1698160" lon="5.5512750">
    <ele>44.6</ele>
    <time>2020-06-14T06:44:40Z</time>
   </trkpt>
   <trkpt lat="51.1698610" lon="5.5512380">
    <ele>44.6</ele>
    <time>2020-06-14T06:44:41Z</time>
   </trkpt>
   <trkpt lat="51.1699020" lon="5.5512000">
    <ele>44.6</ele>
    <time>2020-06-14T06:44:42Z</time>
   </trkpt>
   <trkpt lat="51.1699410" lon="5.5511650">
    <ele>44.7</ele>
    <time>2020-06-14T06:44:43Z</time>
   </trkpt>
   <trkpt lat="51.1699750" lon="5.5511300">
    <ele>44.7</ele>
    <time>2020-06-14T06:44:44Z</time>
   </trkpt>
   <trkpt lat="51.1699990" lon="5.5511020">
    <ele>44.7</ele>
    <time>2020-06-14T06:44:45Z</time>
   </trkpt>
   <trkpt lat="51.1700150" lon="5.5510840">
    <ele>44.7</ele>
    <time>2020-06-14T06:44:46Z</time>
   </trkpt>
   <trkpt lat="51.1700240" lon="5.5510640">
    <ele>44.7</ele>
    <time>2020-06-14T06:44:47Z</time>
   </trkpt>
   <trkpt lat="51.1700490" lon="5.5510300">
    <ele>44.8</ele>
    <time>2020-06-14T06:44:48Z</time>
   </trkpt>
   <trkpt lat="51.1700590" lon="5.5510170">
    <ele>44.8</ele>
    <time>2020-06-14T06:44:49Z</time>
   </trkpt>
   <trkpt lat="51.1700840" lon="5.5509850">
    <ele>44.8</ele>
    <time>2020-06-14T06:44:50Z</time>
   </trkpt>
   <trkpt lat="51.1700980" lon="5.5509310">
    <ele>44.8</ele>
    <time>2020-06-14T06:44:51Z</time>
   </trkpt>
   <trkpt lat="51.1701120" lon="5.5508690">
    <ele>44.9</ele>
    <time>2020-06-14T06:44:52Z</time>
   </trkpt>
   <trkpt lat="51.1701140" lon="5.5507930">
    <ele>44.9</ele>
    <time>2020-06-14T06:44:53Z</time>
   </trkpt>
   <trkpt lat="51.1701090" lon="5.5507180">
    <ele>44.9</ele>
    <time>2020-06-14T06:44:54Z</time>
   </trkpt>
   <trkpt lat="51.1701050" lon="5.5506410">
    <ele>44.9</ele>
    <time>2020-06-14T06:44:55Z</time>
   </trkpt>
   <trkpt lat="51.1701070" lon="5.5505560">
    <ele>44.9</ele>
    <time>2020-06-14T06:44:56Z</time>
   </trkpt>
   <trkpt lat="51.1701330" lon="5.5504760">
    <ele>44.8</ele>
    <time>2020-06-14T06:44:57Z</time>
   </trkpt>
   <trkpt lat="51.1701810" lon="5.5504130">
    <ele>44.8</ele>
    <time>2020-06-14T06:44:58Z</time>
   </trkpt>
   <trkpt lat="51.1702390" lon="5.5503660">
    <ele>44.7</ele>
    <time>2020-06-14T06:44:59Z</time>
   </trkpt>
   <trkpt lat="51.1702930" lon="5.5503070">
    <ele>44.7</ele>
    <time>2020-06-14T06:45:00Z</time>
   </trkpt>
   <trkpt lat="51.1703500" lon="5.5502380">
    <ele>44.7</ele>
    <time>2020-06-14T06:45:01Z</time>
   </trkpt>
   <trkpt lat="51.1704000" lon="5.5501500">
    <ele>44.7</ele>
    <time>2020-06-14T06:45:02Z</time>
   </trkpt>
   <trkpt lat="51.1704450" lon="5.5500530">
    <ele>44.6</ele>
    <time>2020-06-14T06:45:03Z</time>
   </trkpt>
   <trkpt lat="51.1704900" lon="5.5499550">
    <ele>44.6</ele>
    <time>2020-06-14T06:45:04Z</time>
   </trkpt>
   <trkpt lat="51.1705370" lon="5.5498540">
    <ele>44.6</ele>
    <time>2020-06-14T06:45:05Z</time>
   </trkpt>
   <trkpt lat="51.1705790" lon="5.5497520">
    <ele>44.6</ele>
    <time>2020-06-14T06:45:06Z</time>
   </trkpt>
   <trkpt lat="51.1706150" lon="5.5496450">
    <ele>44.6</ele>
    <time>2020-06-14T06:45:07Z</time>
   </trkpt>
   <trkpt lat="51.1706540" lon="5.5495400">
    <ele>44.6</ele>
    <time>2020-06-14T06:45:08Z</time>
   </trkpt>
   <trkpt lat="51.1706880" lon="5.5494410">
    <ele>44.6</ele>
    <time>2020-06-14T06:45:09Z</time>
   </trkpt>
   <trkpt lat="51.1707280" lon="5.5493380">
    <ele>44.6</ele>
    <time>2020-06-14T06:45:10Z</time>
   </trkpt>
   <trkpt lat="51.1707670" lon="5.5492250">
    <ele>44.6</ele>
    <time>2020-06-14T06:45:11Z</time>
   </trkpt>
   <trkpt lat="51.1708070" lon="5.5491220">
    <ele>44.7</ele>
    <time>2020-06-14T06:45:12Z</time>
   </trkpt>
   <trkpt lat="51.1708510" lon="5.5490180">
    <ele>44.7</ele>
    <time>2020-06-14T06:45:13Z</time>
   </trkpt>
   <trkpt lat="51.1708920" lon="5.5489140">
    <ele>44.8</ele>
    <time>2020-06-14T06:45:14Z</time>
   </trkpt>
   <trkpt lat="51.1709290" lon="5.5488060">
    <ele>44.8</ele>
    <time>2020-06-14T06:45:15Z</time>
   </trkpt>
   <trkpt lat="51.1709650" lon="5.5487010">
    <ele>44.8</ele>
    <time>2020-06-14T06:45:16Z</time>
   </trkpt>
   <trkpt lat="51.1710020" lon="5.5485980">
    <ele>44.9</ele>
    <time>2020-06-14T06:45:17Z</time>
   </trkpt>
   <trkpt lat="51.1710420" lon="5.5484950">
    <ele>44.9</ele>
    <time>2020-06-14T06:45:18Z</time>
   </trkpt>
   <trkpt lat="51.1710830" lon="5.5483930">
    <ele>44.9</ele>
    <time>2020-06-14T06:45:19Z</time>
   </trkpt>
   <trkpt lat="51.1711210" lon="5.5482950">
    <ele>45.0</ele>
    <time>2020-06-14T06:45:20Z</time>
   </trkpt>
   <trkpt lat="51.1711620" lon="5.5481920">
    <ele>45.0</ele>
    <time>2020-06-14T06:45:21Z</time>
   </trkpt>
   <trkpt lat="51.1712000" lon="5.5480820">
    <ele>45.1</ele>
    <time>2020-06-14T06:45:22Z</time>
   </trkpt>
   <trkpt lat="51.1712330" lon="5.5479700">
    <ele>45.1</ele>
    <time>2020-06-14T06:45:23Z</time>
   </trkpt>
   <trkpt lat="51.1712670" lon="5.5478640">
    <ele>45.2</ele>
    <time>2020-06-14T06:45:24Z</time>
   </trkpt>
   <trkpt lat="51.1713010" lon="5.5477600">
    <ele>45.3</ele>
    <time>2020-06-14T06:45:25Z</time>
   </trkpt>
   <trkpt lat="51.1713350" lon="5.5476560">
    <ele>45.3</ele>
    <time>2020-06-14T06:45:26Z</time>
   </trkpt>
   <trkpt lat="51.1713670" lon="5.5475520">
    <ele>45.3</ele>
    <time>2020-06-14T06:45:27Z</time>
   </trkpt>
   <trkpt lat="51.1713990" lon="5.5474480">
    <ele>45.4</ele>
    <time>2020-06-14T06:45:28Z</time>
   </trkpt>
   <trkpt lat="51.1714320" lon="5.5473410">
    <ele>45.4</ele>
    <time>2020-06-14T06:45:29Z</time>
   </trkpt>
   <trkpt lat="51.1714650" lon="5.5472340">
    <ele>45.5</ele>
    <time>2020-06-14T06:45:30Z</time>
   </trkpt>
   <trkpt lat="51.1715010" lon="5.5471300">
    <ele>45.6</ele>
    <time>2020-06-14T06:45:31Z</time>
   </trkpt>
   <trkpt lat="51.1715390" lon="5.5470310">
    <ele>45.6</ele>
    <time>2020-06-14T06:45:32Z</time>
   </trkpt>
   <trkpt lat="51.1715720" lon="5.5469350">
    <ele>45.7</ele>
    <time>2020-06-14T06:45:33Z</time>
   </trkpt>
   <trkpt lat="51.1716010" lon="5.5468390">
    <ele>45.8</ele>
    <time>2020-06-14T06:45:34Z</time>
   </trkpt>
   <trkpt lat="51.1716330" lon="5.5467450">
    <ele>46.0</ele>
    <time>2020-06-14T06:45:35Z</time>
   </trkpt>
   <trkpt lat="51.1716710" lon="5.5466510">
    <ele>45.9</ele>
    <time>2020-06-14T06:45:36Z</time>
   </trkpt>
   <trkpt lat="51.1717080" lon="5.5465570">
    <ele>45.9</ele>
    <time>2020-06-14T06:45:37Z</time>
   </trkpt>
   <trkpt lat="51.1717420" lon="5.5464610">
    <ele>45.9</ele>
    <time>2020-06-14T06:45:38Z</time>
   </trkpt>
   <trkpt lat="51.1717760" lon="5.5463680">
    <ele>45.9</ele>
    <time>2020-06-14T06:45:39Z</time>
   </trkpt>
   <trkpt lat="51.1718050" lon="5.5462730">
    <ele>45.9</ele>
    <time>2020-06-14T06:45:40Z</time>
   </trkpt>
   <trkpt lat="51.1718350" lon="5.5461800">
    <ele>45.9</ele>
    <time>2020-06-14T06:45:41Z</time>
   </trkpt>
   <trkpt lat="51.1718730" lon="5.5460830">
    <ele>46.0</ele>
    <time>2020-06-14T06:45:42Z</time>
   </trkpt>
   <trkpt lat="51.1719060" lon="5.5459800">
    <ele>46.0</ele>
    <time>2020-06-14T06:45:43Z</time>
   </trkpt>
   <trkpt lat="51.1719320" lon="5.5458780">
    <ele>46.0</ele>
    <time>2020-06-14T06:45:44Z</time>
   </trkpt>
   <trkpt lat="51.1719600" lon="5.5457810">
    <ele>46.0</ele>
    <time>2020-06-14T06:45:45Z</time>
   </trkpt>
   <trkpt lat="51.1719870" lon="5.5456860">
    <ele>46.0</ele>
    <time>2020-06-14T06:45:46Z</time>
   </trkpt>
   <trkpt lat="51.1720100" lon="5.5455880">
    <ele>46.1</ele>
    <time>2020-06-14T06:45:47Z</time>
   </trkpt>
   <trkpt lat="51.1720400" lon="5.5454930">
    <ele>46.0</ele>
    <time>2020-06-14T06:45:48Z</time>
   </trkpt>
   <trkpt lat="51.1720740" lon="5.5454070">
    <ele>46.0</ele>
    <time>2020-06-14T06:45:49Z</time>
   </trkpt>
   <trkpt lat="51.1721010" lon="5.5453140">
    <ele>46.0</ele>
    <time>2020-06-14T06:45:50Z</time>
   </trkpt>
   <trkpt lat="51.1721290" lon="5.5452260">
    <ele>46.0</ele>
    <time>2020-06-14T06:45:51Z</time>
   </trkpt>
   <trkpt lat="51.1721600" lon="5.5451400">
    <ele>46.0</ele>
    <time>2020-06-14T06:45:52Z</time>
   </trkpt>
   <trkpt lat="51.1721930" lon="5.5450550">
    <ele>46.0</ele>
    <time>2020-06-14T06:45:53Z</time>
   </trkpt>
   <trkpt lat="51.1722220" lon="5.5449660">
    <ele>46.0</ele>
    <time>2020-06-14T06:45:54Z</time>
   </trkpt>
   <trkpt lat="51.1722560" lon="5.5448730">
    <ele>46.0</ele>
    <time>2020-06-14T06:45:55Z</time>
   </trkpt>
   <trkpt lat="51.1722920" lon="5.5447740">
    <ele>46.1</ele>
    <time>2020-06-14T06:45:56Z</time>
   </trkpt>
   <trkpt lat="51.1723370" lon="5.5446760">
    <ele>46.1</ele>
    <time>2020-06-14T06:45:57Z</time>
   </trkpt>
   <trkpt lat="51.1723760" lon="5.5445750">
    <ele>46.1</ele>
    <time>2020-06-14T06:45:58Z</time>
   </trkpt>
   <trkpt lat="51.1724080" lon="5.5444760">
    <ele>46.1</ele>
    <time>2020-06-14T06:45:59Z</time>
   </trkpt>
   <trkpt lat="51.1724410" lon="5.5443820">
    <ele>46.1</ele>
    <time>2020-06-14T06:46:00Z</time>
   </trkpt>
   <trkpt lat="51.1724720" lon="5.5442840">
    <ele>46.1</ele>
    <time>2020-06-14T06:46:01Z</time>
   </trkpt>
   <trkpt lat="51.1725020" lon="5.5441840">
    <ele>46.1</ele>
    <time>2020-06-14T06:46:02Z</time>
   </trkpt>
   <trkpt lat="51.1725410" lon="5.5440900">
    <ele>46.1</ele>
    <time>2020-06-14T06:46:03Z</time>
   </trkpt>
   <trkpt lat="51.1725820" lon="5.5439990">
    <ele>46.1</ele>
    <time>2020-06-14T06:46:04Z</time>
   </trkpt>
   <trkpt lat="51.1726070" lon="5.5438990">
    <ele>46.1</ele>
    <time>2020-06-14T06:46:05Z</time>
   </trkpt>
   <trkpt lat="51.1726350" lon="5.5437950">
    <ele>46.2</ele>
    <time>2020-06-14T06:46:06Z</time>
   </trkpt>
   <trkpt lat="51.1726670" lon="5.5437030">
    <ele>46.2</ele>
    <time>2020-06-14T06:46:07Z</time>
   </trkpt>
   <trkpt lat="51.1726980" lon="5.5436130">
    <ele>46.2</ele>
    <time>2020-06-14T06:46:08Z</time>
   </trkpt>
   <trkpt lat="51.1727300" lon="5.5435240">
    <ele>46.2</ele>
    <time>2020-06-14T06:46:09Z</time>
   </trkpt>
   <trkpt lat="51.1727620" lon="5.5434320">
    <ele>46.2</ele>
    <time>2020-06-14T06:46:10Z</time>
   </trkpt>
   <trkpt lat="51.1727930" lon="5.5433410">
    <ele>46.2</ele>
    <time>2020-06-14T06:46:11Z</time>
   </trkpt>
   <trkpt lat="51.1728300" lon="5.5432530">
    <ele>46.2</ele>
    <time>2020-06-14T06:46:12Z</time>
   </trkpt>
   <trkpt lat="51.1728620" lon="5.5431600">
    <ele>46.2</ele>
    <time>2020-06-14T06:46:13Z</time>
   </trkpt>
   <trkpt lat="51.1728970" lon="5.5430630">
    <ele>46.2</ele>
    <time>2020-06-14T06:46:14Z</time>
   </trkpt>
   <trkpt lat="51.1729290" lon="5.5429620">
    <ele>46.1</ele>
    <time>2020-06-14T06:46:15Z</time>
   </trkpt>
   <trkpt lat="51.1729610" lon="5.5428640">
    <ele>46.1</ele>
    <time>2020-06-14T06:46:16Z</time>
   </trkpt>
   <trkpt lat="51.1729920" lon="5.5427650">
    <ele>46.1</ele>
    <time>2020-06-14T06:46:17Z</time>
   </trkpt>
   <trkpt lat="51.1730220" lon="5.5426650">
    <ele>46.1</ele>
    <time>2020-06-14T06:46:18Z</time>
   </trkpt>
   <trkpt lat="51.1730540" lon="5.5425620">
    <ele>46.0</ele>
    <time>2020-06-14T06:46:19Z</time>
   </trkpt>
   <trkpt lat="51.1730870" lon="5.5424590">
    <ele>46.0</ele>
    <time>2020-06-14T06:46:20Z</time>
   </trkpt>
   <trkpt lat="51.1731170" lon="5.5423550">
    <ele>45.9</ele>
    <time>2020-06-14T06:46:21Z</time>
   </trkpt>
   <trkpt lat="51.1731530" lon="5.5422400">
    <ele>45.9</ele>
    <time>2020-06-14T06:46:22Z</time>
   </trkpt>
   <trkpt lat="51.1731930" lon="5.5421360">
    <ele>45.8</ele>
    <time>2020-06-14T06:46:23Z</time>
   </trkpt>
   <trkpt lat="51.1732290" lon="5.5420390">
    <ele>45.8</ele>
    <time>2020-06-14T06:46:24Z</time>
   </trkpt>
   <trkpt lat="51.1732680" lon="5.5419530">
    <ele>45.8</ele>
    <time>2020-06-14T06:46:25Z</time>
   </trkpt>
   <trkpt lat="51.1733080" lon="5.5418620">
    <ele>45.7</ele>
    <time>2020-06-14T06:46:26Z</time>
   </trkpt>
   <trkpt lat="51.1733470" lon="5.5417630">
    <ele>45.7</ele>
    <time>2020-06-14T06:46:27Z</time>
   </trkpt>
   <trkpt lat="51.1733860" lon="5.5416650">
    <ele>45.7</ele>
    <time>2020-06-14T06:46:28Z</time>
   </trkpt>
   <trkpt lat="51.1734190" lon="5.5415700">
    <ele>45.7</ele>
    <time>2020-06-14T06:46:29Z</time>
   </trkpt>
   <trkpt lat="51.1734510" lon="5.5414700">
    <ele>45.7</ele>
    <time>2020-06-14T06:46:30Z</time>
   </trkpt>
   <trkpt lat="51.1734800" lon="5.5413670">
    <ele>45.7</ele>
    <time>2020-06-14T06:46:31Z</time>
   </trkpt>
   <trkpt lat="51.1735130" lon="5.5412700">
    <ele>45.7</ele>
    <time>2020-06-14T06:46:32Z</time>
   </trkpt>
   <trkpt lat="51.1735500" lon="5.5411750">
    <ele>45.7</ele>
    <time>2020-06-14T06:46:33Z</time>
   </trkpt>
   <trkpt lat="51.1735850" lon="5.5410740">
    <ele>45.7</ele>
    <time>2020-06-14T06:46:34Z</time>
   </trkpt>
   <trkpt lat="51.1736140" lon="5.5409740">
    <ele>45.6</ele>
    <time>2020-06-14T06:46:35Z</time>
   </trkpt>
   <trkpt lat="51.1736450" lon="5.5408810">
    <ele>45.6</ele>
    <time>2020-06-14T06:46:36Z</time>
   </trkpt>
   <trkpt lat="51.1736790" lon="5.5407860">
    <ele>45.6</ele>
    <time>2020-06-14T06:46:37Z</time>
   </trkpt>
   <trkpt lat="51.1737140" lon="5.5406890">
    <ele>45.6</ele>
    <time>2020-06-14T06:46:38Z</time>
   </trkpt>
   <trkpt lat="51.1737490" lon="5.5405940">
    <ele>45.6</ele>
    <time>2020-06-14T06:46:39Z</time>
   </trkpt>
   <trkpt lat="51.1737800" lon="5.5405010">
    <ele>45.6</ele>
    <time>2020-06-14T06:46:40Z</time>
   </trkpt>
   <trkpt lat="51.1738070" lon="5.5404060">
    <ele>45.6</ele>
    <time>2020-06-14T06:46:41Z</time>
   </trkpt>
   <trkpt lat="51.1738350" lon="5.5403090">
    <ele>45.6</ele>
    <time>2020-06-14T06:46:42Z</time>
   </trkpt>
   <trkpt lat="51.1738680" lon="5.5402130">
    <ele>45.6</ele>
    <time>2020-06-14T06:46:43Z</time>
   </trkpt>
   <trkpt lat="51.1738990" lon="5.5401070">
    <ele>45.5</ele>
    <time>2020-06-14T06:46:44Z</time>
   </trkpt>
   <trkpt lat="51.1739220" lon="5.5400050">
    <ele>45.5</ele>
    <time>2020-06-14T06:46:45Z</time>
   </trkpt>
   <trkpt lat="51.1739420" lon="5.5399190">
    <ele>45.5</ele>
    <time>2020-06-14T06:46:46Z</time>
   </trkpt>
   <trkpt lat="51.1739650" lon="5.5398400">
    <ele>45.6</ele>
    <time>2020-06-14T06:46:47Z</time>
   </trkpt>
   <trkpt lat="51.1739930" lon="5.5397540">
    <ele>45.6</ele>
    <time>2020-06-14T06:46:48Z</time>
   </trkpt>
   <trkpt lat="51.1740290" lon="5.5396690">
    <ele>45.7</ele>
    <time>2020-06-14T06:46:49Z</time>
   </trkpt>
   <trkpt lat="51.1740650" lon="5.5395820">
    <ele>45.7</ele>
    <time>2020-06-14T06:46:50Z</time>
   </trkpt>
   <trkpt lat="51.1740970" lon="5.5394950">
    <ele>45.7</ele>
    <time>2020-06-14T06:46:51Z</time>
   </trkpt>
   <trkpt lat="51.1741320" lon="5.5394140">
    <ele>45.7</ele>
    <time>2020-06-14T06:46:52Z</time>
   </trkpt>
   <trkpt lat="51.1741930" lon="5.5393500">
    <ele>45.7</ele>
    <time>2020-06-14T06:46:53Z</time>
   </trkpt>
   <trkpt lat="51.1742340" lon="5.5392650">
    <ele>45.7</ele>
    <time>2020-06-14T06:46:54Z</time>
   </trkpt>
   <trkpt lat="51.1742740" lon="5.5391730">
    <ele>45.6</ele>
    <time>2020-06-14T06:46:55Z</time>
   </trkpt>
   <trkpt lat="51.1743120" lon="5.5390840">
    <ele>45.6</ele>
    <time>2020-06-14T06:46:56Z</time>
   </trkpt>
   <trkpt lat="51.1743490" lon="5.5389990">
    <ele>45.5</ele>
    <time>2020-06-14T06:46:57Z</time>
   </trkpt>
   <trkpt lat="51.1743860" lon="5.5389090">
    <ele>45.5</ele>
    <time>2020-06-14T06:46:58Z</time>
   </trkpt>
   <trkpt lat="51.1744230" lon="5.5388180">
    <ele>45.4</ele>
    <time>2020-06-14T06:46:59Z</time>
   </trkpt>
   <trkpt lat="51.1744610" lon="5.5387240">
    <ele>45.4</ele>
    <time>2020-06-14T06:47:00Z</time>
   </trkpt>
   <trkpt lat="51.1745000" lon="5.5386220">
    <ele>45.4</ele>
    <time>2020-06-14T06:47:01Z</time>
   </trkpt>
   <trkpt lat="51.1745410" lon="5.5385160">
    <ele>45.3</ele>
    <time>2020-06-14T06:47:02Z</time>
   </trkpt>
   <trkpt lat="51.1745850" lon="5.5384130">
    <ele>45.2</ele>
    <time>2020-06-14T06:47:03Z</time>
   </trkpt>
   <trkpt lat="51.1746250" lon="5.5383070">
    <ele>45.2</ele>
    <time>2020-06-14T06:47:04Z</time>
   </trkpt>
   <trkpt lat="51.1746660" lon="5.5382070">
    <ele>45.1</ele>
    <time>2020-06-14T06:47:05Z</time>
   </trkpt>
   <trkpt lat="51.1747060" lon="5.5381120">
    <ele>45.1</ele>
    <time>2020-06-14T06:47:06Z</time>
   </trkpt>
   <trkpt lat="51.1747460" lon="5.5380130">
    <ele>45.1</ele>
    <time>2020-06-14T06:47:07Z</time>
   </trkpt>
   <trkpt lat="51.1747850" lon="5.5379160">
    <ele>45.1</ele>
    <time>2020-06-14T06:47:08Z</time>
   </trkpt>
   <trkpt lat="51.1748230" lon="5.5378210">
    <ele>45.1</ele>
    <time>2020-06-14T06:47:09Z</time>
   </trkpt>
   <trkpt lat="51.1748620" lon="5.5377350">
    <ele>45.1</ele>
    <time>2020-06-14T06:47:10Z</time>
   </trkpt>
   <trkpt lat="51.1749020" lon="5.5376440">
    <ele>45.1</ele>
    <time>2020-06-14T06:47:11Z</time>
   </trkpt>
   <trkpt lat="51.1749420" lon="5.5375500">
    <ele>45.1</ele>
    <time>2020-06-14T06:47:12Z</time>
   </trkpt>
   <trkpt lat="51.1749850" lon="5.5374590">
    <ele>45.0</ele>
    <time>2020-06-14T06:47:13Z</time>
   </trkpt>
   <trkpt lat="51.1750280" lon="5.5373690">
    <ele>45.0</ele>
    <time>2020-06-14T06:47:14Z</time>
   </trkpt>
   <trkpt lat="51.1750710" lon="5.5372680">
    <ele>45.0</ele>
    <time>2020-06-14T06:47:15Z</time>
   </trkpt>
   <trkpt lat="51.1751170" lon="5.5371760">
    <ele>45.0</ele>
    <time>2020-06-14T06:47:16Z</time>
   </trkpt>
   <trkpt lat="51.1751640" lon="5.5370850">
    <ele>45.0</ele>
    <time>2020-06-14T06:47:17Z</time>
   </trkpt>
   <trkpt lat="51.1752100" lon="5.5370010">
    <ele>45.0</ele>
    <time>2020-06-14T06:47:18Z</time>
   </trkpt>
   <trkpt lat="51.1752510" lon="5.5369130">
    <ele>45.0</ele>
    <time>2020-06-14T06:47:19Z</time>
   </trkpt>
   <trkpt lat="51.1752990" lon="5.5368350">
    <ele>44.9</ele>
    <time>2020-06-14T06:47:20Z</time>
   </trkpt>
   <trkpt lat="51.1753470" lon="5.5367620">
    <ele>44.9</ele>
    <time>2020-06-14T06:47:21Z</time>
   </trkpt>
   <trkpt lat="51.1754010" lon="5.5366860">
    <ele>44.9</ele>
    <time>2020-06-14T06:47:22Z</time>
   </trkpt>
   <trkpt lat="51.1754600" lon="5.5365990">
    <ele>44.8</ele>
    <time>2020-06-14T06:47:23Z</time>
   </trkpt>
   <trkpt lat="51.1755180" lon="5.5365140">
    <ele>44.8</ele>
    <time>2020-06-14T06:47:24Z</time>
   </trkpt>
   <trkpt lat="51.1755790" lon="5.5364310">
    <ele>44.7</ele>
    <time>2020-06-14T06:47:25Z</time>
   </trkpt>
   <trkpt lat="51.1756410" lon="5.5363490">
    <ele>44.7</ele>
    <time>2020-06-14T06:47:26Z</time>
   </trkpt>
   <trkpt lat="51.1757020" lon="5.5362650">
    <ele>44.7</ele>
    <time>2020-06-14T06:47:27Z</time>
   </trkpt>
   <trkpt lat="51.1757630" lon="5.5361850">
    <ele>44.7</ele>
    <time>2020-06-14T06:47:28Z</time>
   </trkpt>
   <trkpt lat="51.1758200" lon="5.5361080">
    <ele>44.7</ele>
    <time>2020-06-14T06:47:29Z</time>
   </trkpt>
   <trkpt lat="51.1758760" lon="5.5360350">
    <ele>44.7</ele>
    <time>2020-06-14T06:47:30Z</time>
   </trkpt>
   <trkpt lat="51.1759330" lon="5.5359600">
    <ele>44.7</ele>
    <time>2020-06-14T06:47:31Z</time>
   </trkpt>
   <trkpt lat="51.1759890" lon="5.5358850">
    <ele>44.7</ele>
    <time>2020-06-14T06:47:32Z</time>
   </trkpt>
   <trkpt lat="51.1760430" lon="5.5358140">
    <ele>44.7</ele>
    <time>2020-06-14T06:47:33Z</time>
   </trkpt>
   <trkpt lat="51.1760960" lon="5.5357410">
    <ele>44.7</ele>
    <time>2020-06-14T06:47:34Z</time>
   </trkpt>
   <trkpt lat="51.1761540" lon="5.5356680">
    <ele>44.7</ele>
    <time>2020-06-14T06:47:35Z</time>
   </trkpt>
   <trkpt lat="51.1762110" lon="5.5355950">
    <ele>44.7</ele>
    <time>2020-06-14T06:47:36Z</time>
   </trkpt>
   <trkpt lat="51.1762640" lon="5.5355240">
    <ele>44.6</ele>
    <time>2020-06-14T06:47:37Z</time>
   </trkpt>
   <trkpt lat="51.1763210" lon="5.5354530">
    <ele>44.6</ele>
    <time>2020-06-14T06:47:38Z</time>
   </trkpt>
   <trkpt lat="51.1763750" lon="5.5353800">
    <ele>44.6</ele>
    <time>2020-06-14T06:47:39Z</time>
   </trkpt>
   <trkpt lat="51.1764310" lon="5.5353110">
    <ele>44.6</ele>
    <time>2020-06-14T06:47:40Z</time>
   </trkpt>
   <trkpt lat="51.1764860" lon="5.5352410">
    <ele>44.6</ele>
    <time>2020-06-14T06:47:41Z</time>
   </trkpt>
   <trkpt lat="51.1765400" lon="5.5351740">
    <ele>44.6</ele>
    <time>2020-06-14T06:47:42Z</time>
   </trkpt>
   <trkpt lat="51.1765910" lon="5.5351010">
    <ele>44.6</ele>
    <time>2020-06-14T06:47:43Z</time>
   </trkpt>
   <trkpt lat="51.1766380" lon="5.5350200">
    <ele>44.6</ele>
    <time>2020-06-14T06:47:44Z</time>
   </trkpt>
   <trkpt lat="51.1766840" lon="5.5349400">
    <ele>44.7</ele>
    <time>2020-06-14T06:47:45Z</time>
   </trkpt>
   <trkpt lat="51.1767300" lon="5.5348620">
    <ele>44.7</ele>
    <time>2020-06-14T06:47:46Z</time>
   </trkpt>
   <trkpt lat="51.1767710" lon="5.5347830">
    <ele>44.8</ele>
    <time>2020-06-14T06:47:47Z</time>
   </trkpt>
   <trkpt lat="51.1768100" lon="5.5347010">
    <ele>44.8</ele>
    <time>2020-06-14T06:47:48Z</time>
   </trkpt>
   <trkpt lat="51.1768510" lon="5.5346180">
    <ele>44.9</ele>
    <time>2020-06-14T06:47:49Z</time>
   </trkpt>
   <trkpt lat="51.1768810" lon="5.5345230">
    <ele>45.0</ele>
    <time>2020-06-14T06:47:50Z</time>
   </trkpt>
   <trkpt lat="51.1769150" lon="5.5344330">
    <ele>45.0</ele>
    <time>2020-06-14T06:47:51Z</time>
   </trkpt>
   <trkpt lat="51.1769540" lon="5.5343460">
    <ele>45.1</ele>
    <time>2020-06-14T06:47:52Z</time>
   </trkpt>
   <trkpt lat="51.1769920" lon="5.5342570">
    <ele>45.1</ele>
    <time>2020-06-14T06:47:53Z</time>
   </trkpt>
   <trkpt lat="51.1770320" lon="5.5341650">
    <ele>45.2</ele>
    <time>2020-06-14T06:47:54Z</time>
   </trkpt>
   <trkpt lat="51.1770710" lon="5.5340690">
    <ele>45.2</ele>
    <time>2020-06-14T06:47:55Z</time>
   </trkpt>
   <trkpt lat="51.1771130" lon="5.5339810">
    <ele>45.2</ele>
    <time>2020-06-14T06:47:56Z</time>
   </trkpt>
   <trkpt lat="51.1771620" lon="5.5339010">
    <ele>45.2</ele>
    <time>2020-06-14T06:47:57Z</time>
   </trkpt>
   <trkpt lat="51.1772180" lon="5.5338230">
    <ele>45.1</ele>
    <time>2020-06-14T06:47:58Z</time>
   </trkpt>
   <trkpt lat="51.1772740" lon="5.5337430">
    <ele>45.1</ele>
    <time>2020-06-14T06:47:59Z</time>
   </trkpt>
   <trkpt lat="51.1773210" lon="5.5336500">
    <ele>45.1</ele>
    <time>2020-06-14T06:48:00Z</time>
   </trkpt>
   <trkpt lat="51.1773720" lon="5.5335550">
    <ele>45.1</ele>
    <time>2020-06-14T06:48:01Z</time>
   </trkpt>
   <trkpt lat="51.1774200" lon="5.5334550">
    <ele>45.0</ele>
    <time>2020-06-14T06:48:02Z</time>
   </trkpt>
   <trkpt lat="51.1774770" lon="5.5333580">
    <ele>45.0</ele>
    <time>2020-06-14T06:48:03Z</time>
   </trkpt>
   <trkpt lat="51.1775310" lon="5.5332580">
    <ele>45.0</ele>
    <time>2020-06-14T06:48:04Z</time>
   </trkpt>
   <trkpt lat="51.1775830" lon="5.5331610">
    <ele>45.1</ele>
    <time>2020-06-14T06:48:05Z</time>
   </trkpt>
   <trkpt lat="51.1776320" lon="5.5330690">
    <ele>45.1</ele>
    <time>2020-06-14T06:48:06Z</time>
   </trkpt>
   <trkpt lat="51.1776780" lon="5.5329710">
    <ele>45.0</ele>
    <time>2020-06-14T06:48:07Z</time>
   </trkpt>
   <trkpt lat="51.1777270" lon="5.5328750">
    <ele>45.0</ele>
    <time>2020-06-14T06:48:08Z</time>
   </trkpt>
   <trkpt lat="51.1777760" lon="5.5327740">
    <ele>45.0</ele>
    <time>2020-06-14T06:48:09Z</time>
   </trkpt>
   <trkpt lat="51.1778260" lon="5.5326700">
    <ele>45.0</ele>
    <time>2020-06-14T06:48:10Z</time>
   </trkpt>
   <trkpt lat="51.1778710" lon="5.5325800">
    <ele>45.0</ele>
    <time>2020-06-14T06:48:11Z</time>
   </trkpt>
   <trkpt lat="51.1779170" lon="5.5324900">
    <ele>45.0</ele>
    <time>2020-06-14T06:48:12Z</time>
   </trkpt>
   <trkpt lat="51.1779630" lon="5.5324030">
    <ele>45.0</ele>
    <time>2020-06-14T06:48:13Z</time>
   </trkpt>
   <trkpt lat="51.1780080" lon="5.5323260">
    <ele>45.0</ele>
    <time>2020-06-14T06:48:14Z</time>
   </trkpt>
   <trkpt lat="51.1780570" lon="5.5322440">
    <ele>45.0</ele>
    <time>2020-06-14T06:48:15Z</time>
   </trkpt>
   <trkpt lat="51.1781040" lon="5.5321570">
    <ele>45.0</ele>
    <time>2020-06-14T06:48:16Z</time>
   </trkpt>
   <trkpt lat="51.1781530" lon="5.5320780">
    <ele>45.0</ele>
    <time>2020-06-14T06:48:17Z</time>
   </trkpt>
   <trkpt lat="51.1782090" lon="5.5320080">
    <ele>45.0</ele>
    <time>2020-06-14T06:48:18Z</time>
   </trkpt>
   <trkpt lat="51.1782590" lon="5.5319270">
    <ele>45.0</ele>
    <time>2020-06-14T06:48:19Z</time>
   </trkpt>
   <trkpt lat="51.1783120" lon="5.5318490">
    <ele>45.0</ele>
    <time>2020-06-14T06:48:20Z</time>
   </trkpt>
   <trkpt lat="51.1783650" lon="5.5317680">
    <ele>45.0</ele>
    <time>2020-06-14T06:48:21Z</time>
   </trkpt>
   <trkpt lat="51.1784170" lon="5.5316870">
    <ele>45.0</ele>
    <time>2020-06-14T06:48:22Z</time>
   </trkpt>
   <trkpt lat="51.1784720" lon="5.5316050">
    <ele>45.0</ele>
    <time>2020-06-14T06:48:23Z</time>
   </trkpt>
   <trkpt lat="51.1785240" lon="5.5315220">
    <ele>45.0</ele>
    <time>2020-06-14T06:48:24Z</time>
   </trkpt>
   <trkpt lat="51.1785730" lon="5.5314380">
    <ele>44.9</ele>
    <time>2020-06-14T06:48:25Z</time>
   </trkpt>
   <trkpt lat="51.1786180" lon="5.5313500">
    <ele>44.9</ele>
    <time>2020-06-14T06:48:26Z</time>
   </trkpt>
   <trkpt lat="51.1786600" lon="5.5312560">
    <ele>44.9</ele>
    <time>2020-06-14T06:48:27Z</time>
   </trkpt>
   <trkpt lat="51.1787000" lon="5.5311640">
    <ele>44.9</ele>
    <time>2020-06-14T06:48:28Z</time>
   </trkpt>
   <trkpt lat="51.1787360" lon="5.5310720">
    <ele>44.9</ele>
    <time>2020-06-14T06:48:29Z</time>
   </trkpt>
   <trkpt lat="51.1787720" lon="5.5309770">
    <ele>44.9</ele>
    <time>2020-06-14T06:48:30Z</time>
   </trkpt>
   <trkpt lat="51.1788120" lon="5.5308840">
    <ele>44.9</ele>
    <time>2020-06-14T06:48:31Z</time>
   </trkpt>
   <trkpt lat="51.1788560" lon="5.5307970">
    <ele>44.9</ele>
    <time>2020-06-14T06:48:32Z</time>
   </trkpt>
   <trkpt lat="51.1788990" lon="5.5307080">
    <ele>44.9</ele>
    <time>2020-06-14T06:48:33Z</time>
   </trkpt>
   <trkpt lat="51.1789450" lon="5.5306270">
    <ele>44.9</ele>
    <time>2020-06-14T06:48:34Z</time>
   </trkpt>
   <trkpt lat="51.1789870" lon="5.5305360">
    <ele>45.0</ele>
    <time>2020-06-14T06:48:35Z</time>
   </trkpt>
   <trkpt lat="51.1790320" lon="5.5304490">
    <ele>45.0</ele>
    <time>2020-06-14T06:48:36Z</time>
   </trkpt>
   <trkpt lat="51.1790760" lon="5.5303700">
    <ele>45.0</ele>
    <time>2020-06-14T06:48:37Z</time>
   </trkpt>
   <trkpt lat="51.1791210" lon="5.5302950">
    <ele>45.0</ele>
    <time>2020-06-14T06:48:38Z</time>
   </trkpt>
   <trkpt lat="51.1791620" lon="5.5302180">
    <ele>45.0</ele>
    <time>2020-06-14T06:48:39Z</time>
   </trkpt>
   <trkpt lat="51.1792000" lon="5.5301440">
    <ele>45.0</ele>
    <time>2020-06-14T06:48:40Z</time>
   </trkpt>
   <trkpt lat="51.1792430" lon="5.5300730">
    <ele>45.0</ele>
    <time>2020-06-14T06:48:41Z</time>
   </trkpt>
   <trkpt lat="51.1792870" lon="5.5299980">
    <ele>44.9</ele>
    <time>2020-06-14T06:48:42Z</time>
   </trkpt>
   <trkpt lat="51.1793290" lon="5.5299230">
    <ele>44.9</ele>
    <time>2020-06-14T06:48:43Z</time>
   </trkpt>
   <trkpt lat="51.1793730" lon="5.5298480">
    <ele>44.8</ele>
    <time>2020-06-14T06:48:44Z</time>
   </trkpt>
   <trkpt lat="51.1794210" lon="5.5297700">
    <ele>44.7</ele>
    <time>2020-06-14T06:48:45Z</time>
   </trkpt>
   <trkpt lat="51.1794640" lon="5.5296940">
    <ele>44.6</ele>
    <time>2020-06-14T06:48:46Z</time>
   </trkpt>
   <trkpt lat="51.1795080" lon="5.5296200">
    <ele>44.6</ele>
    <time>2020-06-14T06:48:47Z</time>
   </trkpt>
   <trkpt lat="51.1795550" lon="5.5295390">
    <ele>44.5</ele>
    <time>2020-06-14T06:48:48Z</time>
   </trkpt>
   <trkpt lat="51.1796020" lon="5.5294560">
    <ele>44.5</ele>
    <time>2020-06-14T06:48:49Z</time>
   </trkpt>
   <trkpt lat="51.1796430" lon="5.5293610">
    <ele>44.5</ele>
    <time>2020-06-14T06:48:50Z</time>
   </trkpt>
   <trkpt lat="51.1796830" lon="5.5292640">
    <ele>44.5</ele>
    <time>2020-06-14T06:48:51Z</time>
   </trkpt>
   <trkpt lat="51.1797200" lon="5.5291650">
    <ele>44.5</ele>
    <time>2020-06-14T06:48:52Z</time>
   </trkpt>
   <trkpt lat="51.1797540" lon="5.5290620">
    <ele>44.5</ele>
    <time>2020-06-14T06:48:53Z</time>
   </trkpt>
   <trkpt lat="51.1797890" lon="5.5289620">
    <ele>44.5</ele>
    <time>2020-06-14T06:48:54Z</time>
   </trkpt>
   <trkpt lat="51.1798230" lon="5.5288670">
    <ele>44.5</ele>
    <time>2020-06-14T06:48:55Z</time>
   </trkpt>
   <trkpt lat="51.1798600" lon="5.5287700">
    <ele>44.5</ele>
    <time>2020-06-14T06:48:56Z</time>
   </trkpt>
   <trkpt lat="51.1798990" lon="5.5286770">
    <ele>44.5</ele>
    <time>2020-06-14T06:48:57Z</time>
   </trkpt>
   <trkpt lat="51.1799440" lon="5.5285820">
    <ele>44.5</ele>
    <time>2020-06-14T06:48:58Z</time>
   </trkpt>
   <trkpt lat="51.1799980" lon="5.5284970">
    <ele>44.5</ele>
    <time>2020-06-14T06:48:59Z</time>
   </trkpt>
   <trkpt lat="51.1800550" lon="5.5284230">
    <ele>44.5</ele>
    <time>2020-06-14T06:49:00Z</time>
   </trkpt>
   <trkpt lat="51.1801150" lon="5.5283500">
    <ele>44.5</ele>
    <time>2020-06-14T06:49:01Z</time>
   </trkpt>
   <trkpt lat="51.1801800" lon="5.5282870">
    <ele>44.5</ele>
    <time>2020-06-14T06:49:02Z</time>
   </trkpt>
   <trkpt lat="51.1802400" lon="5.5282200">
    <ele>44.5</ele>
    <time>2020-06-14T06:49:03Z</time>
   </trkpt>
   <trkpt lat="51.1803000" lon="5.5281520">
    <ele>44.5</ele>
    <time>2020-06-14T06:49:04Z</time>
   </trkpt>
   <trkpt lat="51.1803600" lon="5.5280910">
    <ele>44.6</ele>
    <time>2020-06-14T06:49:05Z</time>
   </trkpt>
   <trkpt lat="51.1804140" lon="5.5280210">
    <ele>44.6</ele>
    <time>2020-06-14T06:49:06Z</time>
   </trkpt>
   <trkpt lat="51.1804720" lon="5.5279580">
    <ele>44.6</ele>
    <time>2020-06-14T06:49:07Z</time>
   </trkpt>
   <trkpt lat="51.1805290" lon="5.5278990">
    <ele>44.7</ele>
    <time>2020-06-14T06:49:08Z</time>
   </trkpt>
   <trkpt lat="51.1805890" lon="5.5278370">
    <ele>44.7</ele>
    <time>2020-06-14T06:49:09Z</time>
   </trkpt>
   <trkpt lat="51.1806480" lon="5.5277750">
    <ele>44.7</ele>
    <time>2020-06-14T06:49:10Z</time>
   </trkpt>
   <trkpt lat="51.1807060" lon="5.5277150">
    <ele>44.7</ele>
    <time>2020-06-14T06:49:11Z</time>
   </trkpt>
   <trkpt lat="51.1807700" lon="5.5276660">
    <ele>44.7</ele>
    <time>2020-06-14T06:49:12Z</time>
   </trkpt>
   <trkpt lat="51.1808320" lon="5.5276190">
    <ele>44.7</ele>
    <time>2020-06-14T06:49:13Z</time>
   </trkpt>
   <trkpt lat="51.1808910" lon="5.5275650">
    <ele>44.7</ele>
    <time>2020-06-14T06:49:14Z</time>
   </trkpt>
   <trkpt lat="51.1809510" lon="5.5275070">
    <ele>44.7</ele>
    <time>2020-06-14T06:49:15Z</time>
   </trkpt>
   <trkpt lat="51.1810180" lon="5.5274580">
    <ele>44.7</ele>
    <time>2020-06-14T06:49:16Z</time>
   </trkpt>
   <trkpt lat="51.1810810" lon="5.5274070">
    <ele>44.7</ele>
    <time>2020-06-14T06:49:17Z</time>
   </trkpt>
   <trkpt lat="51.1811400" lon="5.5273530">
    <ele>44.7</ele>
    <time>2020-06-14T06:49:18Z</time>
   </trkpt>
   <trkpt lat="51.1811970" lon="5.5272980">
    <ele>44.7</ele>
    <time>2020-06-14T06:49:19Z</time>
   </trkpt>
   <trkpt lat="51.1812560" lon="5.5272440">
    <ele>44.8</ele>
    <time>2020-06-14T06:49:20Z</time>
   </trkpt>
   <trkpt lat="51.1813140" lon="5.5271940">
    <ele>44.8</ele>
    <time>2020-06-14T06:49:21Z</time>
   </trkpt>
   <trkpt lat="51.1813680" lon="5.5271420">
    <ele>44.8</ele>
    <time>2020-06-14T06:49:22Z</time>
   </trkpt>
   <trkpt lat="51.1814230" lon="5.5270940">
    <ele>44.9</ele>
    <time>2020-06-14T06:49:23Z</time>
   </trkpt>
   <trkpt lat="51.1814800" lon="5.5270530">
    <ele>44.9</ele>
    <time>2020-06-14T06:49:24Z</time>
   </trkpt>
   <trkpt lat="51.1815390" lon="5.5270140">
    <ele>45.0</ele>
    <time>2020-06-14T06:49:25Z</time>
   </trkpt>
   <trkpt lat="51.1815980" lon="5.5269720">
    <ele>45.0</ele>
    <time>2020-06-14T06:49:26Z</time>
   </trkpt>
   <trkpt lat="51.1816590" lon="5.5269360">
    <ele>44.9</ele>
    <time>2020-06-14T06:49:27Z</time>
   </trkpt>
   <trkpt lat="51.1817150" lon="5.5268990">
    <ele>44.9</ele>
    <time>2020-06-14T06:49:28Z</time>
   </trkpt>
   <trkpt lat="51.1817700" lon="5.5268570">
    <ele>44.9</ele>
    <time>2020-06-14T06:49:29Z</time>
   </trkpt>
   <trkpt lat="51.1818260" lon="5.5268170">
    <ele>44.8</ele>
    <time>2020-06-14T06:49:30Z</time>
   </trkpt>
   <trkpt lat="51.1818800" lon="5.5267850">
    <ele>44.8</ele>
    <time>2020-06-14T06:49:31Z</time>
   </trkpt>
   <trkpt lat="51.1819300" lon="5.5267480">
    <ele>44.8</ele>
    <time>2020-06-14T06:49:32Z</time>
   </trkpt>
   <trkpt lat="51.1819790" lon="5.5267130">
    <ele>44.8</ele>
    <time>2020-06-14T06:49:33Z</time>
   </trkpt>
   <trkpt lat="51.1820200" lon="5.5266690">
    <ele>44.8</ele>
    <time>2020-06-14T06:49:34Z</time>
   </trkpt>
   <trkpt lat="51.1820610" lon="5.5266300">
    <ele>44.8</ele>
    <time>2020-06-14T06:49:35Z</time>
   </trkpt>
   <trkpt lat="51.1821020" lon="5.5265970">
    <ele>44.8</ele>
    <time>2020-06-14T06:49:36Z</time>
   </trkpt>
   <trkpt lat="51.1821410" lon="5.5265700">
    <ele>44.8</ele>
    <time>2020-06-14T06:49:37Z</time>
   </trkpt>
   <trkpt lat="51.1821820" lon="5.5265450">
    <ele>44.9</ele>
    <time>2020-06-14T06:49:38Z</time>
   </trkpt>
   <trkpt lat="51.1822220" lon="5.5265190">
    <ele>44.9</ele>
    <time>2020-06-14T06:49:39Z</time>
   </trkpt>
   <trkpt lat="51.1822640" lon="5.5264890">
    <ele>45.0</ele>
    <time>2020-06-14T06:49:40Z</time>
   </trkpt>
   <trkpt lat="51.1823020" lon="5.5264440">
    <ele>45.0</ele>
    <time>2020-06-14T06:49:41Z</time>
   </trkpt>
   <trkpt lat="51.1823340" lon="5.5263840">
    <ele>45.0</ele>
    <time>2020-06-14T06:49:42Z</time>
   </trkpt>
   <trkpt lat="51.1823410" lon="5.5263020">
    <ele>45.0</ele>
    <time>2020-06-14T06:49:43Z</time>
   </trkpt>
   <trkpt lat="51.1823140" lon="5.5262140">
    <ele>44.9</ele>
    <time>2020-06-14T06:49:44Z</time>
   </trkpt>
   <trkpt lat="51.1822860" lon="5.5261220">
    <ele>44.8</ele>
    <time>2020-06-14T06:49:45Z</time>
   </trkpt>
   <trkpt lat="51.1822670" lon="5.5260170">
    <ele>44.8</ele>
    <time>2020-06-14T06:49:46Z</time>
   </trkpt>
   <trkpt lat="51.1822440" lon="5.5259080">
    <ele>44.8</ele>
    <time>2020-06-14T06:49:47Z</time>
   </trkpt>
   <trkpt lat="51.1822140" lon="5.5257940">
    <ele>44.7</ele>
    <time>2020-06-14T06:49:48Z</time>
   </trkpt>
   <trkpt lat="51.1821880" lon="5.5256800">
    <ele>44.7</ele>
    <time>2020-06-14T06:49:49Z</time>
   </trkpt>
   <trkpt lat="51.1821580" lon="5.5255670">
    <ele>44.8</ele>
    <time>2020-06-14T06:49:50Z</time>
   </trkpt>
   <trkpt lat="51.1821270" lon="5.5254550">
    <ele>44.8</ele>
    <time>2020-06-14T06:49:51Z</time>
   </trkpt>
   <trkpt lat="51.1820950" lon="5.5253450">
    <ele>44.8</ele>
    <time>2020-06-14T06:49:52Z</time>
   </trkpt>
   <trkpt lat="51.1820710" lon="5.5252350">
    <ele>44.9</ele>
    <time>2020-06-14T06:49:53Z</time>
   </trkpt>
   <trkpt lat="51.1820460" lon="5.5251270">
    <ele>44.9</ele>
    <time>2020-06-14T06:49:54Z</time>
   </trkpt>
   <trkpt lat="51.1820230" lon="5.5250160">
    <ele>45.0</ele>
    <time>2020-06-14T06:49:55Z</time>
   </trkpt>
   <trkpt lat="51.1819930" lon="5.5249090">
    <ele>45.0</ele>
    <time>2020-06-14T06:49:56Z</time>
   </trkpt>
   <trkpt lat="51.1819560" lon="5.5248080">
    <ele>45.0</ele>
    <time>2020-06-14T06:49:57Z</time>
   </trkpt>
   <trkpt lat="51.1819190" lon="5.5247070">
    <ele>45.1</ele>
    <time>2020-06-14T06:49:58Z</time>
   </trkpt>
   <trkpt lat="51.1818890" lon="5.5245970">
    <ele>45.2</ele>
    <time>2020-06-14T06:49:59Z</time>
   </trkpt>
   <trkpt lat="51.1818590" lon="5.5244940">
    <ele>45.2</ele>
    <time>2020-06-14T06:50:00Z</time>
   </trkpt>
   <trkpt lat="51.1818210" lon="5.5243870">
    <ele>45.2</ele>
    <time>2020-06-14T06:50:01Z</time>
   </trkpt>
   <trkpt lat="51.1817830" lon="5.5242790">
    <ele>45.3</ele>
    <time>2020-06-14T06:50:02Z</time>
   </trkpt>
   <trkpt lat="51.1817440" lon="5.5241840">
    <ele>45.3</ele>
    <time>2020-06-14T06:50:03Z</time>
   </trkpt>
   <trkpt lat="51.1817030" lon="5.5240800">
    <ele>45.3</ele>
    <time>2020-06-14T06:50:04Z</time>
   </trkpt>
   <trkpt lat="51.1816640" lon="5.5239670">
    <ele>45.4</ele>
    <time>2020-06-14T06:50:05Z</time>
   </trkpt>
   <trkpt lat="51.1816290" lon="5.5238590">
    <ele>45.5</ele>
    <time>2020-06-14T06:50:06Z</time>
   </trkpt>
   <trkpt lat="51.1815940" lon="5.5237500">
    <ele>45.5</ele>
    <time>2020-06-14T06:50:07Z</time>
   </trkpt>
   <trkpt lat="51.1815600" lon="5.5236440">
    <ele>45.6</ele>
    <time>2020-06-14T06:50:08Z</time>
   </trkpt>
   <trkpt lat="51.1815210" lon="5.5235490">
    <ele>45.6</ele>
    <time>2020-06-14T06:50:09Z</time>
   </trkpt>
   <trkpt lat="51.1814860" lon="5.5234530">
    <ele>45.6</ele>
    <time>2020-06-14T06:50:10Z</time>
   </trkpt>
   <trkpt lat="51.1814550" lon="5.5233630">
    <ele>45.6</ele>
    <time>2020-06-14T06:50:11Z</time>
   </trkpt>
   <trkpt lat="51.1814270" lon="5.5232790">
    <ele>45.6</ele>
    <time>2020-06-14T06:50:12Z</time>
   </trkpt>
   <trkpt lat="51.1813970" lon="5.5231980">
    <ele>45.6</ele>
    <time>2020-06-14T06:50:13Z</time>
   </trkpt>
   <trkpt lat="51.1813680" lon="5.5231240">
    <ele>45.7</ele>
    <time>2020-06-14T06:50:14Z</time>
   </trkpt>
   <trkpt lat="51.1813410" lon="5.5230500">
    <ele>45.8</ele>
    <time>2020-06-14T06:50:15Z</time>
   </trkpt>
   <trkpt lat="51.1813170" lon="5.5229740">
    <ele>45.9</ele>
    <time>2020-06-14T06:50:16Z</time>
   </trkpt>
   <trkpt lat="51.1812980" lon="5.5228990">
    <ele>46.0</ele>
    <time>2020-06-14T06:50:17Z</time>
   </trkpt>
   <trkpt lat="51.1812730" lon="5.5228380">
    <ele>46.1</ele>
    <time>2020-06-14T06:50:18Z</time>
   </trkpt>
   <trkpt lat="51.1812490" lon="5.5227820">
    <ele>46.1</ele>
    <time>2020-06-14T06:50:19Z</time>
   </trkpt>
   <trkpt lat="51.1812290" lon="5.5227200">
    <ele>46.2</ele>
    <time>2020-06-14T06:50:20Z</time>
   </trkpt>
   <trkpt lat="51.1812160" lon="5.5226450">
    <ele>46.3</ele>
    <time>2020-06-14T06:50:21Z</time>
   </trkpt>
   <trkpt lat="51.1812290" lon="5.5225670">
    <ele>46.3</ele>
    <time>2020-06-14T06:50:22Z</time>
   </trkpt>
   <trkpt lat="51.1812670" lon="5.5224960">
    <ele>46.2</ele>
    <time>2020-06-14T06:50:23Z</time>
   </trkpt>
   <trkpt lat="51.1813220" lon="5.5224510">
    <ele>46.1</ele>
    <time>2020-06-14T06:50:24Z</time>
   </trkpt>
   <trkpt lat="51.1813790" lon="5.5224040">
    <ele>46.0</ele>
    <time>2020-06-14T06:50:25Z</time>
   </trkpt>
   <trkpt lat="51.1814430" lon="5.5223510">
    <ele>46.0</ele>
    <time>2020-06-14T06:50:26Z</time>
   </trkpt>
   <trkpt lat="51.1815120" lon="5.5222900">
    <ele>46.0</ele>
    <time>2020-06-14T06:50:27Z</time>
   </trkpt>
   <trkpt lat="51.1815800" lon="5.5222330">
    <ele>46.0</ele>
    <time>2020-06-14T06:50:28Z</time>
   </trkpt>
   <trkpt lat="51.1816480" lon="5.5221750">
    <ele>46.0</ele>
    <time>2020-06-14T06:50:29Z</time>
   </trkpt>
   <trkpt lat="51.1817120" lon="5.5221120">
    <ele>46.1</ele>
    <time>2020-06-14T06:50:30Z</time>
   </trkpt>
   <trkpt lat="51.1817770" lon="5.5220500">
    <ele>46.2</ele>
    <time>2020-06-14T06:50:31Z</time>
   </trkpt>
   <trkpt lat="51.1818410" lon="5.5219940">
    <ele>46.2</ele>
    <time>2020-06-14T06:50:32Z</time>
   </trkpt>
   <trkpt lat="51.1819020" lon="5.5219380">
    <ele>46.3</ele>
    <time>2020-06-14T06:50:33Z</time>
   </trkpt>
   <trkpt lat="51.1819600" lon="5.5218800">
    <ele>46.4</ele>
    <time>2020-06-14T06:50:34Z</time>
   </trkpt>
   <trkpt lat="51.1820270" lon="5.5218260">
    <ele>46.5</ele>
    <time>2020-06-14T06:50:35Z</time>
   </trkpt>
   <trkpt lat="51.1820950" lon="5.5217790">
    <ele>46.5</ele>
    <time>2020-06-14T06:50:36Z</time>
   </trkpt>
   <trkpt lat="51.1821480" lon="5.5217420">
    <ele>46.6</ele>
    <time>2020-06-14T06:50:37Z</time>
   </trkpt>
   <trkpt lat="51.1822050" lon="5.5216930">
    <ele>46.7</ele>
    <time>2020-06-14T06:50:38Z</time>
   </trkpt>
   <trkpt lat="51.1822690" lon="5.5216260">
    <ele>46.8</ele>
    <time>2020-06-14T06:50:39Z</time>
   </trkpt>
   <trkpt lat="51.1823300" lon="5.5215660">
    <ele>46.9</ele>
    <time>2020-06-14T06:50:40Z</time>
   </trkpt>
   <trkpt lat="51.1823850" lon="5.5215030">
    <ele>47.0</ele>
    <time>2020-06-14T06:50:41Z</time>
   </trkpt>
   <trkpt lat="51.1824380" lon="5.5214380">
    <ele>47.1</ele>
    <time>2020-06-14T06:50:42Z</time>
   </trkpt>
   <trkpt lat="51.1824920" lon="5.5213710">
    <ele>47.1</ele>
    <time>2020-06-14T06:50:43Z</time>
   </trkpt>
   <trkpt lat="51.1825450" lon="5.5213010">
    <ele>47.2</ele>
    <time>2020-06-14T06:50:44Z</time>
   </trkpt>
   <trkpt lat="51.1825970" lon="5.5212310">
    <ele>47.3</ele>
    <time>2020-06-14T06:50:45Z</time>
   </trkpt>
   <trkpt lat="51.1826470" lon="5.5211580">
    <ele>47.3</ele>
    <time>2020-06-14T06:50:46Z</time>
   </trkpt>
   <trkpt lat="51.1827010" lon="5.5210900">
    <ele>47.3</ele>
    <time>2020-06-14T06:50:47Z</time>
   </trkpt>
   <trkpt lat="51.1827570" lon="5.5210250">
    <ele>47.2</ele>
    <time>2020-06-14T06:50:48Z</time>
   </trkpt>
   <trkpt lat="51.1828130" lon="5.5209540">
    <ele>47.2</ele>
    <time>2020-06-14T06:50:49Z</time>
   </trkpt>
   <trkpt lat="51.1828700" lon="5.5208850">
    <ele>47.2</ele>
    <time>2020-06-14T06:50:50Z</time>
   </trkpt>
   <trkpt lat="51.1829230" lon="5.5208100">
    <ele>47.2</ele>
    <time>2020-06-14T06:50:51Z</time>
   </trkpt>
   <trkpt lat="51.1829730" lon="5.5207420">
    <ele>47.2</ele>
    <time>2020-06-14T06:50:52Z</time>
   </trkpt>
   <trkpt lat="51.1830230" lon="5.5206710">
    <ele>47.2</ele>
    <time>2020-06-14T06:50:53Z</time>
   </trkpt>
   <trkpt lat="51.1830740" lon="5.5206020">
    <ele>47.2</ele>
    <time>2020-06-14T06:50:54Z</time>
   </trkpt>
   <trkpt lat="51.1831270" lon="5.5205410">
    <ele>47.3</ele>
    <time>2020-06-14T06:50:55Z</time>
   </trkpt>
   <trkpt lat="51.1831800" lon="5.5204730">
    <ele>47.3</ele>
    <time>2020-06-14T06:50:56Z</time>
   </trkpt>
   <trkpt lat="51.1832370" lon="5.5204080">
    <ele>47.3</ele>
    <time>2020-06-14T06:50:57Z</time>
   </trkpt>
   <trkpt lat="51.1832940" lon="5.5203480">
    <ele>47.3</ele>
    <time>2020-06-14T06:50:58Z</time>
   </trkpt>
   <trkpt lat="51.1833450" lon="5.5202820">
    <ele>47.3</ele>
    <time>2020-06-14T06:50:59Z</time>
   </trkpt>
   <trkpt lat="51.1833960" lon="5.5202170">
    <ele>47.3</ele>
    <time>2020-06-14T06:51:00Z</time>
   </trkpt>
   <trkpt lat="51.1834480" lon="5.5201510">
    <ele>47.3</ele>
    <time>2020-06-14T06:51:01Z</time>
   </trkpt>
   <trkpt lat="51.1834940" lon="5.5200790">
    <ele>47.2</ele>
    <time>2020-06-14T06:51:02Z</time>
   </trkpt>
   <trkpt lat="51.1835440" lon="5.5200080">
    <ele>47.2</ele>
    <time>2020-06-14T06:51:03Z</time>
   </trkpt>
   <trkpt lat="51.1835950" lon="5.5199420">
    <ele>47.2</ele>
    <time>2020-06-14T06:51:04Z</time>
   </trkpt>
   <trkpt lat="51.1836410" lon="5.5198730">
    <ele>47.2</ele>
    <time>2020-06-14T06:51:05Z</time>
   </trkpt>
   <trkpt lat="51.1836900" lon="5.5198060">
    <ele>47.2</ele>
    <time>2020-06-14T06:51:06Z</time>
   </trkpt>
   <trkpt lat="51.1837390" lon="5.5197430">
    <ele>47.2</ele>
    <time>2020-06-14T06:51:07Z</time>
   </trkpt>
   <trkpt lat="51.1837860" lon="5.5196840">
    <ele>47.2</ele>
    <time>2020-06-14T06:51:08Z</time>
   </trkpt>
   <trkpt lat="51.1838370" lon="5.5196280">
    <ele>47.2</ele>
    <time>2020-06-14T06:51:09Z</time>
   </trkpt>
   <trkpt lat="51.1838880" lon="5.5195720">
    <ele>47.2</ele>
    <time>2020-06-14T06:51:10Z</time>
   </trkpt>
   <trkpt lat="51.1839350" lon="5.5195150">
    <ele>47.2</ele>
    <time>2020-06-14T06:51:11Z</time>
   </trkpt>
   <trkpt lat="51.1839840" lon="5.5194620">
    <ele>47.3</ele>
    <time>2020-06-14T06:51:12Z</time>
   </trkpt>
   <trkpt lat="51.1840310" lon="5.5194070">
    <ele>47.3</ele>
    <time>2020-06-14T06:51:13Z</time>
   </trkpt>
   <trkpt lat="51.1840720" lon="5.5193560">
    <ele>47.4</ele>
    <time>2020-06-14T06:51:14Z</time>
   </trkpt>
   <trkpt lat="51.1841160" lon="5.5193130">
    <ele>47.5</ele>
    <time>2020-06-14T06:51:15Z</time>
   </trkpt>
   <trkpt lat="51.1841570" lon="5.5192710">
    <ele>47.5</ele>
    <time>2020-06-14T06:51:16Z</time>
   </trkpt>
   <trkpt lat="51.1841910" lon="5.5192260">
    <ele>47.6</ele>
    <time>2020-06-14T06:51:17Z</time>
   </trkpt>
   <trkpt lat="51.1842220" lon="5.5191780">
    <ele>47.7</ele>
    <time>2020-06-14T06:51:18Z</time>
   </trkpt>
   <trkpt lat="51.1842480" lon="5.5191330">
    <ele>47.7</ele>
    <time>2020-06-14T06:51:19Z</time>
   </trkpt>
   <trkpt lat="51.1842570" lon="5.5190780">
    <ele>47.8</ele>
    <time>2020-06-14T06:51:20Z</time>
   </trkpt>
   <trkpt lat="51.1842520" lon="5.5190120">
    <ele>47.8</ele>
    <time>2020-06-14T06:51:21Z</time>
   </trkpt>
   <trkpt lat="51.1842160" lon="5.5189500">
    <ele>47.8</ele>
    <time>2020-06-14T06:51:22Z</time>
   </trkpt>
   <trkpt lat="51.1841760" lon="5.5188720">
    <ele>47.8</ele>
    <time>2020-06-14T06:51:23Z</time>
   </trkpt>
   <trkpt lat="51.1841380" lon="5.5187890">
    <ele>47.7</ele>
    <time>2020-06-14T06:51:24Z</time>
   </trkpt>
   <trkpt lat="51.1840950" lon="5.5187070">
    <ele>47.7</ele>
    <time>2020-06-14T06:51:25Z</time>
   </trkpt>
   <trkpt lat="51.1840490" lon="5.5186210">
    <ele>47.7</ele>
    <time>2020-06-14T06:51:26Z</time>
   </trkpt>
   <trkpt lat="51.1840040" lon="5.5185330">
    <ele>47.7</ele>
    <time>2020-06-14T06:51:27Z</time>
   </trkpt>
   <trkpt lat="51.1839570" lon="5.5184400">
    <ele>47.7</ele>
    <time>2020-06-14T06:51:28Z</time>
   </trkpt>
   <trkpt lat="51.1839060" lon="5.5183570">
    <ele>47.8</ele>
    <time>2020-06-14T06:51:29Z</time>
   </trkpt>
   <trkpt lat="51.1838510" lon="5.5182730">
    <ele>47.8</ele>
    <time>2020-06-14T06:51:30Z</time>
   </trkpt>
   <trkpt lat="51.1838020" lon="5.5181800">
    <ele>48.0</ele>
    <time>2020-06-14T06:51:31Z</time>
   </trkpt>
   <trkpt lat="51.1837510" lon="5.5180900">
    <ele>48.1</ele>
    <time>2020-06-14T06:51:32Z</time>
   </trkpt>
   <trkpt lat="51.1837030" lon="5.5180010">
    <ele>48.2</ele>
    <time>2020-06-14T06:51:33Z</time>
   </trkpt>
   <trkpt lat="51.1836540" lon="5.5179120">
    <ele>48.3</ele>
    <time>2020-06-14T06:51:34Z</time>
   </trkpt>
   <trkpt lat="51.1836050" lon="5.5178240">
    <ele>48.5</ele>
    <time>2020-06-14T06:51:35Z</time>
   </trkpt>
   <trkpt lat="51.1835570" lon="5.5177380">
    <ele>48.6</ele>
    <time>2020-06-14T06:51:36Z</time>
   </trkpt>
   <trkpt lat="51.1835150" lon="5.5176540">
    <ele>48.7</ele>
    <time>2020-06-14T06:51:37Z</time>
   </trkpt>
   <trkpt lat="51.1834830" lon="5.5175650">
    <ele>48.8</ele>
    <time>2020-06-14T06:51:38Z</time>
   </trkpt>
   <trkpt lat="51.1834540" lon="5.5174820">
    <ele>48.9</ele>
    <time>2020-06-14T06:51:39Z</time>
   </trkpt>
   <trkpt lat="51.1834260" lon="5.5174010">
    <ele>49.1</ele>
    <time>2020-06-14T06:51:40Z</time>
   </trkpt>
   <trkpt lat="51.1834020" lon="5.5173290">
    <ele>49.2</ele>
    <time>2020-06-14T06:51:41Z</time>
   </trkpt>
   <trkpt lat="51.1833860" lon="5.5172600">
    <ele>49.3</ele>
    <time>2020-06-14T06:51:42Z</time>
   </trkpt>
   <trkpt lat="51.1833730" lon="5.5172040">
    <ele>49.4</ele>
    <time>2020-06-14T06:51:43Z</time>
   </trkpt>
   <trkpt lat="51.1833680" lon="5.5171530">
    <ele>49.5</ele>
    <time>2020-06-14T06:51:44Z</time>
   </trkpt>
   <trkpt lat="51.1833610" lon="5.5171010">
    <ele>49.6</ele>
    <time>2020-06-14T06:51:45Z</time>
   </trkpt>
   <trkpt lat="51.1833570" lon="5.5170450">
    <ele>49.7</ele>
    <time>2020-06-14T06:51:46Z</time>
   </trkpt>
   <trkpt lat="51.1833580" lon="5.5169800">
    <ele>49.9</ele>
    <time>2020-06-14T06:51:47Z</time>
   </trkpt>
   <trkpt lat="51.1833660" lon="5.5169160">
    <ele>49.9</ele>
    <time>2020-06-14T06:51:48Z</time>
   </trkpt>
   <trkpt lat="51.1833770" lon="5.5168500">
    <ele>49.9</ele>
    <time>2020-06-14T06:51:49Z</time>
   </trkpt>
   <trkpt lat="51.1833860" lon="5.5167750">
    <ele>49.9</ele>
    <time>2020-06-14T06:51:50Z</time>
   </trkpt>
   <trkpt lat="51.1833970" lon="5.5166910">
    <ele>49.8</ele>
    <time>2020-06-14T06:51:51Z</time>
   </trkpt>
   <trkpt lat="51.1834040" lon="5.5165980">
    <ele>49.8</ele>
    <time>2020-06-14T06:51:52Z</time>
   </trkpt>
   <trkpt lat="51.1834130" lon="5.5164980">
    <ele>49.7</ele>
    <time>2020-06-14T06:51:53Z</time>
   </trkpt>
   <trkpt lat="51.1834260" lon="5.5163960">
    <ele>49.6</ele>
    <time>2020-06-14T06:51:54Z</time>
   </trkpt>
   <trkpt lat="51.1834480" lon="5.5162890">
    <ele>49.5</ele>
    <time>2020-06-14T06:51:55Z</time>
   </trkpt>
   <trkpt lat="51.1834830" lon="5.5161880">
    <ele>49.3</ele>
    <time>2020-06-14T06:51:56Z</time>
   </trkpt>
   <trkpt lat="51.1835240" lon="5.5160850">
    <ele>49.3</ele>
    <time>2020-06-14T06:51:57Z</time>
   </trkpt>
   <trkpt lat="51.1835690" lon="5.5159880">
    <ele>49.2</ele>
    <time>2020-06-14T06:51:58Z</time>
   </trkpt>
   <trkpt lat="51.1836220" lon="5.5158950">
    <ele>49.2</ele>
    <time>2020-06-14T06:51:59Z</time>
   </trkpt>
   <trkpt lat="51.1836730" lon="5.5158160">
    <ele>49.2</ele>
    <time>2020-06-14T06:52:00Z</time>
   </trkpt>
   <trkpt lat="51.1837250" lon="5.5157340">
    <ele>49.2</ele>
    <time>2020-06-14T06:52:01Z</time>
   </trkpt>
   <trkpt lat="51.1837810" lon="5.5156720">
    <ele>49.2</ele>
    <time>2020-06-14T06:52:02Z</time>
   </trkpt>
   <trkpt lat="51.1838450" lon="5.5156090">
    <ele>49.2</ele>
    <time>2020-06-14T06:52:03Z</time>
   </trkpt>
   <trkpt lat="51.1839060" lon="5.5155480">
    <ele>49.2</ele>
    <time>2020-06-14T06:52:04Z</time>
   </trkpt>
   <trkpt lat="51.1839630" lon="5.5154840">
    <ele>49.2</ele>
    <time>2020-06-14T06:52:05Z</time>
   </trkpt>
   <trkpt lat="51.1840170" lon="5.5154190">
    <ele>49.2</ele>
    <time>2020-06-14T06:52:06Z</time>
   </trkpt>
   <trkpt lat="51.1840740" lon="5.5153510">
    <ele>49.2</ele>
    <time>2020-06-14T06:52:07Z</time>
   </trkpt>
   <trkpt lat="51.1841300" lon="5.5152850">
    <ele>49.2</ele>
    <time>2020-06-14T06:52:08Z</time>
   </trkpt>
   <trkpt lat="51.1841860" lon="5.5152220">
    <ele>49.2</ele>
    <time>2020-06-14T06:52:09Z</time>
   </trkpt>
   <trkpt lat="51.1842460" lon="5.5151550">
    <ele>49.2</ele>
    <time>2020-06-14T06:52:10Z</time>
   </trkpt>
   <trkpt lat="51.1843010" lon="5.5150830">
    <ele>49.2</ele>
    <time>2020-06-14T06:52:11Z</time>
   </trkpt>
   <trkpt lat="51.1843550" lon="5.5150190">
    <ele>49.1</ele>
    <time>2020-06-14T06:52:12Z</time>
   </trkpt>
   <trkpt lat="51.1844050" lon="5.5149610">
    <ele>49.1</ele>
    <time>2020-06-14T06:52:13Z</time>
   </trkpt>
   <trkpt lat="51.1844560" lon="5.5148980">
    <ele>49.1</ele>
    <time>2020-06-14T06:52:14Z</time>
   </trkpt>
   <trkpt lat="51.1845050" lon="5.5148370">
    <ele>49.1</ele>
    <time>2020-06-14T06:52:15Z</time>
   </trkpt>
   <trkpt lat="51.1845540" lon="5.5147760">
    <ele>49.1</ele>
    <time>2020-06-14T06:52:16Z</time>
   </trkpt>
   <trkpt lat="51.1846090" lon="5.5147280">
    <ele>49.1</ele>
    <time>2020-06-14T06:52:17Z</time>
   </trkpt>
   <trkpt lat="51.1846610" lon="5.5146730">
    <ele>49.1</ele>
    <time>2020-06-14T06:52:18Z</time>
   </trkpt>
   <trkpt lat="51.1847160" lon="5.5146160">
    <ele>49.1</ele>
    <time>2020-06-14T06:52:19Z</time>
   </trkpt>
   <trkpt lat="51.1847710" lon="5.5145510">
    <ele>49.1</ele>
    <time>2020-06-14T06:52:20Z</time>
   </trkpt>
   <trkpt lat="51.1848230" lon="5.5144880">
    <ele>49.1</ele>
    <time>2020-06-14T06:52:21Z</time>
   </trkpt>
   <trkpt lat="51.1848780" lon="5.5144280">
    <ele>49.1</ele>
    <time>2020-06-14T06:52:22Z</time>
   </trkpt>
   <trkpt lat="51.1849350" lon="5.5143630">
    <ele>49.1</ele>
    <time>2020-06-14T06:52:23Z</time>
   </trkpt>
   <trkpt lat="51.1849930" lon="5.5142950">
    <ele>49.1</ele>
    <time>2020-06-14T06:52:24Z</time>
   </trkpt>
   <trkpt lat="51.1850520" lon="5.5142270">
    <ele>49.1</ele>
    <time>2020-06-14T06:52:25Z</time>
   </trkpt>
   <trkpt lat="51.1851150" lon="5.5141670">
    <ele>49.1</ele>
    <time>2020-06-14T06:52:26Z</time>
   </trkpt>
   <trkpt lat="51.1851760" lon="5.5141030">
    <ele>49.1</ele>
    <time>2020-06-14T06:52:27Z</time>
   </trkpt>
   <trkpt lat="51.1852390" lon="5.5140440">
    <ele>49.1</ele>
    <time>2020-06-14T06:52:28Z</time>
   </trkpt>
   <trkpt lat="51.1853060" lon="5.5139860">
    <ele>49.1</ele>
    <time>2020-06-14T06:52:29Z</time>
   </trkpt>
   <trkpt lat="51.1853720" lon="5.5139290">
    <ele>49.1</ele>
    <time>2020-06-14T06:52:30Z</time>
   </trkpt>
   <trkpt lat="51.1854340" lon="5.5138700">
    <ele>49.1</ele>
    <time>2020-06-14T06:52:31Z</time>
   </trkpt>
   <trkpt lat="51.1854930" lon="5.5138120">
    <ele>49.1</ele>
    <time>2020-06-14T06:52:32Z</time>
   </trkpt>
   <trkpt lat="51.1855500" lon="5.5137560">
    <ele>49.1</ele>
    <time>2020-06-14T06:52:33Z</time>
   </trkpt>
   <trkpt lat="51.1856050" lon="5.5136980">
    <ele>49.0</ele>
    <time>2020-06-14T06:52:34Z</time>
   </trkpt>
   <trkpt lat="51.1856610" lon="5.5136440">
    <ele>49.0</ele>
    <time>2020-06-14T06:52:35Z</time>
   </trkpt>
   <trkpt lat="51.1857160" lon="5.5135920">
    <ele>49.0</ele>
    <time>2020-06-14T06:52:36Z</time>
   </trkpt>
   <trkpt lat="51.1857690" lon="5.5135400">
    <ele>48.9</ele>
    <time>2020-06-14T06:52:37Z</time>
   </trkpt>
   <trkpt lat="51.1858220" lon="5.5134830">
    <ele>48.9</ele>
    <time>2020-06-14T06:52:38Z</time>
   </trkpt>
   <trkpt lat="51.1858820" lon="5.5134300">
    <ele>48.9</ele>
    <time>2020-06-14T06:52:39Z</time>
   </trkpt>
   <trkpt lat="51.1859400" lon="5.5133690">
    <ele>48.8</ele>
    <time>2020-06-14T06:52:40Z</time>
   </trkpt>
   <trkpt lat="51.1859930" lon="5.5133130">
    <ele>48.8</ele>
    <time>2020-06-14T06:52:41Z</time>
   </trkpt>
   <trkpt lat="51.1860480" lon="5.5132620">
    <ele>48.8</ele>
    <time>2020-06-14T06:52:42Z</time>
   </trkpt>
   <trkpt lat="51.1861030" lon="5.5132050">
    <ele>48.8</ele>
    <time>2020-06-14T06:52:43Z</time>
   </trkpt>
   <trkpt lat="51.1861560" lon="5.5131540">
    <ele>48.8</ele>
    <time>2020-06-14T06:52:44Z</time>
   </trkpt>
   <trkpt lat="51.1862070" lon="5.5131010">
    <ele>48.9</ele>
    <time>2020-06-14T06:52:45Z</time>
   </trkpt>
   <trkpt lat="51.1862550" lon="5.5130550">
    <ele>48.9</ele>
    <time>2020-06-14T06:52:46Z</time>
   </trkpt>
   <trkpt lat="51.1862980" lon="5.5130150">
    <ele>49.0</ele>
    <time>2020-06-14T06:52:47Z</time>
   </trkpt>
   <trkpt lat="51.1863330" lon="5.5129720">
    <ele>49.0</ele>
    <time>2020-06-14T06:52:48Z</time>
   </trkpt>
   <trkpt lat="51.1863640" lon="5.5129310">
    <ele>49.1</ele>
    <time>2020-06-14T06:52:49Z</time>
   </trkpt>
   <trkpt lat="51.1863930" lon="5.5128930">
    <ele>49.1</ele>
    <time>2020-06-14T06:52:50Z</time>
   </trkpt>
   <trkpt lat="51.1864240" lon="5.5128560">
    <ele>49.2</ele>
    <time>2020-06-14T06:52:51Z</time>
   </trkpt>
   <trkpt lat="51.1864540" lon="5.5128120">
    <ele>49.3</ele>
    <time>2020-06-14T06:52:52Z</time>
   </trkpt>
   <trkpt lat="51.1864640" lon="5.5127530">
    <ele>49.3</ele>
    <time>2020-06-14T06:52:53Z</time>
   </trkpt>
   <trkpt lat="51.1864420" lon="5.5126980">
    <ele>49.4</ele>
    <time>2020-06-14T06:52:54Z</time>
   </trkpt>
   <trkpt lat="51.1864070" lon="5.5126420">
    <ele>49.4</ele>
    <time>2020-06-14T06:52:55Z</time>
   </trkpt>
   <trkpt lat="51.1863820" lon="5.5125550">
    <ele>49.5</ele>
    <time>2020-06-14T06:52:56Z</time>
   </trkpt>
   <trkpt lat="51.1863400" lon="5.5124660">
    <ele>49.5</ele>
    <time>2020-06-14T06:52:57Z</time>
   </trkpt>
   <trkpt lat="51.1863040" lon="5.5123660">
    <ele>49.6</ele>
    <time>2020-06-14T06:52:58Z</time>
   </trkpt>
   <trkpt lat="51.1862590" lon="5.5122700">
    <ele>49.6</ele>
    <time>2020-06-14T06:52:59Z</time>
   </trkpt>
   <trkpt lat="51.1862070" lon="5.5121810">
    <ele>49.6</ele>
    <time>2020-06-14T06:53:00Z</time>
   </trkpt>
   <trkpt lat="51.1861650" lon="5.5120890">
    <ele>49.6</ele>
    <time>2020-06-14T06:53:01Z</time>
   </trkpt>
   <trkpt lat="51.1861240" lon="5.5119940">
    <ele>49.6</ele>
    <time>2020-06-14T06:53:02Z</time>
   </trkpt>
   <trkpt lat="51.1860820" lon="5.5119100">
    <ele>49.7</ele>
    <time>2020-06-14T06:53:03Z</time>
   </trkpt>
   <trkpt lat="51.1860380" lon="5.5118260">
    <ele>49.7</ele>
    <time>2020-06-14T06:53:04Z</time>
   </trkpt>
   <trkpt lat="51.1859910" lon="5.5117310">
    <ele>49.8</ele>
    <time>2020-06-14T06:53:05Z</time>
   </trkpt>
   <trkpt lat="51.1859430" lon="5.5116340">
    <ele>49.8</ele>
    <time>2020-06-14T06:53:06Z</time>
   </trkpt>
   <trkpt lat="51.1859010" lon="5.5115500">
    <ele>49.9</ele>
    <time>2020-06-14T06:53:07Z</time>
   </trkpt>
   <trkpt lat="51.1858590" lon="5.5114620">
    <ele>49.9</ele>
    <time>2020-06-14T06:53:08Z</time>
   </trkpt>
   <trkpt lat="51.1858140" lon="5.5113770">
    <ele>49.9</ele>
    <time>2020-06-14T06:53:09Z</time>
   </trkpt>
   <trkpt lat="51.1857710" lon="5.5112830">
    <ele>49.9</ele>
    <time>2020-06-14T06:53:10Z</time>
   </trkpt>
   <trkpt lat="51.1857300" lon="5.5111950">
    <ele>49.9</ele>
    <time>2020-06-14T06:53:11Z</time>
   </trkpt>
   <trkpt lat="51.1856890" lon="5.5111030">
    <ele>49.9</ele>
    <time>2020-06-14T06:53:12Z</time>
   </trkpt>
   <trkpt lat="51.1856470" lon="5.5109930">
    <ele>49.9</ele>
    <time>2020-06-14T06:53:13Z</time>
   </trkpt>
   <trkpt lat="51.1856130" lon="5.5109030">
    <ele>49.9</ele>
    <time>2020-06-14T06:53:14Z</time>
   </trkpt>
   <trkpt lat="51.1855700" lon="5.5108190">
    <ele>50.0</ele>
    <time>2020-06-14T06:53:15Z</time>
   </trkpt>
   <trkpt lat="51.1855230" lon="5.5107200">
    <ele>49.9</ele>
    <time>2020-06-14T06:53:16Z</time>
   </trkpt>
   <trkpt lat="51.1854780" lon="5.5106190">
    <ele>49.8</ele>
    <time>2020-06-14T06:53:17Z</time>
   </trkpt>
   <trkpt lat="51.1854360" lon="5.5105240">
    <ele>49.7</ele>
    <time>2020-06-14T06:53:18Z</time>
   </trkpt>
   <trkpt lat="51.1853970" lon="5.5104280">
    <ele>49.7</ele>
    <time>2020-06-14T06:53:19Z</time>
   </trkpt>
   <trkpt lat="51.1853610" lon="5.5103330">
    <ele>49.6</ele>
    <time>2020-06-14T06:53:20Z</time>
   </trkpt>
   <trkpt lat="51.1853330" lon="5.5102380">
    <ele>49.6</ele>
    <time>2020-06-14T06:53:21Z</time>
   </trkpt>
   <trkpt lat="51.1852970" lon="5.5101410">
    <ele>49.5</ele>
    <time>2020-06-14T06:53:22Z</time>
   </trkpt>
   <trkpt lat="51.1852630" lon="5.5100440">
    <ele>49.5</ele>
    <time>2020-06-14T06:53:23Z</time>
   </trkpt>
   <trkpt lat="51.1852300" lon="5.5099400">
    <ele>49.5</ele>
    <time>2020-06-14T06:53:24Z</time>
   </trkpt>
   <trkpt lat="51.1851980" lon="5.5098290">
    <ele>49.4</ele>
    <time>2020-06-14T06:53:25Z</time>
   </trkpt>
   <trkpt lat="51.1851660" lon="5.5097180">
    <ele>49.4</ele>
    <time>2020-06-14T06:53:26Z</time>
   </trkpt>
   <trkpt lat="51.1851390" lon="5.5096270">
    <ele>49.4</ele>
    <time>2020-06-14T06:53:27Z</time>
   </trkpt>
   <trkpt lat="51.1851120" lon="5.5095250">
    <ele>49.4</ele>
    <time>2020-06-14T06:53:28Z</time>
   </trkpt>
   <trkpt lat="51.1850830" lon="5.5094150">
    <ele>49.3</ele>
    <time>2020-06-14T06:53:29Z</time>
   </trkpt>
   <trkpt lat="51.1850560" lon="5.5093220">
    <ele>49.3</ele>
    <time>2020-06-14T06:53:30Z</time>
   </trkpt>
   <trkpt lat="51.1850330" lon="5.5092260">
    <ele>49.3</ele>
    <time>2020-06-14T06:53:31Z</time>
   </trkpt>
   <trkpt lat="51.1850100" lon="5.5091290">
    <ele>49.1</ele>
    <time>2020-06-14T06:53:32Z</time>
   </trkpt>
   <trkpt lat="51.1849810" lon="5.5090160">
    <ele>48.9</ele>
    <time>2020-06-14T06:53:33Z</time>
   </trkpt>
   <trkpt lat="51.1849500" lon="5.5089070">
    <ele>48.8</ele>
    <time>2020-06-14T06:53:34Z</time>
   </trkpt>
   <trkpt lat="51.1849190" lon="5.5087930">
    <ele>48.7</ele>
    <time>2020-06-14T06:53:35Z</time>
   </trkpt>
   <trkpt lat="51.1848850" lon="5.5086760">
    <ele>48.5</ele>
    <time>2020-06-14T06:53:36Z</time>
   </trkpt>
   <trkpt lat="51.1848560" lon="5.5085690">
    <ele>48.4</ele>
    <time>2020-06-14T06:53:37Z</time>
   </trkpt>
   <trkpt lat="51.1848240" lon="5.5084610">
    <ele>48.4</ele>
    <time>2020-06-14T06:53:38Z</time>
   </trkpt>
   <trkpt lat="51.1847980" lon="5.5083590">
    <ele>48.3</ele>
    <time>2020-06-14T06:53:39Z</time>
   </trkpt>
   <trkpt lat="51.1847710" lon="5.5082550">
    <ele>48.2</ele>
    <time>2020-06-14T06:53:40Z</time>
   </trkpt>
   <trkpt lat="51.1847550" lon="5.5081490">
    <ele>48.2</ele>
    <time>2020-06-14T06:53:41Z</time>
   </trkpt>
   <trkpt lat="51.1847390" lon="5.5080290">
    <ele>48.1</ele>
    <time>2020-06-14T06:53:42Z</time>
   </trkpt>
   <trkpt lat="51.1847220" lon="5.5079040">
    <ele>48.1</ele>
    <time>2020-06-14T06:53:43Z</time>
   </trkpt>
   <trkpt lat="51.1847030" lon="5.5077770">
    <ele>48.0</ele>
    <time>2020-06-14T06:53:44Z</time>
   </trkpt>
   <trkpt lat="51.1847190" lon="5.5076610">
    <ele>47.9</ele>
    <time>2020-06-14T06:53:45Z</time>
   </trkpt>
   <trkpt lat="51.1847060" lon="5.5075340">
    <ele>47.8</ele>
    <time>2020-06-14T06:53:46Z</time>
   </trkpt>
   <trkpt lat="51.1847020" lon="5.5074100">
    <ele>47.7</ele>
    <time>2020-06-14T06:53:47Z</time>
   </trkpt>
   <trkpt lat="51.1846930" lon="5.5072890">
    <ele>47.6</ele>
    <time>2020-06-14T06:53:48Z</time>
   </trkpt>
   <trkpt lat="51.1846860" lon="5.5071710">
    <ele>47.6</ele>
    <time>2020-06-14T06:53:49Z</time>
   </trkpt>
   <trkpt lat="51.1846750" lon="5.5070520">
    <ele>47.5</ele>
    <time>2020-06-14T06:53:50Z</time>
   </trkpt>
   <trkpt lat="51.1846620" lon="5.5069370">
    <ele>47.5</ele>
    <time>2020-06-14T06:53:51Z</time>
   </trkpt>
   <trkpt lat="51.1846460" lon="5.5068240">
    <ele>47.5</ele>
    <time>2020-06-14T06:53:52Z</time>
   </trkpt>
   <trkpt lat="51.1846380" lon="5.5067110">
    <ele>47.4</ele>
    <time>2020-06-14T06:53:53Z</time>
   </trkpt>
   <trkpt lat="51.1846290" lon="5.5066010">
    <ele>47.4</ele>
    <time>2020-06-14T06:53:54Z</time>
   </trkpt>
   <trkpt lat="51.1846230" lon="5.5065000">
    <ele>47.3</ele>
    <time>2020-06-14T06:53:55Z</time>
   </trkpt>
   <trkpt lat="51.1846170" lon="5.5064060">
    <ele>47.3</ele>
    <time>2020-06-14T06:53:56Z</time>
   </trkpt>
   <trkpt lat="51.1846040" lon="5.5063150">
    <ele>47.3</ele>
    <time>2020-06-14T06:53:57Z</time>
   </trkpt>
   <trkpt lat="51.1845970" lon="5.5061350">
    <ele>47.3</ele>
    <time>2020-06-14T06:53:58Z</time>
   </trkpt>
   <trkpt lat="51.1845930" lon="5.5060560">
    <ele>47.4</ele>
    <time>2020-06-14T06:53:59Z</time>
   </trkpt>
   <trkpt lat="51.1845910" lon="5.5059810">
    <ele>47.4</ele>
    <time>2020-06-14T06:54:00Z</time>
   </trkpt>
   <trkpt lat="51.1845890" lon="5.5059040">
    <ele>47.5</ele>
    <time>2020-06-14T06:54:01Z</time>
   </trkpt>
   <trkpt lat="51.1845850" lon="5.5058300">
    <ele>47.5</ele>
    <time>2020-06-14T06:54:02Z</time>
   </trkpt>
   <trkpt lat="51.1845810" lon="5.5057610">
    <ele>47.6</ele>
    <time>2020-06-14T06:54:03Z</time>
   </trkpt>
   <trkpt lat="51.1845990" lon="5.5057050">
    <ele>47.6</ele>
    <time>2020-06-14T06:54:04Z</time>
   </trkpt>
   <trkpt lat="51.1846340" lon="5.5056750">
    <ele>47.5</ele>
    <time>2020-06-14T06:54:05Z</time>
   </trkpt>
   <trkpt lat="51.1846880" lon="5.5056960">
    <ele>47.5</ele>
    <time>2020-06-14T06:54:06Z</time>
   </trkpt>
   <trkpt lat="51.1847470" lon="5.5056910">
    <ele>47.4</ele>
    <time>2020-06-14T06:54:07Z</time>
   </trkpt>
   <trkpt lat="51.1848100" lon="5.5056820">
    <ele>47.3</ele>
    <time>2020-06-14T06:54:08Z</time>
   </trkpt>
   <trkpt lat="51.1848770" lon="5.5056670">
    <ele>47.2</ele>
    <time>2020-06-14T06:54:09Z</time>
   </trkpt>
   <trkpt lat="51.1849530" lon="5.5056700">
    <ele>47.2</ele>
    <time>2020-06-14T06:54:10Z</time>
   </trkpt>
   <trkpt lat="51.1850320" lon="5.5056690">
    <ele>47.1</ele>
    <time>2020-06-14T06:54:11Z</time>
   </trkpt>
   <trkpt lat="51.1851090" lon="5.5056650">
    <ele>47.1</ele>
    <time>2020-06-14T06:54:12Z</time>
   </trkpt>
   <trkpt lat="51.1851840" lon="5.5056570">
    <ele>47.1</ele>
    <time>2020-06-14T06:54:13Z</time>
   </trkpt>
   <trkpt lat="51.1852610" lon="5.5056450">
    <ele>47.1</ele>
    <time>2020-06-14T06:54:14Z</time>
   </trkpt>
   <trkpt lat="51.1853370" lon="5.5056330">
    <ele>47.1</ele>
    <time>2020-06-14T06:54:15Z</time>
   </trkpt>
   <trkpt lat="51.1854100" lon="5.5055950">
    <ele>47.1</ele>
    <time>2020-06-14T06:54:16Z</time>
   </trkpt>
   <trkpt lat="51.1854890" lon="5.5055820">
    <ele>47.0</ele>
    <time>2020-06-14T06:54:17Z</time>
   </trkpt>
   <trkpt lat="51.1855680" lon="5.5055690">
    <ele>47.0</ele>
    <time>2020-06-14T06:54:18Z</time>
   </trkpt>
   <trkpt lat="51.1856480" lon="5.5055580">
    <ele>47.0</ele>
    <time>2020-06-14T06:54:19Z</time>
   </trkpt>
   <trkpt lat="51.1857250" lon="5.5055490">
    <ele>47.0</ele>
    <time>2020-06-14T06:54:20Z</time>
   </trkpt>
   <trkpt lat="51.1857990" lon="5.5055380">
    <ele>47.1</ele>
    <time>2020-06-14T06:54:21Z</time>
   </trkpt>
   <trkpt lat="51.1858860" lon="5.5055260">
    <ele>47.1</ele>
    <time>2020-06-14T06:54:22Z</time>
   </trkpt>
   <trkpt lat="51.1859720" lon="5.5055140">
    <ele>47.1</ele>
    <time>2020-06-14T06:54:23Z</time>
   </trkpt>
   <trkpt lat="51.1860480" lon="5.5055010">
    <ele>47.1</ele>
    <time>2020-06-14T06:54:24Z</time>
   </trkpt>
   <trkpt lat="51.1861380" lon="5.5054870">
    <ele>47.1</ele>
    <time>2020-06-14T06:54:25Z</time>
   </trkpt>
   <trkpt lat="51.1862280" lon="5.5054740">
    <ele>47.1</ele>
    <time>2020-06-14T06:54:26Z</time>
   </trkpt>
   <trkpt lat="51.1863110" lon="5.5054590">
    <ele>47.2</ele>
    <time>2020-06-14T06:54:27Z</time>
   </trkpt>
   <trkpt lat="51.1863800" lon="5.5054500">
    <ele>47.2</ele>
    <time>2020-06-14T06:54:28Z</time>
   </trkpt>
   <trkpt lat="51.1864510" lon="5.5054390">
    <ele>47.3</ele>
    <time>2020-06-14T06:54:29Z</time>
   </trkpt>
   <trkpt lat="51.1865190" lon="5.5054290">
    <ele>47.3</ele>
    <time>2020-06-14T06:54:30Z</time>
   </trkpt>
   <trkpt lat="51.1865810" lon="5.5054150">
    <ele>47.3</ele>
    <time>2020-06-14T06:54:31Z</time>
   </trkpt>
   <trkpt lat="51.1866480" lon="5.5054080">
    <ele>47.4</ele>
    <time>2020-06-14T06:54:32Z</time>
   </trkpt>
   <trkpt lat="51.1867200" lon="5.5054040">
    <ele>47.4</ele>
    <time>2020-06-14T06:54:33Z</time>
   </trkpt>
   <trkpt lat="51.1867920" lon="5.5053960">
    <ele>47.3</ele>
    <time>2020-06-14T06:54:34Z</time>
   </trkpt>
   <trkpt lat="51.1868660" lon="5.5053830">
    <ele>47.2</ele>
    <time>2020-06-14T06:54:35Z</time>
   </trkpt>
   <trkpt lat="51.1869350" lon="5.5053760">
    <ele>47.2</ele>
    <time>2020-06-14T06:54:36Z</time>
   </trkpt>
   <trkpt lat="51.1870020" lon="5.5053640">
    <ele>47.1</ele>
    <time>2020-06-14T06:54:37Z</time>
   </trkpt>
   <trkpt lat="51.1870710" lon="5.5053460">
    <ele>47.1</ele>
    <time>2020-06-14T06:54:38Z</time>
   </trkpt>
   <trkpt lat="51.1871440" lon="5.5053260">
    <ele>47.0</ele>
    <time>2020-06-14T06:54:39Z</time>
   </trkpt>
   <trkpt lat="51.1872170" lon="5.5053060">
    <ele>47.0</ele>
    <time>2020-06-14T06:54:40Z</time>
   </trkpt>
   <trkpt lat="51.1872890" lon="5.5052740">
    <ele>47.0</ele>
    <time>2020-06-14T06:54:41Z</time>
   </trkpt>
   <trkpt lat="51.1873610" lon="5.5052370">
    <ele>46.9</ele>
    <time>2020-06-14T06:54:42Z</time>
   </trkpt>
   <trkpt lat="51.1874320" lon="5.5052090">
    <ele>46.9</ele>
    <time>2020-06-14T06:54:43Z</time>
   </trkpt>
   <trkpt lat="51.1875020" lon="5.5051830">
    <ele>46.9</ele>
    <time>2020-06-14T06:54:44Z</time>
   </trkpt>
   <trkpt lat="51.1875680" lon="5.5051500">
    <ele>46.8</ele>
    <time>2020-06-14T06:54:45Z</time>
   </trkpt>
   <trkpt lat="51.1876440" lon="5.5051190">
    <ele>46.8</ele>
    <time>2020-06-14T06:54:46Z</time>
   </trkpt>
   <trkpt lat="51.1877130" lon="5.5051000">
    <ele>46.8</ele>
    <time>2020-06-14T06:54:47Z</time>
   </trkpt>
   <trkpt lat="51.1877730" lon="5.5050770">
    <ele>46.8</ele>
    <time>2020-06-14T06:54:48Z</time>
   </trkpt>
   <trkpt lat="51.1878320" lon="5.5050580">
    <ele>46.8</ele>
    <time>2020-06-14T06:54:49Z</time>
   </trkpt>
   <trkpt lat="51.1878870" lon="5.5050390">
    <ele>46.8</ele>
    <time>2020-06-14T06:54:50Z</time>
   </trkpt>
   <trkpt lat="51.1879460" lon="5.5050130">
    <ele>46.7</ele>
    <time>2020-06-14T06:54:51Z</time>
   </trkpt>
   <trkpt lat="51.1880030" lon="5.5049910">
    <ele>46.7</ele>
    <time>2020-06-14T06:54:52Z</time>
   </trkpt>
   <trkpt lat="51.1880610" lon="5.5049620">
    <ele>46.7</ele>
    <time>2020-06-14T06:54:53Z</time>
   </trkpt>
   <trkpt lat="51.1881190" lon="5.5049350">
    <ele>46.7</ele>
    <time>2020-06-14T06:54:54Z</time>
   </trkpt>
   <trkpt lat="51.1881790" lon="5.5049090">
    <ele>46.7</ele>
    <time>2020-06-14T06:54:55Z</time>
   </trkpt>
   <trkpt lat="51.1882360" lon="5.5048680">
    <ele>46.6</ele>
    <time>2020-06-14T06:54:56Z</time>
   </trkpt>
   <trkpt lat="51.1882960" lon="5.5048430">
    <ele>46.6</ele>
    <time>2020-06-14T06:54:57Z</time>
   </trkpt>
   <trkpt lat="51.1883490" lon="5.5048200">
    <ele>46.6</ele>
    <time>2020-06-14T06:54:58Z</time>
   </trkpt>
   <trkpt lat="51.1883980" lon="5.5047980">
    <ele>46.6</ele>
    <time>2020-06-14T06:54:59Z</time>
   </trkpt>
   <trkpt lat="51.1884400" lon="5.5047810">
    <ele>46.6</ele>
    <time>2020-06-14T06:55:00Z</time>
   </trkpt>
   <trkpt lat="51.1884800" lon="5.5047650">
    <ele>46.6</ele>
    <time>2020-06-14T06:55:01Z</time>
   </trkpt>
   <trkpt lat="51.1885180" lon="5.5047490">
    <ele>46.6</ele>
    <time>2020-06-14T06:55:02Z</time>
   </trkpt>
   <trkpt lat="51.1885590" lon="5.5047280">
    <ele>46.6</ele>
    <time>2020-06-14T06:55:03Z</time>
   </trkpt>
   <trkpt lat="51.1886080" lon="5.5047160">
    <ele>46.7</ele>
    <time>2020-06-14T06:55:04Z</time>
   </trkpt>
   <trkpt lat="51.1886480" lon="5.5046610">
    <ele>46.7</ele>
    <time>2020-06-14T06:55:05Z</time>
   </trkpt>
   <trkpt lat="51.1886780" lon="5.5045890">
    <ele>46.8</ele>
    <time>2020-06-14T06:55:06Z</time>
   </trkpt>
   <trkpt lat="51.1886870" lon="5.5045000">
    <ele>46.7</ele>
    <time>2020-06-14T06:55:07Z</time>
   </trkpt>
   <trkpt lat="51.1886860" lon="5.5043970">
    <ele>46.5</ele>
    <time>2020-06-14T06:55:08Z</time>
   </trkpt>
   <trkpt lat="51.1886580" lon="5.5042880">
    <ele>46.4</ele>
    <time>2020-06-14T06:55:09Z</time>
   </trkpt>
   <trkpt lat="51.1886300" lon="5.5041730">
    <ele>46.2</ele>
    <time>2020-06-14T06:55:10Z</time>
   </trkpt>
   <trkpt lat="51.1886030" lon="5.5040650">
    <ele>46.1</ele>
    <time>2020-06-14T06:55:11Z</time>
   </trkpt>
   <trkpt lat="51.1885750" lon="5.5039620">
    <ele>46.0</ele>
    <time>2020-06-14T06:55:12Z</time>
   </trkpt>
   <trkpt lat="51.1885460" lon="5.5038560">
    <ele>45.9</ele>
    <time>2020-06-14T06:55:13Z</time>
   </trkpt>
   <trkpt lat="51.1885190" lon="5.5037430">
    <ele>45.9</ele>
    <time>2020-06-14T06:55:14Z</time>
   </trkpt>
   <trkpt lat="51.1884910" lon="5.5036320">
    <ele>45.8</ele>
    <time>2020-06-14T06:55:15Z</time>
   </trkpt>
   <trkpt lat="51.1884610" lon="5.5035150">
    <ele>45.8</ele>
    <time>2020-06-14T06:55:16Z</time>
   </trkpt>
   <trkpt lat="51.1884310" lon="5.5034010">
    <ele>45.7</ele>
    <time>2020-06-14T06:55:17Z</time>
   </trkpt>
   <trkpt lat="51.1883990" lon="5.5032830">
    <ele>45.7</ele>
    <time>2020-06-14T06:55:18Z</time>
   </trkpt>
   <trkpt lat="51.1883680" lon="5.5031680">
    <ele>45.6</ele>
    <time>2020-06-14T06:55:19Z</time>
   </trkpt>
   <trkpt lat="51.1883420" lon="5.5030670">
    <ele>45.6</ele>
    <time>2020-06-14T06:55:20Z</time>
   </trkpt>
   <trkpt lat="51.1883180" lon="5.5029540">
    <ele>45.5</ele>
    <time>2020-06-14T06:55:21Z</time>
   </trkpt>
   <trkpt lat="51.1882910" lon="5.5028400">
    <ele>45.5</ele>
    <time>2020-06-14T06:55:22Z</time>
   </trkpt>
   <trkpt lat="51.1882620" lon="5.5027260">
    <ele>45.5</ele>
    <time>2020-06-14T06:55:23Z</time>
   </trkpt>
   <trkpt lat="51.1882330" lon="5.5026150">
    <ele>45.4</ele>
    <time>2020-06-14T06:55:24Z</time>
   </trkpt>
   <trkpt lat="51.1882080" lon="5.5025100">
    <ele>45.4</ele>
    <time>2020-06-14T06:55:25Z</time>
   </trkpt>
   <trkpt lat="51.1882000" lon="5.5024020">
    <ele>45.5</ele>
    <time>2020-06-14T06:55:26Z</time>
   </trkpt>
   <trkpt lat="51.1882120" lon="5.5023020">
    <ele>45.5</ele>
    <time>2020-06-14T06:55:27Z</time>
   </trkpt>
   <trkpt lat="51.1882500" lon="5.5022260">
    <ele>45.5</ele>
    <time>2020-06-14T06:55:28Z</time>
   </trkpt>
   <trkpt lat="51.1883000" lon="5.5021510">
    <ele>45.4</ele>
    <time>2020-06-14T06:55:29Z</time>
   </trkpt>
   <trkpt lat="51.1883590" lon="5.5020850">
    <ele>45.4</ele>
    <time>2020-06-14T06:55:30Z</time>
   </trkpt>
   <trkpt lat="51.1884240" lon="5.5020300">
    <ele>45.4</ele>
    <time>2020-06-14T06:55:31Z</time>
   </trkpt>
   <trkpt lat="51.1885000" lon="5.5020090">
    <ele>45.3</ele>
    <time>2020-06-14T06:55:32Z</time>
   </trkpt>
   <trkpt lat="51.1885710" lon="5.5019630">
    <ele>45.3</ele>
    <time>2020-06-14T06:55:33Z</time>
   </trkpt>
   <trkpt lat="51.1886420" lon="5.5019040">
    <ele>45.3</ele>
    <time>2020-06-14T06:55:34Z</time>
   </trkpt>
   <trkpt lat="51.1887110" lon="5.5018430">
    <ele>45.2</ele>
    <time>2020-06-14T06:55:35Z</time>
   </trkpt>
   <trkpt lat="51.1887760" lon="5.5017800">
    <ele>45.2</ele>
    <time>2020-06-14T06:55:36Z</time>
   </trkpt>
   <trkpt lat="51.1888400" lon="5.5017210">
    <ele>45.2</ele>
    <time>2020-06-14T06:55:37Z</time>
   </trkpt>
   <trkpt lat="51.1889040" lon="5.5016620">
    <ele>45.2</ele>
    <time>2020-06-14T06:55:38Z</time>
   </trkpt>
   <trkpt lat="51.1889700" lon="5.5016020">
    <ele>45.2</ele>
    <time>2020-06-14T06:55:39Z</time>
   </trkpt>
   <trkpt lat="51.1890340" lon="5.5015430">
    <ele>45.1</ele>
    <time>2020-06-14T06:55:40Z</time>
   </trkpt>
   <trkpt lat="51.1890970" lon="5.5014890">
    <ele>45.1</ele>
    <time>2020-06-14T06:55:41Z</time>
   </trkpt>
   <trkpt lat="51.1891620" lon="5.5014290">
    <ele>45.1</ele>
    <time>2020-06-14T06:55:42Z</time>
   </trkpt>
   <trkpt lat="51.1892270" lon="5.5013630">
    <ele>45.1</ele>
    <time>2020-06-14T06:55:43Z</time>
   </trkpt>
   <trkpt lat="51.1892970" lon="5.5013030">
    <ele>45.1</ele>
    <time>2020-06-14T06:55:44Z</time>
   </trkpt>
   <trkpt lat="51.1893640" lon="5.5012500">
    <ele>45.1</ele>
    <time>2020-06-14T06:55:45Z</time>
   </trkpt>
   <trkpt lat="51.1894290" lon="5.5011960">
    <ele>45.1</ele>
    <time>2020-06-14T06:55:46Z</time>
   </trkpt>
   <trkpt lat="51.1894920" lon="5.5011430">
    <ele>45.1</ele>
    <time>2020-06-14T06:55:47Z</time>
   </trkpt>
   <trkpt lat="51.1895500" lon="5.5010950">
    <ele>45.1</ele>
    <time>2020-06-14T06:55:48Z</time>
   </trkpt>
   <trkpt lat="51.1896060" lon="5.5010500">
    <ele>45.1</ele>
    <time>2020-06-14T06:55:49Z</time>
   </trkpt>
   <trkpt lat="51.1896640" lon="5.5010030">
    <ele>45.1</ele>
    <time>2020-06-14T06:55:50Z</time>
   </trkpt>
   <trkpt lat="51.1897190" lon="5.5009500">
    <ele>45.1</ele>
    <time>2020-06-14T06:55:51Z</time>
   </trkpt>
   <trkpt lat="51.1897790" lon="5.5009000">
    <ele>45.1</ele>
    <time>2020-06-14T06:55:52Z</time>
   </trkpt>
   <trkpt lat="51.1898350" lon="5.5008520">
    <ele>45.2</ele>
    <time>2020-06-14T06:55:53Z</time>
   </trkpt>
   <trkpt lat="51.1898890" lon="5.5008040">
    <ele>45.2</ele>
    <time>2020-06-14T06:55:54Z</time>
   </trkpt>
   <trkpt lat="51.1899420" lon="5.5007550">
    <ele>45.3</ele>
    <time>2020-06-14T06:55:55Z</time>
   </trkpt>
   <trkpt lat="51.1899930" lon="5.5007130">
    <ele>45.3</ele>
    <time>2020-06-14T06:55:56Z</time>
   </trkpt>
   <trkpt lat="51.1900410" lon="5.5006720">
    <ele>45.4</ele>
    <time>2020-06-14T06:55:57Z</time>
   </trkpt>
   <trkpt lat="51.1900910" lon="5.5006330">
    <ele>45.4</ele>
    <time>2020-06-14T06:55:58Z</time>
   </trkpt>
   <trkpt lat="51.1901370" lon="5.5005930">
    <ele>45.4</ele>
    <time>2020-06-14T06:55:59Z</time>
   </trkpt>
   <trkpt lat="51.1901850" lon="5.5005700">
    <ele>45.5</ele>
    <time>2020-06-14T06:56:00Z</time>
   </trkpt>
   <trkpt lat="51.1902250" lon="5.5005410">
    <ele>45.5</ele>
    <time>2020-06-14T06:56:01Z</time>
   </trkpt>
   <trkpt lat="51.1902560" lon="5.5005080">
    <ele>45.6</ele>
    <time>2020-06-14T06:56:02Z</time>
   </trkpt>
   <trkpt lat="51.1902820" lon="5.5004780">
    <ele>45.7</ele>
    <time>2020-06-14T06:56:03Z</time>
   </trkpt>
   <trkpt lat="51.1903080" lon="5.5004490">
    <ele>45.7</ele>
    <time>2020-06-14T06:56:04Z</time>
   </trkpt>
   <trkpt lat="51.1903340" lon="5.5004170">
    <ele>45.8</ele>
    <time>2020-06-14T06:56:05Z</time>
   </trkpt>
   <trkpt lat="51.1903610" lon="5.5003820">
    <ele>45.9</ele>
    <time>2020-06-14T06:56:06Z</time>
   </trkpt>
   <trkpt lat="51.1903890" lon="5.5003520">
    <ele>45.9</ele>
    <time>2020-06-14T06:56:07Z</time>
   </trkpt>
   <trkpt lat="51.1904100" lon="5.5003210">
    <ele>46.0</ele>
    <time>2020-06-14T06:56:08Z</time>
   </trkpt>
   <trkpt lat="51.1904340" lon="5.5002970">
    <ele>46.1</ele>
    <time>2020-06-14T06:56:09Z</time>
   </trkpt>
   <trkpt lat="51.1904600" lon="5.5002670">
    <ele>46.4</ele>
    <time>2020-06-14T06:56:10Z</time>
   </trkpt>
   <trkpt lat="51.1904940" lon="5.5002320">
    <ele>46.4</ele>
    <time>2020-06-14T06:56:11Z</time>
   </trkpt>
   <trkpt lat="51.1905230" lon="5.5001750">
    <ele>46.4</ele>
    <time>2020-06-14T06:56:12Z</time>
   </trkpt>
   <trkpt lat="51.1905420" lon="5.5001140">
    <ele>46.2</ele>
    <time>2020-06-14T06:56:13Z</time>
   </trkpt>
   <trkpt lat="51.1905490" lon="5.5000520">
    <ele>46.1</ele>
    <time>2020-06-14T06:56:14Z</time>
   </trkpt>
   <trkpt lat="51.1905490" lon="5.4999900">
    <ele>46.0</ele>
    <time>2020-06-14T06:56:15Z</time>
   </trkpt>
   <trkpt lat="51.1905540" lon="5.4999280">
    <ele>45.9</ele>
    <time>2020-06-14T06:56:16Z</time>
   </trkpt>
   <trkpt lat="51.1905730" lon="5.4998710">
    <ele>45.9</ele>
    <time>2020-06-14T06:56:17Z</time>
   </trkpt>
   <trkpt lat="51.1905980" lon="5.4998200">
    <ele>45.8</ele>
    <time>2020-06-14T06:56:18Z</time>
   </trkpt>
   <trkpt lat="51.1906160" lon="5.4997660">
    <ele>45.8</ele>
    <time>2020-06-14T06:56:19Z</time>
   </trkpt>
   <trkpt lat="51.1906080" lon="5.4997040">
    <ele>45.7</ele>
    <time>2020-06-14T06:56:20Z</time>
   </trkpt>
   <trkpt lat="51.1906040" lon="5.4996260">
    <ele>45.7</ele>
    <time>2020-06-14T06:56:21Z</time>
   </trkpt>
   <trkpt lat="51.1905960" lon="5.4995370">
    <ele>45.5</ele>
    <time>2020-06-14T06:56:22Z</time>
   </trkpt>
   <trkpt lat="51.1905850" lon="5.4994390">
    <ele>45.4</ele>
    <time>2020-06-14T06:56:23Z</time>
   </trkpt>
   <trkpt lat="51.1905720" lon="5.4993300">
    <ele>45.3</ele>
    <time>2020-06-14T06:56:24Z</time>
   </trkpt>
   <trkpt lat="51.1905630" lon="5.4992130">
    <ele>45.2</ele>
    <time>2020-06-14T06:56:25Z</time>
   </trkpt>
   <trkpt lat="51.1905510" lon="5.4990920">
    <ele>45.1</ele>
    <time>2020-06-14T06:56:26Z</time>
   </trkpt>
   <trkpt lat="51.1905380" lon="5.4989700">
    <ele>45.0</ele>
    <time>2020-06-14T06:56:27Z</time>
   </trkpt>
   <trkpt lat="51.1905190" lon="5.4988490">
    <ele>45.1</ele>
    <time>2020-06-14T06:56:28Z</time>
   </trkpt>
   <trkpt lat="51.1905000" lon="5.4987310">
    <ele>45.1</ele>
    <time>2020-06-14T06:56:29Z</time>
   </trkpt>
   <trkpt lat="51.1904780" lon="5.4986220">
    <ele>45.1</ele>
    <time>2020-06-14T06:56:30Z</time>
   </trkpt>
   <trkpt lat="51.1904600" lon="5.4985100">
    <ele>45.0</ele>
    <time>2020-06-14T06:56:31Z</time>
   </trkpt>
   <trkpt lat="51.1904360" lon="5.4983940">
    <ele>45.0</ele>
    <time>2020-06-14T06:56:32Z</time>
   </trkpt>
   <trkpt lat="51.1904140" lon="5.4982830">
    <ele>44.9</ele>
    <time>2020-06-14T06:56:33Z</time>
   </trkpt>
   <trkpt lat="51.1903890" lon="5.4981760">
    <ele>44.9</ele>
    <time>2020-06-14T06:56:34Z</time>
   </trkpt>
   <trkpt lat="51.1903620" lon="5.4980660">
    <ele>44.9</ele>
    <time>2020-06-14T06:56:35Z</time>
   </trkpt>
   <trkpt lat="51.1903350" lon="5.4979480">
    <ele>44.9</ele>
    <time>2020-06-14T06:56:36Z</time>
   </trkpt>
   <trkpt lat="51.1903170" lon="5.4978500">
    <ele>44.9</ele>
    <time>2020-06-14T06:56:37Z</time>
   </trkpt>
   <trkpt lat="51.1902960" lon="5.4977430">
    <ele>44.9</ele>
    <time>2020-06-14T06:56:38Z</time>
   </trkpt>
   <trkpt lat="51.1902770" lon="5.4976280">
    <ele>44.9</ele>
    <time>2020-06-14T06:56:39Z</time>
   </trkpt>
   <trkpt lat="51.1902560" lon="5.4975000">
    <ele>44.9</ele>
    <time>2020-06-14T06:56:40Z</time>
   </trkpt>
   <trkpt lat="51.1902390" lon="5.4973870">
    <ele>44.9</ele>
    <time>2020-06-14T06:56:41Z</time>
   </trkpt>
   <trkpt lat="51.1902210" lon="5.4972850">
    <ele>45.0</ele>
    <time>2020-06-14T06:56:42Z</time>
   </trkpt>
   <trkpt lat="51.1901990" lon="5.4971740">
    <ele>45.0</ele>
    <time>2020-06-14T06:56:43Z</time>
   </trkpt>
   <trkpt lat="51.1901750" lon="5.4970520">
    <ele>45.1</ele>
    <time>2020-06-14T06:56:44Z</time>
   </trkpt>
   <trkpt lat="51.1901510" lon="5.4969310">
    <ele>45.1</ele>
    <time>2020-06-14T06:56:45Z</time>
   </trkpt>
   <trkpt lat="51.1901340" lon="5.4968250">
    <ele>45.2</ele>
    <time>2020-06-14T06:56:46Z</time>
   </trkpt>
   <trkpt lat="51.1901120" lon="5.4967170">
    <ele>45.3</ele>
    <time>2020-06-14T06:56:47Z</time>
   </trkpt>
   <trkpt lat="51.1900930" lon="5.4966060">
    <ele>45.3</ele>
    <time>2020-06-14T06:56:48Z</time>
   </trkpt>
   <trkpt lat="51.1900760" lon="5.4965030">
    <ele>45.4</ele>
    <time>2020-06-14T06:56:49Z</time>
   </trkpt>
   <trkpt lat="51.1900600" lon="5.4964100">
    <ele>45.5</ele>
    <time>2020-06-14T06:56:50Z</time>
   </trkpt>
   <trkpt lat="51.1900450" lon="5.4963240">
    <ele>45.6</ele>
    <time>2020-06-14T06:56:51Z</time>
   </trkpt>
   <trkpt lat="51.1900380" lon="5.4962420">
    <ele>45.7</ele>
    <time>2020-06-14T06:56:52Z</time>
   </trkpt>
   <trkpt lat="51.1900280" lon="5.4961720">
    <ele>45.8</ele>
    <time>2020-06-14T06:56:53Z</time>
   </trkpt>
   <trkpt lat="51.1900150" lon="5.4961050">
    <ele>45.9</ele>
    <time>2020-06-14T06:56:54Z</time>
   </trkpt>
   <trkpt lat="51.1900080" lon="5.4960430">
    <ele>46.0</ele>
    <time>2020-06-14T06:56:55Z</time>
   </trkpt>
   <trkpt lat="51.1900030" lon="5.4959780">
    <ele>46.1</ele>
    <time>2020-06-14T06:56:56Z</time>
   </trkpt>
   <trkpt lat="51.1899930" lon="5.4959130">
    <ele>46.1</ele>
    <time>2020-06-14T06:56:57Z</time>
   </trkpt>
   <trkpt lat="51.1899800" lon="5.4958410">
    <ele>46.2</ele>
    <time>2020-06-14T06:56:58Z</time>
   </trkpt>
   <trkpt lat="51.1899700" lon="5.4957680">
    <ele>46.3</ele>
    <time>2020-06-14T06:56:59Z</time>
   </trkpt>
   <trkpt lat="51.1899740" lon="5.4956770">
    <ele>46.2</ele>
    <time>2020-06-14T06:57:00Z</time>
   </trkpt>
   <trkpt lat="51.1899920" lon="5.4955880">
    <ele>46.1</ele>
    <time>2020-06-14T06:57:01Z</time>
   </trkpt>
   <trkpt lat="51.1900210" lon="5.4955000">
    <ele>46.0</ele>
    <time>2020-06-14T06:57:02Z</time>
   </trkpt>
   <trkpt lat="51.1900510" lon="5.4954080">
    <ele>46.0</ele>
    <time>2020-06-14T06:57:03Z</time>
   </trkpt>
   <trkpt lat="51.1900790" lon="5.4953130">
    <ele>45.9</ele>
    <time>2020-06-14T06:57:04Z</time>
   </trkpt>
   <trkpt lat="51.1901100" lon="5.4952140">
    <ele>45.8</ele>
    <time>2020-06-14T06:57:05Z</time>
   </trkpt>
   <trkpt lat="51.1901460" lon="5.4951130">
    <ele>45.8</ele>
    <time>2020-06-14T06:57:06Z</time>
   </trkpt>
   <trkpt lat="51.1901770" lon="5.4950050">
    <ele>45.7</ele>
    <time>2020-06-14T06:57:07Z</time>
   </trkpt>
   <trkpt lat="51.1902100" lon="5.4948990">
    <ele>45.7</ele>
    <time>2020-06-14T06:57:08Z</time>
   </trkpt>
   <trkpt lat="51.1902460" lon="5.4947950">
    <ele>45.6</ele>
    <time>2020-06-14T06:57:09Z</time>
   </trkpt>
   <trkpt lat="51.1902810" lon="5.4946870">
    <ele>45.6</ele>
    <time>2020-06-14T06:57:10Z</time>
   </trkpt>
   <trkpt lat="51.1903180" lon="5.4945790">
    <ele>45.6</ele>
    <time>2020-06-14T06:57:11Z</time>
   </trkpt>
   <trkpt lat="51.1903550" lon="5.4944710">
    <ele>45.5</ele>
    <time>2020-06-14T06:57:12Z</time>
   </trkpt>
   <trkpt lat="51.1903940" lon="5.4943660">
    <ele>45.5</ele>
    <time>2020-06-14T06:57:13Z</time>
   </trkpt>
   <trkpt lat="51.1904290" lon="5.4942590">
    <ele>45.5</ele>
    <time>2020-06-14T06:57:14Z</time>
   </trkpt>
   <trkpt lat="51.1904590" lon="5.4941470">
    <ele>45.5</ele>
    <time>2020-06-14T06:57:15Z</time>
   </trkpt>
   <trkpt lat="51.1904860" lon="5.4940330">
    <ele>45.5</ele>
    <time>2020-06-14T06:57:16Z</time>
   </trkpt>
   <trkpt lat="51.1905170" lon="5.4939250">
    <ele>45.5</ele>
    <time>2020-06-14T06:57:17Z</time>
   </trkpt>
   <trkpt lat="51.1905480" lon="5.4938170">
    <ele>45.5</ele>
    <time>2020-06-14T06:57:18Z</time>
   </trkpt>
   <trkpt lat="51.1905870" lon="5.4937110">
    <ele>45.5</ele>
    <time>2020-06-14T06:57:19Z</time>
   </trkpt>
   <trkpt lat="51.1906230" lon="5.4936030">
    <ele>45.5</ele>
    <time>2020-06-14T06:57:20Z</time>
   </trkpt>
   <trkpt lat="51.1906570" lon="5.4934920">
    <ele>45.5</ele>
    <time>2020-06-14T06:57:21Z</time>
   </trkpt>
   <trkpt lat="51.1906950" lon="5.4933840">
    <ele>45.5</ele>
    <time>2020-06-14T06:57:22Z</time>
   </trkpt>
   <trkpt lat="51.1907250" lon="5.4932700">
    <ele>45.5</ele>
    <time>2020-06-14T06:57:23Z</time>
   </trkpt>
   <trkpt lat="51.1907630" lon="5.4931620">
    <ele>45.5</ele>
    <time>2020-06-14T06:57:24Z</time>
   </trkpt>
   <trkpt lat="51.1907950" lon="5.4930500">
    <ele>45.4</ele>
    <time>2020-06-14T06:57:25Z</time>
   </trkpt>
   <trkpt lat="51.1908260" lon="5.4929410">
    <ele>45.4</ele>
    <time>2020-06-14T06:57:26Z</time>
   </trkpt>
   <trkpt lat="51.1908610" lon="5.4928350">
    <ele>45.4</ele>
    <time>2020-06-14T06:57:27Z</time>
   </trkpt>
   <trkpt lat="51.1908910" lon="5.4927280">
    <ele>45.4</ele>
    <time>2020-06-14T06:57:28Z</time>
   </trkpt>
   <trkpt lat="51.1909240" lon="5.4926240">
    <ele>45.4</ele>
    <time>2020-06-14T06:57:29Z</time>
   </trkpt>
   <trkpt lat="51.1909540" lon="5.4925220">
    <ele>45.4</ele>
    <time>2020-06-14T06:57:30Z</time>
   </trkpt>
   <trkpt lat="51.1909850" lon="5.4924190">
    <ele>45.3</ele>
    <time>2020-06-14T06:57:31Z</time>
   </trkpt>
   <trkpt lat="51.1910130" lon="5.4923120">
    <ele>45.3</ele>
    <time>2020-06-14T06:57:32Z</time>
   </trkpt>
   <trkpt lat="51.1910420" lon="5.4922080">
    <ele>45.3</ele>
    <time>2020-06-14T06:57:33Z</time>
   </trkpt>
   <trkpt lat="51.1910740" lon="5.4921140">
    <ele>45.4</ele>
    <time>2020-06-14T06:57:34Z</time>
   </trkpt>
   <trkpt lat="51.1911010" lon="5.4920220">
    <ele>45.4</ele>
    <time>2020-06-14T06:57:35Z</time>
   </trkpt>
   <trkpt lat="51.1911260" lon="5.4919320">
    <ele>45.4</ele>
    <time>2020-06-14T06:57:36Z</time>
   </trkpt>
   <trkpt lat="51.1911510" lon="5.4918390">
    <ele>45.4</ele>
    <time>2020-06-14T06:57:37Z</time>
   </trkpt>
   <trkpt lat="51.1911790" lon="5.4917470">
    <ele>45.4</ele>
    <time>2020-06-14T06:57:38Z</time>
   </trkpt>
   <trkpt lat="51.1912060" lon="5.4916580">
    <ele>45.4</ele>
    <time>2020-06-14T06:57:39Z</time>
   </trkpt>
   <trkpt lat="51.1912330" lon="5.4915700">
    <ele>45.4</ele>
    <time>2020-06-14T06:57:40Z</time>
   </trkpt>
   <trkpt lat="51.1912590" lon="5.4914820">
    <ele>45.5</ele>
    <time>2020-06-14T06:57:41Z</time>
   </trkpt>
   <trkpt lat="51.1912850" lon="5.4913920">
    <ele>45.4</ele>
    <time>2020-06-14T06:57:42Z</time>
   </trkpt>
   <trkpt lat="51.1913120" lon="5.4913000">
    <ele>45.4</ele>
    <time>2020-06-14T06:57:43Z</time>
   </trkpt>
   <trkpt lat="51.1913430" lon="5.4912160">
    <ele>45.5</ele>
    <time>2020-06-14T06:57:44Z</time>
   </trkpt>
   <trkpt lat="51.1913760" lon="5.4911390">
    <ele>45.5</ele>
    <time>2020-06-14T06:57:45Z</time>
   </trkpt>
   <trkpt lat="51.1914040" lon="5.4910590">
    <ele>45.6</ele>
    <time>2020-06-14T06:57:46Z</time>
   </trkpt>
   <trkpt lat="51.1914360" lon="5.4909810">
    <ele>45.7</ele>
    <time>2020-06-14T06:57:47Z</time>
   </trkpt>
   <trkpt lat="51.1914550" lon="5.4908970">
    <ele>45.8</ele>
    <time>2020-06-14T06:57:48Z</time>
   </trkpt>
   <trkpt lat="51.1914810" lon="5.4908120">
    <ele>45.8</ele>
    <time>2020-06-14T06:57:49Z</time>
   </trkpt>
   <trkpt lat="51.1915130" lon="5.4907240">
    <ele>45.9</ele>
    <time>2020-06-14T06:57:50Z</time>
   </trkpt>
   <trkpt lat="51.1915450" lon="5.4906360">
    <ele>45.9</ele>
    <time>2020-06-14T06:57:51Z</time>
   </trkpt>
   <trkpt lat="51.1915780" lon="5.4905510">
    <ele>45.9</ele>
    <time>2020-06-14T06:57:52Z</time>
   </trkpt>
   <trkpt lat="51.1916080" lon="5.4904620">
    <ele>46.0</ele>
    <time>2020-06-14T06:57:53Z</time>
   </trkpt>
   <trkpt lat="51.1916450" lon="5.4903670">
    <ele>46.0</ele>
    <time>2020-06-14T06:57:54Z</time>
   </trkpt>
   <trkpt lat="51.1916770" lon="5.4902630">
    <ele>45.9</ele>
    <time>2020-06-14T06:57:55Z</time>
   </trkpt>
   <trkpt lat="51.1917060" lon="5.4901580">
    <ele>45.9</ele>
    <time>2020-06-14T06:57:56Z</time>
   </trkpt>
   <trkpt lat="51.1917480" lon="5.4900320">
    <ele>45.9</ele>
    <time>2020-06-14T06:57:57Z</time>
   </trkpt>
   <trkpt lat="51.1917850" lon="5.4899140">
    <ele>45.9</ele>
    <time>2020-06-14T06:57:58Z</time>
   </trkpt>
   <trkpt lat="51.1918200" lon="5.4898030">
    <ele>45.9</ele>
    <time>2020-06-14T06:57:59Z</time>
   </trkpt>
   <trkpt lat="51.1918550" lon="5.4896950">
    <ele>45.9</ele>
    <time>2020-06-14T06:58:00Z</time>
   </trkpt>
   <trkpt lat="51.1918870" lon="5.4895880">
    <ele>45.9</ele>
    <time>2020-06-14T06:58:01Z</time>
   </trkpt>
   <trkpt lat="51.1919180" lon="5.4894760">
    <ele>45.9</ele>
    <time>2020-06-14T06:58:02Z</time>
   </trkpt>
   <trkpt lat="51.1919480" lon="5.4893880">
    <ele>45.9</ele>
    <time>2020-06-14T06:58:03Z</time>
   </trkpt>
   <trkpt lat="51.1919720" lon="5.4893050">
    <ele>45.9</ele>
    <time>2020-06-14T06:58:04Z</time>
   </trkpt>
   <trkpt lat="51.1919990" lon="5.4892190">
    <ele>45.8</ele>
    <time>2020-06-14T06:58:05Z</time>
   </trkpt>
   <trkpt lat="51.1920230" lon="5.4891330">
    <ele>45.7</ele>
    <time>2020-06-14T06:58:06Z</time>
   </trkpt>
   <trkpt lat="51.1920490" lon="5.4890440">
    <ele>45.7</ele>
    <time>2020-06-14T06:58:07Z</time>
   </trkpt>
   <trkpt lat="51.1920820" lon="5.4889460">
    <ele>45.6</ele>
    <time>2020-06-14T06:58:08Z</time>
   </trkpt>
   <trkpt lat="51.1921080" lon="5.4888460">
    <ele>45.6</ele>
    <time>2020-06-14T06:58:09Z</time>
   </trkpt>
   <trkpt lat="51.1921320" lon="5.4887470">
    <ele>45.6</ele>
    <time>2020-06-14T06:58:10Z</time>
   </trkpt>
   <trkpt lat="51.1920730" lon="5.4885950">
    <ele>45.5</ele>
    <time>2020-06-14T06:58:11Z</time>
   </trkpt>
   <trkpt lat="51.1921020" lon="5.4884880">
    <ele>45.5</ele>
    <time>2020-06-14T06:58:12Z</time>
   </trkpt>
   <trkpt lat="51.1921310" lon="5.4883860">
    <ele>45.5</ele>
    <time>2020-06-14T06:58:13Z</time>
   </trkpt>
   <trkpt lat="51.1921690" lon="5.4882790">
    <ele>45.4</ele>
    <time>2020-06-14T06:58:14Z</time>
   </trkpt>
   <trkpt lat="51.1922010" lon="5.4881750">
    <ele>45.4</ele>
    <time>2020-06-14T06:58:15Z</time>
   </trkpt>
   <trkpt lat="51.1922280" lon="5.4880740">
    <ele>45.4</ele>
    <time>2020-06-14T06:58:16Z</time>
   </trkpt>
   <trkpt lat="51.1922550" lon="5.4879730">
    <ele>45.3</ele>
    <time>2020-06-14T06:58:17Z</time>
   </trkpt>
   <trkpt lat="51.1922840" lon="5.4878860">
    <ele>45.3</ele>
    <time>2020-06-14T06:58:18Z</time>
   </trkpt>
   <trkpt lat="51.1923140" lon="5.4877950">
    <ele>45.3</ele>
    <time>2020-06-14T06:58:19Z</time>
   </trkpt>
   <trkpt lat="51.1923470" lon="5.4876990">
    <ele>45.2</ele>
    <time>2020-06-14T06:58:20Z</time>
   </trkpt>
   <trkpt lat="51.1923790" lon="5.4876140">
    <ele>45.2</ele>
    <time>2020-06-14T06:58:21Z</time>
   </trkpt>
   <trkpt lat="51.1924110" lon="5.4875240">
    <ele>45.2</ele>
    <time>2020-06-14T06:58:22Z</time>
   </trkpt>
   <trkpt lat="51.1924450" lon="5.4874350">
    <ele>45.1</ele>
    <time>2020-06-14T06:58:23Z</time>
   </trkpt>
   <trkpt lat="51.1924830" lon="5.4873440">
    <ele>45.1</ele>
    <time>2020-06-14T06:58:24Z</time>
   </trkpt>
   <trkpt lat="51.1925140" lon="5.4872540">
    <ele>45.0</ele>
    <time>2020-06-14T06:58:25Z</time>
   </trkpt>
   <trkpt lat="51.1925400" lon="5.4871680">
    <ele>45.0</ele>
    <time>2020-06-14T06:58:26Z</time>
   </trkpt>
   <trkpt lat="51.1925490" lon="5.4870690">
    <ele>45.0</ele>
    <time>2020-06-14T06:58:27Z</time>
   </trkpt>
   <trkpt lat="51.1925720" lon="5.4869790">
    <ele>44.9</ele>
    <time>2020-06-14T06:58:28Z</time>
   </trkpt>
   <trkpt lat="51.1925950" lon="5.4868900">
    <ele>44.9</ele>
    <time>2020-06-14T06:58:29Z</time>
   </trkpt>
   <trkpt lat="51.1926260" lon="5.4868010">
    <ele>44.9</ele>
    <time>2020-06-14T06:58:30Z</time>
   </trkpt>
   <trkpt lat="51.1926520" lon="5.4867070">
    <ele>44.8</ele>
    <time>2020-06-14T06:58:31Z</time>
   </trkpt>
   <trkpt lat="51.1926800" lon="5.4866130">
    <ele>44.8</ele>
    <time>2020-06-14T06:58:32Z</time>
   </trkpt>
   <trkpt lat="51.1927060" lon="5.4865140">
    <ele>44.7</ele>
    <time>2020-06-14T06:58:33Z</time>
   </trkpt>
   <trkpt lat="51.1927330" lon="5.4864170">
    <ele>44.7</ele>
    <time>2020-06-14T06:58:34Z</time>
   </trkpt>
   <trkpt lat="51.1927620" lon="5.4863180">
    <ele>44.7</ele>
    <time>2020-06-14T06:58:35Z</time>
   </trkpt>
   <trkpt lat="51.1927920" lon="5.4862210">
    <ele>44.6</ele>
    <time>2020-06-14T06:58:36Z</time>
   </trkpt>
   <trkpt lat="51.1928220" lon="5.4861220">
    <ele>44.6</ele>
    <time>2020-06-14T06:58:37Z</time>
   </trkpt>
   <trkpt lat="51.1928590" lon="5.4860160">
    <ele>44.6</ele>
    <time>2020-06-14T06:58:38Z</time>
   </trkpt>
   <trkpt lat="51.1928910" lon="5.4859060">
    <ele>44.6</ele>
    <time>2020-06-14T06:58:39Z</time>
   </trkpt>
   <trkpt lat="51.1929200" lon="5.4857930">
    <ele>44.6</ele>
    <time>2020-06-14T06:58:40Z</time>
   </trkpt>
   <trkpt lat="51.1929490" lon="5.4856860">
    <ele>44.5</ele>
    <time>2020-06-14T06:58:41Z</time>
   </trkpt>
   <trkpt lat="51.1929790" lon="5.4855800">
    <ele>44.5</ele>
    <time>2020-06-14T06:58:42Z</time>
   </trkpt>
   <trkpt lat="51.1930240" lon="5.4854810">
    <ele>44.4</ele>
    <time>2020-06-14T06:58:43Z</time>
   </trkpt>
   <trkpt lat="51.1930530" lon="5.4853810">
    <ele>44.4</ele>
    <time>2020-06-14T06:58:44Z</time>
   </trkpt>
   <trkpt lat="51.1930790" lon="5.4852880">
    <ele>44.4</ele>
    <time>2020-06-14T06:58:45Z</time>
   </trkpt>
   <trkpt lat="51.1930980" lon="5.4851830">
    <ele>44.3</ele>
    <time>2020-06-14T06:58:46Z</time>
   </trkpt>
   <trkpt lat="51.1931290" lon="5.4850820">
    <ele>44.3</ele>
    <time>2020-06-14T06:58:47Z</time>
   </trkpt>
   <trkpt lat="51.1931660" lon="5.4849840">
    <ele>44.3</ele>
    <time>2020-06-14T06:58:48Z</time>
   </trkpt>
   <trkpt lat="51.1931950" lon="5.4848850">
    <ele>44.3</ele>
    <time>2020-06-14T06:58:49Z</time>
   </trkpt>
   <trkpt lat="51.1932210" lon="5.4847760">
    <ele>44.3</ele>
    <time>2020-06-14T06:58:50Z</time>
   </trkpt>
   <trkpt lat="51.1932570" lon="5.4846760">
    <ele>44.2</ele>
    <time>2020-06-14T06:58:51Z</time>
   </trkpt>
   <trkpt lat="51.1932900" lon="5.4845650">
    <ele>44.2</ele>
    <time>2020-06-14T06:58:52Z</time>
   </trkpt>
   <trkpt lat="51.1933200" lon="5.4844550">
    <ele>44.2</ele>
    <time>2020-06-14T06:58:53Z</time>
   </trkpt>
   <trkpt lat="51.1933480" lon="5.4843410">
    <ele>44.2</ele>
    <time>2020-06-14T06:58:54Z</time>
   </trkpt>
   <trkpt lat="51.1933780" lon="5.4842250">
    <ele>44.2</ele>
    <time>2020-06-14T06:58:55Z</time>
   </trkpt>
   <trkpt lat="51.1934220" lon="5.4841130">
    <ele>44.2</ele>
    <time>2020-06-14T06:58:56Z</time>
   </trkpt>
   <trkpt lat="51.1934620" lon="5.4840040">
    <ele>44.2</ele>
    <time>2020-06-14T06:58:57Z</time>
   </trkpt>
   <trkpt lat="51.1935010" lon="5.4838940">
    <ele>44.2</ele>
    <time>2020-06-14T06:58:58Z</time>
   </trkpt>
   <trkpt lat="51.1935330" lon="5.4837850">
    <ele>44.2</ele>
    <time>2020-06-14T06:58:59Z</time>
   </trkpt>
   <trkpt lat="51.1935650" lon="5.4836780">
    <ele>44.2</ele>
    <time>2020-06-14T06:59:00Z</time>
   </trkpt>
   <trkpt lat="51.1935970" lon="5.4835720">
    <ele>44.2</ele>
    <time>2020-06-14T06:59:01Z</time>
   </trkpt>
   <trkpt lat="51.1936250" lon="5.4834660">
    <ele>44.3</ele>
    <time>2020-06-14T06:59:02Z</time>
   </trkpt>
   <trkpt lat="51.1936550" lon="5.4833660">
    <ele>44.3</ele>
    <time>2020-06-14T06:59:03Z</time>
   </trkpt>
   <trkpt lat="51.1936840" lon="5.4832670">
    <ele>44.3</ele>
    <time>2020-06-14T06:59:04Z</time>
   </trkpt>
   <trkpt lat="51.1937140" lon="5.4831740">
    <ele>44.3</ele>
    <time>2020-06-14T06:59:05Z</time>
   </trkpt>
   <trkpt lat="51.1937430" lon="5.4830820">
    <ele>44.3</ele>
    <time>2020-06-14T06:59:06Z</time>
   </trkpt>
   <trkpt lat="51.1937690" lon="5.4829880">
    <ele>44.3</ele>
    <time>2020-06-14T06:59:07Z</time>
   </trkpt>
   <trkpt lat="51.1937980" lon="5.4828990">
    <ele>44.3</ele>
    <time>2020-06-14T06:59:08Z</time>
   </trkpt>
   <trkpt lat="51.1938290" lon="5.4828090">
    <ele>44.4</ele>
    <time>2020-06-14T06:59:09Z</time>
   </trkpt>
   <trkpt lat="51.1938600" lon="5.4827100">
    <ele>44.4</ele>
    <time>2020-06-14T06:59:10Z</time>
   </trkpt>
   <trkpt lat="51.1938870" lon="5.4826100">
    <ele>44.5</ele>
    <time>2020-06-14T06:59:11Z</time>
   </trkpt>
   <trkpt lat="51.1939090" lon="5.4825090">
    <ele>44.6</ele>
    <time>2020-06-14T06:59:12Z</time>
   </trkpt>
   <trkpt lat="51.1939390" lon="5.4824160">
    <ele>44.7</ele>
    <time>2020-06-14T06:59:13Z</time>
   </trkpt>
   <trkpt lat="51.1939690" lon="5.4823170">
    <ele>44.7</ele>
    <time>2020-06-14T06:59:14Z</time>
   </trkpt>
   <trkpt lat="51.1939970" lon="5.4822160">
    <ele>44.8</ele>
    <time>2020-06-14T06:59:15Z</time>
   </trkpt>
   <trkpt lat="51.1940260" lon="5.4821160">
    <ele>44.8</ele>
    <time>2020-06-14T06:59:16Z</time>
   </trkpt>
   <trkpt lat="51.1940560" lon="5.4820210">
    <ele>44.8</ele>
    <time>2020-06-14T06:59:17Z</time>
   </trkpt>
   <trkpt lat="51.1940930" lon="5.4819370">
    <ele>44.8</ele>
    <time>2020-06-14T06:59:18Z</time>
   </trkpt>
   <trkpt lat="51.1941210" lon="5.4818520">
    <ele>44.8</ele>
    <time>2020-06-14T06:59:19Z</time>
   </trkpt>
   <trkpt lat="51.1941450" lon="5.4817680">
    <ele>44.8</ele>
    <time>2020-06-14T06:59:20Z</time>
   </trkpt>
   <trkpt lat="51.1941680" lon="5.4816830">
    <ele>44.8</ele>
    <time>2020-06-14T06:59:21Z</time>
   </trkpt>
   <trkpt lat="51.1941920" lon="5.4815960">
    <ele>44.9</ele>
    <time>2020-06-14T06:59:22Z</time>
   </trkpt>
   <trkpt lat="51.1942170" lon="5.4815070">
    <ele>44.9</ele>
    <time>2020-06-14T06:59:23Z</time>
   </trkpt>
   <trkpt lat="51.1942460" lon="5.4814100">
    <ele>44.9</ele>
    <time>2020-06-14T06:59:24Z</time>
   </trkpt>
   <trkpt lat="51.1942690" lon="5.4812990">
    <ele>45.0</ele>
    <time>2020-06-14T06:59:25Z</time>
   </trkpt>
   <trkpt lat="51.1943020" lon="5.4812040">
    <ele>45.0</ele>
    <time>2020-06-14T06:59:26Z</time>
   </trkpt>
   <trkpt lat="51.1943390" lon="5.4811150">
    <ele>45.1</ele>
    <time>2020-06-14T06:59:27Z</time>
   </trkpt>
   <trkpt lat="51.1943680" lon="5.4810190">
    <ele>45.1</ele>
    <time>2020-06-14T06:59:28Z</time>
   </trkpt>
   <trkpt lat="51.1943970" lon="5.4809210">
    <ele>45.1</ele>
    <time>2020-06-14T06:59:29Z</time>
   </trkpt>
   <trkpt lat="51.1944220" lon="5.4808290">
    <ele>45.2</ele>
    <time>2020-06-14T06:59:30Z</time>
   </trkpt>
   <trkpt lat="51.1944430" lon="5.4807380">
    <ele>45.2</ele>
    <time>2020-06-14T06:59:31Z</time>
   </trkpt>
   <trkpt lat="51.1944740" lon="5.4806540">
    <ele>45.2</ele>
    <time>2020-06-14T06:59:32Z</time>
   </trkpt>
   <trkpt lat="51.1944970" lon="5.4805560">
    <ele>45.3</ele>
    <time>2020-06-14T06:59:33Z</time>
   </trkpt>
   <trkpt lat="51.1945220" lon="5.4804650">
    <ele>45.3</ele>
    <time>2020-06-14T06:59:34Z</time>
   </trkpt>
   <trkpt lat="51.1945500" lon="5.4803750">
    <ele>45.3</ele>
    <time>2020-06-14T06:59:35Z</time>
   </trkpt>
   <trkpt lat="51.1945790" lon="5.4802850">
    <ele>45.3</ele>
    <time>2020-06-14T06:59:36Z</time>
   </trkpt>
   <trkpt lat="51.1946050" lon="5.4801980">
    <ele>45.3</ele>
    <time>2020-06-14T06:59:37Z</time>
   </trkpt>
   <trkpt lat="51.1946390" lon="5.4800920">
    <ele>45.3</ele>
    <time>2020-06-14T06:59:38Z</time>
   </trkpt>
   <trkpt lat="51.1946760" lon="5.4799670">
    <ele>45.3</ele>
    <time>2020-06-14T06:59:39Z</time>
   </trkpt>
   <trkpt lat="51.1947120" lon="5.4798350">
    <ele>45.4</ele>
    <time>2020-06-14T06:59:40Z</time>
   </trkpt>
   <trkpt lat="51.1947550" lon="5.4797040">
    <ele>45.4</ele>
    <time>2020-06-14T06:59:41Z</time>
   </trkpt>
   <trkpt lat="51.1947990" lon="5.4795840">
    <ele>45.5</ele>
    <time>2020-06-14T06:59:42Z</time>
   </trkpt>
   <trkpt lat="51.1948370" lon="5.4794720">
    <ele>45.6</ele>
    <time>2020-06-14T06:59:43Z</time>
   </trkpt>
   <trkpt lat="51.1948760" lon="5.4793510">
    <ele>45.7</ele>
    <time>2020-06-14T06:59:44Z</time>
   </trkpt>
   <trkpt lat="51.1949190" lon="5.4792310">
    <ele>45.7</ele>
    <time>2020-06-14T06:59:45Z</time>
   </trkpt>
   <trkpt lat="51.1949650" lon="5.4791140">
    <ele>45.7</ele>
    <time>2020-06-14T06:59:46Z</time>
   </trkpt>
   <trkpt lat="51.1950070" lon="5.4790010">
    <ele>45.7</ele>
    <time>2020-06-14T06:59:47Z</time>
   </trkpt>
   <trkpt lat="51.1950370" lon="5.4789040">
    <ele>45.7</ele>
    <time>2020-06-14T06:59:48Z</time>
   </trkpt>
   <trkpt lat="51.1950670" lon="5.4788050">
    <ele>45.8</ele>
    <time>2020-06-14T06:59:49Z</time>
   </trkpt>
   <trkpt lat="51.1951070" lon="5.4786880">
    <ele>45.8</ele>
    <time>2020-06-14T06:59:50Z</time>
   </trkpt>
   <trkpt lat="51.1951470" lon="5.4785840">
    <ele>45.8</ele>
    <time>2020-06-14T06:59:51Z</time>
   </trkpt>
   <trkpt lat="51.1951670" lon="5.4785080">
    <ele>45.9</ele>
    <time>2020-06-14T06:59:52Z</time>
   </trkpt>
   <trkpt lat="51.1952020" lon="5.4783930">
    <ele>45.9</ele>
    <time>2020-06-14T06:59:53Z</time>
   </trkpt>
   <trkpt lat="51.1952440" lon="5.4782930">
    <ele>46.0</ele>
    <time>2020-06-14T06:59:54Z</time>
   </trkpt>
   <trkpt lat="51.1952900" lon="5.4781840">
    <ele>46.0</ele>
    <time>2020-06-14T06:59:55Z</time>
   </trkpt>
   <trkpt lat="51.1953250" lon="5.4780770">
    <ele>46.1</ele>
    <time>2020-06-14T06:59:56Z</time>
   </trkpt>
   <trkpt lat="51.1953590" lon="5.4779740">
    <ele>46.1</ele>
    <time>2020-06-14T06:59:57Z</time>
   </trkpt>
   <trkpt lat="51.1953980" lon="5.4778730">
    <ele>46.2</ele>
    <time>2020-06-14T06:59:58Z</time>
   </trkpt>
   <trkpt lat="51.1954370" lon="5.4777650">
    <ele>46.3</ele>
    <time>2020-06-14T06:59:59Z</time>
   </trkpt>
   <trkpt lat="51.1954740" lon="5.4776690">
    <ele>46.4</ele>
    <time>2020-06-14T07:00:00Z</time>
   </trkpt>
   <trkpt lat="51.1955100" lon="5.4775720">
    <ele>46.5</ele>
    <time>2020-06-14T07:00:01Z</time>
   </trkpt>
   <trkpt lat="51.1955490" lon="5.4774740">
    <ele>46.5</ele>
    <time>2020-06-14T07:00:02Z</time>
   </trkpt>
   <trkpt lat="51.1955880" lon="5.4773680">
    <ele>46.6</ele>
    <time>2020-06-14T07:00:03Z</time>
   </trkpt>
   <trkpt lat="51.1956190" lon="5.4772870">
    <ele>46.7</ele>
    <time>2020-06-14T07:00:04Z</time>
   </trkpt>
   <trkpt lat="51.1956460" lon="5.4772060">
    <ele>46.7</ele>
    <time>2020-06-14T07:00:05Z</time>
   </trkpt>
   <trkpt lat="51.1956820" lon="5.4771060">
    <ele>46.8</ele>
    <time>2020-06-14T07:00:06Z</time>
   </trkpt>
   <trkpt lat="51.1957170" lon="5.4769950">
    <ele>46.8</ele>
    <time>2020-06-14T07:00:07Z</time>
   </trkpt>
   <trkpt lat="51.1957430" lon="5.4768910">
    <ele>46.9</ele>
    <time>2020-06-14T07:00:08Z</time>
   </trkpt>
   <trkpt lat="51.1957710" lon="5.4767910">
    <ele>46.8</ele>
    <time>2020-06-14T07:00:09Z</time>
   </trkpt>
   <trkpt lat="51.1958000" lon="5.4767010">
    <ele>46.7</ele>
    <time>2020-06-14T07:00:10Z</time>
   </trkpt>
   <trkpt lat="51.1958270" lon="5.4766160">
    <ele>46.7</ele>
    <time>2020-06-14T07:00:11Z</time>
   </trkpt>
   <trkpt lat="51.1958520" lon="5.4765300">
    <ele>46.6</ele>
    <time>2020-06-14T07:00:12Z</time>
   </trkpt>
   <trkpt lat="51.1958840" lon="5.4764390">
    <ele>46.5</ele>
    <time>2020-06-14T07:00:13Z</time>
   </trkpt>
   <trkpt lat="51.1958970" lon="5.4763530">
    <ele>46.5</ele>
    <time>2020-06-14T07:00:14Z</time>
   </trkpt>
   <trkpt lat="51.1959230" lon="5.4762670">
    <ele>46.4</ele>
    <time>2020-06-14T07:00:15Z</time>
   </trkpt>
   <trkpt lat="51.1959500" lon="5.4761820">
    <ele>46.4</ele>
    <time>2020-06-14T07:00:16Z</time>
   </trkpt>
   <trkpt lat="51.1959710" lon="5.4761030">
    <ele>46.3</ele>
    <time>2020-06-14T07:00:17Z</time>
   </trkpt>
   <trkpt lat="51.1959960" lon="5.4760230">
    <ele>46.3</ele>
    <time>2020-06-14T07:00:18Z</time>
   </trkpt>
   <trkpt lat="51.1960220" lon="5.4759370">
    <ele>46.2</ele>
    <time>2020-06-14T07:00:19Z</time>
   </trkpt>
   <trkpt lat="51.1960460" lon="5.4758610">
    <ele>46.1</ele>
    <time>2020-06-14T07:00:20Z</time>
   </trkpt>
   <trkpt lat="51.1960730" lon="5.4757740">
    <ele>46.0</ele>
    <time>2020-06-14T07:00:21Z</time>
   </trkpt>
   <trkpt lat="51.1960860" lon="5.4757000">
    <ele>46.0</ele>
    <time>2020-06-14T07:00:22Z</time>
   </trkpt>
   <trkpt lat="51.1961080" lon="5.4756120">
    <ele>45.9</ele>
    <time>2020-06-14T07:00:23Z</time>
   </trkpt>
   <trkpt lat="51.1961470" lon="5.4755340">
    <ele>45.7</ele>
    <time>2020-06-14T07:00:24Z</time>
   </trkpt>
   <trkpt lat="51.1961840" lon="5.4754580">
    <ele>45.6</ele>
    <time>2020-06-14T07:00:25Z</time>
   </trkpt>
   <trkpt lat="51.1962080" lon="5.4753730">
    <ele>45.6</ele>
    <time>2020-06-14T07:00:26Z</time>
   </trkpt>
   <trkpt lat="51.1962270" lon="5.4752720">
    <ele>45.5</ele>
    <time>2020-06-14T07:00:27Z</time>
   </trkpt>
   <trkpt lat="51.1962550" lon="5.4751620">
    <ele>45.4</ele>
    <time>2020-06-14T07:00:28Z</time>
   </trkpt>
   <trkpt lat="51.1962910" lon="5.4750470">
    <ele>45.3</ele>
    <time>2020-06-14T07:00:29Z</time>
   </trkpt>
   <trkpt lat="51.1963210" lon="5.4749580">
    <ele>45.2</ele>
    <time>2020-06-14T07:00:30Z</time>
   </trkpt>
   <trkpt lat="51.1963470" lon="5.4748490">
    <ele>45.2</ele>
    <time>2020-06-14T07:00:31Z</time>
   </trkpt>
   <trkpt lat="51.1963780" lon="5.4747270">
    <ele>45.1</ele>
    <time>2020-06-14T07:00:32Z</time>
   </trkpt>
   <trkpt lat="51.1964090" lon="5.4746220">
    <ele>45.0</ele>
    <time>2020-06-14T07:00:33Z</time>
   </trkpt>
   <trkpt lat="51.1964450" lon="5.4745180">
    <ele>45.0</ele>
    <time>2020-06-14T07:00:34Z</time>
   </trkpt>
   <trkpt lat="51.1964750" lon="5.4744150">
    <ele>44.9</ele>
    <time>2020-06-14T07:00:35Z</time>
   </trkpt>
   <trkpt lat="51.1964960" lon="5.4743070">
    <ele>44.9</ele>
    <time>2020-06-14T07:00:36Z</time>
   </trkpt>
   <trkpt lat="51.1965150" lon="5.4742000">
    <ele>44.9</ele>
    <time>2020-06-14T07:00:37Z</time>
   </trkpt>
   <trkpt lat="51.1965340" lon="5.4740870">
    <ele>44.9</ele>
    <time>2020-06-14T07:00:38Z</time>
   </trkpt>
   <trkpt lat="51.1965630" lon="5.4739720">
    <ele>44.8</ele>
    <time>2020-06-14T07:00:39Z</time>
   </trkpt>
   <trkpt lat="51.1966000" lon="5.4738610">
    <ele>44.7</ele>
    <time>2020-06-14T07:00:40Z</time>
   </trkpt>
   <trkpt lat="51.1966330" lon="5.4737550">
    <ele>44.7</ele>
    <time>2020-06-14T07:00:41Z</time>
   </trkpt>
   <trkpt lat="51.1966670" lon="5.4736480">
    <ele>44.7</ele>
    <time>2020-06-14T07:00:42Z</time>
   </trkpt>
   <trkpt lat="51.1967000" lon="5.4735380">
    <ele>44.7</ele>
    <time>2020-06-14T07:00:43Z</time>
   </trkpt>
   <trkpt lat="51.1967320" lon="5.4734340">
    <ele>44.7</ele>
    <time>2020-06-14T07:00:44Z</time>
   </trkpt>
   <trkpt lat="51.1967660" lon="5.4733300">
    <ele>44.7</ele>
    <time>2020-06-14T07:00:45Z</time>
   </trkpt>
   <trkpt lat="51.1968040" lon="5.4732140">
    <ele>44.8</ele>
    <time>2020-06-14T07:00:46Z</time>
   </trkpt>
   <trkpt lat="51.1968420" lon="5.4731070">
    <ele>44.8</ele>
    <time>2020-06-14T07:00:47Z</time>
   </trkpt>
   <trkpt lat="51.1968780" lon="5.4729960">
    <ele>44.8</ele>
    <time>2020-06-14T07:00:48Z</time>
   </trkpt>
   <trkpt lat="51.1969150" lon="5.4728940">
    <ele>44.8</ele>
    <time>2020-06-14T07:00:49Z</time>
   </trkpt>
   <trkpt lat="51.1969460" lon="5.4727890">
    <ele>44.8</ele>
    <time>2020-06-14T07:00:50Z</time>
   </trkpt>
   <trkpt lat="51.1969750" lon="5.4726820">
    <ele>44.8</ele>
    <time>2020-06-14T07:00:51Z</time>
   </trkpt>
   <trkpt lat="51.1970010" lon="5.4725840">
    <ele>44.8</ele>
    <time>2020-06-14T07:00:52Z</time>
   </trkpt>
   <trkpt lat="51.1970270" lon="5.4724900">
    <ele>44.9</ele>
    <time>2020-06-14T07:00:53Z</time>
   </trkpt>
   <trkpt lat="51.1970520" lon="5.4723940">
    <ele>44.9</ele>
    <time>2020-06-14T07:00:54Z</time>
   </trkpt>
   <trkpt lat="51.1970740" lon="5.4722950">
    <ele>45.0</ele>
    <time>2020-06-14T07:00:55Z</time>
   </trkpt>
   <trkpt lat="51.1971000" lon="5.4722060">
    <ele>45.0</ele>
    <time>2020-06-14T07:00:56Z</time>
   </trkpt>
   <trkpt lat="51.1971250" lon="5.4721110">
    <ele>45.1</ele>
    <time>2020-06-14T07:00:57Z</time>
   </trkpt>
   <trkpt lat="51.1971610" lon="5.4720240">
    <ele>45.2</ele>
    <time>2020-06-14T07:00:58Z</time>
   </trkpt>
   <trkpt lat="51.1972070" lon="5.4719440">
    <ele>45.2</ele>
    <time>2020-06-14T07:00:59Z</time>
   </trkpt>
   <trkpt lat="51.1972500" lon="5.4718710">
    <ele>45.3</ele>
    <time>2020-06-14T07:01:00Z</time>
   </trkpt>
   <trkpt lat="51.1972750" lon="5.4717930">
    <ele>45.4</ele>
    <time>2020-06-14T07:01:01Z</time>
   </trkpt>
   <trkpt lat="51.1972990" lon="5.4717160">
    <ele>45.4</ele>
    <time>2020-06-14T07:01:02Z</time>
   </trkpt>
   <trkpt lat="51.1973250" lon="5.4716440">
    <ele>45.4</ele>
    <time>2020-06-14T07:01:03Z</time>
   </trkpt>
   <trkpt lat="51.1973520" lon="5.4715760">
    <ele>45.5</ele>
    <time>2020-06-14T07:01:04Z</time>
   </trkpt>
   <trkpt lat="51.1973750" lon="5.4715080">
    <ele>45.5</ele>
    <time>2020-06-14T07:01:05Z</time>
   </trkpt>
   <trkpt lat="51.1973930" lon="5.4714440">
    <ele>45.5</ele>
    <time>2020-06-14T07:01:06Z</time>
   </trkpt>
   <trkpt lat="51.1974100" lon="5.4713810">
    <ele>45.5</ele>
    <time>2020-06-14T07:01:07Z</time>
   </trkpt>
   <trkpt lat="51.1974300" lon="5.4713190">
    <ele>45.5</ele>
    <time>2020-06-14T07:01:08Z</time>
   </trkpt>
   <trkpt lat="51.1974510" lon="5.4712490">
    <ele>45.5</ele>
    <time>2020-06-14T07:01:09Z</time>
   </trkpt>
   <trkpt lat="51.1974800" lon="5.4711790">
    <ele>45.5</ele>
    <time>2020-06-14T07:01:10Z</time>
   </trkpt>
   <trkpt lat="51.1975070" lon="5.4711090">
    <ele>45.5</ele>
    <time>2020-06-14T07:01:11Z</time>
   </trkpt>
   <trkpt lat="51.1975290" lon="5.4710390">
    <ele>45.5</ele>
    <time>2020-06-14T07:01:12Z</time>
   </trkpt>
   <trkpt lat="51.1975540" lon="5.4709680">
    <ele>45.5</ele>
    <time>2020-06-14T07:01:13Z</time>
   </trkpt>
   <trkpt lat="51.1975730" lon="5.4708900">
    <ele>45.5</ele>
    <time>2020-06-14T07:01:14Z</time>
   </trkpt>
   <trkpt lat="51.1975920" lon="5.4708050">
    <ele>45.6</ele>
    <time>2020-06-14T07:01:15Z</time>
   </trkpt>
   <trkpt lat="51.1976140" lon="5.4707180">
    <ele>45.6</ele>
    <time>2020-06-14T07:01:16Z</time>
   </trkpt>
   <trkpt lat="51.1976320" lon="5.4706270">
    <ele>45.6</ele>
    <time>2020-06-14T07:01:17Z</time>
   </trkpt>
   <trkpt lat="51.1976570" lon="5.4705340">
    <ele>45.6</ele>
    <time>2020-06-14T07:01:18Z</time>
   </trkpt>
   <trkpt lat="51.1976840" lon="5.4704390">
    <ele>45.6</ele>
    <time>2020-06-14T07:01:19Z</time>
   </trkpt>
   <trkpt lat="51.1977130" lon="5.4703440">
    <ele>45.7</ele>
    <time>2020-06-14T07:01:20Z</time>
   </trkpt>
   <trkpt lat="51.1976540" lon="5.4701820">
    <ele>45.7</ele>
    <time>2020-06-14T07:01:21Z</time>
   </trkpt>
   <trkpt lat="51.1976810" lon="5.4700820">
    <ele>45.8</ele>
    <time>2020-06-14T07:01:22Z</time>
   </trkpt>
   <trkpt lat="51.1977100" lon="5.4699890">
    <ele>45.8</ele>
    <time>2020-06-14T07:01:23Z</time>
   </trkpt>
   <trkpt lat="51.1977390" lon="5.4699010">
    <ele>45.9</ele>
    <time>2020-06-14T07:01:24Z</time>
   </trkpt>
   <trkpt lat="51.1977810" lon="5.4698210">
    <ele>46.0</ele>
    <time>2020-06-14T07:01:25Z</time>
   </trkpt>
   <trkpt lat="51.1977960" lon="5.4697280">
    <ele>46.0</ele>
    <time>2020-06-14T07:01:26Z</time>
   </trkpt>
   <trkpt lat="51.1978120" lon="5.4696320">
    <ele>46.0</ele>
    <time>2020-06-14T07:01:27Z</time>
   </trkpt>
   <trkpt lat="51.1978420" lon="5.4695230">
    <ele>46.5</ele>
    <time>2020-06-14T07:01:28Z</time>
   </trkpt>
   <trkpt lat="51.1978760" lon="5.4694100">
    <ele>46.5</ele>
    <time>2020-06-14T07:01:29Z</time>
   </trkpt>
   <trkpt lat="51.1979210" lon="5.4692930">
    <ele>46.5</ele>
    <time>2020-06-14T07:01:30Z</time>
   </trkpt>
   <trkpt lat="51.1979650" lon="5.4691750">
    <ele>46.4</ele>
    <time>2020-06-14T07:01:31Z</time>
   </trkpt>
   <trkpt lat="51.1980120" lon="5.4690510">
    <ele>46.4</ele>
    <time>2020-06-14T07:01:32Z</time>
   </trkpt>
   <trkpt lat="51.1980560" lon="5.4689200">
    <ele>46.3</ele>
    <time>2020-06-14T07:01:33Z</time>
   </trkpt>
   <trkpt lat="51.1981010" lon="5.4687720">
    <ele>46.3</ele>
    <time>2020-06-14T07:01:34Z</time>
   </trkpt>
   <trkpt lat="51.1981380" lon="5.4686510">
    <ele>46.2</ele>
    <time>2020-06-14T07:01:35Z</time>
   </trkpt>
   <trkpt lat="51.1981720" lon="5.4685130">
    <ele>46.1</ele>
    <time>2020-06-14T07:01:36Z</time>
   </trkpt>
   <trkpt lat="51.1982030" lon="5.4683820">
    <ele>46.0</ele>
    <time>2020-06-14T07:01:37Z</time>
   </trkpt>
   <trkpt lat="51.1982300" lon="5.4682420">
    <ele>45.9</ele>
    <time>2020-06-14T07:01:38Z</time>
   </trkpt>
   <trkpt lat="51.1982620" lon="5.4681000">
    <ele>45.9</ele>
    <time>2020-06-14T07:01:39Z</time>
   </trkpt>
   <trkpt lat="51.1982880" lon="5.4679770">
    <ele>45.8</ele>
    <time>2020-06-14T07:01:40Z</time>
   </trkpt>
   <trkpt lat="51.1982790" lon="5.4678550">
    <ele>45.8</ele>
    <time>2020-06-14T07:01:41Z</time>
   </trkpt>
   <trkpt lat="51.1982980" lon="5.4677530">
    <ele>45.8</ele>
    <time>2020-06-14T07:01:42Z</time>
   </trkpt>
   <trkpt lat="51.1983130" lon="5.4676570">
    <ele>45.8</ele>
    <time>2020-06-14T07:01:43Z</time>
   </trkpt>
   <trkpt lat="51.1983290" lon="5.4675560">
    <ele>45.8</ele>
    <time>2020-06-14T07:01:44Z</time>
   </trkpt>
   <trkpt lat="51.1983490" lon="5.4674500">
    <ele>45.8</ele>
    <time>2020-06-14T07:01:45Z</time>
   </trkpt>
   <trkpt lat="51.1983700" lon="5.4673480">
    <ele>45.9</ele>
    <time>2020-06-14T07:01:46Z</time>
   </trkpt>
   <trkpt lat="51.1983910" lon="5.4672420">
    <ele>45.9</ele>
    <time>2020-06-14T07:01:47Z</time>
   </trkpt>
   <trkpt lat="51.1984110" lon="5.4671360">
    <ele>45.9</ele>
    <time>2020-06-14T07:01:48Z</time>
   </trkpt>
   <trkpt lat="51.1984320" lon="5.4670300">
    <ele>46.0</ele>
    <time>2020-06-14T07:01:49Z</time>
   </trkpt>
   <trkpt lat="51.1984520" lon="5.4669240">
    <ele>46.0</ele>
    <time>2020-06-14T07:01:50Z</time>
   </trkpt>
   <trkpt lat="51.1984720" lon="5.4668200">
    <ele>46.0</ele>
    <time>2020-06-14T07:01:51Z</time>
   </trkpt>
   <trkpt lat="51.1984930" lon="5.4667140">
    <ele>46.0</ele>
    <time>2020-06-14T07:01:52Z</time>
   </trkpt>
   <trkpt lat="51.1985140" lon="5.4666120">
    <ele>46.1</ele>
    <time>2020-06-14T07:01:53Z</time>
   </trkpt>
   <trkpt lat="51.1985340" lon="5.4665140">
    <ele>46.1</ele>
    <time>2020-06-14T07:01:54Z</time>
   </trkpt>
   <trkpt lat="51.1985520" lon="5.4664210">
    <ele>46.2</ele>
    <time>2020-06-14T07:01:55Z</time>
   </trkpt>
   <trkpt lat="51.1985700" lon="5.4663320">
    <ele>46.2</ele>
    <time>2020-06-14T07:01:56Z</time>
   </trkpt>
   <trkpt lat="51.1985840" lon="5.4662530">
    <ele>46.3</ele>
    <time>2020-06-14T07:01:57Z</time>
   </trkpt>
   <trkpt lat="51.1985980" lon="5.4661800">
    <ele>46.4</ele>
    <time>2020-06-14T07:01:58Z</time>
   </trkpt>
   <trkpt lat="51.1986130" lon="5.4661070">
    <ele>46.4</ele>
    <time>2020-06-14T07:01:59Z</time>
   </trkpt>
   <trkpt lat="51.1986270" lon="5.4660390">
    <ele>46.5</ele>
    <time>2020-06-14T07:02:00Z</time>
   </trkpt>
   <trkpt lat="51.1986390" lon="5.4659740">
    <ele>46.6</ele>
    <time>2020-06-14T07:02:01Z</time>
   </trkpt>
   <trkpt lat="51.1986470" lon="5.4659170">
    <ele>46.6</ele>
    <time>2020-06-14T07:02:02Z</time>
   </trkpt>
   <trkpt lat="51.1986560" lon="5.4658740">
    <ele>46.7</ele>
    <time>2020-06-14T07:02:03Z</time>
   </trkpt>
   <trkpt lat="51.1986680" lon="5.4658190">
    <ele>46.7</ele>
    <time>2020-06-14T07:02:04Z</time>
   </trkpt>
   <trkpt lat="51.1986720" lon="5.4658040">
    <ele>46.8</ele>
    <time>2020-06-14T07:02:05Z</time>
   </trkpt>
   <trkpt lat="51.1986790" lon="5.4657700">
    <ele>46.8</ele>
    <time>2020-06-14T07:02:06Z</time>
   </trkpt>
   <trkpt lat="51.1986820" lon="5.4657570">
    <ele>46.8</ele>
    <time>2020-06-14T07:02:07Z</time>
   </trkpt>
   <trkpt lat="51.1986840" lon="5.4657450">
    <ele>46.8</ele>
    <time>2020-06-14T07:02:08Z</time>
   </trkpt>
   <trkpt lat="51.1986900" lon="5.4657270">
    <ele>46.9</ele>
    <time>2020-06-14T07:02:09Z</time>
   </trkpt>
   <trkpt lat="51.1986940" lon="5.4657110">
    <ele>46.9</ele>
    <time>2020-06-14T07:02:10Z</time>
   </trkpt>
   <trkpt lat="51.1986970" lon="5.4657020">
    <ele>46.9</ele>
    <time>2020-06-14T07:02:11Z</time>
   </trkpt>
   <trkpt lat="51.1987000" lon="5.4657010">
    <ele>46.9</ele>
    <time>2020-06-14T07:02:12Z</time>
   </trkpt>
   <trkpt lat="51.1987010" lon="5.4657020">
    <ele>46.9</ele>
    <time>2020-06-14T07:02:13Z</time>
   </trkpt>
   <trkpt lat="51.1987030" lon="5.4656980">
    <ele>46.9</ele>
    <time>2020-06-14T07:02:14Z</time>
   </trkpt>
   <trkpt lat="51.1987060" lon="5.4656950">
    <ele>46.9</ele>
    <time>2020-06-14T07:02:15Z</time>
   </trkpt>
   <trkpt lat="51.1987120" lon="5.4656970">
    <ele>46.9</ele>
    <time>2020-06-14T07:02:16Z</time>
   </trkpt>
   <trkpt lat="51.1987160" lon="5.4656940">
    <ele>47.0</ele>
    <time>2020-06-14T07:02:17Z</time>
   </trkpt>
   <trkpt lat="51.1987230" lon="5.4656840">
    <ele>47.0</ele>
    <time>2020-06-14T07:02:18Z</time>
   </trkpt>
   <trkpt lat="51.1987320" lon="5.4656700">
    <ele>47.0</ele>
    <time>2020-06-14T07:02:19Z</time>
   </trkpt>
   <trkpt lat="51.1987390" lon="5.4656580">
    <ele>47.0</ele>
    <time>2020-06-14T07:02:20Z</time>
   </trkpt>
   <trkpt lat="51.1987460" lon="5.4656420">
    <ele>47.1</ele>
    <time>2020-06-14T07:02:21Z</time>
   </trkpt>
   <trkpt lat="51.1987670" lon="5.4656120">
    <ele>47.1</ele>
    <time>2020-06-14T07:02:22Z</time>
   </trkpt>
   <trkpt lat="51.1987730" lon="5.4656010">
    <ele>47.1</ele>
    <time>2020-06-14T07:02:23Z</time>
   </trkpt>
   <trkpt lat="51.1987880" lon="5.4655490">
    <ele>47.2</ele>
    <time>2020-06-14T07:02:24Z</time>
   </trkpt>
   <trkpt lat="51.1987930" lon="5.4655300">
    <ele>47.2</ele>
    <time>2020-06-14T07:02:25Z</time>
   </trkpt>
   <trkpt lat="51.1987910" lon="5.4654870">
    <ele>47.3</ele>
    <time>2020-06-14T07:02:26Z</time>
   </trkpt>
   <trkpt lat="51.1987880" lon="5.4654350">
    <ele>47.2</ele>
    <time>2020-06-14T07:02:27Z</time>
   </trkpt>
   <trkpt lat="51.1987870" lon="5.4654190">
    <ele>47.2</ele>
    <time>2020-06-14T07:02:28Z</time>
   </trkpt>
   <trkpt lat="51.1987830" lon="5.4653760">
    <ele>47.2</ele>
    <time>2020-06-14T07:02:29Z</time>
   </trkpt>
   <trkpt lat="51.1987890" lon="5.4653170">
    <ele>47.1</ele>
    <time>2020-06-14T07:02:30Z</time>
   </trkpt>
   <trkpt lat="51.1987930" lon="5.4652490">
    <ele>46.9</ele>
    <time>2020-06-14T07:02:31Z</time>
   </trkpt>
   <trkpt lat="51.1988020" lon="5.4651750">
    <ele>46.7</ele>
    <time>2020-06-14T07:02:32Z</time>
   </trkpt>
   <trkpt lat="51.1988130" lon="5.4651060">
    <ele>46.6</ele>
    <time>2020-06-14T07:02:33Z</time>
   </trkpt>
   <trkpt lat="51.1988400" lon="5.4650380">
    <ele>46.5</ele>
    <time>2020-06-14T07:02:34Z</time>
   </trkpt>
   <trkpt lat="51.1988720" lon="5.4649590">
    <ele>46.5</ele>
    <time>2020-06-14T07:02:35Z</time>
   </trkpt>
   <trkpt lat="51.1988960" lon="5.4648640">
    <ele>46.4</ele>
    <time>2020-06-14T07:02:36Z</time>
   </trkpt>
   <trkpt lat="51.1989190" lon="5.4647630">
    <ele>46.3</ele>
    <time>2020-06-14T07:02:37Z</time>
   </trkpt>
   <trkpt lat="51.1989390" lon="5.4646520">
    <ele>46.2</ele>
    <time>2020-06-14T07:02:38Z</time>
   </trkpt>
   <trkpt lat="51.1989600" lon="5.4645370">
    <ele>46.1</ele>
    <time>2020-06-14T07:02:39Z</time>
   </trkpt>
   <trkpt lat="51.1989820" lon="5.4644200">
    <ele>46.0</ele>
    <time>2020-06-14T07:02:40Z</time>
   </trkpt>
   <trkpt lat="51.1990040" lon="5.4642990">
    <ele>46.0</ele>
    <time>2020-06-14T07:02:41Z</time>
   </trkpt>
   <trkpt lat="51.1990270" lon="5.4641770">
    <ele>45.9</ele>
    <time>2020-06-14T07:02:42Z</time>
   </trkpt>
   <trkpt lat="51.1990480" lon="5.4640530">
    <ele>45.9</ele>
    <time>2020-06-14T07:02:43Z</time>
   </trkpt>
   <trkpt lat="51.1990720" lon="5.4639240">
    <ele>45.8</ele>
    <time>2020-06-14T07:02:44Z</time>
   </trkpt>
   <trkpt lat="51.1991010" lon="5.4638030">
    <ele>45.8</ele>
    <time>2020-06-14T07:02:45Z</time>
   </trkpt>
   <trkpt lat="51.1991280" lon="5.4636690">
    <ele>45.7</ele>
    <time>2020-06-14T07:02:46Z</time>
   </trkpt>
   <trkpt lat="51.1991540" lon="5.4635420">
    <ele>45.7</ele>
    <time>2020-06-14T07:02:47Z</time>
   </trkpt>
   <trkpt lat="51.1991780" lon="5.4634060">
    <ele>45.7</ele>
    <time>2020-06-14T07:02:48Z</time>
   </trkpt>
   <trkpt lat="51.1992040" lon="5.4632710">
    <ele>45.7</ele>
    <time>2020-06-14T07:02:49Z</time>
   </trkpt>
   <trkpt lat="51.1992300" lon="5.4631350">
    <ele>45.6</ele>
    <time>2020-06-14T07:02:50Z</time>
   </trkpt>
   <trkpt lat="51.1992590" lon="5.4630070">
    <ele>45.6</ele>
    <time>2020-06-14T07:02:51Z</time>
   </trkpt>
   <trkpt lat="51.1992850" lon="5.4628670">
    <ele>45.5</ele>
    <time>2020-06-14T07:02:52Z</time>
   </trkpt>
   <trkpt lat="51.1993080" lon="5.4627300">
    <ele>45.5</ele>
    <time>2020-06-14T07:02:53Z</time>
   </trkpt>
   <trkpt lat="51.1993340" lon="5.4625990">
    <ele>45.5</ele>
    <time>2020-06-14T07:02:54Z</time>
   </trkpt>
   <trkpt lat="51.1993620" lon="5.4624740">
    <ele>45.5</ele>
    <time>2020-06-14T07:02:55Z</time>
   </trkpt>
   <trkpt lat="51.1993850" lon="5.4623370">
    <ele>45.5</ele>
    <time>2020-06-14T07:02:56Z</time>
   </trkpt>
   <trkpt lat="51.1994120" lon="5.4622080">
    <ele>45.5</ele>
    <time>2020-06-14T07:02:57Z</time>
   </trkpt>
   <trkpt lat="51.1994380" lon="5.4620680">
    <ele>45.5</ele>
    <time>2020-06-14T07:02:58Z</time>
   </trkpt>
   <trkpt lat="51.1994650" lon="5.4619340">
    <ele>45.5</ele>
    <time>2020-06-14T07:02:59Z</time>
   </trkpt>
   <trkpt lat="51.1994900" lon="5.4618130">
    <ele>45.5</ele>
    <time>2020-06-14T07:03:00Z</time>
   </trkpt>
   <trkpt lat="51.1995160" lon="5.4616850">
    <ele>45.5</ele>
    <time>2020-06-14T07:03:01Z</time>
   </trkpt>
   <trkpt lat="51.1995450" lon="5.4615580">
    <ele>45.5</ele>
    <time>2020-06-14T07:03:02Z</time>
   </trkpt>
   <trkpt lat="51.1995680" lon="5.4614260">
    <ele>45.5</ele>
    <time>2020-06-14T07:03:03Z</time>
   </trkpt>
   <trkpt lat="51.1995920" lon="5.4612950">
    <ele>45.6</ele>
    <time>2020-06-14T07:03:04Z</time>
   </trkpt>
   <trkpt lat="51.1996130" lon="5.4611870">
    <ele>45.6</ele>
    <time>2020-06-14T07:03:05Z</time>
   </trkpt>
   <trkpt lat="51.1996410" lon="5.4610610">
    <ele>45.6</ele>
    <time>2020-06-14T07:03:06Z</time>
   </trkpt>
   <trkpt lat="51.1996650" lon="5.4609470">
    <ele>45.6</ele>
    <time>2020-06-14T07:03:07Z</time>
   </trkpt>
   <trkpt lat="51.1996930" lon="5.4608280">
    <ele>45.6</ele>
    <time>2020-06-14T07:03:08Z</time>
   </trkpt>
   <trkpt lat="51.1997250" lon="5.4607050">
    <ele>45.6</ele>
    <time>2020-06-14T07:03:09Z</time>
   </trkpt>
   <trkpt lat="51.1997500" lon="5.4605800">
    <ele>45.7</ele>
    <time>2020-06-14T07:03:10Z</time>
   </trkpt>
   <trkpt lat="51.1997730" lon="5.4604630">
    <ele>45.7</ele>
    <time>2020-06-14T07:03:11Z</time>
   </trkpt>
   <trkpt lat="51.1997990" lon="5.4603480">
    <ele>45.7</ele>
    <time>2020-06-14T07:03:12Z</time>
   </trkpt>
   <trkpt lat="51.1998230" lon="5.4602340">
    <ele>45.6</ele>
    <time>2020-06-14T07:03:13Z</time>
   </trkpt>
   <trkpt lat="51.1998450" lon="5.4601260">
    <ele>45.6</ele>
    <time>2020-06-14T07:03:14Z</time>
   </trkpt>
   <trkpt lat="51.1998670" lon="5.4600210">
    <ele>45.5</ele>
    <time>2020-06-14T07:03:15Z</time>
   </trkpt>
   <trkpt lat="51.1998970" lon="5.4599210">
    <ele>45.5</ele>
    <time>2020-06-14T07:03:16Z</time>
   </trkpt>
   <trkpt lat="51.1999260" lon="5.4598220">
    <ele>45.4</ele>
    <time>2020-06-14T07:03:17Z</time>
   </trkpt>
   <trkpt lat="51.1999500" lon="5.4597110">
    <ele>45.4</ele>
    <time>2020-06-14T07:03:18Z</time>
   </trkpt>
   <trkpt lat="51.1999850" lon="5.4596090">
    <ele>45.3</ele>
    <time>2020-06-14T07:03:19Z</time>
   </trkpt>
   <trkpt lat="51.2000110" lon="5.4595060">
    <ele>45.3</ele>
    <time>2020-06-14T07:03:20Z</time>
   </trkpt>
   <trkpt lat="51.2000340" lon="5.4594040">
    <ele>45.2</ele>
    <time>2020-06-14T07:03:21Z</time>
   </trkpt>
   <trkpt lat="51.2000570" lon="5.4592960">
    <ele>45.2</ele>
    <time>2020-06-14T07:03:22Z</time>
   </trkpt>
   <trkpt lat="51.2000800" lon="5.4591910">
    <ele>45.1</ele>
    <time>2020-06-14T07:03:23Z</time>
   </trkpt>
   <trkpt lat="51.2001070" lon="5.4590860">
    <ele>45.1</ele>
    <time>2020-06-14T07:03:24Z</time>
   </trkpt>
   <trkpt lat="51.2001340" lon="5.4589840">
    <ele>45.0</ele>
    <time>2020-06-14T07:03:25Z</time>
   </trkpt>
   <trkpt lat="51.2001530" lon="5.4588790">
    <ele>44.9</ele>
    <time>2020-06-14T07:03:26Z</time>
   </trkpt>
   <trkpt lat="51.2001740" lon="5.4587700">
    <ele>44.8</ele>
    <time>2020-06-14T07:03:27Z</time>
   </trkpt>
   <trkpt lat="51.2001980" lon="5.4586600">
    <ele>44.7</ele>
    <time>2020-06-14T07:03:28Z</time>
   </trkpt>
   <trkpt lat="51.2002200" lon="5.4585550">
    <ele>44.7</ele>
    <time>2020-06-14T07:03:29Z</time>
   </trkpt>
   <trkpt lat="51.2002440" lon="5.4584530">
    <ele>44.7</ele>
    <time>2020-06-14T07:03:30Z</time>
   </trkpt>
   <trkpt lat="51.2002690" lon="5.4583540">
    <ele>44.6</ele>
    <time>2020-06-14T07:03:31Z</time>
   </trkpt>
   <trkpt lat="51.2002930" lon="5.4582580">
    <ele>44.6</ele>
    <time>2020-06-14T07:03:32Z</time>
   </trkpt>
   <trkpt lat="51.2003190" lon="5.4581620">
    <ele>44.6</ele>
    <time>2020-06-14T07:03:33Z</time>
   </trkpt>
   <trkpt lat="51.2003440" lon="5.4580680">
    <ele>44.6</ele>
    <time>2020-06-14T07:03:34Z</time>
   </trkpt>
   <trkpt lat="51.2003700" lon="5.4579760">
    <ele>44.6</ele>
    <time>2020-06-14T07:03:35Z</time>
   </trkpt>
   <trkpt lat="51.2003930" lon="5.4578840">
    <ele>44.6</ele>
    <time>2020-06-14T07:03:36Z</time>
   </trkpt>
   <trkpt lat="51.2004130" lon="5.4577870">
    <ele>44.4</ele>
    <time>2020-06-14T07:03:37Z</time>
   </trkpt>
   <trkpt lat="51.2004350" lon="5.4576900">
    <ele>44.3</ele>
    <time>2020-06-14T07:03:38Z</time>
   </trkpt>
   <trkpt lat="51.2004610" lon="5.4575940">
    <ele>44.2</ele>
    <time>2020-06-14T07:03:39Z</time>
   </trkpt>
   <trkpt lat="51.2004870" lon="5.4574980">
    <ele>44.2</ele>
    <time>2020-06-14T07:03:40Z</time>
   </trkpt>
   <trkpt lat="51.2005090" lon="5.4573980">
    <ele>44.1</ele>
    <time>2020-06-14T07:03:41Z</time>
   </trkpt>
   <trkpt lat="51.2005380" lon="5.4572990">
    <ele>44.1</ele>
    <time>2020-06-14T07:03:42Z</time>
   </trkpt>
   <trkpt lat="51.2005610" lon="5.4571980">
    <ele>44.1</ele>
    <time>2020-06-14T07:03:43Z</time>
   </trkpt>
   <trkpt lat="51.2005850" lon="5.4570990">
    <ele>44.0</ele>
    <time>2020-06-14T07:03:44Z</time>
   </trkpt>
   <trkpt lat="51.2006100" lon="5.4569980">
    <ele>44.0</ele>
    <time>2020-06-14T07:03:45Z</time>
   </trkpt>
   <trkpt lat="51.2006350" lon="5.4568980">
    <ele>43.9</ele>
    <time>2020-06-14T07:03:46Z</time>
   </trkpt>
   <trkpt lat="51.2006570" lon="5.4567980">
    <ele>43.9</ele>
    <time>2020-06-14T07:03:47Z</time>
   </trkpt>
   <trkpt lat="51.2006760" lon="5.4566950">
    <ele>43.9</ele>
    <time>2020-06-14T07:03:48Z</time>
   </trkpt>
   <trkpt lat="51.2007000" lon="5.4565950">
    <ele>43.9</ele>
    <time>2020-06-14T07:03:49Z</time>
   </trkpt>
   <trkpt lat="51.2007250" lon="5.4564980">
    <ele>43.9</ele>
    <time>2020-06-14T07:03:50Z</time>
   </trkpt>
   <trkpt lat="51.2007550" lon="5.4564010">
    <ele>43.9</ele>
    <time>2020-06-14T07:03:52Z</time>
   </trkpt>
   <trkpt lat="51.2007780" lon="5.4562970">
    <ele>43.9</ele>
    <time>2020-06-14T07:03:53Z</time>
   </trkpt>
   <trkpt lat="51.2008020" lon="5.4561950">
    <ele>43.9</ele>
    <time>2020-06-14T07:03:54Z</time>
   </trkpt>
   <trkpt lat="51.2008220" lon="5.4560920">
    <ele>43.9</ele>
    <time>2020-06-14T07:03:55Z</time>
   </trkpt>
   <trkpt lat="51.2008400" lon="5.4559910">
    <ele>43.9</ele>
    <time>2020-06-14T07:03:56Z</time>
   </trkpt>
   <trkpt lat="51.2008580" lon="5.4558870">
    <ele>43.9</ele>
    <time>2020-06-14T07:03:57Z</time>
   </trkpt>
   <trkpt lat="51.2008710" lon="5.4557810">
    <ele>43.8</ele>
    <time>2020-06-14T07:03:58Z</time>
   </trkpt>
   <trkpt lat="51.2008790" lon="5.4556750">
    <ele>43.8</ele>
    <time>2020-06-14T07:03:59Z</time>
   </trkpt>
   <trkpt lat="51.2008850" lon="5.4555680">
    <ele>43.8</ele>
    <time>2020-06-14T07:04:00Z</time>
   </trkpt>
   <trkpt lat="51.2008930" lon="5.4554590">
    <ele>43.8</ele>
    <time>2020-06-14T07:04:01Z</time>
   </trkpt>
   <trkpt lat="51.2008970" lon="5.4553500">
    <ele>43.8</ele>
    <time>2020-06-14T07:04:02Z</time>
   </trkpt>
   <trkpt lat="51.2009070" lon="5.4552430">
    <ele>43.9</ele>
    <time>2020-06-14T07:04:03Z</time>
   </trkpt>
   <trkpt lat="51.2009160" lon="5.4551390">
    <ele>43.9</ele>
    <time>2020-06-14T07:04:04Z</time>
   </trkpt>
   <trkpt lat="51.2009280" lon="5.4550320">
    <ele>43.9</ele>
    <time>2020-06-14T07:04:05Z</time>
   </trkpt>
   <trkpt lat="51.2009400" lon="5.4549280">
    <ele>43.9</ele>
    <time>2020-06-14T07:04:06Z</time>
   </trkpt>
   <trkpt lat="51.2009480" lon="5.4548250">
    <ele>43.9</ele>
    <time>2020-06-14T07:04:07Z</time>
   </trkpt>
   <trkpt lat="51.2009520" lon="5.4547210">
    <ele>43.8</ele>
    <time>2020-06-14T07:04:08Z</time>
   </trkpt>
   <trkpt lat="51.2009580" lon="5.4546180">
    <ele>43.8</ele>
    <time>2020-06-14T07:04:09Z</time>
   </trkpt>
   <trkpt lat="51.2009650" lon="5.4545160">
    <ele>43.8</ele>
    <time>2020-06-14T07:04:10Z</time>
   </trkpt>
   <trkpt lat="51.2009730" lon="5.4544100">
    <ele>43.9</ele>
    <time>2020-06-14T07:04:11Z</time>
   </trkpt>
   <trkpt lat="51.2009800" lon="5.4543040">
    <ele>43.9</ele>
    <time>2020-06-14T07:04:12Z</time>
   </trkpt>
   <trkpt lat="51.2009880" lon="5.4542000">
    <ele>43.9</ele>
    <time>2020-06-14T07:04:13Z</time>
   </trkpt>
   <trkpt lat="51.2009930" lon="5.4540990">
    <ele>43.9</ele>
    <time>2020-06-14T07:04:14Z</time>
   </trkpt>
   <trkpt lat="51.2010010" lon="5.4539970">
    <ele>43.9</ele>
    <time>2020-06-14T07:04:15Z</time>
   </trkpt>
   <trkpt lat="51.2010110" lon="5.4538900">
    <ele>43.8</ele>
    <time>2020-06-14T07:04:16Z</time>
   </trkpt>
   <trkpt lat="51.2010160" lon="5.4537850">
    <ele>43.8</ele>
    <time>2020-06-14T07:04:17Z</time>
   </trkpt>
   <trkpt lat="51.2010220" lon="5.4536820">
    <ele>43.8</ele>
    <time>2020-06-14T07:04:18Z</time>
   </trkpt>
   <trkpt lat="51.2010290" lon="5.4535790">
    <ele>43.8</ele>
    <time>2020-06-14T07:04:19Z</time>
   </trkpt>
   <trkpt lat="51.2010360" lon="5.4534740">
    <ele>43.8</ele>
    <time>2020-06-14T07:04:20Z</time>
   </trkpt>
   <trkpt lat="51.2010430" lon="5.4533700">
    <ele>43.8</ele>
    <time>2020-06-14T07:04:21Z</time>
   </trkpt>
   <trkpt lat="51.2010500" lon="5.4532670">
    <ele>43.8</ele>
    <time>2020-06-14T07:04:22Z</time>
   </trkpt>
   <trkpt lat="51.2010550" lon="5.4531640">
    <ele>43.8</ele>
    <time>2020-06-14T07:04:23Z</time>
   </trkpt>
   <trkpt lat="51.2010590" lon="5.4530630">
    <ele>43.8</ele>
    <time>2020-06-14T07:04:24Z</time>
   </trkpt>
   <trkpt lat="51.2010690" lon="5.4529660">
    <ele>43.7</ele>
    <time>2020-06-14T07:04:25Z</time>
   </trkpt>
   <trkpt lat="51.2010740" lon="5.4528680">
    <ele>43.7</ele>
    <time>2020-06-14T07:04:26Z</time>
   </trkpt>
   <trkpt lat="51.2010790" lon="5.4527670">
    <ele>43.7</ele>
    <time>2020-06-14T07:04:27Z</time>
   </trkpt>
   <trkpt lat="51.2010860" lon="5.4526640">
    <ele>43.7</ele>
    <time>2020-06-14T07:04:28Z</time>
   </trkpt>
   <trkpt lat="51.2010940" lon="5.4525610">
    <ele>43.7</ele>
    <time>2020-06-14T07:04:29Z</time>
   </trkpt>
   <trkpt lat="51.2011140" lon="5.4524620">
    <ele>43.6</ele>
    <time>2020-06-14T07:04:30Z</time>
   </trkpt>
   <trkpt lat="51.2011410" lon="5.4523630">
    <ele>43.5</ele>
    <time>2020-06-14T07:04:31Z</time>
   </trkpt>
   <trkpt lat="51.2011680" lon="5.4522610">
    <ele>43.5</ele>
    <time>2020-06-14T07:04:32Z</time>
   </trkpt>
   <trkpt lat="51.2012040" lon="5.4521640">
    <ele>43.4</ele>
    <time>2020-06-14T07:04:33Z</time>
   </trkpt>
   <trkpt lat="51.2012420" lon="5.4520650">
    <ele>43.4</ele>
    <time>2020-06-14T07:04:34Z</time>
   </trkpt>
   <trkpt lat="51.2012830" lon="5.4519710">
    <ele>43.6</ele>
    <time>2020-06-14T07:04:35Z</time>
   </trkpt>
   <trkpt lat="51.2013310" lon="5.4518870">
    <ele>43.6</ele>
    <time>2020-06-14T07:04:36Z</time>
   </trkpt>
   <trkpt lat="51.2013810" lon="5.4518030">
    <ele>43.6</ele>
    <time>2020-06-14T07:04:37Z</time>
   </trkpt>
   <trkpt lat="51.2014340" lon="5.4517230">
    <ele>43.6</ele>
    <time>2020-06-14T07:04:38Z</time>
   </trkpt>
   <trkpt lat="51.2014900" lon="5.4516500">
    <ele>43.7</ele>
    <time>2020-06-14T07:04:39Z</time>
   </trkpt>
   <trkpt lat="51.2015470" lon="5.4515860">
    <ele>43.7</ele>
    <time>2020-06-14T07:04:40Z</time>
   </trkpt>
   <trkpt lat="51.2016010" lon="5.4515240">
    <ele>43.7</ele>
    <time>2020-06-14T07:04:41Z</time>
   </trkpt>
   <trkpt lat="51.2016590" lon="5.4514740">
    <ele>43.8</ele>
    <time>2020-06-14T07:04:42Z</time>
   </trkpt>
   <trkpt lat="51.2017170" lon="5.4514170">
    <ele>43.8</ele>
    <time>2020-06-14T07:04:43Z</time>
   </trkpt>
   <trkpt lat="51.2017720" lon="5.4513600">
    <ele>43.9</ele>
    <time>2020-06-14T07:04:44Z</time>
   </trkpt>
   <trkpt lat="51.2018280" lon="5.4513000">
    <ele>43.9</ele>
    <time>2020-06-14T07:04:45Z</time>
   </trkpt>
   <trkpt lat="51.2018860" lon="5.4512400">
    <ele>44.0</ele>
    <time>2020-06-14T07:04:46Z</time>
   </trkpt>
   <trkpt lat="51.2019430" lon="5.4511860">
    <ele>44.0</ele>
    <time>2020-06-14T07:04:47Z</time>
   </trkpt>
   <trkpt lat="51.2020000" lon="5.4511330">
    <ele>44.1</ele>
    <time>2020-06-14T07:04:48Z</time>
   </trkpt>
   <trkpt lat="51.2020570" lon="5.4510790">
    <ele>44.1</ele>
    <time>2020-06-14T07:04:49Z</time>
   </trkpt>
   <trkpt lat="51.2021130" lon="5.4510220">
    <ele>44.2</ele>
    <time>2020-06-14T07:04:50Z</time>
   </trkpt>
   <trkpt lat="51.2021680" lon="5.4509620">
    <ele>44.2</ele>
    <time>2020-06-14T07:04:51Z</time>
   </trkpt>
   <trkpt lat="51.2022220" lon="5.4509060">
    <ele>44.3</ele>
    <time>2020-06-14T07:04:52Z</time>
   </trkpt>
   <trkpt lat="51.2022750" lon="5.4508490">
    <ele>44.3</ele>
    <time>2020-06-14T07:04:53Z</time>
   </trkpt>
   <trkpt lat="51.2023290" lon="5.4507930">
    <ele>44.4</ele>
    <time>2020-06-14T07:04:54Z</time>
   </trkpt>
   <trkpt lat="51.2023810" lon="5.4507350">
    <ele>44.4</ele>
    <time>2020-06-14T07:04:55Z</time>
   </trkpt>
   <trkpt lat="51.2024320" lon="5.4506800">
    <ele>44.5</ele>
    <time>2020-06-14T07:04:56Z</time>
   </trkpt>
   <trkpt lat="51.2024790" lon="5.4506220">
    <ele>44.5</ele>
    <time>2020-06-14T07:04:57Z</time>
   </trkpt>
   <trkpt lat="51.2025260" lon="5.4505650">
    <ele>44.5</ele>
    <time>2020-06-14T07:04:58Z</time>
   </trkpt>
   <trkpt lat="51.2025720" lon="5.4505040">
    <ele>44.5</ele>
    <time>2020-06-14T07:04:59Z</time>
   </trkpt>
   <trkpt lat="51.2026210" lon="5.4504440">
    <ele>44.6</ele>
    <time>2020-06-14T07:05:00Z</time>
   </trkpt>
   <trkpt lat="51.2026690" lon="5.4503740">
    <ele>44.7</ele>
    <time>2020-06-14T07:05:01Z</time>
   </trkpt>
   <trkpt lat="51.2027160" lon="5.4503060">
    <ele>44.6</ele>
    <time>2020-06-14T07:05:02Z</time>
   </trkpt>
   <trkpt lat="51.2027600" lon="5.4502280">
    <ele>44.5</ele>
    <time>2020-06-14T07:05:03Z</time>
   </trkpt>
   <trkpt lat="51.2027950" lon="5.4501340">
    <ele>44.4</ele>
    <time>2020-06-14T07:05:04Z</time>
   </trkpt>
   <trkpt lat="51.2028180" lon="5.4500280">
    <ele>44.3</ele>
    <time>2020-06-14T07:05:05Z</time>
   </trkpt>
   <trkpt lat="51.2028370" lon="5.4499160">
    <ele>44.3</ele>
    <time>2020-06-14T07:05:06Z</time>
   </trkpt>
   <trkpt lat="51.2028420" lon="5.4498020">
    <ele>44.3</ele>
    <time>2020-06-14T07:05:07Z</time>
   </trkpt>
   <trkpt lat="51.2028360" lon="5.4496880">
    <ele>44.2</ele>
    <time>2020-06-14T07:05:08Z</time>
   </trkpt>
   <trkpt lat="51.2028120" lon="5.4495820">
    <ele>44.2</ele>
    <time>2020-06-14T07:05:09Z</time>
   </trkpt>
   <trkpt lat="51.2027950" lon="5.4494730">
    <ele>44.2</ele>
    <time>2020-06-14T07:05:10Z</time>
   </trkpt>
   <trkpt lat="51.2027740" lon="5.4493700">
    <ele>44.2</ele>
    <time>2020-06-14T07:05:11Z</time>
   </trkpt>
   <trkpt lat="51.2027550" lon="5.4492630">
    <ele>44.2</ele>
    <time>2020-06-14T07:05:12Z</time>
   </trkpt>
   <trkpt lat="51.2027310" lon="5.4491570">
    <ele>44.2</ele>
    <time>2020-06-14T07:05:13Z</time>
   </trkpt>
   <trkpt lat="51.2027080" lon="5.4490490">
    <ele>44.2</ele>
    <time>2020-06-14T07:05:14Z</time>
   </trkpt>
   <trkpt lat="51.2026850" lon="5.4489430">
    <ele>44.2</ele>
    <time>2020-06-14T07:05:15Z</time>
   </trkpt>
   <trkpt lat="51.2026640" lon="5.4488370">
    <ele>44.2</ele>
    <time>2020-06-14T07:05:16Z</time>
   </trkpt>
   <trkpt lat="51.2026460" lon="5.4487310">
    <ele>44.2</ele>
    <time>2020-06-14T07:05:17Z</time>
   </trkpt>
   <trkpt lat="51.2026220" lon="5.4486280">
    <ele>44.2</ele>
    <time>2020-06-14T07:05:18Z</time>
   </trkpt>
   <trkpt lat="51.2026010" lon="5.4485200">
    <ele>44.3</ele>
    <time>2020-06-14T07:05:19Z</time>
   </trkpt>
   <trkpt lat="51.2025760" lon="5.4484110">
    <ele>44.3</ele>
    <time>2020-06-14T07:05:20Z</time>
   </trkpt>
   <trkpt lat="51.2025560" lon="5.4483040">
    <ele>44.3</ele>
    <time>2020-06-14T07:05:21Z</time>
   </trkpt>
   <trkpt lat="51.2025350" lon="5.4481980">
    <ele>44.3</ele>
    <time>2020-06-14T07:05:22Z</time>
   </trkpt>
   <trkpt lat="51.2025170" lon="5.4480910">
    <ele>44.3</ele>
    <time>2020-06-14T07:05:23Z</time>
   </trkpt>
   <trkpt lat="51.2024940" lon="5.4479840">
    <ele>44.3</ele>
    <time>2020-06-14T07:05:24Z</time>
   </trkpt>
   <trkpt lat="51.2024710" lon="5.4478780">
    <ele>44.3</ele>
    <time>2020-06-14T07:05:25Z</time>
   </trkpt>
   <trkpt lat="51.2024510" lon="5.4477740">
    <ele>44.3</ele>
    <time>2020-06-14T07:05:26Z</time>
   </trkpt>
   <trkpt lat="51.2024320" lon="5.4476680">
    <ele>44.3</ele>
    <time>2020-06-14T07:05:27Z</time>
   </trkpt>
   <trkpt lat="51.2024120" lon="5.4475610">
    <ele>44.3</ele>
    <time>2020-06-14T07:05:28Z</time>
   </trkpt>
   <trkpt lat="51.2023960" lon="5.4474490">
    <ele>44.3</ele>
    <time>2020-06-14T07:05:29Z</time>
   </trkpt>
   <trkpt lat="51.2023850" lon="5.4473370">
    <ele>44.3</ele>
    <time>2020-06-14T07:05:30Z</time>
   </trkpt>
   <trkpt lat="51.2023680" lon="5.4472280">
    <ele>44.3</ele>
    <time>2020-06-14T07:05:31Z</time>
   </trkpt>
   <trkpt lat="51.2023470" lon="5.4471210">
    <ele>44.3</ele>
    <time>2020-06-14T07:05:32Z</time>
   </trkpt>
   <trkpt lat="51.2023320" lon="5.4470130">
    <ele>44.3</ele>
    <time>2020-06-14T07:05:33Z</time>
   </trkpt>
   <trkpt lat="51.2023150" lon="5.4469060">
    <ele>44.3</ele>
    <time>2020-06-14T07:05:34Z</time>
   </trkpt>
   <trkpt lat="51.2023020" lon="5.4468010">
    <ele>44.3</ele>
    <time>2020-06-14T07:05:35Z</time>
   </trkpt>
   <trkpt lat="51.2022930" lon="5.4466970">
    <ele>44.3</ele>
    <time>2020-06-14T07:05:36Z</time>
   </trkpt>
   <trkpt lat="51.2022830" lon="5.4465930">
    <ele>44.4</ele>
    <time>2020-06-14T07:05:37Z</time>
   </trkpt>
   <trkpt lat="51.2022750" lon="5.4464880">
    <ele>44.3</ele>
    <time>2020-06-14T07:05:38Z</time>
   </trkpt>
   <trkpt lat="51.2022650" lon="5.4463830">
    <ele>44.3</ele>
    <time>2020-06-14T07:05:39Z</time>
   </trkpt>
   <trkpt lat="51.2022570" lon="5.4462790">
    <ele>44.3</ele>
    <time>2020-06-14T07:05:40Z</time>
   </trkpt>
   <trkpt lat="51.2022430" lon="5.4461730">
    <ele>44.2</ele>
    <time>2020-06-14T07:05:41Z</time>
   </trkpt>
   <trkpt lat="51.2022320" lon="5.4460640">
    <ele>44.1</ele>
    <time>2020-06-14T07:05:42Z</time>
   </trkpt>
   <trkpt lat="51.2022260" lon="5.4459540">
    <ele>44.0</ele>
    <time>2020-06-14T07:05:43Z</time>
   </trkpt>
   <trkpt lat="51.2022180" lon="5.4458460">
    <ele>44.0</ele>
    <time>2020-06-14T07:05:44Z</time>
   </trkpt>
   <trkpt lat="51.2022110" lon="5.4457350">
    <ele>43.9</ele>
    <time>2020-06-14T07:05:45Z</time>
   </trkpt>
   <trkpt lat="51.2022060" lon="5.4456220">
    <ele>43.9</ele>
    <time>2020-06-14T07:05:46Z</time>
   </trkpt>
   <trkpt lat="51.2022060" lon="5.4455080">
    <ele>43.9</ele>
    <time>2020-06-14T07:05:47Z</time>
   </trkpt>
   <trkpt lat="51.2022060" lon="5.4453960">
    <ele>43.8</ele>
    <time>2020-06-14T07:05:48Z</time>
   </trkpt>
   <trkpt lat="51.2022010" lon="5.4452840">
    <ele>43.8</ele>
    <time>2020-06-14T07:05:49Z</time>
   </trkpt>
   <trkpt lat="51.2022010" lon="5.4451730">
    <ele>43.8</ele>
    <time>2020-06-14T07:05:50Z</time>
   </trkpt>
   <trkpt lat="51.2022040" lon="5.4450640">
    <ele>43.8</ele>
    <time>2020-06-14T07:05:51Z</time>
   </trkpt>
   <trkpt lat="51.2022080" lon="5.4449560">
    <ele>43.8</ele>
    <time>2020-06-14T07:05:52Z</time>
   </trkpt>
   <trkpt lat="51.2022050" lon="5.4448500">
    <ele>43.8</ele>
    <time>2020-06-14T07:05:53Z</time>
   </trkpt>
   <trkpt lat="51.2022090" lon="5.4447420">
    <ele>43.8</ele>
    <time>2020-06-14T07:05:54Z</time>
   </trkpt>
   <trkpt lat="51.2022070" lon="5.4446360">
    <ele>43.8</ele>
    <time>2020-06-14T07:05:55Z</time>
   </trkpt>
   <trkpt lat="51.2021990" lon="5.4445340">
    <ele>43.8</ele>
    <time>2020-06-14T07:05:56Z</time>
   </trkpt>
   <trkpt lat="51.2021870" lon="5.4444370">
    <ele>43.9</ele>
    <time>2020-06-14T07:05:57Z</time>
   </trkpt>
   <trkpt lat="51.2021830" lon="5.4443440">
    <ele>43.9</ele>
    <time>2020-06-14T07:05:58Z</time>
   </trkpt>
   <trkpt lat="51.2021710" lon="5.4442520">
    <ele>43.9</ele>
    <time>2020-06-14T07:05:59Z</time>
   </trkpt>
   <trkpt lat="51.2021610" lon="5.4441610">
    <ele>43.9</ele>
    <time>2020-06-14T07:06:00Z</time>
   </trkpt>
   <trkpt lat="51.2021520" lon="5.4440760">
    <ele>43.9</ele>
    <time>2020-06-14T07:06:01Z</time>
   </trkpt>
   <trkpt lat="51.2021420" lon="5.4439940">
    <ele>43.9</ele>
    <time>2020-06-14T07:06:02Z</time>
   </trkpt>
   <trkpt lat="51.2021350" lon="5.4439160">
    <ele>43.9</ele>
    <time>2020-06-14T07:06:03Z</time>
   </trkpt>
   <trkpt lat="51.2021310" lon="5.4438380">
    <ele>43.9</ele>
    <time>2020-06-14T07:06:04Z</time>
   </trkpt>
   <trkpt lat="51.2021240" lon="5.4437620">
    <ele>43.9</ele>
    <time>2020-06-14T07:06:05Z</time>
   </trkpt>
   <trkpt lat="51.2021170" lon="5.4436890">
    <ele>43.9</ele>
    <time>2020-06-14T07:06:06Z</time>
   </trkpt>
   <trkpt lat="51.2021130" lon="5.4436160">
    <ele>43.8</ele>
    <time>2020-06-14T07:06:07Z</time>
   </trkpt>
   <trkpt lat="51.2021160" lon="5.4435440">
    <ele>43.8</ele>
    <time>2020-06-14T07:06:08Z</time>
   </trkpt>
   <trkpt lat="51.2021530" lon="5.4434900">
    <ele>44.1</ele>
    <time>2020-06-14T07:06:09Z</time>
   </trkpt>
   <trkpt lat="51.2021750" lon="5.4434250">
    <ele>44.0</ele>
    <time>2020-06-14T07:06:10Z</time>
   </trkpt>
   <trkpt lat="51.2021810" lon="5.4433590">
    <ele>44.0</ele>
    <time>2020-06-14T07:06:11Z</time>
   </trkpt>
   <trkpt lat="51.2021610" lon="5.4432890">
    <ele>43.9</ele>
    <time>2020-06-14T07:06:12Z</time>
   </trkpt>
   <trkpt lat="51.2021130" lon="5.4432370">
    <ele>43.9</ele>
    <time>2020-06-14T07:06:13Z</time>
   </trkpt>
   <trkpt lat="51.2020660" lon="5.4431660">
    <ele>43.9</ele>
    <time>2020-06-14T07:06:14Z</time>
   </trkpt>
   <trkpt lat="51.2020190" lon="5.4430850">
    <ele>43.8</ele>
    <time>2020-06-14T07:06:15Z</time>
   </trkpt>
   <trkpt lat="51.2019770" lon="5.4429980">
    <ele>43.8</ele>
    <time>2020-06-14T07:06:16Z</time>
   </trkpt>
   <trkpt lat="51.2019400" lon="5.4429010">
    <ele>43.8</ele>
    <time>2020-06-14T07:06:17Z</time>
   </trkpt>
   <trkpt lat="51.2019040" lon="5.4428110">
    <ele>43.8</ele>
    <time>2020-06-14T07:06:18Z</time>
   </trkpt>
   <trkpt lat="51.2018630" lon="5.4427340">
    <ele>43.9</ele>
    <time>2020-06-14T07:06:19Z</time>
   </trkpt>
   <trkpt lat="51.2018230" lon="5.4426670">
    <ele>43.9</ele>
    <time>2020-06-14T07:06:20Z</time>
   </trkpt>
   <trkpt lat="51.2017880" lon="5.4425970">
    <ele>43.9</ele>
    <time>2020-06-14T07:06:21Z</time>
   </trkpt>
   <trkpt lat="51.2017610" lon="5.4425240">
    <ele>43.9</ele>
    <time>2020-06-14T07:06:22Z</time>
   </trkpt>
   <trkpt lat="51.2017400" lon="5.4424510">
    <ele>43.9</ele>
    <time>2020-06-14T07:06:23Z</time>
   </trkpt>
   <trkpt lat="51.2017370" lon="5.4423650">
    <ele>43.8</ele>
    <time>2020-06-14T07:06:24Z</time>
   </trkpt>
   <trkpt lat="51.2017560" lon="5.4422730">
    <ele>43.6</ele>
    <time>2020-06-14T07:06:25Z</time>
   </trkpt>
   <trkpt lat="51.2017930" lon="5.4421750">
    <ele>43.5</ele>
    <time>2020-06-14T07:06:26Z</time>
   </trkpt>
   <trkpt lat="51.2018310" lon="5.4420680">
    <ele>43.3</ele>
    <time>2020-06-14T07:06:27Z</time>
   </trkpt>
   <trkpt lat="51.2018680" lon="5.4419540">
    <ele>43.1</ele>
    <time>2020-06-14T07:06:28Z</time>
   </trkpt>
   <trkpt lat="51.2018990" lon="5.4418380">
    <ele>43.0</ele>
    <time>2020-06-14T07:06:29Z</time>
   </trkpt>
   <trkpt lat="51.2019340" lon="5.4417210">
    <ele>42.9</ele>
    <time>2020-06-14T07:06:30Z</time>
   </trkpt>
   <trkpt lat="51.2019730" lon="5.4415970">
    <ele>42.8</ele>
    <time>2020-06-14T07:06:31Z</time>
   </trkpt>
   <trkpt lat="51.2020120" lon="5.4414770">
    <ele>42.7</ele>
    <time>2020-06-14T07:06:32Z</time>
   </trkpt>
   <trkpt lat="51.2020410" lon="5.4413600">
    <ele>42.6</ele>
    <time>2020-06-14T07:06:33Z</time>
   </trkpt>
   <trkpt lat="51.2020630" lon="5.4412260">
    <ele>42.5</ele>
    <time>2020-06-14T07:06:34Z</time>
   </trkpt>
   <trkpt lat="51.2020910" lon="5.4411110">
    <ele>42.5</ele>
    <time>2020-06-14T07:06:35Z</time>
   </trkpt>
   <trkpt lat="51.2021170" lon="5.4409940">
    <ele>42.5</ele>
    <time>2020-06-14T07:06:36Z</time>
   </trkpt>
   <trkpt lat="51.2021450" lon="5.4408850">
    <ele>42.5</ele>
    <time>2020-06-14T07:06:37Z</time>
   </trkpt>
   <trkpt lat="51.2021750" lon="5.4407750">
    <ele>42.5</ele>
    <time>2020-06-14T07:06:38Z</time>
   </trkpt>
   <trkpt lat="51.2022060" lon="5.4406760">
    <ele>42.5</ele>
    <time>2020-06-14T07:06:39Z</time>
   </trkpt>
   <trkpt lat="51.2022340" lon="5.4405810">
    <ele>42.4</ele>
    <time>2020-06-14T07:06:40Z</time>
   </trkpt>
   <trkpt lat="51.2022610" lon="5.4404870">
    <ele>42.4</ele>
    <time>2020-06-14T07:06:41Z</time>
   </trkpt>
   <trkpt lat="51.2022850" lon="5.4403940">
    <ele>42.4</ele>
    <time>2020-06-14T07:06:42Z</time>
   </trkpt>
   <trkpt lat="51.2023120" lon="5.4403050">
    <ele>42.4</ele>
    <time>2020-06-14T07:06:43Z</time>
   </trkpt>
   <trkpt lat="51.2023390" lon="5.4402150">
    <ele>42.4</ele>
    <time>2020-06-14T07:06:44Z</time>
   </trkpt>
   <trkpt lat="51.2023650" lon="5.4401220">
    <ele>42.4</ele>
    <time>2020-06-14T07:06:45Z</time>
   </trkpt>
   <trkpt lat="51.2023940" lon="5.4400270">
    <ele>42.4</ele>
    <time>2020-06-14T07:06:46Z</time>
   </trkpt>
   <trkpt lat="51.2024260" lon="5.4399330">
    <ele>42.4</ele>
    <time>2020-06-14T07:06:47Z</time>
   </trkpt>
   <trkpt lat="51.2024600" lon="5.4398380">
    <ele>42.4</ele>
    <time>2020-06-14T07:06:48Z</time>
   </trkpt>
   <trkpt lat="51.2024970" lon="5.4397450">
    <ele>42.4</ele>
    <time>2020-06-14T07:06:49Z</time>
   </trkpt>
   <trkpt lat="51.2025340" lon="5.4396490">
    <ele>42.4</ele>
    <time>2020-06-14T07:06:50Z</time>
   </trkpt>
   <trkpt lat="51.2025720" lon="5.4395570">
    <ele>42.4</ele>
    <time>2020-06-14T07:06:51Z</time>
   </trkpt>
   <trkpt lat="51.2026080" lon="5.4394610">
    <ele>42.4</ele>
    <time>2020-06-14T07:06:52Z</time>
   </trkpt>
   <trkpt lat="51.2026430" lon="5.4393660">
    <ele>42.4</ele>
    <time>2020-06-14T07:06:53Z</time>
   </trkpt>
   <trkpt lat="51.2026800" lon="5.4392720">
    <ele>42.4</ele>
    <time>2020-06-14T07:06:54Z</time>
   </trkpt>
   <trkpt lat="51.2027180" lon="5.4391810">
    <ele>42.4</ele>
    <time>2020-06-14T07:06:55Z</time>
   </trkpt>
   <trkpt lat="51.2027590" lon="5.4390920">
    <ele>42.4</ele>
    <time>2020-06-14T07:06:56Z</time>
   </trkpt>
   <trkpt lat="51.2028030" lon="5.4390050">
    <ele>42.4</ele>
    <time>2020-06-14T07:06:57Z</time>
   </trkpt>
   <trkpt lat="51.2028440" lon="5.4389220">
    <ele>42.4</ele>
    <time>2020-06-14T07:06:58Z</time>
   </trkpt>
   <trkpt lat="51.2028880" lon="5.4388430">
    <ele>42.4</ele>
    <time>2020-06-14T07:06:59Z</time>
   </trkpt>
   <trkpt lat="51.2029270" lon="5.4387630">
    <ele>42.4</ele>
    <time>2020-06-14T07:07:00Z</time>
   </trkpt>
   <trkpt lat="51.2029670" lon="5.4386830">
    <ele>42.4</ele>
    <time>2020-06-14T07:07:01Z</time>
   </trkpt>
   <trkpt lat="51.2030070" lon="5.4386020">
    <ele>42.5</ele>
    <time>2020-06-14T07:07:02Z</time>
   </trkpt>
   <trkpt lat="51.2030480" lon="5.4385180">
    <ele>42.5</ele>
    <time>2020-06-14T07:07:03Z</time>
   </trkpt>
   <trkpt lat="51.2030870" lon="5.4384310">
    <ele>42.5</ele>
    <time>2020-06-14T07:07:04Z</time>
   </trkpt>
   <trkpt lat="51.2031240" lon="5.4383450">
    <ele>42.5</ele>
    <time>2020-06-14T07:07:05Z</time>
   </trkpt>
   <trkpt lat="51.2031640" lon="5.4382650">
    <ele>42.6</ele>
    <time>2020-06-14T07:07:06Z</time>
   </trkpt>
   <trkpt lat="51.2032020" lon="5.4381790">
    <ele>42.6</ele>
    <time>2020-06-14T07:07:07Z</time>
   </trkpt>
   <trkpt lat="51.2032400" lon="5.4380910">
    <ele>42.6</ele>
    <time>2020-06-14T07:07:08Z</time>
   </trkpt>
   <trkpt lat="51.2032700" lon="5.4379950">
    <ele>42.6</ele>
    <time>2020-06-14T07:07:09Z</time>
   </trkpt>
   <trkpt lat="51.2032990" lon="5.4379020">
    <ele>42.6</ele>
    <time>2020-06-14T07:07:10Z</time>
   </trkpt>
   <trkpt lat="51.2033200" lon="5.4378030">
    <ele>42.6</ele>
    <time>2020-06-14T07:07:11Z</time>
   </trkpt>
   <trkpt lat="51.2033380" lon="5.4377010">
    <ele>42.6</ele>
    <time>2020-06-14T07:07:12Z</time>
   </trkpt>
   <trkpt lat="51.2033540" lon="5.4376000">
    <ele>42.6</ele>
    <time>2020-06-14T07:07:13Z</time>
   </trkpt>
   <trkpt lat="51.2033650" lon="5.4374990">
    <ele>42.6</ele>
    <time>2020-06-14T07:07:14Z</time>
   </trkpt>
   <trkpt lat="51.2033750" lon="5.4374020">
    <ele>42.6</ele>
    <time>2020-06-14T07:07:15Z</time>
   </trkpt>
   <trkpt lat="51.2033820" lon="5.4373050">
    <ele>42.6</ele>
    <time>2020-06-14T07:07:16Z</time>
   </trkpt>
   <trkpt lat="51.2033900" lon="5.4372120">
    <ele>42.7</ele>
    <time>2020-06-14T07:07:17Z</time>
   </trkpt>
   <trkpt lat="51.2033980" lon="5.4371210">
    <ele>42.7</ele>
    <time>2020-06-14T07:07:18Z</time>
   </trkpt>
   <trkpt lat="51.2034000" lon="5.4370290">
    <ele>42.8</ele>
    <time>2020-06-14T07:07:19Z</time>
   </trkpt>
   <trkpt lat="51.2034100" lon="5.4369420">
    <ele>42.8</ele>
    <time>2020-06-14T07:07:20Z</time>
   </trkpt>
   <trkpt lat="51.2034220" lon="5.4368570">
    <ele>42.9</ele>
    <time>2020-06-14T07:07:21Z</time>
   </trkpt>
   <trkpt lat="51.2034290" lon="5.4367750">
    <ele>42.9</ele>
    <time>2020-06-14T07:07:22Z</time>
   </trkpt>
   <trkpt lat="51.2034360" lon="5.4366980">
    <ele>43.0</ele>
    <time>2020-06-14T07:07:23Z</time>
   </trkpt>
   <trkpt lat="51.2034380" lon="5.4366260">
    <ele>43.1</ele>
    <time>2020-06-14T07:07:24Z</time>
   </trkpt>
   <trkpt lat="51.2034390" lon="5.4365620">
    <ele>43.2</ele>
    <time>2020-06-14T07:07:25Z</time>
   </trkpt>
   <trkpt lat="51.2034380" lon="5.4365000">
    <ele>43.2</ele>
    <time>2020-06-14T07:07:26Z</time>
   </trkpt>
   <trkpt lat="51.2034340" lon="5.4364440">
    <ele>43.3</ele>
    <time>2020-06-14T07:07:27Z</time>
   </trkpt>
   <trkpt lat="51.2034380" lon="5.4363830">
    <ele>43.4</ele>
    <time>2020-06-14T07:07:28Z</time>
   </trkpt>
   <trkpt lat="51.2034460" lon="5.4363240">
    <ele>43.4</ele>
    <time>2020-06-14T07:07:29Z</time>
   </trkpt>
   <trkpt lat="51.2034630" lon="5.4362670">
    <ele>43.5</ele>
    <time>2020-06-14T07:07:30Z</time>
   </trkpt>
   <trkpt lat="51.2034970" lon="5.4362310">
    <ele>43.4</ele>
    <time>2020-06-14T07:07:31Z</time>
   </trkpt>
   <trkpt lat="51.2035500" lon="5.4362360">
    <ele>43.3</ele>
    <time>2020-06-14T07:07:32Z</time>
   </trkpt>
   <trkpt lat="51.2036110" lon="5.4362510">
    <ele>43.2</ele>
    <time>2020-06-14T07:07:33Z</time>
   </trkpt>
   <trkpt lat="51.2036810" lon="5.4362710">
    <ele>43.2</ele>
    <time>2020-06-14T07:07:34Z</time>
   </trkpt>
   <trkpt lat="51.2037570" lon="5.4362690">
    <ele>43.1</ele>
    <time>2020-06-14T07:07:35Z</time>
   </trkpt>
   <trkpt lat="51.2038380" lon="5.4362630">
    <ele>43.0</ele>
    <time>2020-06-14T07:07:36Z</time>
   </trkpt>
   <trkpt lat="51.2039230" lon="5.4362660">
    <ele>42.9</ele>
    <time>2020-06-14T07:07:37Z</time>
   </trkpt>
   <trkpt lat="51.2039970" lon="5.4362800">
    <ele>42.9</ele>
    <time>2020-06-14T07:07:38Z</time>
   </trkpt>
   <trkpt lat="51.2040700" lon="5.4362710">
    <ele>42.9</ele>
    <time>2020-06-14T07:07:39Z</time>
   </trkpt>
   <trkpt lat="51.2041430" lon="5.4362600">
    <ele>42.9</ele>
    <time>2020-06-14T07:07:40Z</time>
   </trkpt>
   <trkpt lat="51.2042130" lon="5.4362510">
    <ele>42.8</ele>
    <time>2020-06-14T07:07:41Z</time>
   </trkpt>
   <trkpt lat="51.2042920" lon="5.4362350">
    <ele>42.8</ele>
    <time>2020-06-14T07:07:42Z</time>
   </trkpt>
   <trkpt lat="51.2043690" lon="5.4362210">
    <ele>42.8</ele>
    <time>2020-06-14T07:07:43Z</time>
   </trkpt>
   <trkpt lat="51.2044470" lon="5.4362110">
    <ele>42.8</ele>
    <time>2020-06-14T07:07:44Z</time>
   </trkpt>
   <trkpt lat="51.2045190" lon="5.4361950">
    <ele>42.8</ele>
    <time>2020-06-14T07:07:45Z</time>
   </trkpt>
   <trkpt lat="51.2045910" lon="5.4361850">
    <ele>42.8</ele>
    <time>2020-06-14T07:07:46Z</time>
   </trkpt>
   <trkpt lat="51.2046620" lon="5.4361730">
    <ele>42.9</ele>
    <time>2020-06-14T07:07:47Z</time>
   </trkpt>
   <trkpt lat="51.2047290" lon="5.4361620">
    <ele>43.0</ele>
    <time>2020-06-14T07:07:48Z</time>
   </trkpt>
   <trkpt lat="51.2047990" lon="5.4361400">
    <ele>43.1</ele>
    <time>2020-06-14T07:07:49Z</time>
   </trkpt>
   <trkpt lat="51.2048600" lon="5.4361180">
    <ele>43.1</ele>
    <time>2020-06-14T07:07:50Z</time>
   </trkpt>
   <trkpt lat="51.2049080" lon="5.4360780">
    <ele>43.2</ele>
    <time>2020-06-14T07:07:51Z</time>
   </trkpt>
   <trkpt lat="51.2049580" lon="5.4360010">
    <ele>43.2</ele>
    <time>2020-06-14T07:07:52Z</time>
   </trkpt>
   <trkpt lat="51.2049830" lon="5.4359150">
    <ele>43.3</ele>
    <time>2020-06-14T07:07:53Z</time>
   </trkpt>
   <trkpt lat="51.2049930" lon="5.4358280">
    <ele>43.3</ele>
    <time>2020-06-14T07:07:54Z</time>
   </trkpt>
   <trkpt lat="51.2050050" lon="5.4357240">
    <ele>43.3</ele>
    <time>2020-06-14T07:07:55Z</time>
   </trkpt>
   <trkpt lat="51.2050120" lon="5.4356090">
    <ele>43.3</ele>
    <time>2020-06-14T07:07:56Z</time>
   </trkpt>
   <trkpt lat="51.2050210" lon="5.4354880">
    <ele>43.4</ele>
    <time>2020-06-14T07:07:57Z</time>
   </trkpt>
   <trkpt lat="51.2050230" lon="5.4353760">
    <ele>43.4</ele>
    <time>2020-06-14T07:07:58Z</time>
   </trkpt>
   <trkpt lat="51.2050340" lon="5.4352560">
    <ele>43.4</ele>
    <time>2020-06-14T07:07:59Z</time>
   </trkpt>
   <trkpt lat="51.2050470" lon="5.4351270">
    <ele>43.5</ele>
    <time>2020-06-14T07:08:00Z</time>
   </trkpt>
   <trkpt lat="51.2050620" lon="5.4350030">
    <ele>43.6</ele>
    <time>2020-06-14T07:08:01Z</time>
   </trkpt>
   <trkpt lat="51.2050760" lon="5.4348850">
    <ele>43.7</ele>
    <time>2020-06-14T07:08:02Z</time>
   </trkpt>
   <trkpt lat="51.2050890" lon="5.4347780">
    <ele>43.8</ele>
    <time>2020-06-14T07:08:03Z</time>
   </trkpt>
   <trkpt lat="51.2050980" lon="5.4346650">
    <ele>43.9</ele>
    <time>2020-06-14T07:08:04Z</time>
   </trkpt>
   <trkpt lat="51.2051020" lon="5.4345590">
    <ele>44.0</ele>
    <time>2020-06-14T07:08:05Z</time>
   </trkpt>
   <trkpt lat="51.2051030" lon="5.4344610">
    <ele>44.0</ele>
    <time>2020-06-14T07:08:06Z</time>
   </trkpt>
   <trkpt lat="51.2051020" lon="5.4343620">
    <ele>44.1</ele>
    <time>2020-06-14T07:08:07Z</time>
   </trkpt>
   <trkpt lat="51.2050990" lon="5.4342650">
    <ele>44.2</ele>
    <time>2020-06-14T07:08:08Z</time>
   </trkpt>
   <trkpt lat="51.2050940" lon="5.4341680">
    <ele>44.3</ele>
    <time>2020-06-14T07:08:09Z</time>
   </trkpt>
   <trkpt lat="51.2050960" lon="5.4340760">
    <ele>44.4</ele>
    <time>2020-06-14T07:08:10Z</time>
   </trkpt>
   <trkpt lat="51.2050970" lon="5.4339840">
    <ele>44.5</ele>
    <time>2020-06-14T07:08:11Z</time>
   </trkpt>
   <trkpt lat="51.2050940" lon="5.4338930">
    <ele>44.6</ele>
    <time>2020-06-14T07:08:12Z</time>
   </trkpt>
   <trkpt lat="51.2050920" lon="5.4338010">
    <ele>44.7</ele>
    <time>2020-06-14T07:08:13Z</time>
   </trkpt>
   <trkpt lat="51.2050910" lon="5.4337100">
    <ele>44.9</ele>
    <time>2020-06-14T07:08:14Z</time>
   </trkpt>
   <trkpt lat="51.2050910" lon="5.4336180">
    <ele>45.0</ele>
    <time>2020-06-14T07:08:15Z</time>
   </trkpt>
   <trkpt lat="51.2050840" lon="5.4335260">
    <ele>45.2</ele>
    <time>2020-06-14T07:08:16Z</time>
   </trkpt>
   <trkpt lat="51.2050770" lon="5.4334290">
    <ele>45.5</ele>
    <time>2020-06-14T07:08:17Z</time>
   </trkpt>
   <trkpt lat="51.2050720" lon="5.4333300">
    <ele>45.3</ele>
    <time>2020-06-14T07:08:18Z</time>
   </trkpt>
   <trkpt lat="51.2050670" lon="5.4332280">
    <ele>45.3</ele>
    <time>2020-06-14T07:08:19Z</time>
   </trkpt>
   <trkpt lat="51.2050630" lon="5.4331230">
    <ele>45.3</ele>
    <time>2020-06-14T07:08:20Z</time>
   </trkpt>
   <trkpt lat="51.2050590" lon="5.4330120">
    <ele>45.2</ele>
    <time>2020-06-14T07:08:21Z</time>
   </trkpt>
   <trkpt lat="51.2050430" lon="5.4328990">
    <ele>45.2</ele>
    <time>2020-06-14T07:08:22Z</time>
   </trkpt>
   <trkpt lat="51.2050280" lon="5.4327860">
    <ele>45.1</ele>
    <time>2020-06-14T07:08:23Z</time>
   </trkpt>
   <trkpt lat="51.2050200" lon="5.4326740">
    <ele>45.1</ele>
    <time>2020-06-14T07:08:24Z</time>
   </trkpt>
   <trkpt lat="51.2050110" lon="5.4325620">
    <ele>45.1</ele>
    <time>2020-06-14T07:08:25Z</time>
   </trkpt>
   <trkpt lat="51.2050040" lon="5.4324520">
    <ele>45.1</ele>
    <time>2020-06-14T07:08:26Z</time>
   </trkpt>
   <trkpt lat="51.2049960" lon="5.4323450">
    <ele>45.1</ele>
    <time>2020-06-14T07:08:27Z</time>
   </trkpt>
   <trkpt lat="51.2049870" lon="5.4322460">
    <ele>45.1</ele>
    <time>2020-06-14T07:08:28Z</time>
   </trkpt>
   <trkpt lat="51.2049780" lon="5.4321510">
    <ele>45.2</ele>
    <time>2020-06-14T07:08:29Z</time>
   </trkpt>
   <trkpt lat="51.2049710" lon="5.4320570">
    <ele>45.2</ele>
    <time>2020-06-14T07:08:30Z</time>
   </trkpt>
   <trkpt lat="51.2049670" lon="5.4319670">
    <ele>45.2</ele>
    <time>2020-06-14T07:08:31Z</time>
   </trkpt>
   <trkpt lat="51.2049620" lon="5.4318760">
    <ele>45.3</ele>
    <time>2020-06-14T07:08:32Z</time>
   </trkpt>
   <trkpt lat="51.2049510" lon="5.4317830">
    <ele>45.3</ele>
    <time>2020-06-14T07:08:33Z</time>
   </trkpt>
   <trkpt lat="51.2049420" lon="5.4316870">
    <ele>45.4</ele>
    <time>2020-06-14T07:08:34Z</time>
   </trkpt>
   <trkpt lat="51.2049300" lon="5.4315920">
    <ele>45.4</ele>
    <time>2020-06-14T07:08:35Z</time>
   </trkpt>
   <trkpt lat="51.2049180" lon="5.4314930">
    <ele>45.5</ele>
    <time>2020-06-14T07:08:36Z</time>
   </trkpt>
   <trkpt lat="51.2049050" lon="5.4313900">
    <ele>45.5</ele>
    <time>2020-06-14T07:08:37Z</time>
   </trkpt>
   <trkpt lat="51.2048960" lon="5.4312810">
    <ele>45.6</ele>
    <time>2020-06-14T07:08:38Z</time>
   </trkpt>
   <trkpt lat="51.2048910" lon="5.4311670">
    <ele>45.6</ele>
    <time>2020-06-14T07:08:39Z</time>
   </trkpt>
   <trkpt lat="51.2048830" lon="5.4310550">
    <ele>45.7</ele>
    <time>2020-06-14T07:08:40Z</time>
   </trkpt>
   <trkpt lat="51.2048760" lon="5.4309430">
    <ele>45.7</ele>
    <time>2020-06-14T07:08:41Z</time>
   </trkpt>
   <trkpt lat="51.2048690" lon="5.4308310">
    <ele>45.8</ele>
    <time>2020-06-14T07:08:42Z</time>
   </trkpt>
   <trkpt lat="51.2048580" lon="5.4307180">
    <ele>45.8</ele>
    <time>2020-06-14T07:08:43Z</time>
   </trkpt>
   <trkpt lat="51.2048470" lon="5.4306100">
    <ele>45.9</ele>
    <time>2020-06-14T07:08:44Z</time>
   </trkpt>
   <trkpt lat="51.2048340" lon="5.4305020">
    <ele>46.0</ele>
    <time>2020-06-14T07:08:45Z</time>
   </trkpt>
   <trkpt lat="51.2048200" lon="5.4303950">
    <ele>46.0</ele>
    <time>2020-06-14T07:08:46Z</time>
   </trkpt>
   <trkpt lat="51.2048000" lon="5.4302910">
    <ele>46.0</ele>
    <time>2020-06-14T07:08:47Z</time>
   </trkpt>
   <trkpt lat="51.2047860" lon="5.4301920">
    <ele>46.1</ele>
    <time>2020-06-14T07:08:48Z</time>
   </trkpt>
   <trkpt lat="51.2047740" lon="5.4301000">
    <ele>46.2</ele>
    <time>2020-06-14T07:08:49Z</time>
   </trkpt>
   <trkpt lat="51.2047560" lon="5.4300120">
    <ele>46.2</ele>
    <time>2020-06-14T07:08:50Z</time>
   </trkpt>
   <trkpt lat="51.2047360" lon="5.4299200">
    <ele>46.3</ele>
    <time>2020-06-14T07:08:51Z</time>
   </trkpt>
   <trkpt lat="51.2047180" lon="5.4298360">
    <ele>46.4</ele>
    <time>2020-06-14T07:08:52Z</time>
   </trkpt>
   <trkpt lat="51.2047030" lon="5.4297590">
    <ele>46.5</ele>
    <time>2020-06-14T07:08:53Z</time>
   </trkpt>
   <trkpt lat="51.2046930" lon="5.4296820">
    <ele>46.5</ele>
    <time>2020-06-14T07:08:54Z</time>
   </trkpt>
   <trkpt lat="51.2046890" lon="5.4296150">
    <ele>46.6</ele>
    <time>2020-06-14T07:08:55Z</time>
   </trkpt>
   <trkpt lat="51.2046830" lon="5.4295660">
    <ele>46.7</ele>
    <time>2020-06-14T07:08:56Z</time>
   </trkpt>
   <trkpt lat="51.2046800" lon="5.4295390">
    <ele>46.7</ele>
    <time>2020-06-14T07:08:57Z</time>
   </trkpt>
   <trkpt lat="51.2046770" lon="5.4295140">
    <ele>46.8</ele>
    <time>2020-06-14T07:08:58Z</time>
   </trkpt>
   <trkpt lat="51.2046660" lon="5.4294980">
    <ele>46.8</ele>
    <time>2020-06-14T07:08:59Z</time>
   </trkpt>
   <trkpt lat="51.2046530" lon="5.4294750">
    <ele>46.8</ele>
    <time>2020-06-14T07:09:00Z</time>
   </trkpt>
   <trkpt lat="51.2046400" lon="5.4294260">
    <ele>46.9</ele>
    <time>2020-06-14T07:09:01Z</time>
   </trkpt>
   <trkpt lat="51.2046350" lon="5.4294090">
    <ele>46.9</ele>
    <time>2020-06-14T07:09:02Z</time>
   </trkpt>
   <trkpt lat="51.2046010" lon="5.4293720">
    <ele>47.0</ele>
    <time>2020-06-14T07:09:03Z</time>
   </trkpt>
   <trkpt lat="51.2045880" lon="5.4293590">
    <ele>47.0</ele>
    <time>2020-06-14T07:09:04Z</time>
   </trkpt>
   <trkpt lat="51.2045530" lon="5.4293370">
    <ele>47.0</ele>
    <time>2020-06-14T07:09:05Z</time>
   </trkpt>
   <trkpt lat="51.2045080" lon="5.4293370">
    <ele>47.1</ele>
    <time>2020-06-14T07:09:06Z</time>
   </trkpt>
   <trkpt lat="51.2044650" lon="5.4293660">
    <ele>47.1</ele>
    <time>2020-06-14T07:09:07Z</time>
   </trkpt>
   <trkpt lat="51.2044230" lon="5.4293880">
    <ele>47.2</ele>
    <time>2020-06-14T07:09:08Z</time>
   </trkpt>
   <trkpt lat="51.2043800" lon="5.4294040">
    <ele>47.2</ele>
    <time>2020-06-14T07:09:09Z</time>
   </trkpt>
   <trkpt lat="51.2043370" lon="5.4294360">
    <ele>47.3</ele>
    <time>2020-06-14T07:09:10Z</time>
   </trkpt>
   <trkpt lat="51.2042900" lon="5.4294630">
    <ele>46.9</ele>
    <time>2020-06-14T07:09:11Z</time>
   </trkpt>
   <trkpt lat="51.2042390" lon="5.4294620">
    <ele>46.8</ele>
    <time>2020-06-14T07:09:12Z</time>
   </trkpt>
   <trkpt lat="51.2041930" lon="5.4294130">
    <ele>46.8</ele>
    <time>2020-06-14T07:09:13Z</time>
   </trkpt>
   <trkpt lat="51.2041590" lon="5.4293210">
    <ele>46.7</ele>
    <time>2020-06-14T07:09:14Z</time>
   </trkpt>
   <trkpt lat="51.2041120" lon="5.4292450">
    <ele>46.7</ele>
    <time>2020-06-14T07:09:15Z</time>
   </trkpt>
   <trkpt lat="51.2040540" lon="5.4291820">
    <ele>46.6</ele>
    <time>2020-06-14T07:09:16Z</time>
   </trkpt>
   <trkpt lat="51.2039930" lon="5.4291170">
    <ele>46.6</ele>
    <time>2020-06-14T07:09:17Z</time>
   </trkpt>
   <trkpt lat="51.2039300" lon="5.4290580">
    <ele>46.6</ele>
    <time>2020-06-14T07:09:18Z</time>
   </trkpt>
   <trkpt lat="51.2038650" lon="5.4290040">
    <ele>46.6</ele>
    <time>2020-06-14T07:09:19Z</time>
   </trkpt>
   <trkpt lat="51.2038010" lon="5.4289490">
    <ele>46.5</ele>
    <time>2020-06-14T07:09:20Z</time>
   </trkpt>
   <trkpt lat="51.2037350" lon="5.4288980">
    <ele>46.5</ele>
    <time>2020-06-14T07:09:21Z</time>
   </trkpt>
   <trkpt lat="51.2036710" lon="5.4288430">
    <ele>46.5</ele>
    <time>2020-06-14T07:09:22Z</time>
   </trkpt>
   <trkpt lat="51.2036010" lon="5.4287850">
    <ele>46.5</ele>
    <time>2020-06-14T07:09:23Z</time>
   </trkpt>
   <trkpt lat="51.2035350" lon="5.4287380">
    <ele>46.4</ele>
    <time>2020-06-14T07:09:24Z</time>
   </trkpt>
   <trkpt lat="51.2034600" lon="5.4286910">
    <ele>46.4</ele>
    <time>2020-06-14T07:09:25Z</time>
   </trkpt>
   <trkpt lat="51.2033860" lon="5.4286520">
    <ele>46.5</ele>
    <time>2020-06-14T07:09:26Z</time>
   </trkpt>
   <trkpt lat="51.2033150" lon="5.4286150">
    <ele>46.5</ele>
    <time>2020-06-14T07:09:27Z</time>
   </trkpt>
   <trkpt lat="51.2032350" lon="5.4285910">
    <ele>46.5</ele>
    <time>2020-06-14T07:09:28Z</time>
   </trkpt>
   <trkpt lat="51.2031520" lon="5.4285730">
    <ele>46.4</ele>
    <time>2020-06-14T07:09:29Z</time>
   </trkpt>
   <trkpt lat="51.2030690" lon="5.4285470">
    <ele>46.4</ele>
    <time>2020-06-14T07:09:30Z</time>
   </trkpt>
   <trkpt lat="51.2029860" lon="5.4285390">
    <ele>46.4</ele>
    <time>2020-06-14T07:09:31Z</time>
   </trkpt>
   <trkpt lat="51.2029080" lon="5.4285290">
    <ele>46.4</ele>
    <time>2020-06-14T07:09:32Z</time>
   </trkpt>
   <trkpt lat="51.2028310" lon="5.4285240">
    <ele>46.4</ele>
    <time>2020-06-14T07:09:33Z</time>
   </trkpt>
   <trkpt lat="51.2027550" lon="5.4285220">
    <ele>46.4</ele>
    <time>2020-06-14T07:09:34Z</time>
   </trkpt>
   <trkpt lat="51.2026820" lon="5.4285210">
    <ele>46.4</ele>
    <time>2020-06-14T07:09:35Z</time>
   </trkpt>
   <trkpt lat="51.2026110" lon="5.4285170">
    <ele>46.4</ele>
    <time>2020-06-14T07:09:36Z</time>
   </trkpt>
   <trkpt lat="51.2025400" lon="5.4285090">
    <ele>46.4</ele>
    <time>2020-06-14T07:09:37Z</time>
   </trkpt>
   <trkpt lat="51.2024740" lon="5.4285060">
    <ele>46.4</ele>
    <time>2020-06-14T07:09:38Z</time>
   </trkpt>
   <trkpt lat="51.2024070" lon="5.4285100">
    <ele>46.4</ele>
    <time>2020-06-14T07:09:39Z</time>
   </trkpt>
   <trkpt lat="51.2023460" lon="5.4285130">
    <ele>46.5</ele>
    <time>2020-06-14T07:09:40Z</time>
   </trkpt>
   <trkpt lat="51.2022850" lon="5.4285140">
    <ele>46.5</ele>
    <time>2020-06-14T07:09:41Z</time>
   </trkpt>
   <trkpt lat="51.2022250" lon="5.4285200">
    <ele>46.6</ele>
    <time>2020-06-14T07:09:42Z</time>
   </trkpt>
   <trkpt lat="51.2021690" lon="5.4285220">
    <ele>46.6</ele>
    <time>2020-06-14T07:09:43Z</time>
   </trkpt>
   <trkpt lat="51.2021170" lon="5.4285160">
    <ele>46.6</ele>
    <time>2020-06-14T07:09:44Z</time>
   </trkpt>
   <trkpt lat="51.2020680" lon="5.4285090">
    <ele>46.6</ele>
    <time>2020-06-14T07:09:45Z</time>
   </trkpt>
   <trkpt lat="51.2020200" lon="5.4284810">
    <ele>46.6</ele>
    <time>2020-06-14T07:09:46Z</time>
   </trkpt>
   <trkpt lat="51.2019830" lon="5.4284160">
    <ele>46.6</ele>
    <time>2020-06-14T07:09:47Z</time>
   </trkpt>
   <trkpt lat="51.2019550" lon="5.4283460">
    <ele>46.5</ele>
    <time>2020-06-14T07:09:48Z</time>
   </trkpt>
   <trkpt lat="51.2019370" lon="5.4282520">
    <ele>46.5</ele>
    <time>2020-06-14T07:09:49Z</time>
   </trkpt>
   <trkpt lat="51.2019070" lon="5.4281370">
    <ele>46.4</ele>
    <time>2020-06-14T07:09:50Z</time>
   </trkpt>
   <trkpt lat="51.2019010" lon="5.4280130">
    <ele>46.4</ele>
    <time>2020-06-14T07:09:51Z</time>
   </trkpt>
   <trkpt lat="51.2018870" lon="5.4278820">
    <ele>46.3</ele>
    <time>2020-06-14T07:09:52Z</time>
   </trkpt>
   <trkpt lat="51.2018810" lon="5.4277510">
    <ele>46.4</ele>
    <time>2020-06-14T07:09:53Z</time>
   </trkpt>
   <trkpt lat="51.2018810" lon="5.4276210">
    <ele>46.4</ele>
    <time>2020-06-14T07:09:54Z</time>
   </trkpt>
   <trkpt lat="51.2018750" lon="5.4274910">
    <ele>46.4</ele>
    <time>2020-06-14T07:09:55Z</time>
   </trkpt>
   <trkpt lat="51.2018640" lon="5.4273680">
    <ele>46.4</ele>
    <time>2020-06-14T07:09:56Z</time>
   </trkpt>
   <trkpt lat="51.2018540" lon="5.4272510">
    <ele>46.4</ele>
    <time>2020-06-14T07:09:57Z</time>
   </trkpt>
   <trkpt lat="51.2018390" lon="5.4271370">
    <ele>46.4</ele>
    <time>2020-06-14T07:09:58Z</time>
   </trkpt>
   <trkpt lat="51.2018240" lon="5.4270250">
    <ele>46.4</ele>
    <time>2020-06-14T07:09:59Z</time>
   </trkpt>
   <trkpt lat="51.2018080" lon="5.4269110">
    <ele>46.4</ele>
    <time>2020-06-14T07:10:00Z</time>
   </trkpt>
   <trkpt lat="51.2017920" lon="5.4268020">
    <ele>46.4</ele>
    <time>2020-06-14T07:10:01Z</time>
   </trkpt>
   <trkpt lat="51.2017780" lon="5.4266900">
    <ele>46.4</ele>
    <time>2020-06-14T07:10:02Z</time>
   </trkpt>
   <trkpt lat="51.2017630" lon="5.4265750">
    <ele>46.4</ele>
    <time>2020-06-14T07:10:03Z</time>
   </trkpt>
   <trkpt lat="51.2017510" lon="5.4264590">
    <ele>46.4</ele>
    <time>2020-06-14T07:10:04Z</time>
   </trkpt>
   <trkpt lat="51.2017340" lon="5.4263450">
    <ele>46.4</ele>
    <time>2020-06-14T07:10:05Z</time>
   </trkpt>
   <trkpt lat="51.2017180" lon="5.4262350">
    <ele>46.4</ele>
    <time>2020-06-14T07:10:06Z</time>
   </trkpt>
   <trkpt lat="51.2017020" lon="5.4261260">
    <ele>46.3</ele>
    <time>2020-06-14T07:10:07Z</time>
   </trkpt>
   <trkpt lat="51.2016840" lon="5.4260190">
    <ele>46.3</ele>
    <time>2020-06-14T07:10:08Z</time>
   </trkpt>
   <trkpt lat="51.2016670" lon="5.4259130">
    <ele>46.2</ele>
    <time>2020-06-14T07:10:09Z</time>
   </trkpt>
   <trkpt lat="51.2016450" lon="5.4258080">
    <ele>46.2</ele>
    <time>2020-06-14T07:10:10Z</time>
   </trkpt>
   <trkpt lat="51.2016270" lon="5.4257050">
    <ele>46.2</ele>
    <time>2020-06-14T07:10:11Z</time>
   </trkpt>
   <trkpt lat="51.2016080" lon="5.4256070">
    <ele>46.1</ele>
    <time>2020-06-14T07:10:12Z</time>
   </trkpt>
   <trkpt lat="51.2015890" lon="5.4255140">
    <ele>46.1</ele>
    <time>2020-06-14T07:10:13Z</time>
   </trkpt>
   <trkpt lat="51.2015770" lon="5.4254200">
    <ele>46.1</ele>
    <time>2020-06-14T07:10:14Z</time>
   </trkpt>
   <trkpt lat="51.2015600" lon="5.4253290">
    <ele>46.0</ele>
    <time>2020-06-14T07:10:15Z</time>
   </trkpt>
   <trkpt lat="51.2015470" lon="5.4252370">
    <ele>46.0</ele>
    <time>2020-06-14T07:10:16Z</time>
   </trkpt>
   <trkpt lat="51.2015200" lon="5.4251520">
    <ele>46.0</ele>
    <time>2020-06-14T07:10:17Z</time>
   </trkpt>
   <trkpt lat="51.2015020" lon="5.4250650">
    <ele>45.9</ele>
    <time>2020-06-14T07:10:18Z</time>
   </trkpt>
   <trkpt lat="51.2014850" lon="5.4249780">
    <ele>45.9</ele>
    <time>2020-06-14T07:10:19Z</time>
   </trkpt>
   <trkpt lat="51.2014430" lon="5.4249130">
    <ele>45.9</ele>
    <time>2020-06-14T07:10:20Z</time>
   </trkpt>
   <trkpt lat="51.2013850" lon="5.4248630">
    <ele>45.9</ele>
    <time>2020-06-14T07:10:21Z</time>
   </trkpt>
   <trkpt lat="51.2013140" lon="5.4248450">
    <ele>45.9</ele>
    <time>2020-06-14T07:10:22Z</time>
   </trkpt>
   <trkpt lat="51.2012470" lon="5.4248140">
    <ele>45.9</ele>
    <time>2020-06-14T07:10:23Z</time>
   </trkpt>
   <trkpt lat="51.2011810" lon="5.4247780">
    <ele>45.9</ele>
    <time>2020-06-14T07:10:24Z</time>
   </trkpt>
   <trkpt lat="51.2011100" lon="5.4247460">
    <ele>45.9</ele>
    <time>2020-06-14T07:10:25Z</time>
   </trkpt>
   <trkpt lat="51.2010390" lon="5.4247140">
    <ele>45.9</ele>
    <time>2020-06-14T07:10:26Z</time>
   </trkpt>
   <trkpt lat="51.2009700" lon="5.4246810">
    <ele>45.9</ele>
    <time>2020-06-14T07:10:27Z</time>
   </trkpt>
   <trkpt lat="51.2009010" lon="5.4246470">
    <ele>45.9</ele>
    <time>2020-06-14T07:10:28Z</time>
   </trkpt>
   <trkpt lat="51.2008330" lon="5.4246090">
    <ele>45.9</ele>
    <time>2020-06-14T07:10:29Z</time>
   </trkpt>
   <trkpt lat="51.2007670" lon="5.4245720">
    <ele>45.9</ele>
    <time>2020-06-14T07:10:30Z</time>
   </trkpt>
   <trkpt lat="51.2007040" lon="5.4245310">
    <ele>45.8</ele>
    <time>2020-06-14T07:10:31Z</time>
   </trkpt>
   <trkpt lat="51.2006440" lon="5.4244950">
    <ele>45.8</ele>
    <time>2020-06-14T07:10:32Z</time>
   </trkpt>
   <trkpt lat="51.2005890" lon="5.4244430">
    <ele>45.8</ele>
    <time>2020-06-14T07:10:33Z</time>
   </trkpt>
   <trkpt lat="51.2005310" lon="5.4243840">
    <ele>45.7</ele>
    <time>2020-06-14T07:10:34Z</time>
   </trkpt>
   <trkpt lat="51.2004700" lon="5.4243260">
    <ele>45.7</ele>
    <time>2020-06-14T07:10:35Z</time>
   </trkpt>
   <trkpt lat="51.2004090" lon="5.4242640">
    <ele>45.7</ele>
    <time>2020-06-14T07:10:36Z</time>
   </trkpt>
   <trkpt lat="51.2003420" lon="5.4242240">
    <ele>45.7</ele>
    <time>2020-06-14T07:10:37Z</time>
   </trkpt>
   <trkpt lat="51.2002720" lon="5.4241940">
    <ele>45.7</ele>
    <time>2020-06-14T07:10:38Z</time>
   </trkpt>
   <trkpt lat="51.2002020" lon="5.4241660">
    <ele>45.7</ele>
    <time>2020-06-14T07:10:39Z</time>
   </trkpt>
   <trkpt lat="51.2001330" lon="5.4241430">
    <ele>45.6</ele>
    <time>2020-06-14T07:10:40Z</time>
   </trkpt>
   <trkpt lat="51.2000660" lon="5.4241180">
    <ele>45.6</ele>
    <time>2020-06-14T07:10:41Z</time>
   </trkpt>
   <trkpt lat="51.2000010" lon="5.4240960">
    <ele>45.7</ele>
    <time>2020-06-14T07:10:42Z</time>
   </trkpt>
   <trkpt lat="51.1999340" lon="5.4240910">
    <ele>45.7</ele>
    <time>2020-06-14T07:10:43Z</time>
   </trkpt>
   <trkpt lat="51.1998660" lon="5.4240940">
    <ele>45.8</ele>
    <time>2020-06-14T07:10:44Z</time>
   </trkpt>
   <trkpt lat="51.1997980" lon="5.4241100">
    <ele>45.8</ele>
    <time>2020-06-14T07:10:45Z</time>
   </trkpt>
   <trkpt lat="51.1997340" lon="5.4241380">
    <ele>45.9</ele>
    <time>2020-06-14T07:10:46Z</time>
   </trkpt>
   <trkpt lat="51.1996700" lon="5.4241630">
    <ele>45.9</ele>
    <time>2020-06-14T07:10:47Z</time>
   </trkpt>
   <trkpt lat="51.1996040" lon="5.4241950">
    <ele>46.0</ele>
    <time>2020-06-14T07:10:48Z</time>
   </trkpt>
   <trkpt lat="51.1995340" lon="5.4242180">
    <ele>46.0</ele>
    <time>2020-06-14T07:10:49Z</time>
   </trkpt>
   <trkpt lat="51.1994640" lon="5.4242350">
    <ele>46.1</ele>
    <time>2020-06-14T07:10:50Z</time>
   </trkpt>
   <trkpt lat="51.1993970" lon="5.4242320">
    <ele>46.1</ele>
    <time>2020-06-14T07:10:51Z</time>
   </trkpt>
   <trkpt lat="51.1993310" lon="5.4242200">
    <ele>46.1</ele>
    <time>2020-06-14T07:10:52Z</time>
   </trkpt>
   <trkpt lat="51.1992660" lon="5.4241750">
    <ele>46.1</ele>
    <time>2020-06-14T07:10:53Z</time>
   </trkpt>
   <trkpt lat="51.1992150" lon="5.4240960">
    <ele>46.1</ele>
    <time>2020-06-14T07:10:54Z</time>
   </trkpt>
   <trkpt lat="51.1991800" lon="5.4239960">
    <ele>46.1</ele>
    <time>2020-06-14T07:10:55Z</time>
   </trkpt>
   <trkpt lat="51.1991460" lon="5.4238970">
    <ele>46.1</ele>
    <time>2020-06-14T07:10:56Z</time>
   </trkpt>
   <trkpt lat="51.1991100" lon="5.4238090">
    <ele>46.1</ele>
    <time>2020-06-14T07:10:57Z</time>
   </trkpt>
   <trkpt lat="51.1990700" lon="5.4237250">
    <ele>46.1</ele>
    <time>2020-06-14T07:10:58Z</time>
   </trkpt>
   <trkpt lat="51.1990260" lon="5.4236490">
    <ele>46.2</ele>
    <time>2020-06-14T07:10:59Z</time>
   </trkpt>
   <trkpt lat="51.1989840" lon="5.4235720">
    <ele>46.2</ele>
    <time>2020-06-14T07:11:00Z</time>
   </trkpt>
   <trkpt lat="51.1989410" lon="5.4235060">
    <ele>46.2</ele>
    <time>2020-06-14T07:11:01Z</time>
   </trkpt>
   <trkpt lat="51.1988990" lon="5.4234460">
    <ele>46.2</ele>
    <time>2020-06-14T07:11:02Z</time>
   </trkpt>
   <trkpt lat="51.1988570" lon="5.4233910">
    <ele>46.3</ele>
    <time>2020-06-14T07:11:03Z</time>
   </trkpt>
   <trkpt lat="51.1988150" lon="5.4233260">
    <ele>46.3</ele>
    <time>2020-06-14T07:11:04Z</time>
   </trkpt>
   <trkpt lat="51.1987670" lon="5.4232550">
    <ele>46.3</ele>
    <time>2020-06-14T07:11:05Z</time>
   </trkpt>
   <trkpt lat="51.1987140" lon="5.4231840">
    <ele>46.3</ele>
    <time>2020-06-14T07:11:06Z</time>
   </trkpt>
   <trkpt lat="51.1986630" lon="5.4231110">
    <ele>46.3</ele>
    <time>2020-06-14T07:11:07Z</time>
   </trkpt>
   <trkpt lat="51.1986160" lon="5.4230300">
    <ele>46.3</ele>
    <time>2020-06-14T07:11:08Z</time>
   </trkpt>
   <trkpt lat="51.1985620" lon="5.4229520">
    <ele>46.4</ele>
    <time>2020-06-14T07:11:09Z</time>
   </trkpt>
   <trkpt lat="51.1985040" lon="5.4228770">
    <ele>46.4</ele>
    <time>2020-06-14T07:11:10Z</time>
   </trkpt>
   <trkpt lat="51.1984470" lon="5.4227920">
    <ele>46.4</ele>
    <time>2020-06-14T07:11:11Z</time>
   </trkpt>
   <trkpt lat="51.1983930" lon="5.4227020">
    <ele>46.4</ele>
    <time>2020-06-14T07:11:12Z</time>
   </trkpt>
   <trkpt lat="51.1983420" lon="5.4226140">
    <ele>46.5</ele>
    <time>2020-06-14T07:11:13Z</time>
   </trkpt>
   <trkpt lat="51.1982890" lon="5.4225330">
    <ele>46.5</ele>
    <time>2020-06-14T07:11:14Z</time>
   </trkpt>
   <trkpt lat="51.1982380" lon="5.4224540">
    <ele>46.6</ele>
    <time>2020-06-14T07:11:15Z</time>
   </trkpt>
   <trkpt lat="51.1981840" lon="5.4223830">
    <ele>46.7</ele>
    <time>2020-06-14T07:11:16Z</time>
   </trkpt>
   <trkpt lat="51.1981300" lon="5.4223110">
    <ele>46.7</ele>
    <time>2020-06-14T07:11:17Z</time>
   </trkpt>
   <trkpt lat="51.1980820" lon="5.4222320">
    <ele>46.7</ele>
    <time>2020-06-14T07:11:18Z</time>
   </trkpt>
   <trkpt lat="51.1980310" lon="5.4221540">
    <ele>46.7</ele>
    <time>2020-06-14T07:11:19Z</time>
   </trkpt>
   <trkpt lat="51.1979790" lon="5.4220750">
    <ele>46.7</ele>
    <time>2020-06-14T07:11:20Z</time>
   </trkpt>
   <trkpt lat="51.1979270" lon="5.4219930">
    <ele>46.7</ele>
    <time>2020-06-14T07:11:21Z</time>
   </trkpt>
   <trkpt lat="51.1978780" lon="5.4219160">
    <ele>46.7</ele>
    <time>2020-06-14T07:11:22Z</time>
   </trkpt>
   <trkpt lat="51.1978300" lon="5.4218410">
    <ele>46.7</ele>
    <time>2020-06-14T07:11:23Z</time>
   </trkpt>
   <trkpt lat="51.1977780" lon="5.4217690">
    <ele>46.7</ele>
    <time>2020-06-14T07:11:24Z</time>
   </trkpt>
   <trkpt lat="51.1977270" lon="5.4216960">
    <ele>46.8</ele>
    <time>2020-06-14T07:11:25Z</time>
   </trkpt>
   <trkpt lat="51.1976780" lon="5.4216230">
    <ele>46.8</ele>
    <time>2020-06-14T07:11:26Z</time>
   </trkpt>
   <trkpt lat="51.1976260" lon="5.4215480">
    <ele>46.8</ele>
    <time>2020-06-14T07:11:27Z</time>
   </trkpt>
   <trkpt lat="51.1975750" lon="5.4214700">
    <ele>46.8</ele>
    <time>2020-06-14T07:11:28Z</time>
   </trkpt>
   <trkpt lat="51.1975290" lon="5.4213850">
    <ele>46.8</ele>
    <time>2020-06-14T07:11:29Z</time>
   </trkpt>
   <trkpt lat="51.1974940" lon="5.4212880">
    <ele>46.8</ele>
    <time>2020-06-14T07:11:30Z</time>
   </trkpt>
   <trkpt lat="51.1974640" lon="5.4211810">
    <ele>46.9</ele>
    <time>2020-06-14T07:11:31Z</time>
   </trkpt>
   <trkpt lat="51.1974310" lon="5.4210790">
    <ele>46.9</ele>
    <time>2020-06-14T07:11:32Z</time>
   </trkpt>
   <trkpt lat="51.1973940" lon="5.4209810">
    <ele>46.9</ele>
    <time>2020-06-14T07:11:33Z</time>
   </trkpt>
   <trkpt lat="51.1973590" lon="5.4208810">
    <ele>46.9</ele>
    <time>2020-06-14T07:11:34Z</time>
   </trkpt>
   <trkpt lat="51.1973260" lon="5.4207840">
    <ele>46.9</ele>
    <time>2020-06-14T07:11:35Z</time>
   </trkpt>
   <trkpt lat="51.1972910" lon="5.4206890">
    <ele>47.0</ele>
    <time>2020-06-14T07:11:36Z</time>
   </trkpt>
   <trkpt lat="51.1972580" lon="5.4205940">
    <ele>47.0</ele>
    <time>2020-06-14T07:11:37Z</time>
   </trkpt>
   <trkpt lat="51.1972220" lon="5.4205000">
    <ele>47.0</ele>
    <time>2020-06-14T07:11:38Z</time>
   </trkpt>
   <trkpt lat="51.1971890" lon="5.4204030">
    <ele>47.1</ele>
    <time>2020-06-14T07:11:39Z</time>
   </trkpt>
   <trkpt lat="51.1971550" lon="5.4203100">
    <ele>47.1</ele>
    <time>2020-06-14T07:11:40Z</time>
   </trkpt>
   <trkpt lat="51.1971210" lon="5.4202160">
    <ele>47.1</ele>
    <time>2020-06-14T07:11:41Z</time>
   </trkpt>
   <trkpt lat="51.1970840" lon="5.4201260">
    <ele>47.1</ele>
    <time>2020-06-14T07:11:42Z</time>
   </trkpt>
   <trkpt lat="51.1970530" lon="5.4200380">
    <ele>47.2</ele>
    <time>2020-06-14T07:11:43Z</time>
   </trkpt>
   <trkpt lat="51.1970190" lon="5.4199540">
    <ele>47.2</ele>
    <time>2020-06-14T07:11:44Z</time>
   </trkpt>
   <trkpt lat="51.1969830" lon="5.4198710">
    <ele>47.3</ele>
    <time>2020-06-14T07:11:45Z</time>
   </trkpt>
   <trkpt lat="51.1969450" lon="5.4197900">
    <ele>47.4</ele>
    <time>2020-06-14T07:11:46Z</time>
   </trkpt>
   <trkpt lat="51.1969050" lon="5.4197060">
    <ele>47.5</ele>
    <time>2020-06-14T07:11:47Z</time>
   </trkpt>
   <trkpt lat="51.1968590" lon="5.4196300">
    <ele>47.5</ele>
    <time>2020-06-14T07:11:48Z</time>
   </trkpt>
   <trkpt lat="51.1968170" lon="5.4195540">
    <ele>47.6</ele>
    <time>2020-06-14T07:11:49Z</time>
   </trkpt>
   <trkpt lat="51.1967750" lon="5.4194810">
    <ele>47.6</ele>
    <time>2020-06-14T07:11:50Z</time>
   </trkpt>
   <trkpt lat="51.1967340" lon="5.4194030">
    <ele>47.7</ele>
    <time>2020-06-14T07:11:51Z</time>
   </trkpt>
   <trkpt lat="51.1966980" lon="5.4193190">
    <ele>47.7</ele>
    <time>2020-06-14T07:11:52Z</time>
   </trkpt>
   <trkpt lat="51.1966580" lon="5.4192330">
    <ele>47.8</ele>
    <time>2020-06-14T07:11:53Z</time>
   </trkpt>
   <trkpt lat="51.1966220" lon="5.4191460">
    <ele>47.9</ele>
    <time>2020-06-14T07:11:54Z</time>
   </trkpt>
   <trkpt lat="51.1965830" lon="5.4190630">
    <ele>47.9</ele>
    <time>2020-06-14T07:11:55Z</time>
   </trkpt>
   <trkpt lat="51.1965500" lon="5.4189830">
    <ele>47.9</ele>
    <time>2020-06-14T07:11:56Z</time>
   </trkpt>
   <trkpt lat="51.1965140" lon="5.4189090">
    <ele>48.0</ele>
    <time>2020-06-14T07:11:57Z</time>
   </trkpt>
   <trkpt lat="51.1964800" lon="5.4188330">
    <ele>48.0</ele>
    <time>2020-06-14T07:11:58Z</time>
   </trkpt>
   <trkpt lat="51.1964460" lon="5.4187520">
    <ele>48.0</ele>
    <time>2020-06-14T07:11:59Z</time>
   </trkpt>
   <trkpt lat="51.1964190" lon="5.4186680">
    <ele>48.0</ele>
    <time>2020-06-14T07:12:00Z</time>
   </trkpt>
   <trkpt lat="51.1964030" lon="5.4185740">
    <ele>48.0</ele>
    <time>2020-06-14T07:12:01Z</time>
   </trkpt>
   <trkpt lat="51.1963870" lon="5.4184760">
    <ele>48.0</ele>
    <time>2020-06-14T07:12:02Z</time>
   </trkpt>
   <trkpt lat="51.1963580" lon="5.4182870">
    <ele>47.9</ele>
    <time>2020-06-14T07:12:03Z</time>
   </trkpt>
   <trkpt lat="51.1963500" lon="5.4181840">
    <ele>47.9</ele>
    <time>2020-06-14T07:12:04Z</time>
   </trkpt>
   <trkpt lat="51.1963480" lon="5.4180770">
    <ele>47.9</ele>
    <time>2020-06-14T07:12:05Z</time>
   </trkpt>
   <trkpt lat="51.1963420" lon="5.4179790">
    <ele>47.9</ele>
    <time>2020-06-14T07:12:06Z</time>
   </trkpt>
   <trkpt lat="51.1963380" lon="5.4178780">
    <ele>48.0</ele>
    <time>2020-06-14T07:12:07Z</time>
   </trkpt>
   <trkpt lat="51.1963340" lon="5.4177750">
    <ele>47.9</ele>
    <time>2020-06-14T07:12:08Z</time>
   </trkpt>
   <trkpt lat="51.1963250" lon="5.4176730">
    <ele>47.9</ele>
    <time>2020-06-14T07:12:09Z</time>
   </trkpt>
   <trkpt lat="51.1963370" lon="5.4175630">
    <ele>47.9</ele>
    <time>2020-06-14T07:12:10Z</time>
   </trkpt>
   <trkpt lat="51.1963190" lon="5.4174510">
    <ele>47.9</ele>
    <time>2020-06-14T07:12:11Z</time>
   </trkpt>
   <trkpt lat="51.1963070" lon="5.4173380">
    <ele>47.8</ele>
    <time>2020-06-14T07:12:12Z</time>
   </trkpt>
   <trkpt lat="51.1962940" lon="5.4172270">
    <ele>47.8</ele>
    <time>2020-06-14T07:12:13Z</time>
   </trkpt>
   <trkpt lat="51.1962930" lon="5.4171240">
    <ele>47.8</ele>
    <time>2020-06-14T07:12:14Z</time>
   </trkpt>
   <trkpt lat="51.1962750" lon="5.4170250">
    <ele>47.8</ele>
    <time>2020-06-14T07:12:15Z</time>
   </trkpt>
   <trkpt lat="51.1962560" lon="5.4169250">
    <ele>47.8</ele>
    <time>2020-06-14T07:12:16Z</time>
   </trkpt>
   <trkpt lat="51.1962390" lon="5.4168210">
    <ele>47.8</ele>
    <time>2020-06-14T07:12:17Z</time>
   </trkpt>
   <trkpt lat="51.1962270" lon="5.4167160">
    <ele>47.7</ele>
    <time>2020-06-14T07:12:18Z</time>
   </trkpt>
   <trkpt lat="51.1962130" lon="5.4166170">
    <ele>47.7</ele>
    <time>2020-06-14T07:12:19Z</time>
   </trkpt>
   <trkpt lat="51.1961920" lon="5.4165230">
    <ele>47.7</ele>
    <time>2020-06-14T07:12:20Z</time>
   </trkpt>
   <trkpt lat="51.1961640" lon="5.4164310">
    <ele>47.7</ele>
    <time>2020-06-14T07:12:21Z</time>
   </trkpt>
   <trkpt lat="51.1961300" lon="5.4163400">
    <ele>47.7</ele>
    <time>2020-06-14T07:12:22Z</time>
   </trkpt>
   <trkpt lat="51.1960980" lon="5.4162450">
    <ele>47.7</ele>
    <time>2020-06-14T07:12:23Z</time>
   </trkpt>
   <trkpt lat="51.1960610" lon="5.4161510">
    <ele>47.7</ele>
    <time>2020-06-14T07:12:24Z</time>
   </trkpt>
   <trkpt lat="51.1960240" lon="5.4160570">
    <ele>47.7</ele>
    <time>2020-06-14T07:12:25Z</time>
   </trkpt>
   <trkpt lat="51.1959860" lon="5.4159670">
    <ele>47.7</ele>
    <time>2020-06-14T07:12:26Z</time>
   </trkpt>
   <trkpt lat="51.1959460" lon="5.4158780">
    <ele>47.7</ele>
    <time>2020-06-14T07:12:27Z</time>
   </trkpt>
   <trkpt lat="51.1959050" lon="5.4157810">
    <ele>47.7</ele>
    <time>2020-06-14T07:12:28Z</time>
   </trkpt>
   <trkpt lat="51.1958650" lon="5.4156840">
    <ele>47.8</ele>
    <time>2020-06-14T07:12:29Z</time>
   </trkpt>
   <trkpt lat="51.1958240" lon="5.4155860">
    <ele>47.8</ele>
    <time>2020-06-14T07:12:30Z</time>
   </trkpt>
   <trkpt lat="51.1957820" lon="5.4154810">
    <ele>47.8</ele>
    <time>2020-06-14T07:12:31Z</time>
   </trkpt>
   <trkpt lat="51.1957410" lon="5.4153750">
    <ele>47.8</ele>
    <time>2020-06-14T07:12:32Z</time>
   </trkpt>
   <trkpt lat="51.1956990" lon="5.4152720">
    <ele>47.9</ele>
    <time>2020-06-14T07:12:33Z</time>
   </trkpt>
   <trkpt lat="51.1956560" lon="5.4151690">
    <ele>47.9</ele>
    <time>2020-06-14T07:12:34Z</time>
   </trkpt>
   <trkpt lat="51.1956130" lon="5.4150680">
    <ele>47.9</ele>
    <time>2020-06-14T07:12:35Z</time>
   </trkpt>
   <trkpt lat="51.1955720" lon="5.4149670">
    <ele>47.9</ele>
    <time>2020-06-14T07:12:36Z</time>
   </trkpt>
   <trkpt lat="51.1955330" lon="5.4148690">
    <ele>47.9</ele>
    <time>2020-06-14T07:12:37Z</time>
   </trkpt>
   <trkpt lat="51.1954930" lon="5.4147700">
    <ele>48.0</ele>
    <time>2020-06-14T07:12:38Z</time>
   </trkpt>
   <trkpt lat="51.1954530" lon="5.4146730">
    <ele>48.0</ele>
    <time>2020-06-14T07:12:39Z</time>
   </trkpt>
   <trkpt lat="51.1954110" lon="5.4145780">
    <ele>48.0</ele>
    <time>2020-06-14T07:12:40Z</time>
   </trkpt>
   <trkpt lat="51.1953710" lon="5.4144870">
    <ele>48.0</ele>
    <time>2020-06-14T07:12:41Z</time>
   </trkpt>
   <trkpt lat="51.1953310" lon="5.4143940">
    <ele>48.1</ele>
    <time>2020-06-14T07:12:42Z</time>
   </trkpt>
   <trkpt lat="51.1952910" lon="5.4142950">
    <ele>48.1</ele>
    <time>2020-06-14T07:12:43Z</time>
   </trkpt>
   <trkpt lat="51.1952510" lon="5.4141960">
    <ele>48.1</ele>
    <time>2020-06-14T07:12:44Z</time>
   </trkpt>
   <trkpt lat="51.1952120" lon="5.4141010">
    <ele>48.1</ele>
    <time>2020-06-14T07:12:45Z</time>
   </trkpt>
   <trkpt lat="51.1951720" lon="5.4140080">
    <ele>48.1</ele>
    <time>2020-06-14T07:12:46Z</time>
   </trkpt>
   <trkpt lat="51.1951330" lon="5.4139160">
    <ele>48.2</ele>
    <time>2020-06-14T07:12:47Z</time>
   </trkpt>
   <trkpt lat="51.1950920" lon="5.4138250">
    <ele>48.2</ele>
    <time>2020-06-14T07:12:48Z</time>
   </trkpt>
   <trkpt lat="51.1950530" lon="5.4137310">
    <ele>48.2</ele>
    <time>2020-06-14T07:12:49Z</time>
   </trkpt>
   <trkpt lat="51.1950130" lon="5.4136390">
    <ele>48.2</ele>
    <time>2020-06-14T07:12:50Z</time>
   </trkpt>
   <trkpt lat="51.1949780" lon="5.4135380">
    <ele>48.2</ele>
    <time>2020-06-14T07:12:51Z</time>
   </trkpt>
   <trkpt lat="51.1949420" lon="5.4134380">
    <ele>48.2</ele>
    <time>2020-06-14T07:12:52Z</time>
   </trkpt>
   <trkpt lat="51.1949180" lon="5.4133330">
    <ele>48.2</ele>
    <time>2020-06-14T07:12:53Z</time>
   </trkpt>
   <trkpt lat="51.1948970" lon="5.4132280">
    <ele>48.2</ele>
    <time>2020-06-14T07:12:54Z</time>
   </trkpt>
   <trkpt lat="51.1948780" lon="5.4131300">
    <ele>48.2</ele>
    <time>2020-06-14T07:12:55Z</time>
   </trkpt>
   <trkpt lat="51.1948620" lon="5.4130320">
    <ele>48.2</ele>
    <time>2020-06-14T07:12:56Z</time>
   </trkpt>
   <trkpt lat="51.1948460" lon="5.4129330">
    <ele>48.2</ele>
    <time>2020-06-14T07:12:57Z</time>
   </trkpt>
   <trkpt lat="51.1948290" lon="5.4128370">
    <ele>48.2</ele>
    <time>2020-06-14T07:12:58Z</time>
   </trkpt>
   <trkpt lat="51.1948120" lon="5.4127420">
    <ele>48.2</ele>
    <time>2020-06-14T07:12:59Z</time>
   </trkpt>
   <trkpt lat="51.1947930" lon="5.4126450">
    <ele>48.2</ele>
    <time>2020-06-14T07:13:00Z</time>
   </trkpt>
   <trkpt lat="51.1947730" lon="5.4125490">
    <ele>48.2</ele>
    <time>2020-06-14T07:13:01Z</time>
   </trkpt>
   <trkpt lat="51.1947600" lon="5.4124590">
    <ele>48.1</ele>
    <time>2020-06-14T07:13:02Z</time>
   </trkpt>
   <trkpt lat="51.1947500" lon="5.4123660">
    <ele>48.1</ele>
    <time>2020-06-14T07:13:03Z</time>
   </trkpt>
   <trkpt lat="51.1947400" lon="5.4122590">
    <ele>48.1</ele>
    <time>2020-06-14T07:13:04Z</time>
   </trkpt>
   <trkpt lat="51.1947350" lon="5.4121490">
    <ele>48.1</ele>
    <time>2020-06-14T07:13:05Z</time>
   </trkpt>
   <trkpt lat="51.1947440" lon="5.4120410">
    <ele>48.1</ele>
    <time>2020-06-14T07:13:06Z</time>
   </trkpt>
   <trkpt lat="51.1947610" lon="5.4119310">
    <ele>48.1</ele>
    <time>2020-06-14T07:13:07Z</time>
   </trkpt>
   <trkpt lat="51.1947840" lon="5.4118280">
    <ele>48.1</ele>
    <time>2020-06-14T07:13:08Z</time>
   </trkpt>
   <trkpt lat="51.1948020" lon="5.4117250">
    <ele>48.1</ele>
    <time>2020-06-14T07:13:09Z</time>
   </trkpt>
   <trkpt lat="51.1948220" lon="5.4116210">
    <ele>48.1</ele>
    <time>2020-06-14T07:13:10Z</time>
   </trkpt>
   <trkpt lat="51.1948420" lon="5.4115150">
    <ele>48.2</ele>
    <time>2020-06-14T07:13:11Z</time>
   </trkpt>
   <trkpt lat="51.1948620" lon="5.4114070">
    <ele>48.2</ele>
    <time>2020-06-14T07:13:12Z</time>
   </trkpt>
   <trkpt lat="51.1948830" lon="5.4112990">
    <ele>48.2</ele>
    <time>2020-06-14T07:13:13Z</time>
   </trkpt>
   <trkpt lat="51.1949020" lon="5.4111950">
    <ele>48.3</ele>
    <time>2020-06-14T07:13:14Z</time>
   </trkpt>
   <trkpt lat="51.1949210" lon="5.4110930">
    <ele>48.3</ele>
    <time>2020-06-14T07:13:15Z</time>
   </trkpt>
   <trkpt lat="51.1949370" lon="5.4109990">
    <ele>48.3</ele>
    <time>2020-06-14T07:13:16Z</time>
   </trkpt>
   <trkpt lat="51.1949580" lon="5.4109120">
    <ele>48.4</ele>
    <time>2020-06-14T07:13:17Z</time>
   </trkpt>
   <trkpt lat="51.1949720" lon="5.4108250">
    <ele>48.4</ele>
    <time>2020-06-14T07:13:18Z</time>
   </trkpt>
   <trkpt lat="51.1949880" lon="5.4107380">
    <ele>48.4</ele>
    <time>2020-06-14T07:13:19Z</time>
   </trkpt>
   <trkpt lat="51.1950110" lon="5.4106520">
    <ele>48.3</ele>
    <time>2020-06-14T07:13:20Z</time>
   </trkpt>
   <trkpt lat="51.1950320" lon="5.4105670">
    <ele>48.3</ele>
    <time>2020-06-14T07:13:21Z</time>
   </trkpt>
   <trkpt lat="51.1950500" lon="5.4104760">
    <ele>48.2</ele>
    <time>2020-06-14T07:13:22Z</time>
   </trkpt>
   <trkpt lat="51.1950710" lon="5.4103860">
    <ele>48.2</ele>
    <time>2020-06-14T07:13:23Z</time>
   </trkpt>
   <trkpt lat="51.1950860" lon="5.4102900">
    <ele>48.2</ele>
    <time>2020-06-14T07:13:24Z</time>
   </trkpt>
   <trkpt lat="51.1951110" lon="5.4101990">
    <ele>48.2</ele>
    <time>2020-06-14T07:13:25Z</time>
   </trkpt>
   <trkpt lat="51.1951260" lon="5.4101080">
    <ele>48.2</ele>
    <time>2020-06-14T07:13:26Z</time>
   </trkpt>
   <trkpt lat="51.1951370" lon="5.4100200">
    <ele>48.2</ele>
    <time>2020-06-14T07:13:27Z</time>
   </trkpt>
   <trkpt lat="51.1951500" lon="5.4099370">
    <ele>48.2</ele>
    <time>2020-06-14T07:13:28Z</time>
   </trkpt>
   <trkpt lat="51.1951620" lon="5.4098530">
    <ele>48.3</ele>
    <time>2020-06-14T07:13:29Z</time>
   </trkpt>
   <trkpt lat="51.1951780" lon="5.4097700">
    <ele>48.3</ele>
    <time>2020-06-14T07:13:30Z</time>
   </trkpt>
   <trkpt lat="51.1951950" lon="5.4096840">
    <ele>48.3</ele>
    <time>2020-06-14T07:13:31Z</time>
   </trkpt>
   <trkpt lat="51.1952040" lon="5.4095920">
    <ele>48.2</ele>
    <time>2020-06-14T07:13:32Z</time>
   </trkpt>
   <trkpt lat="51.1951830" lon="5.4095000">
    <ele>48.2</ele>
    <time>2020-06-14T07:13:33Z</time>
   </trkpt>
   <trkpt lat="51.1951640" lon="5.4094020">
    <ele>48.2</ele>
    <time>2020-06-14T07:13:34Z</time>
   </trkpt>
   <trkpt lat="51.1951530" lon="5.4092950">
    <ele>48.2</ele>
    <time>2020-06-14T07:13:35Z</time>
   </trkpt>
   <trkpt lat="51.1951350" lon="5.4091850">
    <ele>48.3</ele>
    <time>2020-06-14T07:13:36Z</time>
   </trkpt>
   <trkpt lat="51.1951160" lon="5.4090730">
    <ele>48.3</ele>
    <time>2020-06-14T07:13:37Z</time>
   </trkpt>
   <trkpt lat="51.1950940" lon="5.4089650">
    <ele>48.4</ele>
    <time>2020-06-14T07:13:38Z</time>
   </trkpt>
   <trkpt lat="51.1950730" lon="5.4088600">
    <ele>48.5</ele>
    <time>2020-06-14T07:13:39Z</time>
   </trkpt>
   <trkpt lat="51.1950550" lon="5.4087530">
    <ele>48.5</ele>
    <time>2020-06-14T07:13:40Z</time>
   </trkpt>
   <trkpt lat="51.1950380" lon="5.4086430">
    <ele>48.6</ele>
    <time>2020-06-14T07:13:41Z</time>
   </trkpt>
   <trkpt lat="51.1950210" lon="5.4085300">
    <ele>48.7</ele>
    <time>2020-06-14T07:13:42Z</time>
   </trkpt>
   <trkpt lat="51.1950070" lon="5.4084180">
    <ele>48.8</ele>
    <time>2020-06-14T07:13:43Z</time>
   </trkpt>
   <trkpt lat="51.1949930" lon="5.4083160">
    <ele>48.9</ele>
    <time>2020-06-14T07:13:44Z</time>
   </trkpt>
   <trkpt lat="51.1949840" lon="5.4082170">
    <ele>49.0</ele>
    <time>2020-06-14T07:13:45Z</time>
   </trkpt>
   <trkpt lat="51.1949760" lon="5.4081320">
    <ele>49.0</ele>
    <time>2020-06-14T07:13:46Z</time>
   </trkpt>
   <trkpt lat="51.1949680" lon="5.4080400">
    <ele>49.1</ele>
    <time>2020-06-14T07:13:47Z</time>
   </trkpt>
   <trkpt lat="51.1949600" lon="5.4079330">
    <ele>49.1</ele>
    <time>2020-06-14T07:13:48Z</time>
   </trkpt>
   <trkpt lat="51.1949530" lon="5.4078470">
    <ele>49.1</ele>
    <time>2020-06-14T07:13:49Z</time>
   </trkpt>
   <trkpt lat="51.1949440" lon="5.4077500">
    <ele>49.0</ele>
    <time>2020-06-14T07:13:50Z</time>
   </trkpt>
   <trkpt lat="51.1949290" lon="5.4076420">
    <ele>49.0</ele>
    <time>2020-06-14T07:13:51Z</time>
   </trkpt>
   <trkpt lat="51.1949090" lon="5.4075360">
    <ele>48.9</ele>
    <time>2020-06-14T07:13:52Z</time>
   </trkpt>
   <trkpt lat="51.1948840" lon="5.4074250">
    <ele>48.9</ele>
    <time>2020-06-14T07:13:53Z</time>
   </trkpt>
   <trkpt lat="51.1948580" lon="5.4073150">
    <ele>48.9</ele>
    <time>2020-06-14T07:13:54Z</time>
   </trkpt>
   <trkpt lat="51.1948350" lon="5.4072080">
    <ele>48.9</ele>
    <time>2020-06-14T07:13:55Z</time>
   </trkpt>
   <trkpt lat="51.1948140" lon="5.4070960">
    <ele>48.9</ele>
    <time>2020-06-14T07:13:56Z</time>
   </trkpt>
   <trkpt lat="51.1947910" lon="5.4069920">
    <ele>48.9</ele>
    <time>2020-06-14T07:13:57Z</time>
   </trkpt>
   <trkpt lat="51.1947670" lon="5.4068980">
    <ele>48.8</ele>
    <time>2020-06-14T07:13:58Z</time>
   </trkpt>
   <trkpt lat="51.1947460" lon="5.4068050">
    <ele>48.8</ele>
    <time>2020-06-14T07:13:59Z</time>
   </trkpt>
   <trkpt lat="51.1947230" lon="5.4067080">
    <ele>48.8</ele>
    <time>2020-06-14T07:14:00Z</time>
   </trkpt>
   <trkpt lat="51.1947040" lon="5.4066180">
    <ele>48.8</ele>
    <time>2020-06-14T07:14:01Z</time>
   </trkpt>
   <trkpt lat="51.1946850" lon="5.4065290">
    <ele>48.7</ele>
    <time>2020-06-14T07:14:02Z</time>
   </trkpt>
   <trkpt lat="51.1946660" lon="5.4064380">
    <ele>48.7</ele>
    <time>2020-06-14T07:14:03Z</time>
   </trkpt>
   <trkpt lat="51.1946470" lon="5.4063350">
    <ele>48.6</ele>
    <time>2020-06-14T07:14:04Z</time>
   </trkpt>
   <trkpt lat="51.1946310" lon="5.4062360">
    <ele>48.5</ele>
    <time>2020-06-14T07:14:05Z</time>
   </trkpt>
   <trkpt lat="51.1946320" lon="5.4061270">
    <ele>48.5</ele>
    <time>2020-06-14T07:14:06Z</time>
   </trkpt>
   <trkpt lat="51.1946610" lon="5.4060250">
    <ele>48.5</ele>
    <time>2020-06-14T07:14:07Z</time>
   </trkpt>
   <trkpt lat="51.1947020" lon="5.4059440">
    <ele>48.4</ele>
    <time>2020-06-14T07:14:08Z</time>
   </trkpt>
   <trkpt lat="51.1947410" lon="5.4058540">
    <ele>48.4</ele>
    <time>2020-06-14T07:14:09Z</time>
   </trkpt>
   <trkpt lat="51.1947820" lon="5.4057540">
    <ele>48.4</ele>
    <time>2020-06-14T07:14:10Z</time>
   </trkpt>
   <trkpt lat="51.1948240" lon="5.4056630">
    <ele>48.4</ele>
    <time>2020-06-14T07:14:11Z</time>
   </trkpt>
   <trkpt lat="51.1948700" lon="5.4055850">
    <ele>48.4</ele>
    <time>2020-06-14T07:14:12Z</time>
   </trkpt>
   <trkpt lat="51.1949290" lon="5.4054970">
    <ele>48.3</ele>
    <time>2020-06-14T07:14:13Z</time>
   </trkpt>
   <trkpt lat="51.1949800" lon="5.4054110">
    <ele>48.3</ele>
    <time>2020-06-14T07:14:14Z</time>
   </trkpt>
   <trkpt lat="51.1950220" lon="5.4053240">
    <ele>48.3</ele>
    <time>2020-06-14T07:14:15Z</time>
   </trkpt>
   <trkpt lat="51.1950710" lon="5.4052310">
    <ele>48.3</ele>
    <time>2020-06-14T07:14:16Z</time>
   </trkpt>
   <trkpt lat="51.1951200" lon="5.4051420">
    <ele>48.2</ele>
    <time>2020-06-14T07:14:17Z</time>
   </trkpt>
   <trkpt lat="51.1951620" lon="5.4050540">
    <ele>48.2</ele>
    <time>2020-06-14T07:14:18Z</time>
   </trkpt>
   <trkpt lat="51.1952060" lon="5.4049610">
    <ele>48.1</ele>
    <time>2020-06-14T07:14:19Z</time>
   </trkpt>
   <trkpt lat="51.1952460" lon="5.4048800">
    <ele>48.0</ele>
    <time>2020-06-14T07:14:20Z</time>
   </trkpt>
   <trkpt lat="51.1952890" lon="5.4047940">
    <ele>48.0</ele>
    <time>2020-06-14T07:14:21Z</time>
   </trkpt>
   <trkpt lat="51.1953310" lon="5.4047070">
    <ele>47.9</ele>
    <time>2020-06-14T07:14:22Z</time>
   </trkpt>
   <trkpt lat="51.1953700" lon="5.4046230">
    <ele>47.8</ele>
    <time>2020-06-14T07:14:23Z</time>
   </trkpt>
   <trkpt lat="51.1954080" lon="5.4045380">
    <ele>47.8</ele>
    <time>2020-06-14T07:14:24Z</time>
   </trkpt>
   <trkpt lat="51.1954460" lon="5.4044550">
    <ele>47.8</ele>
    <time>2020-06-14T07:14:25Z</time>
   </trkpt>
   <trkpt lat="51.1954850" lon="5.4043750">
    <ele>47.8</ele>
    <time>2020-06-14T07:14:26Z</time>
   </trkpt>
   <trkpt lat="51.1955300" lon="5.4043050">
    <ele>47.8</ele>
    <time>2020-06-14T07:14:27Z</time>
   </trkpt>
   <trkpt lat="51.1955700" lon="5.4042430">
    <ele>47.8</ele>
    <time>2020-06-14T07:14:28Z</time>
   </trkpt>
   <trkpt lat="51.1955980" lon="5.4041930">
    <ele>47.8</ele>
    <time>2020-06-14T07:14:29Z</time>
   </trkpt>
   <trkpt lat="51.1956270" lon="5.4041570">
    <ele>47.8</ele>
    <time>2020-06-14T07:14:30Z</time>
   </trkpt>
   <trkpt lat="51.1956530" lon="5.4041170">
    <ele>47.8</ele>
    <time>2020-06-14T07:14:31Z</time>
   </trkpt>
   <trkpt lat="51.1956780" lon="5.4040770">
    <ele>47.9</ele>
    <time>2020-06-14T07:14:32Z</time>
   </trkpt>
   <trkpt lat="51.1957030" lon="5.4040380">
    <ele>47.9</ele>
    <time>2020-06-14T07:14:33Z</time>
   </trkpt>
   <trkpt lat="51.1957230" lon="5.4039970">
    <ele>47.9</ele>
    <time>2020-06-14T07:14:34Z</time>
   </trkpt>
   <trkpt lat="51.1957370" lon="5.4039590">
    <ele>47.9</ele>
    <time>2020-06-14T07:14:35Z</time>
   </trkpt>
   <trkpt lat="51.1957490" lon="5.4039100">
    <ele>47.9</ele>
    <time>2020-06-14T07:14:36Z</time>
   </trkpt>
   <trkpt lat="51.1957570" lon="5.4038580">
    <ele>47.9</ele>
    <time>2020-06-14T07:14:37Z</time>
   </trkpt>
   <trkpt lat="51.1957610" lon="5.4038150">
    <ele>47.9</ele>
    <time>2020-06-14T07:14:38Z</time>
   </trkpt>
   <trkpt lat="51.1957560" lon="5.4037600">
    <ele>47.9</ele>
    <time>2020-06-14T07:14:39Z</time>
   </trkpt>
   <trkpt lat="51.1957560" lon="5.4036920">
    <ele>47.9</ele>
    <time>2020-06-14T07:14:40Z</time>
   </trkpt>
   <trkpt lat="51.1957580" lon="5.4036200">
    <ele>47.9</ele>
    <time>2020-06-14T07:14:41Z</time>
   </trkpt>
   <trkpt lat="51.1957690" lon="5.4035570">
    <ele>47.9</ele>
    <time>2020-06-14T07:14:42Z</time>
   </trkpt>
   <trkpt lat="51.1957980" lon="5.4035190">
    <ele>47.9</ele>
    <time>2020-06-14T07:14:43Z</time>
   </trkpt>
   <trkpt lat="51.1958450" lon="5.4035250">
    <ele>47.9</ele>
    <time>2020-06-14T07:14:44Z</time>
   </trkpt>
   <trkpt lat="51.1958940" lon="5.4035500">
    <ele>47.9</ele>
    <time>2020-06-14T07:14:45Z</time>
   </trkpt>
   <trkpt lat="51.1959550" lon="5.4035440">
    <ele>48.0</ele>
    <time>2020-06-14T07:14:46Z</time>
   </trkpt>
   <trkpt lat="51.1960160" lon="5.4035340">
    <ele>48.0</ele>
    <time>2020-06-14T07:14:47Z</time>
   </trkpt>
   <trkpt lat="51.1960840" lon="5.4035270">
    <ele>48.1</ele>
    <time>2020-06-14T07:14:48Z</time>
   </trkpt>
   <trkpt lat="51.1961490" lon="5.4035260">
    <ele>48.2</ele>
    <time>2020-06-14T07:14:49Z</time>
   </trkpt>
   <trkpt lat="51.1962140" lon="5.4035220">
    <ele>48.3</ele>
    <time>2020-06-14T07:14:50Z</time>
   </trkpt>
   <trkpt lat="51.1962780" lon="5.4035190">
    <ele>48.4</ele>
    <time>2020-06-14T07:14:51Z</time>
   </trkpt>
   <trkpt lat="51.1963420" lon="5.4035120">
    <ele>48.4</ele>
    <time>2020-06-14T07:14:52Z</time>
   </trkpt>
   <trkpt lat="51.1964030" lon="5.4035170">
    <ele>48.4</ele>
    <time>2020-06-14T07:14:53Z</time>
   </trkpt>
   <trkpt lat="51.1964570" lon="5.4035130">
    <ele>48.4</ele>
    <time>2020-06-14T07:14:54Z</time>
   </trkpt>
   <trkpt lat="51.1965150" lon="5.4035060">
    <ele>48.3</ele>
    <time>2020-06-14T07:14:55Z</time>
   </trkpt>
   <trkpt lat="51.1965650" lon="5.4035040">
    <ele>48.3</ele>
    <time>2020-06-14T07:14:56Z</time>
   </trkpt>
   <trkpt lat="51.1966090" lon="5.4034980">
    <ele>48.3</ele>
    <time>2020-06-14T07:14:57Z</time>
   </trkpt>
   <trkpt lat="51.1966540" lon="5.4034970">
    <ele>48.3</ele>
    <time>2020-06-14T07:14:58Z</time>
   </trkpt>
   <trkpt lat="51.1966970" lon="5.4034910">
    <ele>48.3</ele>
    <time>2020-06-14T07:14:59Z</time>
   </trkpt>
   <trkpt lat="51.1967350" lon="5.4034850">
    <ele>48.3</ele>
    <time>2020-06-14T07:15:00Z</time>
   </trkpt>
   <trkpt lat="51.1967830" lon="5.4034810">
    <ele>48.4</ele>
    <time>2020-06-14T07:15:01Z</time>
   </trkpt>
   <trkpt lat="51.1968320" lon="5.4034800">
    <ele>48.4</ele>
    <time>2020-06-14T07:15:02Z</time>
   </trkpt>
   <trkpt lat="51.1968790" lon="5.4034790">
    <ele>48.4</ele>
    <time>2020-06-14T07:15:03Z</time>
   </trkpt>
   <trkpt lat="51.1969230" lon="5.4034520">
    <ele>48.5</ele>
    <time>2020-06-14T07:15:04Z</time>
   </trkpt>
   <trkpt lat="51.1969520" lon="5.4033820">
    <ele>48.6</ele>
    <time>2020-06-14T07:15:05Z</time>
   </trkpt>
   <trkpt lat="51.1969550" lon="5.4032860">
    <ele>48.4</ele>
    <time>2020-06-14T07:15:06Z</time>
   </trkpt>
   <trkpt lat="51.1969440" lon="5.4031860">
    <ele>48.2</ele>
    <time>2020-06-14T07:15:07Z</time>
   </trkpt>
   <trkpt lat="51.1969140" lon="5.4030840">
    <ele>47.9</ele>
    <time>2020-06-14T07:15:08Z</time>
   </trkpt>
   <trkpt lat="51.1968840" lon="5.4029750">
    <ele>47.7</ele>
    <time>2020-06-14T07:15:09Z</time>
   </trkpt>
   <trkpt lat="51.1968610" lon="5.4028740">
    <ele>47.5</ele>
    <time>2020-06-14T07:15:10Z</time>
   </trkpt>
   <trkpt lat="51.1968360" lon="5.4027550">
    <ele>47.2</ele>
    <time>2020-06-14T07:15:11Z</time>
   </trkpt>
   <trkpt lat="51.1968120" lon="5.4026530">
    <ele>47.1</ele>
    <time>2020-06-14T07:15:12Z</time>
   </trkpt>
   <trkpt lat="51.1967940" lon="5.4025530">
    <ele>47.1</ele>
    <time>2020-06-14T07:15:13Z</time>
   </trkpt>
   <trkpt lat="51.1967680" lon="5.4024500">
    <ele>47.0</ele>
    <time>2020-06-14T07:15:14Z</time>
   </trkpt>
   <trkpt lat="51.1967410" lon="5.4023550">
    <ele>47.0</ele>
    <time>2020-06-14T07:15:15Z</time>
   </trkpt>
   <trkpt lat="51.1967190" lon="5.4022500">
    <ele>46.9</ele>
    <time>2020-06-14T07:15:16Z</time>
   </trkpt>
   <trkpt lat="51.1966950" lon="5.4021500">
    <ele>46.8</ele>
    <time>2020-06-14T07:15:17Z</time>
   </trkpt>
   <trkpt lat="51.1966700" lon="5.4020360">
    <ele>46.7</ele>
    <time>2020-06-14T07:15:18Z</time>
   </trkpt>
   <trkpt lat="51.1966440" lon="5.4019320">
    <ele>46.6</ele>
    <time>2020-06-14T07:15:19Z</time>
   </trkpt>
   <trkpt lat="51.1966140" lon="5.4018160">
    <ele>46.5</ele>
    <time>2020-06-14T07:15:20Z</time>
   </trkpt>
   <trkpt lat="51.1965880" lon="5.4017010">
    <ele>46.5</ele>
    <time>2020-06-14T07:15:21Z</time>
   </trkpt>
   <trkpt lat="51.1965650" lon="5.4016060">
    <ele>46.4</ele>
    <time>2020-06-14T07:15:22Z</time>
   </trkpt>
   <trkpt lat="51.1965360" lon="5.4014960">
    <ele>46.4</ele>
    <time>2020-06-14T07:15:23Z</time>
   </trkpt>
   <trkpt lat="51.1965080" lon="5.4013930">
    <ele>46.5</ele>
    <time>2020-06-14T07:15:24Z</time>
   </trkpt>
   <trkpt lat="51.1964800" lon="5.4012860">
    <ele>46.5</ele>
    <time>2020-06-14T07:15:25Z</time>
   </trkpt>
   <trkpt lat="51.1964550" lon="5.4011810">
    <ele>46.5</ele>
    <time>2020-06-14T07:15:26Z</time>
   </trkpt>
   <trkpt lat="51.1964320" lon="5.4010840">
    <ele>46.5</ele>
    <time>2020-06-14T07:15:27Z</time>
   </trkpt>
   <trkpt lat="51.1964020" lon="5.4009900">
    <ele>46.5</ele>
    <time>2020-06-14T07:15:28Z</time>
   </trkpt>
   <trkpt lat="51.1963760" lon="5.4009010">
    <ele>46.5</ele>
    <time>2020-06-14T07:15:29Z</time>
   </trkpt>
   <trkpt lat="51.1963480" lon="5.4008050">
    <ele>46.5</ele>
    <time>2020-06-14T07:15:30Z</time>
   </trkpt>
   <trkpt lat="51.1963190" lon="5.4007020">
    <ele>46.5</ele>
    <time>2020-06-14T07:15:31Z</time>
   </trkpt>
   <trkpt lat="51.1962890" lon="5.4005950">
    <ele>46.5</ele>
    <time>2020-06-14T07:15:32Z</time>
   </trkpt>
   <trkpt lat="51.1962580" lon="5.4004910">
    <ele>46.5</ele>
    <time>2020-06-14T07:15:33Z</time>
   </trkpt>
   <trkpt lat="51.1962310" lon="5.4003900">
    <ele>46.5</ele>
    <time>2020-06-14T07:15:34Z</time>
   </trkpt>
   <trkpt lat="51.1962030" lon="5.4002880">
    <ele>46.6</ele>
    <time>2020-06-14T07:15:35Z</time>
   </trkpt>
   <trkpt lat="51.1961760" lon="5.4001860">
    <ele>46.6</ele>
    <time>2020-06-14T07:15:36Z</time>
   </trkpt>
   <trkpt lat="51.1961500" lon="5.4000860">
    <ele>46.6</ele>
    <time>2020-06-14T07:15:37Z</time>
   </trkpt>
   <trkpt lat="51.1961250" lon="5.3999830">
    <ele>46.7</ele>
    <time>2020-06-14T07:15:38Z</time>
   </trkpt>
   <trkpt lat="51.1961000" lon="5.3998820">
    <ele>46.7</ele>
    <time>2020-06-14T07:15:39Z</time>
   </trkpt>
   <trkpt lat="51.1960820" lon="5.3997770">
    <ele>46.7</ele>
    <time>2020-06-14T07:15:40Z</time>
   </trkpt>
   <trkpt lat="51.1960570" lon="5.3996780">
    <ele>46.8</ele>
    <time>2020-06-14T07:15:41Z</time>
   </trkpt>
   <trkpt lat="51.1960370" lon="5.3995810">
    <ele>46.8</ele>
    <time>2020-06-14T07:15:42Z</time>
   </trkpt>
   <trkpt lat="51.1960160" lon="5.3994820">
    <ele>46.8</ele>
    <time>2020-06-14T07:15:43Z</time>
   </trkpt>
   <trkpt lat="51.1959920" lon="5.3993860">
    <ele>46.9</ele>
    <time>2020-06-14T07:15:44Z</time>
   </trkpt>
   <trkpt lat="51.1959700" lon="5.3992880">
    <ele>46.9</ele>
    <time>2020-06-14T07:15:45Z</time>
   </trkpt>
   <trkpt lat="51.1959480" lon="5.3991910">
    <ele>46.9</ele>
    <time>2020-06-14T07:15:46Z</time>
   </trkpt>
   <trkpt lat="51.1959200" lon="5.3990950">
    <ele>46.9</ele>
    <time>2020-06-14T07:15:47Z</time>
   </trkpt>
   <trkpt lat="51.1958840" lon="5.3989930">
    <ele>47.0</ele>
    <time>2020-06-14T07:15:48Z</time>
   </trkpt>
   <trkpt lat="51.1958590" lon="5.3988880">
    <ele>47.0</ele>
    <time>2020-06-14T07:15:49Z</time>
   </trkpt>
   <trkpt lat="51.1958360" lon="5.3987820">
    <ele>47.1</ele>
    <time>2020-06-14T07:15:50Z</time>
   </trkpt>
   <trkpt lat="51.1958090" lon="5.3986750">
    <ele>47.1</ele>
    <time>2020-06-14T07:15:51Z</time>
   </trkpt>
   <trkpt lat="51.1957790" lon="5.3985740">
    <ele>47.2</ele>
    <time>2020-06-14T07:15:52Z</time>
   </trkpt>
   <trkpt lat="51.1957530" lon="5.3984700">
    <ele>47.2</ele>
    <time>2020-06-14T07:15:53Z</time>
   </trkpt>
   <trkpt lat="51.1957230" lon="5.3983670">
    <ele>47.2</ele>
    <time>2020-06-14T07:15:54Z</time>
   </trkpt>
   <trkpt lat="51.1956990" lon="5.3982580">
    <ele>47.3</ele>
    <time>2020-06-14T07:15:55Z</time>
   </trkpt>
   <trkpt lat="51.1956670" lon="5.3981550">
    <ele>47.4</ele>
    <time>2020-06-14T07:15:56Z</time>
   </trkpt>
   <trkpt lat="51.1956350" lon="5.3980560">
    <ele>47.4</ele>
    <time>2020-06-14T07:15:57Z</time>
   </trkpt>
   <trkpt lat="51.1956070" lon="5.3979570">
    <ele>47.5</ele>
    <time>2020-06-14T07:15:58Z</time>
   </trkpt>
   <trkpt lat="51.1955810" lon="5.3978570">
    <ele>47.6</ele>
    <time>2020-06-14T07:15:59Z</time>
   </trkpt>
   <trkpt lat="51.1955550" lon="5.3977590">
    <ele>47.6</ele>
    <time>2020-06-14T07:16:00Z</time>
   </trkpt>
   <trkpt lat="51.1955280" lon="5.3976640">
    <ele>47.7</ele>
    <time>2020-06-14T07:16:01Z</time>
   </trkpt>
   <trkpt lat="51.1955090" lon="5.3975700">
    <ele>47.7</ele>
    <time>2020-06-14T07:16:02Z</time>
   </trkpt>
   <trkpt lat="51.1954860" lon="5.3974780">
    <ele>47.7</ele>
    <time>2020-06-14T07:16:03Z</time>
   </trkpt>
   <trkpt lat="51.1954650" lon="5.3973840">
    <ele>47.8</ele>
    <time>2020-06-14T07:16:04Z</time>
   </trkpt>
   <trkpt lat="51.1954380" lon="5.3972890">
    <ele>47.8</ele>
    <time>2020-06-14T07:16:05Z</time>
   </trkpt>
   <trkpt lat="51.1954140" lon="5.3971950">
    <ele>47.8</ele>
    <time>2020-06-14T07:16:06Z</time>
   </trkpt>
   <trkpt lat="51.1953900" lon="5.3971010">
    <ele>47.9</ele>
    <time>2020-06-14T07:16:07Z</time>
   </trkpt>
   <trkpt lat="51.1953610" lon="5.3970070">
    <ele>48.0</ele>
    <time>2020-06-14T07:16:08Z</time>
   </trkpt>
   <trkpt lat="51.1953380" lon="5.3969050">
    <ele>48.0</ele>
    <time>2020-06-14T07:16:09Z</time>
   </trkpt>
   <trkpt lat="51.1953170" lon="5.3968030">
    <ele>48.1</ele>
    <time>2020-06-14T07:16:10Z</time>
   </trkpt>
   <trkpt lat="51.1952980" lon="5.3967010">
    <ele>48.2</ele>
    <time>2020-06-14T07:16:11Z</time>
   </trkpt>
   <trkpt lat="51.1952740" lon="5.3966020">
    <ele>48.4</ele>
    <time>2020-06-14T07:16:12Z</time>
   </trkpt>
   <trkpt lat="51.1952510" lon="5.3965040">
    <ele>48.5</ele>
    <time>2020-06-14T07:16:13Z</time>
   </trkpt>
   <trkpt lat="51.1952310" lon="5.3964020">
    <ele>48.5</ele>
    <time>2020-06-14T07:16:14Z</time>
   </trkpt>
   <trkpt lat="51.1952070" lon="5.3963020">
    <ele>48.5</ele>
    <time>2020-06-14T07:16:15Z</time>
   </trkpt>
   <trkpt lat="51.1951770" lon="5.3962070">
    <ele>48.5</ele>
    <time>2020-06-14T07:16:16Z</time>
   </trkpt>
   <trkpt lat="51.1951540" lon="5.3961090">
    <ele>48.4</ele>
    <time>2020-06-14T07:16:17Z</time>
   </trkpt>
   <trkpt lat="51.1951320" lon="5.3960130">
    <ele>48.4</ele>
    <time>2020-06-14T07:16:18Z</time>
   </trkpt>
   <trkpt lat="51.1951100" lon="5.3959210">
    <ele>48.4</ele>
    <time>2020-06-14T07:16:19Z</time>
   </trkpt>
   <trkpt lat="51.1950840" lon="5.3958330">
    <ele>48.4</ele>
    <time>2020-06-14T07:16:20Z</time>
   </trkpt>
   <trkpt lat="51.1950570" lon="5.3957420">
    <ele>48.3</ele>
    <time>2020-06-14T07:16:21Z</time>
   </trkpt>
   <trkpt lat="51.1950330" lon="5.3956450">
    <ele>48.3</ele>
    <time>2020-06-14T07:16:22Z</time>
   </trkpt>
   <trkpt lat="51.1950150" lon="5.3955470">
    <ele>48.3</ele>
    <time>2020-06-14T07:16:23Z</time>
   </trkpt>
   <trkpt lat="51.1950020" lon="5.3954450">
    <ele>48.3</ele>
    <time>2020-06-14T07:16:24Z</time>
   </trkpt>
   <trkpt lat="51.1949880" lon="5.3953440">
    <ele>48.2</ele>
    <time>2020-06-14T07:16:25Z</time>
   </trkpt>
   <trkpt lat="51.1949680" lon="5.3952460">
    <ele>48.2</ele>
    <time>2020-06-14T07:16:26Z</time>
   </trkpt>
   <trkpt lat="51.1949390" lon="5.3951460">
    <ele>48.3</ele>
    <time>2020-06-14T07:16:27Z</time>
   </trkpt>
   <trkpt lat="51.1949160" lon="5.3950410">
    <ele>48.3</ele>
    <time>2020-06-14T07:16:28Z</time>
   </trkpt>
   <trkpt lat="51.1948920" lon="5.3949390">
    <ele>48.3</ele>
    <time>2020-06-14T07:16:29Z</time>
   </trkpt>
   <trkpt lat="51.1948700" lon="5.3948350">
    <ele>48.4</ele>
    <time>2020-06-14T07:16:30Z</time>
   </trkpt>
   <trkpt lat="51.1948450" lon="5.3947340">
    <ele>48.4</ele>
    <time>2020-06-14T07:16:31Z</time>
   </trkpt>
   <trkpt lat="51.1948220" lon="5.3946350">
    <ele>48.4</ele>
    <time>2020-06-14T07:16:32Z</time>
   </trkpt>
   <trkpt lat="51.1948060" lon="5.3945360">
    <ele>48.4</ele>
    <time>2020-06-14T07:16:33Z</time>
   </trkpt>
   <trkpt lat="51.1947850" lon="5.3944380">
    <ele>48.4</ele>
    <time>2020-06-14T07:16:34Z</time>
   </trkpt>
   <trkpt lat="51.1947590" lon="5.3943390">
    <ele>48.4</ele>
    <time>2020-06-14T07:16:35Z</time>
   </trkpt>
   <trkpt lat="51.1947300" lon="5.3942410">
    <ele>48.4</ele>
    <time>2020-06-14T07:16:36Z</time>
   </trkpt>
   <trkpt lat="51.1947030" lon="5.3941460">
    <ele>48.4</ele>
    <time>2020-06-14T07:16:37Z</time>
   </trkpt>
   <trkpt lat="51.1946790" lon="5.3940550">
    <ele>48.4</ele>
    <time>2020-06-14T07:16:38Z</time>
   </trkpt>
   <trkpt lat="51.1946530" lon="5.3939640">
    <ele>48.4</ele>
    <time>2020-06-14T07:16:39Z</time>
   </trkpt>
   <trkpt lat="51.1946300" lon="5.3938740">
    <ele>48.4</ele>
    <time>2020-06-14T07:16:40Z</time>
   </trkpt>
   <trkpt lat="51.1946030" lon="5.3937860">
    <ele>48.5</ele>
    <time>2020-06-14T07:16:41Z</time>
   </trkpt>
   <trkpt lat="51.1945760" lon="5.3936950">
    <ele>48.5</ele>
    <time>2020-06-14T07:16:42Z</time>
   </trkpt>
   <trkpt lat="51.1945490" lon="5.3936050">
    <ele>48.6</ele>
    <time>2020-06-14T07:16:43Z</time>
   </trkpt>
   <trkpt lat="51.1945190" lon="5.3935130">
    <ele>48.6</ele>
    <time>2020-06-14T07:16:44Z</time>
   </trkpt>
   <trkpt lat="51.1944890" lon="5.3934160">
    <ele>48.7</ele>
    <time>2020-06-14T07:16:45Z</time>
   </trkpt>
   <trkpt lat="51.1944560" lon="5.3933190">
    <ele>48.8</ele>
    <time>2020-06-14T07:16:46Z</time>
   </trkpt>
   <trkpt lat="51.1944200" lon="5.3932210">
    <ele>48.8</ele>
    <time>2020-06-14T07:16:47Z</time>
   </trkpt>
   <trkpt lat="51.1943790" lon="5.3931260">
    <ele>48.9</ele>
    <time>2020-06-14T07:16:48Z</time>
   </trkpt>
   <trkpt lat="51.1943400" lon="5.3930330">
    <ele>48.9</ele>
    <time>2020-06-14T07:16:49Z</time>
   </trkpt>
   <trkpt lat="51.1943020" lon="5.3929380">
    <ele>49.0</ele>
    <time>2020-06-14T07:16:50Z</time>
   </trkpt>
   <trkpt lat="51.1942630" lon="5.3928430">
    <ele>49.0</ele>
    <time>2020-06-14T07:16:51Z</time>
   </trkpt>
   <trkpt lat="51.1942180" lon="5.3927550">
    <ele>49.1</ele>
    <time>2020-06-14T07:16:52Z</time>
   </trkpt>
   <trkpt lat="51.1941780" lon="5.3926670">
    <ele>49.2</ele>
    <time>2020-06-14T07:16:53Z</time>
   </trkpt>
   <trkpt lat="51.1941450" lon="5.3925750">
    <ele>49.3</ele>
    <time>2020-06-14T07:16:54Z</time>
   </trkpt>
   <trkpt lat="51.1941140" lon="5.3924850">
    <ele>49.5</ele>
    <time>2020-06-14T07:16:55Z</time>
   </trkpt>
   <trkpt lat="51.1940800" lon="5.3924000">
    <ele>49.6</ele>
    <time>2020-06-14T07:16:56Z</time>
   </trkpt>
   <trkpt lat="51.1940470" lon="5.3923150">
    <ele>49.7</ele>
    <time>2020-06-14T07:16:57Z</time>
   </trkpt>
   <trkpt lat="51.1940170" lon="5.3922350">
    <ele>49.9</ele>
    <time>2020-06-14T07:16:58Z</time>
   </trkpt>
   <trkpt lat="51.1939880" lon="5.3921390">
    <ele>50.0</ele>
    <time>2020-06-14T07:16:59Z</time>
   </trkpt>
   <trkpt lat="51.1939590" lon="5.3920530">
    <ele>50.1</ele>
    <time>2020-06-14T07:17:00Z</time>
   </trkpt>
   <trkpt lat="51.1939270" lon="5.3919670">
    <ele>50.3</ele>
    <time>2020-06-14T07:17:01Z</time>
   </trkpt>
   <trkpt lat="51.1938940" lon="5.3918660">
    <ele>50.4</ele>
    <time>2020-06-14T07:17:02Z</time>
   </trkpt>
   <trkpt lat="51.1938640" lon="5.3917680">
    <ele>50.5</ele>
    <time>2020-06-14T07:17:03Z</time>
   </trkpt>
   <trkpt lat="51.1938390" lon="5.3916700">
    <ele>50.7</ele>
    <time>2020-06-14T07:17:04Z</time>
   </trkpt>
   <trkpt lat="51.1938130" lon="5.3915710">
    <ele>50.8</ele>
    <time>2020-06-14T07:17:05Z</time>
   </trkpt>
   <trkpt lat="51.1937830" lon="5.3914610">
    <ele>50.9</ele>
    <time>2020-06-14T07:17:06Z</time>
   </trkpt>
   <trkpt lat="51.1937540" lon="5.3913480">
    <ele>50.9</ele>
    <time>2020-06-14T07:17:07Z</time>
   </trkpt>
   <trkpt lat="51.1937310" lon="5.3912430">
    <ele>50.9</ele>
    <time>2020-06-14T07:17:08Z</time>
   </trkpt>
   <trkpt lat="51.1937050" lon="5.3911440">
    <ele>51.0</ele>
    <time>2020-06-14T07:17:09Z</time>
   </trkpt>
   <trkpt lat="51.1936830" lon="5.3910550">
    <ele>51.0</ele>
    <time>2020-06-14T07:17:10Z</time>
   </trkpt>
   <trkpt lat="51.1936630" lon="5.3909710">
    <ele>51.0</ele>
    <time>2020-06-14T07:17:11Z</time>
   </trkpt>
   <trkpt lat="51.1936400" lon="5.3908790">
    <ele>51.0</ele>
    <time>2020-06-14T07:17:12Z</time>
   </trkpt>
   <trkpt lat="51.1936190" lon="5.3907970">
    <ele>51.0</ele>
    <time>2020-06-14T07:17:13Z</time>
   </trkpt>
   <trkpt lat="51.1935980" lon="5.3907030">
    <ele>51.0</ele>
    <time>2020-06-14T07:17:14Z</time>
   </trkpt>
   <trkpt lat="51.1935780" lon="5.3906130">
    <ele>51.0</ele>
    <time>2020-06-14T07:17:15Z</time>
   </trkpt>
   <trkpt lat="51.1935610" lon="5.3905320">
    <ele>51.0</ele>
    <time>2020-06-14T07:17:16Z</time>
   </trkpt>
   <trkpt lat="51.1935440" lon="5.3904410">
    <ele>51.0</ele>
    <time>2020-06-14T07:17:17Z</time>
   </trkpt>
   <trkpt lat="51.1935260" lon="5.3903550">
    <ele>50.9</ele>
    <time>2020-06-14T07:17:18Z</time>
   </trkpt>
   <trkpt lat="51.1935080" lon="5.3902720">
    <ele>50.9</ele>
    <time>2020-06-14T07:17:19Z</time>
   </trkpt>
   <trkpt lat="51.1934900" lon="5.3901770">
    <ele>50.8</ele>
    <time>2020-06-14T07:17:20Z</time>
   </trkpt>
   <trkpt lat="51.1934730" lon="5.3900800">
    <ele>50.7</ele>
    <time>2020-06-14T07:17:21Z</time>
   </trkpt>
   <trkpt lat="51.1934490" lon="5.3899810">
    <ele>50.6</ele>
    <time>2020-06-14T07:17:22Z</time>
   </trkpt>
   <trkpt lat="51.1934250" lon="5.3898700">
    <ele>50.5</ele>
    <time>2020-06-14T07:17:23Z</time>
   </trkpt>
   <trkpt lat="51.1934020" lon="5.3897640">
    <ele>50.4</ele>
    <time>2020-06-14T07:17:24Z</time>
   </trkpt>
   <trkpt lat="51.1933800" lon="5.3896500">
    <ele>50.3</ele>
    <time>2020-06-14T07:17:25Z</time>
   </trkpt>
   <trkpt lat="51.1933570" lon="5.3895370">
    <ele>50.2</ele>
    <time>2020-06-14T07:17:26Z</time>
   </trkpt>
   <trkpt lat="51.1933400" lon="5.3894210">
    <ele>50.1</ele>
    <time>2020-06-14T07:17:27Z</time>
   </trkpt>
   <trkpt lat="51.1933310" lon="5.3893040">
    <ele>50.0</ele>
    <time>2020-06-14T07:17:28Z</time>
   </trkpt>
   <trkpt lat="51.1933150" lon="5.3891890">
    <ele>50.0</ele>
    <time>2020-06-14T07:17:29Z</time>
   </trkpt>
   <trkpt lat="51.1933040" lon="5.3890770">
    <ele>49.9</ele>
    <time>2020-06-14T07:17:30Z</time>
   </trkpt>
   <trkpt lat="51.1932920" lon="5.3889650">
    <ele>49.9</ele>
    <time>2020-06-14T07:17:31Z</time>
   </trkpt>
   <trkpt lat="51.1932850" lon="5.3888580">
    <ele>50.0</ele>
    <time>2020-06-14T07:17:32Z</time>
   </trkpt>
   <trkpt lat="51.1932790" lon="5.3887530">
    <ele>50.1</ele>
    <time>2020-06-14T07:17:33Z</time>
   </trkpt>
   <trkpt lat="51.1932760" lon="5.3886630">
    <ele>50.1</ele>
    <time>2020-06-14T07:17:34Z</time>
   </trkpt>
   <trkpt lat="51.1932700" lon="5.3885640">
    <ele>50.1</ele>
    <time>2020-06-14T07:17:35Z</time>
   </trkpt>
   <trkpt lat="51.1932630" lon="5.3884660">
    <ele>50.1</ele>
    <time>2020-06-14T07:17:36Z</time>
   </trkpt>
   <trkpt lat="51.1932580" lon="5.3883630">
    <ele>50.1</ele>
    <time>2020-06-14T07:17:37Z</time>
   </trkpt>
   <trkpt lat="51.1932500" lon="5.3882610">
    <ele>50.0</ele>
    <time>2020-06-14T07:17:38Z</time>
   </trkpt>
   <trkpt lat="51.1932400" lon="5.3881520">
    <ele>50.0</ele>
    <time>2020-06-14T07:17:39Z</time>
   </trkpt>
   <trkpt lat="51.1932330" lon="5.3880420">
    <ele>49.9</ele>
    <time>2020-06-14T07:17:40Z</time>
   </trkpt>
   <trkpt lat="51.1932250" lon="5.3879350">
    <ele>49.9</ele>
    <time>2020-06-14T07:17:41Z</time>
   </trkpt>
   <trkpt lat="51.1932160" lon="5.3878250">
    <ele>49.9</ele>
    <time>2020-06-14T07:17:42Z</time>
   </trkpt>
   <trkpt lat="51.1932030" lon="5.3877130">
    <ele>50.0</ele>
    <time>2020-06-14T07:17:43Z</time>
   </trkpt>
   <trkpt lat="51.1931900" lon="5.3875960">
    <ele>50.0</ele>
    <time>2020-06-14T07:17:44Z</time>
   </trkpt>
   <trkpt lat="51.1931780" lon="5.3874790">
    <ele>50.0</ele>
    <time>2020-06-14T07:17:45Z</time>
   </trkpt>
   <trkpt lat="51.1931680" lon="5.3873620">
    <ele>50.0</ele>
    <time>2020-06-14T07:17:46Z</time>
   </trkpt>
   <trkpt lat="51.1931610" lon="5.3872430">
    <ele>50.0</ele>
    <time>2020-06-14T07:17:47Z</time>
   </trkpt>
   <trkpt lat="51.1931520" lon="5.3871290">
    <ele>50.1</ele>
    <time>2020-06-14T07:17:48Z</time>
   </trkpt>
   <trkpt lat="51.1931430" lon="5.3870160">
    <ele>50.1</ele>
    <time>2020-06-14T07:17:49Z</time>
   </trkpt>
   <trkpt lat="51.1931290" lon="5.3869010">
    <ele>50.1</ele>
    <time>2020-06-14T07:17:50Z</time>
   </trkpt>
   <trkpt lat="51.1931170" lon="5.3867880">
    <ele>50.1</ele>
    <time>2020-06-14T07:17:51Z</time>
   </trkpt>
   <trkpt lat="51.1931040" lon="5.3866790">
    <ele>50.1</ele>
    <time>2020-06-14T07:17:52Z</time>
   </trkpt>
   <trkpt lat="51.1930910" lon="5.3865710">
    <ele>50.2</ele>
    <time>2020-06-14T07:17:53Z</time>
   </trkpt>
   <trkpt lat="51.1930800" lon="5.3864630">
    <ele>50.2</ele>
    <time>2020-06-14T07:17:54Z</time>
   </trkpt>
   <trkpt lat="51.1930720" lon="5.3863510">
    <ele>50.2</ele>
    <time>2020-06-14T07:17:55Z</time>
   </trkpt>
   <trkpt lat="51.1930630" lon="5.3862400">
    <ele>50.3</ele>
    <time>2020-06-14T07:17:56Z</time>
   </trkpt>
   <trkpt lat="51.1930590" lon="5.3861280">
    <ele>50.3</ele>
    <time>2020-06-14T07:17:57Z</time>
   </trkpt>
   <trkpt lat="51.1930540" lon="5.3860170">
    <ele>50.3</ele>
    <time>2020-06-14T07:17:58Z</time>
   </trkpt>
   <trkpt lat="51.1930460" lon="5.3859110">
    <ele>50.4</ele>
    <time>2020-06-14T07:17:59Z</time>
   </trkpt>
   <trkpt lat="51.1930420" lon="5.3858060">
    <ele>50.4</ele>
    <time>2020-06-14T07:18:00Z</time>
   </trkpt>
   <trkpt lat="51.1930320" lon="5.3856980">
    <ele>50.4</ele>
    <time>2020-06-14T07:18:01Z</time>
   </trkpt>
   <trkpt lat="51.1930240" lon="5.3855850">
    <ele>50.5</ele>
    <time>2020-06-14T07:18:02Z</time>
   </trkpt>
   <trkpt lat="51.1930160" lon="5.3854730">
    <ele>50.6</ele>
    <time>2020-06-14T07:18:03Z</time>
   </trkpt>
   <trkpt lat="51.1930070" lon="5.3853600">
    <ele>50.6</ele>
    <time>2020-06-14T07:18:04Z</time>
   </trkpt>
   <trkpt lat="51.1929960" lon="5.3852460">
    <ele>50.7</ele>
    <time>2020-06-14T07:18:05Z</time>
   </trkpt>
   <trkpt lat="51.1929850" lon="5.3851300">
    <ele>50.6</ele>
    <time>2020-06-14T07:18:06Z</time>
   </trkpt>
   <trkpt lat="51.1929760" lon="5.3850170">
    <ele>50.6</ele>
    <time>2020-06-14T07:18:07Z</time>
   </trkpt>
   <trkpt lat="51.1929630" lon="5.3849080">
    <ele>50.6</ele>
    <time>2020-06-14T07:18:08Z</time>
   </trkpt>
   <trkpt lat="51.1929550" lon="5.3848030">
    <ele>50.6</ele>
    <time>2020-06-14T07:18:09Z</time>
   </trkpt>
   <trkpt lat="51.1929490" lon="5.3847020">
    <ele>50.6</ele>
    <time>2020-06-14T07:18:10Z</time>
   </trkpt>
   <trkpt lat="51.1929380" lon="5.3846020">
    <ele>50.6</ele>
    <time>2020-06-14T07:18:11Z</time>
   </trkpt>
   <trkpt lat="51.1929330" lon="5.3844980">
    <ele>50.7</ele>
    <time>2020-06-14T07:18:12Z</time>
   </trkpt>
   <trkpt lat="51.1929280" lon="5.3843920">
    <ele>50.7</ele>
    <time>2020-06-14T07:18:13Z</time>
   </trkpt>
   <trkpt lat="51.1929220" lon="5.3842840">
    <ele>50.7</ele>
    <time>2020-06-14T07:18:14Z</time>
   </trkpt>
   <trkpt lat="51.1929190" lon="5.3841750">
    <ele>50.7</ele>
    <time>2020-06-14T07:18:15Z</time>
   </trkpt>
   <trkpt lat="51.1929100" lon="5.3840660">
    <ele>50.8</ele>
    <time>2020-06-14T07:18:16Z</time>
   </trkpt>
   <trkpt lat="51.1928960" lon="5.3839640">
    <ele>50.8</ele>
    <time>2020-06-14T07:18:17Z</time>
   </trkpt>
   <trkpt lat="51.1928920" lon="5.3838610">
    <ele>50.8</ele>
    <time>2020-06-14T07:18:18Z</time>
   </trkpt>
   <trkpt lat="51.1928860" lon="5.3837610">
    <ele>50.8</ele>
    <time>2020-06-14T07:18:19Z</time>
   </trkpt>
   <trkpt lat="51.1928810" lon="5.3836580">
    <ele>50.9</ele>
    <time>2020-06-14T07:18:20Z</time>
   </trkpt>
   <trkpt lat="51.1928700" lon="5.3835540">
    <ele>50.9</ele>
    <time>2020-06-14T07:18:21Z</time>
   </trkpt>
   <trkpt lat="51.1928600" lon="5.3834430">
    <ele>50.9</ele>
    <time>2020-06-14T07:18:22Z</time>
   </trkpt>
   <trkpt lat="51.1928510" lon="5.3833300">
    <ele>50.9</ele>
    <time>2020-06-14T07:18:23Z</time>
   </trkpt>
   <trkpt lat="51.1928460" lon="5.3832130">
    <ele>50.9</ele>
    <time>2020-06-14T07:18:24Z</time>
   </trkpt>
   <trkpt lat="51.1928390" lon="5.3830980">
    <ele>50.9</ele>
    <time>2020-06-14T07:18:25Z</time>
   </trkpt>
   <trkpt lat="51.1928290" lon="5.3829850">
    <ele>50.9</ele>
    <time>2020-06-14T07:18:26Z</time>
   </trkpt>
   <trkpt lat="51.1928210" lon="5.3828740">
    <ele>50.8</ele>
    <time>2020-06-14T07:18:27Z</time>
   </trkpt>
   <trkpt lat="51.1928130" lon="5.3827630">
    <ele>50.8</ele>
    <time>2020-06-14T07:18:28Z</time>
   </trkpt>
   <trkpt lat="51.1928030" lon="5.3826530">
    <ele>50.8</ele>
    <time>2020-06-14T07:18:29Z</time>
   </trkpt>
   <trkpt lat="51.1927980" lon="5.3825450">
    <ele>50.8</ele>
    <time>2020-06-14T07:18:30Z</time>
   </trkpt>
   <trkpt lat="51.1927950" lon="5.3824340">
    <ele>50.7</ele>
    <time>2020-06-14T07:18:31Z</time>
   </trkpt>
   <trkpt lat="51.1927890" lon="5.3823200">
    <ele>50.7</ele>
    <time>2020-06-14T07:18:32Z</time>
   </trkpt>
   <trkpt lat="51.1927900" lon="5.3822020">
    <ele>50.7</ele>
    <time>2020-06-14T07:18:33Z</time>
   </trkpt>
   <trkpt lat="51.1927780" lon="5.3820850">
    <ele>50.6</ele>
    <time>2020-06-14T07:18:34Z</time>
   </trkpt>
   <trkpt lat="51.1927690" lon="5.3819630">
    <ele>50.6</ele>
    <time>2020-06-14T07:18:35Z</time>
   </trkpt>
   <trkpt lat="51.1927550" lon="5.3818440">
    <ele>50.6</ele>
    <time>2020-06-14T07:18:36Z</time>
   </trkpt>
   <trkpt lat="51.1927460" lon="5.3817280">
    <ele>50.6</ele>
    <time>2020-06-14T07:18:37Z</time>
   </trkpt>
   <trkpt lat="51.1927360" lon="5.3816110">
    <ele>50.5</ele>
    <time>2020-06-14T07:18:38Z</time>
   </trkpt>
   <trkpt lat="51.1927280" lon="5.3814920">
    <ele>50.5</ele>
    <time>2020-06-14T07:18:39Z</time>
   </trkpt>
   <trkpt lat="51.1927200" lon="5.3813750">
    <ele>50.5</ele>
    <time>2020-06-14T07:18:40Z</time>
   </trkpt>
   <trkpt lat="51.1927130" lon="5.3812590">
    <ele>50.4</ele>
    <time>2020-06-14T07:18:41Z</time>
   </trkpt>
   <trkpt lat="51.1927090" lon="5.3811370">
    <ele>50.4</ele>
    <time>2020-06-14T07:18:42Z</time>
   </trkpt>
   <trkpt lat="51.1927010" lon="5.3810150">
    <ele>50.4</ele>
    <time>2020-06-14T07:18:43Z</time>
   </trkpt>
   <trkpt lat="51.1926910" lon="5.3808950">
    <ele>50.3</ele>
    <time>2020-06-14T07:18:44Z</time>
   </trkpt>
   <trkpt lat="51.1926790" lon="5.3807780">
    <ele>50.3</ele>
    <time>2020-06-14T07:18:45Z</time>
   </trkpt>
   <trkpt lat="51.1926720" lon="5.3806620">
    <ele>50.3</ele>
    <time>2020-06-14T07:18:46Z</time>
   </trkpt>
   <trkpt lat="51.1926170" lon="5.3805580">
    <ele>50.2</ele>
    <time>2020-06-14T07:18:47Z</time>
   </trkpt>
   <trkpt lat="51.1925840" lon="5.3804460">
    <ele>50.2</ele>
    <time>2020-06-14T07:18:48Z</time>
   </trkpt>
   <trkpt lat="51.1925530" lon="5.3803290">
    <ele>50.1</ele>
    <time>2020-06-14T07:18:49Z</time>
   </trkpt>
   <trkpt lat="51.1925330" lon="5.3802110">
    <ele>50.0</ele>
    <time>2020-06-14T07:18:50Z</time>
   </trkpt>
   <trkpt lat="51.1925240" lon="5.3800960">
    <ele>49.9</ele>
    <time>2020-06-14T07:18:51Z</time>
   </trkpt>
   <trkpt lat="51.1925160" lon="5.3799820">
    <ele>49.8</ele>
    <time>2020-06-14T07:18:52Z</time>
   </trkpt>
   <trkpt lat="51.1925090" lon="5.3798660">
    <ele>49.8</ele>
    <time>2020-06-14T07:18:53Z</time>
   </trkpt>
   <trkpt lat="51.1925060" lon="5.3797490">
    <ele>49.9</ele>
    <time>2020-06-14T07:18:54Z</time>
   </trkpt>
   <trkpt lat="51.1925880" lon="5.3796530">
    <ele>49.9</ele>
    <time>2020-06-14T07:18:55Z</time>
   </trkpt>
   <trkpt lat="51.1925990" lon="5.3795250">
    <ele>49.9</ele>
    <time>2020-06-14T07:18:56Z</time>
   </trkpt>
   <trkpt lat="51.1926140" lon="5.3793990">
    <ele>49.8</ele>
    <time>2020-06-14T07:18:57Z</time>
   </trkpt>
   <trkpt lat="51.1926290" lon="5.3792760">
    <ele>49.8</ele>
    <time>2020-06-14T07:18:58Z</time>
   </trkpt>
   <trkpt lat="51.1926460" lon="5.3791560">
    <ele>49.7</ele>
    <time>2020-06-14T07:18:59Z</time>
   </trkpt>
   <trkpt lat="51.1926560" lon="5.3790360">
    <ele>49.7</ele>
    <time>2020-06-14T07:19:00Z</time>
   </trkpt>
   <trkpt lat="51.1926700" lon="5.3789220">
    <ele>49.7</ele>
    <time>2020-06-14T07:19:01Z</time>
   </trkpt>
   <trkpt lat="51.1926870" lon="5.3788080">
    <ele>49.7</ele>
    <time>2020-06-14T07:19:02Z</time>
   </trkpt>
   <trkpt lat="51.1927040" lon="5.3786960">
    <ele>49.7</ele>
    <time>2020-06-14T07:19:03Z</time>
   </trkpt>
   <trkpt lat="51.1927190" lon="5.3785850">
    <ele>49.7</ele>
    <time>2020-06-14T07:19:04Z</time>
   </trkpt>
   <trkpt lat="51.1927320" lon="5.3784760">
    <ele>49.7</ele>
    <time>2020-06-14T07:19:05Z</time>
   </trkpt>
   <trkpt lat="51.1927430" lon="5.3783690">
    <ele>49.7</ele>
    <time>2020-06-14T07:19:06Z</time>
   </trkpt>
   <trkpt lat="51.1927540" lon="5.3782610">
    <ele>49.7</ele>
    <time>2020-06-14T07:19:07Z</time>
   </trkpt>
   <trkpt lat="51.1927650" lon="5.3781520">
    <ele>49.7</ele>
    <time>2020-06-14T07:19:08Z</time>
   </trkpt>
   <trkpt lat="51.1927770" lon="5.3780500">
    <ele>49.8</ele>
    <time>2020-06-14T07:19:09Z</time>
   </trkpt>
   <trkpt lat="51.1927870" lon="5.3779450">
    <ele>49.8</ele>
    <time>2020-06-14T07:19:10Z</time>
   </trkpt>
   <trkpt lat="51.1927960" lon="5.3778370">
    <ele>49.8</ele>
    <time>2020-06-14T07:19:11Z</time>
   </trkpt>
   <trkpt lat="51.1928080" lon="5.3777280">
    <ele>49.8</ele>
    <time>2020-06-14T07:19:12Z</time>
   </trkpt>
   <trkpt lat="51.1928190" lon="5.3776200">
    <ele>49.8</ele>
    <time>2020-06-14T07:19:13Z</time>
   </trkpt>
   <trkpt lat="51.1928300" lon="5.3775080">
    <ele>49.8</ele>
    <time>2020-06-14T07:19:14Z</time>
   </trkpt>
   <trkpt lat="51.1928390" lon="5.3773930">
    <ele>49.8</ele>
    <time>2020-06-14T07:19:15Z</time>
   </trkpt>
   <trkpt lat="51.1928410" lon="5.3772760">
    <ele>49.8</ele>
    <time>2020-06-14T07:19:16Z</time>
   </trkpt>
   <trkpt lat="51.1928370" lon="5.3771560">
    <ele>49.9</ele>
    <time>2020-06-14T07:19:17Z</time>
   </trkpt>
   <trkpt lat="51.1928330" lon="5.3770340">
    <ele>49.9</ele>
    <time>2020-06-14T07:19:18Z</time>
   </trkpt>
   <trkpt lat="51.1928330" lon="5.3769140">
    <ele>49.9</ele>
    <time>2020-06-14T07:19:19Z</time>
   </trkpt>
   <trkpt lat="51.1928270" lon="5.3767930">
    <ele>50.0</ele>
    <time>2020-06-14T07:19:20Z</time>
   </trkpt>
   <trkpt lat="51.1928250" lon="5.3766730">
    <ele>50.0</ele>
    <time>2020-06-14T07:19:21Z</time>
   </trkpt>
   <trkpt lat="51.1928180" lon="5.3765560">
    <ele>50.1</ele>
    <time>2020-06-14T07:19:22Z</time>
   </trkpt>
   <trkpt lat="51.1928140" lon="5.3764450">
    <ele>50.2</ele>
    <time>2020-06-14T07:19:23Z</time>
   </trkpt>
   <trkpt lat="51.1928150" lon="5.3763360">
    <ele>50.3</ele>
    <time>2020-06-14T07:19:24Z</time>
   </trkpt>
   <trkpt lat="51.1928080" lon="5.3762240">
    <ele>50.4</ele>
    <time>2020-06-14T07:19:25Z</time>
   </trkpt>
   <trkpt lat="51.1928050" lon="5.3761130">
    <ele>50.4</ele>
    <time>2020-06-14T07:19:26Z</time>
   </trkpt>
   <trkpt lat="51.1928030" lon="5.3760050">
    <ele>50.4</ele>
    <time>2020-06-14T07:19:27Z</time>
   </trkpt>
   <trkpt lat="51.1928070" lon="5.3759010">
    <ele>50.4</ele>
    <time>2020-06-14T07:19:28Z</time>
   </trkpt>
   <trkpt lat="51.1928040" lon="5.3758010">
    <ele>50.5</ele>
    <time>2020-06-14T07:19:29Z</time>
   </trkpt>
   <trkpt lat="51.1928020" lon="5.3756940">
    <ele>50.5</ele>
    <time>2020-06-14T07:19:30Z</time>
   </trkpt>
   <trkpt lat="51.1927930" lon="5.3755830">
    <ele>50.6</ele>
    <time>2020-06-14T07:19:31Z</time>
   </trkpt>
   <trkpt lat="51.1927830" lon="5.3754750">
    <ele>50.6</ele>
    <time>2020-06-14T07:19:32Z</time>
   </trkpt>
   <trkpt lat="51.1927730" lon="5.3753740">
    <ele>50.7</ele>
    <time>2020-06-14T07:19:33Z</time>
   </trkpt>
   <trkpt lat="51.1927700" lon="5.3752750">
    <ele>50.7</ele>
    <time>2020-06-14T07:19:34Z</time>
   </trkpt>
   <trkpt lat="51.1927590" lon="5.3751760">
    <ele>50.7</ele>
    <time>2020-06-14T07:19:35Z</time>
   </trkpt>
   <trkpt lat="51.1927520" lon="5.3750730">
    <ele>50.8</ele>
    <time>2020-06-14T07:19:36Z</time>
   </trkpt>
   <trkpt lat="51.1927500" lon="5.3749650">
    <ele>50.8</ele>
    <time>2020-06-14T07:19:37Z</time>
   </trkpt>
   <trkpt lat="51.1927440" lon="5.3748550">
    <ele>50.8</ele>
    <time>2020-06-14T07:19:38Z</time>
   </trkpt>
   <trkpt lat="51.1927410" lon="5.3747460">
    <ele>50.8</ele>
    <time>2020-06-14T07:19:39Z</time>
   </trkpt>
   <trkpt lat="51.1927400" lon="5.3746370">
    <ele>50.8</ele>
    <time>2020-06-14T07:19:40Z</time>
   </trkpt>
   <trkpt lat="51.1927410" lon="5.3745290">
    <ele>50.8</ele>
    <time>2020-06-14T07:19:41Z</time>
   </trkpt>
   <trkpt lat="51.1927380" lon="5.3744200">
    <ele>50.8</ele>
    <time>2020-06-14T07:19:42Z</time>
   </trkpt>
   <trkpt lat="51.1927370" lon="5.3743090">
    <ele>50.9</ele>
    <time>2020-06-14T07:19:43Z</time>
   </trkpt>
   <trkpt lat="51.1927400" lon="5.3741940">
    <ele>50.9</ele>
    <time>2020-06-14T07:19:44Z</time>
   </trkpt>
   <trkpt lat="51.1927420" lon="5.3740760">
    <ele>50.9</ele>
    <time>2020-06-14T07:19:45Z</time>
   </trkpt>
   <trkpt lat="51.1927390" lon="5.3739590">
    <ele>50.9</ele>
    <time>2020-06-14T07:19:46Z</time>
   </trkpt>
   <trkpt lat="51.1927350" lon="5.3738440">
    <ele>50.9</ele>
    <time>2020-06-14T07:19:47Z</time>
   </trkpt>
   <trkpt lat="51.1927340" lon="5.3737300">
    <ele>51.0</ele>
    <time>2020-06-14T07:19:48Z</time>
   </trkpt>
   <trkpt lat="51.1927310" lon="5.3736180">
    <ele>51.0</ele>
    <time>2020-06-14T07:19:49Z</time>
   </trkpt>
   <trkpt lat="51.1927250" lon="5.3735020">
    <ele>51.0</ele>
    <time>2020-06-14T07:19:50Z</time>
   </trkpt>
   <trkpt lat="51.1927170" lon="5.3733870">
    <ele>51.0</ele>
    <time>2020-06-14T07:19:51Z</time>
   </trkpt>
   <trkpt lat="51.1927090" lon="5.3732740">
    <ele>51.0</ele>
    <time>2020-06-14T07:19:52Z</time>
   </trkpt>
   <trkpt lat="51.1927050" lon="5.3731590">
    <ele>50.9</ele>
    <time>2020-06-14T07:19:53Z</time>
   </trkpt>
   <trkpt lat="51.1926970" lon="5.3730440">
    <ele>50.8</ele>
    <time>2020-06-14T07:19:54Z</time>
   </trkpt>
   <trkpt lat="51.1926910" lon="5.3729290">
    <ele>50.7</ele>
    <time>2020-06-14T07:19:55Z</time>
   </trkpt>
   <trkpt lat="51.1926850" lon="5.3728150">
    <ele>50.7</ele>
    <time>2020-06-14T07:19:56Z</time>
   </trkpt>
   <trkpt lat="51.1926820" lon="5.3727020">
    <ele>50.6</ele>
    <time>2020-06-14T07:19:57Z</time>
   </trkpt>
   <trkpt lat="51.1926770" lon="5.3725870">
    <ele>50.6</ele>
    <time>2020-06-14T07:19:58Z</time>
   </trkpt>
   <trkpt lat="51.1926710" lon="5.3724730">
    <ele>50.6</ele>
    <time>2020-06-14T07:19:59Z</time>
   </trkpt>
   <trkpt lat="51.1926710" lon="5.3723580">
    <ele>50.5</ele>
    <time>2020-06-14T07:20:00Z</time>
   </trkpt>
   <trkpt lat="51.1926710" lon="5.3722450">
    <ele>50.5</ele>
    <time>2020-06-14T07:20:01Z</time>
   </trkpt>
   <trkpt lat="51.1926660" lon="5.3721280">
    <ele>50.5</ele>
    <time>2020-06-14T07:20:02Z</time>
   </trkpt>
   <trkpt lat="51.1926720" lon="5.3720090">
    <ele>50.5</ele>
    <time>2020-06-14T07:20:03Z</time>
   </trkpt>
   <trkpt lat="51.1926740" lon="5.3718920">
    <ele>50.5</ele>
    <time>2020-06-14T07:20:04Z</time>
   </trkpt>
   <trkpt lat="51.1926780" lon="5.3717810">
    <ele>50.5</ele>
    <time>2020-06-14T07:20:05Z</time>
   </trkpt>
   <trkpt lat="51.1926880" lon="5.3716770">
    <ele>50.5</ele>
    <time>2020-06-14T07:20:06Z</time>
   </trkpt>
   <trkpt lat="51.1926970" lon="5.3715730">
    <ele>50.5</ele>
    <time>2020-06-14T07:20:07Z</time>
   </trkpt>
   <trkpt lat="51.1927000" lon="5.3714710">
    <ele>50.5</ele>
    <time>2020-06-14T07:20:08Z</time>
   </trkpt>
   <trkpt lat="51.1927030" lon="5.3713670">
    <ele>50.4</ele>
    <time>2020-06-14T07:20:09Z</time>
   </trkpt>
   <trkpt lat="51.1927020" lon="5.3712610">
    <ele>50.4</ele>
    <time>2020-06-14T07:20:10Z</time>
   </trkpt>
   <trkpt lat="51.1927020" lon="5.3711490">
    <ele>50.4</ele>
    <time>2020-06-14T07:20:11Z</time>
   </trkpt>
   <trkpt lat="51.1927030" lon="5.3710370">
    <ele>50.4</ele>
    <time>2020-06-14T07:20:12Z</time>
   </trkpt>
   <trkpt lat="51.1927050" lon="5.3709250">
    <ele>50.4</ele>
    <time>2020-06-14T07:20:13Z</time>
   </trkpt>
   <trkpt lat="51.1927060" lon="5.3708140">
    <ele>50.4</ele>
    <time>2020-06-14T07:20:14Z</time>
   </trkpt>
   <trkpt lat="51.1927120" lon="5.3707020">
    <ele>50.4</ele>
    <time>2020-06-14T07:20:15Z</time>
   </trkpt>
   <trkpt lat="51.1927090" lon="5.3705880">
    <ele>50.4</ele>
    <time>2020-06-14T07:20:16Z</time>
   </trkpt>
   <trkpt lat="51.1927110" lon="5.3704740">
    <ele>50.4</ele>
    <time>2020-06-14T07:20:17Z</time>
   </trkpt>
   <trkpt lat="51.1927140" lon="5.3703620">
    <ele>50.4</ele>
    <time>2020-06-14T07:20:18Z</time>
   </trkpt>
   <trkpt lat="51.1927130" lon="5.3702490">
    <ele>50.4</ele>
    <time>2020-06-14T07:20:19Z</time>
   </trkpt>
   <trkpt lat="51.1927160" lon="5.3701340">
    <ele>50.4</ele>
    <time>2020-06-14T07:20:20Z</time>
   </trkpt>
   <trkpt lat="51.1927160" lon="5.3700200">
    <ele>50.4</ele>
    <time>2020-06-14T07:20:21Z</time>
   </trkpt>
   <trkpt lat="51.1927100" lon="5.3699080">
    <ele>50.4</ele>
    <time>2020-06-14T07:20:22Z</time>
   </trkpt>
   <trkpt lat="51.1927110" lon="5.3697950">
    <ele>50.3</ele>
    <time>2020-06-14T07:20:23Z</time>
   </trkpt>
   <trkpt lat="51.1927130" lon="5.3696810">
    <ele>50.3</ele>
    <time>2020-06-14T07:20:24Z</time>
   </trkpt>
   <trkpt lat="51.1927130" lon="5.3695620">
    <ele>50.3</ele>
    <time>2020-06-14T07:20:25Z</time>
   </trkpt>
   <trkpt lat="51.1927120" lon="5.3694410">
    <ele>50.2</ele>
    <time>2020-06-14T07:20:26Z</time>
   </trkpt>
   <trkpt lat="51.1927120" lon="5.3693200">
    <ele>50.2</ele>
    <time>2020-06-14T07:20:27Z</time>
   </trkpt>
   <trkpt lat="51.1927090" lon="5.3692020">
    <ele>50.2</ele>
    <time>2020-06-14T07:20:28Z</time>
   </trkpt>
   <trkpt lat="51.1927610" lon="5.3690780">
    <ele>50.2</ele>
    <time>2020-06-14T07:20:29Z</time>
   </trkpt>
   <trkpt lat="51.1927600" lon="5.3689620">
    <ele>50.2</ele>
    <time>2020-06-14T07:20:30Z</time>
   </trkpt>
   <trkpt lat="51.1927600" lon="5.3688490">
    <ele>50.1</ele>
    <time>2020-06-14T07:20:31Z</time>
   </trkpt>
   <trkpt lat="51.1927580" lon="5.3687400">
    <ele>50.0</ele>
    <time>2020-06-14T07:20:32Z</time>
   </trkpt>
   <trkpt lat="51.1927580" lon="5.3686310">
    <ele>50.0</ele>
    <time>2020-06-14T07:20:33Z</time>
   </trkpt>
   <trkpt lat="51.1927600" lon="5.3685190">
    <ele>49.9</ele>
    <time>2020-06-14T07:20:34Z</time>
   </trkpt>
   <trkpt lat="51.1927640" lon="5.3684070">
    <ele>49.9</ele>
    <time>2020-06-14T07:20:35Z</time>
   </trkpt>
   <trkpt lat="51.1927650" lon="5.3682940">
    <ele>49.9</ele>
    <time>2020-06-14T07:20:36Z</time>
   </trkpt>
   <trkpt lat="51.1927640" lon="5.3681850">
    <ele>49.9</ele>
    <time>2020-06-14T07:20:37Z</time>
   </trkpt>
   <trkpt lat="51.1927650" lon="5.3680720">
    <ele>49.9</ele>
    <time>2020-06-14T07:20:38Z</time>
   </trkpt>
   <trkpt lat="51.1927660" lon="5.3679570">
    <ele>49.9</ele>
    <time>2020-06-14T07:20:39Z</time>
   </trkpt>
   <trkpt lat="51.1927660" lon="5.3678420">
    <ele>49.9</ele>
    <time>2020-06-14T07:20:40Z</time>
   </trkpt>
   <trkpt lat="51.1927680" lon="5.3677300">
    <ele>49.9</ele>
    <time>2020-06-14T07:20:41Z</time>
   </trkpt>
   <trkpt lat="51.1927680" lon="5.3676200">
    <ele>49.9</ele>
    <time>2020-06-14T07:20:42Z</time>
   </trkpt>
   <trkpt lat="51.1927680" lon="5.3675110">
    <ele>49.9</ele>
    <time>2020-06-14T07:20:43Z</time>
   </trkpt>
   <trkpt lat="51.1927680" lon="5.3674070">
    <ele>49.8</ele>
    <time>2020-06-14T07:20:44Z</time>
   </trkpt>
   <trkpt lat="51.1927690" lon="5.3673030">
    <ele>49.8</ele>
    <time>2020-06-14T07:20:45Z</time>
   </trkpt>
   <trkpt lat="51.1927680" lon="5.3671980">
    <ele>49.8</ele>
    <time>2020-06-14T07:20:46Z</time>
   </trkpt>
   <trkpt lat="51.1927720" lon="5.3670900">
    <ele>49.8</ele>
    <time>2020-06-14T07:20:47Z</time>
   </trkpt>
   <trkpt lat="51.1927750" lon="5.3669810">
    <ele>49.8</ele>
    <time>2020-06-14T07:20:48Z</time>
   </trkpt>
   <trkpt lat="51.1927700" lon="5.3668710">
    <ele>49.8</ele>
    <time>2020-06-14T07:20:49Z</time>
   </trkpt>
   <trkpt lat="51.1927690" lon="5.3667600">
    <ele>49.8</ele>
    <time>2020-06-14T07:20:50Z</time>
   </trkpt>
   <trkpt lat="51.1927540" lon="5.3666480">
    <ele>49.8</ele>
    <time>2020-06-14T07:20:51Z</time>
   </trkpt>
   <trkpt lat="51.1927530" lon="5.3665400">
    <ele>49.9</ele>
    <time>2020-06-14T07:20:52Z</time>
   </trkpt>
   <trkpt lat="51.1927530" lon="5.3664260">
    <ele>49.9</ele>
    <time>2020-06-14T07:20:53Z</time>
   </trkpt>
   <trkpt lat="51.1927480" lon="5.3663140">
    <ele>49.9</ele>
    <time>2020-06-14T07:20:54Z</time>
   </trkpt>
   <trkpt lat="51.1927480" lon="5.3662030">
    <ele>49.9</ele>
    <time>2020-06-14T07:20:55Z</time>
   </trkpt>
   <trkpt lat="51.1927460" lon="5.3660950">
    <ele>49.9</ele>
    <time>2020-06-14T07:20:56Z</time>
   </trkpt>
   <trkpt lat="51.1927450" lon="5.3659880">
    <ele>49.9</ele>
    <time>2020-06-14T07:20:57Z</time>
   </trkpt>
   <trkpt lat="51.1927430" lon="5.3658820">
    <ele>50.0</ele>
    <time>2020-06-14T07:20:58Z</time>
   </trkpt>
   <trkpt lat="51.1927430" lon="5.3657740">
    <ele>49.9</ele>
    <time>2020-06-14T07:20:59Z</time>
   </trkpt>
   <trkpt lat="51.1927460" lon="5.3656670">
    <ele>49.9</ele>
    <time>2020-06-14T07:21:00Z</time>
   </trkpt>
   <trkpt lat="51.1927500" lon="5.3655650">
    <ele>49.9</ele>
    <time>2020-06-14T07:21:01Z</time>
   </trkpt>
   <trkpt lat="51.1927500" lon="5.3654660">
    <ele>49.9</ele>
    <time>2020-06-14T07:21:02Z</time>
   </trkpt>
   <trkpt lat="51.1927500" lon="5.3653700">
    <ele>49.9</ele>
    <time>2020-06-14T07:21:03Z</time>
   </trkpt>
   <trkpt lat="51.1927500" lon="5.3652700">
    <ele>49.9</ele>
    <time>2020-06-14T07:21:04Z</time>
   </trkpt>
   <trkpt lat="51.1927530" lon="5.3651700">
    <ele>49.9</ele>
    <time>2020-06-14T07:21:05Z</time>
   </trkpt>
   <trkpt lat="51.1927540" lon="5.3650710">
    <ele>49.8</ele>
    <time>2020-06-14T07:21:06Z</time>
   </trkpt>
   <trkpt lat="51.1927590" lon="5.3649770">
    <ele>49.8</ele>
    <time>2020-06-14T07:21:07Z</time>
   </trkpt>
   <trkpt lat="51.1927590" lon="5.3648840">
    <ele>49.8</ele>
    <time>2020-06-14T07:21:08Z</time>
   </trkpt>
   <trkpt lat="51.1927600" lon="5.3647890">
    <ele>49.8</ele>
    <time>2020-06-14T07:21:09Z</time>
   </trkpt>
   <trkpt lat="51.1927590" lon="5.3646990">
    <ele>49.8</ele>
    <time>2020-06-14T07:21:10Z</time>
   </trkpt>
   <trkpt lat="51.1927560" lon="5.3646070">
    <ele>49.8</ele>
    <time>2020-06-14T07:21:11Z</time>
   </trkpt>
   <trkpt lat="51.1927580" lon="5.3645150">
    <ele>49.8</ele>
    <time>2020-06-14T07:21:12Z</time>
   </trkpt>
   <trkpt lat="51.1927580" lon="5.3644210">
    <ele>49.7</ele>
    <time>2020-06-14T07:21:13Z</time>
   </trkpt>
   <trkpt lat="51.1927550" lon="5.3643300">
    <ele>49.7</ele>
    <time>2020-06-14T07:21:14Z</time>
   </trkpt>
   <trkpt lat="51.1927480" lon="5.3642430">
    <ele>49.7</ele>
    <time>2020-06-14T07:21:15Z</time>
   </trkpt>
   <trkpt lat="51.1927480" lon="5.3641600">
    <ele>49.7</ele>
    <time>2020-06-14T07:21:16Z</time>
   </trkpt>
   <trkpt lat="51.1927440" lon="5.3640820">
    <ele>49.7</ele>
    <time>2020-06-14T07:21:17Z</time>
   </trkpt>
   <trkpt lat="51.1927390" lon="5.3640070">
    <ele>49.7</ele>
    <time>2020-06-14T07:21:18Z</time>
   </trkpt>
   <trkpt lat="51.1927430" lon="5.3639290">
    <ele>49.7</ele>
    <time>2020-06-14T07:21:19Z</time>
   </trkpt>
   <trkpt lat="51.1927450" lon="5.3638530">
    <ele>49.7</ele>
    <time>2020-06-14T07:21:20Z</time>
   </trkpt>
   <trkpt lat="51.1927450" lon="5.3637770">
    <ele>49.7</ele>
    <time>2020-06-14T07:21:21Z</time>
   </trkpt>
   <trkpt lat="51.1927420" lon="5.3636990">
    <ele>49.7</ele>
    <time>2020-06-14T07:21:22Z</time>
   </trkpt>
   <trkpt lat="51.1927410" lon="5.3636230">
    <ele>49.8</ele>
    <time>2020-06-14T07:21:23Z</time>
   </trkpt>
   <trkpt lat="51.1927410" lon="5.3635480">
    <ele>49.8</ele>
    <time>2020-06-14T07:21:24Z</time>
   </trkpt>
   <trkpt lat="51.1927380" lon="5.3634710">
    <ele>49.9</ele>
    <time>2020-06-14T07:21:25Z</time>
   </trkpt>
   <trkpt lat="51.1927600" lon="5.3633880">
    <ele>49.9</ele>
    <time>2020-06-14T07:21:26Z</time>
   </trkpt>
   <trkpt lat="51.1928110" lon="5.3633460">
    <ele>49.9</ele>
    <time>2020-06-14T07:21:27Z</time>
   </trkpt>
   <trkpt lat="51.1928720" lon="5.3633510">
    <ele>49.8</ele>
    <time>2020-06-14T07:21:28Z</time>
   </trkpt>
   <trkpt lat="51.1929340" lon="5.3633690">
    <ele>49.6</ele>
    <time>2020-06-14T07:21:29Z</time>
   </trkpt>
   <trkpt lat="51.1929960" lon="5.3633730">
    <ele>49.5</ele>
    <time>2020-06-14T07:21:30Z</time>
   </trkpt>
   <trkpt lat="51.1930650" lon="5.3633640">
    <ele>49.5</ele>
    <time>2020-06-14T07:21:31Z</time>
   </trkpt>
   <trkpt lat="51.1931410" lon="5.3633580">
    <ele>49.4</ele>
    <time>2020-06-14T07:21:32Z</time>
   </trkpt>
   <trkpt lat="51.1932160" lon="5.3633550">
    <ele>49.3</ele>
    <time>2020-06-14T07:21:33Z</time>
   </trkpt>
   <trkpt lat="51.1932910" lon="5.3633530">
    <ele>49.2</ele>
    <time>2020-06-14T07:21:34Z</time>
   </trkpt>
   <trkpt lat="51.1933660" lon="5.3633580">
    <ele>49.2</ele>
    <time>2020-06-14T07:21:35Z</time>
   </trkpt>
   <trkpt lat="51.1934390" lon="5.3633580">
    <ele>49.1</ele>
    <time>2020-06-14T07:21:36Z</time>
   </trkpt>
   <trkpt lat="51.1935090" lon="5.3633540">
    <ele>49.1</ele>
    <time>2020-06-14T07:21:37Z</time>
   </trkpt>
   <trkpt lat="51.1935830" lon="5.3633530">
    <ele>49.0</ele>
    <time>2020-06-14T07:21:38Z</time>
   </trkpt>
   <trkpt lat="51.1936580" lon="5.3633360">
    <ele>49.0</ele>
    <time>2020-06-14T07:21:39Z</time>
   </trkpt>
   <trkpt lat="51.1937370" lon="5.3633230">
    <ele>48.9</ele>
    <time>2020-06-14T07:21:40Z</time>
   </trkpt>
   <trkpt lat="51.1938160" lon="5.3633130">
    <ele>48.9</ele>
    <time>2020-06-14T07:21:41Z</time>
   </trkpt>
   <trkpt lat="51.1938940" lon="5.3633080">
    <ele>48.9</ele>
    <time>2020-06-14T07:21:42Z</time>
   </trkpt>
   <trkpt lat="51.1939680" lon="5.3632930">
    <ele>48.9</ele>
    <time>2020-06-14T07:21:43Z</time>
   </trkpt>
   <trkpt lat="51.1940400" lon="5.3632860">
    <ele>48.9</ele>
    <time>2020-06-14T07:21:44Z</time>
   </trkpt>
   <trkpt lat="51.1941100" lon="5.3632850">
    <ele>48.9</ele>
    <time>2020-06-14T07:21:45Z</time>
   </trkpt>
   <trkpt lat="51.1941820" lon="5.3632860">
    <ele>49.0</ele>
    <time>2020-06-14T07:21:46Z</time>
   </trkpt>
   <trkpt lat="51.1942580" lon="5.3632890">
    <ele>49.0</ele>
    <time>2020-06-14T07:21:47Z</time>
   </trkpt>
   <trkpt lat="51.1943310" lon="5.3632810">
    <ele>48.9</ele>
    <time>2020-06-14T07:21:48Z</time>
   </trkpt>
   <trkpt lat="51.1944000" lon="5.3632740">
    <ele>48.9</ele>
    <time>2020-06-14T07:21:49Z</time>
   </trkpt>
   <trkpt lat="51.1944680" lon="5.3632750">
    <ele>48.9</ele>
    <time>2020-06-14T07:21:50Z</time>
   </trkpt>
   <trkpt lat="51.1945350" lon="5.3632710">
    <ele>48.9</ele>
    <time>2020-06-14T07:21:51Z</time>
   </trkpt>
   <trkpt lat="51.1946010" lon="5.3632700">
    <ele>48.9</ele>
    <time>2020-06-14T07:21:52Z</time>
   </trkpt>
   <trkpt lat="51.1946640" lon="5.3632580">
    <ele>48.9</ele>
    <time>2020-06-14T07:21:53Z</time>
   </trkpt>
   <trkpt lat="51.1947240" lon="5.3632540">
    <ele>48.9</ele>
    <time>2020-06-14T07:21:54Z</time>
   </trkpt>
   <trkpt lat="51.1947880" lon="5.3632410">
    <ele>48.9</ele>
    <time>2020-06-14T07:21:55Z</time>
   </trkpt>
   <trkpt lat="51.1948540" lon="5.3632250">
    <ele>48.9</ele>
    <time>2020-06-14T07:21:56Z</time>
   </trkpt>
   <trkpt lat="51.1949230" lon="5.3632140">
    <ele>48.9</ele>
    <time>2020-06-14T07:21:57Z</time>
   </trkpt>
   <trkpt lat="51.1949910" lon="5.3631940">
    <ele>48.9</ele>
    <time>2020-06-14T07:21:58Z</time>
   </trkpt>
   <trkpt lat="51.1950640" lon="5.3632080">
    <ele>48.9</ele>
    <time>2020-06-14T07:21:59Z</time>
   </trkpt>
   <trkpt lat="51.1951320" lon="5.3632030">
    <ele>48.9</ele>
    <time>2020-06-14T07:22:00Z</time>
   </trkpt>
   <trkpt lat="51.1951990" lon="5.3632000">
    <ele>49.0</ele>
    <time>2020-06-14T07:22:01Z</time>
   </trkpt>
   <trkpt lat="51.1952580" lon="5.3631920">
    <ele>49.0</ele>
    <time>2020-06-14T07:22:02Z</time>
   </trkpt>
   <trkpt lat="51.1953140" lon="5.3631890">
    <ele>49.1</ele>
    <time>2020-06-14T07:22:03Z</time>
   </trkpt>
   <trkpt lat="51.1953650" lon="5.3631910">
    <ele>49.2</ele>
    <time>2020-06-14T07:22:04Z</time>
   </trkpt>
   <trkpt lat="51.1954150" lon="5.3631850">
    <ele>49.2</ele>
    <time>2020-06-14T07:22:05Z</time>
   </trkpt>
   <trkpt lat="51.1954650" lon="5.3631740">
    <ele>49.3</ele>
    <time>2020-06-14T07:22:06Z</time>
   </trkpt>
   <trkpt lat="51.1955180" lon="5.3631390">
    <ele>49.4</ele>
    <time>2020-06-14T07:22:07Z</time>
   </trkpt>
   <trkpt lat="51.1955590" lon="5.3630720">
    <ele>49.5</ele>
    <time>2020-06-14T07:22:08Z</time>
   </trkpt>
   <trkpt lat="51.1955810" lon="5.3629810">
    <ele>49.4</ele>
    <time>2020-06-14T07:22:09Z</time>
   </trkpt>
   <trkpt lat="51.1955900" lon="5.3628710">
    <ele>49.2</ele>
    <time>2020-06-14T07:22:10Z</time>
   </trkpt>
   <trkpt lat="51.1955930" lon="5.3627580">
    <ele>49.1</ele>
    <time>2020-06-14T07:22:11Z</time>
   </trkpt>
   <trkpt lat="51.1955920" lon="5.3626440">
    <ele>49.0</ele>
    <time>2020-06-14T07:22:12Z</time>
   </trkpt>
   <trkpt lat="51.1955920" lon="5.3625250">
    <ele>49.0</ele>
    <time>2020-06-14T07:22:13Z</time>
   </trkpt>
   <trkpt lat="51.1955910" lon="5.3624070">
    <ele>48.9</ele>
    <time>2020-06-14T07:22:14Z</time>
   </trkpt>
   <trkpt lat="51.1955890" lon="5.3622860">
    <ele>48.9</ele>
    <time>2020-06-14T07:22:15Z</time>
   </trkpt>
   <trkpt lat="51.1955900" lon="5.3621710">
    <ele>48.9</ele>
    <time>2020-06-14T07:22:16Z</time>
   </trkpt>
   <trkpt lat="51.1955870" lon="5.3620590">
    <ele>48.9</ele>
    <time>2020-06-14T07:22:17Z</time>
   </trkpt>
   <trkpt lat="51.1955830" lon="5.3619500">
    <ele>48.9</ele>
    <time>2020-06-14T07:22:18Z</time>
   </trkpt>
   <trkpt lat="51.1955810" lon="5.3618440">
    <ele>48.9</ele>
    <time>2020-06-14T07:22:19Z</time>
   </trkpt>
   <trkpt lat="51.1955780" lon="5.3617330">
    <ele>48.9</ele>
    <time>2020-06-14T07:22:20Z</time>
   </trkpt>
   <trkpt lat="51.1955780" lon="5.3616240">
    <ele>48.9</ele>
    <time>2020-06-14T07:22:21Z</time>
   </trkpt>
   <trkpt lat="51.1955800" lon="5.3615190">
    <ele>48.9</ele>
    <time>2020-06-14T07:22:22Z</time>
   </trkpt>
   <trkpt lat="51.1955800" lon="5.3614150">
    <ele>48.9</ele>
    <time>2020-06-14T07:22:23Z</time>
   </trkpt>
   <trkpt lat="51.1955790" lon="5.3613100">
    <ele>48.9</ele>
    <time>2020-06-14T07:22:24Z</time>
   </trkpt>
   <trkpt lat="51.1955670" lon="5.3612030">
    <ele>48.9</ele>
    <time>2020-06-14T07:22:25Z</time>
   </trkpt>
   <trkpt lat="51.1955580" lon="5.3610950">
    <ele>49.0</ele>
    <time>2020-06-14T07:22:26Z</time>
   </trkpt>
   <trkpt lat="51.1955500" lon="5.3609910">
    <ele>49.0</ele>
    <time>2020-06-14T07:22:27Z</time>
   </trkpt>
   <trkpt lat="51.1955500" lon="5.3609010">
    <ele>49.0</ele>
    <time>2020-06-14T07:22:28Z</time>
   </trkpt>
   <trkpt lat="51.1955430" lon="5.3608190">
    <ele>49.0</ele>
    <time>2020-06-14T07:22:29Z</time>
   </trkpt>
   <trkpt lat="51.1955360" lon="5.3607400">
    <ele>49.1</ele>
    <time>2020-06-14T07:22:30Z</time>
   </trkpt>
   <trkpt lat="51.1955340" lon="5.3606630">
    <ele>49.1</ele>
    <time>2020-06-14T07:22:31Z</time>
   </trkpt>
   <trkpt lat="51.1955330" lon="5.3605810">
    <ele>49.1</ele>
    <time>2020-06-14T07:22:32Z</time>
   </trkpt>
   <trkpt lat="51.1955360" lon="5.3604940">
    <ele>49.2</ele>
    <time>2020-06-14T07:22:33Z</time>
   </trkpt>
   <trkpt lat="51.1955390" lon="5.3604050">
    <ele>49.2</ele>
    <time>2020-06-14T07:22:34Z</time>
   </trkpt>
   <trkpt lat="51.1955290" lon="5.3603160">
    <ele>49.3</ele>
    <time>2020-06-14T07:22:35Z</time>
   </trkpt>
   <trkpt lat="51.1955150" lon="5.3602190">
    <ele>49.3</ele>
    <time>2020-06-14T07:22:36Z</time>
   </trkpt>
   <trkpt lat="51.1955040" lon="5.3601090">
    <ele>49.3</ele>
    <time>2020-06-14T07:22:37Z</time>
   </trkpt>
   <trkpt lat="51.1955060" lon="5.3599920">
    <ele>49.4</ele>
    <time>2020-06-14T07:22:38Z</time>
   </trkpt>
   <trkpt lat="51.1955070" lon="5.3598770">
    <ele>49.4</ele>
    <time>2020-06-14T07:22:39Z</time>
   </trkpt>
   <trkpt lat="51.1955010" lon="5.3597640">
    <ele>49.4</ele>
    <time>2020-06-14T07:22:40Z</time>
   </trkpt>
   <trkpt lat="51.1954920" lon="5.3596470">
    <ele>49.4</ele>
    <time>2020-06-14T07:22:41Z</time>
   </trkpt>
   <trkpt lat="51.1954860" lon="5.3595290">
    <ele>49.5</ele>
    <time>2020-06-14T07:22:42Z</time>
   </trkpt>
   <trkpt lat="51.1954780" lon="5.3594120">
    <ele>49.6</ele>
    <time>2020-06-14T07:22:43Z</time>
   </trkpt>
   <trkpt lat="51.1954720" lon="5.3592920">
    <ele>49.6</ele>
    <time>2020-06-14T07:22:44Z</time>
   </trkpt>
   <trkpt lat="51.1954660" lon="5.3591760">
    <ele>49.7</ele>
    <time>2020-06-14T07:22:45Z</time>
   </trkpt>
   <trkpt lat="51.1954570" lon="5.3590670">
    <ele>49.8</ele>
    <time>2020-06-14T07:22:46Z</time>
   </trkpt>
   <trkpt lat="51.1954500" lon="5.3589590">
    <ele>49.8</ele>
    <time>2020-06-14T07:22:47Z</time>
   </trkpt>
   <trkpt lat="51.1954400" lon="5.3588520">
    <ele>49.9</ele>
    <time>2020-06-14T07:22:48Z</time>
   </trkpt>
   <trkpt lat="51.1954310" lon="5.3587300">
    <ele>49.9</ele>
    <time>2020-06-14T07:22:49Z</time>
   </trkpt>
   <trkpt lat="51.1954230" lon="5.3586160">
    <ele>49.8</ele>
    <time>2020-06-14T07:22:50Z</time>
   </trkpt>
   <trkpt lat="51.1954160" lon="5.3585040">
    <ele>49.8</ele>
    <time>2020-06-14T07:22:51Z</time>
   </trkpt>
   <trkpt lat="51.1954130" lon="5.3584020">
    <ele>49.8</ele>
    <time>2020-06-14T07:22:52Z</time>
   </trkpt>
   <trkpt lat="51.1954130" lon="5.3582930">
    <ele>49.8</ele>
    <time>2020-06-14T07:22:53Z</time>
   </trkpt>
   <trkpt lat="51.1954090" lon="5.3581670">
    <ele>49.8</ele>
    <time>2020-06-14T07:22:54Z</time>
   </trkpt>
   <trkpt lat="51.1954090" lon="5.3580540">
    <ele>49.9</ele>
    <time>2020-06-14T07:22:55Z</time>
   </trkpt>
   <trkpt lat="51.1954070" lon="5.3579510">
    <ele>50.0</ele>
    <time>2020-06-14T07:22:56Z</time>
   </trkpt>
   <trkpt lat="51.1954030" lon="5.3578470">
    <ele>50.0</ele>
    <time>2020-06-14T07:22:57Z</time>
   </trkpt>
   <trkpt lat="51.1953980" lon="5.3577390">
    <ele>50.1</ele>
    <time>2020-06-14T07:22:58Z</time>
   </trkpt>
   <trkpt lat="51.1953920" lon="5.3576330">
    <ele>50.2</ele>
    <time>2020-06-14T07:22:59Z</time>
   </trkpt>
   <trkpt lat="51.1953860" lon="5.3575250">
    <ele>50.3</ele>
    <time>2020-06-14T07:23:00Z</time>
   </trkpt>
   <trkpt lat="51.1953680" lon="5.3574270">
    <ele>50.3</ele>
    <time>2020-06-14T07:23:01Z</time>
   </trkpt>
   <trkpt lat="51.1953320" lon="5.3573360">
    <ele>50.3</ele>
    <time>2020-06-14T07:23:02Z</time>
   </trkpt>
   <trkpt lat="51.1952880" lon="5.3572500">
    <ele>50.3</ele>
    <time>2020-06-14T07:23:03Z</time>
   </trkpt>
   <trkpt lat="51.1952470" lon="5.3571600">
    <ele>50.3</ele>
    <time>2020-06-14T07:23:04Z</time>
   </trkpt>
   <trkpt lat="51.1952070" lon="5.3570660">
    <ele>50.3</ele>
    <time>2020-06-14T07:23:05Z</time>
   </trkpt>
   <trkpt lat="51.1951620" lon="5.3569760">
    <ele>50.3</ele>
    <time>2020-06-14T07:23:06Z</time>
   </trkpt>
   <trkpt lat="51.1951160" lon="5.3568880">
    <ele>50.3</ele>
    <time>2020-06-14T07:23:07Z</time>
   </trkpt>
   <trkpt lat="51.1950670" lon="5.3567890">
    <ele>50.3</ele>
    <time>2020-06-14T07:23:08Z</time>
   </trkpt>
   <trkpt lat="51.1950180" lon="5.3567000">
    <ele>50.3</ele>
    <time>2020-06-14T07:23:09Z</time>
   </trkpt>
   <trkpt lat="51.1949760" lon="5.3566130">
    <ele>50.3</ele>
    <time>2020-06-14T07:23:10Z</time>
   </trkpt>
   <trkpt lat="51.1949370" lon="5.3565190">
    <ele>50.3</ele>
    <time>2020-06-14T07:23:11Z</time>
   </trkpt>
   <trkpt lat="51.1948970" lon="5.3564210">
    <ele>50.3</ele>
    <time>2020-06-14T07:23:12Z</time>
   </trkpt>
   <trkpt lat="51.1948580" lon="5.3563340">
    <ele>50.3</ele>
    <time>2020-06-14T07:23:13Z</time>
   </trkpt>
   <trkpt lat="51.1948160" lon="5.3562370">
    <ele>50.3</ele>
    <time>2020-06-14T07:23:14Z</time>
   </trkpt>
   <trkpt lat="51.1947730" lon="5.3561340">
    <ele>50.3</ele>
    <time>2020-06-14T07:23:15Z</time>
   </trkpt>
   <trkpt lat="51.1947260" lon="5.3560370">
    <ele>50.3</ele>
    <time>2020-06-14T07:23:16Z</time>
   </trkpt>
   <trkpt lat="51.1946880" lon="5.3559370">
    <ele>50.3</ele>
    <time>2020-06-14T07:23:17Z</time>
   </trkpt>
   <trkpt lat="51.1946520" lon="5.3558500">
    <ele>50.4</ele>
    <time>2020-06-14T07:23:18Z</time>
   </trkpt>
   <trkpt lat="51.1946170" lon="5.3557750">
    <ele>50.4</ele>
    <time>2020-06-14T07:23:19Z</time>
   </trkpt>
   <trkpt lat="51.1945830" lon="5.3556960">
    <ele>50.5</ele>
    <time>2020-06-14T07:23:20Z</time>
   </trkpt>
   <trkpt lat="51.1945440" lon="5.3556140">
    <ele>50.5</ele>
    <time>2020-06-14T07:23:21Z</time>
   </trkpt>
   <trkpt lat="51.1945010" lon="5.3555380">
    <ele>50.6</ele>
    <time>2020-06-14T07:23:22Z</time>
   </trkpt>
   <trkpt lat="51.1944540" lon="5.3554640">
    <ele>50.6</ele>
    <time>2020-06-14T07:23:23Z</time>
   </trkpt>
   <trkpt lat="51.1944100" lon="5.3553840">
    <ele>50.7</ele>
    <time>2020-06-14T07:23:24Z</time>
   </trkpt>
   <trkpt lat="51.1943640" lon="5.3553070">
    <ele>50.8</ele>
    <time>2020-06-14T07:23:25Z</time>
   </trkpt>
   <trkpt lat="51.1943190" lon="5.3552280">
    <ele>50.9</ele>
    <time>2020-06-14T07:23:26Z</time>
   </trkpt>
   <trkpt lat="51.1942750" lon="5.3551440">
    <ele>51.1</ele>
    <time>2020-06-14T07:23:27Z</time>
   </trkpt>
   <trkpt lat="51.1942300" lon="5.3550610">
    <ele>51.3</ele>
    <time>2020-06-14T07:23:28Z</time>
   </trkpt>
   <trkpt lat="51.1941840" lon="5.3549770">
    <ele>51.3</ele>
    <time>2020-06-14T07:23:29Z</time>
   </trkpt>
   <trkpt lat="51.1941440" lon="5.3548880">
    <ele>51.3</ele>
    <time>2020-06-14T07:23:30Z</time>
   </trkpt>
   <trkpt lat="51.1941010" lon="5.3548000">
    <ele>51.3</ele>
    <time>2020-06-14T07:23:31Z</time>
   </trkpt>
   <trkpt lat="51.1940580" lon="5.3547090">
    <ele>51.4</ele>
    <time>2020-06-14T07:23:32Z</time>
   </trkpt>
   <trkpt lat="51.1940190" lon="5.3546170">
    <ele>51.4</ele>
    <time>2020-06-14T07:23:33Z</time>
   </trkpt>
   <trkpt lat="51.1939840" lon="5.3545290">
    <ele>51.5</ele>
    <time>2020-06-14T07:23:34Z</time>
   </trkpt>
   <trkpt lat="51.1939440" lon="5.3544430">
    <ele>51.6</ele>
    <time>2020-06-14T07:23:35Z</time>
   </trkpt>
   <trkpt lat="51.1939040" lon="5.3543550">
    <ele>51.6</ele>
    <time>2020-06-14T07:23:36Z</time>
   </trkpt>
   <trkpt lat="51.1938630" lon="5.3542690">
    <ele>51.7</ele>
    <time>2020-06-14T07:23:37Z</time>
   </trkpt>
   <trkpt lat="51.1938220" lon="5.3541830">
    <ele>51.8</ele>
    <time>2020-06-14T07:23:38Z</time>
   </trkpt>
   <trkpt lat="51.1937840" lon="5.3540950">
    <ele>51.9</ele>
    <time>2020-06-14T07:23:39Z</time>
   </trkpt>
   <trkpt lat="51.1937380" lon="5.3540110">
    <ele>52.0</ele>
    <time>2020-06-14T07:23:40Z</time>
   </trkpt>
   <trkpt lat="51.1936930" lon="5.3539260">
    <ele>52.0</ele>
    <time>2020-06-14T07:23:41Z</time>
   </trkpt>
   <trkpt lat="51.1936520" lon="5.3538320">
    <ele>51.8</ele>
    <time>2020-06-14T07:23:42Z</time>
   </trkpt>
   <trkpt lat="51.1936110" lon="5.3537400">
    <ele>51.7</ele>
    <time>2020-06-14T07:23:43Z</time>
   </trkpt>
   <trkpt lat="51.1935700" lon="5.3536480">
    <ele>51.6</ele>
    <time>2020-06-14T07:23:44Z</time>
   </trkpt>
   <trkpt lat="51.1935300" lon="5.3535590">
    <ele>51.5</ele>
    <time>2020-06-14T07:23:45Z</time>
   </trkpt>
   <trkpt lat="51.1934840" lon="5.3534650">
    <ele>51.5</ele>
    <time>2020-06-14T07:23:46Z</time>
   </trkpt>
   <trkpt lat="51.1934410" lon="5.3533660">
    <ele>51.4</ele>
    <time>2020-06-14T07:23:47Z</time>
   </trkpt>
   <trkpt lat="51.1934010" lon="5.3532650">
    <ele>51.4</ele>
    <time>2020-06-14T07:23:48Z</time>
   </trkpt>
   <trkpt lat="51.1933620" lon="5.3531660">
    <ele>51.4</ele>
    <time>2020-06-14T07:23:49Z</time>
   </trkpt>
   <trkpt lat="51.1933270" lon="5.3530700">
    <ele>51.4</ele>
    <time>2020-06-14T07:23:50Z</time>
   </trkpt>
   <trkpt lat="51.1932890" lon="5.3529780">
    <ele>51.3</ele>
    <time>2020-06-14T07:23:51Z</time>
   </trkpt>
   <trkpt lat="51.1932550" lon="5.3528840">
    <ele>51.4</ele>
    <time>2020-06-14T07:23:52Z</time>
   </trkpt>
   <trkpt lat="51.1932160" lon="5.3527920">
    <ele>51.4</ele>
    <time>2020-06-14T07:23:53Z</time>
   </trkpt>
   <trkpt lat="51.1931790" lon="5.3526990">
    <ele>51.4</ele>
    <time>2020-06-14T07:23:54Z</time>
   </trkpt>
   <trkpt lat="51.1931380" lon="5.3526110">
    <ele>51.5</ele>
    <time>2020-06-14T07:23:55Z</time>
   </trkpt>
   <trkpt lat="51.1930950" lon="5.3525250">
    <ele>51.5</ele>
    <time>2020-06-14T07:23:56Z</time>
   </trkpt>
   <trkpt lat="51.1930540" lon="5.3524370">
    <ele>51.4</ele>
    <time>2020-06-14T07:23:57Z</time>
   </trkpt>
   <trkpt lat="51.1930160" lon="5.3523500">
    <ele>51.4</ele>
    <time>2020-06-14T07:23:58Z</time>
   </trkpt>
   <trkpt lat="51.1929740" lon="5.3522700">
    <ele>51.4</ele>
    <time>2020-06-14T07:23:59Z</time>
   </trkpt>
   <trkpt lat="51.1929280" lon="5.3521890">
    <ele>51.5</ele>
    <time>2020-06-14T07:24:00Z</time>
   </trkpt>
   <trkpt lat="51.1928860" lon="5.3521070">
    <ele>51.5</ele>
    <time>2020-06-14T07:24:01Z</time>
   </trkpt>
   <trkpt lat="51.1928490" lon="5.3520250">
    <ele>51.5</ele>
    <time>2020-06-14T07:24:02Z</time>
   </trkpt>
   <trkpt lat="51.1928110" lon="5.3519480">
    <ele>51.5</ele>
    <time>2020-06-14T07:24:03Z</time>
   </trkpt>
   <trkpt lat="51.1927740" lon="5.3518750">
    <ele>51.5</ele>
    <time>2020-06-14T07:24:04Z</time>
   </trkpt>
   <trkpt lat="51.1927380" lon="5.3517970">
    <ele>51.5</ele>
    <time>2020-06-14T07:24:05Z</time>
   </trkpt>
   <trkpt lat="51.1927060" lon="5.3517120">
    <ele>51.5</ele>
    <time>2020-06-14T07:24:06Z</time>
   </trkpt>
   <trkpt lat="51.1926690" lon="5.3516310">
    <ele>51.5</ele>
    <time>2020-06-14T07:24:07Z</time>
   </trkpt>
   <trkpt lat="51.1926340" lon="5.3515550">
    <ele>51.5</ele>
    <time>2020-06-14T07:24:08Z</time>
   </trkpt>
   <trkpt lat="51.1925990" lon="5.3514850">
    <ele>51.5</ele>
    <time>2020-06-14T07:24:09Z</time>
   </trkpt>
   <trkpt lat="51.1925650" lon="5.3514130">
    <ele>51.6</ele>
    <time>2020-06-14T07:24:10Z</time>
   </trkpt>
   <trkpt lat="51.1925290" lon="5.3513460">
    <ele>51.6</ele>
    <time>2020-06-14T07:24:11Z</time>
   </trkpt>
   <trkpt lat="51.1925000" lon="5.3512760">
    <ele>51.6</ele>
    <time>2020-06-14T07:24:12Z</time>
   </trkpt>
   <trkpt lat="51.1924750" lon="5.3512110">
    <ele>51.6</ele>
    <time>2020-06-14T07:24:13Z</time>
   </trkpt>
   <trkpt lat="51.1924610" lon="5.3511450">
    <ele>51.6</ele>
    <time>2020-06-14T07:24:14Z</time>
   </trkpt>
   <trkpt lat="51.1924460" lon="5.3510830">
    <ele>51.6</ele>
    <time>2020-06-14T07:24:15Z</time>
   </trkpt>
   <trkpt lat="51.1924140" lon="5.3510320">
    <ele>51.6</ele>
    <time>2020-06-14T07:24:16Z</time>
   </trkpt>
   <trkpt lat="51.1923840" lon="5.3509670">
    <ele>51.7</ele>
    <time>2020-06-14T07:24:17Z</time>
   </trkpt>
   <trkpt lat="51.1923510" lon="5.3508960">
    <ele>51.7</ele>
    <time>2020-06-14T07:24:18Z</time>
   </trkpt>
   <trkpt lat="51.1923200" lon="5.3508220">
    <ele>51.7</ele>
    <time>2020-06-14T07:24:19Z</time>
   </trkpt>
   <trkpt lat="51.1922870" lon="5.3507530">
    <ele>51.8</ele>
    <time>2020-06-14T07:24:20Z</time>
   </trkpt>
   <trkpt lat="51.1922550" lon="5.3506830">
    <ele>51.9</ele>
    <time>2020-06-14T07:24:21Z</time>
   </trkpt>
   <trkpt lat="51.1922250" lon="5.3506180">
    <ele>52.0</ele>
    <time>2020-06-14T07:24:22Z</time>
   </trkpt>
   <trkpt lat="51.1921960" lon="5.3505520">
    <ele>52.1</ele>
    <time>2020-06-14T07:24:23Z</time>
   </trkpt>
   <trkpt lat="51.1921670" lon="5.3504840">
    <ele>52.1</ele>
    <time>2020-06-14T07:24:24Z</time>
   </trkpt>
   <trkpt lat="51.1921380" lon="5.3504200">
    <ele>52.2</ele>
    <time>2020-06-14T07:24:25Z</time>
   </trkpt>
   <trkpt lat="51.1921140" lon="5.3503630">
    <ele>52.3</ele>
    <time>2020-06-14T07:24:26Z</time>
   </trkpt>
   <trkpt lat="51.1920890" lon="5.3503080">
    <ele>52.3</ele>
    <time>2020-06-14T07:24:27Z</time>
   </trkpt>
   <trkpt lat="51.1920660" lon="5.3502480">
    <ele>52.5</ele>
    <time>2020-06-14T07:24:28Z</time>
   </trkpt>
   <trkpt lat="51.1920310" lon="5.3501900">
    <ele>52.3</ele>
    <time>2020-06-14T07:24:29Z</time>
   </trkpt>
   <trkpt lat="51.1919870" lon="5.3501220">
    <ele>52.2</ele>
    <time>2020-06-14T07:24:30Z</time>
   </trkpt>
   <trkpt lat="51.1919310" lon="5.3500590">
    <ele>52.2</ele>
    <time>2020-06-14T07:24:31Z</time>
   </trkpt>
   <trkpt lat="51.1918740" lon="5.3500010">
    <ele>52.3</ele>
    <time>2020-06-14T07:24:32Z</time>
   </trkpt>
   <trkpt lat="51.1918190" lon="5.3499440">
    <ele>52.3</ele>
    <time>2020-06-14T07:24:33Z</time>
   </trkpt>
   <trkpt lat="51.1917690" lon="5.3498810">
    <ele>52.4</ele>
    <time>2020-06-14T07:24:34Z</time>
   </trkpt>
   <trkpt lat="51.1917140" lon="5.3498190">
    <ele>52.4</ele>
    <time>2020-06-14T07:24:35Z</time>
   </trkpt>
   <trkpt lat="51.1916570" lon="5.3497540">
    <ele>52.4</ele>
    <time>2020-06-14T07:24:36Z</time>
   </trkpt>
   <trkpt lat="51.1916000" lon="5.3496940">
    <ele>52.5</ele>
    <time>2020-06-14T07:24:37Z</time>
   </trkpt>
   <trkpt lat="51.1915490" lon="5.3496270">
    <ele>52.5</ele>
    <time>2020-06-14T07:24:38Z</time>
   </trkpt>
   <trkpt lat="51.1914570" lon="5.3496200">
    <ele>52.5</ele>
    <time>2020-06-14T07:24:39Z</time>
   </trkpt>
   <trkpt lat="51.1914000" lon="5.3495500">
    <ele>52.5</ele>
    <time>2020-06-14T07:24:40Z</time>
   </trkpt>
   <trkpt lat="51.1913380" lon="5.3494770">
    <ele>52.5</ele>
    <time>2020-06-14T07:24:41Z</time>
   </trkpt>
   <trkpt lat="51.1912750" lon="5.3494040">
    <ele>52.5</ele>
    <time>2020-06-14T07:24:42Z</time>
   </trkpt>
   <trkpt lat="51.1912050" lon="5.3493260">
    <ele>52.6</ele>
    <time>2020-06-14T07:24:43Z</time>
   </trkpt>
   <trkpt lat="51.1911380" lon="5.3492400">
    <ele>52.6</ele>
    <time>2020-06-14T07:24:44Z</time>
   </trkpt>
   <trkpt lat="51.1910680" lon="5.3491530">
    <ele>52.6</ele>
    <time>2020-06-14T07:24:45Z</time>
   </trkpt>
   <trkpt lat="51.1910070" lon="5.3490740">
    <ele>52.7</ele>
    <time>2020-06-14T07:24:46Z</time>
   </trkpt>
   <trkpt lat="51.1909430" lon="5.3489950">
    <ele>52.7</ele>
    <time>2020-06-14T07:24:47Z</time>
   </trkpt>
   <trkpt lat="51.1908710" lon="5.3489120">
    <ele>52.7</ele>
    <time>2020-06-14T07:24:48Z</time>
   </trkpt>
   <trkpt lat="51.1908040" lon="5.3488330">
    <ele>52.7</ele>
    <time>2020-06-14T07:24:49Z</time>
   </trkpt>
   <trkpt lat="51.1907430" lon="5.3487550">
    <ele>52.8</ele>
    <time>2020-06-14T07:24:50Z</time>
   </trkpt>
   <trkpt lat="51.1906780" lon="5.3486780">
    <ele>52.9</ele>
    <time>2020-06-14T07:24:51Z</time>
   </trkpt>
   <trkpt lat="51.1906160" lon="5.3485950">
    <ele>53.1</ele>
    <time>2020-06-14T07:24:52Z</time>
   </trkpt>
   <trkpt lat="51.1905570" lon="5.3485280">
    <ele>53.2</ele>
    <time>2020-06-14T07:24:53Z</time>
   </trkpt>
   <trkpt lat="51.1905030" lon="5.3484620">
    <ele>53.3</ele>
    <time>2020-06-14T07:24:54Z</time>
   </trkpt>
   <trkpt lat="51.1904460" lon="5.3483830">
    <ele>53.4</ele>
    <time>2020-06-14T07:24:55Z</time>
   </trkpt>
   <trkpt lat="51.1903870" lon="5.3483080">
    <ele>53.5</ele>
    <time>2020-06-14T07:24:56Z</time>
   </trkpt>
   <trkpt lat="51.1903380" lon="5.3482420">
    <ele>53.5</ele>
    <time>2020-06-14T07:24:57Z</time>
   </trkpt>
   <trkpt lat="51.1902870" lon="5.3481700">
    <ele>53.6</ele>
    <time>2020-06-14T07:24:58Z</time>
   </trkpt>
   <trkpt lat="51.1902360" lon="5.3480970">
    <ele>53.6</ele>
    <time>2020-06-14T07:24:59Z</time>
   </trkpt>
   <trkpt lat="51.1901750" lon="5.3480140">
    <ele>53.5</ele>
    <time>2020-06-14T07:25:00Z</time>
   </trkpt>
   <trkpt lat="51.1901210" lon="5.3479420">
    <ele>53.4</ele>
    <time>2020-06-14T07:25:01Z</time>
   </trkpt>
   <trkpt lat="51.1900660" lon="5.3478500">
    <ele>53.2</ele>
    <time>2020-06-14T07:25:02Z</time>
   </trkpt>
   <trkpt lat="51.1900140" lon="5.3477650">
    <ele>53.0</ele>
    <time>2020-06-14T07:25:03Z</time>
   </trkpt>
   <trkpt lat="51.1899590" lon="5.3476830">
    <ele>52.8</ele>
    <time>2020-06-14T07:25:04Z</time>
   </trkpt>
   <trkpt lat="51.1898990" lon="5.3475990">
    <ele>52.7</ele>
    <time>2020-06-14T07:25:05Z</time>
   </trkpt>
   <trkpt lat="51.1898390" lon="5.3475070">
    <ele>52.5</ele>
    <time>2020-06-14T07:25:06Z</time>
   </trkpt>
   <trkpt lat="51.1897790" lon="5.3474240">
    <ele>52.3</ele>
    <time>2020-06-14T07:25:07Z</time>
   </trkpt>
   <trkpt lat="51.1897160" lon="5.3473490">
    <ele>52.2</ele>
    <time>2020-06-14T07:25:08Z</time>
   </trkpt>
   <trkpt lat="51.1896540" lon="5.3472690">
    <ele>52.1</ele>
    <time>2020-06-14T07:25:10Z</time>
   </trkpt>
   <trkpt lat="51.1895940" lon="5.3471940">
    <ele>52.1</ele>
    <time>2020-06-14T07:25:11Z</time>
   </trkpt>
   <trkpt lat="51.1895380" lon="5.3471260">
    <ele>52.1</ele>
    <time>2020-06-14T07:25:12Z</time>
   </trkpt>
   <trkpt lat="51.1894850" lon="5.3470710">
    <ele>52.1</ele>
    <time>2020-06-14T07:25:13Z</time>
   </trkpt>
   <trkpt lat="51.1894290" lon="5.3470110">
    <ele>52.1</ele>
    <time>2020-06-14T07:25:14Z</time>
   </trkpt>
   <trkpt lat="51.1893720" lon="5.3469520">
    <ele>52.1</ele>
    <time>2020-06-14T07:25:15Z</time>
   </trkpt>
   <trkpt lat="51.1893200" lon="5.3468890">
    <ele>52.1</ele>
    <time>2020-06-14T07:25:16Z</time>
   </trkpt>
   <trkpt lat="51.1892660" lon="5.3468230">
    <ele>52.1</ele>
    <time>2020-06-14T07:25:17Z</time>
   </trkpt>
   <trkpt lat="51.1892170" lon="5.3467530">
    <ele>52.1</ele>
    <time>2020-06-14T07:25:18Z</time>
   </trkpt>
   <trkpt lat="51.1891710" lon="5.3466890">
    <ele>52.1</ele>
    <time>2020-06-14T07:25:19Z</time>
   </trkpt>
   <trkpt lat="51.1891310" lon="5.3466300">
    <ele>52.1</ele>
    <time>2020-06-14T07:25:20Z</time>
   </trkpt>
   <trkpt lat="51.1890910" lon="5.3465790">
    <ele>52.2</ele>
    <time>2020-06-14T07:25:21Z</time>
   </trkpt>
   <trkpt lat="51.1890480" lon="5.3465150">
    <ele>52.3</ele>
    <time>2020-06-14T07:25:22Z</time>
   </trkpt>
   <trkpt lat="51.1889770" lon="5.3464810">
    <ele>52.4</ele>
    <time>2020-06-14T07:25:23Z</time>
   </trkpt>
   <trkpt lat="51.1889220" lon="5.3464270">
    <ele>52.6</ele>
    <time>2020-06-14T07:25:24Z</time>
   </trkpt>
   <trkpt lat="51.1888680" lon="5.3463670">
    <ele>52.7</ele>
    <time>2020-06-14T07:25:25Z</time>
   </trkpt>
   <trkpt lat="51.1888120" lon="5.3463000">
    <ele>52.9</ele>
    <time>2020-06-14T07:25:26Z</time>
   </trkpt>
   <trkpt lat="51.1887600" lon="5.3462380">
    <ele>53.1</ele>
    <time>2020-06-14T07:25:27Z</time>
   </trkpt>
   <trkpt lat="51.1887130" lon="5.3461770">
    <ele>53.2</ele>
    <time>2020-06-14T07:25:28Z</time>
   </trkpt>
   <trkpt lat="51.1886660" lon="5.3461120">
    <ele>53.3</ele>
    <time>2020-06-14T07:25:29Z</time>
   </trkpt>
   <trkpt lat="51.1886150" lon="5.3460470">
    <ele>53.3</ele>
    <time>2020-06-14T07:25:30Z</time>
   </trkpt>
   <trkpt lat="51.1885660" lon="5.3459850">
    <ele>53.4</ele>
    <time>2020-06-14T07:25:31Z</time>
   </trkpt>
   <trkpt lat="51.1885210" lon="5.3459270">
    <ele>53.5</ele>
    <time>2020-06-14T07:25:32Z</time>
   </trkpt>
   <trkpt lat="51.1884810" lon="5.3458740">
    <ele>53.5</ele>
    <time>2020-06-14T07:25:33Z</time>
   </trkpt>
   <trkpt lat="51.1884430" lon="5.3458200">
    <ele>53.5</ele>
    <time>2020-06-14T07:25:34Z</time>
   </trkpt>
   <trkpt lat="51.1883960" lon="5.3457600">
    <ele>53.5</ele>
    <time>2020-06-14T07:25:35Z</time>
   </trkpt>
   <trkpt lat="51.1883450" lon="5.3456940">
    <ele>53.5</ele>
    <time>2020-06-14T07:25:36Z</time>
   </trkpt>
   <trkpt lat="51.1882900" lon="5.3456190">
    <ele>53.4</ele>
    <time>2020-06-14T07:25:37Z</time>
   </trkpt>
   <trkpt lat="51.1882390" lon="5.3455530">
    <ele>53.3</ele>
    <time>2020-06-14T07:25:38Z</time>
   </trkpt>
   <trkpt lat="51.1881840" lon="5.3454850">
    <ele>53.3</ele>
    <time>2020-06-14T07:25:39Z</time>
   </trkpt>
   <trkpt lat="51.1881320" lon="5.3454160">
    <ele>53.3</ele>
    <time>2020-06-14T07:25:40Z</time>
   </trkpt>
   <trkpt lat="51.1880660" lon="5.3453350">
    <ele>53.3</ele>
    <time>2020-06-14T07:25:41Z</time>
   </trkpt>
   <trkpt lat="51.1880100" lon="5.3452640">
    <ele>53.3</ele>
    <time>2020-06-14T07:25:42Z</time>
   </trkpt>
   <trkpt lat="51.1879560" lon="5.3451990">
    <ele>53.2</ele>
    <time>2020-06-14T07:25:43Z</time>
   </trkpt>
   <trkpt lat="51.1879000" lon="5.3451270">
    <ele>53.2</ele>
    <time>2020-06-14T07:25:44Z</time>
   </trkpt>
   <trkpt lat="51.1878420" lon="5.3450430">
    <ele>53.1</ele>
    <time>2020-06-14T07:25:45Z</time>
   </trkpt>
   <trkpt lat="51.1877830" lon="5.3449690">
    <ele>53.0</ele>
    <time>2020-06-14T07:25:46Z</time>
   </trkpt>
   <trkpt lat="51.1877320" lon="5.3448990">
    <ele>52.9</ele>
    <time>2020-06-14T07:25:47Z</time>
   </trkpt>
   <trkpt lat="51.1876730" lon="5.3448180">
    <ele>52.8</ele>
    <time>2020-06-14T07:25:48Z</time>
   </trkpt>
   <trkpt lat="51.1876100" lon="5.3447340">
    <ele>52.7</ele>
    <time>2020-06-14T07:25:49Z</time>
   </trkpt>
   <trkpt lat="51.1875560" lon="5.3446610">
    <ele>52.6</ele>
    <time>2020-06-14T07:25:50Z</time>
   </trkpt>
   <trkpt lat="51.1875040" lon="5.3445920">
    <ele>52.8</ele>
    <time>2020-06-14T07:25:51Z</time>
   </trkpt>
   <trkpt lat="51.1874560" lon="5.3445200">
    <ele>52.9</ele>
    <time>2020-06-14T07:25:52Z</time>
   </trkpt>
   <trkpt lat="51.1874070" lon="5.3444490">
    <ele>53.0</ele>
    <time>2020-06-14T07:25:53Z</time>
   </trkpt>
   <trkpt lat="51.1873630" lon="5.3443910">
    <ele>53.0</ele>
    <time>2020-06-14T07:25:54Z</time>
   </trkpt>
   <trkpt lat="51.1873180" lon="5.3443330">
    <ele>53.0</ele>
    <time>2020-06-14T07:25:55Z</time>
   </trkpt>
   <trkpt lat="51.1872730" lon="5.3442780">
    <ele>53.1</ele>
    <time>2020-06-14T07:25:56Z</time>
   </trkpt>
   <trkpt lat="51.1872310" lon="5.3442230">
    <ele>53.1</ele>
    <time>2020-06-14T07:25:57Z</time>
   </trkpt>
   <trkpt lat="51.1871890" lon="5.3441610">
    <ele>53.2</ele>
    <time>2020-06-14T07:25:58Z</time>
   </trkpt>
   <trkpt lat="51.1871520" lon="5.3441100">
    <ele>53.2</ele>
    <time>2020-06-14T07:25:59Z</time>
   </trkpt>
   <trkpt lat="51.1871120" lon="5.3440690">
    <ele>53.2</ele>
    <time>2020-06-14T07:26:00Z</time>
   </trkpt>
   <trkpt lat="51.1870770" lon="5.3440110">
    <ele>53.3</ele>
    <time>2020-06-14T07:26:01Z</time>
   </trkpt>
   <trkpt lat="51.1870510" lon="5.3439650">
    <ele>53.3</ele>
    <time>2020-06-14T07:26:02Z</time>
   </trkpt>
   <trkpt lat="51.1870320" lon="5.3438830">
    <ele>53.3</ele>
    <time>2020-06-14T07:26:03Z</time>
   </trkpt>
   <trkpt lat="51.1870340" lon="5.3438090">
    <ele>53.3</ele>
    <time>2020-06-14T07:26:04Z</time>
   </trkpt>
   <trkpt lat="51.1870510" lon="5.3437310">
    <ele>53.3</ele>
    <time>2020-06-14T07:26:05Z</time>
   </trkpt>
   <trkpt lat="51.1870730" lon="5.3436490">
    <ele>53.3</ele>
    <time>2020-06-14T07:26:06Z</time>
   </trkpt>
   <trkpt lat="51.1871020" lon="5.3435580">
    <ele>53.4</ele>
    <time>2020-06-14T07:26:07Z</time>
   </trkpt>
   <trkpt lat="51.1871360" lon="5.3434690">
    <ele>53.4</ele>
    <time>2020-06-14T07:26:08Z</time>
   </trkpt>
   <trkpt lat="51.1871590" lon="5.3434040">
    <ele>53.5</ele>
    <time>2020-06-14T07:26:09Z</time>
   </trkpt>
   <trkpt lat="51.1871960" lon="5.3433500">
    <ele>53.5</ele>
    <time>2020-06-14T07:26:10Z</time>
   </trkpt>
   <trkpt lat="51.1872240" lon="5.3433170">
    <ele>53.6</ele>
    <time>2020-06-14T07:26:11Z</time>
   </trkpt>
   <trkpt lat="51.1872470" lon="5.3432900">
    <ele>53.6</ele>
    <time>2020-06-14T07:26:12Z</time>
   </trkpt>
   <trkpt lat="51.1872560" lon="5.3432690">
    <ele>53.6</ele>
    <time>2020-06-14T07:26:13Z</time>
   </trkpt>
   <trkpt lat="51.1872650" lon="5.3432640">
    <ele>53.6</ele>
    <time>2020-06-14T07:26:14Z</time>
   </trkpt>
   <trkpt lat="51.1872670" lon="5.3432460">
    <ele>53.6</ele>
    <time>2020-06-14T07:26:15Z</time>
   </trkpt>
   <trkpt lat="51.1872960" lon="5.3432260">
    <ele>53.6</ele>
    <time>2020-06-14T07:26:16Z</time>
   </trkpt>
   <trkpt lat="51.1873090" lon="5.3432100">
    <ele>53.6</ele>
    <time>2020-06-14T07:26:17Z</time>
   </trkpt>
   <trkpt lat="51.1873410" lon="5.3431550">
    <ele>53.6</ele>
    <time>2020-06-14T07:26:18Z</time>
   </trkpt>
   <trkpt lat="51.1873600" lon="5.3431010">
    <ele>53.5</ele>
    <time>2020-06-14T07:26:19Z</time>
   </trkpt>
   <trkpt lat="51.1873780" lon="5.3429830">
    <ele>53.5</ele>
    <time>2020-06-14T07:26:20Z</time>
   </trkpt>
   <trkpt lat="51.1874200" lon="5.3429060">
    <ele>53.5</ele>
    <time>2020-06-14T07:26:21Z</time>
   </trkpt>
   <trkpt lat="51.1874540" lon="5.3428170">
    <ele>53.4</ele>
    <time>2020-06-14T07:26:22Z</time>
   </trkpt>
   <trkpt lat="51.1874860" lon="5.3427180">
    <ele>53.4</ele>
    <time>2020-06-14T07:26:23Z</time>
   </trkpt>
   <trkpt lat="51.1875220" lon="5.3426340">
    <ele>53.4</ele>
    <time>2020-06-14T07:26:24Z</time>
   </trkpt>
   <trkpt lat="51.1875710" lon="5.3425640">
    <ele>53.3</ele>
    <time>2020-06-14T07:26:25Z</time>
   </trkpt>
   <trkpt lat="51.1876100" lon="5.3424940">
    <ele>53.3</ele>
    <time>2020-06-14T07:26:26Z</time>
   </trkpt>
   <trkpt lat="51.1876430" lon="5.3424300">
    <ele>53.3</ele>
    <time>2020-06-14T07:26:27Z</time>
   </trkpt>
   <trkpt lat="51.1876830" lon="5.3423690">
    <ele>53.2</ele>
    <time>2020-06-14T07:26:28Z</time>
   </trkpt>
   <trkpt lat="51.1877260" lon="5.3422960">
    <ele>53.2</ele>
    <time>2020-06-14T07:26:29Z</time>
   </trkpt>
   <trkpt lat="51.1877660" lon="5.3422240">
    <ele>53.1</ele>
    <time>2020-06-14T07:26:30Z</time>
   </trkpt>
   <trkpt lat="51.1877900" lon="5.3421370">
    <ele>53.1</ele>
    <time>2020-06-14T07:26:31Z</time>
   </trkpt>
   <trkpt lat="51.1878160" lon="5.3420350">
    <ele>53.1</ele>
    <time>2020-06-14T07:26:32Z</time>
   </trkpt>
   <trkpt lat="51.1878530" lon="5.3419400">
    <ele>53.1</ele>
    <time>2020-06-14T07:26:33Z</time>
   </trkpt>
   <trkpt lat="51.1878920" lon="5.3418560">
    <ele>53.0</ele>
    <time>2020-06-14T07:26:34Z</time>
   </trkpt>
   <trkpt lat="51.1879360" lon="5.3417750">
    <ele>53.0</ele>
    <time>2020-06-14T07:26:35Z</time>
   </trkpt>
   <trkpt lat="51.1879800" lon="5.3416870">
    <ele>53.0</ele>
    <time>2020-06-14T07:26:36Z</time>
   </trkpt>
   <trkpt lat="51.1880230" lon="5.3415920">
    <ele>53.0</ele>
    <time>2020-06-14T07:26:37Z</time>
   </trkpt>
   <trkpt lat="51.1880620" lon="5.3415020">
    <ele>53.0</ele>
    <time>2020-06-14T07:26:38Z</time>
   </trkpt>
   <trkpt lat="51.1881100" lon="5.3414220">
    <ele>53.0</ele>
    <time>2020-06-14T07:26:39Z</time>
   </trkpt>
   <trkpt lat="51.1881560" lon="5.3413380">
    <ele>53.0</ele>
    <time>2020-06-14T07:26:40Z</time>
   </trkpt>
   <trkpt lat="51.1882010" lon="5.3412570">
    <ele>53.1</ele>
    <time>2020-06-14T07:26:41Z</time>
   </trkpt>
   <trkpt lat="51.1882440" lon="5.3411860">
    <ele>53.1</ele>
    <time>2020-06-14T07:26:42Z</time>
   </trkpt>
   <trkpt lat="51.1882850" lon="5.3411120">
    <ele>53.2</ele>
    <time>2020-06-14T07:26:43Z</time>
   </trkpt>
   <trkpt lat="51.1883190" lon="5.3410480">
    <ele>53.3</ele>
    <time>2020-06-14T07:26:44Z</time>
   </trkpt>
   <trkpt lat="51.1883660" lon="5.3409730">
    <ele>53.4</ele>
    <time>2020-06-14T07:26:45Z</time>
   </trkpt>
   <trkpt lat="51.1884150" lon="5.3409260">
    <ele>53.5</ele>
    <time>2020-06-14T07:26:46Z</time>
   </trkpt>
   <trkpt lat="51.1884710" lon="5.3408970">
    <ele>53.6</ele>
    <time>2020-06-14T07:26:47Z</time>
   </trkpt>
   <trkpt lat="51.1885190" lon="5.3408450">
    <ele>53.6</ele>
    <time>2020-06-14T07:26:48Z</time>
   </trkpt>
   <trkpt lat="51.1885450" lon="5.3407770">
    <ele>53.6</ele>
    <time>2020-06-14T07:26:49Z</time>
   </trkpt>
   <trkpt lat="51.1885640" lon="5.3406990">
    <ele>53.6</ele>
    <time>2020-06-14T07:26:50Z</time>
   </trkpt>
   <trkpt lat="51.1885860" lon="5.3406100">
    <ele>53.7</ele>
    <time>2020-06-14T07:26:51Z</time>
   </trkpt>
   <trkpt lat="51.1886230" lon="5.3405360">
    <ele>53.7</ele>
    <time>2020-06-14T07:26:52Z</time>
   </trkpt>
   <trkpt lat="51.1886580" lon="5.3404580">
    <ele>53.7</ele>
    <time>2020-06-14T07:26:53Z</time>
   </trkpt>
   <trkpt lat="51.1886920" lon="5.3403780">
    <ele>53.7</ele>
    <time>2020-06-14T07:26:54Z</time>
   </trkpt>
   <trkpt lat="51.1887390" lon="5.3403080">
    <ele>53.7</ele>
    <time>2020-06-14T07:26:55Z</time>
   </trkpt>
   <trkpt lat="51.1887900" lon="5.3402460">
    <ele>53.7</ele>
    <time>2020-06-14T07:26:56Z</time>
   </trkpt>
   <trkpt lat="51.1888350" lon="5.3401770">
    <ele>53.7</ele>
    <time>2020-06-14T07:26:57Z</time>
   </trkpt>
   <trkpt lat="51.1888710" lon="5.3401150">
    <ele>53.8</ele>
    <time>2020-06-14T07:26:58Z</time>
   </trkpt>
   <trkpt lat="51.1889100" lon="5.3400640">
    <ele>53.8</ele>
    <time>2020-06-14T07:26:59Z</time>
   </trkpt>
   <trkpt lat="51.1889470" lon="5.3400130">
    <ele>53.9</ele>
    <time>2020-06-14T07:27:00Z</time>
   </trkpt>
   <trkpt lat="51.1889720" lon="5.3399510">
    <ele>53.9</ele>
    <time>2020-06-14T07:27:01Z</time>
   </trkpt>
   <trkpt lat="51.1889840" lon="5.3398850">
    <ele>53.9</ele>
    <time>2020-06-14T07:27:02Z</time>
   </trkpt>
   <trkpt lat="51.1890040" lon="5.3398060">
    <ele>53.9</ele>
    <time>2020-06-14T07:27:03Z</time>
   </trkpt>
   <trkpt lat="51.1890370" lon="5.3397450">
    <ele>53.9</ele>
    <time>2020-06-14T07:27:04Z</time>
   </trkpt>
   <trkpt lat="51.1890810" lon="5.3396810">
    <ele>53.9</ele>
    <time>2020-06-14T07:27:05Z</time>
   </trkpt>
   <trkpt lat="51.1891240" lon="5.3396200">
    <ele>53.8</ele>
    <time>2020-06-14T07:27:06Z</time>
   </trkpt>
   <trkpt lat="51.1891600" lon="5.3395220">
    <ele>53.8</ele>
    <time>2020-06-14T07:27:07Z</time>
   </trkpt>
   <trkpt lat="51.1891940" lon="5.3394020">
    <ele>53.7</ele>
    <time>2020-06-14T07:27:08Z</time>
   </trkpt>
   <trkpt lat="51.1892170" lon="5.3392950">
    <ele>53.6</ele>
    <time>2020-06-14T07:27:09Z</time>
   </trkpt>
   <trkpt lat="51.1892330" lon="5.3392020">
    <ele>53.5</ele>
    <time>2020-06-14T07:27:10Z</time>
   </trkpt>
   <trkpt lat="51.1892520" lon="5.3390750">
    <ele>53.4</ele>
    <time>2020-06-14T07:27:11Z</time>
   </trkpt>
   <trkpt lat="51.1892800" lon="5.3389420">
    <ele>53.3</ele>
    <time>2020-06-14T07:27:12Z</time>
   </trkpt>
   <trkpt lat="51.1893120" lon="5.3388320">
    <ele>53.2</ele>
    <time>2020-06-14T07:27:13Z</time>
   </trkpt>
   <trkpt lat="51.1893550" lon="5.3387320">
    <ele>53.2</ele>
    <time>2020-06-14T07:27:14Z</time>
   </trkpt>
   <trkpt lat="51.1894120" lon="5.3386310">
    <ele>53.1</ele>
    <time>2020-06-14T07:27:15Z</time>
   </trkpt>
   <trkpt lat="51.1894720" lon="5.3385140">
    <ele>52.9</ele>
    <time>2020-06-14T07:27:16Z</time>
   </trkpt>
   <trkpt lat="51.1895440" lon="5.3383900">
    <ele>52.8</ele>
    <time>2020-06-14T07:27:17Z</time>
   </trkpt>
   <trkpt lat="51.1896030" lon="5.3382860">
    <ele>52.8</ele>
    <time>2020-06-14T07:27:18Z</time>
   </trkpt>
   <trkpt lat="51.1896590" lon="5.3381990">
    <ele>52.7</ele>
    <time>2020-06-14T07:27:19Z</time>
   </trkpt>
   <trkpt lat="51.1897200" lon="5.3380990">
    <ele>52.8</ele>
    <time>2020-06-14T07:27:20Z</time>
   </trkpt>
   <trkpt lat="51.1897800" lon="5.3379880">
    <ele>52.8</ele>
    <time>2020-06-14T07:27:21Z</time>
   </trkpt>
   <trkpt lat="51.1898300" lon="5.3378910">
    <ele>52.8</ele>
    <time>2020-06-14T07:27:22Z</time>
   </trkpt>
   <trkpt lat="51.1898820" lon="5.3378080">
    <ele>52.7</ele>
    <time>2020-06-14T07:27:23Z</time>
   </trkpt>
   <trkpt lat="51.1899370" lon="5.3377180">
    <ele>52.7</ele>
    <time>2020-06-14T07:27:24Z</time>
   </trkpt>
   <trkpt lat="51.1899890" lon="5.3376260">
    <ele>52.7</ele>
    <time>2020-06-14T07:27:25Z</time>
   </trkpt>
   <trkpt lat="51.1900490" lon="5.3375360">
    <ele>52.6</ele>
    <time>2020-06-14T07:27:26Z</time>
   </trkpt>
   <trkpt lat="51.1900890" lon="5.3374350">
    <ele>52.5</ele>
    <time>2020-06-14T07:27:27Z</time>
   </trkpt>
   <trkpt lat="51.1901500" lon="5.3373320">
    <ele>52.4</ele>
    <time>2020-06-14T07:27:28Z</time>
   </trkpt>
   <trkpt lat="51.1902060" lon="5.3372210">
    <ele>52.4</ele>
    <time>2020-06-14T07:27:29Z</time>
   </trkpt>
   <trkpt lat="51.1902610" lon="5.3371180">
    <ele>52.4</ele>
    <time>2020-06-14T07:27:30Z</time>
   </trkpt>
   <trkpt lat="51.1903040" lon="5.3370210">
    <ele>52.4</ele>
    <time>2020-06-14T07:27:31Z</time>
   </trkpt>
   <trkpt lat="51.1903470" lon="5.3369210">
    <ele>52.4</ele>
    <time>2020-06-14T07:27:32Z</time>
   </trkpt>
   <trkpt lat="51.1903900" lon="5.3368240">
    <ele>52.3</ele>
    <time>2020-06-14T07:27:33Z</time>
   </trkpt>
   <trkpt lat="51.1904270" lon="5.3367250">
    <ele>52.3</ele>
    <time>2020-06-14T07:27:34Z</time>
   </trkpt>
   <trkpt lat="51.1904740" lon="5.3366330">
    <ele>52.2</ele>
    <time>2020-06-14T07:27:35Z</time>
   </trkpt>
   <trkpt lat="51.1905200" lon="5.3365390">
    <ele>52.2</ele>
    <time>2020-06-14T07:27:36Z</time>
   </trkpt>
   <trkpt lat="51.1905670" lon="5.3364450">
    <ele>52.3</ele>
    <time>2020-06-14T07:27:37Z</time>
   </trkpt>
   <trkpt lat="51.1906160" lon="5.3363510">
    <ele>52.3</ele>
    <time>2020-06-14T07:27:38Z</time>
   </trkpt>
   <trkpt lat="51.1906610" lon="5.3362670">
    <ele>52.3</ele>
    <time>2020-06-14T07:27:39Z</time>
   </trkpt>
   <trkpt lat="51.1907090" lon="5.3361920">
    <ele>52.4</ele>
    <time>2020-06-14T07:27:40Z</time>
   </trkpt>
   <trkpt lat="51.1907510" lon="5.3361100">
    <ele>52.4</ele>
    <time>2020-06-14T07:27:41Z</time>
   </trkpt>
   <trkpt lat="51.1907940" lon="5.3360230">
    <ele>52.4</ele>
    <time>2020-06-14T07:27:42Z</time>
   </trkpt>
   <trkpt lat="51.1908380" lon="5.3359360">
    <ele>52.5</ele>
    <time>2020-06-14T07:27:43Z</time>
   </trkpt>
   <trkpt lat="51.1908830" lon="5.3358560">
    <ele>52.5</ele>
    <time>2020-06-14T07:27:44Z</time>
   </trkpt>
   <trkpt lat="51.1909150" lon="5.3357770">
    <ele>52.6</ele>
    <time>2020-06-14T07:27:45Z</time>
   </trkpt>
   <trkpt lat="51.1909410" lon="5.3357070">
    <ele>52.6</ele>
    <time>2020-06-14T07:27:46Z</time>
   </trkpt>
   <trkpt lat="51.1909660" lon="5.3356440">
    <ele>52.6</ele>
    <time>2020-06-14T07:27:47Z</time>
   </trkpt>
   <trkpt lat="51.1909940" lon="5.3355870">
    <ele>52.6</ele>
    <time>2020-06-14T07:27:48Z</time>
   </trkpt>
   <trkpt lat="51.1910270" lon="5.3355240">
    <ele>52.7</ele>
    <time>2020-06-14T07:27:49Z</time>
   </trkpt>
   <trkpt lat="51.1910660" lon="5.3354580">
    <ele>52.7</ele>
    <time>2020-06-14T07:27:50Z</time>
   </trkpt>
   <trkpt lat="51.1911060" lon="5.3353890">
    <ele>52.7</ele>
    <time>2020-06-14T07:27:51Z</time>
   </trkpt>
   <trkpt lat="51.1911450" lon="5.3353190">
    <ele>52.7</ele>
    <time>2020-06-14T07:27:52Z</time>
   </trkpt>
   <trkpt lat="51.1911770" lon="5.3352360">
    <ele>52.7</ele>
    <time>2020-06-14T07:27:53Z</time>
   </trkpt>
   <trkpt lat="51.1912200" lon="5.3351640">
    <ele>52.7</ele>
    <time>2020-06-14T07:27:54Z</time>
   </trkpt>
   <trkpt lat="51.1912640" lon="5.3350920">
    <ele>52.6</ele>
    <time>2020-06-14T07:27:55Z</time>
   </trkpt>
   <trkpt lat="51.1913140" lon="5.3350240">
    <ele>52.6</ele>
    <time>2020-06-14T07:27:56Z</time>
   </trkpt>
   <trkpt lat="51.1913600" lon="5.3349470">
    <ele>52.6</ele>
    <time>2020-06-14T07:27:57Z</time>
   </trkpt>
   <trkpt lat="51.1914210" lon="5.3348790">
    <ele>52.6</ele>
    <time>2020-06-14T07:27:58Z</time>
   </trkpt>
   <trkpt lat="51.1914690" lon="5.3348000">
    <ele>52.7</ele>
    <time>2020-06-14T07:27:59Z</time>
   </trkpt>
   <trkpt lat="51.1915130" lon="5.3347120">
    <ele>52.7</ele>
    <time>2020-06-14T07:28:00Z</time>
   </trkpt>
   <trkpt lat="51.1915570" lon="5.3346240">
    <ele>52.8</ele>
    <time>2020-06-14T07:28:01Z</time>
   </trkpt>
   <trkpt lat="51.1916060" lon="5.3345370">
    <ele>53.0</ele>
    <time>2020-06-14T07:28:02Z</time>
   </trkpt>
   <trkpt lat="51.1916520" lon="5.3344470">
    <ele>53.2</ele>
    <time>2020-06-14T07:28:03Z</time>
   </trkpt>
   <trkpt lat="51.1916970" lon="5.3343550">
    <ele>53.4</ele>
    <time>2020-06-14T07:28:04Z</time>
   </trkpt>
   <trkpt lat="51.1917390" lon="5.3342700">
    <ele>53.7</ele>
    <time>2020-06-14T07:28:05Z</time>
   </trkpt>
   <trkpt lat="51.1917770" lon="5.3341900">
    <ele>53.9</ele>
    <time>2020-06-14T07:28:06Z</time>
   </trkpt>
   <trkpt lat="51.1918090" lon="5.3341180">
    <ele>54.0</ele>
    <time>2020-06-14T07:28:07Z</time>
   </trkpt>
   <trkpt lat="51.1918380" lon="5.3340560">
    <ele>54.1</ele>
    <time>2020-06-14T07:28:08Z</time>
   </trkpt>
   <trkpt lat="51.1918640" lon="5.3339940">
    <ele>54.3</ele>
    <time>2020-06-14T07:28:09Z</time>
   </trkpt>
   <trkpt lat="51.1918620" lon="5.3339280">
    <ele>54.4</ele>
    <time>2020-06-14T07:28:10Z</time>
   </trkpt>
   <trkpt lat="51.1918450" lon="5.3338730">
    <ele>54.3</ele>
    <time>2020-06-14T07:28:11Z</time>
   </trkpt>
   <trkpt lat="51.1918290" lon="5.3338310">
    <ele>54.3</ele>
    <time>2020-06-14T07:28:12Z</time>
   </trkpt>
   <trkpt lat="51.1918100" lon="5.3337630">
    <ele>54.3</ele>
    <time>2020-06-14T07:28:13Z</time>
   </trkpt>
   <trkpt lat="51.1917650" lon="5.3336990">
    <ele>54.2</ele>
    <time>2020-06-14T07:28:14Z</time>
   </trkpt>
   <trkpt lat="51.1917080" lon="5.3336340">
    <ele>54.2</ele>
    <time>2020-06-14T07:28:15Z</time>
   </trkpt>
   <trkpt lat="51.1916460" lon="5.3335760">
    <ele>54.0</ele>
    <time>2020-06-14T07:28:16Z</time>
   </trkpt>
   <trkpt lat="51.1915870" lon="5.3335210">
    <ele>53.9</ele>
    <time>2020-06-14T07:28:17Z</time>
   </trkpt>
   <trkpt lat="51.1915300" lon="5.3334570">
    <ele>53.7</ele>
    <time>2020-06-14T07:28:18Z</time>
   </trkpt>
   <trkpt lat="51.1914710" lon="5.3333810">
    <ele>53.6</ele>
    <time>2020-06-14T07:28:19Z</time>
   </trkpt>
   <trkpt lat="51.1914100" lon="5.3333010">
    <ele>53.6</ele>
    <time>2020-06-14T07:28:20Z</time>
   </trkpt>
   <trkpt lat="51.1913510" lon="5.3332240">
    <ele>53.5</ele>
    <time>2020-06-14T07:28:21Z</time>
   </trkpt>
   <trkpt lat="51.1912910" lon="5.3331440">
    <ele>53.5</ele>
    <time>2020-06-14T07:28:22Z</time>
   </trkpt>
   <trkpt lat="51.1912300" lon="5.3330660">
    <ele>53.5</ele>
    <time>2020-06-14T07:28:23Z</time>
   </trkpt>
   <trkpt lat="51.1911700" lon="5.3329830">
    <ele>53.5</ele>
    <time>2020-06-14T07:28:24Z</time>
   </trkpt>
   <trkpt lat="51.1911290" lon="5.3329330">
    <ele>53.6</ele>
    <time>2020-06-14T07:28:25Z</time>
   </trkpt>
   <trkpt lat="51.1911040" lon="5.3328990">
    <ele>53.6</ele>
    <time>2020-06-14T07:28:26Z</time>
   </trkpt>
   <trkpt lat="51.1910680" lon="5.3328600">
    <ele>53.6</ele>
    <time>2020-06-14T07:28:27Z</time>
   </trkpt>
   <trkpt lat="51.1910530" lon="5.3328460">
    <ele>53.7</ele>
    <time>2020-06-14T07:28:28Z</time>
   </trkpt>
   <trkpt lat="51.1910150" lon="5.3328010">
    <ele>53.7</ele>
    <time>2020-06-14T07:28:29Z</time>
   </trkpt>
   <trkpt lat="51.1909930" lon="5.3327610">
    <ele>53.7</ele>
    <time>2020-06-14T07:28:30Z</time>
   </trkpt>
   <trkpt lat="51.1909780" lon="5.3327140">
    <ele>53.7</ele>
    <time>2020-06-14T07:28:31Z</time>
   </trkpt>
   <trkpt lat="51.1909740" lon="5.3326670">
    <ele>53.7</ele>
    <time>2020-06-14T07:28:32Z</time>
   </trkpt>
   <trkpt lat="51.1909850" lon="5.3326070">
    <ele>53.7</ele>
    <time>2020-06-14T07:28:33Z</time>
   </trkpt>
   <trkpt lat="51.1910120" lon="5.3325330">
    <ele>53.6</ele>
    <time>2020-06-14T07:28:34Z</time>
   </trkpt>
   <trkpt lat="51.1910480" lon="5.3324410">
    <ele>53.6</ele>
    <time>2020-06-14T07:28:35Z</time>
   </trkpt>
   <trkpt lat="51.1910880" lon="5.3323370">
    <ele>53.5</ele>
    <time>2020-06-14T07:28:36Z</time>
   </trkpt>
   <trkpt lat="51.1911370" lon="5.3322440">
    <ele>53.4</ele>
    <time>2020-06-14T07:28:37Z</time>
   </trkpt>
   <trkpt lat="51.1911810" lon="5.3321560">
    <ele>53.4</ele>
    <time>2020-06-14T07:28:38Z</time>
   </trkpt>
   <trkpt lat="51.1912290" lon="5.3320650">
    <ele>53.4</ele>
    <time>2020-06-14T07:28:39Z</time>
   </trkpt>
   <trkpt lat="51.1912790" lon="5.3319600">
    <ele>53.4</ele>
    <time>2020-06-14T07:28:40Z</time>
   </trkpt>
   <trkpt lat="51.1913220" lon="5.3318590">
    <ele>53.5</ele>
    <time>2020-06-14T07:28:41Z</time>
   </trkpt>
   <trkpt lat="51.1913580" lon="5.3317540">
    <ele>53.6</ele>
    <time>2020-06-14T07:28:42Z</time>
   </trkpt>
   <trkpt lat="51.1914010" lon="5.3316690">
    <ele>53.7</ele>
    <time>2020-06-14T07:28:43Z</time>
   </trkpt>
   <trkpt lat="51.1914490" lon="5.3315720">
    <ele>53.8</ele>
    <time>2020-06-14T07:28:44Z</time>
   </trkpt>
   <trkpt lat="51.1914980" lon="5.3314780">
    <ele>54.0</ele>
    <time>2020-06-14T07:28:45Z</time>
   </trkpt>
   <trkpt lat="51.1915400" lon="5.3313930">
    <ele>54.0</ele>
    <time>2020-06-14T07:28:46Z</time>
   </trkpt>
   <trkpt lat="51.1915810" lon="5.3313130">
    <ele>54.0</ele>
    <time>2020-06-14T07:28:47Z</time>
   </trkpt>
   <trkpt lat="51.1916210" lon="5.3312450">
    <ele>54.0</ele>
    <time>2020-06-14T07:28:48Z</time>
   </trkpt>
   <trkpt lat="51.1916610" lon="5.3311780">
    <ele>54.0</ele>
    <time>2020-06-14T07:28:49Z</time>
   </trkpt>
   <trkpt lat="51.1917050" lon="5.3310910">
    <ele>54.0</ele>
    <time>2020-06-14T07:28:50Z</time>
   </trkpt>
   <trkpt lat="51.1917430" lon="5.3310060">
    <ele>53.9</ele>
    <time>2020-06-14T07:28:51Z</time>
   </trkpt>
   <trkpt lat="51.1917820" lon="5.3309090">
    <ele>53.9</ele>
    <time>2020-06-14T07:28:52Z</time>
   </trkpt>
   <trkpt lat="51.1918310" lon="5.3307910">
    <ele>54.0</ele>
    <time>2020-06-14T07:28:53Z</time>
   </trkpt>
   <trkpt lat="51.1918720" lon="5.3306800">
    <ele>54.0</ele>
    <time>2020-06-14T07:28:54Z</time>
   </trkpt>
   <trkpt lat="51.1919120" lon="5.3305910">
    <ele>54.1</ele>
    <time>2020-06-14T07:28:55Z</time>
   </trkpt>
   <trkpt lat="51.1919490" lon="5.3305110">
    <ele>54.2</ele>
    <time>2020-06-14T07:28:56Z</time>
   </trkpt>
   <trkpt lat="51.1919880" lon="5.3304410">
    <ele>54.2</ele>
    <time>2020-06-14T07:28:57Z</time>
   </trkpt>
   <trkpt lat="51.1920230" lon="5.3303810">
    <ele>54.2</ele>
    <time>2020-06-14T07:28:58Z</time>
   </trkpt>
   <trkpt lat="51.1920510" lon="5.3303240">
    <ele>54.2</ele>
    <time>2020-06-14T07:28:59Z</time>
   </trkpt>
   <trkpt lat="51.1920550" lon="5.3302710">
    <ele>54.2</ele>
    <time>2020-06-14T07:29:00Z</time>
   </trkpt>
   <trkpt lat="51.1920480" lon="5.3302150">
    <ele>54.1</ele>
    <time>2020-06-14T07:29:01Z</time>
   </trkpt>
   <trkpt lat="51.1920220" lon="5.3301650">
    <ele>54.0</ele>
    <time>2020-06-14T07:29:02Z</time>
   </trkpt>
   <trkpt lat="51.1919950" lon="5.3301170">
    <ele>54.0</ele>
    <time>2020-06-14T07:29:03Z</time>
   </trkpt>
   <trkpt lat="51.1919520" lon="5.3300590">
    <ele>53.9</ele>
    <time>2020-06-14T07:29:04Z</time>
   </trkpt>
   <trkpt lat="51.1919010" lon="5.3299830">
    <ele>53.8</ele>
    <time>2020-06-14T07:29:05Z</time>
   </trkpt>
   <trkpt lat="51.1918500" lon="5.3299070">
    <ele>53.7</ele>
    <time>2020-06-14T07:29:06Z</time>
   </trkpt>
   <trkpt lat="51.1917940" lon="5.3298310">
    <ele>53.6</ele>
    <time>2020-06-14T07:29:07Z</time>
   </trkpt>
   <trkpt lat="51.1917340" lon="5.3297420">
    <ele>53.5</ele>
    <time>2020-06-14T07:29:08Z</time>
   </trkpt>
   <trkpt lat="51.1916660" lon="5.3296590">
    <ele>53.5</ele>
    <time>2020-06-14T07:29:09Z</time>
   </trkpt>
   <trkpt lat="51.1915920" lon="5.3295750">
    <ele>53.4</ele>
    <time>2020-06-14T07:29:10Z</time>
   </trkpt>
   <trkpt lat="51.1915120" lon="5.3294860">
    <ele>53.4</ele>
    <time>2020-06-14T07:29:11Z</time>
   </trkpt>
   <trkpt lat="51.1914370" lon="5.3293940">
    <ele>53.4</ele>
    <time>2020-06-14T07:29:12Z</time>
   </trkpt>
   <trkpt lat="51.1913710" lon="5.3293030">
    <ele>53.3</ele>
    <time>2020-06-14T07:29:13Z</time>
   </trkpt>
   <trkpt lat="51.1913100" lon="5.3292140">
    <ele>53.3</ele>
    <time>2020-06-14T07:29:14Z</time>
   </trkpt>
   <trkpt lat="51.1912550" lon="5.3291430">
    <ele>53.2</ele>
    <time>2020-06-14T07:29:15Z</time>
   </trkpt>
   <trkpt lat="51.1911960" lon="5.3290610">
    <ele>53.2</ele>
    <time>2020-06-14T07:29:16Z</time>
   </trkpt>
   <trkpt lat="51.1911370" lon="5.3289830">
    <ele>53.1</ele>
    <time>2020-06-14T07:29:17Z</time>
   </trkpt>
   <trkpt lat="51.1910810" lon="5.3289140">
    <ele>53.1</ele>
    <time>2020-06-14T07:29:18Z</time>
   </trkpt>
   <trkpt lat="51.1910270" lon="5.3288500">
    <ele>53.0</ele>
    <time>2020-06-14T07:29:19Z</time>
   </trkpt>
   <trkpt lat="51.1909680" lon="5.3287880">
    <ele>52.9</ele>
    <time>2020-06-14T07:29:20Z</time>
   </trkpt>
   <trkpt lat="51.1909080" lon="5.3287130">
    <ele>52.8</ele>
    <time>2020-06-14T07:29:21Z</time>
   </trkpt>
   <trkpt lat="51.1908510" lon="5.3286420">
    <ele>52.7</ele>
    <time>2020-06-14T07:29:22Z</time>
   </trkpt>
   <trkpt lat="51.1907890" lon="5.3285710">
    <ele>52.6</ele>
    <time>2020-06-14T07:29:23Z</time>
   </trkpt>
   <trkpt lat="51.1907250" lon="5.3285000">
    <ele>52.5</ele>
    <time>2020-06-14T07:29:24Z</time>
   </trkpt>
   <trkpt lat="51.1906640" lon="5.3284270">
    <ele>52.4</ele>
    <time>2020-06-14T07:29:25Z</time>
   </trkpt>
   <trkpt lat="51.1906020" lon="5.3283500">
    <ele>52.4</ele>
    <time>2020-06-14T07:29:26Z</time>
   </trkpt>
   <trkpt lat="51.1905430" lon="5.3282800">
    <ele>52.3</ele>
    <time>2020-06-14T07:29:27Z</time>
   </trkpt>
   <trkpt lat="51.1904870" lon="5.3282160">
    <ele>52.2</ele>
    <time>2020-06-14T07:29:28Z</time>
   </trkpt>
   <trkpt lat="51.1904310" lon="5.3281460">
    <ele>52.1</ele>
    <time>2020-06-14T07:29:29Z</time>
   </trkpt>
   <trkpt lat="51.1903740" lon="5.3280690">
    <ele>52.0</ele>
    <time>2020-06-14T07:29:30Z</time>
   </trkpt>
   <trkpt lat="51.1903180" lon="5.3279950">
    <ele>52.0</ele>
    <time>2020-06-14T07:29:31Z</time>
   </trkpt>
   <trkpt lat="51.1902700" lon="5.3279210">
    <ele>52.0</ele>
    <time>2020-06-14T07:29:32Z</time>
   </trkpt>
   <trkpt lat="51.1902220" lon="5.3278550">
    <ele>52.0</ele>
    <time>2020-06-14T07:29:33Z</time>
   </trkpt>
   <trkpt lat="51.1901720" lon="5.3277910">
    <ele>51.9</ele>
    <time>2020-06-14T07:29:34Z</time>
   </trkpt>
   <trkpt lat="51.1901200" lon="5.3277300">
    <ele>51.9</ele>
    <time>2020-06-14T07:29:35Z</time>
   </trkpt>
   <trkpt lat="51.1900650" lon="5.3276680">
    <ele>51.9</ele>
    <time>2020-06-14T07:29:36Z</time>
   </trkpt>
   <trkpt lat="51.1900080" lon="5.3276030">
    <ele>51.9</ele>
    <time>2020-06-14T07:29:37Z</time>
   </trkpt>
   <trkpt lat="51.1899550" lon="5.3275380">
    <ele>51.8</ele>
    <time>2020-06-14T07:29:38Z</time>
   </trkpt>
   <trkpt lat="51.1898960" lon="5.3274790">
    <ele>51.7</ele>
    <time>2020-06-14T07:29:39Z</time>
   </trkpt>
   <trkpt lat="51.1898420" lon="5.3274100">
    <ele>51.7</ele>
    <time>2020-06-14T07:29:40Z</time>
   </trkpt>
   <trkpt lat="51.1897850" lon="5.3273390">
    <ele>51.6</ele>
    <time>2020-06-14T07:29:41Z</time>
   </trkpt>
   <trkpt lat="51.1897340" lon="5.3272640">
    <ele>51.6</ele>
    <time>2020-06-14T07:29:42Z</time>
   </trkpt>
   <trkpt lat="51.1896770" lon="5.3271920">
    <ele>51.5</ele>
    <time>2020-06-14T07:29:43Z</time>
   </trkpt>
   <trkpt lat="51.1896180" lon="5.3271180">
    <ele>51.5</ele>
    <time>2020-06-14T07:29:44Z</time>
   </trkpt>
   <trkpt lat="51.1895600" lon="5.3270510">
    <ele>51.4</ele>
    <time>2020-06-14T07:29:45Z</time>
   </trkpt>
   <trkpt lat="51.1895050" lon="5.3269850">
    <ele>51.3</ele>
    <time>2020-06-14T07:29:46Z</time>
   </trkpt>
   <trkpt lat="51.1894530" lon="5.3269240">
    <ele>51.2</ele>
    <time>2020-06-14T07:29:47Z</time>
   </trkpt>
   <trkpt lat="51.1894040" lon="5.3268670">
    <ele>51.0</ele>
    <time>2020-06-14T07:29:48Z</time>
   </trkpt>
   <trkpt lat="51.1893540" lon="5.3268080">
    <ele>50.9</ele>
    <time>2020-06-14T07:29:49Z</time>
   </trkpt>
   <trkpt lat="51.1893000" lon="5.3267450">
    <ele>50.8</ele>
    <time>2020-06-14T07:29:50Z</time>
   </trkpt>
   <trkpt lat="51.1892430" lon="5.3266790">
    <ele>50.7</ele>
    <time>2020-06-14T07:29:51Z</time>
   </trkpt>
   <trkpt lat="51.1891860" lon="5.3266080">
    <ele>50.6</ele>
    <time>2020-06-14T07:29:52Z</time>
   </trkpt>
   <trkpt lat="51.1891260" lon="5.3265390">
    <ele>50.5</ele>
    <time>2020-06-14T07:29:53Z</time>
   </trkpt>
   <trkpt lat="51.1890680" lon="5.3264630">
    <ele>50.4</ele>
    <time>2020-06-14T07:29:54Z</time>
   </trkpt>
   <trkpt lat="51.1890090" lon="5.3263920">
    <ele>50.4</ele>
    <time>2020-06-14T07:29:55Z</time>
   </trkpt>
   <trkpt lat="51.1889520" lon="5.3263210">
    <ele>50.4</ele>
    <time>2020-06-14T07:29:56Z</time>
   </trkpt>
   <trkpt lat="51.1888930" lon="5.3262510">
    <ele>50.3</ele>
    <time>2020-06-14T07:29:57Z</time>
   </trkpt>
   <trkpt lat="51.1888350" lon="5.3261820">
    <ele>50.3</ele>
    <time>2020-06-14T07:29:58Z</time>
   </trkpt>
   <trkpt lat="51.1887770" lon="5.3261140">
    <ele>50.4</ele>
    <time>2020-06-14T07:29:59Z</time>
   </trkpt>
   <trkpt lat="51.1887180" lon="5.3260440">
    <ele>50.4</ele>
    <time>2020-06-14T07:30:00Z</time>
   </trkpt>
   <trkpt lat="51.1886650" lon="5.3259760">
    <ele>50.4</ele>
    <time>2020-06-14T07:30:01Z</time>
   </trkpt>
   <trkpt lat="51.1886220" lon="5.3259150">
    <ele>50.4</ele>
    <time>2020-06-14T07:30:02Z</time>
   </trkpt>
   <trkpt lat="51.1885830" lon="5.3258650">
    <ele>50.5</ele>
    <time>2020-06-14T07:30:03Z</time>
   </trkpt>
   <trkpt lat="51.1885460" lon="5.3258190">
    <ele>50.5</ele>
    <time>2020-06-14T07:30:04Z</time>
   </trkpt>
   <trkpt lat="51.1885090" lon="5.3257760">
    <ele>50.6</ele>
    <time>2020-06-14T07:30:05Z</time>
   </trkpt>
   <trkpt lat="51.1884770" lon="5.3257370">
    <ele>50.7</ele>
    <time>2020-06-14T07:30:06Z</time>
   </trkpt>
   <trkpt lat="51.1884500" lon="5.3257020">
    <ele>50.8</ele>
    <time>2020-06-14T07:30:07Z</time>
   </trkpt>
   <trkpt lat="51.1884240" lon="5.3256690">
    <ele>50.9</ele>
    <time>2020-06-14T07:30:08Z</time>
   </trkpt>
   <trkpt lat="51.1883580" lon="5.3255950">
    <ele>51.1</ele>
    <time>2020-06-14T07:30:09Z</time>
   </trkpt>
   <trkpt lat="51.1883230" lon="5.3255580">
    <ele>51.2</ele>
    <time>2020-06-14T07:30:10Z</time>
   </trkpt>
   <trkpt lat="51.1882880" lon="5.3255220">
    <ele>51.3</ele>
    <time>2020-06-14T07:30:11Z</time>
   </trkpt>
   <trkpt lat="51.1882570" lon="5.3254840">
    <ele>51.3</ele>
    <time>2020-06-14T07:30:12Z</time>
   </trkpt>
   <trkpt lat="51.1882310" lon="5.3254390">
    <ele>51.2</ele>
    <time>2020-06-14T07:30:13Z</time>
   </trkpt>
   <trkpt lat="51.1882010" lon="5.3253910">
    <ele>51.2</ele>
    <time>2020-06-14T07:30:14Z</time>
   </trkpt>
   <trkpt lat="51.1881630" lon="5.3253360">
    <ele>51.1</ele>
    <time>2020-06-14T07:30:15Z</time>
   </trkpt>
   <trkpt lat="51.1881220" lon="5.3252720">
    <ele>51.0</ele>
    <time>2020-06-14T07:30:16Z</time>
   </trkpt>
   <trkpt lat="51.1880910" lon="5.3251990">
    <ele>50.9</ele>
    <time>2020-06-14T07:30:17Z</time>
   </trkpt>
   <trkpt lat="51.1880670" lon="5.3251410">
    <ele>50.8</ele>
    <time>2020-06-14T07:30:18Z</time>
   </trkpt>
   <trkpt lat="51.1880600" lon="5.3250520">
    <ele>50.7</ele>
    <time>2020-06-14T07:30:19Z</time>
   </trkpt>
   <trkpt lat="51.1880820" lon="5.3249470">
    <ele>50.6</ele>
    <time>2020-06-14T07:30:20Z</time>
   </trkpt>
   <trkpt lat="51.1881050" lon="5.3248360">
    <ele>50.5</ele>
    <time>2020-06-14T07:30:21Z</time>
   </trkpt>
   <trkpt lat="51.1883700" lon="5.3247910">
    <ele>50.3</ele>
    <time>2020-06-14T07:30:22Z</time>
   </trkpt>
   <trkpt lat="51.1883870" lon="5.3247320">
    <ele>50.4</ele>
    <time>2020-06-14T07:30:23Z</time>
   </trkpt>
   <trkpt lat="51.1884140" lon="5.3246080">
    <ele>50.4</ele>
    <time>2020-06-14T07:30:24Z</time>
   </trkpt>
   <trkpt lat="51.1884410" lon="5.3244790">
    <ele>50.4</ele>
    <time>2020-06-14T07:30:25Z</time>
   </trkpt>
   <trkpt lat="51.1884750" lon="5.3243590">
    <ele>50.5</ele>
    <time>2020-06-14T07:30:26Z</time>
   </trkpt>
   <trkpt lat="51.1884960" lon="5.3242280">
    <ele>50.6</ele>
    <time>2020-06-14T07:30:27Z</time>
   </trkpt>
   <trkpt lat="51.1885110" lon="5.3240940">
    <ele>50.6</ele>
    <time>2020-06-14T07:30:28Z</time>
   </trkpt>
   <trkpt lat="51.1885160" lon="5.3239620">
    <ele>50.6</ele>
    <time>2020-06-14T07:30:29Z</time>
   </trkpt>
   <trkpt lat="51.1885080" lon="5.3238280">
    <ele>50.7</ele>
    <time>2020-06-14T07:30:30Z</time>
   </trkpt>
   <trkpt lat="51.1884960" lon="5.3236880">
    <ele>50.7</ele>
    <time>2020-06-14T07:30:31Z</time>
   </trkpt>
   <trkpt lat="51.1884870" lon="5.3235430">
    <ele>50.7</ele>
    <time>2020-06-14T07:30:32Z</time>
   </trkpt>
   <trkpt lat="51.1884770" lon="5.3234000">
    <ele>50.7</ele>
    <time>2020-06-14T07:30:33Z</time>
   </trkpt>
   <trkpt lat="51.1884670" lon="5.3232630">
    <ele>50.7</ele>
    <time>2020-06-14T07:30:34Z</time>
   </trkpt>
   <trkpt lat="51.1884550" lon="5.3231220">
    <ele>50.7</ele>
    <time>2020-06-14T07:30:35Z</time>
   </trkpt>
   <trkpt lat="51.1884470" lon="5.3229840">
    <ele>50.7</ele>
    <time>2020-06-14T07:30:36Z</time>
   </trkpt>
   <trkpt lat="51.1884390" lon="5.3228450">
    <ele>50.7</ele>
    <time>2020-06-14T07:30:37Z</time>
   </trkpt>
   <trkpt lat="51.1884310" lon="5.3227130">
    <ele>50.7</ele>
    <time>2020-06-14T07:30:38Z</time>
   </trkpt>
   <trkpt lat="51.1884110" lon="5.3225800">
    <ele>50.7</ele>
    <time>2020-06-14T07:30:39Z</time>
   </trkpt>
   <trkpt lat="51.1883930" lon="5.3224500">
    <ele>50.7</ele>
    <time>2020-06-14T07:30:40Z</time>
   </trkpt>
   <trkpt lat="51.1883720" lon="5.3223130">
    <ele>50.6</ele>
    <time>2020-06-14T07:30:41Z</time>
   </trkpt>
   <trkpt lat="51.1883590" lon="5.3221800">
    <ele>50.6</ele>
    <time>2020-06-14T07:30:42Z</time>
   </trkpt>
   <trkpt lat="51.1883420" lon="5.3220420">
    <ele>50.5</ele>
    <time>2020-06-14T07:30:43Z</time>
   </trkpt>
   <trkpt lat="51.1883250" lon="5.3219000">
    <ele>50.5</ele>
    <time>2020-06-14T07:30:44Z</time>
   </trkpt>
   <trkpt lat="51.1883060" lon="5.3217590">
    <ele>50.5</ele>
    <time>2020-06-14T07:30:45Z</time>
   </trkpt>
   <trkpt lat="51.1882800" lon="5.3216250">
    <ele>50.4</ele>
    <time>2020-06-14T07:30:46Z</time>
   </trkpt>
   <trkpt lat="51.1882600" lon="5.3214950">
    <ele>50.4</ele>
    <time>2020-06-14T07:30:47Z</time>
   </trkpt>
   <trkpt lat="51.1882440" lon="5.3213770">
    <ele>50.4</ele>
    <time>2020-06-14T07:30:48Z</time>
   </trkpt>
   <trkpt lat="51.1882290" lon="5.3212640">
    <ele>50.4</ele>
    <time>2020-06-14T07:30:49Z</time>
   </trkpt>
   <trkpt lat="51.1882150" lon="5.3211360">
    <ele>50.3</ele>
    <time>2020-06-14T07:30:50Z</time>
   </trkpt>
   <trkpt lat="51.1882010" lon="5.3210130">
    <ele>50.3</ele>
    <time>2020-06-14T07:30:51Z</time>
   </trkpt>
   <trkpt lat="51.1881870" lon="5.3208930">
    <ele>50.3</ele>
    <time>2020-06-14T07:30:52Z</time>
   </trkpt>
   <trkpt lat="51.1881660" lon="5.3207740">
    <ele>50.3</ele>
    <time>2020-06-14T07:30:53Z</time>
   </trkpt>
   <trkpt lat="51.1881410" lon="5.3206660">
    <ele>50.3</ele>
    <time>2020-06-14T07:30:54Z</time>
   </trkpt>
   <trkpt lat="51.1881270" lon="5.3205540">
    <ele>50.2</ele>
    <time>2020-06-14T07:30:55Z</time>
   </trkpt>
   <trkpt lat="51.1881110" lon="5.3204440">
    <ele>50.2</ele>
    <time>2020-06-14T07:30:56Z</time>
   </trkpt>
   <trkpt lat="51.1880990" lon="5.3203340">
    <ele>50.2</ele>
    <time>2020-06-14T07:30:57Z</time>
   </trkpt>
   <trkpt lat="51.1880870" lon="5.3202250">
    <ele>50.2</ele>
    <time>2020-06-14T07:30:58Z</time>
   </trkpt>
   <trkpt lat="51.1880750" lon="5.3201160">
    <ele>50.2</ele>
    <time>2020-06-14T07:30:59Z</time>
   </trkpt>
   <trkpt lat="51.1880600" lon="5.3200050">
    <ele>50.1</ele>
    <time>2020-06-14T07:31:00Z</time>
   </trkpt>
   <trkpt lat="51.1880410" lon="5.3198910">
    <ele>50.1</ele>
    <time>2020-06-14T07:31:01Z</time>
   </trkpt>
   <trkpt lat="51.1880210" lon="5.3197770">
    <ele>50.1</ele>
    <time>2020-06-14T07:31:02Z</time>
   </trkpt>
   <trkpt lat="51.1879950" lon="5.3196750">
    <ele>50.1</ele>
    <time>2020-06-14T07:31:03Z</time>
   </trkpt>
   <trkpt lat="51.1879800" lon="5.3195670">
    <ele>50.1</ele>
    <time>2020-06-14T07:31:04Z</time>
   </trkpt>
   <trkpt lat="51.1879650" lon="5.3194570">
    <ele>50.1</ele>
    <time>2020-06-14T07:31:05Z</time>
   </trkpt>
   <trkpt lat="51.1879510" lon="5.3193460">
    <ele>50.1</ele>
    <time>2020-06-14T07:31:06Z</time>
   </trkpt>
   <trkpt lat="51.1879390" lon="5.3192360">
    <ele>50.1</ele>
    <time>2020-06-14T07:31:07Z</time>
   </trkpt>
   <trkpt lat="51.1879270" lon="5.3191330">
    <ele>50.2</ele>
    <time>2020-06-14T07:31:08Z</time>
   </trkpt>
   <trkpt lat="51.1879120" lon="5.3190310">
    <ele>50.2</ele>
    <time>2020-06-14T07:31:09Z</time>
   </trkpt>
   <trkpt lat="51.1879010" lon="5.3189310">
    <ele>50.4</ele>
    <time>2020-06-14T07:31:10Z</time>
   </trkpt>
   <trkpt lat="51.1878910" lon="5.3188360">
    <ele>50.4</ele>
    <time>2020-06-14T07:31:11Z</time>
   </trkpt>
   <trkpt lat="51.1878880" lon="5.3187390">
    <ele>50.4</ele>
    <time>2020-06-14T07:31:12Z</time>
   </trkpt>
   <trkpt lat="51.1879050" lon="5.3186450">
    <ele>50.3</ele>
    <time>2020-06-14T07:31:13Z</time>
   </trkpt>
   <trkpt lat="51.1879100" lon="5.3185500">
    <ele>50.3</ele>
    <time>2020-06-14T07:31:14Z</time>
   </trkpt>
   <trkpt lat="51.1878900" lon="5.3184480">
    <ele>50.3</ele>
    <time>2020-06-14T07:31:15Z</time>
   </trkpt>
   <trkpt lat="51.1878690" lon="5.3183360">
    <ele>50.3</ele>
    <time>2020-06-14T07:31:16Z</time>
   </trkpt>
   <trkpt lat="51.1878520" lon="5.3182240">
    <ele>50.2</ele>
    <time>2020-06-14T07:31:17Z</time>
   </trkpt>
   <trkpt lat="51.1878360" lon="5.3181160">
    <ele>50.2</ele>
    <time>2020-06-14T07:31:18Z</time>
   </trkpt>
   <trkpt lat="51.1878200" lon="5.3180110">
    <ele>50.2</ele>
    <time>2020-06-14T07:31:19Z</time>
   </trkpt>
   <trkpt lat="51.1878080" lon="5.3178980">
    <ele>50.2</ele>
    <time>2020-06-14T07:31:20Z</time>
   </trkpt>
   <trkpt lat="51.1877960" lon="5.3177890">
    <ele>50.2</ele>
    <time>2020-06-14T07:31:21Z</time>
   </trkpt>
   <trkpt lat="51.1877840" lon="5.3176760">
    <ele>50.3</ele>
    <time>2020-06-14T07:31:22Z</time>
   </trkpt>
   <trkpt lat="51.1877730" lon="5.3175690">
    <ele>50.3</ele>
    <time>2020-06-14T07:31:23Z</time>
   </trkpt>
   <trkpt lat="51.1877610" lon="5.3174820">
    <ele>50.4</ele>
    <time>2020-06-14T07:31:24Z</time>
   </trkpt>
   <trkpt lat="51.1877490" lon="5.3173760">
    <ele>50.5</ele>
    <time>2020-06-14T07:31:25Z</time>
   </trkpt>
   <trkpt lat="51.1877380" lon="5.3172740">
    <ele>50.5</ele>
    <time>2020-06-14T07:31:26Z</time>
   </trkpt>
   <trkpt lat="51.1877340" lon="5.3171760">
    <ele>50.5</ele>
    <time>2020-06-14T07:31:27Z</time>
   </trkpt>
   <trkpt lat="51.1877280" lon="5.3170860">
    <ele>50.5</ele>
    <time>2020-06-14T07:31:28Z</time>
   </trkpt>
   <trkpt lat="51.1877190" lon="5.3170020">
    <ele>50.5</ele>
    <time>2020-06-14T07:31:29Z</time>
   </trkpt>
   <trkpt lat="51.1877120" lon="5.3169260">
    <ele>50.5</ele>
    <time>2020-06-14T07:31:30Z</time>
   </trkpt>
   <trkpt lat="51.1877040" lon="5.3168420">
    <ele>50.5</ele>
    <time>2020-06-14T07:31:31Z</time>
   </trkpt>
   <trkpt lat="51.1876960" lon="5.3167560">
    <ele>50.4</ele>
    <time>2020-06-14T07:31:32Z</time>
   </trkpt>
   <trkpt lat="51.1876890" lon="5.3166700">
    <ele>50.4</ele>
    <time>2020-06-14T07:31:33Z</time>
   </trkpt>
   <trkpt lat="51.1876780" lon="5.3165890">
    <ele>50.4</ele>
    <time>2020-06-14T07:31:34Z</time>
   </trkpt>
   <trkpt lat="51.1876640" lon="5.3164930">
    <ele>50.4</ele>
    <time>2020-06-14T07:31:35Z</time>
   </trkpt>
   <trkpt lat="51.1876380" lon="5.3163930">
    <ele>50.4</ele>
    <time>2020-06-14T07:31:36Z</time>
   </trkpt>
   <trkpt lat="51.1876190" lon="5.3163000">
    <ele>50.4</ele>
    <time>2020-06-14T07:31:37Z</time>
   </trkpt>
   <trkpt lat="51.1876040" lon="5.3162080">
    <ele>50.3</ele>
    <time>2020-06-14T07:31:38Z</time>
   </trkpt>
   <trkpt lat="51.1875840" lon="5.3161360">
    <ele>50.3</ele>
    <time>2020-06-14T07:31:39Z</time>
   </trkpt>
   <trkpt lat="51.1875540" lon="5.3160550">
    <ele>50.3</ele>
    <time>2020-06-14T07:31:40Z</time>
   </trkpt>
   <trkpt lat="51.1875210" lon="5.3159730">
    <ele>50.2</ele>
    <time>2020-06-14T07:31:41Z</time>
   </trkpt>
   <trkpt lat="51.1874990" lon="5.3158750">
    <ele>50.2</ele>
    <time>2020-06-14T07:31:42Z</time>
   </trkpt>
   <trkpt lat="51.1875010" lon="5.3157590">
    <ele>50.2</ele>
    <time>2020-06-14T07:31:43Z</time>
   </trkpt>
   <trkpt lat="51.1874630" lon="5.3156470">
    <ele>50.1</ele>
    <time>2020-06-14T07:31:44Z</time>
   </trkpt>
   <trkpt lat="51.1874520" lon="5.3155460">
    <ele>50.1</ele>
    <time>2020-06-14T07:31:45Z</time>
   </trkpt>
   <trkpt lat="51.1874280" lon="5.3154200">
    <ele>50.1</ele>
    <time>2020-06-14T07:31:46Z</time>
   </trkpt>
   <trkpt lat="51.1874100" lon="5.3153030">
    <ele>50.1</ele>
    <time>2020-06-14T07:31:47Z</time>
   </trkpt>
   <trkpt lat="51.1873870" lon="5.3151800">
    <ele>50.1</ele>
    <time>2020-06-14T07:31:48Z</time>
   </trkpt>
   <trkpt lat="51.1873760" lon="5.3150770">
    <ele>50.0</ele>
    <time>2020-06-14T07:31:49Z</time>
   </trkpt>
   <trkpt lat="51.1873660" lon="5.3149760">
    <ele>50.0</ele>
    <time>2020-06-14T07:31:50Z</time>
   </trkpt>
   <trkpt lat="51.1873510" lon="5.3148730">
    <ele>50.0</ele>
    <time>2020-06-14T07:31:51Z</time>
   </trkpt>
   <trkpt lat="51.1873310" lon="5.3147740">
    <ele>50.0</ele>
    <time>2020-06-14T07:31:52Z</time>
   </trkpt>
   <trkpt lat="51.1873140" lon="5.3146500">
    <ele>50.0</ele>
    <time>2020-06-14T07:31:53Z</time>
   </trkpt>
   <trkpt lat="51.1872810" lon="5.3145240">
    <ele>50.0</ele>
    <time>2020-06-14T07:31:54Z</time>
   </trkpt>
   <trkpt lat="51.1872550" lon="5.3143950">
    <ele>50.0</ele>
    <time>2020-06-14T07:31:55Z</time>
   </trkpt>
   <trkpt lat="51.1872320" lon="5.3142800">
    <ele>49.9</ele>
    <time>2020-06-14T07:31:56Z</time>
   </trkpt>
   <trkpt lat="51.1872110" lon="5.3141550">
    <ele>49.9</ele>
    <time>2020-06-14T07:31:57Z</time>
   </trkpt>
   <trkpt lat="51.1871880" lon="5.3140330">
    <ele>49.9</ele>
    <time>2020-06-14T07:31:58Z</time>
   </trkpt>
   <trkpt lat="51.1871670" lon="5.3139020">
    <ele>49.9</ele>
    <time>2020-06-14T07:31:59Z</time>
   </trkpt>
   <trkpt lat="51.1871450" lon="5.3137780">
    <ele>49.8</ele>
    <time>2020-06-14T07:32:00Z</time>
   </trkpt>
   <trkpt lat="51.1871220" lon="5.3136460">
    <ele>49.8</ele>
    <time>2020-06-14T07:32:01Z</time>
   </trkpt>
   <trkpt lat="51.1870880" lon="5.3135100">
    <ele>49.7</ele>
    <time>2020-06-14T07:32:02Z</time>
   </trkpt>
   <trkpt lat="51.1870690" lon="5.3133860">
    <ele>49.7</ele>
    <time>2020-06-14T07:32:03Z</time>
   </trkpt>
   <trkpt lat="51.1870520" lon="5.3132710">
    <ele>49.7</ele>
    <time>2020-06-14T07:32:04Z</time>
   </trkpt>
   <trkpt lat="51.1870400" lon="5.3131530">
    <ele>49.6</ele>
    <time>2020-06-14T07:32:05Z</time>
   </trkpt>
   <trkpt lat="51.1870330" lon="5.3130370">
    <ele>49.6</ele>
    <time>2020-06-14T07:32:06Z</time>
   </trkpt>
   <trkpt lat="51.1870130" lon="5.3129190">
    <ele>49.5</ele>
    <time>2020-06-14T07:32:07Z</time>
   </trkpt>
   <trkpt lat="51.1869910" lon="5.3127900">
    <ele>49.5</ele>
    <time>2020-06-14T07:32:08Z</time>
   </trkpt>
   <trkpt lat="51.1869720" lon="5.3126570">
    <ele>49.4</ele>
    <time>2020-06-14T07:32:09Z</time>
   </trkpt>
   <trkpt lat="51.1869560" lon="5.3125270">
    <ele>49.4</ele>
    <time>2020-06-14T07:32:10Z</time>
   </trkpt>
   <trkpt lat="51.1869360" lon="5.3124040">
    <ele>49.4</ele>
    <time>2020-06-14T07:32:11Z</time>
   </trkpt>
   <trkpt lat="51.1869180" lon="5.3122820">
    <ele>49.4</ele>
    <time>2020-06-14T07:32:12Z</time>
   </trkpt>
   <trkpt lat="51.1869010" lon="5.3121630">
    <ele>49.4</ele>
    <time>2020-06-14T07:32:13Z</time>
   </trkpt>
   <trkpt lat="51.1868820" lon="5.3120430">
    <ele>49.4</ele>
    <time>2020-06-14T07:32:14Z</time>
   </trkpt>
   <trkpt lat="51.1868850" lon="5.3119210">
    <ele>49.5</ele>
    <time>2020-06-14T07:32:16Z</time>
   </trkpt>
   <trkpt lat="51.1868720" lon="5.3118120">
    <ele>49.6</ele>
    <time>2020-06-14T07:32:17Z</time>
   </trkpt>
   <trkpt lat="51.1868610" lon="5.3117220">
    <ele>49.6</ele>
    <time>2020-06-14T07:32:18Z</time>
   </trkpt>
   <trkpt lat="51.1868540" lon="5.3116640">
    <ele>49.6</ele>
    <time>2020-06-14T07:32:19Z</time>
   </trkpt>
   <trkpt lat="51.1868480" lon="5.3116060">
    <ele>49.6</ele>
    <time>2020-06-14T07:32:20Z</time>
   </trkpt>
   <trkpt lat="51.1868480" lon="5.3115430">
    <ele>49.7</ele>
    <time>2020-06-14T07:32:21Z</time>
   </trkpt>
   <trkpt lat="51.1868790" lon="5.3114500">
    <ele>49.7</ele>
    <time>2020-06-14T07:32:22Z</time>
   </trkpt>
   <trkpt lat="51.1869010" lon="5.3114030">
    <ele>49.6</ele>
    <time>2020-06-14T07:32:23Z</time>
   </trkpt>
   <trkpt lat="51.1869420" lon="5.3113640">
    <ele>49.6</ele>
    <time>2020-06-14T07:32:24Z</time>
   </trkpt>
   <trkpt lat="51.1869940" lon="5.3113180">
    <ele>49.5</ele>
    <time>2020-06-14T07:32:25Z</time>
   </trkpt>
   <trkpt lat="51.1870450" lon="5.3112530">
    <ele>49.5</ele>
    <time>2020-06-14T07:32:26Z</time>
   </trkpt>
   <trkpt lat="51.1870990" lon="5.3111920">
    <ele>49.5</ele>
    <time>2020-06-14T07:32:27Z</time>
   </trkpt>
   <trkpt lat="51.1871540" lon="5.3111410">
    <ele>49.5</ele>
    <time>2020-06-14T07:32:28Z</time>
   </trkpt>
   <trkpt lat="51.1872050" lon="5.3110880">
    <ele>49.5</ele>
    <time>2020-06-14T07:32:29Z</time>
   </trkpt>
   <trkpt lat="51.1872560" lon="5.3110360">
    <ele>49.6</ele>
    <time>2020-06-14T07:32:30Z</time>
   </trkpt>
   <trkpt lat="51.1873140" lon="5.3109820">
    <ele>49.7</ele>
    <time>2020-06-14T07:32:31Z</time>
   </trkpt>
   <trkpt lat="51.1873710" lon="5.3109410">
    <ele>49.9</ele>
    <time>2020-06-14T07:32:32Z</time>
   </trkpt>
   <trkpt lat="51.1874280" lon="5.3109310">
    <ele>50.0</ele>
    <time>2020-06-14T07:32:33Z</time>
   </trkpt>
   <trkpt lat="51.1874670" lon="5.3109060">
    <ele>50.1</ele>
    <time>2020-06-14T07:32:34Z</time>
   </trkpt>
   <trkpt lat="51.1874990" lon="5.3108850">
    <ele>50.2</ele>
    <time>2020-06-14T07:32:35Z</time>
   </trkpt>
   <trkpt lat="51.1875260" lon="5.3108660">
    <ele>50.3</ele>
    <time>2020-06-14T07:32:36Z</time>
   </trkpt>
   <trkpt lat="51.1875690" lon="5.3108330">
    <ele>50.4</ele>
    <time>2020-06-14T07:32:37Z</time>
   </trkpt>
   <trkpt lat="51.1875870" lon="5.3108180">
    <ele>50.5</ele>
    <time>2020-06-14T07:32:38Z</time>
   </trkpt>
   <trkpt lat="51.1876180" lon="5.3107760">
    <ele>50.5</ele>
    <time>2020-06-14T07:32:39Z</time>
   </trkpt>
   <trkpt lat="51.1876320" lon="5.3107210">
    <ele>50.5</ele>
    <time>2020-06-14T07:32:40Z</time>
   </trkpt>
   <trkpt lat="51.1876300" lon="5.3106990">
    <ele>50.5</ele>
    <time>2020-06-14T07:32:41Z</time>
   </trkpt>
   <trkpt lat="51.1876130" lon="5.3106460">
    <ele>50.5</ele>
    <time>2020-06-14T07:32:42Z</time>
   </trkpt>
   <trkpt lat="51.1875920" lon="5.3105800">
    <ele>50.4</ele>
    <time>2020-06-14T07:32:43Z</time>
   </trkpt>
   <trkpt lat="51.1875730" lon="5.3105160">
    <ele>50.4</ele>
    <time>2020-06-14T07:32:44Z</time>
   </trkpt>
   <trkpt lat="51.1875470" lon="5.3104380">
    <ele>50.3</ele>
    <time>2020-06-14T07:32:45Z</time>
   </trkpt>
   <trkpt lat="51.1875200" lon="5.3103220">
    <ele>50.2</ele>
    <time>2020-06-14T07:32:46Z</time>
   </trkpt>
   <trkpt lat="51.1874910" lon="5.3102150">
    <ele>50.1</ele>
    <time>2020-06-14T07:32:47Z</time>
   </trkpt>
   <trkpt lat="51.1874610" lon="5.3100940">
    <ele>50.0</ele>
    <time>2020-06-14T07:32:48Z</time>
   </trkpt>
   <trkpt lat="51.1874320" lon="5.3099790">
    <ele>49.9</ele>
    <time>2020-06-14T07:32:49Z</time>
   </trkpt>
   <trkpt lat="51.1873990" lon="5.3098640">
    <ele>49.8</ele>
    <time>2020-06-14T07:32:50Z</time>
   </trkpt>
   <trkpt lat="51.1873650" lon="5.3097320">
    <ele>49.7</ele>
    <time>2020-06-14T07:32:51Z</time>
   </trkpt>
   <trkpt lat="51.1873390" lon="5.3096150">
    <ele>49.6</ele>
    <time>2020-06-14T07:32:52Z</time>
   </trkpt>
   <trkpt lat="51.1873130" lon="5.3094920">
    <ele>49.5</ele>
    <time>2020-06-14T07:32:53Z</time>
   </trkpt>
   <trkpt lat="51.1872800" lon="5.3093700">
    <ele>49.4</ele>
    <time>2020-06-14T07:32:54Z</time>
   </trkpt>
   <trkpt lat="51.1872520" lon="5.3092510">
    <ele>49.3</ele>
    <time>2020-06-14T07:32:55Z</time>
   </trkpt>
   <trkpt lat="51.1872150" lon="5.3091210">
    <ele>49.2</ele>
    <time>2020-06-14T07:32:56Z</time>
   </trkpt>
   <trkpt lat="51.1871810" lon="5.3089950">
    <ele>49.1</ele>
    <time>2020-06-14T07:32:57Z</time>
   </trkpt>
   <trkpt lat="51.1871540" lon="5.3088580">
    <ele>49.0</ele>
    <time>2020-06-14T07:32:58Z</time>
   </trkpt>
   <trkpt lat="51.1871300" lon="5.3087170">
    <ele>48.9</ele>
    <time>2020-06-14T07:32:59Z</time>
   </trkpt>
   <trkpt lat="51.1871060" lon="5.3085950">
    <ele>48.8</ele>
    <time>2020-06-14T07:33:00Z</time>
   </trkpt>
   <trkpt lat="51.1870790" lon="5.3084600">
    <ele>48.6</ele>
    <time>2020-06-14T07:33:01Z</time>
   </trkpt>
   <trkpt lat="51.1870530" lon="5.3083490">
    <ele>48.6</ele>
    <time>2020-06-14T07:33:02Z</time>
   </trkpt>
   <trkpt lat="51.1870300" lon="5.3082270">
    <ele>48.5</ele>
    <time>2020-06-14T07:33:03Z</time>
   </trkpt>
   <trkpt lat="51.1870050" lon="5.3081230">
    <ele>48.4</ele>
    <time>2020-06-14T07:33:04Z</time>
   </trkpt>
   <trkpt lat="51.1870070" lon="5.3079900">
    <ele>48.3</ele>
    <time>2020-06-14T07:33:05Z</time>
   </trkpt>
   <trkpt lat="51.1869810" lon="5.3078860">
    <ele>48.3</ele>
    <time>2020-06-14T07:33:06Z</time>
   </trkpt>
   <trkpt lat="51.1869510" lon="5.3077750">
    <ele>48.2</ele>
    <time>2020-06-14T07:33:07Z</time>
   </trkpt>
   <trkpt lat="51.1869210" lon="5.3076650">
    <ele>48.2</ele>
    <time>2020-06-14T07:33:08Z</time>
   </trkpt>
   <trkpt lat="51.1868900" lon="5.3075500">
    <ele>48.1</ele>
    <time>2020-06-14T07:33:09Z</time>
   </trkpt>
   <trkpt lat="51.1868590" lon="5.3074410">
    <ele>48.1</ele>
    <time>2020-06-14T07:33:10Z</time>
   </trkpt>
   <trkpt lat="51.1868300" lon="5.3073320">
    <ele>48.1</ele>
    <time>2020-06-14T07:33:11Z</time>
   </trkpt>
   <trkpt lat="51.1868020" lon="5.3072190">
    <ele>48.1</ele>
    <time>2020-06-14T07:33:12Z</time>
   </trkpt>
   <trkpt lat="51.1867710" lon="5.3071110">
    <ele>48.1</ele>
    <time>2020-06-14T07:33:13Z</time>
   </trkpt>
   <trkpt lat="51.1867410" lon="5.3070080">
    <ele>48.1</ele>
    <time>2020-06-14T07:33:14Z</time>
   </trkpt>
   <trkpt lat="51.1867060" lon="5.3069020">
    <ele>48.1</ele>
    <time>2020-06-14T07:33:15Z</time>
   </trkpt>
   <trkpt lat="51.1866780" lon="5.3067900">
    <ele>48.1</ele>
    <time>2020-06-14T07:33:16Z</time>
   </trkpt>
   <trkpt lat="51.1866510" lon="5.3066780">
    <ele>48.1</ele>
    <time>2020-06-14T07:33:17Z</time>
   </trkpt>
   <trkpt lat="51.1866180" lon="5.3065640">
    <ele>48.0</ele>
    <time>2020-06-14T07:33:18Z</time>
   </trkpt>
   <trkpt lat="51.1865930" lon="5.3064590">
    <ele>48.0</ele>
    <time>2020-06-14T07:33:19Z</time>
   </trkpt>
   <trkpt lat="51.1865670" lon="5.3063570">
    <ele>48.0</ele>
    <time>2020-06-14T07:33:20Z</time>
   </trkpt>
   <trkpt lat="51.1865450" lon="5.3062480">
    <ele>48.0</ele>
    <time>2020-06-14T07:33:21Z</time>
   </trkpt>
   <trkpt lat="51.1865190" lon="5.3061460">
    <ele>48.0</ele>
    <time>2020-06-14T07:33:22Z</time>
   </trkpt>
   <trkpt lat="51.1864960" lon="5.3060490">
    <ele>48.1</ele>
    <time>2020-06-14T07:33:23Z</time>
   </trkpt>
   <trkpt lat="51.1864730" lon="5.3059610">
    <ele>48.1</ele>
    <time>2020-06-14T07:33:24Z</time>
   </trkpt>
   <trkpt lat="51.1864530" lon="5.3058740">
    <ele>48.1</ele>
    <time>2020-06-14T07:33:25Z</time>
   </trkpt>
   <trkpt lat="51.1864340" lon="5.3057820">
    <ele>48.2</ele>
    <time>2020-06-14T07:33:26Z</time>
   </trkpt>
   <trkpt lat="51.1864330" lon="5.3056890">
    <ele>48.2</ele>
    <time>2020-06-14T07:33:27Z</time>
   </trkpt>
   <trkpt lat="51.1864370" lon="5.3056010">
    <ele>48.3</ele>
    <time>2020-06-14T07:33:28Z</time>
   </trkpt>
   <trkpt lat="51.1864410" lon="5.3055000">
    <ele>48.3</ele>
    <time>2020-06-14T07:33:29Z</time>
   </trkpt>
   <trkpt lat="51.1864390" lon="5.3053900">
    <ele>48.3</ele>
    <time>2020-06-14T07:33:30Z</time>
   </trkpt>
   <trkpt lat="51.1864200" lon="5.3052880">
    <ele>48.3</ele>
    <time>2020-06-14T07:33:31Z</time>
   </trkpt>
   <trkpt lat="51.1864020" lon="5.3051890">
    <ele>48.3</ele>
    <time>2020-06-14T07:33:32Z</time>
   </trkpt>
   <trkpt lat="51.1863860" lon="5.3050960">
    <ele>48.3</ele>
    <time>2020-06-14T07:33:33Z</time>
   </trkpt>
   <trkpt lat="51.1863780" lon="5.3050060">
    <ele>48.3</ele>
    <time>2020-06-14T07:33:34Z</time>
   </trkpt>
   <trkpt lat="51.1863760" lon="5.3049250">
    <ele>48.3</ele>
    <time>2020-06-14T07:33:35Z</time>
   </trkpt>
   <trkpt lat="51.1864050" lon="5.3048620">
    <ele>48.3</ele>
    <time>2020-06-14T07:33:36Z</time>
   </trkpt>
   <trkpt lat="51.1864530" lon="5.3048140">
    <ele>48.4</ele>
    <time>2020-06-14T07:33:37Z</time>
   </trkpt>
   <trkpt lat="51.1865060" lon="5.3047870">
    <ele>48.4</ele>
    <time>2020-06-14T07:33:38Z</time>
   </trkpt>
   <trkpt lat="51.1865590" lon="5.3047490">
    <ele>48.4</ele>
    <time>2020-06-14T07:33:39Z</time>
   </trkpt>
   <trkpt lat="51.1866140" lon="5.3047040">
    <ele>48.4</ele>
    <time>2020-06-14T07:33:40Z</time>
   </trkpt>
   <trkpt lat="51.1866670" lon="5.3046740">
    <ele>48.5</ele>
    <time>2020-06-14T07:33:41Z</time>
   </trkpt>
   <trkpt lat="51.1867210" lon="5.3046590">
    <ele>48.5</ele>
    <time>2020-06-14T07:33:42Z</time>
   </trkpt>
   <trkpt lat="51.1867700" lon="5.3046350">
    <ele>48.5</ele>
    <time>2020-06-14T07:33:43Z</time>
   </trkpt>
   <trkpt lat="51.1868180" lon="5.3046040">
    <ele>48.5</ele>
    <time>2020-06-14T07:33:44Z</time>
   </trkpt>
   <trkpt lat="51.1868710" lon="5.3045660">
    <ele>48.5</ele>
    <time>2020-06-14T07:33:45Z</time>
   </trkpt>
   <trkpt lat="51.1869300" lon="5.3045240">
    <ele>48.5</ele>
    <time>2020-06-14T07:33:46Z</time>
   </trkpt>
   <trkpt lat="51.1869890" lon="5.3044840">
    <ele>48.5</ele>
    <time>2020-06-14T07:33:47Z</time>
   </trkpt>
   <trkpt lat="51.1870510" lon="5.3044410">
    <ele>48.5</ele>
    <time>2020-06-14T07:33:48Z</time>
   </trkpt>
   <trkpt lat="51.1871240" lon="5.3043880">
    <ele>48.5</ele>
    <time>2020-06-14T07:33:49Z</time>
   </trkpt>
   <trkpt lat="51.1872010" lon="5.3043360">
    <ele>48.6</ele>
    <time>2020-06-14T07:33:50Z</time>
   </trkpt>
   <trkpt lat="51.1872780" lon="5.3042800">
    <ele>48.7</ele>
    <time>2020-06-14T07:33:51Z</time>
   </trkpt>
   <trkpt lat="51.1873540" lon="5.3042250">
    <ele>48.7</ele>
    <time>2020-06-14T07:33:52Z</time>
   </trkpt>
   <trkpt lat="51.1874340" lon="5.3041680">
    <ele>48.8</ele>
    <time>2020-06-14T07:33:53Z</time>
   </trkpt>
   <trkpt lat="51.1875060" lon="5.3041180">
    <ele>48.9</ele>
    <time>2020-06-14T07:33:54Z</time>
   </trkpt>
   <trkpt lat="51.1875840" lon="5.3040660">
    <ele>49.1</ele>
    <time>2020-06-14T07:33:55Z</time>
   </trkpt>
   <trkpt lat="51.1876500" lon="5.3040240">
    <ele>49.2</ele>
    <time>2020-06-14T07:33:56Z</time>
   </trkpt>
   <trkpt lat="51.1877250" lon="5.3039770">
    <ele>49.3</ele>
    <time>2020-06-14T07:33:57Z</time>
   </trkpt>
   <trkpt lat="51.1878020" lon="5.3039290">
    <ele>49.4</ele>
    <time>2020-06-14T07:33:58Z</time>
   </trkpt>
   <trkpt lat="51.1878640" lon="5.3038800">
    <ele>49.5</ele>
    <time>2020-06-14T07:33:59Z</time>
   </trkpt>
   <trkpt lat="51.1879260" lon="5.3038450">
    <ele>49.6</ele>
    <time>2020-06-14T07:34:00Z</time>
   </trkpt>
   <trkpt lat="51.1879960" lon="5.3038090">
    <ele>49.7</ele>
    <time>2020-06-14T07:34:01Z</time>
   </trkpt>
   <trkpt lat="51.1880750" lon="5.3037690">
    <ele>49.8</ele>
    <time>2020-06-14T07:34:02Z</time>
   </trkpt>
   <trkpt lat="51.1881500" lon="5.3037260">
    <ele>49.9</ele>
    <time>2020-06-14T07:34:03Z</time>
   </trkpt>
   <trkpt lat="51.1882310" lon="5.3036690">
    <ele>50.0</ele>
    <time>2020-06-14T07:34:04Z</time>
   </trkpt>
   <trkpt lat="51.1883130" lon="5.3036120">
    <ele>50.2</ele>
    <time>2020-06-14T07:34:05Z</time>
   </trkpt>
   <trkpt lat="51.1883990" lon="5.3035520">
    <ele>50.3</ele>
    <time>2020-06-14T07:34:06Z</time>
   </trkpt>
   <trkpt lat="51.1884640" lon="5.3034860">
    <ele>50.4</ele>
    <time>2020-06-14T07:34:07Z</time>
   </trkpt>
   <trkpt lat="51.1885240" lon="5.3034270">
    <ele>50.5</ele>
    <time>2020-06-14T07:34:08Z</time>
   </trkpt>
   <trkpt lat="51.1885920" lon="5.3033650">
    <ele>50.6</ele>
    <time>2020-06-14T07:34:09Z</time>
   </trkpt>
   <trkpt lat="51.1886470" lon="5.3033200">
    <ele>50.7</ele>
    <time>2020-06-14T07:34:10Z</time>
   </trkpt>
   <trkpt lat="51.1887020" lon="5.3032770">
    <ele>50.8</ele>
    <time>2020-06-14T07:34:11Z</time>
   </trkpt>
   <trkpt lat="51.1887610" lon="5.3032310">
    <ele>50.9</ele>
    <time>2020-06-14T07:34:12Z</time>
   </trkpt>
   <trkpt lat="51.1888100" lon="5.3031940">
    <ele>51.0</ele>
    <time>2020-06-14T07:34:13Z</time>
   </trkpt>
   <trkpt lat="51.1888610" lon="5.3031600">
    <ele>51.1</ele>
    <time>2020-06-14T07:34:14Z</time>
   </trkpt>
   <trkpt lat="51.1889190" lon="5.3031220">
    <ele>51.2</ele>
    <time>2020-06-14T07:34:15Z</time>
   </trkpt>
   <trkpt lat="51.1889650" lon="5.3030810">
    <ele>51.3</ele>
    <time>2020-06-14T07:34:16Z</time>
   </trkpt>
   <trkpt lat="51.1890240" lon="5.3030300">
    <ele>51.4</ele>
    <time>2020-06-14T07:34:17Z</time>
   </trkpt>
   <trkpt lat="51.1890760" lon="5.3029810">
    <ele>51.4</ele>
    <time>2020-06-14T07:34:18Z</time>
   </trkpt>
   <trkpt lat="51.1891410" lon="5.3029250">
    <ele>51.5</ele>
    <time>2020-06-14T07:34:19Z</time>
   </trkpt>
   <trkpt lat="51.1892060" lon="5.3028690">
    <ele>51.6</ele>
    <time>2020-06-14T07:34:20Z</time>
   </trkpt>
   <trkpt lat="51.1892630" lon="5.3028190">
    <ele>51.7</ele>
    <time>2020-06-14T07:34:21Z</time>
   </trkpt>
   <trkpt lat="51.1893240" lon="5.3027770">
    <ele>51.8</ele>
    <time>2020-06-14T07:34:22Z</time>
   </trkpt>
   <trkpt lat="51.1893630" lon="5.3027460">
    <ele>51.8</ele>
    <time>2020-06-14T07:34:23Z</time>
   </trkpt>
   <trkpt lat="51.1893980" lon="5.3027180">
    <ele>51.9</ele>
    <time>2020-06-14T07:34:24Z</time>
   </trkpt>
   <trkpt lat="51.1894380" lon="5.3026950">
    <ele>51.9</ele>
    <time>2020-06-14T07:34:25Z</time>
   </trkpt>
   <trkpt lat="51.1894710" lon="5.3026850">
    <ele>51.9</ele>
    <time>2020-06-14T07:34:26Z</time>
   </trkpt>
   <trkpt lat="51.1895010" lon="5.3026770">
    <ele>52.0</ele>
    <time>2020-06-14T07:34:27Z</time>
   </trkpt>
   <trkpt lat="51.1895130" lon="5.3026700">
    <ele>52.0</ele>
    <time>2020-06-14T07:34:28Z</time>
   </trkpt>
   <trkpt lat="51.1895470" lon="5.3026490">
    <ele>52.0</ele>
    <time>2020-06-14T07:34:29Z</time>
   </trkpt>
   <trkpt lat="51.1895590" lon="5.3026430">
    <ele>52.0</ele>
    <time>2020-06-14T07:34:30Z</time>
   </trkpt>
   <trkpt lat="51.1895770" lon="5.3026360">
    <ele>52.1</ele>
    <time>2020-06-14T07:34:31Z</time>
   </trkpt>
   <trkpt lat="51.1895910" lon="5.3026340">
    <ele>52.1</ele>
    <time>2020-06-14T07:34:32Z</time>
   </trkpt>
   <trkpt lat="51.1895940" lon="5.3025870">
    <ele>52.1</ele>
    <time>2020-06-14T07:34:33Z</time>
   </trkpt>
   <trkpt lat="51.1895930" lon="5.3025190">
    <ele>51.9</ele>
    <time>2020-06-14T07:34:34Z</time>
   </trkpt>
   <trkpt lat="51.1895960" lon="5.3024440">
    <ele>51.8</ele>
    <time>2020-06-14T07:34:35Z</time>
   </trkpt>
   <trkpt lat="51.1895940" lon="5.3023810">
    <ele>51.6</ele>
    <time>2020-06-14T07:34:36Z</time>
   </trkpt>
   <trkpt lat="51.1895880" lon="5.3022950">
    <ele>51.5</ele>
    <time>2020-06-14T07:34:37Z</time>
   </trkpt>
   <trkpt lat="51.1895720" lon="5.3021870">
    <ele>51.3</ele>
    <time>2020-06-14T07:34:38Z</time>
   </trkpt>
   <trkpt lat="51.1895550" lon="5.3020830">
    <ele>51.2</ele>
    <time>2020-06-14T07:34:39Z</time>
   </trkpt>
   <trkpt lat="51.1895340" lon="5.3019720">
    <ele>51.0</ele>
    <time>2020-06-14T07:34:40Z</time>
   </trkpt>
   <trkpt lat="51.1895090" lon="5.3018690">
    <ele>50.9</ele>
    <time>2020-06-14T07:34:41Z</time>
   </trkpt>
   <trkpt lat="51.1894870" lon="5.3017640">
    <ele>50.8</ele>
    <time>2020-06-14T07:34:42Z</time>
   </trkpt>
   <trkpt lat="51.1894610" lon="5.3016480">
    <ele>50.7</ele>
    <time>2020-06-14T07:34:43Z</time>
   </trkpt>
   <trkpt lat="51.1894390" lon="5.3015410">
    <ele>50.6</ele>
    <time>2020-06-14T07:34:44Z</time>
   </trkpt>
   <trkpt lat="51.1894170" lon="5.3014310">
    <ele>50.6</ele>
    <time>2020-06-14T07:34:45Z</time>
   </trkpt>
   <trkpt lat="51.1893860" lon="5.3013250">
    <ele>50.5</ele>
    <time>2020-06-14T07:34:46Z</time>
   </trkpt>
   <trkpt lat="51.1893490" lon="5.3012240">
    <ele>50.5</ele>
    <time>2020-06-14T07:34:47Z</time>
   </trkpt>
   <trkpt lat="51.1893160" lon="5.3011300">
    <ele>50.4</ele>
    <time>2020-06-14T07:34:48Z</time>
   </trkpt>
   <trkpt lat="51.1892800" lon="5.3010390">
    <ele>50.4</ele>
    <time>2020-06-14T07:34:49Z</time>
   </trkpt>
   <trkpt lat="51.1892570" lon="5.3009390">
    <ele>50.3</ele>
    <time>2020-06-14T07:34:50Z</time>
   </trkpt>
   <trkpt lat="51.1892350" lon="5.3008450">
    <ele>50.3</ele>
    <time>2020-06-14T07:34:51Z</time>
   </trkpt>
   <trkpt lat="51.1892100" lon="5.3007570">
    <ele>50.3</ele>
    <time>2020-06-14T07:34:52Z</time>
   </trkpt>
   <trkpt lat="51.1891860" lon="5.3006530">
    <ele>50.3</ele>
    <time>2020-06-14T07:34:53Z</time>
   </trkpt>
   <trkpt lat="51.1891600" lon="5.3005470">
    <ele>50.3</ele>
    <time>2020-06-14T07:34:54Z</time>
   </trkpt>
   <trkpt lat="51.1891420" lon="5.3004590">
    <ele>50.3</ele>
    <time>2020-06-14T07:34:55Z</time>
   </trkpt>
   <trkpt lat="51.1891230" lon="5.3003580">
    <ele>50.3</ele>
    <time>2020-06-14T07:34:56Z</time>
   </trkpt>
   <trkpt lat="51.1891060" lon="5.3002590">
    <ele>50.4</ele>
    <time>2020-06-14T07:34:57Z</time>
   </trkpt>
   <trkpt lat="51.1890850" lon="5.3001710">
    <ele>50.4</ele>
    <time>2020-06-14T07:34:58Z</time>
   </trkpt>
   <trkpt lat="51.1890650" lon="5.3000760">
    <ele>50.5</ele>
    <time>2020-06-14T07:34:59Z</time>
   </trkpt>
   <trkpt lat="51.1890430" lon="5.2999780">
    <ele>50.6</ele>
    <time>2020-06-14T07:35:00Z</time>
   </trkpt>
   <trkpt lat="51.1890190" lon="5.2998940">
    <ele>50.7</ele>
    <time>2020-06-14T07:35:01Z</time>
   </trkpt>
   <trkpt lat="51.1889980" lon="5.2998290">
    <ele>50.7</ele>
    <time>2020-06-14T07:35:02Z</time>
   </trkpt>
   <trkpt lat="51.1889610" lon="5.2997890">
    <ele>50.6</ele>
    <time>2020-06-14T07:35:03Z</time>
   </trkpt>
   <trkpt lat="51.1889080" lon="5.2997770">
    <ele>50.5</ele>
    <time>2020-06-14T07:35:04Z</time>
   </trkpt>
   <trkpt lat="51.1888430" lon="5.2997690">
    <ele>50.4</ele>
    <time>2020-06-14T07:35:05Z</time>
   </trkpt>
   <trkpt lat="51.1887710" lon="5.2997540">
    <ele>50.3</ele>
    <time>2020-06-14T07:35:06Z</time>
   </trkpt>
   <trkpt lat="51.1887000" lon="5.2997360">
    <ele>50.3</ele>
    <time>2020-06-14T07:35:07Z</time>
   </trkpt>
   <trkpt lat="51.1886190" lon="5.2997190">
    <ele>50.2</ele>
    <time>2020-06-14T07:35:08Z</time>
   </trkpt>
   <trkpt lat="51.1885320" lon="5.2997120">
    <ele>50.1</ele>
    <time>2020-06-14T07:35:09Z</time>
   </trkpt>
   <trkpt lat="51.1884500" lon="5.2997080">
    <ele>50.0</ele>
    <time>2020-06-14T07:35:10Z</time>
   </trkpt>
   <trkpt lat="51.1883800" lon="5.2997090">
    <ele>50.0</ele>
    <time>2020-06-14T07:35:11Z</time>
   </trkpt>
   <trkpt lat="51.1883120" lon="5.2997060">
    <ele>49.9</ele>
    <time>2020-06-14T07:35:12Z</time>
   </trkpt>
   <trkpt lat="51.1882320" lon="5.2996900">
    <ele>49.8</ele>
    <time>2020-06-14T07:35:13Z</time>
   </trkpt>
   <trkpt lat="51.1881560" lon="5.2996720">
    <ele>49.8</ele>
    <time>2020-06-14T07:35:14Z</time>
   </trkpt>
   <trkpt lat="51.1880860" lon="5.2996560">
    <ele>49.7</ele>
    <time>2020-06-14T07:35:15Z</time>
   </trkpt>
   <trkpt lat="51.1880440" lon="5.2996400">
    <ele>49.6</ele>
    <time>2020-06-14T07:35:16Z</time>
   </trkpt>
   <trkpt lat="51.1880050" lon="5.2996280">
    <ele>49.6</ele>
    <time>2020-06-14T07:35:17Z</time>
   </trkpt>
   <trkpt lat="51.1879690" lon="5.2996120">
    <ele>49.6</ele>
    <time>2020-06-14T07:35:18Z</time>
   </trkpt>
   <trkpt lat="51.1879580" lon="5.2996110">
    <ele>49.6</ele>
    <time>2020-06-14T07:35:19Z</time>
   </trkpt>
   <trkpt lat="51.1879410" lon="5.2996050">
    <ele>49.6</ele>
    <time>2020-06-14T07:35:20Z</time>
   </trkpt>
   <trkpt lat="51.1879380" lon="5.2996020">
    <ele>49.6</ele>
    <time>2020-06-14T07:35:21Z</time>
   </trkpt>
   <trkpt lat="51.1879350" lon="5.2996000">
    <ele>49.5</ele>
    <time>2020-06-14T07:35:22Z</time>
   </trkpt>
   <trkpt lat="51.1879320" lon="5.2995970">
    <ele>49.5</ele>
    <time>2020-06-14T07:35:23Z</time>
   </trkpt>
   <trkpt lat="51.1879280" lon="5.2995950">
    <ele>49.5</ele>
    <time>2020-06-14T07:35:24Z</time>
   </trkpt>
   <trkpt lat="51.1879250" lon="5.2995930">
    <ele>49.5</ele>
    <time>2020-06-14T07:35:25Z</time>
   </trkpt>
   <trkpt lat="51.1879220" lon="5.2995900">
    <ele>49.5</ele>
    <time>2020-06-14T07:35:26Z</time>
   </trkpt>
   <trkpt lat="51.1879190" lon="5.2995880">
    <ele>49.5</ele>
    <time>2020-06-14T07:35:27Z</time>
   </trkpt>
   <trkpt lat="51.1878820" lon="5.2995760">
    <ele>49.5</ele>
    <time>2020-06-14T07:35:28Z</time>
   </trkpt>
   <trkpt lat="51.1878460" lon="5.2995490">
    <ele>49.5</ele>
    <time>2020-06-14T07:35:29Z</time>
   </trkpt>
   <trkpt lat="51.1878320" lon="5.2995400">
    <ele>49.5</ele>
    <time>2020-06-14T07:35:30Z</time>
   </trkpt>
   <trkpt lat="51.1878090" lon="5.2994910">
    <ele>49.5</ele>
    <time>2020-06-14T07:35:31Z</time>
   </trkpt>
   <trkpt lat="51.1877920" lon="5.2994410">
    <ele>49.5</ele>
    <time>2020-06-14T07:35:32Z</time>
   </trkpt>
   <trkpt lat="51.1877700" lon="5.2994090">
    <ele>49.5</ele>
    <time>2020-06-14T07:35:33Z</time>
   </trkpt>
   <trkpt lat="51.1877420" lon="5.2993730">
    <ele>49.5</ele>
    <time>2020-06-14T07:35:34Z</time>
   </trkpt>
   <trkpt lat="51.1877210" lon="5.2993400">
    <ele>49.5</ele>
    <time>2020-06-14T07:35:35Z</time>
   </trkpt>
   <trkpt lat="51.1876970" lon="5.2992970">
    <ele>49.4</ele>
    <time>2020-06-14T07:35:36Z</time>
   </trkpt>
   <trkpt lat="51.1876770" lon="5.2992450">
    <ele>49.3</ele>
    <time>2020-06-14T07:35:37Z</time>
   </trkpt>
   <trkpt lat="51.1876640" lon="5.2992000">
    <ele>49.3</ele>
    <time>2020-06-14T07:35:38Z</time>
   </trkpt>
   <trkpt lat="51.1876510" lon="5.2991400">
    <ele>49.3</ele>
    <time>2020-06-14T07:35:39Z</time>
   </trkpt>
   <trkpt lat="51.1876340" lon="5.2990600">
    <ele>49.4</ele>
    <time>2020-06-14T07:35:40Z</time>
   </trkpt>
   <trkpt lat="51.1876170" lon="5.2989790">
    <ele>49.3</ele>
    <time>2020-06-14T07:35:41Z</time>
   </trkpt>
   <trkpt lat="51.1876050" lon="5.2988880">
    <ele>49.3</ele>
    <time>2020-06-14T07:35:42Z</time>
   </trkpt>
   <trkpt lat="51.1875900" lon="5.2987830">
    <ele>49.3</ele>
    <time>2020-06-14T07:35:43Z</time>
   </trkpt>
   <trkpt lat="51.1875740" lon="5.2986770">
    <ele>49.2</ele>
    <time>2020-06-14T07:35:44Z</time>
   </trkpt>
   <trkpt lat="51.1875630" lon="5.2985590">
    <ele>49.1</ele>
    <time>2020-06-14T07:35:45Z</time>
   </trkpt>
   <trkpt lat="51.1875560" lon="5.2984380">
    <ele>49.0</ele>
    <time>2020-06-14T07:35:46Z</time>
   </trkpt>
   <trkpt lat="51.1875470" lon="5.2983060">
    <ele>48.9</ele>
    <time>2020-06-14T07:35:47Z</time>
   </trkpt>
   <trkpt lat="51.1875350" lon="5.2981840">
    <ele>48.9</ele>
    <time>2020-06-14T07:35:48Z</time>
   </trkpt>
   <trkpt lat="51.1875240" lon="5.2980600">
    <ele>48.8</ele>
    <time>2020-06-14T07:35:49Z</time>
   </trkpt>
   <trkpt lat="51.1875180" lon="5.2979410">
    <ele>48.8</ele>
    <time>2020-06-14T07:35:50Z</time>
   </trkpt>
   <trkpt lat="51.1875290" lon="5.2978040">
    <ele>48.8</ele>
    <time>2020-06-14T07:35:51Z</time>
   </trkpt>
   <trkpt lat="51.1875160" lon="5.2976730">
    <ele>48.8</ele>
    <time>2020-06-14T07:35:52Z</time>
   </trkpt>
   <trkpt lat="51.1875030" lon="5.2975520">
    <ele>48.8</ele>
    <time>2020-06-14T07:35:53Z</time>
   </trkpt>
   <trkpt lat="51.1874880" lon="5.2974270">
    <ele>48.7</ele>
    <time>2020-06-14T07:35:54Z</time>
   </trkpt>
   <trkpt lat="51.1874730" lon="5.2973050">
    <ele>48.7</ele>
    <time>2020-06-14T07:35:55Z</time>
   </trkpt>
   <trkpt lat="51.1874590" lon="5.2971800">
    <ele>48.7</ele>
    <time>2020-06-14T07:35:56Z</time>
   </trkpt>
   <trkpt lat="51.1874440" lon="5.2970500">
    <ele>48.7</ele>
    <time>2020-06-14T07:35:57Z</time>
   </trkpt>
   <trkpt lat="51.1874290" lon="5.2969230">
    <ele>48.6</ele>
    <time>2020-06-14T07:35:58Z</time>
   </trkpt>
   <trkpt lat="51.1874140" lon="5.2967920">
    <ele>48.6</ele>
    <time>2020-06-14T07:35:59Z</time>
   </trkpt>
   <trkpt lat="51.1874000" lon="5.2966580">
    <ele>48.6</ele>
    <time>2020-06-14T07:36:00Z</time>
   </trkpt>
   <trkpt lat="51.1873860" lon="5.2965280">
    <ele>48.5</ele>
    <time>2020-06-14T07:36:01Z</time>
   </trkpt>
   <trkpt lat="51.1873720" lon="5.2963970">
    <ele>48.5</ele>
    <time>2020-06-14T07:36:02Z</time>
   </trkpt>
   <trkpt lat="51.1873580" lon="5.2962670">
    <ele>48.5</ele>
    <time>2020-06-14T07:36:03Z</time>
   </trkpt>
   <trkpt lat="51.1873490" lon="5.2961410">
    <ele>48.5</ele>
    <time>2020-06-14T07:36:04Z</time>
   </trkpt>
   <trkpt lat="51.1873380" lon="5.2960220">
    <ele>48.4</ele>
    <time>2020-06-14T07:36:05Z</time>
   </trkpt>
   <trkpt lat="51.1873300" lon="5.2959030">
    <ele>48.4</ele>
    <time>2020-06-14T07:36:06Z</time>
   </trkpt>
   <trkpt lat="51.1873130" lon="5.2957850">
    <ele>48.3</ele>
    <time>2020-06-14T07:36:07Z</time>
   </trkpt>
   <trkpt lat="51.1872960" lon="5.2956640">
    <ele>48.2</ele>
    <time>2020-06-14T07:36:08Z</time>
   </trkpt>
   <trkpt lat="51.1872800" lon="5.2955440">
    <ele>48.2</ele>
    <time>2020-06-14T07:36:09Z</time>
   </trkpt>
   <trkpt lat="51.1872650" lon="5.2954270">
    <ele>48.1</ele>
    <time>2020-06-14T07:36:10Z</time>
   </trkpt>
   <trkpt lat="51.1872520" lon="5.2953140">
    <ele>48.1</ele>
    <time>2020-06-14T07:36:11Z</time>
   </trkpt>
   <trkpt lat="51.1872480" lon="5.2951930">
    <ele>48.1</ele>
    <time>2020-06-14T07:36:12Z</time>
   </trkpt>
   <trkpt lat="51.1872400" lon="5.2950820">
    <ele>48.1</ele>
    <time>2020-06-14T07:36:13Z</time>
   </trkpt>
   <trkpt lat="51.1872290" lon="5.2949680">
    <ele>48.1</ele>
    <time>2020-06-14T07:36:14Z</time>
   </trkpt>
   <trkpt lat="51.1872170" lon="5.2948560">
    <ele>48.1</ele>
    <time>2020-06-14T07:36:15Z</time>
   </trkpt>
   <trkpt lat="51.1872040" lon="5.2947420">
    <ele>48.1</ele>
    <time>2020-06-14T07:36:16Z</time>
   </trkpt>
   <trkpt lat="51.1871890" lon="5.2946270">
    <ele>48.1</ele>
    <time>2020-06-14T07:36:17Z</time>
   </trkpt>
   <trkpt lat="51.1871770" lon="5.2945130">
    <ele>48.1</ele>
    <time>2020-06-14T07:36:18Z</time>
   </trkpt>
   <trkpt lat="51.1871660" lon="5.2944040">
    <ele>48.1</ele>
    <time>2020-06-14T07:36:19Z</time>
   </trkpt>
   <trkpt lat="51.1871490" lon="5.2942920">
    <ele>48.1</ele>
    <time>2020-06-14T07:36:20Z</time>
   </trkpt>
   <trkpt lat="51.1871330" lon="5.2941740">
    <ele>48.1</ele>
    <time>2020-06-14T07:36:21Z</time>
   </trkpt>
   <trkpt lat="51.1871160" lon="5.2940590">
    <ele>48.1</ele>
    <time>2020-06-14T07:36:22Z</time>
   </trkpt>
   <trkpt lat="51.1871010" lon="5.2939400">
    <ele>48.0</ele>
    <time>2020-06-14T07:36:23Z</time>
   </trkpt>
   <trkpt lat="51.1870870" lon="5.2938240">
    <ele>48.0</ele>
    <time>2020-06-14T07:36:24Z</time>
   </trkpt>
   <trkpt lat="51.1870710" lon="5.2937140">
    <ele>48.0</ele>
    <time>2020-06-14T07:36:25Z</time>
   </trkpt>
   <trkpt lat="51.1870590" lon="5.2936070">
    <ele>48.0</ele>
    <time>2020-06-14T07:36:26Z</time>
   </trkpt>
   <trkpt lat="51.1870420" lon="5.2935000">
    <ele>47.9</ele>
    <time>2020-06-14T07:36:27Z</time>
   </trkpt>
   <trkpt lat="51.1870260" lon="5.2933940">
    <ele>47.9</ele>
    <time>2020-06-14T07:36:28Z</time>
   </trkpt>
   <trkpt lat="51.1870140" lon="5.2932840">
    <ele>47.9</ele>
    <time>2020-06-14T07:36:29Z</time>
   </trkpt>
   <trkpt lat="51.1869970" lon="5.2931760">
    <ele>47.8</ele>
    <time>2020-06-14T07:36:30Z</time>
   </trkpt>
   <trkpt lat="51.1869800" lon="5.2930690">
    <ele>47.8</ele>
    <time>2020-06-14T07:36:31Z</time>
   </trkpt>
   <trkpt lat="51.1869640" lon="5.2929580">
    <ele>47.8</ele>
    <time>2020-06-14T07:36:32Z</time>
   </trkpt>
   <trkpt lat="51.1869480" lon="5.2928450">
    <ele>47.8</ele>
    <time>2020-06-14T07:36:33Z</time>
   </trkpt>
   <trkpt lat="51.1869310" lon="5.2927300">
    <ele>47.8</ele>
    <time>2020-06-14T07:36:34Z</time>
   </trkpt>
   <trkpt lat="51.1869130" lon="5.2926150">
    <ele>47.7</ele>
    <time>2020-06-14T07:36:35Z</time>
   </trkpt>
   <trkpt lat="51.1869000" lon="5.2925070">
    <ele>47.7</ele>
    <time>2020-06-14T07:36:36Z</time>
   </trkpt>
   <trkpt lat="51.1868840" lon="5.2924010">
    <ele>47.6</ele>
    <time>2020-06-14T07:36:37Z</time>
   </trkpt>
   <trkpt lat="51.1868720" lon="5.2922870">
    <ele>47.6</ele>
    <time>2020-06-14T07:36:38Z</time>
   </trkpt>
   <trkpt lat="51.1868710" lon="5.2921700">
    <ele>47.6</ele>
    <time>2020-06-14T07:36:39Z</time>
   </trkpt>
   <trkpt lat="51.1868670" lon="5.2920550">
    <ele>47.6</ele>
    <time>2020-06-14T07:36:40Z</time>
   </trkpt>
   <trkpt lat="51.1868620" lon="5.2919390">
    <ele>47.5</ele>
    <time>2020-06-14T07:36:41Z</time>
   </trkpt>
   <trkpt lat="51.1868550" lon="5.2918220">
    <ele>47.5</ele>
    <time>2020-06-14T07:36:42Z</time>
   </trkpt>
   <trkpt lat="51.1868430" lon="5.2917060">
    <ele>47.5</ele>
    <time>2020-06-14T07:36:43Z</time>
   </trkpt>
   <trkpt lat="51.1868360" lon="5.2915920">
    <ele>47.4</ele>
    <time>2020-06-14T07:36:44Z</time>
   </trkpt>
   <trkpt lat="51.1868210" lon="5.2914780">
    <ele>47.4</ele>
    <time>2020-06-14T07:36:45Z</time>
   </trkpt>
   <trkpt lat="51.1868080" lon="5.2913640">
    <ele>47.3</ele>
    <time>2020-06-14T07:36:46Z</time>
   </trkpt>
   <trkpt lat="51.1867930" lon="5.2912520">
    <ele>47.3</ele>
    <time>2020-06-14T07:36:47Z</time>
   </trkpt>
   <trkpt lat="51.1867740" lon="5.2911420">
    <ele>47.2</ele>
    <time>2020-06-14T07:36:48Z</time>
   </trkpt>
   <trkpt lat="51.1867540" lon="5.2910310">
    <ele>47.2</ele>
    <time>2020-06-14T07:36:49Z</time>
   </trkpt>
   <trkpt lat="51.1867410" lon="5.2909170">
    <ele>47.1</ele>
    <time>2020-06-14T07:36:50Z</time>
   </trkpt>
   <trkpt lat="51.1867280" lon="5.2908020">
    <ele>47.1</ele>
    <time>2020-06-14T07:36:51Z</time>
   </trkpt>
   <trkpt lat="51.1867160" lon="5.2906900">
    <ele>47.1</ele>
    <time>2020-06-14T07:36:52Z</time>
   </trkpt>
   <trkpt lat="51.1867040" lon="5.2905790">
    <ele>47.1</ele>
    <time>2020-06-14T07:36:53Z</time>
   </trkpt>
   <trkpt lat="51.1866910" lon="5.2904690">
    <ele>47.1</ele>
    <time>2020-06-14T07:36:54Z</time>
   </trkpt>
   <trkpt lat="51.1866800" lon="5.2903580">
    <ele>47.0</ele>
    <time>2020-06-14T07:36:55Z</time>
   </trkpt>
   <trkpt lat="51.1866660" lon="5.2902460">
    <ele>47.0</ele>
    <time>2020-06-14T07:36:56Z</time>
   </trkpt>
   <trkpt lat="51.1866500" lon="5.2901330">
    <ele>47.0</ele>
    <time>2020-06-14T07:36:57Z</time>
   </trkpt>
   <trkpt lat="51.1866310" lon="5.2900160">
    <ele>47.0</ele>
    <time>2020-06-14T07:36:58Z</time>
   </trkpt>
   <trkpt lat="51.1866050" lon="5.2899050">
    <ele>46.9</ele>
    <time>2020-06-14T07:36:59Z</time>
   </trkpt>
   <trkpt lat="51.1865730" lon="5.2897980">
    <ele>46.8</ele>
    <time>2020-06-14T07:37:00Z</time>
   </trkpt>
   <trkpt lat="51.1865330" lon="5.2896940">
    <ele>46.7</ele>
    <time>2020-06-14T07:37:01Z</time>
   </trkpt>
   <trkpt lat="51.1864980" lon="5.2895840">
    <ele>46.6</ele>
    <time>2020-06-14T07:37:02Z</time>
   </trkpt>
   <trkpt lat="51.1864610" lon="5.2894740">
    <ele>46.5</ele>
    <time>2020-06-14T07:37:03Z</time>
   </trkpt>
   <trkpt lat="51.1864210" lon="5.2893610">
    <ele>46.4</ele>
    <time>2020-06-14T07:37:04Z</time>
   </trkpt>
   <trkpt lat="51.1863770" lon="5.2892540">
    <ele>46.4</ele>
    <time>2020-06-14T07:37:05Z</time>
   </trkpt>
   <trkpt lat="51.1863350" lon="5.2891440">
    <ele>46.3</ele>
    <time>2020-06-14T07:37:06Z</time>
   </trkpt>
   <trkpt lat="51.1862910" lon="5.2890400">
    <ele>46.2</ele>
    <time>2020-06-14T07:37:07Z</time>
   </trkpt>
   <trkpt lat="51.1862540" lon="5.2889310">
    <ele>46.2</ele>
    <time>2020-06-14T07:37:08Z</time>
   </trkpt>
   <trkpt lat="51.1862180" lon="5.2888240">
    <ele>46.1</ele>
    <time>2020-06-14T07:37:09Z</time>
   </trkpt>
   <trkpt lat="51.1861800" lon="5.2887240">
    <ele>46.1</ele>
    <time>2020-06-14T07:37:10Z</time>
   </trkpt>
   <trkpt lat="51.1861410" lon="5.2886250">
    <ele>46.1</ele>
    <time>2020-06-14T07:37:11Z</time>
   </trkpt>
   <trkpt lat="51.1861010" lon="5.2885280">
    <ele>46.0</ele>
    <time>2020-06-14T07:37:12Z</time>
   </trkpt>
   <trkpt lat="51.1860630" lon="5.2884320">
    <ele>46.0</ele>
    <time>2020-06-14T07:37:13Z</time>
   </trkpt>
   <trkpt lat="51.1860240" lon="5.2883370">
    <ele>46.0</ele>
    <time>2020-06-14T07:37:14Z</time>
   </trkpt>
   <trkpt lat="51.1859870" lon="5.2882370">
    <ele>45.9</ele>
    <time>2020-06-14T07:37:15Z</time>
   </trkpt>
   <trkpt lat="51.1859500" lon="5.2881410">
    <ele>45.9</ele>
    <time>2020-06-14T07:37:16Z</time>
   </trkpt>
   <trkpt lat="51.1859110" lon="5.2880500">
    <ele>45.9</ele>
    <time>2020-06-14T07:37:17Z</time>
   </trkpt>
   <trkpt lat="51.1858720" lon="5.2879580">
    <ele>45.8</ele>
    <time>2020-06-14T07:37:18Z</time>
   </trkpt>
   <trkpt lat="51.1858370" lon="5.2878610">
    <ele>45.7</ele>
    <time>2020-06-14T07:37:19Z</time>
   </trkpt>
   <trkpt lat="51.1858020" lon="5.2877670">
    <ele>45.6</ele>
    <time>2020-06-14T07:37:20Z</time>
   </trkpt>
   <trkpt lat="51.1857660" lon="5.2876730">
    <ele>45.6</ele>
    <time>2020-06-14T07:37:21Z</time>
   </trkpt>
   <trkpt lat="51.1857260" lon="5.2875780">
    <ele>45.5</ele>
    <time>2020-06-14T07:37:22Z</time>
   </trkpt>
   <trkpt lat="51.1856840" lon="5.2874760">
    <ele>45.4</ele>
    <time>2020-06-14T07:37:23Z</time>
   </trkpt>
   <trkpt lat="51.1856430" lon="5.2873740">
    <ele>45.4</ele>
    <time>2020-06-14T07:37:24Z</time>
   </trkpt>
   <trkpt lat="51.1856030" lon="5.2872700">
    <ele>45.4</ele>
    <time>2020-06-14T07:37:25Z</time>
   </trkpt>
   <trkpt lat="51.1855630" lon="5.2871660">
    <ele>45.3</ele>
    <time>2020-06-14T07:37:26Z</time>
   </trkpt>
   <trkpt lat="51.1855280" lon="5.2870570">
    <ele>45.3</ele>
    <time>2020-06-14T07:37:27Z</time>
   </trkpt>
   <trkpt lat="51.1854920" lon="5.2869520">
    <ele>45.2</ele>
    <time>2020-06-14T07:37:28Z</time>
   </trkpt>
   <trkpt lat="51.1854560" lon="5.2868490">
    <ele>45.2</ele>
    <time>2020-06-14T07:37:29Z</time>
   </trkpt>
   <trkpt lat="51.1854220" lon="5.2867460">
    <ele>45.1</ele>
    <time>2020-06-14T07:37:30Z</time>
   </trkpt>
   <trkpt lat="51.1853900" lon="5.2866450">
    <ele>45.1</ele>
    <time>2020-06-14T07:37:31Z</time>
   </trkpt>
   <trkpt lat="51.1853600" lon="5.2865440">
    <ele>45.0</ele>
    <time>2020-06-14T07:37:32Z</time>
   </trkpt>
   <trkpt lat="51.1853290" lon="5.2864420">
    <ele>45.0</ele>
    <time>2020-06-14T07:37:33Z</time>
   </trkpt>
   <trkpt lat="51.1852990" lon="5.2863410">
    <ele>44.9</ele>
    <time>2020-06-14T07:37:34Z</time>
   </trkpt>
   <trkpt lat="51.1852730" lon="5.2862390">
    <ele>44.8</ele>
    <time>2020-06-14T07:37:35Z</time>
   </trkpt>
   <trkpt lat="51.1852490" lon="5.2861370">
    <ele>44.8</ele>
    <time>2020-06-14T07:37:36Z</time>
   </trkpt>
   <trkpt lat="51.1852280" lon="5.2860390">
    <ele>44.8</ele>
    <time>2020-06-14T07:37:37Z</time>
   </trkpt>
   <trkpt lat="51.1852070" lon="5.2859390">
    <ele>44.7</ele>
    <time>2020-06-14T07:37:38Z</time>
   </trkpt>
   <trkpt lat="51.1851840" lon="5.2858390">
    <ele>44.7</ele>
    <time>2020-06-14T07:37:39Z</time>
   </trkpt>
   <trkpt lat="51.1851640" lon="5.2857360">
    <ele>44.7</ele>
    <time>2020-06-14T07:37:40Z</time>
   </trkpt>
   <trkpt lat="51.1851480" lon="5.2856280">
    <ele>44.7</ele>
    <time>2020-06-14T07:37:41Z</time>
   </trkpt>
   <trkpt lat="51.1851290" lon="5.2855220">
    <ele>44.7</ele>
    <time>2020-06-14T07:37:42Z</time>
   </trkpt>
   <trkpt lat="51.1851120" lon="5.2854150">
    <ele>44.7</ele>
    <time>2020-06-14T07:37:43Z</time>
   </trkpt>
   <trkpt lat="51.1850920" lon="5.2853030">
    <ele>44.7</ele>
    <time>2020-06-14T07:37:44Z</time>
   </trkpt>
   <trkpt lat="51.1850750" lon="5.2851870">
    <ele>44.7</ele>
    <time>2020-06-14T07:37:45Z</time>
   </trkpt>
   <trkpt lat="51.1850600" lon="5.2850680">
    <ele>44.7</ele>
    <time>2020-06-14T07:37:46Z</time>
   </trkpt>
   <trkpt lat="51.1850440" lon="5.2849480">
    <ele>44.7</ele>
    <time>2020-06-14T07:37:47Z</time>
   </trkpt>
   <trkpt lat="51.1850330" lon="5.2848260">
    <ele>44.7</ele>
    <time>2020-06-14T07:37:48Z</time>
   </trkpt>
   <trkpt lat="51.1850220" lon="5.2847050">
    <ele>44.7</ele>
    <time>2020-06-14T07:37:49Z</time>
   </trkpt>
   <trkpt lat="51.1850140" lon="5.2845830">
    <ele>44.6</ele>
    <time>2020-06-14T07:37:50Z</time>
   </trkpt>
   <trkpt lat="51.1850020" lon="5.2844650">
    <ele>44.6</ele>
    <time>2020-06-14T07:37:51Z</time>
   </trkpt>
   <trkpt lat="51.1849900" lon="5.2843480">
    <ele>44.5</ele>
    <time>2020-06-14T07:37:52Z</time>
   </trkpt>
   <trkpt lat="51.1849780" lon="5.2842280">
    <ele>44.5</ele>
    <time>2020-06-14T07:37:53Z</time>
   </trkpt>
   <trkpt lat="51.1849710" lon="5.2841070">
    <ele>44.4</ele>
    <time>2020-06-14T07:37:54Z</time>
   </trkpt>
   <trkpt lat="51.1849600" lon="5.2839890">
    <ele>44.4</ele>
    <time>2020-06-14T07:37:55Z</time>
   </trkpt>
   <trkpt lat="51.1849480" lon="5.2838710">
    <ele>44.3</ele>
    <time>2020-06-14T07:37:56Z</time>
   </trkpt>
   <trkpt lat="51.1849340" lon="5.2837510">
    <ele>44.3</ele>
    <time>2020-06-14T07:37:57Z</time>
   </trkpt>
   <trkpt lat="51.1849210" lon="5.2836300">
    <ele>44.2</ele>
    <time>2020-06-14T07:37:58Z</time>
   </trkpt>
   <trkpt lat="51.1849140" lon="5.2835090">
    <ele>44.2</ele>
    <time>2020-06-14T07:37:59Z</time>
   </trkpt>
   <trkpt lat="51.1849050" lon="5.2833910">
    <ele>44.1</ele>
    <time>2020-06-14T07:38:00Z</time>
   </trkpt>
   <trkpt lat="51.1848930" lon="5.2832740">
    <ele>44.1</ele>
    <time>2020-06-14T07:38:01Z</time>
   </trkpt>
   <trkpt lat="51.1848810" lon="5.2831600">
    <ele>44.1</ele>
    <time>2020-06-14T07:38:02Z</time>
   </trkpt>
   <trkpt lat="51.1848660" lon="5.2830480">
    <ele>44.0</ele>
    <time>2020-06-14T07:38:03Z</time>
   </trkpt>
   <trkpt lat="51.1848490" lon="5.2829370">
    <ele>44.0</ele>
    <time>2020-06-14T07:38:04Z</time>
   </trkpt>
   <trkpt lat="51.1848350" lon="5.2828220">
    <ele>44.0</ele>
    <time>2020-06-14T07:38:05Z</time>
   </trkpt>
   <trkpt lat="51.1848250" lon="5.2827050">
    <ele>44.0</ele>
    <time>2020-06-14T07:38:06Z</time>
   </trkpt>
   <trkpt lat="51.1848200" lon="5.2825870">
    <ele>44.0</ele>
    <time>2020-06-14T07:38:07Z</time>
   </trkpt>
   <trkpt lat="51.1848090" lon="5.2824730">
    <ele>43.9</ele>
    <time>2020-06-14T07:38:08Z</time>
   </trkpt>
   <trkpt lat="51.1848030" lon="5.2823580">
    <ele>43.9</ele>
    <time>2020-06-14T07:38:09Z</time>
   </trkpt>
   <trkpt lat="51.1847910" lon="5.2822450">
    <ele>43.9</ele>
    <time>2020-06-14T07:38:10Z</time>
   </trkpt>
   <trkpt lat="51.1847770" lon="5.2821320">
    <ele>43.9</ele>
    <time>2020-06-14T07:38:11Z</time>
   </trkpt>
   <trkpt lat="51.1847680" lon="5.2820160">
    <ele>43.9</ele>
    <time>2020-06-14T07:38:12Z</time>
   </trkpt>
   <trkpt lat="51.1847590" lon="5.2819000">
    <ele>43.9</ele>
    <time>2020-06-14T07:38:13Z</time>
   </trkpt>
   <trkpt lat="51.1847500" lon="5.2817810">
    <ele>43.9</ele>
    <time>2020-06-14T07:38:14Z</time>
   </trkpt>
   <trkpt lat="51.1847370" lon="5.2816640">
    <ele>43.9</ele>
    <time>2020-06-14T07:38:15Z</time>
   </trkpt>
   <trkpt lat="51.1847240" lon="5.2815540">
    <ele>43.9</ele>
    <time>2020-06-14T07:38:16Z</time>
   </trkpt>
   <trkpt lat="51.1847150" lon="5.2814430">
    <ele>43.8</ele>
    <time>2020-06-14T07:38:17Z</time>
   </trkpt>
   <trkpt lat="51.1847070" lon="5.2813350">
    <ele>43.8</ele>
    <time>2020-06-14T07:38:18Z</time>
   </trkpt>
   <trkpt lat="51.1846960" lon="5.2812290">
    <ele>43.8</ele>
    <time>2020-06-14T07:38:19Z</time>
   </trkpt>
   <trkpt lat="51.1846820" lon="5.2811250">
    <ele>43.8</ele>
    <time>2020-06-14T07:38:20Z</time>
   </trkpt>
   <trkpt lat="51.1846700" lon="5.2810160">
    <ele>43.8</ele>
    <time>2020-06-14T07:38:21Z</time>
   </trkpt>
   <trkpt lat="51.1846580" lon="5.2809070">
    <ele>43.7</ele>
    <time>2020-06-14T07:38:22Z</time>
   </trkpt>
   <trkpt lat="51.1846460" lon="5.2807980">
    <ele>43.7</ele>
    <time>2020-06-14T07:38:23Z</time>
   </trkpt>
   <trkpt lat="51.1846360" lon="5.2806880">
    <ele>43.7</ele>
    <time>2020-06-14T07:38:24Z</time>
   </trkpt>
   <trkpt lat="51.1846230" lon="5.2805760">
    <ele>43.6</ele>
    <time>2020-06-14T07:38:25Z</time>
   </trkpt>
   <trkpt lat="51.1846110" lon="5.2804630">
    <ele>43.6</ele>
    <time>2020-06-14T07:38:26Z</time>
   </trkpt>
   <trkpt lat="51.1845960" lon="5.2803510">
    <ele>43.6</ele>
    <time>2020-06-14T07:38:27Z</time>
   </trkpt>
   <trkpt lat="51.1845790" lon="5.2802390">
    <ele>43.6</ele>
    <time>2020-06-14T07:38:28Z</time>
   </trkpt>
   <trkpt lat="51.1845640" lon="5.2801260">
    <ele>43.6</ele>
    <time>2020-06-14T07:38:29Z</time>
   </trkpt>
   <trkpt lat="51.1845490" lon="5.2800150">
    <ele>43.5</ele>
    <time>2020-06-14T07:38:30Z</time>
   </trkpt>
   <trkpt lat="51.1845370" lon="5.2799070">
    <ele>43.5</ele>
    <time>2020-06-14T07:38:31Z</time>
   </trkpt>
   <trkpt lat="51.1845250" lon="5.2798050">
    <ele>43.5</ele>
    <time>2020-06-14T07:38:32Z</time>
   </trkpt>
   <trkpt lat="51.1845160" lon="5.2797010">
    <ele>43.5</ele>
    <time>2020-06-14T07:38:33Z</time>
   </trkpt>
   <trkpt lat="51.1844990" lon="5.2795950">
    <ele>43.5</ele>
    <time>2020-06-14T07:38:34Z</time>
   </trkpt>
   <trkpt lat="51.1844850" lon="5.2794860">
    <ele>43.6</ele>
    <time>2020-06-14T07:38:35Z</time>
   </trkpt>
   <trkpt lat="51.1844710" lon="5.2793780">
    <ele>43.7</ele>
    <time>2020-06-14T07:38:36Z</time>
   </trkpt>
   <trkpt lat="51.1844590" lon="5.2792710">
    <ele>43.8</ele>
    <time>2020-06-14T07:38:37Z</time>
   </trkpt>
   <trkpt lat="51.1844480" lon="5.2791680">
    <ele>44.0</ele>
    <time>2020-06-14T07:38:38Z</time>
   </trkpt>
   <trkpt lat="51.1844290" lon="5.2790670">
    <ele>44.0</ele>
    <time>2020-06-14T07:38:39Z</time>
   </trkpt>
   <trkpt lat="51.1844140" lon="5.2789590">
    <ele>43.9</ele>
    <time>2020-06-14T07:38:40Z</time>
   </trkpt>
   <trkpt lat="51.1843980" lon="5.2788490">
    <ele>43.9</ele>
    <time>2020-06-14T07:38:41Z</time>
   </trkpt>
   <trkpt lat="51.1843910" lon="5.2787360">
    <ele>43.8</ele>
    <time>2020-06-14T07:38:42Z</time>
   </trkpt>
   <trkpt lat="51.1843880" lon="5.2786160">
    <ele>43.8</ele>
    <time>2020-06-14T07:38:43Z</time>
   </trkpt>
   <trkpt lat="51.1843780" lon="5.2784980">
    <ele>43.7</ele>
    <time>2020-06-14T07:38:44Z</time>
   </trkpt>
   <trkpt lat="51.1843680" lon="5.2783780">
    <ele>43.7</ele>
    <time>2020-06-14T07:38:45Z</time>
   </trkpt>
   <trkpt lat="51.1843570" lon="5.2782590">
    <ele>43.6</ele>
    <time>2020-06-14T07:38:46Z</time>
   </trkpt>
   <trkpt lat="51.1843460" lon="5.2781430">
    <ele>43.6</ele>
    <time>2020-06-14T07:38:47Z</time>
   </trkpt>
   <trkpt lat="51.1843360" lon="5.2780270">
    <ele>43.5</ele>
    <time>2020-06-14T07:38:48Z</time>
   </trkpt>
   <trkpt lat="51.1843210" lon="5.2779160">
    <ele>43.5</ele>
    <time>2020-06-14T07:38:49Z</time>
   </trkpt>
   <trkpt lat="51.1843090" lon="5.2778070">
    <ele>43.5</ele>
    <time>2020-06-14T07:38:50Z</time>
   </trkpt>
   <trkpt lat="51.1842950" lon="5.2776980">
    <ele>43.5</ele>
    <time>2020-06-14T07:38:51Z</time>
   </trkpt>
   <trkpt lat="51.1842820" lon="5.2775900">
    <ele>43.5</ele>
    <time>2020-06-14T07:38:52Z</time>
   </trkpt>
   <trkpt lat="51.1842670" lon="5.2774870">
    <ele>43.5</ele>
    <time>2020-06-14T07:38:53Z</time>
   </trkpt>
   <trkpt lat="51.1842510" lon="5.2773870">
    <ele>43.5</ele>
    <time>2020-06-14T07:38:54Z</time>
   </trkpt>
   <trkpt lat="51.1842390" lon="5.2772840">
    <ele>43.5</ele>
    <time>2020-06-14T07:38:55Z</time>
   </trkpt>
   <trkpt lat="51.1842270" lon="5.2771770">
    <ele>43.4</ele>
    <time>2020-06-14T07:38:56Z</time>
   </trkpt>
   <trkpt lat="51.1842170" lon="5.2770680">
    <ele>43.3</ele>
    <time>2020-06-14T07:38:57Z</time>
   </trkpt>
   <trkpt lat="51.1842030" lon="5.2769560">
    <ele>43.3</ele>
    <time>2020-06-14T07:38:58Z</time>
   </trkpt>
   <trkpt lat="51.1841930" lon="5.2768440">
    <ele>43.3</ele>
    <time>2020-06-14T07:38:59Z</time>
   </trkpt>
   <trkpt lat="51.1841840" lon="5.2767260">
    <ele>43.3</ele>
    <time>2020-06-14T07:39:00Z</time>
   </trkpt>
   <trkpt lat="51.1841700" lon="5.2766100">
    <ele>43.2</ele>
    <time>2020-06-14T07:39:01Z</time>
   </trkpt>
   <trkpt lat="51.1841530" lon="5.2764950">
    <ele>43.2</ele>
    <time>2020-06-14T07:39:02Z</time>
   </trkpt>
   <trkpt lat="51.1841400" lon="5.2763800">
    <ele>43.2</ele>
    <time>2020-06-14T07:39:03Z</time>
   </trkpt>
   <trkpt lat="51.1841300" lon="5.2762630">
    <ele>43.2</ele>
    <time>2020-06-14T07:39:04Z</time>
   </trkpt>
   <trkpt lat="51.1841200" lon="5.2761480">
    <ele>43.2</ele>
    <time>2020-06-14T07:39:05Z</time>
   </trkpt>
   <trkpt lat="51.1841120" lon="5.2760330">
    <ele>43.2</ele>
    <time>2020-06-14T07:39:06Z</time>
   </trkpt>
   <trkpt lat="51.1840990" lon="5.2759200">
    <ele>43.2</ele>
    <time>2020-06-14T07:39:07Z</time>
   </trkpt>
   <trkpt lat="51.1840890" lon="5.2758080">
    <ele>43.2</ele>
    <time>2020-06-14T07:39:08Z</time>
   </trkpt>
   <trkpt lat="51.1840790" lon="5.2757000">
    <ele>43.2</ele>
    <time>2020-06-14T07:39:09Z</time>
   </trkpt>
   <trkpt lat="51.1840700" lon="5.2755910">
    <ele>43.1</ele>
    <time>2020-06-14T07:39:10Z</time>
   </trkpt>
   <trkpt lat="51.1840570" lon="5.2754770">
    <ele>43.1</ele>
    <time>2020-06-14T07:39:11Z</time>
   </trkpt>
   <trkpt lat="51.1840400" lon="5.2753610">
    <ele>43.1</ele>
    <time>2020-06-14T07:39:12Z</time>
   </trkpt>
   <trkpt lat="51.1840250" lon="5.2752430">
    <ele>43.2</ele>
    <time>2020-06-14T07:39:13Z</time>
   </trkpt>
   <trkpt lat="51.1840110" lon="5.2751310">
    <ele>43.2</ele>
    <time>2020-06-14T07:39:14Z</time>
   </trkpt>
   <trkpt lat="51.1840000" lon="5.2750220">
    <ele>43.1</ele>
    <time>2020-06-14T07:39:15Z</time>
   </trkpt>
   <trkpt lat="51.1839870" lon="5.2749100">
    <ele>43.1</ele>
    <time>2020-06-14T07:39:16Z</time>
   </trkpt>
   <trkpt lat="51.1839730" lon="5.2747950">
    <ele>43.1</ele>
    <time>2020-06-14T07:39:17Z</time>
   </trkpt>
   <trkpt lat="51.1839590" lon="5.2746820">
    <ele>43.1</ele>
    <time>2020-06-14T07:39:18Z</time>
   </trkpt>
   <trkpt lat="51.1839440" lon="5.2745740">
    <ele>43.1</ele>
    <time>2020-06-14T07:39:19Z</time>
   </trkpt>
   <trkpt lat="51.1839270" lon="5.2744670">
    <ele>43.1</ele>
    <time>2020-06-14T07:39:20Z</time>
   </trkpt>
   <trkpt lat="51.1839110" lon="5.2743560">
    <ele>43.1</ele>
    <time>2020-06-14T07:39:21Z</time>
   </trkpt>
   <trkpt lat="51.1838980" lon="5.2742440">
    <ele>43.1</ele>
    <time>2020-06-14T07:39:22Z</time>
   </trkpt>
   <trkpt lat="51.1838820" lon="5.2741340">
    <ele>43.0</ele>
    <time>2020-06-14T07:39:23Z</time>
   </trkpt>
   <trkpt lat="51.1838670" lon="5.2740250">
    <ele>43.0</ele>
    <time>2020-06-14T07:39:24Z</time>
   </trkpt>
   <trkpt lat="51.1838520" lon="5.2739160">
    <ele>43.0</ele>
    <time>2020-06-14T07:39:25Z</time>
   </trkpt>
   <trkpt lat="51.1838360" lon="5.2738060">
    <ele>43.0</ele>
    <time>2020-06-14T07:39:26Z</time>
   </trkpt>
   <trkpt lat="51.1838190" lon="5.2736950">
    <ele>42.9</ele>
    <time>2020-06-14T07:39:27Z</time>
   </trkpt>
   <trkpt lat="51.1838060" lon="5.2735800">
    <ele>42.9</ele>
    <time>2020-06-14T07:39:28Z</time>
   </trkpt>
   <trkpt lat="51.1837940" lon="5.2734690">
    <ele>42.9</ele>
    <time>2020-06-14T07:39:29Z</time>
   </trkpt>
   <trkpt lat="51.1837830" lon="5.2733580">
    <ele>42.9</ele>
    <time>2020-06-14T07:39:30Z</time>
   </trkpt>
   <trkpt lat="51.1837730" lon="5.2732480">
    <ele>42.9</ele>
    <time>2020-06-14T07:39:31Z</time>
   </trkpt>
   <trkpt lat="51.1837550" lon="5.2731420">
    <ele>42.9</ele>
    <time>2020-06-14T07:39:32Z</time>
   </trkpt>
   <trkpt lat="51.1837410" lon="5.2730390">
    <ele>42.9</ele>
    <time>2020-06-14T07:39:33Z</time>
   </trkpt>
   <trkpt lat="51.1837300" lon="5.2729400">
    <ele>42.9</ele>
    <time>2020-06-14T07:39:34Z</time>
   </trkpt>
   <trkpt lat="51.1837190" lon="5.2728450">
    <ele>42.9</ele>
    <time>2020-06-14T07:39:35Z</time>
   </trkpt>
   <trkpt lat="51.1837120" lon="5.2727560">
    <ele>42.9</ele>
    <time>2020-06-14T07:39:36Z</time>
   </trkpt>
   <trkpt lat="51.1837050" lon="5.2726780">
    <ele>42.9</ele>
    <time>2020-06-14T07:39:37Z</time>
   </trkpt>
   <trkpt lat="51.1836940" lon="5.2726050">
    <ele>43.0</ele>
    <time>2020-06-14T07:39:38Z</time>
   </trkpt>
   <trkpt lat="51.1836820" lon="5.2725340">
    <ele>43.0</ele>
    <time>2020-06-14T07:39:39Z</time>
   </trkpt>
   <trkpt lat="51.1836700" lon="5.2724670">
    <ele>43.0</ele>
    <time>2020-06-14T07:39:41Z</time>
   </trkpt>
   <trkpt lat="51.1836620" lon="5.2724010">
    <ele>43.1</ele>
    <time>2020-06-14T07:39:42Z</time>
   </trkpt>
   <trkpt lat="51.1836460" lon="5.2723430">
    <ele>43.1</ele>
    <time>2020-06-14T07:39:43Z</time>
   </trkpt>
   <trkpt lat="51.1836200" lon="5.2723070">
    <ele>43.1</ele>
    <time>2020-06-14T07:39:44Z</time>
   </trkpt>
   <trkpt lat="51.1835730" lon="5.2722950">
    <ele>43.0</ele>
    <time>2020-06-14T07:39:45Z</time>
   </trkpt>
   <trkpt lat="51.1835190" lon="5.2722660">
    <ele>42.8</ele>
    <time>2020-06-14T07:39:46Z</time>
   </trkpt>
   <trkpt lat="51.1834540" lon="5.2722690">
    <ele>42.5</ele>
    <time>2020-06-14T07:39:47Z</time>
   </trkpt>
   <trkpt lat="51.1833860" lon="5.2722740">
    <ele>42.3</ele>
    <time>2020-06-14T07:39:48Z</time>
   </trkpt>
   <trkpt lat="51.1833130" lon="5.2722660">
    <ele>42.0</ele>
    <time>2020-06-14T07:39:49Z</time>
   </trkpt>
   <trkpt lat="51.1832380" lon="5.2722610">
    <ele>41.8</ele>
    <time>2020-06-14T07:39:50Z</time>
   </trkpt>
   <trkpt lat="51.1831610" lon="5.2722560">
    <ele>41.7</ele>
    <time>2020-06-14T07:39:51Z</time>
   </trkpt>
   <trkpt lat="51.1830840" lon="5.2722500">
    <ele>41.6</ele>
    <time>2020-06-14T07:39:52Z</time>
   </trkpt>
   <trkpt lat="51.1830060" lon="5.2722410">
    <ele>41.5</ele>
    <time>2020-06-14T07:39:53Z</time>
   </trkpt>
   <trkpt lat="51.1829250" lon="5.2722290">
    <ele>41.4</ele>
    <time>2020-06-14T07:39:54Z</time>
   </trkpt>
   <trkpt lat="51.1828480" lon="5.2722190">
    <ele>41.3</ele>
    <time>2020-06-14T07:39:55Z</time>
   </trkpt>
   <trkpt lat="51.1827700" lon="5.2722070">
    <ele>41.2</ele>
    <time>2020-06-14T07:39:56Z</time>
   </trkpt>
   <trkpt lat="51.1826900" lon="5.2721980">
    <ele>41.1</ele>
    <time>2020-06-14T07:39:57Z</time>
   </trkpt>
   <trkpt lat="51.1826140" lon="5.2721930">
    <ele>41.0</ele>
    <time>2020-06-14T07:39:58Z</time>
   </trkpt>
   <trkpt lat="51.1825390" lon="5.2721920">
    <ele>41.0</ele>
    <time>2020-06-14T07:39:59Z</time>
   </trkpt>
   <trkpt lat="51.1824670" lon="5.2721860">
    <ele>41.0</ele>
    <time>2020-06-14T07:40:00Z</time>
   </trkpt>
   <trkpt lat="51.1823890" lon="5.2721770">
    <ele>40.9</ele>
    <time>2020-06-14T07:40:01Z</time>
   </trkpt>
   <trkpt lat="51.1823090" lon="5.2721730">
    <ele>40.9</ele>
    <time>2020-06-14T07:40:02Z</time>
   </trkpt>
   <trkpt lat="51.1822330" lon="5.2721590">
    <ele>40.8</ele>
    <time>2020-06-14T07:40:03Z</time>
   </trkpt>
   <trkpt lat="51.1821560" lon="5.2721390">
    <ele>40.8</ele>
    <time>2020-06-14T07:40:04Z</time>
   </trkpt>
   <trkpt lat="51.1820770" lon="5.2721240">
    <ele>40.8</ele>
    <time>2020-06-14T07:40:05Z</time>
   </trkpt>
   <trkpt lat="51.1819970" lon="5.2721140">
    <ele>40.7</ele>
    <time>2020-06-14T07:40:06Z</time>
   </trkpt>
   <trkpt lat="51.1819180" lon="5.2721100">
    <ele>40.7</ele>
    <time>2020-06-14T07:40:07Z</time>
   </trkpt>
   <trkpt lat="51.1818400" lon="5.2721050">
    <ele>40.7</ele>
    <time>2020-06-14T07:40:08Z</time>
   </trkpt>
   <trkpt lat="51.1817630" lon="5.2721040">
    <ele>40.6</ele>
    <time>2020-06-14T07:40:09Z</time>
   </trkpt>
   <trkpt lat="51.1816860" lon="5.2721000">
    <ele>40.6</ele>
    <time>2020-06-14T07:40:10Z</time>
   </trkpt>
   <trkpt lat="51.1816080" lon="5.2720980">
    <ele>40.6</ele>
    <time>2020-06-14T07:40:11Z</time>
   </trkpt>
   <trkpt lat="51.1815320" lon="5.2720920">
    <ele>40.6</ele>
    <time>2020-06-14T07:40:12Z</time>
   </trkpt>
   <trkpt lat="51.1814560" lon="5.2720860">
    <ele>40.6</ele>
    <time>2020-06-14T07:40:13Z</time>
   </trkpt>
   <trkpt lat="51.1813790" lon="5.2720760">
    <ele>40.6</ele>
    <time>2020-06-14T07:40:14Z</time>
   </trkpt>
   <trkpt lat="51.1813030" lon="5.2720660">
    <ele>40.6</ele>
    <time>2020-06-14T07:40:15Z</time>
   </trkpt>
   <trkpt lat="51.1812300" lon="5.2720560">
    <ele>40.6</ele>
    <time>2020-06-14T07:40:16Z</time>
   </trkpt>
   <trkpt lat="51.1811590" lon="5.2720440">
    <ele>40.6</ele>
    <time>2020-06-14T07:40:17Z</time>
   </trkpt>
   <trkpt lat="51.1810860" lon="5.2720410">
    <ele>40.6</ele>
    <time>2020-06-14T07:40:18Z</time>
   </trkpt>
   <trkpt lat="51.1810110" lon="5.2720360">
    <ele>40.6</ele>
    <time>2020-06-14T07:40:19Z</time>
   </trkpt>
   <trkpt lat="51.1809350" lon="5.2720230">
    <ele>40.6</ele>
    <time>2020-06-14T07:40:20Z</time>
   </trkpt>
   <trkpt lat="51.1808630" lon="5.2720210">
    <ele>40.6</ele>
    <time>2020-06-14T07:40:21Z</time>
   </trkpt>
   <trkpt lat="51.1807920" lon="5.2720160">
    <ele>40.7</ele>
    <time>2020-06-14T07:40:22Z</time>
   </trkpt>
   <trkpt lat="51.1807200" lon="5.2720090">
    <ele>40.7</ele>
    <time>2020-06-14T07:40:23Z</time>
   </trkpt>
   <trkpt lat="51.1806460" lon="5.2720000">
    <ele>40.6</ele>
    <time>2020-06-14T07:40:24Z</time>
   </trkpt>
   <trkpt lat="51.1805710" lon="5.2719910">
    <ele>40.6</ele>
    <time>2020-06-14T07:40:25Z</time>
   </trkpt>
   <trkpt lat="51.1804940" lon="5.2719860">
    <ele>40.6</ele>
    <time>2020-06-14T07:40:26Z</time>
   </trkpt>
   <trkpt lat="51.1804170" lon="5.2719740">
    <ele>40.6</ele>
    <time>2020-06-14T07:40:27Z</time>
   </trkpt>
   <trkpt lat="51.1803400" lon="5.2719710">
    <ele>40.6</ele>
    <time>2020-06-14T07:40:28Z</time>
   </trkpt>
   <trkpt lat="51.1802610" lon="5.2719680">
    <ele>40.6</ele>
    <time>2020-06-14T07:40:29Z</time>
   </trkpt>
   <trkpt lat="51.1801840" lon="5.2719680">
    <ele>40.6</ele>
    <time>2020-06-14T07:40:30Z</time>
   </trkpt>
   <trkpt lat="51.1801100" lon="5.2719700">
    <ele>40.6</ele>
    <time>2020-06-14T07:40:31Z</time>
   </trkpt>
   <trkpt lat="51.1800340" lon="5.2719760">
    <ele>40.6</ele>
    <time>2020-06-14T07:40:32Z</time>
   </trkpt>
   <trkpt lat="51.1799590" lon="5.2719750">
    <ele>40.6</ele>
    <time>2020-06-14T07:40:33Z</time>
   </trkpt>
   <trkpt lat="51.1798850" lon="5.2719730">
    <ele>40.7</ele>
    <time>2020-06-14T07:40:34Z</time>
   </trkpt>
   <trkpt lat="51.1798060" lon="5.2719730">
    <ele>40.7</ele>
    <time>2020-06-14T07:40:35Z</time>
   </trkpt>
   <trkpt lat="51.1797300" lon="5.2719760">
    <ele>40.8</ele>
    <time>2020-06-14T07:40:36Z</time>
   </trkpt>
   <trkpt lat="51.1796560" lon="5.2719860">
    <ele>40.9</ele>
    <time>2020-06-14T07:40:37Z</time>
   </trkpt>
   <trkpt lat="51.1795870" lon="5.2719980">
    <ele>40.8</ele>
    <time>2020-06-14T07:40:38Z</time>
   </trkpt>
   <trkpt lat="51.1795190" lon="5.2720090">
    <ele>40.8</ele>
    <time>2020-06-14T07:40:39Z</time>
   </trkpt>
   <trkpt lat="51.1794450" lon="5.2720140">
    <ele>40.7</ele>
    <time>2020-06-14T07:40:40Z</time>
   </trkpt>
   <trkpt lat="51.1793660" lon="5.2720200">
    <ele>40.7</ele>
    <time>2020-06-14T07:40:41Z</time>
   </trkpt>
   <trkpt lat="51.1792910" lon="5.2720210">
    <ele>40.7</ele>
    <time>2020-06-14T07:40:42Z</time>
   </trkpt>
   <trkpt lat="51.1792180" lon="5.2720220">
    <ele>40.7</ele>
    <time>2020-06-14T07:40:43Z</time>
   </trkpt>
   <trkpt lat="51.1791480" lon="5.2720260">
    <ele>40.7</ele>
    <time>2020-06-14T07:40:44Z</time>
   </trkpt>
   <trkpt lat="51.1790750" lon="5.2720350">
    <ele>40.7</ele>
    <time>2020-06-14T07:40:45Z</time>
   </trkpt>
   <trkpt lat="51.1790040" lon="5.2720550">
    <ele>40.7</ele>
    <time>2020-06-14T07:40:46Z</time>
   </trkpt>
   <trkpt lat="51.1789430" lon="5.2720720">
    <ele>40.7</ele>
    <time>2020-06-14T07:40:47Z</time>
   </trkpt>
   <trkpt lat="51.1788820" lon="5.2720770">
    <ele>40.7</ele>
    <time>2020-06-14T07:40:48Z</time>
   </trkpt>
   <trkpt lat="51.1788200" lon="5.2720850">
    <ele>40.7</ele>
    <time>2020-06-14T07:40:49Z</time>
   </trkpt>
   <trkpt lat="51.1787590" lon="5.2720960">
    <ele>40.7</ele>
    <time>2020-06-14T07:40:50Z</time>
   </trkpt>
   <trkpt lat="51.1786920" lon="5.2721010">
    <ele>40.7</ele>
    <time>2020-06-14T07:40:51Z</time>
   </trkpt>
   <trkpt lat="51.1786200" lon="5.2721110">
    <ele>40.7</ele>
    <time>2020-06-14T07:40:52Z</time>
   </trkpt>
   <trkpt lat="51.1785490" lon="5.2721160">
    <ele>40.6</ele>
    <time>2020-06-14T07:40:53Z</time>
   </trkpt>
   <trkpt lat="51.1784770" lon="5.2721130">
    <ele>40.6</ele>
    <time>2020-06-14T07:40:54Z</time>
   </trkpt>
   <trkpt lat="51.1783980" lon="5.2721090">
    <ele>40.7</ele>
    <time>2020-06-14T07:40:55Z</time>
   </trkpt>
   <trkpt lat="51.1783210" lon="5.2721190">
    <ele>40.7</ele>
    <time>2020-06-14T07:40:56Z</time>
   </trkpt>
   <trkpt lat="51.1782460" lon="5.2721320">
    <ele>40.7</ele>
    <time>2020-06-14T07:40:57Z</time>
   </trkpt>
   <trkpt lat="51.1781700" lon="5.2721540">
    <ele>40.7</ele>
    <time>2020-06-14T07:40:58Z</time>
   </trkpt>
   <trkpt lat="51.1780970" lon="5.2721770">
    <ele>40.8</ele>
    <time>2020-06-14T07:40:59Z</time>
   </trkpt>
   <trkpt lat="51.1780250" lon="5.2722040">
    <ele>40.8</ele>
    <time>2020-06-14T07:41:00Z</time>
   </trkpt>
   <trkpt lat="51.1779520" lon="5.2722230">
    <ele>40.8</ele>
    <time>2020-06-14T07:41:01Z</time>
   </trkpt>
   <trkpt lat="51.1778800" lon="5.2722500">
    <ele>40.9</ele>
    <time>2020-06-14T07:41:02Z</time>
   </trkpt>
   <trkpt lat="51.1778060" lon="5.2722620">
    <ele>41.0</ele>
    <time>2020-06-14T07:41:03Z</time>
   </trkpt>
   <trkpt lat="51.1777310" lon="5.2722710">
    <ele>40.9</ele>
    <time>2020-06-14T07:41:04Z</time>
   </trkpt>
   <trkpt lat="51.1776600" lon="5.2722840">
    <ele>40.8</ele>
    <time>2020-06-14T07:41:05Z</time>
   </trkpt>
   <trkpt lat="51.1775900" lon="5.2722900">
    <ele>40.6</ele>
    <time>2020-06-14T07:41:06Z</time>
   </trkpt>
   <trkpt lat="51.1775210" lon="5.2722940">
    <ele>40.6</ele>
    <time>2020-06-14T07:41:07Z</time>
   </trkpt>
   <trkpt lat="51.1774500" lon="5.2723070">
    <ele>40.6</ele>
    <time>2020-06-14T07:41:08Z</time>
   </trkpt>
   <trkpt lat="51.1773770" lon="5.2723350">
    <ele>40.6</ele>
    <time>2020-06-14T07:41:09Z</time>
   </trkpt>
   <trkpt lat="51.1773040" lon="5.2723440">
    <ele>40.6</ele>
    <time>2020-06-14T07:41:10Z</time>
   </trkpt>
   <trkpt lat="51.1772330" lon="5.2723620">
    <ele>40.6</ele>
    <time>2020-06-14T07:41:11Z</time>
   </trkpt>
   <trkpt lat="51.1771580" lon="5.2723880">
    <ele>40.6</ele>
    <time>2020-06-14T07:41:12Z</time>
   </trkpt>
   <trkpt lat="51.1770820" lon="5.2724130">
    <ele>40.7</ele>
    <time>2020-06-14T07:41:13Z</time>
   </trkpt>
   <trkpt lat="51.1770080" lon="5.2724350">
    <ele>40.7</ele>
    <time>2020-06-14T07:41:14Z</time>
   </trkpt>
   <trkpt lat="51.1769320" lon="5.2724520">
    <ele>40.6</ele>
    <time>2020-06-14T07:41:15Z</time>
   </trkpt>
   <trkpt lat="51.1768560" lon="5.2724650">
    <ele>40.6</ele>
    <time>2020-06-14T07:41:16Z</time>
   </trkpt>
   <trkpt lat="51.1767810" lon="5.2724760">
    <ele>40.6</ele>
    <time>2020-06-14T07:41:17Z</time>
   </trkpt>
   <trkpt lat="51.1767080" lon="5.2724900">
    <ele>40.6</ele>
    <time>2020-06-14T07:41:18Z</time>
   </trkpt>
   <trkpt lat="51.1766380" lon="5.2725040">
    <ele>40.6</ele>
    <time>2020-06-14T07:41:19Z</time>
   </trkpt>
   <trkpt lat="51.1765670" lon="5.2725170">
    <ele>40.6</ele>
    <time>2020-06-14T07:41:20Z</time>
   </trkpt>
   <trkpt lat="51.1764940" lon="5.2725270">
    <ele>40.6</ele>
    <time>2020-06-14T07:41:21Z</time>
   </trkpt>
   <trkpt lat="51.1764230" lon="5.2725400">
    <ele>40.7</ele>
    <time>2020-06-14T07:41:22Z</time>
   </trkpt>
   <trkpt lat="51.1763520" lon="5.2725600">
    <ele>40.7</ele>
    <time>2020-06-14T07:41:23Z</time>
   </trkpt>
   <trkpt lat="51.1762790" lon="5.2725740">
    <ele>40.7</ele>
    <time>2020-06-14T07:41:24Z</time>
   </trkpt>
   <trkpt lat="51.1762080" lon="5.2725810">
    <ele>40.8</ele>
    <time>2020-06-14T07:41:25Z</time>
   </trkpt>
   <trkpt lat="51.1761360" lon="5.2725970">
    <ele>40.8</ele>
    <time>2020-06-14T07:41:26Z</time>
   </trkpt>
   <trkpt lat="51.1760640" lon="5.2726090">
    <ele>40.8</ele>
    <time>2020-06-14T07:41:27Z</time>
   </trkpt>
   <trkpt lat="51.1759880" lon="5.2726220">
    <ele>40.8</ele>
    <time>2020-06-14T07:41:28Z</time>
   </trkpt>
   <trkpt lat="51.1759120" lon="5.2726390">
    <ele>40.8</ele>
    <time>2020-06-14T07:41:29Z</time>
   </trkpt>
   <trkpt lat="51.1758380" lon="5.2726560">
    <ele>40.8</ele>
    <time>2020-06-14T07:41:30Z</time>
   </trkpt>
   <trkpt lat="51.1757610" lon="5.2726750">
    <ele>40.9</ele>
    <time>2020-06-14T07:41:31Z</time>
   </trkpt>
   <trkpt lat="51.1756850" lon="5.2726940">
    <ele>40.9</ele>
    <time>2020-06-14T07:41:32Z</time>
   </trkpt>
   <trkpt lat="51.1756090" lon="5.2727100">
    <ele>41.0</ele>
    <time>2020-06-14T07:41:33Z</time>
   </trkpt>
   <trkpt lat="51.1755340" lon="5.2727300">
    <ele>41.0</ele>
    <time>2020-06-14T07:41:34Z</time>
   </trkpt>
   <trkpt lat="51.1754580" lon="5.2727440">
    <ele>41.1</ele>
    <time>2020-06-14T07:41:35Z</time>
   </trkpt>
   <trkpt lat="51.1753840" lon="5.2727550">
    <ele>41.1</ele>
    <time>2020-06-14T07:41:36Z</time>
   </trkpt>
   <trkpt lat="51.1753090" lon="5.2727750">
    <ele>41.1</ele>
    <time>2020-06-14T07:41:37Z</time>
   </trkpt>
   <trkpt lat="51.1752350" lon="5.2727830">
    <ele>41.1</ele>
    <time>2020-06-14T07:41:38Z</time>
   </trkpt>
   <trkpt lat="51.1751630" lon="5.2727910">
    <ele>41.1</ele>
    <time>2020-06-14T07:41:39Z</time>
   </trkpt>
   <trkpt lat="51.1750940" lon="5.2728060">
    <ele>41.1</ele>
    <time>2020-06-14T07:41:40Z</time>
   </trkpt>
   <trkpt lat="51.1750230" lon="5.2728160">
    <ele>41.2</ele>
    <time>2020-06-14T07:41:41Z</time>
   </trkpt>
   <trkpt lat="51.1749530" lon="5.2728290">
    <ele>41.2</ele>
    <time>2020-06-14T07:41:42Z</time>
   </trkpt>
   <trkpt lat="51.1748820" lon="5.2728480">
    <ele>41.2</ele>
    <time>2020-06-14T07:41:43Z</time>
   </trkpt>
   <trkpt lat="51.1748130" lon="5.2728730">
    <ele>41.3</ele>
    <time>2020-06-14T07:41:44Z</time>
   </trkpt>
   <trkpt lat="51.1747420" lon="5.2728950">
    <ele>41.4</ele>
    <time>2020-06-14T07:41:45Z</time>
   </trkpt>
   <trkpt lat="51.1746710" lon="5.2729120">
    <ele>41.4</ele>
    <time>2020-06-14T07:41:46Z</time>
   </trkpt>
   <trkpt lat="51.1745980" lon="5.2729260">
    <ele>41.4</ele>
    <time>2020-06-14T07:41:47Z</time>
   </trkpt>
   <trkpt lat="51.1745230" lon="5.2729350">
    <ele>41.4</ele>
    <time>2020-06-14T07:41:48Z</time>
   </trkpt>
   <trkpt lat="51.1744480" lon="5.2729490">
    <ele>41.3</ele>
    <time>2020-06-14T07:41:49Z</time>
   </trkpt>
   <trkpt lat="51.1743750" lon="5.2729630">
    <ele>41.4</ele>
    <time>2020-06-14T07:41:50Z</time>
   </trkpt>
   <trkpt lat="51.1743040" lon="5.2729750">
    <ele>41.4</ele>
    <time>2020-06-14T07:41:51Z</time>
   </trkpt>
   <trkpt lat="51.1742350" lon="5.2729900">
    <ele>41.4</ele>
    <time>2020-06-14T07:41:52Z</time>
   </trkpt>
   <trkpt lat="51.1741670" lon="5.2730080">
    <ele>41.4</ele>
    <time>2020-06-14T07:41:53Z</time>
   </trkpt>
   <trkpt lat="51.1741010" lon="5.2730210">
    <ele>41.4</ele>
    <time>2020-06-14T07:41:54Z</time>
   </trkpt>
   <trkpt lat="51.1740370" lon="5.2730310">
    <ele>41.4</ele>
    <time>2020-06-14T07:41:55Z</time>
   </trkpt>
   <trkpt lat="51.1739760" lon="5.2730420">
    <ele>41.4</ele>
    <time>2020-06-14T07:41:56Z</time>
   </trkpt>
   <trkpt lat="51.1739150" lon="5.2730510">
    <ele>41.4</ele>
    <time>2020-06-14T07:41:57Z</time>
   </trkpt>
   <trkpt lat="51.1738490" lon="5.2730640">
    <ele>41.4</ele>
    <time>2020-06-14T07:41:58Z</time>
   </trkpt>
   <trkpt lat="51.1737810" lon="5.2730770">
    <ele>41.4</ele>
    <time>2020-06-14T07:41:59Z</time>
   </trkpt>
   <trkpt lat="51.1737130" lon="5.2730880">
    <ele>41.4</ele>
    <time>2020-06-14T07:42:00Z</time>
   </trkpt>
   <trkpt lat="51.1736400" lon="5.2731100">
    <ele>41.4</ele>
    <time>2020-06-14T07:42:01Z</time>
   </trkpt>
   <trkpt lat="51.1735620" lon="5.2731210">
    <ele>41.4</ele>
    <time>2020-06-14T07:42:02Z</time>
   </trkpt>
   <trkpt lat="51.1734860" lon="5.2731410">
    <ele>41.5</ele>
    <time>2020-06-14T07:42:03Z</time>
   </trkpt>
   <trkpt lat="51.1734080" lon="5.2731510">
    <ele>41.5</ele>
    <time>2020-06-14T07:42:04Z</time>
   </trkpt>
   <trkpt lat="51.1733330" lon="5.2731700">
    <ele>41.5</ele>
    <time>2020-06-14T07:42:05Z</time>
   </trkpt>
   <trkpt lat="51.1732580" lon="5.2731780">
    <ele>41.5</ele>
    <time>2020-06-14T07:42:06Z</time>
   </trkpt>
   <trkpt lat="51.1731860" lon="5.2731930">
    <ele>41.6</ele>
    <time>2020-06-14T07:42:07Z</time>
   </trkpt>
   <trkpt lat="51.1731150" lon="5.2732060">
    <ele>41.6</ele>
    <time>2020-06-14T07:42:08Z</time>
   </trkpt>
   <trkpt lat="51.1730450" lon="5.2732210">
    <ele>41.6</ele>
    <time>2020-06-14T07:42:09Z</time>
   </trkpt>
   <trkpt lat="51.1729760" lon="5.2732360">
    <ele>41.6</ele>
    <time>2020-06-14T07:42:10Z</time>
   </trkpt>
   <trkpt lat="51.1729070" lon="5.2732530">
    <ele>41.7</ele>
    <time>2020-06-14T07:42:11Z</time>
   </trkpt>
   <trkpt lat="51.1728370" lon="5.2732640">
    <ele>41.7</ele>
    <time>2020-06-14T07:42:12Z</time>
   </trkpt>
   <trkpt lat="51.1727660" lon="5.2732780">
    <ele>41.7</ele>
    <time>2020-06-14T07:42:13Z</time>
   </trkpt>
   <trkpt lat="51.1726980" lon="5.2732940">
    <ele>41.8</ele>
    <time>2020-06-14T07:42:14Z</time>
   </trkpt>
   <trkpt lat="51.1726370" lon="5.2733070">
    <ele>41.8</ele>
    <time>2020-06-14T07:42:15Z</time>
   </trkpt>
   <trkpt lat="51.1725770" lon="5.2733180">
    <ele>41.8</ele>
    <time>2020-06-14T07:42:16Z</time>
   </trkpt>
   <trkpt lat="51.1725140" lon="5.2733350">
    <ele>41.8</ele>
    <time>2020-06-14T07:42:17Z</time>
   </trkpt>
   <trkpt lat="51.1724470" lon="5.2733510">
    <ele>41.6</ele>
    <time>2020-06-14T07:42:18Z</time>
   </trkpt>
   <trkpt lat="51.1723770" lon="5.2733670">
    <ele>41.5</ele>
    <time>2020-06-14T07:42:19Z</time>
   </trkpt>
   <trkpt lat="51.1723060" lon="5.2733880">
    <ele>41.3</ele>
    <time>2020-06-14T07:42:20Z</time>
   </trkpt>
   <trkpt lat="51.1722370" lon="5.2734030">
    <ele>41.3</ele>
    <time>2020-06-14T07:42:21Z</time>
   </trkpt>
   <trkpt lat="51.1721670" lon="5.2734140">
    <ele>41.2</ele>
    <time>2020-06-14T07:42:22Z</time>
   </trkpt>
   <trkpt lat="51.1720930" lon="5.2734170">
    <ele>41.2</ele>
    <time>2020-06-14T07:42:23Z</time>
   </trkpt>
   <trkpt lat="51.1720150" lon="5.2734300">
    <ele>41.2</ele>
    <time>2020-06-14T07:42:24Z</time>
   </trkpt>
   <trkpt lat="51.1719440" lon="5.2734490">
    <ele>41.2</ele>
    <time>2020-06-14T07:42:25Z</time>
   </trkpt>
   <trkpt lat="51.1718780" lon="5.2734710">
    <ele>41.1</ele>
    <time>2020-06-14T07:42:26Z</time>
   </trkpt>
   <trkpt lat="51.1718070" lon="5.2734900">
    <ele>41.1</ele>
    <time>2020-06-14T07:42:27Z</time>
   </trkpt>
   <trkpt lat="51.1717340" lon="5.2735070">
    <ele>41.1</ele>
    <time>2020-06-14T07:42:28Z</time>
   </trkpt>
   <trkpt lat="51.1716610" lon="5.2735280">
    <ele>41.2</ele>
    <time>2020-06-14T07:42:29Z</time>
   </trkpt>
   <trkpt lat="51.1715890" lon="5.2735460">
    <ele>41.2</ele>
    <time>2020-06-14T07:42:30Z</time>
   </trkpt>
   <trkpt lat="51.1715130" lon="5.2735660">
    <ele>41.2</ele>
    <time>2020-06-14T07:42:31Z</time>
   </trkpt>
   <trkpt lat="51.1714360" lon="5.2735760">
    <ele>41.2</ele>
    <time>2020-06-14T07:42:32Z</time>
   </trkpt>
   <trkpt lat="51.1713610" lon="5.2735910">
    <ele>41.2</ele>
    <time>2020-06-14T07:42:33Z</time>
   </trkpt>
   <trkpt lat="51.1712880" lon="5.2736120">
    <ele>41.2</ele>
    <time>2020-06-14T07:42:34Z</time>
   </trkpt>
   <trkpt lat="51.1712140" lon="5.2736270">
    <ele>41.3</ele>
    <time>2020-06-14T07:42:35Z</time>
   </trkpt>
   <trkpt lat="51.1711390" lon="5.2736420">
    <ele>41.3</ele>
    <time>2020-06-14T07:42:36Z</time>
   </trkpt>
   <trkpt lat="51.1710650" lon="5.2736550">
    <ele>41.4</ele>
    <time>2020-06-14T07:42:37Z</time>
   </trkpt>
   <trkpt lat="51.1709940" lon="5.2736680">
    <ele>41.4</ele>
    <time>2020-06-14T07:42:38Z</time>
   </trkpt>
   <trkpt lat="51.1709260" lon="5.2736830">
    <ele>41.5</ele>
    <time>2020-06-14T07:42:39Z</time>
   </trkpt>
   <trkpt lat="51.1708610" lon="5.2736890">
    <ele>41.5</ele>
    <time>2020-06-14T07:42:40Z</time>
   </trkpt>
   <trkpt lat="51.1707950" lon="5.2737030">
    <ele>41.5</ele>
    <time>2020-06-14T07:42:41Z</time>
   </trkpt>
   <trkpt lat="51.1707310" lon="5.2737180">
    <ele>41.6</ele>
    <time>2020-06-14T07:42:42Z</time>
   </trkpt>
   <trkpt lat="51.1706650" lon="5.2737320">
    <ele>41.6</ele>
    <time>2020-06-14T07:42:43Z</time>
   </trkpt>
   <trkpt lat="51.1705980" lon="5.2737570">
    <ele>41.6</ele>
    <time>2020-06-14T07:42:44Z</time>
   </trkpt>
   <trkpt lat="51.1705300" lon="5.2737690">
    <ele>41.6</ele>
    <time>2020-06-14T07:42:45Z</time>
   </trkpt>
   <trkpt lat="51.1704630" lon="5.2737860">
    <ele>41.7</ele>
    <time>2020-06-14T07:42:46Z</time>
   </trkpt>
   <trkpt lat="51.1703950" lon="5.2738000">
    <ele>41.7</ele>
    <time>2020-06-14T07:42:47Z</time>
   </trkpt>
   <trkpt lat="51.1703260" lon="5.2738170">
    <ele>41.8</ele>
    <time>2020-06-14T07:42:48Z</time>
   </trkpt>
   <trkpt lat="51.1702570" lon="5.2738360">
    <ele>41.9</ele>
    <time>2020-06-14T07:42:49Z</time>
   </trkpt>
   <trkpt lat="51.1701920" lon="5.2738580">
    <ele>41.9</ele>
    <time>2020-06-14T07:42:50Z</time>
   </trkpt>
   <trkpt lat="51.1701300" lon="5.2738750">
    <ele>41.9</ele>
    <time>2020-06-14T07:42:51Z</time>
   </trkpt>
   <trkpt lat="51.1700680" lon="5.2738890">
    <ele>41.9</ele>
    <time>2020-06-14T07:42:52Z</time>
   </trkpt>
   <trkpt lat="51.1700080" lon="5.2739000">
    <ele>42.0</ele>
    <time>2020-06-14T07:42:53Z</time>
   </trkpt>
   <trkpt lat="51.1699530" lon="5.2739210">
    <ele>42.0</ele>
    <time>2020-06-14T07:42:54Z</time>
   </trkpt>
   <trkpt lat="51.1699000" lon="5.2739370">
    <ele>42.1</ele>
    <time>2020-06-14T07:42:55Z</time>
   </trkpt>
   <trkpt lat="51.1698510" lon="5.2739570">
    <ele>42.1</ele>
    <time>2020-06-14T07:42:56Z</time>
   </trkpt>
   <trkpt lat="51.1698040" lon="5.2739660">
    <ele>42.2</ele>
    <time>2020-06-14T07:42:57Z</time>
   </trkpt>
   <trkpt lat="51.1697600" lon="5.2739760">
    <ele>42.3</ele>
    <time>2020-06-14T07:42:58Z</time>
   </trkpt>
   <trkpt lat="51.1697170" lon="5.2739940">
    <ele>42.4</ele>
    <time>2020-06-14T07:42:59Z</time>
   </trkpt>
   <trkpt lat="51.1696770" lon="5.2740030">
    <ele>42.5</ele>
    <time>2020-06-14T07:43:00Z</time>
   </trkpt>
   <trkpt lat="51.1696410" lon="5.2740080">
    <ele>42.6</ele>
    <time>2020-06-14T07:43:01Z</time>
   </trkpt>
   <trkpt lat="51.1696060" lon="5.2740150">
    <ele>42.7</ele>
    <time>2020-06-14T07:43:02Z</time>
   </trkpt>
   <trkpt lat="51.1695690" lon="5.2740330">
    <ele>42.8</ele>
    <time>2020-06-14T07:43:03Z</time>
   </trkpt>
   <trkpt lat="51.1695330" lon="5.2740430">
    <ele>42.9</ele>
    <time>2020-06-14T07:43:04Z</time>
   </trkpt>
   <trkpt lat="51.1695030" lon="5.2740790">
    <ele>43.0</ele>
    <time>2020-06-14T07:43:05Z</time>
   </trkpt>
   <trkpt lat="51.1694750" lon="5.2741370">
    <ele>43.1</ele>
    <time>2020-06-14T07:43:06Z</time>
   </trkpt>
   <trkpt lat="51.1694580" lon="5.2742270">
    <ele>43.0</ele>
    <time>2020-06-14T07:43:07Z</time>
   </trkpt>
   <trkpt lat="51.1694510" lon="5.2743250">
    <ele>42.9</ele>
    <time>2020-06-14T07:43:08Z</time>
   </trkpt>
   <trkpt lat="51.1694600" lon="5.2744270">
    <ele>42.9</ele>
    <time>2020-06-14T07:43:09Z</time>
   </trkpt>
   <trkpt lat="51.1694740" lon="5.2745300">
    <ele>42.8</ele>
    <time>2020-06-14T07:43:10Z</time>
   </trkpt>
   <trkpt lat="51.1694880" lon="5.2746350">
    <ele>42.8</ele>
    <time>2020-06-14T07:43:11Z</time>
   </trkpt>
   <trkpt lat="51.1695010" lon="5.2747450">
    <ele>42.8</ele>
    <time>2020-06-14T07:43:12Z</time>
   </trkpt>
   <trkpt lat="51.1695150" lon="5.2748590">
    <ele>42.8</ele>
    <time>2020-06-14T07:43:13Z</time>
   </trkpt>
   <trkpt lat="51.1695320" lon="5.2749740">
    <ele>42.9</ele>
    <time>2020-06-14T07:43:14Z</time>
   </trkpt>
   <trkpt lat="51.1695530" lon="5.2750830">
    <ele>43.1</ele>
    <time>2020-06-14T07:43:15Z</time>
   </trkpt>
   <trkpt lat="51.1695780" lon="5.2751800">
    <ele>43.2</ele>
    <time>2020-06-14T07:43:16Z</time>
   </trkpt>
   <trkpt lat="51.1696000" lon="5.2752680">
    <ele>43.4</ele>
    <time>2020-06-14T07:43:17Z</time>
   </trkpt>
   <trkpt lat="51.1696150" lon="5.2753570">
    <ele>43.5</ele>
    <time>2020-06-14T07:43:18Z</time>
   </trkpt>
   <trkpt lat="51.1696260" lon="5.2754420">
    <ele>43.5</ele>
    <time>2020-06-14T07:43:19Z</time>
   </trkpt>
   <trkpt lat="51.1696060" lon="5.2755230">
    <ele>43.5</ele>
    <time>2020-06-14T07:43:20Z</time>
   </trkpt>
   <trkpt lat="51.1695580" lon="5.2755840">
    <ele>43.4</ele>
    <time>2020-06-14T07:43:21Z</time>
   </trkpt>
   <trkpt lat="51.1695060" lon="5.2756360">
    <ele>43.3</ele>
    <time>2020-06-14T07:43:22Z</time>
   </trkpt>
   <trkpt lat="51.1694570" lon="5.2756910">
    <ele>43.2</ele>
    <time>2020-06-14T07:43:23Z</time>
   </trkpt>
   <trkpt lat="51.1694070" lon="5.2757480">
    <ele>43.1</ele>
    <time>2020-06-14T07:43:24Z</time>
   </trkpt>
   <trkpt lat="51.1693510" lon="5.2758040">
    <ele>43.1</ele>
    <time>2020-06-14T07:43:25Z</time>
   </trkpt>
   <trkpt lat="51.1692950" lon="5.2758680">
    <ele>43.0</ele>
    <time>2020-06-14T07:43:26Z</time>
   </trkpt>
   <trkpt lat="51.1692420" lon="5.2759380">
    <ele>43.0</ele>
    <time>2020-06-14T07:43:27Z</time>
   </trkpt>
   <trkpt lat="51.1691890" lon="5.2760080">
    <ele>43.0</ele>
    <time>2020-06-14T07:43:28Z</time>
   </trkpt>
   <trkpt lat="51.1691340" lon="5.2760790">
    <ele>43.1</ele>
    <time>2020-06-14T07:43:29Z</time>
   </trkpt>
   <trkpt lat="51.1690790" lon="5.2761520">
    <ele>43.1</ele>
    <time>2020-06-14T07:43:30Z</time>
   </trkpt>
   <trkpt lat="51.1690240" lon="5.2762310">
    <ele>43.1</ele>
    <time>2020-06-14T07:43:31Z</time>
   </trkpt>
   <trkpt lat="51.1689730" lon="5.2763060">
    <ele>43.2</ele>
    <time>2020-06-14T07:43:32Z</time>
   </trkpt>
   <trkpt lat="51.1689220" lon="5.2763800">
    <ele>43.2</ele>
    <time>2020-06-14T07:43:33Z</time>
   </trkpt>
   <trkpt lat="51.1688690" lon="5.2764510">
    <ele>43.2</ele>
    <time>2020-06-14T07:43:34Z</time>
   </trkpt>
   <trkpt lat="51.1688110" lon="5.2765140">
    <ele>43.3</ele>
    <time>2020-06-14T07:43:35Z</time>
   </trkpt>
   <trkpt lat="51.1687570" lon="5.2765820">
    <ele>43.4</ele>
    <time>2020-06-14T07:43:36Z</time>
   </trkpt>
   <trkpt lat="51.1687010" lon="5.2766540">
    <ele>43.4</ele>
    <time>2020-06-14T07:43:37Z</time>
   </trkpt>
   <trkpt lat="51.1686460" lon="5.2767180">
    <ele>43.5</ele>
    <time>2020-06-14T07:43:38Z</time>
   </trkpt>
   <trkpt lat="51.1685890" lon="5.2767880">
    <ele>43.5</ele>
    <time>2020-06-14T07:43:39Z</time>
   </trkpt>
   <trkpt lat="51.1685350" lon="5.2768540">
    <ele>43.6</ele>
    <time>2020-06-14T07:43:40Z</time>
   </trkpt>
   <trkpt lat="51.1684870" lon="5.2769160">
    <ele>43.7</ele>
    <time>2020-06-14T07:43:41Z</time>
   </trkpt>
   <trkpt lat="51.1684440" lon="5.2769690">
    <ele>43.8</ele>
    <time>2020-06-14T07:43:42Z</time>
   </trkpt>
   <trkpt lat="51.1684050" lon="5.2770220">
    <ele>43.9</ele>
    <time>2020-06-14T07:43:43Z</time>
   </trkpt>
   <trkpt lat="51.1683700" lon="5.2770650">
    <ele>44.0</ele>
    <time>2020-06-14T07:43:44Z</time>
   </trkpt>
   <trkpt lat="51.1683390" lon="5.2771080">
    <ele>44.1</ele>
    <time>2020-06-14T07:43:45Z</time>
   </trkpt>
   <trkpt lat="51.1683140" lon="5.2771380">
    <ele>44.2</ele>
    <time>2020-06-14T07:43:46Z</time>
   </trkpt>
   <trkpt lat="51.1682840" lon="5.2771720">
    <ele>44.3</ele>
    <time>2020-06-14T07:43:47Z</time>
   </trkpt>
   <trkpt lat="51.1682730" lon="5.2771820">
    <ele>44.4</ele>
    <time>2020-06-14T07:43:48Z</time>
   </trkpt>
   <trkpt lat="51.1682490" lon="5.2772070">
    <ele>44.4</ele>
    <time>2020-06-14T07:43:49Z</time>
   </trkpt>
   <trkpt lat="51.1682240" lon="5.2772480">
    <ele>44.6</ele>
    <time>2020-06-14T07:43:50Z</time>
   </trkpt>
   <trkpt lat="51.1682160" lon="5.2772600">
    <ele>44.6</ele>
    <time>2020-06-14T07:43:51Z</time>
   </trkpt>
   <trkpt lat="51.1681940" lon="5.2772850">
    <ele>44.7</ele>
    <time>2020-06-14T07:43:52Z</time>
   </trkpt>
   <trkpt lat="51.1681790" lon="5.2773000">
    <ele>44.7</ele>
    <time>2020-06-14T07:43:53Z</time>
   </trkpt>
   <trkpt lat="51.1681660" lon="5.2773100">
    <ele>44.8</ele>
    <time>2020-06-14T07:43:54Z</time>
   </trkpt>
   <trkpt lat="51.1681660" lon="5.2773120">
    <ele>44.8</ele>
    <time>2020-06-14T07:43:55Z</time>
   </trkpt>
   <trkpt lat="51.1681680" lon="5.2773080">
    <ele>44.8</ele>
    <time>2020-06-14T07:43:56Z</time>
   </trkpt>
   <trkpt lat="51.1681650" lon="5.2773100">
    <ele>44.8</ele>
    <time>2020-06-14T07:43:57Z</time>
   </trkpt>
   <trkpt lat="51.1681620" lon="5.2773130">
    <ele>44.8</ele>
    <time>2020-06-14T07:43:58Z</time>
   </trkpt>
   <trkpt lat="51.1681660" lon="5.2773250">
    <ele>44.9</ele>
    <time>2020-06-14T07:43:59Z</time>
   </trkpt>
   <trkpt lat="51.1681620" lon="5.2773300">
    <ele>44.9</ele>
    <time>2020-06-14T07:44:00Z</time>
   </trkpt>
   <trkpt lat="51.1681580" lon="5.2773430">
    <ele>44.9</ele>
    <time>2020-06-14T07:44:01Z</time>
   </trkpt>
   <trkpt lat="51.1681600" lon="5.2773500">
    <ele>44.9</ele>
    <time>2020-06-14T07:44:02Z</time>
   </trkpt>
   <trkpt lat="51.1681620" lon="5.2773560">
    <ele>44.9</ele>
    <time>2020-06-14T07:44:03Z</time>
   </trkpt>
   <trkpt lat="51.1681650" lon="5.2773620">
    <ele>44.9</ele>
    <time>2020-06-14T07:44:04Z</time>
   </trkpt>
   <trkpt lat="51.1681700" lon="5.2773630">
    <ele>45.0</ele>
    <time>2020-06-14T07:44:05Z</time>
   </trkpt>
   <trkpt lat="51.1681730" lon="5.2773650">
    <ele>45.0</ele>
    <time>2020-06-14T07:44:06Z</time>
   </trkpt>
   <trkpt lat="51.1681790" lon="5.2773630">
    <ele>45.0</ele>
    <time>2020-06-14T07:44:07Z</time>
   </trkpt>
   <trkpt lat="51.1681790" lon="5.2773650">
    <ele>45.0</ele>
    <time>2020-06-14T07:44:08Z</time>
   </trkpt>
   <trkpt lat="51.1681850" lon="5.2773600">
    <ele>45.0</ele>
    <time>2020-06-14T07:44:09Z</time>
   </trkpt>
   <trkpt lat="51.1681860" lon="5.2773590">
    <ele>45.0</ele>
    <time>2020-06-14T07:44:10Z</time>
   </trkpt>
   <trkpt lat="51.1681610" lon="5.2773200">
    <ele>45.1</ele>
    <time>2020-06-14T07:44:36Z</time>
   </trkpt>
   <trkpt lat="51.1681570" lon="5.2773310">
    <ele>45.2</ele>
    <time>2020-06-14T07:44:37Z</time>
   </trkpt>
   <trkpt lat="51.1681520" lon="5.2773450">
    <ele>45.2</ele>
    <time>2020-06-14T07:44:38Z</time>
   </trkpt>
   <trkpt lat="51.1681430" lon="5.2773680">
    <ele>45.2</ele>
    <time>2020-06-14T07:44:39Z</time>
   </trkpt>
   <trkpt lat="51.1681400" lon="5.2773900">
    <ele>45.3</ele>
    <time>2020-06-14T07:44:40Z</time>
   </trkpt>
   <trkpt lat="51.1681350" lon="5.2774110">
    <ele>45.3</ele>
    <time>2020-06-14T07:44:41Z</time>
   </trkpt>
   <trkpt lat="51.1681140" lon="5.2774390">
    <ele>45.4</ele>
    <time>2020-06-14T07:44:42Z</time>
   </trkpt>
   <trkpt lat="51.1680940" lon="5.2774760">
    <ele>45.5</ele>
    <time>2020-06-14T07:44:43Z</time>
   </trkpt>
   <trkpt lat="51.1680690" lon="5.2775020">
    <ele>45.5</ele>
    <time>2020-06-14T07:44:44Z</time>
   </trkpt>
   <trkpt lat="51.1680400" lon="5.2775470">
    <ele>45.5</ele>
    <time>2020-06-14T07:44:45Z</time>
   </trkpt>
   <trkpt lat="51.1680270" lon="5.2775600">
    <ele>45.5</ele>
    <time>2020-06-14T07:44:46Z</time>
   </trkpt>
   <trkpt lat="51.1680010" lon="5.2775970">
    <ele>45.5</ele>
    <time>2020-06-14T07:44:47Z</time>
   </trkpt>
   <trkpt lat="51.1679720" lon="5.2776480">
    <ele>45.4</ele>
    <time>2020-06-14T07:44:48Z</time>
   </trkpt>
   <trkpt lat="51.1679450" lon="5.2777180">
    <ele>45.3</ele>
    <time>2020-06-14T07:44:49Z</time>
   </trkpt>
   <trkpt lat="51.1679220" lon="5.2778000">
    <ele>45.1</ele>
    <time>2020-06-14T07:44:50Z</time>
   </trkpt>
   <trkpt lat="51.1678910" lon="5.2778910">
    <ele>45.0</ele>
    <time>2020-06-14T07:44:51Z</time>
   </trkpt>
   <trkpt lat="51.1678520" lon="5.2779850">
    <ele>44.8</ele>
    <time>2020-06-14T07:44:52Z</time>
   </trkpt>
   <trkpt lat="51.1678050" lon="5.2780780">
    <ele>44.6</ele>
    <time>2020-06-14T07:44:53Z</time>
   </trkpt>
   <trkpt lat="51.1677530" lon="5.2781740">
    <ele>44.5</ele>
    <time>2020-06-14T07:44:54Z</time>
   </trkpt>
   <trkpt lat="51.1676960" lon="5.2782680">
    <ele>44.3</ele>
    <time>2020-06-14T07:44:55Z</time>
   </trkpt>
   <trkpt lat="51.1676500" lon="5.2783550">
    <ele>44.3</ele>
    <time>2020-06-14T07:44:56Z</time>
   </trkpt>
   <trkpt lat="51.1676050" lon="5.2784530">
    <ele>44.2</ele>
    <time>2020-06-14T07:44:57Z</time>
   </trkpt>
   <trkpt lat="51.1675530" lon="5.2785540">
    <ele>44.2</ele>
    <time>2020-06-14T07:44:58Z</time>
   </trkpt>
   <trkpt lat="51.1675060" lon="5.2786420">
    <ele>44.1</ele>
    <time>2020-06-14T07:44:59Z</time>
   </trkpt>
   <trkpt lat="51.1674640" lon="5.2787210">
    <ele>44.2</ele>
    <time>2020-06-14T07:45:00Z</time>
   </trkpt>
   <trkpt lat="51.1674170" lon="5.2788060">
    <ele>44.2</ele>
    <time>2020-06-14T07:45:01Z</time>
   </trkpt>
   <trkpt lat="51.1673740" lon="5.2788920">
    <ele>44.3</ele>
    <time>2020-06-14T07:45:02Z</time>
   </trkpt>
   <trkpt lat="51.1673320" lon="5.2789810">
    <ele>44.3</ele>
    <time>2020-06-14T07:45:03Z</time>
   </trkpt>
   <trkpt lat="51.1672910" lon="5.2790680">
    <ele>44.4</ele>
    <time>2020-06-14T07:45:04Z</time>
   </trkpt>
   <trkpt lat="51.1672520" lon="5.2791460">
    <ele>44.5</ele>
    <time>2020-06-14T07:45:05Z</time>
   </trkpt>
   <trkpt lat="51.1672130" lon="5.2792260">
    <ele>44.6</ele>
    <time>2020-06-14T07:45:06Z</time>
   </trkpt>
   <trkpt lat="51.1671780" lon="5.2793140">
    <ele>44.7</ele>
    <time>2020-06-14T07:45:07Z</time>
   </trkpt>
   <trkpt lat="51.1671460" lon="5.2794120">
    <ele>44.8</ele>
    <time>2020-06-14T07:45:08Z</time>
   </trkpt>
   <trkpt lat="51.1671160" lon="5.2795140">
    <ele>44.8</ele>
    <time>2020-06-14T07:45:09Z</time>
   </trkpt>
   <trkpt lat="51.1670920" lon="5.2796200">
    <ele>44.7</ele>
    <time>2020-06-14T07:45:10Z</time>
   </trkpt>
   <trkpt lat="51.1670680" lon="5.2797350">
    <ele>44.6</ele>
    <time>2020-06-14T07:45:11Z</time>
   </trkpt>
   <trkpt lat="51.1670520" lon="5.2798490">
    <ele>44.6</ele>
    <time>2020-06-14T07:45:12Z</time>
   </trkpt>
   <trkpt lat="51.1670440" lon="5.2799620">
    <ele>44.5</ele>
    <time>2020-06-14T07:45:13Z</time>
   </trkpt>
   <trkpt lat="51.1670270" lon="5.2800750">
    <ele>44.5</ele>
    <time>2020-06-14T07:45:14Z</time>
   </trkpt>
   <trkpt lat="51.1670110" lon="5.2801890">
    <ele>44.6</ele>
    <time>2020-06-14T07:45:15Z</time>
   </trkpt>
   <trkpt lat="51.1669960" lon="5.2803050">
    <ele>44.6</ele>
    <time>2020-06-14T07:45:16Z</time>
   </trkpt>
   <trkpt lat="51.1669810" lon="5.2804220">
    <ele>44.6</ele>
    <time>2020-06-14T07:45:17Z</time>
   </trkpt>
   <trkpt lat="51.1669670" lon="5.2805370">
    <ele>44.6</ele>
    <time>2020-06-14T07:45:18Z</time>
   </trkpt>
   <trkpt lat="51.1669570" lon="5.2806500">
    <ele>44.7</ele>
    <time>2020-06-14T07:45:19Z</time>
   </trkpt>
   <trkpt lat="51.1669440" lon="5.2807640">
    <ele>44.7</ele>
    <time>2020-06-14T07:45:20Z</time>
   </trkpt>
   <trkpt lat="51.1669250" lon="5.2808690">
    <ele>44.7</ele>
    <time>2020-06-14T07:45:21Z</time>
   </trkpt>
   <trkpt lat="51.1669100" lon="5.2809820">
    <ele>44.7</ele>
    <time>2020-06-14T07:45:22Z</time>
   </trkpt>
   <trkpt lat="51.1668990" lon="5.2810990">
    <ele>44.7</ele>
    <time>2020-06-14T07:45:23Z</time>
   </trkpt>
   <trkpt lat="51.1668870" lon="5.2812170">
    <ele>44.7</ele>
    <time>2020-06-14T07:45:24Z</time>
   </trkpt>
   <trkpt lat="51.1668700" lon="5.2813360">
    <ele>44.7</ele>
    <time>2020-06-14T07:45:25Z</time>
   </trkpt>
   <trkpt lat="51.1668550" lon="5.2814500">
    <ele>44.7</ele>
    <time>2020-06-14T07:45:26Z</time>
   </trkpt>
   <trkpt lat="51.1668420" lon="5.2815620">
    <ele>44.8</ele>
    <time>2020-06-14T07:45:27Z</time>
   </trkpt>
   <trkpt lat="51.1668270" lon="5.2816810">
    <ele>44.8</ele>
    <time>2020-06-14T07:45:28Z</time>
   </trkpt>
   <trkpt lat="51.1668120" lon="5.2817900">
    <ele>44.8</ele>
    <time>2020-06-14T07:45:29Z</time>
   </trkpt>
   <trkpt lat="51.1667960" lon="5.2819240">
    <ele>44.9</ele>
    <time>2020-06-14T07:45:30Z</time>
   </trkpt>
   <trkpt lat="51.1667780" lon="5.2820310">
    <ele>44.9</ele>
    <time>2020-06-14T07:45:31Z</time>
   </trkpt>
   <trkpt lat="51.1667600" lon="5.2821470">
    <ele>44.9</ele>
    <time>2020-06-14T07:45:32Z</time>
   </trkpt>
   <trkpt lat="51.1667420" lon="5.2822550">
    <ele>44.9</ele>
    <time>2020-06-14T07:45:33Z</time>
   </trkpt>
   <trkpt lat="51.1667230" lon="5.2823600">
    <ele>45.0</ele>
    <time>2020-06-14T07:45:34Z</time>
   </trkpt>
   <trkpt lat="51.1667070" lon="5.2824650">
    <ele>45.0</ele>
    <time>2020-06-14T07:45:35Z</time>
   </trkpt>
   <trkpt lat="51.1666900" lon="5.2825700">
    <ele>45.0</ele>
    <time>2020-06-14T07:45:36Z</time>
   </trkpt>
   <trkpt lat="51.1666750" lon="5.2826740">
    <ele>45.0</ele>
    <time>2020-06-14T07:45:37Z</time>
   </trkpt>
   <trkpt lat="51.1666650" lon="5.2827810">
    <ele>45.0</ele>
    <time>2020-06-14T07:45:38Z</time>
   </trkpt>
   <trkpt lat="51.1666550" lon="5.2828860">
    <ele>45.0</ele>
    <time>2020-06-14T07:45:39Z</time>
   </trkpt>
   <trkpt lat="51.1666370" lon="5.2829880">
    <ele>45.1</ele>
    <time>2020-06-14T07:45:40Z</time>
   </trkpt>
   <trkpt lat="51.1666180" lon="5.2830860">
    <ele>45.1</ele>
    <time>2020-06-14T07:45:41Z</time>
   </trkpt>
   <trkpt lat="51.1666040" lon="5.2831820">
    <ele>45.2</ele>
    <time>2020-06-14T07:45:42Z</time>
   </trkpt>
   <trkpt lat="51.1665930" lon="5.2832730">
    <ele>45.3</ele>
    <time>2020-06-14T07:45:43Z</time>
   </trkpt>
   <trkpt lat="51.1665820" lon="5.2833630">
    <ele>45.4</ele>
    <time>2020-06-14T07:45:44Z</time>
   </trkpt>
   <trkpt lat="51.1665690" lon="5.2834560">
    <ele>45.5</ele>
    <time>2020-06-14T07:45:45Z</time>
   </trkpt>
   <trkpt lat="51.1665580" lon="5.2835500">
    <ele>45.5</ele>
    <time>2020-06-14T07:45:46Z</time>
   </trkpt>
   <trkpt lat="51.1665360" lon="5.2836370">
    <ele>45.6</ele>
    <time>2020-06-14T07:45:47Z</time>
   </trkpt>
   <trkpt lat="51.1664970" lon="5.2837160">
    <ele>45.6</ele>
    <time>2020-06-14T07:45:48Z</time>
   </trkpt>
   <trkpt lat="51.1664330" lon="5.2837680">
    <ele>45.6</ele>
    <time>2020-06-14T07:45:49Z</time>
   </trkpt>
   <trkpt lat="51.1663690" lon="5.2838180">
    <ele>45.6</ele>
    <time>2020-06-14T07:45:50Z</time>
   </trkpt>
   <trkpt lat="51.1663090" lon="5.2838720">
    <ele>45.5</ele>
    <time>2020-06-14T07:45:51Z</time>
   </trkpt>
   <trkpt lat="51.1662480" lon="5.2839250">
    <ele>45.5</ele>
    <time>2020-06-14T07:45:52Z</time>
   </trkpt>
   <trkpt lat="51.1661820" lon="5.2839780">
    <ele>45.4</ele>
    <time>2020-06-14T07:45:53Z</time>
   </trkpt>
   <trkpt lat="51.1661160" lon="5.2840280">
    <ele>45.4</ele>
    <time>2020-06-14T07:45:54Z</time>
   </trkpt>
   <trkpt lat="51.1660490" lon="5.2840820">
    <ele>45.4</ele>
    <time>2020-06-14T07:45:55Z</time>
   </trkpt>
   <trkpt lat="51.1659870" lon="5.2841440">
    <ele>45.3</ele>
    <time>2020-06-14T07:45:56Z</time>
   </trkpt>
   <trkpt lat="51.1659230" lon="5.2841980">
    <ele>45.3</ele>
    <time>2020-06-14T07:45:57Z</time>
   </trkpt>
   <trkpt lat="51.1658620" lon="5.2842580">
    <ele>45.2</ele>
    <time>2020-06-14T07:45:58Z</time>
   </trkpt>
   <trkpt lat="51.1657990" lon="5.2843190">
    <ele>45.2</ele>
    <time>2020-06-14T07:45:59Z</time>
   </trkpt>
   <trkpt lat="51.1657350" lon="5.2843830">
    <ele>45.2</ele>
    <time>2020-06-14T07:46:00Z</time>
   </trkpt>
   <trkpt lat="51.1656710" lon="5.2844460">
    <ele>45.1</ele>
    <time>2020-06-14T07:46:01Z</time>
   </trkpt>
   <trkpt lat="51.1656070" lon="5.2845060">
    <ele>45.2</ele>
    <time>2020-06-14T07:46:02Z</time>
   </trkpt>
   <trkpt lat="51.1655450" lon="5.2845670">
    <ele>45.2</ele>
    <time>2020-06-14T07:46:03Z</time>
   </trkpt>
   <trkpt lat="51.1654790" lon="5.2846290">
    <ele>45.2</ele>
    <time>2020-06-14T07:46:04Z</time>
   </trkpt>
   <trkpt lat="51.1654160" lon="5.2846900">
    <ele>45.2</ele>
    <time>2020-06-14T07:46:05Z</time>
   </trkpt>
   <trkpt lat="51.1653530" lon="5.2847480">
    <ele>45.2</ele>
    <time>2020-06-14T07:46:06Z</time>
   </trkpt>
   <trkpt lat="51.1652910" lon="5.2848130">
    <ele>45.2</ele>
    <time>2020-06-14T07:46:07Z</time>
   </trkpt>
   <trkpt lat="51.1652340" lon="5.2848700">
    <ele>45.3</ele>
    <time>2020-06-14T07:46:08Z</time>
   </trkpt>
   <trkpt lat="51.1651820" lon="5.2849420">
    <ele>45.3</ele>
    <time>2020-06-14T07:46:09Z</time>
   </trkpt>
   <trkpt lat="51.1651420" lon="5.2850450">
    <ele>45.3</ele>
    <time>2020-06-14T07:46:10Z</time>
   </trkpt>
   <trkpt lat="51.1651130" lon="5.2851560">
    <ele>45.3</ele>
    <time>2020-06-14T07:46:11Z</time>
   </trkpt>
   <trkpt lat="51.1650930" lon="5.2852660">
    <ele>45.4</ele>
    <time>2020-06-14T07:46:12Z</time>
   </trkpt>
   <trkpt lat="51.1650740" lon="5.2853680">
    <ele>45.4</ele>
    <time>2020-06-14T07:46:13Z</time>
   </trkpt>
   <trkpt lat="51.1650520" lon="5.2854680">
    <ele>45.4</ele>
    <time>2020-06-14T07:46:14Z</time>
   </trkpt>
   <trkpt lat="51.1650310" lon="5.2855720">
    <ele>45.4</ele>
    <time>2020-06-14T07:46:15Z</time>
   </trkpt>
   <trkpt lat="51.1650110" lon="5.2856780">
    <ele>45.4</ele>
    <time>2020-06-14T07:46:16Z</time>
   </trkpt>
   <trkpt lat="51.1649840" lon="5.2857910">
    <ele>45.4</ele>
    <time>2020-06-14T07:46:17Z</time>
   </trkpt>
   <trkpt lat="51.1649630" lon="5.2859030">
    <ele>45.6</ele>
    <time>2020-06-14T07:46:18Z</time>
   </trkpt>
   <trkpt lat="51.1649430" lon="5.2860110">
    <ele>45.7</ele>
    <time>2020-06-14T07:46:19Z</time>
   </trkpt>
   <trkpt lat="51.1649210" lon="5.2861150">
    <ele>45.9</ele>
    <time>2020-06-14T07:46:20Z</time>
   </trkpt>
   <trkpt lat="51.1648990" lon="5.2862250">
    <ele>45.9</ele>
    <time>2020-06-14T07:46:21Z</time>
   </trkpt>
   <trkpt lat="51.1648600" lon="5.2863330">
    <ele>45.9</ele>
    <time>2020-06-14T07:46:22Z</time>
   </trkpt>
   <trkpt lat="51.1648130" lon="5.2864320">
    <ele>45.9</ele>
    <time>2020-06-14T07:46:23Z</time>
   </trkpt>
   <trkpt lat="51.1647640" lon="5.2865210">
    <ele>45.9</ele>
    <time>2020-06-14T07:46:24Z</time>
   </trkpt>
   <trkpt lat="51.1647180" lon="5.2866110">
    <ele>45.9</ele>
    <time>2020-06-14T07:46:25Z</time>
   </trkpt>
   <trkpt lat="51.1646780" lon="5.2867060">
    <ele>45.9</ele>
    <time>2020-06-14T07:46:26Z</time>
   </trkpt>
   <trkpt lat="51.1646350" lon="5.2868030">
    <ele>46.0</ele>
    <time>2020-06-14T07:46:27Z</time>
   </trkpt>
   <trkpt lat="51.1645960" lon="5.2869090">
    <ele>46.0</ele>
    <time>2020-06-14T07:46:28Z</time>
   </trkpt>
   <trkpt lat="51.1645520" lon="5.2870020">
    <ele>46.0</ele>
    <time>2020-06-14T07:46:29Z</time>
   </trkpt>
   <trkpt lat="51.1645140" lon="5.2870930">
    <ele>46.1</ele>
    <time>2020-06-14T07:46:30Z</time>
   </trkpt>
   <trkpt lat="51.1644790" lon="5.2871760">
    <ele>46.1</ele>
    <time>2020-06-14T07:46:31Z</time>
   </trkpt>
   <trkpt lat="51.1644420" lon="5.2872640">
    <ele>46.1</ele>
    <time>2020-06-14T07:46:32Z</time>
   </trkpt>
   <trkpt lat="51.1644030" lon="5.2873480">
    <ele>46.1</ele>
    <time>2020-06-14T07:46:33Z</time>
   </trkpt>
   <trkpt lat="51.1643630" lon="5.2874330">
    <ele>46.0</ele>
    <time>2020-06-14T07:46:34Z</time>
   </trkpt>
   <trkpt lat="51.1643240" lon="5.2875190">
    <ele>46.0</ele>
    <time>2020-06-14T07:46:35Z</time>
   </trkpt>
   <trkpt lat="51.1642890" lon="5.2876130">
    <ele>46.0</ele>
    <time>2020-06-14T07:46:36Z</time>
   </trkpt>
   <trkpt lat="51.1642540" lon="5.2877060">
    <ele>46.0</ele>
    <time>2020-06-14T07:46:37Z</time>
   </trkpt>
   <trkpt lat="51.1642110" lon="5.2877950">
    <ele>46.1</ele>
    <time>2020-06-14T07:46:38Z</time>
   </trkpt>
   <trkpt lat="51.1641700" lon="5.2878900">
    <ele>46.1</ele>
    <time>2020-06-14T07:46:39Z</time>
   </trkpt>
   <trkpt lat="51.1641230" lon="5.2879860">
    <ele>46.1</ele>
    <time>2020-06-14T07:46:40Z</time>
   </trkpt>
   <trkpt lat="51.1640770" lon="5.2880860">
    <ele>46.1</ele>
    <time>2020-06-14T07:46:41Z</time>
   </trkpt>
   <trkpt lat="51.1640320" lon="5.2881860">
    <ele>46.0</ele>
    <time>2020-06-14T07:46:42Z</time>
   </trkpt>
   <trkpt lat="51.1639910" lon="5.2882940">
    <ele>46.0</ele>
    <time>2020-06-14T07:46:43Z</time>
   </trkpt>
   <trkpt lat="51.1639390" lon="5.2883990">
    <ele>46.0</ele>
    <time>2020-06-14T07:46:44Z</time>
   </trkpt>
   <trkpt lat="51.1638970" lon="5.2885040">
    <ele>46.0</ele>
    <time>2020-06-14T07:46:45Z</time>
   </trkpt>
   <trkpt lat="51.1638560" lon="5.2886050">
    <ele>46.1</ele>
    <time>2020-06-14T07:46:46Z</time>
   </trkpt>
   <trkpt lat="51.1638110" lon="5.2887000">
    <ele>46.1</ele>
    <time>2020-06-14T07:46:47Z</time>
   </trkpt>
   <trkpt lat="51.1637620" lon="5.2887870">
    <ele>46.1</ele>
    <time>2020-06-14T07:46:48Z</time>
   </trkpt>
   <trkpt lat="51.1637180" lon="5.2888770">
    <ele>46.2</ele>
    <time>2020-06-14T07:46:49Z</time>
   </trkpt>
   <trkpt lat="51.1636720" lon="5.2889610">
    <ele>46.3</ele>
    <time>2020-06-14T07:46:50Z</time>
   </trkpt>
   <trkpt lat="51.1636270" lon="5.2890440">
    <ele>46.4</ele>
    <time>2020-06-14T07:46:51Z</time>
   </trkpt>
   <trkpt lat="51.1635840" lon="5.2891230">
    <ele>46.5</ele>
    <time>2020-06-14T07:46:52Z</time>
   </trkpt>
   <trkpt lat="51.1635400" lon="5.2892020">
    <ele>46.5</ele>
    <time>2020-06-14T07:46:53Z</time>
   </trkpt>
   <trkpt lat="51.1635030" lon="5.2892840">
    <ele>46.5</ele>
    <time>2020-06-14T07:46:54Z</time>
   </trkpt>
   <trkpt lat="51.1634620" lon="5.2893590">
    <ele>46.5</ele>
    <time>2020-06-14T07:46:55Z</time>
   </trkpt>
   <trkpt lat="51.1634240" lon="5.2894370">
    <ele>46.5</ele>
    <time>2020-06-14T07:46:56Z</time>
   </trkpt>
   <trkpt lat="51.1633780" lon="5.2895060">
    <ele>46.5</ele>
    <time>2020-06-14T07:46:57Z</time>
   </trkpt>
   <trkpt lat="51.1633400" lon="5.2895840">
    <ele>46.5</ele>
    <time>2020-06-14T07:46:58Z</time>
   </trkpt>
   <trkpt lat="51.1633020" lon="5.2896680">
    <ele>46.6</ele>
    <time>2020-06-14T07:46:59Z</time>
   </trkpt>
   <trkpt lat="51.1632610" lon="5.2897570">
    <ele>46.7</ele>
    <time>2020-06-14T07:47:00Z</time>
   </trkpt>
   <trkpt lat="51.1632150" lon="5.2898460">
    <ele>46.6</ele>
    <time>2020-06-14T07:47:01Z</time>
   </trkpt>
   <trkpt lat="51.1631690" lon="5.2899430">
    <ele>46.6</ele>
    <time>2020-06-14T07:47:02Z</time>
   </trkpt>
   <trkpt lat="51.1631220" lon="5.2900410">
    <ele>46.6</ele>
    <time>2020-06-14T07:47:03Z</time>
   </trkpt>
   <trkpt lat="51.1630780" lon="5.2901400">
    <ele>46.7</ele>
    <time>2020-06-14T07:47:04Z</time>
   </trkpt>
   <trkpt lat="51.1630300" lon="5.2902380">
    <ele>46.7</ele>
    <time>2020-06-14T07:47:05Z</time>
   </trkpt>
   <trkpt lat="51.1629870" lon="5.2903370">
    <ele>46.7</ele>
    <time>2020-06-14T07:47:06Z</time>
   </trkpt>
   <trkpt lat="51.1629420" lon="5.2904310">
    <ele>46.7</ele>
    <time>2020-06-14T07:47:07Z</time>
   </trkpt>
   <trkpt lat="51.1629040" lon="5.2905280">
    <ele>46.6</ele>
    <time>2020-06-14T07:47:08Z</time>
   </trkpt>
   <trkpt lat="51.1628640" lon="5.2906220">
    <ele>46.6</ele>
    <time>2020-06-14T07:47:09Z</time>
   </trkpt>
   <trkpt lat="51.1628230" lon="5.2907170">
    <ele>46.6</ele>
    <time>2020-06-14T07:47:10Z</time>
   </trkpt>
   <trkpt lat="51.1627790" lon="5.2908090">
    <ele>46.6</ele>
    <time>2020-06-14T07:47:11Z</time>
   </trkpt>
   <trkpt lat="51.1627380" lon="5.2909050">
    <ele>46.5</ele>
    <time>2020-06-14T07:47:12Z</time>
   </trkpt>
   <trkpt lat="51.1626960" lon="5.2909960">
    <ele>46.5</ele>
    <time>2020-06-14T07:47:13Z</time>
   </trkpt>
   <trkpt lat="51.1626540" lon="5.2910860">
    <ele>46.5</ele>
    <time>2020-06-14T07:47:14Z</time>
   </trkpt>
   <trkpt lat="51.1626090" lon="5.2911660">
    <ele>46.5</ele>
    <time>2020-06-14T07:47:15Z</time>
   </trkpt>
   <trkpt lat="51.1625660" lon="5.2912530">
    <ele>46.6</ele>
    <time>2020-06-14T07:47:16Z</time>
   </trkpt>
   <trkpt lat="51.1625210" lon="5.2913380">
    <ele>46.6</ele>
    <time>2020-06-14T07:47:17Z</time>
   </trkpt>
   <trkpt lat="51.1624800" lon="5.2914280">
    <ele>46.6</ele>
    <time>2020-06-14T07:47:18Z</time>
   </trkpt>
   <trkpt lat="51.1624340" lon="5.2915170">
    <ele>46.6</ele>
    <time>2020-06-14T07:47:19Z</time>
   </trkpt>
   <trkpt lat="51.1623870" lon="5.2916110">
    <ele>46.6</ele>
    <time>2020-06-14T07:47:20Z</time>
   </trkpt>
   <trkpt lat="51.1623400" lon="5.2917080">
    <ele>46.6</ele>
    <time>2020-06-14T07:47:21Z</time>
   </trkpt>
   <trkpt lat="51.1622970" lon="5.2918120">
    <ele>46.6</ele>
    <time>2020-06-14T07:47:22Z</time>
   </trkpt>
   <trkpt lat="51.1622490" lon="5.2919080">
    <ele>46.6</ele>
    <time>2020-06-14T07:47:23Z</time>
   </trkpt>
   <trkpt lat="51.1622060" lon="5.2920080">
    <ele>46.6</ele>
    <time>2020-06-14T07:47:24Z</time>
   </trkpt>
   <trkpt lat="51.1621610" lon="5.2921020">
    <ele>46.6</ele>
    <time>2020-06-14T07:47:25Z</time>
   </trkpt>
   <trkpt lat="51.1621180" lon="5.2921990">
    <ele>46.6</ele>
    <time>2020-06-14T07:47:26Z</time>
   </trkpt>
   <trkpt lat="51.1620730" lon="5.2922930">
    <ele>46.6</ele>
    <time>2020-06-14T07:47:27Z</time>
   </trkpt>
   <trkpt lat="51.1620280" lon="5.2923840">
    <ele>46.7</ele>
    <time>2020-06-14T07:47:28Z</time>
   </trkpt>
   <trkpt lat="51.1619890" lon="5.2924770">
    <ele>46.7</ele>
    <time>2020-06-14T07:47:29Z</time>
   </trkpt>
   <trkpt lat="51.1619480" lon="5.2925680">
    <ele>46.8</ele>
    <time>2020-06-14T07:47:30Z</time>
   </trkpt>
   <trkpt lat="51.1619080" lon="5.2926580">
    <ele>46.8</ele>
    <time>2020-06-14T07:47:31Z</time>
   </trkpt>
   <trkpt lat="51.1618640" lon="5.2927430">
    <ele>46.8</ele>
    <time>2020-06-14T07:47:32Z</time>
   </trkpt>
   <trkpt lat="51.1618230" lon="5.2928310">
    <ele>46.9</ele>
    <time>2020-06-14T07:47:33Z</time>
   </trkpt>
   <trkpt lat="51.1617850" lon="5.2929160">
    <ele>47.0</ele>
    <time>2020-06-14T07:47:34Z</time>
   </trkpt>
   <trkpt lat="51.1617480" lon="5.2930010">
    <ele>47.0</ele>
    <time>2020-06-14T07:47:35Z</time>
   </trkpt>
   <trkpt lat="51.1617100" lon="5.2930870">
    <ele>47.2</ele>
    <time>2020-06-14T07:47:36Z</time>
   </trkpt>
   <trkpt lat="51.1616700" lon="5.2931680">
    <ele>47.3</ele>
    <time>2020-06-14T07:47:37Z</time>
   </trkpt>
   <trkpt lat="51.1616310" lon="5.2932490">
    <ele>47.4</ele>
    <time>2020-06-14T07:47:38Z</time>
   </trkpt>
   <trkpt lat="51.1615930" lon="5.2933330">
    <ele>47.4</ele>
    <time>2020-06-14T07:47:39Z</time>
   </trkpt>
   <trkpt lat="51.1615510" lon="5.2934190">
    <ele>47.3</ele>
    <time>2020-06-14T07:47:40Z</time>
   </trkpt>
   <trkpt lat="51.1615100" lon="5.2935120">
    <ele>47.3</ele>
    <time>2020-06-14T07:47:41Z</time>
   </trkpt>
   <trkpt lat="51.1614680" lon="5.2936040">
    <ele>47.3</ele>
    <time>2020-06-14T07:47:42Z</time>
   </trkpt>
   <trkpt lat="51.1614290" lon="5.2936990">
    <ele>47.3</ele>
    <time>2020-06-14T07:47:43Z</time>
   </trkpt>
   <trkpt lat="51.1613940" lon="5.2937910">
    <ele>47.3</ele>
    <time>2020-06-14T07:47:44Z</time>
   </trkpt>
   <trkpt lat="51.1613550" lon="5.2938770">
    <ele>47.4</ele>
    <time>2020-06-14T07:47:45Z</time>
   </trkpt>
   <trkpt lat="51.1613210" lon="5.2939640">
    <ele>47.4</ele>
    <time>2020-06-14T07:47:46Z</time>
   </trkpt>
   <trkpt lat="51.1612910" lon="5.2940480">
    <ele>47.5</ele>
    <time>2020-06-14T07:47:47Z</time>
   </trkpt>
   <trkpt lat="51.1612590" lon="5.2941320">
    <ele>47.5</ele>
    <time>2020-06-14T07:47:48Z</time>
   </trkpt>
   <trkpt lat="51.1612250" lon="5.2942150">
    <ele>47.5</ele>
    <time>2020-06-14T07:47:49Z</time>
   </trkpt>
   <trkpt lat="51.1611890" lon="5.2942990">
    <ele>47.4</ele>
    <time>2020-06-14T07:47:50Z</time>
   </trkpt>
   <trkpt lat="51.1611520" lon="5.2943800">
    <ele>47.4</ele>
    <time>2020-06-14T07:47:51Z</time>
   </trkpt>
   <trkpt lat="51.1611140" lon="5.2944610">
    <ele>47.4</ele>
    <time>2020-06-14T07:47:52Z</time>
   </trkpt>
   <trkpt lat="51.1610730" lon="5.2945400">
    <ele>47.4</ele>
    <time>2020-06-14T07:47:53Z</time>
   </trkpt>
   <trkpt lat="51.1610350" lon="5.2946220">
    <ele>47.4</ele>
    <time>2020-06-14T07:47:54Z</time>
   </trkpt>
   <trkpt lat="51.1609900" lon="5.2946980">
    <ele>47.3</ele>
    <time>2020-06-14T07:47:55Z</time>
   </trkpt>
   <trkpt lat="51.1609480" lon="5.2947780">
    <ele>47.3</ele>
    <time>2020-06-14T07:47:56Z</time>
   </trkpt>
   <trkpt lat="51.1609060" lon="5.2948620">
    <ele>47.3</ele>
    <time>2020-06-14T07:47:57Z</time>
   </trkpt>
   <trkpt lat="51.1608650" lon="5.2949490">
    <ele>47.2</ele>
    <time>2020-06-14T07:47:58Z</time>
   </trkpt>
   <trkpt lat="51.1608200" lon="5.2950380">
    <ele>47.2</ele>
    <time>2020-06-14T07:47:59Z</time>
   </trkpt>
   <trkpt lat="51.1607750" lon="5.2951260">
    <ele>47.4</ele>
    <time>2020-06-14T07:48:00Z</time>
   </trkpt>
   <trkpt lat="51.1607260" lon="5.2952070">
    <ele>47.5</ele>
    <time>2020-06-14T07:48:01Z</time>
   </trkpt>
   <trkpt lat="51.1606760" lon="5.2952920">
    <ele>47.6</ele>
    <time>2020-06-14T07:48:02Z</time>
   </trkpt>
   <trkpt lat="51.1606290" lon="5.2953840">
    <ele>47.7</ele>
    <time>2020-06-14T07:48:03Z</time>
   </trkpt>
   <trkpt lat="51.1605830" lon="5.2954780">
    <ele>47.7</ele>
    <time>2020-06-14T07:48:04Z</time>
   </trkpt>
   <trkpt lat="51.1605370" lon="5.2955660">
    <ele>47.7</ele>
    <time>2020-06-14T07:48:05Z</time>
   </trkpt>
   <trkpt lat="51.1604890" lon="5.2956510">
    <ele>47.8</ele>
    <time>2020-06-14T07:48:06Z</time>
   </trkpt>
   <trkpt lat="51.1604430" lon="5.2957360">
    <ele>47.8</ele>
    <time>2020-06-14T07:48:07Z</time>
   </trkpt>
   <trkpt lat="51.1604040" lon="5.2958250">
    <ele>47.9</ele>
    <time>2020-06-14T07:48:08Z</time>
   </trkpt>
   <trkpt lat="51.1603630" lon="5.2959070">
    <ele>48.0</ele>
    <time>2020-06-14T07:48:09Z</time>
   </trkpt>
   <trkpt lat="51.1603240" lon="5.2959920">
    <ele>48.0</ele>
    <time>2020-06-14T07:48:10Z</time>
   </trkpt>
   <trkpt lat="51.1602800" lon="5.2960710">
    <ele>48.1</ele>
    <time>2020-06-14T07:48:11Z</time>
   </trkpt>
   <trkpt lat="51.1602350" lon="5.2961510">
    <ele>48.2</ele>
    <time>2020-06-14T07:48:12Z</time>
   </trkpt>
   <trkpt lat="51.1601920" lon="5.2962330">
    <ele>48.3</ele>
    <time>2020-06-14T07:48:13Z</time>
   </trkpt>
   <trkpt lat="51.1601490" lon="5.2963170">
    <ele>48.3</ele>
    <time>2020-06-14T07:48:14Z</time>
   </trkpt>
   <trkpt lat="51.1600460" lon="5.2964720">
    <ele>48.4</ele>
    <time>2020-06-14T07:48:15Z</time>
   </trkpt>
   <trkpt lat="51.1599890" lon="5.2965440">
    <ele>48.4</ele>
    <time>2020-06-14T07:48:16Z</time>
   </trkpt>
   <trkpt lat="51.1599460" lon="5.2966300">
    <ele>48.5</ele>
    <time>2020-06-14T07:48:17Z</time>
   </trkpt>
   <trkpt lat="51.1599050" lon="5.2967180">
    <ele>48.5</ele>
    <time>2020-06-14T07:48:18Z</time>
   </trkpt>
   <trkpt lat="51.1598620" lon="5.2968070">
    <ele>48.6</ele>
    <time>2020-06-14T07:48:19Z</time>
   </trkpt>
   <trkpt lat="51.1598210" lon="5.2968990">
    <ele>48.6</ele>
    <time>2020-06-14T07:48:20Z</time>
   </trkpt>
   <trkpt lat="51.1597770" lon="5.2969880">
    <ele>48.7</ele>
    <time>2020-06-14T07:48:21Z</time>
   </trkpt>
   <trkpt lat="51.1597310" lon="5.2970760">
    <ele>48.7</ele>
    <time>2020-06-14T07:48:22Z</time>
   </trkpt>
   <trkpt lat="51.1596830" lon="5.2971620">
    <ele>48.9</ele>
    <time>2020-06-14T07:48:23Z</time>
   </trkpt>
   <trkpt lat="51.1596380" lon="5.2972520">
    <ele>49.0</ele>
    <time>2020-06-14T07:48:24Z</time>
   </trkpt>
   <trkpt lat="51.1595870" lon="5.2973390">
    <ele>49.1</ele>
    <time>2020-06-14T07:48:25Z</time>
   </trkpt>
   <trkpt lat="51.1595380" lon="5.2974310">
    <ele>49.2</ele>
    <time>2020-06-14T07:48:26Z</time>
   </trkpt>
   <trkpt lat="51.1594870" lon="5.2975180">
    <ele>49.3</ele>
    <time>2020-06-14T07:48:27Z</time>
   </trkpt>
   <trkpt lat="51.1594390" lon="5.2976060">
    <ele>49.4</ele>
    <time>2020-06-14T07:48:28Z</time>
   </trkpt>
   <trkpt lat="51.1593940" lon="5.2976960">
    <ele>49.5</ele>
    <time>2020-06-14T07:48:29Z</time>
   </trkpt>
   <trkpt lat="51.1593500" lon="5.2977870">
    <ele>49.6</ele>
    <time>2020-06-14T07:48:30Z</time>
   </trkpt>
   <trkpt lat="51.1593050" lon="5.2978730">
    <ele>49.6</ele>
    <time>2020-06-14T07:48:31Z</time>
   </trkpt>
   <trkpt lat="51.1592640" lon="5.2979610">
    <ele>49.6</ele>
    <time>2020-06-14T07:48:32Z</time>
   </trkpt>
   <trkpt lat="51.1592190" lon="5.2980470">
    <ele>49.7</ele>
    <time>2020-06-14T07:48:33Z</time>
   </trkpt>
   <trkpt lat="51.1591760" lon="5.2981330">
    <ele>49.7</ele>
    <time>2020-06-14T07:48:34Z</time>
   </trkpt>
   <trkpt lat="51.1591330" lon="5.2982170">
    <ele>49.7</ele>
    <time>2020-06-14T07:48:35Z</time>
   </trkpt>
   <trkpt lat="51.1590900" lon="5.2983010">
    <ele>49.7</ele>
    <time>2020-06-14T07:48:36Z</time>
   </trkpt>
   <trkpt lat="51.1590490" lon="5.2983870">
    <ele>49.8</ele>
    <time>2020-06-14T07:48:37Z</time>
   </trkpt>
   <trkpt lat="51.1590090" lon="5.2984770">
    <ele>49.8</ele>
    <time>2020-06-14T07:48:38Z</time>
   </trkpt>
   <trkpt lat="51.1589720" lon="5.2985710">
    <ele>49.7</ele>
    <time>2020-06-14T07:48:39Z</time>
   </trkpt>
   <trkpt lat="51.1589370" lon="5.2986660">
    <ele>49.7</ele>
    <time>2020-06-14T07:48:40Z</time>
   </trkpt>
   <trkpt lat="51.1588980" lon="5.2987590">
    <ele>49.7</ele>
    <time>2020-06-14T07:48:41Z</time>
   </trkpt>
   <trkpt lat="51.1588670" lon="5.2988590">
    <ele>49.8</ele>
    <time>2020-06-14T07:48:42Z</time>
   </trkpt>
   <trkpt lat="51.1588370" lon="5.2989620">
    <ele>49.8</ele>
    <time>2020-06-14T07:48:43Z</time>
   </trkpt>
   <trkpt lat="51.1588050" lon="5.2990640">
    <ele>49.8</ele>
    <time>2020-06-14T07:48:44Z</time>
   </trkpt>
   <trkpt lat="51.1587710" lon="5.2991650">
    <ele>49.9</ele>
    <time>2020-06-14T07:48:45Z</time>
   </trkpt>
   <trkpt lat="51.1587380" lon="5.2992700">
    <ele>49.9</ele>
    <time>2020-06-14T07:48:46Z</time>
   </trkpt>
   <trkpt lat="51.1587040" lon="5.2993760">
    <ele>49.9</ele>
    <time>2020-06-14T07:48:47Z</time>
   </trkpt>
   <trkpt lat="51.1586790" lon="5.2994880">
    <ele>50.0</ele>
    <time>2020-06-14T07:48:48Z</time>
   </trkpt>
   <trkpt lat="51.1586560" lon="5.2995980">
    <ele>50.0</ele>
    <time>2020-06-14T07:48:49Z</time>
   </trkpt>
   <trkpt lat="51.1586340" lon="5.2997060">
    <ele>50.0</ele>
    <time>2020-06-14T07:48:50Z</time>
   </trkpt>
   <trkpt lat="51.1586150" lon="5.2998120">
    <ele>50.0</ele>
    <time>2020-06-14T07:48:51Z</time>
   </trkpt>
   <trkpt lat="51.1586000" lon="5.2999190">
    <ele>50.1</ele>
    <time>2020-06-14T07:48:52Z</time>
   </trkpt>
   <trkpt lat="51.1585840" lon="5.3000200">
    <ele>50.1</ele>
    <time>2020-06-14T07:48:53Z</time>
   </trkpt>
   <trkpt lat="51.1585730" lon="5.3001180">
    <ele>50.1</ele>
    <time>2020-06-14T07:48:54Z</time>
   </trkpt>
   <trkpt lat="51.1585690" lon="5.3002160">
    <ele>50.2</ele>
    <time>2020-06-14T07:48:55Z</time>
   </trkpt>
   <trkpt lat="51.1586160" lon="5.3003120">
    <ele>50.2</ele>
    <time>2020-06-14T07:48:56Z</time>
   </trkpt>
   <trkpt lat="51.1586120" lon="5.3003890">
    <ele>50.3</ele>
    <time>2020-06-14T07:48:57Z</time>
   </trkpt>
   <trkpt lat="51.1586030" lon="5.3004550">
    <ele>50.3</ele>
    <time>2020-06-14T07:48:58Z</time>
   </trkpt>
   <trkpt lat="51.1585970" lon="5.3005160">
    <ele>50.3</ele>
    <time>2020-06-14T07:48:59Z</time>
   </trkpt>
   <trkpt lat="51.1585930" lon="5.3005780">
    <ele>50.4</ele>
    <time>2020-06-14T07:49:00Z</time>
   </trkpt>
   <trkpt lat="51.1585900" lon="5.3006260">
    <ele>50.4</ele>
    <time>2020-06-14T07:49:01Z</time>
   </trkpt>
   <trkpt lat="51.1585900" lon="5.3006590">
    <ele>50.4</ele>
    <time>2020-06-14T07:49:02Z</time>
   </trkpt>
   <trkpt lat="51.1585890" lon="5.3006810">
    <ele>50.4</ele>
    <time>2020-06-14T07:49:03Z</time>
   </trkpt>
   <trkpt lat="51.1585900" lon="5.3007140">
    <ele>50.4</ele>
    <time>2020-06-14T07:49:04Z</time>
   </trkpt>
   <trkpt lat="51.1585950" lon="5.3007310">
    <ele>50.4</ele>
    <time>2020-06-14T07:49:05Z</time>
   </trkpt>
   <trkpt lat="51.1585990" lon="5.3007480">
    <ele>50.5</ele>
    <time>2020-06-14T07:49:06Z</time>
   </trkpt>
   <trkpt lat="51.1585990" lon="5.3007710">
    <ele>50.5</ele>
    <time>2020-06-14T07:49:07Z</time>
   </trkpt>
   <trkpt lat="51.1585960" lon="5.3007880">
    <ele>50.5</ele>
    <time>2020-06-14T07:49:08Z</time>
   </trkpt>
   <trkpt lat="51.1585930" lon="5.3008010">
    <ele>50.5</ele>
    <time>2020-06-14T07:49:09Z</time>
   </trkpt>
   <trkpt lat="51.1585930" lon="5.3008160">
    <ele>50.5</ele>
    <time>2020-06-14T07:49:10Z</time>
   </trkpt>
   <trkpt lat="51.1585910" lon="5.3008300">
    <ele>50.5</ele>
    <time>2020-06-14T07:49:11Z</time>
   </trkpt>
   <trkpt lat="51.1585900" lon="5.3008430">
    <ele>50.5</ele>
    <time>2020-06-14T07:49:12Z</time>
   </trkpt>
   <trkpt lat="51.1585870" lon="5.3008490">
    <ele>50.5</ele>
    <time>2020-06-14T07:49:13Z</time>
   </trkpt>
   <trkpt lat="51.1585890" lon="5.3008520">
    <ele>50.5</ele>
    <time>2020-06-14T07:49:14Z</time>
   </trkpt>
   <trkpt lat="51.1585890" lon="5.3008580">
    <ele>50.5</ele>
    <time>2020-06-14T07:49:15Z</time>
   </trkpt>
   <trkpt lat="51.1585890" lon="5.3008610">
    <ele>50.5</ele>
    <time>2020-06-14T07:49:16Z</time>
   </trkpt>
   <trkpt lat="51.1585890" lon="5.3008610">
    <ele>50.5</ele>
    <time>2020-06-14T07:49:17Z</time>
   </trkpt>
   <trkpt lat="51.1585890" lon="5.3008620">
    <ele>50.5</ele>
    <time>2020-06-14T07:49:18Z</time>
   </trkpt>
   <trkpt lat="51.1585890" lon="5.3008620">
    <ele>50.5</ele>
    <time>2020-06-14T07:49:19Z</time>
   </trkpt>
   <trkpt lat="51.1585890" lon="5.3008620">
    <ele>50.5</ele>
    <time>2020-06-14T07:49:20Z</time>
   </trkpt>
   <trkpt lat="51.1585890" lon="5.3008680">
    <ele>50.5</ele>
    <time>2020-06-14T07:49:21Z</time>
   </trkpt>
   <trkpt lat="51.1585890" lon="5.3008700">
    <ele>50.5</ele>
    <time>2020-06-14T07:49:22Z</time>
   </trkpt>
   <trkpt lat="51.1585880" lon="5.3008680">
    <ele>50.5</ele>
    <time>2020-06-14T07:49:23Z</time>
   </trkpt>
   <trkpt lat="51.1585880" lon="5.3008680">
    <ele>50.5</ele>
    <time>2020-06-14T07:49:24Z</time>
   </trkpt>
   <trkpt lat="51.1585850" lon="5.3008710">
    <ele>50.5</ele>
    <time>2020-06-14T07:49:25Z</time>
   </trkpt>
   <trkpt lat="51.1585840" lon="5.3008790">
    <ele>50.5</ele>
    <time>2020-06-14T07:49:26Z</time>
   </trkpt>
   <trkpt lat="51.1585900" lon="5.3009140">
    <ele>50.5</ele>
    <time>2020-06-14T07:50:24Z</time>
   </trkpt>
   <trkpt lat="51.1585900" lon="5.3009290">
    <ele>50.5</ele>
    <time>2020-06-14T07:50:25Z</time>
   </trkpt>
   <trkpt lat="51.1585880" lon="5.3009310">
    <ele>50.5</ele>
    <time>2020-06-14T07:50:26Z</time>
   </trkpt>
   <trkpt lat="51.1585870" lon="5.3009310">
    <ele>50.5</ele>
    <time>2020-06-14T07:50:27Z</time>
   </trkpt>
   <trkpt lat="51.1585860" lon="5.3009350">
    <ele>50.5</ele>
    <time>2020-06-14T07:50:28Z</time>
   </trkpt>
   <trkpt lat="51.1585870" lon="5.3009410">
    <ele>50.5</ele>
    <time>2020-06-14T07:50:29Z</time>
   </trkpt>
   <trkpt lat="51.1585870" lon="5.3009490">
    <ele>50.5</ele>
    <time>2020-06-14T07:50:30Z</time>
   </trkpt>
   <trkpt lat="51.1585870" lon="5.3009550">
    <ele>50.5</ele>
    <time>2020-06-14T07:50:31Z</time>
   </trkpt>
   <trkpt lat="51.1585860" lon="5.3009560">
    <ele>50.5</ele>
    <time>2020-06-14T07:50:32Z</time>
   </trkpt>
   <trkpt lat="51.1585870" lon="5.3009660">
    <ele>50.5</ele>
    <time>2020-06-14T07:50:33Z</time>
   </trkpt>
   <trkpt lat="51.1585900" lon="5.3009700">
    <ele>50.5</ele>
    <time>2020-06-14T07:50:34Z</time>
   </trkpt>
   <trkpt lat="51.1585990" lon="5.3009820">
    <ele>50.5</ele>
    <time>2020-06-14T07:50:35Z</time>
   </trkpt>
   <trkpt lat="51.1586110" lon="5.3010070">
    <ele>50.5</ele>
    <time>2020-06-14T07:50:36Z</time>
   </trkpt>
   <trkpt lat="51.1586170" lon="5.3010210">
    <ele>50.5</ele>
    <time>2020-06-14T07:50:37Z</time>
   </trkpt>
   <trkpt lat="51.1586210" lon="5.3010230">
    <ele>50.5</ele>
    <time>2020-06-14T07:50:38Z</time>
   </trkpt>
   <trkpt lat="51.1586290" lon="5.3010270">
    <ele>50.5</ele>
    <time>2020-06-14T07:50:39Z</time>
   </trkpt>
   <trkpt lat="51.1586380" lon="5.3010320">
    <ele>50.5</ele>
    <time>2020-06-14T07:50:40Z</time>
   </trkpt>
   <trkpt lat="51.1586510" lon="5.3010360">
    <ele>50.5</ele>
    <time>2020-06-14T07:50:41Z</time>
   </trkpt>
   <trkpt lat="51.1586700" lon="5.3010520">
    <ele>50.5</ele>
    <time>2020-06-14T07:50:42Z</time>
   </trkpt>
   <trkpt lat="51.1586780" lon="5.3010590">
    <ele>50.6</ele>
    <time>2020-06-14T07:50:43Z</time>
   </trkpt>
   <trkpt lat="51.1586870" lon="5.3010670">
    <ele>50.6</ele>
    <time>2020-06-14T07:50:44Z</time>
   </trkpt>
   <trkpt lat="51.1587000" lon="5.3010770">
    <ele>50.6</ele>
    <time>2020-06-14T07:50:45Z</time>
   </trkpt>
   <trkpt lat="51.1587070" lon="5.3010850">
    <ele>50.6</ele>
    <time>2020-06-14T07:50:46Z</time>
   </trkpt>
   <trkpt lat="51.1587170" lon="5.3010960">
    <ele>50.6</ele>
    <time>2020-06-14T07:50:47Z</time>
   </trkpt>
   <trkpt lat="51.1587260" lon="5.3011080">
    <ele>50.6</ele>
    <time>2020-06-14T07:50:48Z</time>
   </trkpt>
   <trkpt lat="51.1587300" lon="5.3011140">
    <ele>50.6</ele>
    <time>2020-06-14T07:50:49Z</time>
   </trkpt>
   <trkpt lat="51.1587380" lon="5.3011230">
    <ele>50.6</ele>
    <time>2020-06-14T07:50:50Z</time>
   </trkpt>
   <trkpt lat="51.1587420" lon="5.3011300">
    <ele>50.6</ele>
    <time>2020-06-14T07:50:51Z</time>
   </trkpt>
   <trkpt lat="51.1587490" lon="5.3011370">
    <ele>50.6</ele>
    <time>2020-06-14T07:50:52Z</time>
   </trkpt>
   <trkpt lat="51.1587570" lon="5.3011380">
    <ele>50.6</ele>
    <time>2020-06-14T07:50:53Z</time>
   </trkpt>
   <trkpt lat="51.1587610" lon="5.3011470">
    <ele>50.6</ele>
    <time>2020-06-14T07:50:54Z</time>
   </trkpt>
   <trkpt lat="51.1587610" lon="5.3011480">
    <ele>50.6</ele>
    <time>2020-06-14T07:50:55Z</time>
   </trkpt>
   <trkpt lat="51.1587620" lon="5.3011510">
    <ele>50.6</ele>
    <time>2020-06-14T07:50:56Z</time>
   </trkpt>
   <trkpt lat="51.1587640" lon="5.3011560">
    <ele>50.6</ele>
    <time>2020-06-14T07:50:57Z</time>
   </trkpt>
   <trkpt lat="51.1587670" lon="5.3011630">
    <ele>50.6</ele>
    <time>2020-06-14T07:50:58Z</time>
   </trkpt>
   <trkpt lat="51.1587710" lon="5.3011600">
    <ele>50.6</ele>
    <time>2020-06-14T07:50:59Z</time>
   </trkpt>
   <trkpt lat="51.1587730" lon="5.3011580">
    <ele>50.6</ele>
    <time>2020-06-14T07:51:00Z</time>
   </trkpt>
   <trkpt lat="51.1587730" lon="5.3011570">
    <ele>50.6</ele>
    <time>2020-06-14T07:51:01Z</time>
   </trkpt>
   <trkpt lat="51.1587730" lon="5.3011570">
    <ele>50.6</ele>
    <time>2020-06-14T07:51:02Z</time>
   </trkpt>
   <trkpt lat="51.1587760" lon="5.3011600">
    <ele>50.6</ele>
    <time>2020-06-14T07:51:03Z</time>
   </trkpt>
   <trkpt lat="51.1587760" lon="5.3011600">
    <ele>50.6</ele>
    <time>2020-06-14T07:51:04Z</time>
   </trkpt>
   <trkpt lat="51.1587760" lon="5.3011600">
    <ele>50.6</ele>
    <time>2020-06-14T07:51:05Z</time>
   </trkpt>
   <trkpt lat="51.1587780" lon="5.3011620">
    <ele>50.6</ele>
    <time>2020-06-14T07:51:06Z</time>
   </trkpt>
   <trkpt lat="51.1587770" lon="5.3011630">
    <ele>50.6</ele>
    <time>2020-06-14T07:51:07Z</time>
   </trkpt>
   <trkpt lat="51.1587770" lon="5.3011630">
    <ele>50.6</ele>
    <time>2020-06-14T07:51:08Z</time>
   </trkpt>
   <trkpt lat="51.1587770" lon="5.3011630">
    <ele>50.6</ele>
    <time>2020-06-14T07:51:09Z</time>
   </trkpt>
   <trkpt lat="51.1587770" lon="5.3011630">
    <ele>50.6</ele>
    <time>2020-06-14T07:51:10Z</time>
   </trkpt>
   <trkpt lat="51.1587770" lon="5.3011630">
    <ele>50.6</ele>
    <time>2020-06-14T07:51:11Z</time>
   </trkpt>
   <trkpt lat="51.1587760" lon="5.3011630">
    <ele>50.6</ele>
    <time>2020-06-14T07:51:12Z</time>
   </trkpt>
   <trkpt lat="51.1587760" lon="5.3011630">
    <ele>50.6</ele>
    <time>2020-06-14T07:51:13Z</time>
   </trkpt>
   <trkpt lat="51.1586840" lon="5.3011480">
    <ele>50.6</ele>
    <time>2020-06-14T07:52:26Z</time>
   </trkpt>
   <trkpt lat="51.1586800" lon="5.3011450">
    <ele>50.6</ele>
    <time>2020-06-14T07:52:27Z</time>
   </trkpt>
   <trkpt lat="51.1586680" lon="5.3011190">
    <ele>50.6</ele>
    <time>2020-06-14T07:52:28Z</time>
   </trkpt>
   <trkpt lat="51.1586610" lon="5.3010990">
    <ele>50.6</ele>
    <time>2020-06-14T07:52:29Z</time>
   </trkpt>
   <trkpt lat="51.1586540" lon="5.3010920">
    <ele>50.6</ele>
    <time>2020-06-14T07:52:30Z</time>
   </trkpt>
   <trkpt lat="51.1586520" lon="5.3010910">
    <ele>50.6</ele>
    <time>2020-06-14T07:52:31Z</time>
   </trkpt>
   <trkpt lat="51.1586470" lon="5.3010860">
    <ele>50.6</ele>
    <time>2020-06-14T07:52:32Z</time>
   </trkpt>
   <trkpt lat="51.1586410" lon="5.3010780">
    <ele>50.6</ele>
    <time>2020-06-14T07:52:33Z</time>
   </trkpt>
   <trkpt lat="51.1586400" lon="5.3010800">
    <ele>50.6</ele>
    <time>2020-06-14T07:52:34Z</time>
   </trkpt>
   <trkpt lat="51.1586380" lon="5.3010740">
    <ele>50.6</ele>
    <time>2020-06-14T07:52:35Z</time>
   </trkpt>
   <trkpt lat="51.1586370" lon="5.3010720">
    <ele>50.6</ele>
    <time>2020-06-14T07:52:36Z</time>
   </trkpt>
   <trkpt lat="51.1586320" lon="5.3010670">
    <ele>50.6</ele>
    <time>2020-06-14T07:52:37Z</time>
   </trkpt>
   <trkpt lat="51.1586240" lon="5.3010520">
    <ele>50.6</ele>
    <time>2020-06-14T07:52:38Z</time>
   </trkpt>
   <trkpt lat="51.1586180" lon="5.3010400">
    <ele>50.6</ele>
    <time>2020-06-14T07:52:39Z</time>
   </trkpt>
   <trkpt lat="51.1586120" lon="5.3010290">
    <ele>50.6</ele>
    <time>2020-06-14T07:52:40Z</time>
   </trkpt>
   <trkpt lat="51.1586060" lon="5.3010180">
    <ele>50.5</ele>
    <time>2020-06-14T07:52:41Z</time>
   </trkpt>
   <trkpt lat="51.1586000" lon="5.3010070">
    <ele>50.5</ele>
    <time>2020-06-14T07:52:42Z</time>
   </trkpt>
   <trkpt lat="51.1585950" lon="5.3009980">
    <ele>50.5</ele>
    <time>2020-06-14T07:52:43Z</time>
   </trkpt>
   <trkpt lat="51.1585870" lon="5.3009850">
    <ele>50.5</ele>
    <time>2020-06-14T07:52:44Z</time>
   </trkpt>
   <trkpt lat="51.1585820" lon="5.3009710">
    <ele>50.5</ele>
    <time>2020-06-14T07:52:45Z</time>
   </trkpt>
   <trkpt lat="51.1585750" lon="5.3009590">
    <ele>50.5</ele>
    <time>2020-06-14T07:52:46Z</time>
   </trkpt>
   <trkpt lat="51.1585680" lon="5.3009530">
    <ele>50.5</ele>
    <time>2020-06-14T07:52:47Z</time>
   </trkpt>
   <trkpt lat="51.1585580" lon="5.3009370">
    <ele>50.5</ele>
    <time>2020-06-14T07:52:48Z</time>
   </trkpt>
   <trkpt lat="51.1585560" lon="5.3009140">
    <ele>50.5</ele>
    <time>2020-06-14T07:52:49Z</time>
   </trkpt>
   <trkpt lat="51.1585580" lon="5.3009040">
    <ele>50.5</ele>
    <time>2020-06-14T07:52:50Z</time>
   </trkpt>
   <trkpt lat="51.1585600" lon="5.3008950">
    <ele>50.5</ele>
    <time>2020-06-14T07:52:51Z</time>
   </trkpt>
   <trkpt lat="51.1585620" lon="5.3008850">
    <ele>50.5</ele>
    <time>2020-06-14T07:52:52Z</time>
   </trkpt>
   <trkpt lat="51.1585640" lon="5.3008760">
    <ele>50.5</ele>
    <time>2020-06-14T07:52:53Z</time>
   </trkpt>
   <trkpt lat="51.1585710" lon="5.3008570">
    <ele>50.5</ele>
    <time>2020-06-14T07:52:54Z</time>
   </trkpt>
   <trkpt lat="51.1585780" lon="5.3008420">
    <ele>50.5</ele>
    <time>2020-06-14T07:52:55Z</time>
   </trkpt>
   <trkpt lat="51.1585800" lon="5.3008340">
    <ele>50.5</ele>
    <time>2020-06-14T07:52:56Z</time>
   </trkpt>
   <trkpt lat="51.1585810" lon="5.3008390">
    <ele>50.5</ele>
    <time>2020-06-14T07:52:57Z</time>
   </trkpt>
   <trkpt lat="51.1585760" lon="5.3008480">
    <ele>50.5</ele>
    <time>2020-06-14T07:52:58Z</time>
   </trkpt>
   <trkpt lat="51.1585720" lon="5.3008470">
    <ele>50.5</ele>
    <time>2020-06-14T07:52:59Z</time>
   </trkpt>
   <trkpt lat="51.1585710" lon="5.3008430">
    <ele>50.5</ele>
    <time>2020-06-14T07:53:00Z</time>
   </trkpt>
   <trkpt lat="51.1585710" lon="5.3008390">
    <ele>50.5</ele>
    <time>2020-06-14T07:53:01Z</time>
   </trkpt>
   <trkpt lat="51.1585710" lon="5.3008380">
    <ele>50.5</ele>
    <time>2020-06-14T07:53:02Z</time>
   </trkpt>
   <trkpt lat="51.1585710" lon="5.3008370">
    <ele>50.5</ele>
    <time>2020-06-14T07:53:03Z</time>
   </trkpt>
   <trkpt lat="51.1585350" lon="5.3007340">
    <ele>50.5</ele>
    <time>2020-06-14T07:53:55Z</time>
   </trkpt>
   <trkpt lat="51.1585340" lon="5.3007220">
    <ele>50.5</ele>
    <time>2020-06-14T07:53:56Z</time>
   </trkpt>
   <trkpt lat="51.1585330" lon="5.3007160">
    <ele>50.5</ele>
    <time>2020-06-14T07:53:57Z</time>
   </trkpt>
   <trkpt lat="51.1585300" lon="5.3007060">
    <ele>50.5</ele>
    <time>2020-06-14T07:53:58Z</time>
   </trkpt>
   <trkpt lat="51.1585310" lon="5.3007010">
    <ele>50.5</ele>
    <time>2020-06-14T07:53:59Z</time>
   </trkpt>
   <trkpt lat="51.1585290" lon="5.3006890">
    <ele>50.4</ele>
    <time>2020-06-14T07:54:00Z</time>
   </trkpt>
   <trkpt lat="51.1585270" lon="5.3006800">
    <ele>50.4</ele>
    <time>2020-06-14T07:54:01Z</time>
   </trkpt>
   <trkpt lat="51.1585270" lon="5.3006690">
    <ele>50.4</ele>
    <time>2020-06-14T07:54:02Z</time>
   </trkpt>
   <trkpt lat="51.1585250" lon="5.3006520">
    <ele>50.4</ele>
    <time>2020-06-14T07:54:03Z</time>
   </trkpt>
   <trkpt lat="51.1585280" lon="5.3006490">
    <ele>50.4</ele>
    <time>2020-06-14T07:54:04Z</time>
   </trkpt>
   <trkpt lat="51.1585330" lon="5.3006550">
    <ele>50.4</ele>
    <time>2020-06-14T07:54:05Z</time>
   </trkpt>
   <trkpt lat="51.1585340" lon="5.3006570">
    <ele>50.4</ele>
    <time>2020-06-14T07:54:06Z</time>
   </trkpt>
   <trkpt lat="51.1585370" lon="5.3006390">
    <ele>50.4</ele>
    <time>2020-06-14T07:54:07Z</time>
   </trkpt>
   <trkpt lat="51.1585400" lon="5.3006290">
    <ele>50.4</ele>
    <time>2020-06-14T07:54:08Z</time>
   </trkpt>
   <trkpt lat="51.1585400" lon="5.3006330">
    <ele>50.4</ele>
    <time>2020-06-14T07:54:09Z</time>
   </trkpt>
   <trkpt lat="51.1585390" lon="5.3006310">
    <ele>50.4</ele>
    <time>2020-06-14T07:54:10Z</time>
   </trkpt>
   <trkpt lat="51.1585420" lon="5.3006300">
    <ele>50.4</ele>
    <time>2020-06-14T07:54:11Z</time>
   </trkpt>
   <trkpt lat="51.1585410" lon="5.3006360">
    <ele>50.4</ele>
    <time>2020-06-14T07:54:12Z</time>
   </trkpt>
   <trkpt lat="51.1585470" lon="5.3006480">
    <ele>50.4</ele>
    <time>2020-06-14T07:54:13Z</time>
   </trkpt>
   <trkpt lat="51.1585520" lon="5.3006560">
    <ele>50.4</ele>
    <time>2020-06-14T07:54:14Z</time>
   </trkpt>
   <trkpt lat="51.1585510" lon="5.3006460">
    <ele>50.4</ele>
    <time>2020-06-14T07:54:15Z</time>
   </trkpt>
   <trkpt lat="51.1585450" lon="5.3006380">
    <ele>50.4</ele>
    <time>2020-06-14T07:54:16Z</time>
   </trkpt>
   <trkpt lat="51.1585400" lon="5.3006300">
    <ele>50.4</ele>
    <time>2020-06-14T07:54:17Z</time>
   </trkpt>
   <trkpt lat="51.1585340" lon="5.3006230">
    <ele>50.4</ele>
    <time>2020-06-14T07:54:18Z</time>
   </trkpt>
   <trkpt lat="51.1585290" lon="5.3006150">
    <ele>50.4</ele>
    <time>2020-06-14T07:58:27Z</time>
   </trkpt>
   <trkpt lat="51.1585230" lon="5.3006070">
    <ele>50.4</ele>
    <time>2020-06-14T07:58:28Z</time>
   </trkpt>
   <trkpt lat="51.1585270" lon="5.3005420">
    <ele>50.3</ele>
    <time>2020-06-14T07:58:29Z</time>
   </trkpt>
   <trkpt lat="51.1585300" lon="5.3004690">
    <ele>50.3</ele>
    <time>2020-06-14T07:58:30Z</time>
   </trkpt>
   <trkpt lat="51.1585350" lon="5.3003910">
    <ele>50.3</ele>
    <time>2020-06-14T07:58:31Z</time>
   </trkpt>
   <trkpt lat="51.1585340" lon="5.3003080">
    <ele>50.2</ele>
    <time>2020-06-14T07:58:32Z</time>
   </trkpt>
   <trkpt lat="51.1585430" lon="5.3002210">
    <ele>50.2</ele>
    <time>2020-06-14T07:58:33Z</time>
   </trkpt>
   <trkpt lat="51.1585520" lon="5.3001380">
    <ele>50.2</ele>
    <time>2020-06-14T07:58:34Z</time>
   </trkpt>
   <trkpt lat="51.1585640" lon="5.3000540">
    <ele>50.1</ele>
    <time>2020-06-14T07:58:35Z</time>
   </trkpt>
   <trkpt lat="51.1585730" lon="5.2999650">
    <ele>50.1</ele>
    <time>2020-06-14T07:58:36Z</time>
   </trkpt>
   <trkpt lat="51.1585850" lon="5.2998800">
    <ele>50.1</ele>
    <time>2020-06-14T07:58:37Z</time>
   </trkpt>
   <trkpt lat="51.1585960" lon="5.2998060">
    <ele>50.0</ele>
    <time>2020-06-14T07:58:38Z</time>
   </trkpt>
   <trkpt lat="51.1586090" lon="5.2997420">
    <ele>50.0</ele>
    <time>2020-06-14T07:58:39Z</time>
   </trkpt>
   <trkpt lat="51.1586250" lon="5.2996750">
    <ele>50.0</ele>
    <time>2020-06-14T07:58:40Z</time>
   </trkpt>
   <trkpt lat="51.1586400" lon="5.2995980">
    <ele>50.0</ele>
    <time>2020-06-14T07:58:41Z</time>
   </trkpt>
   <trkpt lat="51.1586560" lon="5.2995400">
    <ele>50.0</ele>
    <time>2020-06-14T07:58:42Z</time>
   </trkpt>
   <trkpt lat="51.1586720" lon="5.2994740">
    <ele>50.0</ele>
    <time>2020-06-14T07:58:43Z</time>
   </trkpt>
   <trkpt lat="51.1586840" lon="5.2994140">
    <ele>49.9</ele>
    <time>2020-06-14T07:58:44Z</time>
   </trkpt>
   <trkpt lat="51.1586900" lon="5.2993620">
    <ele>49.9</ele>
    <time>2020-06-14T07:58:45Z</time>
   </trkpt>
   <trkpt lat="51.1587010" lon="5.2992930">
    <ele>49.9</ele>
    <time>2020-06-14T07:58:46Z</time>
   </trkpt>
   <trkpt lat="51.1587150" lon="5.2992300">
    <ele>49.9</ele>
    <time>2020-06-14T07:58:47Z</time>
   </trkpt>
   <trkpt lat="51.1587300" lon="5.2991620">
    <ele>49.9</ele>
    <time>2020-06-14T07:58:48Z</time>
   </trkpt>
   <trkpt lat="51.1587440" lon="5.2990880">
    <ele>49.9</ele>
    <time>2020-06-14T07:58:49Z</time>
   </trkpt>
   <trkpt lat="51.1587650" lon="5.2990190">
    <ele>49.8</ele>
    <time>2020-06-14T07:58:50Z</time>
   </trkpt>
   <trkpt lat="51.1587910" lon="5.2989530">
    <ele>49.8</ele>
    <time>2020-06-14T07:58:51Z</time>
   </trkpt>
   <trkpt lat="51.1588220" lon="5.2988710">
    <ele>49.8</ele>
    <time>2020-06-14T07:58:52Z</time>
   </trkpt>
   <trkpt lat="51.1588520" lon="5.2987900">
    <ele>49.8</ele>
    <time>2020-06-14T07:58:53Z</time>
   </trkpt>
   <trkpt lat="51.1588760" lon="5.2987020">
    <ele>49.7</ele>
    <time>2020-06-14T07:58:54Z</time>
   </trkpt>
   <trkpt lat="51.1589060" lon="5.2986180">
    <ele>49.7</ele>
    <time>2020-06-14T07:58:55Z</time>
   </trkpt>
   <trkpt lat="51.1589430" lon="5.2985390">
    <ele>49.7</ele>
    <time>2020-06-14T07:58:56Z</time>
   </trkpt>
   <trkpt lat="51.1589860" lon="5.2984540">
    <ele>49.8</ele>
    <time>2020-06-14T07:58:57Z</time>
   </trkpt>
   <trkpt lat="51.1590330" lon="5.2983710">
    <ele>49.8</ele>
    <time>2020-06-14T07:58:58Z</time>
   </trkpt>
   <trkpt lat="51.1590720" lon="5.2982930">
    <ele>49.7</ele>
    <time>2020-06-14T07:58:59Z</time>
   </trkpt>
   <trkpt lat="51.1591090" lon="5.2982140">
    <ele>49.7</ele>
    <time>2020-06-14T07:59:00Z</time>
   </trkpt>
   <trkpt lat="51.1591470" lon="5.2981350">
    <ele>49.7</ele>
    <time>2020-06-14T07:59:01Z</time>
   </trkpt>
   <trkpt lat="51.1591880" lon="5.2980730">
    <ele>49.7</ele>
    <time>2020-06-14T07:59:02Z</time>
   </trkpt>
   <trkpt lat="51.1592260" lon="5.2980080">
    <ele>49.7</ele>
    <time>2020-06-14T07:59:03Z</time>
   </trkpt>
   <trkpt lat="51.1592630" lon="5.2979520">
    <ele>49.7</ele>
    <time>2020-06-14T07:59:04Z</time>
   </trkpt>
   <trkpt lat="51.1593060" lon="5.2978820">
    <ele>49.6</ele>
    <time>2020-06-14T07:59:05Z</time>
   </trkpt>
   <trkpt lat="51.1593410" lon="5.2978150">
    <ele>49.6</ele>
    <time>2020-06-14T07:59:06Z</time>
   </trkpt>
   <trkpt lat="51.1593840" lon="5.2977510">
    <ele>49.5</ele>
    <time>2020-06-14T07:59:07Z</time>
   </trkpt>
   <trkpt lat="51.1594180" lon="5.2976830">
    <ele>49.5</ele>
    <time>2020-06-14T07:59:08Z</time>
   </trkpt>
   <trkpt lat="51.1594580" lon="5.2976170">
    <ele>49.4</ele>
    <time>2020-06-14T07:59:09Z</time>
   </trkpt>
   <trkpt lat="51.1594960" lon="5.2975480">
    <ele>49.4</ele>
    <time>2020-06-14T07:59:10Z</time>
   </trkpt>
   <trkpt lat="51.1595340" lon="5.2974830">
    <ele>49.3</ele>
    <time>2020-06-14T07:59:11Z</time>
   </trkpt>
   <trkpt lat="51.1595690" lon="5.2974120">
    <ele>49.2</ele>
    <time>2020-06-14T07:59:12Z</time>
   </trkpt>
   <trkpt lat="51.1596070" lon="5.2973360">
    <ele>49.1</ele>
    <time>2020-06-14T07:59:13Z</time>
   </trkpt>
   <trkpt lat="51.1596490" lon="5.2972510">
    <ele>49.1</ele>
    <time>2020-06-14T07:59:14Z</time>
   </trkpt>
   <trkpt lat="51.1596850" lon="5.2971690">
    <ele>49.0</ele>
    <time>2020-06-14T07:59:15Z</time>
   </trkpt>
   <trkpt lat="51.1597280" lon="5.2970850">
    <ele>48.8</ele>
    <time>2020-06-14T07:59:16Z</time>
   </trkpt>
   <trkpt lat="51.1597700" lon="5.2970060">
    <ele>48.7</ele>
    <time>2020-06-14T07:59:17Z</time>
   </trkpt>
   <trkpt lat="51.1598160" lon="5.2969340">
    <ele>48.7</ele>
    <time>2020-06-14T07:59:18Z</time>
   </trkpt>
   <trkpt lat="51.1598520" lon="5.2968620">
    <ele>48.6</ele>
    <time>2020-06-14T07:59:19Z</time>
   </trkpt>
   <trkpt lat="51.1598940" lon="5.2967920">
    <ele>48.6</ele>
    <time>2020-06-14T07:59:20Z</time>
   </trkpt>
   <trkpt lat="51.1599360" lon="5.2967160">
    <ele>48.5</ele>
    <time>2020-06-14T07:59:21Z</time>
   </trkpt>
   <trkpt lat="51.1599800" lon="5.2966370">
    <ele>48.5</ele>
    <time>2020-06-14T07:59:22Z</time>
   </trkpt>
   <trkpt lat="51.1600200" lon="5.2965590">
    <ele>48.5</ele>
    <time>2020-06-14T07:59:23Z</time>
   </trkpt>
   <trkpt lat="51.1600650" lon="5.2964730">
    <ele>48.4</ele>
    <time>2020-06-14T07:59:24Z</time>
   </trkpt>
   <trkpt lat="51.1601060" lon="5.2963930">
    <ele>48.4</ele>
    <time>2020-06-14T07:59:25Z</time>
   </trkpt>
   <trkpt lat="51.1601630" lon="5.2963030">
    <ele>48.3</ele>
    <time>2020-06-14T07:59:26Z</time>
   </trkpt>
   <trkpt lat="51.1602170" lon="5.2962170">
    <ele>48.3</ele>
    <time>2020-06-14T07:59:27Z</time>
   </trkpt>
   <trkpt lat="51.1602640" lon="5.2961320">
    <ele>48.2</ele>
    <time>2020-06-14T07:59:28Z</time>
   </trkpt>
   <trkpt lat="51.1603080" lon="5.2960440">
    <ele>48.1</ele>
    <time>2020-06-14T07:59:29Z</time>
   </trkpt>
   <trkpt lat="51.1603520" lon="5.2959540">
    <ele>48.0</ele>
    <time>2020-06-14T07:59:30Z</time>
   </trkpt>
   <trkpt lat="51.1603960" lon="5.2958610">
    <ele>48.0</ele>
    <time>2020-06-14T07:59:31Z</time>
   </trkpt>
   <trkpt lat="51.1604410" lon="5.2957690">
    <ele>47.9</ele>
    <time>2020-06-14T07:59:32Z</time>
   </trkpt>
   <trkpt lat="51.1604850" lon="5.2956680">
    <ele>47.8</ele>
    <time>2020-06-14T07:59:33Z</time>
   </trkpt>
   <trkpt lat="51.1605370" lon="5.2955570">
    <ele>47.8</ele>
    <time>2020-06-14T07:59:34Z</time>
   </trkpt>
   <trkpt lat="51.1605780" lon="5.2954630">
    <ele>47.7</ele>
    <time>2020-06-14T07:59:35Z</time>
   </trkpt>
   <trkpt lat="51.1606270" lon="5.2953620">
    <ele>47.7</ele>
    <time>2020-06-14T07:59:36Z</time>
   </trkpt>
   <trkpt lat="51.1606660" lon="5.2952690">
    <ele>47.6</ele>
    <time>2020-06-14T07:59:37Z</time>
   </trkpt>
   <trkpt lat="51.1607080" lon="5.2951820">
    <ele>47.5</ele>
    <time>2020-06-14T07:59:38Z</time>
   </trkpt>
   <trkpt lat="51.1607530" lon="5.2950940">
    <ele>47.4</ele>
    <time>2020-06-14T07:59:39Z</time>
   </trkpt>
   <trkpt lat="51.1607960" lon="5.2950190">
    <ele>47.3</ele>
    <time>2020-06-14T07:59:40Z</time>
   </trkpt>
   <trkpt lat="51.1608350" lon="5.2949350">
    <ele>47.2</ele>
    <time>2020-06-14T07:59:41Z</time>
   </trkpt>
   <trkpt lat="51.1608740" lon="5.2948500">
    <ele>47.3</ele>
    <time>2020-06-14T07:59:42Z</time>
   </trkpt>
   <trkpt lat="51.1609120" lon="5.2947810">
    <ele>47.3</ele>
    <time>2020-06-14T07:59:43Z</time>
   </trkpt>
   <trkpt lat="51.1609530" lon="5.2947100">
    <ele>47.3</ele>
    <time>2020-06-14T07:59:44Z</time>
   </trkpt>
   <trkpt lat="51.1609940" lon="5.2946360">
    <ele>47.3</ele>
    <time>2020-06-14T07:59:45Z</time>
   </trkpt>
   <trkpt lat="51.1610280" lon="5.2945640">
    <ele>47.4</ele>
    <time>2020-06-14T07:59:46Z</time>
   </trkpt>
   <trkpt lat="51.1610680" lon="5.2945040">
    <ele>47.4</ele>
    <time>2020-06-14T07:59:47Z</time>
   </trkpt>
   <trkpt lat="51.1611040" lon="5.2944390">
    <ele>47.4</ele>
    <time>2020-06-14T07:59:48Z</time>
   </trkpt>
   <trkpt lat="51.1611330" lon="5.2943700">
    <ele>47.4</ele>
    <time>2020-06-14T07:59:49Z</time>
   </trkpt>
   <trkpt lat="51.1611620" lon="5.2943030">
    <ele>47.4</ele>
    <time>2020-06-14T07:59:50Z</time>
   </trkpt>
   <trkpt lat="51.1611890" lon="5.2942370">
    <ele>47.4</ele>
    <time>2020-06-14T07:59:51Z</time>
   </trkpt>
   <trkpt lat="51.1612140" lon="5.2941710">
    <ele>47.4</ele>
    <time>2020-06-14T07:59:52Z</time>
   </trkpt>
   <trkpt lat="51.1612380" lon="5.2941100">
    <ele>47.5</ele>
    <time>2020-06-14T07:59:53Z</time>
   </trkpt>
   <trkpt lat="51.1612680" lon="5.2940660">
    <ele>47.5</ele>
    <time>2020-06-14T07:59:54Z</time>
   </trkpt>
   <trkpt lat="51.1613100" lon="5.2940580">
    <ele>47.5</ele>
    <time>2020-06-14T07:59:55Z</time>
   </trkpt>
   <trkpt lat="51.1613550" lon="5.2940790">
    <ele>47.6</ele>
    <time>2020-06-14T07:59:56Z</time>
   </trkpt>
   <trkpt lat="51.1613990" lon="5.2941260">
    <ele>47.5</ele>
    <time>2020-06-14T07:59:57Z</time>
   </trkpt>
   <trkpt lat="51.1614370" lon="5.2942030">
    <ele>47.4</ele>
    <time>2020-06-14T07:59:58Z</time>
   </trkpt>
   <trkpt lat="51.1614810" lon="5.2942780">
    <ele>47.3</ele>
    <time>2020-06-14T07:59:59Z</time>
   </trkpt>
   <trkpt lat="51.1615260" lon="5.2943530">
    <ele>47.2</ele>
    <time>2020-06-14T08:00:00Z</time>
   </trkpt>
   <trkpt lat="51.1615690" lon="5.2944270">
    <ele>47.1</ele>
    <time>2020-06-14T08:00:01Z</time>
   </trkpt>
   <trkpt lat="51.1616120" lon="5.2945090">
    <ele>47.1</ele>
    <time>2020-06-14T08:00:02Z</time>
   </trkpt>
   <trkpt lat="51.1616620" lon="5.2945860">
    <ele>47.1</ele>
    <time>2020-06-14T08:00:03Z</time>
   </trkpt>
   <trkpt lat="51.1617200" lon="5.2946600">
    <ele>47.1</ele>
    <time>2020-06-14T08:00:04Z</time>
   </trkpt>
   <trkpt lat="51.1617700" lon="5.2947460">
    <ele>47.1</ele>
    <time>2020-06-14T08:00:05Z</time>
   </trkpt>
   <trkpt lat="51.1618240" lon="5.2948120">
    <ele>47.2</ele>
    <time>2020-06-14T08:00:06Z</time>
   </trkpt>
   <trkpt lat="51.1618870" lon="5.2948610">
    <ele>47.2</ele>
    <time>2020-06-14T08:00:07Z</time>
   </trkpt>
   <trkpt lat="51.1619410" lon="5.2949430">
    <ele>47.2</ele>
    <time>2020-06-14T08:00:08Z</time>
   </trkpt>
   <trkpt lat="51.1620000" lon="5.2950370">
    <ele>47.2</ele>
    <time>2020-06-14T08:00:09Z</time>
   </trkpt>
   <trkpt lat="51.1620600" lon="5.2951280">
    <ele>47.3</ele>
    <time>2020-06-14T08:00:10Z</time>
   </trkpt>
   <trkpt lat="51.1621200" lon="5.2952140">
    <ele>47.3</ele>
    <time>2020-06-14T08:00:11Z</time>
   </trkpt>
   <trkpt lat="51.1621810" lon="5.2952950">
    <ele>47.4</ele>
    <time>2020-06-14T08:00:12Z</time>
   </trkpt>
   <trkpt lat="51.1622440" lon="5.2953750">
    <ele>47.6</ele>
    <time>2020-06-14T08:00:13Z</time>
   </trkpt>
   <trkpt lat="51.1623040" lon="5.2954520">
    <ele>47.7</ele>
    <time>2020-06-14T08:00:14Z</time>
   </trkpt>
   <trkpt lat="51.1623660" lon="5.2955260">
    <ele>47.8</ele>
    <time>2020-06-14T08:00:15Z</time>
   </trkpt>
   <trkpt lat="51.1624190" lon="5.2955900">
    <ele>48.0</ele>
    <time>2020-06-14T08:00:16Z</time>
   </trkpt>
   <trkpt lat="51.1624710" lon="5.2956530">
    <ele>48.1</ele>
    <time>2020-06-14T08:00:17Z</time>
   </trkpt>
   <trkpt lat="51.1625150" lon="5.2957100">
    <ele>48.2</ele>
    <time>2020-06-14T08:00:18Z</time>
   </trkpt>
   <trkpt lat="51.1625550" lon="5.2957590">
    <ele>48.3</ele>
    <time>2020-06-14T08:00:19Z</time>
   </trkpt>
   <trkpt lat="51.1625970" lon="5.2957990">
    <ele>48.5</ele>
    <time>2020-06-14T08:00:20Z</time>
   </trkpt>
   <trkpt lat="51.1626270" lon="5.2958330">
    <ele>48.6</ele>
    <time>2020-06-14T08:00:21Z</time>
   </trkpt>
   <trkpt lat="51.1626530" lon="5.2958630">
    <ele>48.6</ele>
    <time>2020-06-14T08:00:22Z</time>
   </trkpt>
   <trkpt lat="51.1626740" lon="5.2958980">
    <ele>48.7</ele>
    <time>2020-06-14T08:00:23Z</time>
   </trkpt>
   <trkpt lat="51.1626980" lon="5.2959300">
    <ele>48.7</ele>
    <time>2020-06-14T08:00:24Z</time>
   </trkpt>
   <trkpt lat="51.1627210" lon="5.2959760">
    <ele>48.7</ele>
    <time>2020-06-14T08:00:25Z</time>
   </trkpt>
   <trkpt lat="51.1627510" lon="5.2960250">
    <ele>48.7</ele>
    <time>2020-06-14T08:00:26Z</time>
   </trkpt>
   <trkpt lat="51.1627770" lon="5.2960670">
    <ele>48.6</ele>
    <time>2020-06-14T08:00:27Z</time>
   </trkpt>
   <trkpt lat="51.1628200" lon="5.2961300">
    <ele>48.6</ele>
    <time>2020-06-14T08:00:28Z</time>
   </trkpt>
   <trkpt lat="51.1628690" lon="5.2961920">
    <ele>48.6</ele>
    <time>2020-06-14T08:00:29Z</time>
   </trkpt>
   <trkpt lat="51.1629210" lon="5.2962620">
    <ele>48.5</ele>
    <time>2020-06-14T08:00:30Z</time>
   </trkpt>
   <trkpt lat="51.1629690" lon="5.2963310">
    <ele>48.5</ele>
    <time>2020-06-14T08:00:31Z</time>
   </trkpt>
   <trkpt lat="51.1630090" lon="5.2963960">
    <ele>48.4</ele>
    <time>2020-06-14T08:00:32Z</time>
   </trkpt>
   <trkpt lat="51.1630610" lon="5.2964690">
    <ele>48.5</ele>
    <time>2020-06-14T08:00:33Z</time>
   </trkpt>
   <trkpt lat="51.1631080" lon="5.2965330">
    <ele>48.5</ele>
    <time>2020-06-14T08:00:34Z</time>
   </trkpt>
   <trkpt lat="51.1631630" lon="5.2965990">
    <ele>48.6</ele>
    <time>2020-06-14T08:00:35Z</time>
   </trkpt>
   <trkpt lat="51.1632210" lon="5.2966740">
    <ele>48.7</ele>
    <time>2020-06-14T08:00:36Z</time>
   </trkpt>
   <trkpt lat="51.1632760" lon="5.2967520">
    <ele>48.8</ele>
    <time>2020-06-14T08:00:37Z</time>
   </trkpt>
   <trkpt lat="51.1633300" lon="5.2968270">
    <ele>48.9</ele>
    <time>2020-06-14T08:00:38Z</time>
   </trkpt>
   <trkpt lat="51.1633870" lon="5.2968980">
    <ele>49.0</ele>
    <time>2020-06-14T08:00:40Z</time>
   </trkpt>
   <trkpt lat="51.1634440" lon="5.2969680">
    <ele>49.1</ele>
    <time>2020-06-14T08:00:41Z</time>
   </trkpt>
   <trkpt lat="51.1634970" lon="5.2970400">
    <ele>49.2</ele>
    <time>2020-06-14T08:00:42Z</time>
   </trkpt>
   <trkpt lat="51.1635510" lon="5.2971130">
    <ele>49.3</ele>
    <time>2020-06-14T08:00:43Z</time>
   </trkpt>
   <trkpt lat="51.1636000" lon="5.2971810">
    <ele>49.4</ele>
    <time>2020-06-14T08:00:44Z</time>
   </trkpt>
   <trkpt lat="51.1636510" lon="5.2972540">
    <ele>49.6</ele>
    <time>2020-06-14T08:00:45Z</time>
   </trkpt>
   <trkpt lat="51.1636990" lon="5.2973130">
    <ele>49.7</ele>
    <time>2020-06-14T08:00:46Z</time>
   </trkpt>
   <trkpt lat="51.1637550" lon="5.2973810">
    <ele>49.8</ele>
    <time>2020-06-14T08:00:47Z</time>
   </trkpt>
   <trkpt lat="51.1638090" lon="5.2974420">
    <ele>49.9</ele>
    <time>2020-06-14T08:00:48Z</time>
   </trkpt>
   <trkpt lat="51.1638680" lon="5.2975110">
    <ele>50.1</ele>
    <time>2020-06-14T08:00:49Z</time>
   </trkpt>
   <trkpt lat="51.1639230" lon="5.2975770">
    <ele>50.2</ele>
    <time>2020-06-14T08:00:50Z</time>
   </trkpt>
   <trkpt lat="51.1639780" lon="5.2976380">
    <ele>50.4</ele>
    <time>2020-06-14T08:00:51Z</time>
   </trkpt>
   <trkpt lat="51.1640350" lon="5.2976980">
    <ele>50.6</ele>
    <time>2020-06-14T08:00:52Z</time>
   </trkpt>
   <trkpt lat="51.1640830" lon="5.2977610">
    <ele>50.8</ele>
    <time>2020-06-14T08:00:53Z</time>
   </trkpt>
   <trkpt lat="51.1641370" lon="5.2978200">
    <ele>51.0</ele>
    <time>2020-06-14T08:00:54Z</time>
   </trkpt>
   <trkpt lat="51.1641760" lon="5.2978830">
    <ele>51.1</ele>
    <time>2020-06-14T08:00:55Z</time>
   </trkpt>
   <trkpt lat="51.1642210" lon="5.2979500">
    <ele>51.3</ele>
    <time>2020-06-14T08:00:56Z</time>
   </trkpt>
   <trkpt lat="51.1642650" lon="5.2980230">
    <ele>51.4</ele>
    <time>2020-06-14T08:00:57Z</time>
   </trkpt>
   <trkpt lat="51.1643090" lon="5.2980820">
    <ele>51.5</ele>
    <time>2020-06-14T08:00:58Z</time>
   </trkpt>
   <trkpt lat="51.1643470" lon="5.2981270">
    <ele>51.6</ele>
    <time>2020-06-14T08:00:59Z</time>
   </trkpt>
   <trkpt lat="51.1643900" lon="5.2981790">
    <ele>51.7</ele>
    <time>2020-06-14T08:01:00Z</time>
   </trkpt>
   <trkpt lat="51.1644380" lon="5.2982290">
    <ele>51.8</ele>
    <time>2020-06-14T08:01:01Z</time>
   </trkpt>
   <trkpt lat="51.1644820" lon="5.2982770">
    <ele>51.9</ele>
    <time>2020-06-14T08:01:02Z</time>
   </trkpt>
   <trkpt lat="51.1645220" lon="5.2983330">
    <ele>52.0</ele>
    <time>2020-06-14T08:01:03Z</time>
   </trkpt>
   <trkpt lat="51.1645610" lon="5.2983920">
    <ele>52.1</ele>
    <time>2020-06-14T08:01:04Z</time>
   </trkpt>
   <trkpt lat="51.1646090" lon="5.2984620">
    <ele>52.1</ele>
    <time>2020-06-14T08:01:05Z</time>
   </trkpt>
   <trkpt lat="51.1646590" lon="5.2985290">
    <ele>52.2</ele>
    <time>2020-06-14T08:01:06Z</time>
   </trkpt>
   <trkpt lat="51.1647150" lon="5.2986100">
    <ele>52.2</ele>
    <time>2020-06-14T08:01:07Z</time>
   </trkpt>
   <trkpt lat="51.1647740" lon="5.2986820">
    <ele>52.3</ele>
    <time>2020-06-14T08:01:08Z</time>
   </trkpt>
   <trkpt lat="51.1648260" lon="5.2987540">
    <ele>52.4</ele>
    <time>2020-06-14T08:01:09Z</time>
   </trkpt>
   <trkpt lat="51.1648820" lon="5.2988300">
    <ele>52.5</ele>
    <time>2020-06-14T08:01:10Z</time>
   </trkpt>
   <trkpt lat="51.1649350" lon="5.2989070">
    <ele>52.6</ele>
    <time>2020-06-14T08:01:11Z</time>
   </trkpt>
   <trkpt lat="51.1649840" lon="5.2989870">
    <ele>52.7</ele>
    <time>2020-06-14T08:01:12Z</time>
   </trkpt>
   <trkpt lat="51.1650440" lon="5.2990650">
    <ele>52.8</ele>
    <time>2020-06-14T08:01:13Z</time>
   </trkpt>
   <trkpt lat="51.1651060" lon="5.2991400">
    <ele>52.9</ele>
    <time>2020-06-14T08:01:14Z</time>
   </trkpt>
   <trkpt lat="51.1651660" lon="5.2992130">
    <ele>53.0</ele>
    <time>2020-06-14T08:01:15Z</time>
   </trkpt>
   <trkpt lat="51.1652230" lon="5.2992890">
    <ele>53.2</ele>
    <time>2020-06-14T08:01:16Z</time>
   </trkpt>
   <trkpt lat="51.1652810" lon="5.2993630">
    <ele>53.3</ele>
    <time>2020-06-14T08:01:17Z</time>
   </trkpt>
   <trkpt lat="51.1653350" lon="5.2994280">
    <ele>53.3</ele>
    <time>2020-06-14T08:01:18Z</time>
   </trkpt>
   <trkpt lat="51.1653900" lon="5.2994930">
    <ele>53.4</ele>
    <time>2020-06-14T08:01:19Z</time>
   </trkpt>
   <trkpt lat="51.1654360" lon="5.2995530">
    <ele>53.5</ele>
    <time>2020-06-14T08:01:20Z</time>
   </trkpt>
   <trkpt lat="51.1654920" lon="5.2996240">
    <ele>53.5</ele>
    <time>2020-06-14T08:01:21Z</time>
   </trkpt>
   <trkpt lat="51.1655490" lon="5.2996970">
    <ele>53.5</ele>
    <time>2020-06-14T08:01:22Z</time>
   </trkpt>
   <trkpt lat="51.1656020" lon="5.2997720">
    <ele>53.5</ele>
    <time>2020-06-14T08:01:23Z</time>
   </trkpt>
   <trkpt lat="51.1656580" lon="5.2998490">
    <ele>53.6</ele>
    <time>2020-06-14T08:01:24Z</time>
   </trkpt>
   <trkpt lat="51.1657090" lon="5.2999190">
    <ele>53.6</ele>
    <time>2020-06-14T08:01:25Z</time>
   </trkpt>
   <trkpt lat="51.1657680" lon="5.2999960">
    <ele>53.7</ele>
    <time>2020-06-14T08:01:26Z</time>
   </trkpt>
   <trkpt lat="51.1658240" lon="5.3000670">
    <ele>53.8</ele>
    <time>2020-06-14T08:01:27Z</time>
   </trkpt>
   <trkpt lat="51.1658800" lon="5.3001390">
    <ele>53.9</ele>
    <time>2020-06-14T08:01:28Z</time>
   </trkpt>
   <trkpt lat="51.1659330" lon="5.3002180">
    <ele>54.0</ele>
    <time>2020-06-14T08:01:29Z</time>
   </trkpt>
   <trkpt lat="51.1659910" lon="5.3002900">
    <ele>54.1</ele>
    <time>2020-06-14T08:01:30Z</time>
   </trkpt>
   <trkpt lat="51.1660410" lon="5.3003650">
    <ele>54.1</ele>
    <time>2020-06-14T08:01:31Z</time>
   </trkpt>
   <trkpt lat="51.1660950" lon="5.3004380">
    <ele>54.2</ele>
    <time>2020-06-14T08:01:32Z</time>
   </trkpt>
   <trkpt lat="51.1661510" lon="5.3005110">
    <ele>54.3</ele>
    <time>2020-06-14T08:01:33Z</time>
   </trkpt>
   <trkpt lat="51.1662000" lon="5.3005870">
    <ele>54.3</ele>
    <time>2020-06-14T08:01:34Z</time>
   </trkpt>
   <trkpt lat="51.1662620" lon="5.3006490">
    <ele>54.4</ele>
    <time>2020-06-14T08:01:35Z</time>
   </trkpt>
   <trkpt lat="51.1663140" lon="5.3007190">
    <ele>54.5</ele>
    <time>2020-06-14T08:01:36Z</time>
   </trkpt>
   <trkpt lat="51.1663660" lon="5.3007830">
    <ele>54.6</ele>
    <time>2020-06-14T08:01:37Z</time>
   </trkpt>
   <trkpt lat="51.1664130" lon="5.3008460">
    <ele>54.7</ele>
    <time>2020-06-14T08:01:38Z</time>
   </trkpt>
   <trkpt lat="51.1664580" lon="5.3008980">
    <ele>54.8</ele>
    <time>2020-06-14T08:01:39Z</time>
   </trkpt>
   <trkpt lat="51.1665020" lon="5.3009640">
    <ele>54.8</ele>
    <time>2020-06-14T08:01:40Z</time>
   </trkpt>
   <trkpt lat="51.1665490" lon="5.3010260">
    <ele>54.9</ele>
    <time>2020-06-14T08:01:41Z</time>
   </trkpt>
   <trkpt lat="51.1665970" lon="5.3010920">
    <ele>54.9</ele>
    <time>2020-06-14T08:01:42Z</time>
   </trkpt>
   <trkpt lat="51.1666480" lon="5.3011560">
    <ele>55.0</ele>
    <time>2020-06-14T08:01:43Z</time>
   </trkpt>
   <trkpt lat="51.1666960" lon="5.3012210">
    <ele>55.0</ele>
    <time>2020-06-14T08:01:44Z</time>
   </trkpt>
   <trkpt lat="51.1667440" lon="5.3012800">
    <ele>55.1</ele>
    <time>2020-06-14T08:01:45Z</time>
   </trkpt>
   <trkpt lat="51.1667900" lon="5.3013510">
    <ele>55.1</ele>
    <time>2020-06-14T08:01:46Z</time>
   </trkpt>
   <trkpt lat="51.1668410" lon="5.3014230">
    <ele>55.2</ele>
    <time>2020-06-14T08:01:47Z</time>
   </trkpt>
   <trkpt lat="51.1668960" lon="5.3014920">
    <ele>55.2</ele>
    <time>2020-06-14T08:01:48Z</time>
   </trkpt>
   <trkpt lat="51.1669540" lon="5.3015540">
    <ele>55.3</ele>
    <time>2020-06-14T08:01:49Z</time>
   </trkpt>
   <trkpt lat="51.1670060" lon="5.3016180">
    <ele>55.3</ele>
    <time>2020-06-14T08:01:50Z</time>
   </trkpt>
   <trkpt lat="51.1670560" lon="5.3016880">
    <ele>55.4</ele>
    <time>2020-06-14T08:01:51Z</time>
   </trkpt>
   <trkpt lat="51.1671040" lon="5.3017610">
    <ele>55.5</ele>
    <time>2020-06-14T08:01:52Z</time>
   </trkpt>
   <trkpt lat="51.1671530" lon="5.3018260">
    <ele>55.5</ele>
    <time>2020-06-14T08:01:53Z</time>
   </trkpt>
   <trkpt lat="51.1671980" lon="5.3018900">
    <ele>55.6</ele>
    <time>2020-06-14T08:01:54Z</time>
   </trkpt>
   <trkpt lat="51.1672430" lon="5.3019490">
    <ele>55.7</ele>
    <time>2020-06-14T08:01:55Z</time>
   </trkpt>
   <trkpt lat="51.1672880" lon="5.3020050">
    <ele>55.7</ele>
    <time>2020-06-14T08:01:56Z</time>
   </trkpt>
   <trkpt lat="51.1673330" lon="5.3020550">
    <ele>55.8</ele>
    <time>2020-06-14T08:01:57Z</time>
   </trkpt>
   <trkpt lat="51.1673700" lon="5.3021070">
    <ele>55.8</ele>
    <time>2020-06-14T08:01:58Z</time>
   </trkpt>
   <trkpt lat="51.1674030" lon="5.3021560">
    <ele>55.9</ele>
    <time>2020-06-14T08:01:59Z</time>
   </trkpt>
   <trkpt lat="51.1674340" lon="5.3022050">
    <ele>56.0</ele>
    <time>2020-06-14T08:02:00Z</time>
   </trkpt>
   <trkpt lat="51.1674640" lon="5.3022510">
    <ele>56.0</ele>
    <time>2020-06-14T08:02:01Z</time>
   </trkpt>
   <trkpt lat="51.1674890" lon="5.3022940">
    <ele>56.1</ele>
    <time>2020-06-14T08:02:02Z</time>
   </trkpt>
   <trkpt lat="51.1675150" lon="5.3023190">
    <ele>56.1</ele>
    <time>2020-06-14T08:02:03Z</time>
   </trkpt>
   <trkpt lat="51.1675430" lon="5.3023400">
    <ele>56.2</ele>
    <time>2020-06-14T08:02:04Z</time>
   </trkpt>
   <trkpt lat="51.1675720" lon="5.3023800">
    <ele>56.2</ele>
    <time>2020-06-14T08:02:05Z</time>
   </trkpt>
   <trkpt lat="51.1675980" lon="5.3024240">
    <ele>56.3</ele>
    <time>2020-06-14T08:02:06Z</time>
   </trkpt>
   <trkpt lat="51.1676230" lon="5.3024660">
    <ele>56.3</ele>
    <time>2020-06-14T08:02:07Z</time>
   </trkpt>
   <trkpt lat="51.1676460" lon="5.3024970">
    <ele>56.4</ele>
    <time>2020-06-14T08:02:08Z</time>
   </trkpt>
   <trkpt lat="51.1676690" lon="5.3025270">
    <ele>56.4</ele>
    <time>2020-06-14T08:02:09Z</time>
   </trkpt>
   <trkpt lat="51.1676930" lon="5.3025580">
    <ele>56.5</ele>
    <time>2020-06-14T08:02:10Z</time>
   </trkpt>
   <trkpt lat="51.1677100" lon="5.3025970">
    <ele>56.5</ele>
    <time>2020-06-14T08:02:11Z</time>
   </trkpt>
   <trkpt lat="51.1677100" lon="5.3026110">
    <ele>56.6</ele>
    <time>2020-06-14T08:02:12Z</time>
   </trkpt>
   <trkpt lat="51.1676850" lon="5.3026540">
    <ele>56.6</ele>
    <time>2020-06-14T08:02:13Z</time>
   </trkpt>
   <trkpt lat="51.1676520" lon="5.3026580">
    <ele>56.6</ele>
    <time>2020-06-14T08:02:14Z</time>
   </trkpt>
   <trkpt lat="51.1676190" lon="5.3026530">
    <ele>56.5</ele>
    <time>2020-06-14T08:02:15Z</time>
   </trkpt>
   <trkpt lat="51.1675880" lon="5.3026500">
    <ele>56.5</ele>
    <time>2020-06-14T08:02:16Z</time>
   </trkpt>
   <trkpt lat="51.1675490" lon="5.3026400">
    <ele>56.4</ele>
    <time>2020-06-14T08:02:17Z</time>
   </trkpt>
   <trkpt lat="51.1674940" lon="5.3026320">
    <ele>56.3</ele>
    <time>2020-06-14T08:02:18Z</time>
   </trkpt>
   <trkpt lat="51.1674400" lon="5.3026260">
    <ele>56.3</ele>
    <time>2020-06-14T08:02:19Z</time>
   </trkpt>
   <trkpt lat="51.1673850" lon="5.3026190">
    <ele>56.2</ele>
    <time>2020-06-14T08:02:20Z</time>
   </trkpt>
   <trkpt lat="51.1673250" lon="5.3026180">
    <ele>56.2</ele>
    <time>2020-06-14T08:02:21Z</time>
   </trkpt>
   <trkpt lat="51.1672620" lon="5.3026350">
    <ele>56.1</ele>
    <time>2020-06-14T08:02:22Z</time>
   </trkpt>
   <trkpt lat="51.1672080" lon="5.3026560">
    <ele>56.1</ele>
    <time>2020-06-14T08:02:23Z</time>
   </trkpt>
   <trkpt lat="51.1671600" lon="5.3026720">
    <ele>56.0</ele>
    <time>2020-06-14T08:02:24Z</time>
   </trkpt>
   <trkpt lat="51.1671080" lon="5.3026900">
    <ele>56.0</ele>
    <time>2020-06-14T08:02:25Z</time>
   </trkpt>
   <trkpt lat="51.1670560" lon="5.3027050">
    <ele>55.9</ele>
    <time>2020-06-14T08:02:26Z</time>
   </trkpt>
   <trkpt lat="51.1669920" lon="5.3027210">
    <ele>55.8</ele>
    <time>2020-06-14T08:02:27Z</time>
   </trkpt>
   <trkpt lat="51.1669350" lon="5.3027280">
    <ele>55.8</ele>
    <time>2020-06-14T08:02:28Z</time>
   </trkpt>
   <trkpt lat="51.1668790" lon="5.3027380">
    <ele>55.7</ele>
    <time>2020-06-14T08:02:29Z</time>
   </trkpt>
   <trkpt lat="51.1668160" lon="5.3027400">
    <ele>55.7</ele>
    <time>2020-06-14T08:02:30Z</time>
   </trkpt>
   <trkpt lat="51.1667560" lon="5.3027310">
    <ele>55.7</ele>
    <time>2020-06-14T08:02:31Z</time>
   </trkpt>
   <trkpt lat="51.1666910" lon="5.3027100">
    <ele>55.6</ele>
    <time>2020-06-14T08:02:32Z</time>
   </trkpt>
   <trkpt lat="51.1666310" lon="5.3026810">
    <ele>55.5</ele>
    <time>2020-06-14T08:02:33Z</time>
   </trkpt>
   <trkpt lat="51.1665630" lon="5.3026490">
    <ele>55.5</ele>
    <time>2020-06-14T08:02:34Z</time>
   </trkpt>
   <trkpt lat="51.1665080" lon="5.3026250">
    <ele>55.5</ele>
    <time>2020-06-14T08:02:35Z</time>
   </trkpt>
   <trkpt lat="51.1664700" lon="5.3026150">
    <ele>55.5</ele>
    <time>2020-06-14T08:02:36Z</time>
   </trkpt>
   <trkpt lat="51.1664370" lon="5.3026000">
    <ele>55.5</ele>
    <time>2020-06-14T08:02:37Z</time>
   </trkpt>
   <trkpt lat="51.1664010" lon="5.3025870">
    <ele>55.6</ele>
    <time>2020-06-14T08:02:38Z</time>
   </trkpt>
   <trkpt lat="51.1663540" lon="5.3025840">
    <ele>56.6</ele>
    <time>2020-06-14T08:02:39Z</time>
   </trkpt>
   <trkpt lat="51.1663210" lon="5.3025800">
    <ele>57.1</ele>
    <time>2020-06-14T08:02:40Z</time>
   </trkpt>
   <trkpt lat="51.1662880" lon="5.3025900">
    <ele>57.6</ele>
    <time>2020-06-14T08:02:41Z</time>
   </trkpt>
   <trkpt lat="51.1662460" lon="5.3026120">
    <ele>58.2</ele>
    <time>2020-06-14T08:02:42Z</time>
   </trkpt>
   <trkpt lat="51.1662180" lon="5.3026390">
    <ele>58.2</ele>
    <time>2020-06-14T08:02:43Z</time>
   </trkpt>
   <trkpt lat="51.1661880" lon="5.3026730">
    <ele>58.1</ele>
    <time>2020-06-14T08:02:44Z</time>
   </trkpt>
   <trkpt lat="51.1661590" lon="5.3027020">
    <ele>58.0</ele>
    <time>2020-06-14T08:02:45Z</time>
   </trkpt>
   <trkpt lat="51.1661300" lon="5.3027300">
    <ele>57.9</ele>
    <time>2020-06-14T08:02:46Z</time>
   </trkpt>
   <trkpt lat="51.1660760" lon="5.3027800">
    <ele>57.7</ele>
    <time>2020-06-14T08:02:47Z</time>
   </trkpt>
   <trkpt lat="51.1660160" lon="5.3028620">
    <ele>57.5</ele>
    <time>2020-06-14T08:02:48Z</time>
   </trkpt>
   <trkpt lat="51.1659690" lon="5.3029390">
    <ele>57.2</ele>
    <time>2020-06-14T08:02:49Z</time>
   </trkpt>
   <trkpt lat="51.1659220" lon="5.3030450">
    <ele>57.0</ele>
    <time>2020-06-14T08:02:50Z</time>
   </trkpt>
   <trkpt lat="51.1658860" lon="5.3031580">
    <ele>56.6</ele>
    <time>2020-06-14T08:02:51Z</time>
   </trkpt>
   <trkpt lat="51.1658680" lon="5.3032680">
    <ele>56.7</ele>
    <time>2020-06-14T08:02:52Z</time>
   </trkpt>
   <trkpt lat="51.1658620" lon="5.3033620">
    <ele>56.7</ele>
    <time>2020-06-14T08:02:53Z</time>
   </trkpt>
   <trkpt lat="51.1658700" lon="5.3034490">
    <ele>56.8</ele>
    <time>2020-06-14T08:02:54Z</time>
   </trkpt>
   <trkpt lat="51.1658850" lon="5.3035280">
    <ele>56.8</ele>
    <time>2020-06-14T08:02:55Z</time>
   </trkpt>
   <trkpt lat="51.1659040" lon="5.3035980">
    <ele>56.9</ele>
    <time>2020-06-14T08:02:56Z</time>
   </trkpt>
   <trkpt lat="51.1659310" lon="5.3036750">
    <ele>56.9</ele>
    <time>2020-06-14T08:02:57Z</time>
   </trkpt>
   <trkpt lat="51.1659570" lon="5.3037410">
    <ele>57.0</ele>
    <time>2020-06-14T08:02:58Z</time>
   </trkpt>
   <trkpt lat="51.1659890" lon="5.3038020">
    <ele>57.0</ele>
    <time>2020-06-14T08:02:59Z</time>
   </trkpt>
   <trkpt lat="51.1660260" lon="5.3038450">
    <ele>57.1</ele>
    <time>2020-06-14T08:03:00Z</time>
   </trkpt>
   <trkpt lat="51.1660670" lon="5.3038850">
    <ele>57.1</ele>
    <time>2020-06-14T08:03:01Z</time>
   </trkpt>
   <trkpt lat="51.1661090" lon="5.3039290">
    <ele>57.1</ele>
    <time>2020-06-14T08:03:02Z</time>
   </trkpt>
   <trkpt lat="51.1661480" lon="5.3039560">
    <ele>57.2</ele>
    <time>2020-06-14T08:03:03Z</time>
   </trkpt>
   <trkpt lat="51.1661830" lon="5.3039760">
    <ele>57.2</ele>
    <time>2020-06-14T08:03:04Z</time>
   </trkpt>
   <trkpt lat="51.1662170" lon="5.3039870">
    <ele>57.3</ele>
    <time>2020-06-14T08:03:05Z</time>
   </trkpt>
   <trkpt lat="51.1662670" lon="5.3039950">
    <ele>57.3</ele>
    <time>2020-06-14T08:03:06Z</time>
   </trkpt>
   <trkpt lat="51.1663140" lon="5.3040020">
    <ele>57.4</ele>
    <time>2020-06-14T08:03:07Z</time>
   </trkpt>
   <trkpt lat="51.1663650" lon="5.3039900">
    <ele>57.4</ele>
    <time>2020-06-14T08:03:08Z</time>
   </trkpt>
   <trkpt lat="51.1664110" lon="5.3039760">
    <ele>57.5</ele>
    <time>2020-06-14T08:03:09Z</time>
   </trkpt>
   <trkpt lat="51.1664610" lon="5.3039480">
    <ele>57.5</ele>
    <time>2020-06-14T08:03:10Z</time>
   </trkpt>
   <trkpt lat="51.1665060" lon="5.3039050">
    <ele>57.6</ele>
    <time>2020-06-14T08:03:11Z</time>
   </trkpt>
   <trkpt lat="51.1665450" lon="5.3038650">
    <ele>57.6</ele>
    <time>2020-06-14T08:03:12Z</time>
   </trkpt>
   <trkpt lat="51.1665840" lon="5.3038130">
    <ele>57.7</ele>
    <time>2020-06-14T08:03:13Z</time>
   </trkpt>
   <trkpt lat="51.1666170" lon="5.3037570">
    <ele>57.8</ele>
    <time>2020-06-14T08:03:14Z</time>
   </trkpt>
   <trkpt lat="51.1666440" lon="5.3036850">
    <ele>57.8</ele>
    <time>2020-06-14T08:03:15Z</time>
   </trkpt>
   <trkpt lat="51.1666710" lon="5.3036250">
    <ele>57.9</ele>
    <time>2020-06-14T08:03:16Z</time>
   </trkpt>
   <trkpt lat="51.1666830" lon="5.3035500">
    <ele>58.0</ele>
    <time>2020-06-14T08:03:17Z</time>
   </trkpt>
   <trkpt lat="51.1666970" lon="5.3034770">
    <ele>58.0</ele>
    <time>2020-06-14T08:03:18Z</time>
   </trkpt>
   <trkpt lat="51.1667090" lon="5.3034110">
    <ele>58.1</ele>
    <time>2020-06-14T08:03:19Z</time>
   </trkpt>
   <trkpt lat="51.1667120" lon="5.3033510">
    <ele>58.1</ele>
    <time>2020-06-14T08:03:20Z</time>
   </trkpt>
   <trkpt lat="51.1667180" lon="5.3032870">
    <ele>58.1</ele>
    <time>2020-06-14T08:03:21Z</time>
   </trkpt>
   <trkpt lat="51.1667230" lon="5.3032390">
    <ele>58.1</ele>
    <time>2020-06-14T08:03:22Z</time>
   </trkpt>
   <trkpt lat="51.1667160" lon="5.3031880">
    <ele>58.1</ele>
    <time>2020-06-14T08:03:23Z</time>
   </trkpt>
   <trkpt lat="51.1667100" lon="5.3031410">
    <ele>58.2</ele>
    <time>2020-06-14T08:03:24Z</time>
   </trkpt>
   <trkpt lat="51.1667050" lon="5.3030910">
    <ele>58.2</ele>
    <time>2020-06-14T08:03:25Z</time>
   </trkpt>
   <trkpt lat="51.1666970" lon="5.3030430">
    <ele>58.2</ele>
    <time>2020-06-14T08:03:26Z</time>
   </trkpt>
   <trkpt lat="51.1666870" lon="5.3029920">
    <ele>58.2</ele>
    <time>2020-06-14T08:03:27Z</time>
   </trkpt>
   <trkpt lat="51.1666730" lon="5.3029520">
    <ele>58.2</ele>
    <time>2020-06-14T08:03:28Z</time>
   </trkpt>
   <trkpt lat="51.1666520" lon="5.3028960">
    <ele>58.3</ele>
    <time>2020-06-14T08:03:29Z</time>
   </trkpt>
   <trkpt lat="51.1666310" lon="5.3028430">
    <ele>58.3</ele>
    <time>2020-06-14T08:03:30Z</time>
   </trkpt>
   <trkpt lat="51.1666060" lon="5.3027830">
    <ele>58.3</ele>
    <time>2020-06-14T08:03:31Z</time>
   </trkpt>
   <trkpt lat="51.1665710" lon="5.3027340">
    <ele>58.3</ele>
    <time>2020-06-14T08:03:32Z</time>
   </trkpt>
   <trkpt lat="51.1665360" lon="5.3026890">
    <ele>58.3</ele>
    <time>2020-06-14T08:03:33Z</time>
   </trkpt>
   <trkpt lat="51.1664960" lon="5.3026510">
    <ele>58.3</ele>
    <time>2020-06-14T08:03:34Z</time>
   </trkpt>
   <trkpt lat="51.1664480" lon="5.3026280">
    <ele>57.4</ele>
    <time>2020-06-14T08:03:35Z</time>
   </trkpt>
   <trkpt lat="51.1664040" lon="5.3025940">
    <ele>56.5</ele>
    <time>2020-06-14T08:03:36Z</time>
   </trkpt>
   <trkpt lat="51.1663580" lon="5.3025710">
    <ele>55.7</ele>
    <time>2020-06-14T08:03:37Z</time>
   </trkpt>
   <trkpt lat="51.1663110" lon="5.3025530">
    <ele>55.8</ele>
    <time>2020-06-14T08:03:38Z</time>
   </trkpt>
   <trkpt lat="51.1662580" lon="5.3025500">
    <ele>55.9</ele>
    <time>2020-06-14T08:03:39Z</time>
   </trkpt>
   <trkpt lat="51.1662020" lon="5.3025680">
    <ele>55.9</ele>
    <time>2020-06-14T08:03:40Z</time>
   </trkpt>
   <trkpt lat="51.1661420" lon="5.3026030">
    <ele>56.0</ele>
    <time>2020-06-14T08:03:41Z</time>
   </trkpt>
   <trkpt lat="51.1660860" lon="5.3026430">
    <ele>56.1</ele>
    <time>2020-06-14T08:03:42Z</time>
   </trkpt>
   <trkpt lat="51.1660340" lon="5.3027090">
    <ele>56.2</ele>
    <time>2020-06-14T08:03:43Z</time>
   </trkpt>
   <trkpt lat="51.1659890" lon="5.3027790">
    <ele>56.3</ele>
    <time>2020-06-14T08:03:44Z</time>
   </trkpt>
   <trkpt lat="51.1659490" lon="5.3028680">
    <ele>56.4</ele>
    <time>2020-06-14T08:03:45Z</time>
   </trkpt>
   <trkpt lat="51.1659170" lon="5.3029660">
    <ele>56.5</ele>
    <time>2020-06-14T08:03:46Z</time>
   </trkpt>
   <trkpt lat="51.1658910" lon="5.3030820">
    <ele>56.6</ele>
    <time>2020-06-14T08:03:47Z</time>
   </trkpt>
   <trkpt lat="51.1658750" lon="5.3031970">
    <ele>56.6</ele>
    <time>2020-06-14T08:03:48Z</time>
   </trkpt>
   <trkpt lat="51.1658680" lon="5.3033050">
    <ele>56.7</ele>
    <time>2020-06-14T08:03:49Z</time>
   </trkpt>
   <trkpt lat="51.1658710" lon="5.3034060">
    <ele>56.8</ele>
    <time>2020-06-14T08:03:50Z</time>
   </trkpt>
   <trkpt lat="51.1658800" lon="5.3034880">
    <ele>56.8</ele>
    <time>2020-06-14T08:03:51Z</time>
   </trkpt>
   <trkpt lat="51.1658930" lon="5.3035740">
    <ele>56.9</ele>
    <time>2020-06-14T08:03:52Z</time>
   </trkpt>
   <trkpt lat="51.1659180" lon="5.3036600">
    <ele>56.9</ele>
    <time>2020-06-14T08:03:53Z</time>
   </trkpt>
   <trkpt lat="51.1659470" lon="5.3037420">
    <ele>57.0</ele>
    <time>2020-06-14T08:03:54Z</time>
   </trkpt>
   <trkpt lat="51.1660030" lon="5.3038030">
    <ele>57.0</ele>
    <time>2020-06-14T08:03:55Z</time>
   </trkpt>
   <trkpt lat="51.1660640" lon="5.3038650">
    <ele>57.1</ele>
    <time>2020-06-14T08:03:56Z</time>
   </trkpt>
   <trkpt lat="51.1661250" lon="5.3039110">
    <ele>57.2</ele>
    <time>2020-06-14T08:03:57Z</time>
   </trkpt>
   <trkpt lat="51.1661790" lon="5.3039450">
    <ele>57.2</ele>
    <time>2020-06-14T08:03:58Z</time>
   </trkpt>
   <trkpt lat="51.1662380" lon="5.3039650">
    <ele>57.3</ele>
    <time>2020-06-14T08:03:59Z</time>
   </trkpt>
   <trkpt lat="51.1662990" lon="5.3039690">
    <ele>57.4</ele>
    <time>2020-06-14T08:04:00Z</time>
   </trkpt>
   <trkpt lat="51.1663670" lon="5.3039510">
    <ele>57.5</ele>
    <time>2020-06-14T08:04:01Z</time>
   </trkpt>
   <trkpt lat="51.1664360" lon="5.3039100">
    <ele>57.5</ele>
    <time>2020-06-14T08:04:02Z</time>
   </trkpt>
   <trkpt lat="51.1664990" lon="5.3038530">
    <ele>57.6</ele>
    <time>2020-06-14T08:04:03Z</time>
   </trkpt>
   <trkpt lat="51.1665590" lon="5.3037630">
    <ele>57.7</ele>
    <time>2020-06-14T08:04:04Z</time>
   </trkpt>
   <trkpt lat="51.1666170" lon="5.3036650">
    <ele>57.8</ele>
    <time>2020-06-14T08:04:05Z</time>
   </trkpt>
   <trkpt lat="51.1666590" lon="5.3035670">
    <ele>57.9</ele>
    <time>2020-06-14T08:04:06Z</time>
   </trkpt>
   <trkpt lat="51.1666850" lon="5.3034710">
    <ele>58.0</ele>
    <time>2020-06-14T08:04:07Z</time>
   </trkpt>
   <trkpt lat="51.1666850" lon="5.3033550">
    <ele>58.1</ele>
    <time>2020-06-14T08:04:08Z</time>
   </trkpt>
   <trkpt lat="51.1666780" lon="5.3032290">
    <ele>58.1</ele>
    <time>2020-06-14T08:04:09Z</time>
   </trkpt>
   <trkpt lat="51.1666700" lon="5.3031190">
    <ele>58.2</ele>
    <time>2020-06-14T08:04:10Z</time>
   </trkpt>
   <trkpt lat="51.1666630" lon="5.3030240">
    <ele>58.2</ele>
    <time>2020-06-14T08:04:11Z</time>
   </trkpt>
   <trkpt lat="51.1666840" lon="5.3029070">
    <ele>57.1</ele>
    <time>2020-06-14T08:04:12Z</time>
   </trkpt>
   <trkpt lat="51.1667220" lon="5.3028060">
    <ele>55.9</ele>
    <time>2020-06-14T08:04:13Z</time>
   </trkpt>
   <trkpt lat="51.1667670" lon="5.3027300">
    <ele>55.8</ele>
    <time>2020-06-14T08:04:14Z</time>
   </trkpt>
   <trkpt lat="51.1668130" lon="5.3026830">
    <ele>55.7</ele>
    <time>2020-06-14T08:04:15Z</time>
   </trkpt>
   <trkpt lat="51.1668680" lon="5.3026620">
    <ele>55.7</ele>
    <time>2020-06-14T08:04:16Z</time>
   </trkpt>
   <trkpt lat="51.1669270" lon="5.3026470">
    <ele>55.8</ele>
    <time>2020-06-14T08:04:17Z</time>
   </trkpt>
   <trkpt lat="51.1669820" lon="5.3026330">
    <ele>55.8</ele>
    <time>2020-06-14T08:04:18Z</time>
   </trkpt>
   <trkpt lat="51.1670440" lon="5.3026110">
    <ele>55.9</ele>
    <time>2020-06-14T08:04:19Z</time>
   </trkpt>
   <trkpt lat="51.1671120" lon="5.3025840">
    <ele>56.0</ele>
    <time>2020-06-14T08:04:20Z</time>
   </trkpt>
   <trkpt lat="51.1671740" lon="5.3025610">
    <ele>56.1</ele>
    <time>2020-06-14T08:04:21Z</time>
   </trkpt>
   <trkpt lat="51.1672480" lon="5.3025390">
    <ele>56.1</ele>
    <time>2020-06-14T08:04:22Z</time>
   </trkpt>
   <trkpt lat="51.1673100" lon="5.3025190">
    <ele>56.2</ele>
    <time>2020-06-14T08:04:23Z</time>
   </trkpt>
   <trkpt lat="51.1673680" lon="5.3025130">
    <ele>56.2</ele>
    <time>2020-06-14T08:04:24Z</time>
   </trkpt>
   <trkpt lat="51.1674240" lon="5.3025070">
    <ele>56.3</ele>
    <time>2020-06-14T08:04:25Z</time>
   </trkpt>
   <trkpt lat="51.1674850" lon="5.3025180">
    <ele>56.3</ele>
    <time>2020-06-14T08:04:26Z</time>
   </trkpt>
   <trkpt lat="51.1675380" lon="5.3025270">
    <ele>56.4</ele>
    <time>2020-06-14T08:04:27Z</time>
   </trkpt>
   <trkpt lat="51.1675910" lon="5.3025240">
    <ele>56.5</ele>
    <time>2020-06-14T08:04:28Z</time>
   </trkpt>
   <trkpt lat="51.1676320" lon="5.3025190">
    <ele>56.6</ele>
    <time>2020-06-14T08:04:29Z</time>
   </trkpt>
   <trkpt lat="51.1676610" lon="5.3025090">
    <ele>56.6</ele>
    <time>2020-06-14T08:04:30Z</time>
   </trkpt>
   <trkpt lat="51.1676980" lon="5.3024990">
    <ele>56.7</ele>
    <time>2020-06-14T08:04:31Z</time>
   </trkpt>
   <trkpt lat="51.1677140" lon="5.3025010">
    <ele>56.7</ele>
    <time>2020-06-14T08:04:32Z</time>
   </trkpt>
   <trkpt lat="51.1677470" lon="5.3025550">
    <ele>56.8</ele>
    <time>2020-06-14T08:04:33Z</time>
   </trkpt>
   <trkpt lat="51.1677540" lon="5.3026200">
    <ele>56.7</ele>
    <time>2020-06-14T08:04:34Z</time>
   </trkpt>
   <trkpt lat="51.1677320" lon="5.3026720">
    <ele>56.6</ele>
    <time>2020-06-14T08:04:35Z</time>
   </trkpt>
   <trkpt lat="51.1677020" lon="5.3027380">
    <ele>56.5</ele>
    <time>2020-06-14T08:04:36Z</time>
   </trkpt>
   <trkpt lat="51.1676730" lon="5.3028120">
    <ele>56.4</ele>
    <time>2020-06-14T08:04:37Z</time>
   </trkpt>
   <trkpt lat="51.1676500" lon="5.3028940">
    <ele>56.3</ele>
    <time>2020-06-14T08:04:38Z</time>
   </trkpt>
   <trkpt lat="51.1676240" lon="5.3029920">
    <ele>56.1</ele>
    <time>2020-06-14T08:04:39Z</time>
   </trkpt>
   <trkpt lat="51.1675980" lon="5.3031040">
    <ele>56.0</ele>
    <time>2020-06-14T08:04:40Z</time>
   </trkpt>
   <trkpt lat="51.1675660" lon="5.3032010">
    <ele>55.9</ele>
    <time>2020-06-14T08:04:41Z</time>
   </trkpt>
   <trkpt lat="51.1675330" lon="5.3032960">
    <ele>55.8</ele>
    <time>2020-06-14T08:04:42Z</time>
   </trkpt>
   <trkpt lat="51.1674930" lon="5.3034010">
    <ele>55.7</ele>
    <time>2020-06-14T08:04:43Z</time>
   </trkpt>
   <trkpt lat="51.1674490" lon="5.3035030">
    <ele>55.6</ele>
    <time>2020-06-14T08:04:44Z</time>
   </trkpt>
   <trkpt lat="51.1674080" lon="5.3036140">
    <ele>55.6</ele>
    <time>2020-06-14T08:04:45Z</time>
   </trkpt>
   <trkpt lat="51.1673670" lon="5.3037330">
    <ele>55.5</ele>
    <time>2020-06-14T08:04:46Z</time>
   </trkpt>
   <trkpt lat="51.1673330" lon="5.3038340">
    <ele>55.5</ele>
    <time>2020-06-14T08:04:47Z</time>
   </trkpt>
   <trkpt lat="51.1673010" lon="5.3039460">
    <ele>55.4</ele>
    <time>2020-06-14T08:04:48Z</time>
   </trkpt>
   <trkpt lat="51.1672600" lon="5.3040550">
    <ele>55.4</ele>
    <time>2020-06-14T08:04:49Z</time>
   </trkpt>
   <trkpt lat="51.1672190" lon="5.3041710">
    <ele>55.3</ele>
    <time>2020-06-14T08:04:50Z</time>
   </trkpt>
   <trkpt lat="51.1671880" lon="5.3042780">
    <ele>55.3</ele>
    <time>2020-06-14T08:04:51Z</time>
   </trkpt>
   <trkpt lat="51.1671560" lon="5.3043830">
    <ele>55.2</ele>
    <time>2020-06-14T08:04:52Z</time>
   </trkpt>
   <trkpt lat="51.1671220" lon="5.3044940">
    <ele>55.3</ele>
    <time>2020-06-14T08:04:53Z</time>
   </trkpt>
   <trkpt lat="51.1670860" lon="5.3045910">
    <ele>55.3</ele>
    <time>2020-06-14T08:04:54Z</time>
   </trkpt>
   <trkpt lat="51.1670520" lon="5.3046900">
    <ele>55.3</ele>
    <time>2020-06-14T08:04:55Z</time>
   </trkpt>
   <trkpt lat="51.1670240" lon="5.3047890">
    <ele>55.4</ele>
    <time>2020-06-14T08:04:56Z</time>
   </trkpt>
   <trkpt lat="51.1670000" lon="5.3049050">
    <ele>55.4</ele>
    <time>2020-06-14T08:04:57Z</time>
   </trkpt>
   <trkpt lat="51.1669730" lon="5.3050130">
    <ele>55.5</ele>
    <time>2020-06-14T08:04:58Z</time>
   </trkpt>
   <trkpt lat="51.1669460" lon="5.3051150">
    <ele>55.5</ele>
    <time>2020-06-14T08:04:59Z</time>
   </trkpt>
   <trkpt lat="51.1669230" lon="5.3052160">
    <ele>55.6</ele>
    <time>2020-06-14T08:05:00Z</time>
   </trkpt>
   <trkpt lat="51.1668940" lon="5.3053140">
    <ele>55.7</ele>
    <time>2020-06-14T08:05:01Z</time>
   </trkpt>
   <trkpt lat="51.1668660" lon="5.3054240">
    <ele>55.8</ele>
    <time>2020-06-14T08:05:02Z</time>
   </trkpt>
   <trkpt lat="51.1668370" lon="5.3055260">
    <ele>55.8</ele>
    <time>2020-06-14T08:05:03Z</time>
   </trkpt>
   <trkpt lat="51.1668110" lon="5.3056300">
    <ele>55.8</ele>
    <time>2020-06-14T08:05:04Z</time>
   </trkpt>
   <trkpt lat="51.1667910" lon="5.3057270">
    <ele>55.8</ele>
    <time>2020-06-14T08:05:05Z</time>
   </trkpt>
   <trkpt lat="51.1667670" lon="5.3058290">
    <ele>55.9</ele>
    <time>2020-06-14T08:05:06Z</time>
   </trkpt>
   <trkpt lat="51.1667380" lon="5.3059250">
    <ele>55.9</ele>
    <time>2020-06-14T08:05:07Z</time>
   </trkpt>
   <trkpt lat="51.1667110" lon="5.3060340">
    <ele>56.0</ele>
    <time>2020-06-14T08:05:08Z</time>
   </trkpt>
   <trkpt lat="51.1666800" lon="5.3061380">
    <ele>56.0</ele>
    <time>2020-06-14T08:05:09Z</time>
   </trkpt>
   <trkpt lat="51.1666500" lon="5.3062360">
    <ele>56.1</ele>
    <time>2020-06-14T08:05:10Z</time>
   </trkpt>
   <trkpt lat="51.1666200" lon="5.3063370">
    <ele>56.1</ele>
    <time>2020-06-14T08:05:11Z</time>
   </trkpt>
   <trkpt lat="51.1665910" lon="5.3064350">
    <ele>56.1</ele>
    <time>2020-06-14T08:05:12Z</time>
   </trkpt>
   <trkpt lat="51.1665720" lon="5.3065330">
    <ele>56.1</ele>
    <time>2020-06-14T08:05:13Z</time>
   </trkpt>
   <trkpt lat="51.1665510" lon="5.3066360">
    <ele>56.1</ele>
    <time>2020-06-14T08:05:14Z</time>
   </trkpt>
   <trkpt lat="51.1665380" lon="5.3067380">
    <ele>56.2</ele>
    <time>2020-06-14T08:05:15Z</time>
   </trkpt>
   <trkpt lat="51.1665180" lon="5.3068300">
    <ele>56.2</ele>
    <time>2020-06-14T08:05:16Z</time>
   </trkpt>
   <trkpt lat="51.1664660" lon="5.3069110">
    <ele>56.2</ele>
    <time>2020-06-14T08:05:17Z</time>
   </trkpt>
   <trkpt lat="51.1664330" lon="5.3070040">
    <ele>56.1</ele>
    <time>2020-06-14T08:05:18Z</time>
   </trkpt>
   <trkpt lat="51.1664050" lon="5.3070980">
    <ele>56.1</ele>
    <time>2020-06-14T08:05:19Z</time>
   </trkpt>
   <trkpt lat="51.1663800" lon="5.3071890">
    <ele>56.1</ele>
    <time>2020-06-14T08:05:20Z</time>
   </trkpt>
   <trkpt lat="51.1663530" lon="5.3072840">
    <ele>56.0</ele>
    <time>2020-06-14T08:05:21Z</time>
   </trkpt>
   <trkpt lat="51.1663250" lon="5.3073840">
    <ele>56.0</ele>
    <time>2020-06-14T08:05:22Z</time>
   </trkpt>
   <trkpt lat="51.1662970" lon="5.3074800">
    <ele>56.0</ele>
    <time>2020-06-14T08:05:23Z</time>
   </trkpt>
   <trkpt lat="51.1662680" lon="5.3075810">
    <ele>56.0</ele>
    <time>2020-06-14T08:05:24Z</time>
   </trkpt>
   <trkpt lat="51.1662430" lon="5.3076890">
    <ele>56.0</ele>
    <time>2020-06-14T08:05:25Z</time>
   </trkpt>
   <trkpt lat="51.1662180" lon="5.3078040">
    <ele>56.0</ele>
    <time>2020-06-14T08:05:26Z</time>
   </trkpt>
   <trkpt lat="51.1661780" lon="5.3079050">
    <ele>56.0</ele>
    <time>2020-06-14T08:05:27Z</time>
   </trkpt>
   <trkpt lat="51.1661500" lon="5.3080150">
    <ele>56.0</ele>
    <time>2020-06-14T08:05:28Z</time>
   </trkpt>
   <trkpt lat="51.1661180" lon="5.3081220">
    <ele>56.0</ele>
    <time>2020-06-14T08:05:29Z</time>
   </trkpt>
   <trkpt lat="51.1660840" lon="5.3082280">
    <ele>56.0</ele>
    <time>2020-06-14T08:05:30Z</time>
   </trkpt>
   <trkpt lat="51.1660500" lon="5.3083420">
    <ele>56.0</ele>
    <time>2020-06-14T08:05:31Z</time>
   </trkpt>
   <trkpt lat="51.1660190" lon="5.3084570">
    <ele>56.0</ele>
    <time>2020-06-14T08:05:32Z</time>
   </trkpt>
   <trkpt lat="51.1659920" lon="5.3085710">
    <ele>56.1</ele>
    <time>2020-06-14T08:05:33Z</time>
   </trkpt>
   <trkpt lat="51.1659610" lon="5.3086890">
    <ele>56.1</ele>
    <time>2020-06-14T08:05:34Z</time>
   </trkpt>
   <trkpt lat="51.1659310" lon="5.3088030">
    <ele>56.1</ele>
    <time>2020-06-14T08:05:35Z</time>
   </trkpt>
   <trkpt lat="51.1659050" lon="5.3089160">
    <ele>56.1</ele>
    <time>2020-06-14T08:05:36Z</time>
   </trkpt>
   <trkpt lat="51.1658520" lon="5.3090190">
    <ele>56.2</ele>
    <time>2020-06-14T08:05:37Z</time>
   </trkpt>
   <trkpt lat="51.1658200" lon="5.3091280">
    <ele>56.2</ele>
    <time>2020-06-14T08:05:38Z</time>
   </trkpt>
   <trkpt lat="51.1657880" lon="5.3092390">
    <ele>56.3</ele>
    <time>2020-06-14T08:05:39Z</time>
   </trkpt>
   <trkpt lat="51.1657570" lon="5.3093490">
    <ele>56.3</ele>
    <time>2020-06-14T08:05:40Z</time>
   </trkpt>
   <trkpt lat="51.1657280" lon="5.3094600">
    <ele>56.3</ele>
    <time>2020-06-14T08:05:41Z</time>
   </trkpt>
   <trkpt lat="51.1656960" lon="5.3095690">
    <ele>56.3</ele>
    <time>2020-06-14T08:05:42Z</time>
   </trkpt>
   <trkpt lat="51.1656650" lon="5.3096770">
    <ele>56.3</ele>
    <time>2020-06-14T08:05:43Z</time>
   </trkpt>
   <trkpt lat="51.1656350" lon="5.3097850">
    <ele>56.3</ele>
    <time>2020-06-14T08:05:44Z</time>
   </trkpt>
   <trkpt lat="51.1656070" lon="5.3098940">
    <ele>56.2</ele>
    <time>2020-06-14T08:05:45Z</time>
   </trkpt>
   <trkpt lat="51.1655790" lon="5.3100040">
    <ele>56.2</ele>
    <time>2020-06-14T08:05:46Z</time>
   </trkpt>
   <trkpt lat="51.1655510" lon="5.3101110">
    <ele>56.2</ele>
    <time>2020-06-14T08:05:47Z</time>
   </trkpt>
   <trkpt lat="51.1655240" lon="5.3102200">
    <ele>56.2</ele>
    <time>2020-06-14T08:05:48Z</time>
   </trkpt>
   <trkpt lat="51.1654930" lon="5.3103240">
    <ele>56.1</ele>
    <time>2020-06-14T08:05:49Z</time>
   </trkpt>
   <trkpt lat="51.1654620" lon="5.3104230">
    <ele>56.1</ele>
    <time>2020-06-14T08:05:50Z</time>
   </trkpt>
   <trkpt lat="51.1654310" lon="5.3105220">
    <ele>56.1</ele>
    <time>2020-06-14T08:05:51Z</time>
   </trkpt>
   <trkpt lat="51.1654050" lon="5.3106200">
    <ele>56.1</ele>
    <time>2020-06-14T08:05:52Z</time>
   </trkpt>
   <trkpt lat="51.1653800" lon="5.3107170">
    <ele>56.0</ele>
    <time>2020-06-14T08:05:53Z</time>
   </trkpt>
   <trkpt lat="51.1653520" lon="5.3108110">
    <ele>56.0</ele>
    <time>2020-06-14T08:05:54Z</time>
   </trkpt>
   <trkpt lat="51.1653180" lon="5.3108990">
    <ele>56.0</ele>
    <time>2020-06-14T08:05:55Z</time>
   </trkpt>
   <trkpt lat="51.1652840" lon="5.3109820">
    <ele>56.0</ele>
    <time>2020-06-14T08:05:56Z</time>
   </trkpt>
   <trkpt lat="51.1652560" lon="5.3110710">
    <ele>56.0</ele>
    <time>2020-06-14T08:05:57Z</time>
   </trkpt>
   <trkpt lat="51.1652310" lon="5.3111550">
    <ele>56.0</ele>
    <time>2020-06-14T08:05:58Z</time>
   </trkpt>
   <trkpt lat="51.1652040" lon="5.3112370">
    <ele>56.0</ele>
    <time>2020-06-14T08:05:59Z</time>
   </trkpt>
   <trkpt lat="51.1651780" lon="5.3113200">
    <ele>56.1</ele>
    <time>2020-06-14T08:06:00Z</time>
   </trkpt>
   <trkpt lat="51.1651480" lon="5.3114030">
    <ele>56.1</ele>
    <time>2020-06-14T08:06:01Z</time>
   </trkpt>
   <trkpt lat="51.1651190" lon="5.3114950">
    <ele>56.1</ele>
    <time>2020-06-14T08:06:02Z</time>
   </trkpt>
   <trkpt lat="51.1650990" lon="5.3116030">
    <ele>56.1</ele>
    <time>2020-06-14T08:06:03Z</time>
   </trkpt>
   <trkpt lat="51.1650720" lon="5.3117110">
    <ele>56.0</ele>
    <time>2020-06-14T08:06:04Z</time>
   </trkpt>
   <trkpt lat="51.1650360" lon="5.3118190">
    <ele>56.0</ele>
    <time>2020-06-14T08:06:05Z</time>
   </trkpt>
   <trkpt lat="51.1650060" lon="5.3119320">
    <ele>55.9</ele>
    <time>2020-06-14T08:06:06Z</time>
   </trkpt>
   <trkpt lat="51.1649760" lon="5.3120460">
    <ele>55.9</ele>
    <time>2020-06-14T08:06:07Z</time>
   </trkpt>
   <trkpt lat="51.1649440" lon="5.3121620">
    <ele>55.9</ele>
    <time>2020-06-14T08:06:08Z</time>
   </trkpt>
   <trkpt lat="51.1649080" lon="5.3122760">
    <ele>55.8</ele>
    <time>2020-06-14T08:06:09Z</time>
   </trkpt>
   <trkpt lat="51.1648770" lon="5.3123910">
    <ele>55.8</ele>
    <time>2020-06-14T08:06:10Z</time>
   </trkpt>
   <trkpt lat="51.1648450" lon="5.3125040">
    <ele>55.8</ele>
    <time>2020-06-14T08:06:11Z</time>
   </trkpt>
   <trkpt lat="51.1648160" lon="5.3126210">
    <ele>55.7</ele>
    <time>2020-06-14T08:06:12Z</time>
   </trkpt>
   <trkpt lat="51.1647870" lon="5.3127350">
    <ele>55.7</ele>
    <time>2020-06-14T08:06:13Z</time>
   </trkpt>
   <trkpt lat="51.1647520" lon="5.3128470">
    <ele>55.7</ele>
    <time>2020-06-14T08:06:14Z</time>
   </trkpt>
   <trkpt lat="51.1647180" lon="5.3129590">
    <ele>55.7</ele>
    <time>2020-06-14T08:06:15Z</time>
   </trkpt>
   <trkpt lat="51.1646790" lon="5.3130680">
    <ele>55.6</ele>
    <time>2020-06-14T08:06:16Z</time>
   </trkpt>
   <trkpt lat="51.1646480" lon="5.3131840">
    <ele>55.6</ele>
    <time>2020-06-14T08:06:17Z</time>
   </trkpt>
   <trkpt lat="51.1646170" lon="5.3132920">
    <ele>55.5</ele>
    <time>2020-06-14T08:06:18Z</time>
   </trkpt>
   <trkpt lat="51.1645860" lon="5.3133970">
    <ele>55.5</ele>
    <time>2020-06-14T08:06:19Z</time>
   </trkpt>
   <trkpt lat="51.1645540" lon="5.3134990">
    <ele>55.4</ele>
    <time>2020-06-14T08:06:20Z</time>
   </trkpt>
   <trkpt lat="51.1645250" lon="5.3136000">
    <ele>55.4</ele>
    <time>2020-06-14T08:06:21Z</time>
   </trkpt>
   <trkpt lat="51.1644690" lon="5.3138040">
    <ele>55.3</ele>
    <time>2020-06-14T08:06:22Z</time>
   </trkpt>
   <trkpt lat="51.1644390" lon="5.3139030">
    <ele>55.3</ele>
    <time>2020-06-14T08:06:23Z</time>
   </trkpt>
   <trkpt lat="51.1644130" lon="5.3140040">
    <ele>55.2</ele>
    <time>2020-06-14T08:06:24Z</time>
   </trkpt>
   <trkpt lat="51.1643860" lon="5.3141060">
    <ele>55.2</ele>
    <time>2020-06-14T08:06:25Z</time>
   </trkpt>
   <trkpt lat="51.1643570" lon="5.3142080">
    <ele>55.2</ele>
    <time>2020-06-14T08:06:26Z</time>
   </trkpt>
   <trkpt lat="51.1643300" lon="5.3143100">
    <ele>55.2</ele>
    <time>2020-06-14T08:06:27Z</time>
   </trkpt>
   <trkpt lat="51.1643030" lon="5.3144130">
    <ele>55.3</ele>
    <time>2020-06-14T08:06:28Z</time>
   </trkpt>
   <trkpt lat="51.1642770" lon="5.3145170">
    <ele>55.3</ele>
    <time>2020-06-14T08:06:29Z</time>
   </trkpt>
   <trkpt lat="51.1642450" lon="5.3146260">
    <ele>55.3</ele>
    <time>2020-06-14T08:06:30Z</time>
   </trkpt>
   <trkpt lat="51.1642110" lon="5.3147360">
    <ele>55.3</ele>
    <time>2020-06-14T08:06:31Z</time>
   </trkpt>
   <trkpt lat="51.1641810" lon="5.3148460">
    <ele>55.3</ele>
    <time>2020-06-14T08:06:32Z</time>
   </trkpt>
   <trkpt lat="51.1641470" lon="5.3149530">
    <ele>55.2</ele>
    <time>2020-06-14T08:06:33Z</time>
   </trkpt>
   <trkpt lat="51.1641090" lon="5.3150580">
    <ele>55.2</ele>
    <time>2020-06-14T08:06:34Z</time>
   </trkpt>
   <trkpt lat="51.1640760" lon="5.3151610">
    <ele>55.1</ele>
    <time>2020-06-14T08:06:35Z</time>
   </trkpt>
   <trkpt lat="51.1640430" lon="5.3152620">
    <ele>55.1</ele>
    <time>2020-06-14T08:06:36Z</time>
   </trkpt>
   <trkpt lat="51.1640130" lon="5.3153680">
    <ele>55.0</ele>
    <time>2020-06-14T08:06:37Z</time>
   </trkpt>
   <trkpt lat="51.1639820" lon="5.3154720">
    <ele>54.9</ele>
    <time>2020-06-14T08:06:38Z</time>
   </trkpt>
   <trkpt lat="51.1639530" lon="5.3155730">
    <ele>54.8</ele>
    <time>2020-06-14T08:06:39Z</time>
   </trkpt>
   <trkpt lat="51.1639230" lon="5.3156720">
    <ele>54.8</ele>
    <time>2020-06-14T08:06:40Z</time>
   </trkpt>
   <trkpt lat="51.1638760" lon="5.3157680">
    <ele>54.7</ele>
    <time>2020-06-14T08:06:41Z</time>
   </trkpt>
   <trkpt lat="51.1638420" lon="5.3158640">
    <ele>54.6</ele>
    <time>2020-06-14T08:06:42Z</time>
   </trkpt>
   <trkpt lat="51.1638140" lon="5.3159580">
    <ele>54.5</ele>
    <time>2020-06-14T08:06:43Z</time>
   </trkpt>
   <trkpt lat="51.1637900" lon="5.3160560">
    <ele>54.5</ele>
    <time>2020-06-14T08:06:44Z</time>
   </trkpt>
   <trkpt lat="51.1637640" lon="5.3161500">
    <ele>54.4</ele>
    <time>2020-06-14T08:06:45Z</time>
   </trkpt>
   <trkpt lat="51.1637340" lon="5.3162410">
    <ele>54.3</ele>
    <time>2020-06-14T08:06:46Z</time>
   </trkpt>
   <trkpt lat="51.1636980" lon="5.3163340">
    <ele>54.2</ele>
    <time>2020-06-14T08:06:47Z</time>
   </trkpt>
   <trkpt lat="51.1636680" lon="5.3164390">
    <ele>54.1</ele>
    <time>2020-06-14T08:06:48Z</time>
   </trkpt>
   <trkpt lat="51.1636350" lon="5.3165560">
    <ele>54.0</ele>
    <time>2020-06-14T08:06:49Z</time>
   </trkpt>
   <trkpt lat="51.1636000" lon="5.3166720">
    <ele>53.9</ele>
    <time>2020-06-14T08:06:50Z</time>
   </trkpt>
   <trkpt lat="51.1635650" lon="5.3167790">
    <ele>53.8</ele>
    <time>2020-06-14T08:06:51Z</time>
   </trkpt>
   <trkpt lat="51.1635340" lon="5.3168840">
    <ele>53.7</ele>
    <time>2020-06-14T08:06:52Z</time>
   </trkpt>
   <trkpt lat="51.1635090" lon="5.3169970">
    <ele>53.7</ele>
    <time>2020-06-14T08:06:53Z</time>
   </trkpt>
   <trkpt lat="51.1634820" lon="5.3171170">
    <ele>53.6</ele>
    <time>2020-06-14T08:06:54Z</time>
   </trkpt>
   <trkpt lat="51.1634500" lon="5.3172440">
    <ele>53.6</ele>
    <time>2020-06-14T08:06:55Z</time>
   </trkpt>
   <trkpt lat="51.1634230" lon="5.3173730">
    <ele>53.6</ele>
    <time>2020-06-14T08:06:56Z</time>
   </trkpt>
   <trkpt lat="51.1633940" lon="5.3174900">
    <ele>53.5</ele>
    <time>2020-06-14T08:06:57Z</time>
   </trkpt>
   <trkpt lat="51.1633620" lon="5.3176080">
    <ele>53.5</ele>
    <time>2020-06-14T08:06:58Z</time>
   </trkpt>
   <trkpt lat="51.1633310" lon="5.3177280">
    <ele>53.4</ele>
    <time>2020-06-14T08:06:59Z</time>
   </trkpt>
   <trkpt lat="51.1632990" lon="5.3178440">
    <ele>53.3</ele>
    <time>2020-06-14T08:07:00Z</time>
   </trkpt>
   <trkpt lat="51.1632760" lon="5.3179710">
    <ele>53.2</ele>
    <time>2020-06-14T08:07:01Z</time>
   </trkpt>
   <trkpt lat="51.1632400" lon="5.3180860">
    <ele>53.1</ele>
    <time>2020-06-14T08:07:02Z</time>
   </trkpt>
   <trkpt lat="51.1632030" lon="5.3181900">
    <ele>53.0</ele>
    <time>2020-06-14T08:07:03Z</time>
   </trkpt>
   <trkpt lat="51.1631700" lon="5.3182960">
    <ele>52.9</ele>
    <time>2020-06-14T08:07:04Z</time>
   </trkpt>
   <trkpt lat="51.1631460" lon="5.3184100">
    <ele>52.9</ele>
    <time>2020-06-14T08:07:05Z</time>
   </trkpt>
   <trkpt lat="51.1631230" lon="5.3185190">
    <ele>52.8</ele>
    <time>2020-06-14T08:07:06Z</time>
   </trkpt>
   <trkpt lat="51.1630960" lon="5.3186260">
    <ele>52.8</ele>
    <time>2020-06-14T08:07:07Z</time>
   </trkpt>
   <trkpt lat="51.1630680" lon="5.3187350">
    <ele>52.8</ele>
    <time>2020-06-14T08:07:08Z</time>
   </trkpt>
   <trkpt lat="51.1630390" lon="5.3188470">
    <ele>52.8</ele>
    <time>2020-06-14T08:07:09Z</time>
   </trkpt>
   <trkpt lat="51.1630120" lon="5.3189530">
    <ele>52.8</ele>
    <time>2020-06-14T08:07:10Z</time>
   </trkpt>
   <trkpt lat="51.1629880" lon="5.3190530">
    <ele>52.8</ele>
    <time>2020-06-14T08:07:11Z</time>
   </trkpt>
   <trkpt lat="51.1629600" lon="5.3191490">
    <ele>52.8</ele>
    <time>2020-06-14T08:07:12Z</time>
   </trkpt>
   <trkpt lat="51.1629410" lon="5.3192470">
    <ele>52.8</ele>
    <time>2020-06-14T08:07:13Z</time>
   </trkpt>
   <trkpt lat="51.1629190" lon="5.3193340">
    <ele>52.8</ele>
    <time>2020-06-14T08:07:14Z</time>
   </trkpt>
   <trkpt lat="51.1628920" lon="5.3194090">
    <ele>52.9</ele>
    <time>2020-06-14T08:07:15Z</time>
   </trkpt>
   <trkpt lat="51.1628660" lon="5.3194690">
    <ele>52.9</ele>
    <time>2020-06-14T08:07:16Z</time>
   </trkpt>
   <trkpt lat="51.1628490" lon="5.3195120">
    <ele>52.9</ele>
    <time>2020-06-14T08:07:17Z</time>
   </trkpt>
   <trkpt lat="51.1628480" lon="5.3195630">
    <ele>52.9</ele>
    <time>2020-06-14T08:07:18Z</time>
   </trkpt>
   <trkpt lat="51.1628450" lon="5.3195760">
    <ele>52.9</ele>
    <time>2020-06-14T08:07:19Z</time>
   </trkpt>
   <trkpt lat="51.1628310" lon="5.3196040">
    <ele>52.9</ele>
    <time>2020-06-14T08:07:20Z</time>
   </trkpt>
   <trkpt lat="51.1628240" lon="5.3196140">
    <ele>52.9</ele>
    <time>2020-06-14T08:07:21Z</time>
   </trkpt>
   <trkpt lat="51.1628160" lon="5.3196230">
    <ele>53.0</ele>
    <time>2020-06-14T08:07:22Z</time>
   </trkpt>
   <trkpt lat="51.1627960" lon="5.3196540">
    <ele>53.0</ele>
    <time>2020-06-14T08:07:23Z</time>
   </trkpt>
   <trkpt lat="51.1627900" lon="5.3196640">
    <ele>53.0</ele>
    <time>2020-06-14T08:07:24Z</time>
   </trkpt>
   <trkpt lat="51.1627780" lon="5.3196830">
    <ele>53.0</ele>
    <time>2020-06-14T08:07:25Z</time>
   </trkpt>
   <trkpt lat="51.1627720" lon="5.3197130">
    <ele>53.0</ele>
    <time>2020-06-14T08:07:26Z</time>
   </trkpt>
   <trkpt lat="51.1627670" lon="5.3197430">
    <ele>53.0</ele>
    <time>2020-06-14T08:07:27Z</time>
   </trkpt>
   <trkpt lat="51.1627630" lon="5.3197680">
    <ele>53.0</ele>
    <time>2020-06-14T08:07:28Z</time>
   </trkpt>
   <trkpt lat="51.1627500" lon="5.3198010">
    <ele>53.0</ele>
    <time>2020-06-14T08:07:29Z</time>
   </trkpt>
   <trkpt lat="51.1627470" lon="5.3198180">
    <ele>53.0</ele>
    <time>2020-06-14T08:07:30Z</time>
   </trkpt>
   <trkpt lat="51.1627430" lon="5.3198350">
    <ele>53.0</ele>
    <time>2020-06-14T08:07:31Z</time>
   </trkpt>
   <trkpt lat="51.1627310" lon="5.3198780">
    <ele>53.0</ele>
    <time>2020-06-14T08:07:32Z</time>
   </trkpt>
   <trkpt lat="51.1627270" lon="5.3198950">
    <ele>53.1</ele>
    <time>2020-06-14T08:07:33Z</time>
   </trkpt>
   <trkpt lat="51.1626950" lon="5.3199200">
    <ele>53.1</ele>
    <time>2020-06-14T08:07:34Z</time>
   </trkpt>
   <trkpt lat="51.1626850" lon="5.3199370">
    <ele>53.1</ele>
    <time>2020-06-14T08:07:35Z</time>
   </trkpt>
   <trkpt lat="51.1626600" lon="5.3199860">
    <ele>53.1</ele>
    <time>2020-06-14T08:07:36Z</time>
   </trkpt>
   <trkpt lat="51.1626480" lon="5.3200590">
    <ele>53.1</ele>
    <time>2020-06-14T08:07:37Z</time>
   </trkpt>
   <trkpt lat="51.1626440" lon="5.3201350">
    <ele>53.0</ele>
    <time>2020-06-14T08:07:38Z</time>
   </trkpt>
   <trkpt lat="51.1626340" lon="5.3202280">
    <ele>52.9</ele>
    <time>2020-06-14T08:07:39Z</time>
   </trkpt>
   <trkpt lat="51.1626280" lon="5.3203280">
    <ele>52.1</ele>
    <time>2020-06-14T08:07:40Z</time>
   </trkpt>
   <trkpt lat="51.1626280" lon="5.3204340">
    <ele>52.0</ele>
    <time>2020-06-14T08:07:41Z</time>
   </trkpt>
   <trkpt lat="51.1626270" lon="5.3205430">
    <ele>51.9</ele>
    <time>2020-06-14T08:07:42Z</time>
   </trkpt>
   <trkpt lat="51.1626320" lon="5.3206530">
    <ele>51.8</ele>
    <time>2020-06-14T08:07:43Z</time>
   </trkpt>
   <trkpt lat="51.1626310" lon="5.3207690">
    <ele>51.7</ele>
    <time>2020-06-14T08:07:44Z</time>
   </trkpt>
   <trkpt lat="51.1626290" lon="5.3208970">
    <ele>51.6</ele>
    <time>2020-06-14T08:07:45Z</time>
   </trkpt>
   <trkpt lat="51.1626250" lon="5.3210410">
    <ele>51.5</ele>
    <time>2020-06-14T08:07:46Z</time>
   </trkpt>
   <trkpt lat="51.1626230" lon="5.3211700">
    <ele>51.5</ele>
    <time>2020-06-14T08:07:47Z</time>
   </trkpt>
   <trkpt lat="51.1626210" lon="5.3213050">
    <ele>51.4</ele>
    <time>2020-06-14T08:07:48Z</time>
   </trkpt>
   <trkpt lat="51.1626210" lon="5.3214350">
    <ele>51.3</ele>
    <time>2020-06-14T08:07:49Z</time>
   </trkpt>
   <trkpt lat="51.1626250" lon="5.3215600">
    <ele>51.3</ele>
    <time>2020-06-14T08:07:50Z</time>
   </trkpt>
   <trkpt lat="51.1626220" lon="5.3216970">
    <ele>51.3</ele>
    <time>2020-06-14T08:07:51Z</time>
   </trkpt>
   <trkpt lat="51.1626170" lon="5.3218280">
    <ele>51.3</ele>
    <time>2020-06-14T08:07:52Z</time>
   </trkpt>
   <trkpt lat="51.1626150" lon="5.3219590">
    <ele>51.3</ele>
    <time>2020-06-14T08:07:53Z</time>
   </trkpt>
   <trkpt lat="51.1626150" lon="5.3220860">
    <ele>51.3</ele>
    <time>2020-06-14T08:07:54Z</time>
   </trkpt>
   <trkpt lat="51.1626150" lon="5.3222170">
    <ele>51.3</ele>
    <time>2020-06-14T08:07:55Z</time>
   </trkpt>
   <trkpt lat="51.1626150" lon="5.3223450">
    <ele>51.3</ele>
    <time>2020-06-14T08:07:56Z</time>
   </trkpt>
   <trkpt lat="51.1626180" lon="5.3224720">
    <ele>51.4</ele>
    <time>2020-06-14T08:07:57Z</time>
   </trkpt>
   <trkpt lat="51.1626180" lon="5.3225910">
    <ele>51.4</ele>
    <time>2020-06-14T08:07:58Z</time>
   </trkpt>
   <trkpt lat="51.1626190" lon="5.3227230">
    <ele>51.4</ele>
    <time>2020-06-14T08:07:59Z</time>
   </trkpt>
   <trkpt lat="51.1626210" lon="5.3228580">
    <ele>51.4</ele>
    <time>2020-06-14T08:08:00Z</time>
   </trkpt>
   <trkpt lat="51.1626210" lon="5.3229880">
    <ele>51.4</ele>
    <time>2020-06-14T08:08:01Z</time>
   </trkpt>
   <trkpt lat="51.1626210" lon="5.3231040">
    <ele>51.4</ele>
    <time>2020-06-14T08:08:02Z</time>
   </trkpt>
   <trkpt lat="51.1626210" lon="5.3232220">
    <ele>51.4</ele>
    <time>2020-06-14T08:08:03Z</time>
   </trkpt>
   <trkpt lat="51.1626220" lon="5.3233530">
    <ele>51.4</ele>
    <time>2020-06-14T08:08:04Z</time>
   </trkpt>
   <trkpt lat="51.1626250" lon="5.3234820">
    <ele>51.5</ele>
    <time>2020-06-14T08:08:05Z</time>
   </trkpt>
   <trkpt lat="51.1626260" lon="5.3236050">
    <ele>51.4</ele>
    <time>2020-06-14T08:08:06Z</time>
   </trkpt>
   <trkpt lat="51.1626220" lon="5.3237210">
    <ele>51.4</ele>
    <time>2020-06-14T08:08:07Z</time>
   </trkpt>
   <trkpt lat="51.1626110" lon="5.3238300">
    <ele>51.5</ele>
    <time>2020-06-14T08:08:08Z</time>
   </trkpt>
   <trkpt lat="51.1625950" lon="5.3239380">
    <ele>51.5</ele>
    <time>2020-06-14T08:08:09Z</time>
   </trkpt>
   <trkpt lat="51.1625840" lon="5.3240500">
    <ele>51.5</ele>
    <time>2020-06-14T08:08:10Z</time>
   </trkpt>
   <trkpt lat="51.1625750" lon="5.3241650">
    <ele>51.5</ele>
    <time>2020-06-14T08:08:11Z</time>
   </trkpt>
   <trkpt lat="51.1625680" lon="5.3242820">
    <ele>51.6</ele>
    <time>2020-06-14T08:08:12Z</time>
   </trkpt>
   <trkpt lat="51.1625550" lon="5.3243970">
    <ele>51.6</ele>
    <time>2020-06-14T08:08:13Z</time>
   </trkpt>
   <trkpt lat="51.1625480" lon="5.3245140">
    <ele>51.7</ele>
    <time>2020-06-14T08:08:14Z</time>
   </trkpt>
   <trkpt lat="51.1625370" lon="5.3246270">
    <ele>51.7</ele>
    <time>2020-06-14T08:08:15Z</time>
   </trkpt>
   <trkpt lat="51.1625230" lon="5.3247400">
    <ele>51.7</ele>
    <time>2020-06-14T08:08:16Z</time>
   </trkpt>
   <trkpt lat="51.1625020" lon="5.3248490">
    <ele>51.7</ele>
    <time>2020-06-14T08:08:17Z</time>
   </trkpt>
   <trkpt lat="51.1624900" lon="5.3249620">
    <ele>51.7</ele>
    <time>2020-06-14T08:08:18Z</time>
   </trkpt>
   <trkpt lat="51.1624760" lon="5.3250740">
    <ele>51.7</ele>
    <time>2020-06-14T08:08:19Z</time>
   </trkpt>
   <trkpt lat="51.1624640" lon="5.3251850">
    <ele>51.7</ele>
    <time>2020-06-14T08:08:20Z</time>
   </trkpt>
   <trkpt lat="51.1624510" lon="5.3252910">
    <ele>51.7</ele>
    <time>2020-06-14T08:08:21Z</time>
   </trkpt>
   <trkpt lat="51.1624330" lon="5.3253970">
    <ele>51.7</ele>
    <time>2020-06-14T08:08:22Z</time>
   </trkpt>
   <trkpt lat="51.1624150" lon="5.3255090">
    <ele>51.7</ele>
    <time>2020-06-14T08:08:23Z</time>
   </trkpt>
   <trkpt lat="51.1623990" lon="5.3256270">
    <ele>51.7</ele>
    <time>2020-06-14T08:08:24Z</time>
   </trkpt>
   <trkpt lat="51.1623870" lon="5.3257420">
    <ele>51.7</ele>
    <time>2020-06-14T08:08:25Z</time>
   </trkpt>
   <trkpt lat="51.1623770" lon="5.3258500">
    <ele>51.7</ele>
    <time>2020-06-14T08:08:26Z</time>
   </trkpt>
   <trkpt lat="51.1623610" lon="5.3259480">
    <ele>51.7</ele>
    <time>2020-06-14T08:08:27Z</time>
   </trkpt>
   <trkpt lat="51.1623500" lon="5.3260520">
    <ele>51.7</ele>
    <time>2020-06-14T08:08:28Z</time>
   </trkpt>
   <trkpt lat="51.1623390" lon="5.3261630">
    <ele>51.7</ele>
    <time>2020-06-14T08:08:29Z</time>
   </trkpt>
   <trkpt lat="51.1623250" lon="5.3262730">
    <ele>51.7</ele>
    <time>2020-06-14T08:08:30Z</time>
   </trkpt>
   <trkpt lat="51.1623120" lon="5.3263770">
    <ele>51.6</ele>
    <time>2020-06-14T08:08:31Z</time>
   </trkpt>
   <trkpt lat="51.1623030" lon="5.3264790">
    <ele>51.6</ele>
    <time>2020-06-14T08:08:32Z</time>
   </trkpt>
   <trkpt lat="51.1622920" lon="5.3265780">
    <ele>51.6</ele>
    <time>2020-06-14T08:08:33Z</time>
   </trkpt>
   <trkpt lat="51.1622910" lon="5.3266790">
    <ele>51.8</ele>
    <time>2020-06-14T08:08:34Z</time>
   </trkpt>
   <trkpt lat="51.1622920" lon="5.3267800">
    <ele>52.0</ele>
    <time>2020-06-14T08:08:35Z</time>
   </trkpt>
   <trkpt lat="51.1623060" lon="5.3268810">
    <ele>52.1</ele>
    <time>2020-06-14T08:08:36Z</time>
   </trkpt>
   <trkpt lat="51.1623280" lon="5.3269760">
    <ele>52.3</ele>
    <time>2020-06-14T08:08:37Z</time>
   </trkpt>
   <trkpt lat="51.1623530" lon="5.3270640">
    <ele>52.5</ele>
    <time>2020-06-14T08:08:38Z</time>
   </trkpt>
   <trkpt lat="51.1623720" lon="5.3271560">
    <ele>52.6</ele>
    <time>2020-06-14T08:08:39Z</time>
   </trkpt>
   <trkpt lat="51.1623880" lon="5.3272500">
    <ele>52.7</ele>
    <time>2020-06-14T08:08:40Z</time>
   </trkpt>
   <trkpt lat="51.1624010" lon="5.3273530">
    <ele>52.7</ele>
    <time>2020-06-14T08:08:41Z</time>
   </trkpt>
   <trkpt lat="51.1624100" lon="5.3274510">
    <ele>52.7</ele>
    <time>2020-06-14T08:08:42Z</time>
   </trkpt>
   <trkpt lat="51.1624140" lon="5.3275500">
    <ele>52.6</ele>
    <time>2020-06-14T08:08:43Z</time>
   </trkpt>
   <trkpt lat="51.1624080" lon="5.3276640">
    <ele>52.6</ele>
    <time>2020-06-14T08:08:44Z</time>
   </trkpt>
   <trkpt lat="51.1624000" lon="5.3278000">
    <ele>52.4</ele>
    <time>2020-06-14T08:08:45Z</time>
   </trkpt>
   <trkpt lat="51.1623880" lon="5.3279220">
    <ele>52.3</ele>
    <time>2020-06-14T08:08:46Z</time>
   </trkpt>
   <trkpt lat="51.1623740" lon="5.3280380">
    <ele>52.2</ele>
    <time>2020-06-14T08:08:47Z</time>
   </trkpt>
   <trkpt lat="51.1623630" lon="5.3281570">
    <ele>52.1</ele>
    <time>2020-06-14T08:08:48Z</time>
   </trkpt>
   <trkpt lat="51.1623590" lon="5.3282730">
    <ele>52.1</ele>
    <time>2020-06-14T08:08:49Z</time>
   </trkpt>
   <trkpt lat="51.1623440" lon="5.3283850">
    <ele>52.0</ele>
    <time>2020-06-14T08:08:50Z</time>
   </trkpt>
   <trkpt lat="51.1623310" lon="5.3284800">
    <ele>52.0</ele>
    <time>2020-06-14T08:08:51Z</time>
   </trkpt>
   <trkpt lat="51.1623180" lon="5.3285650">
    <ele>52.0</ele>
    <time>2020-06-14T08:08:52Z</time>
   </trkpt>
   <trkpt lat="51.1623070" lon="5.3286430">
    <ele>51.9</ele>
    <time>2020-06-14T08:08:53Z</time>
   </trkpt>
   <trkpt lat="51.1623030" lon="5.3287200">
    <ele>51.9</ele>
    <time>2020-06-14T08:08:54Z</time>
   </trkpt>
   <trkpt lat="51.1623040" lon="5.3287950">
    <ele>51.8</ele>
    <time>2020-06-14T08:08:55Z</time>
   </trkpt>
   <trkpt lat="51.1623060" lon="5.3288950">
    <ele>51.8</ele>
    <time>2020-06-14T08:08:56Z</time>
   </trkpt>
   <trkpt lat="51.1623130" lon="5.3289840">
    <ele>51.7</ele>
    <time>2020-06-14T08:08:57Z</time>
   </trkpt>
   <trkpt lat="51.1623140" lon="5.3290940">
    <ele>51.6</ele>
    <time>2020-06-14T08:08:58Z</time>
   </trkpt>
   <trkpt lat="51.1623190" lon="5.3291820">
    <ele>51.6</ele>
    <time>2020-06-14T08:08:59Z</time>
   </trkpt>
   <trkpt lat="51.1623230" lon="5.3292910">
    <ele>51.6</ele>
    <time>2020-06-14T08:09:00Z</time>
   </trkpt>
   <trkpt lat="51.1623400" lon="5.3293950">
    <ele>51.5</ele>
    <time>2020-06-14T08:09:01Z</time>
   </trkpt>
   <trkpt lat="51.1623390" lon="5.3295040">
    <ele>51.5</ele>
    <time>2020-06-14T08:09:02Z</time>
   </trkpt>
   <trkpt lat="51.1623260" lon="5.3296250">
    <ele>51.4</ele>
    <time>2020-06-14T08:09:03Z</time>
   </trkpt>
   <trkpt lat="51.1623200" lon="5.3297510">
    <ele>51.4</ele>
    <time>2020-06-14T08:09:04Z</time>
   </trkpt>
   <trkpt lat="51.1623160" lon="5.3298690">
    <ele>51.4</ele>
    <time>2020-06-14T08:09:05Z</time>
   </trkpt>
   <trkpt lat="51.1623050" lon="5.3299730">
    <ele>51.4</ele>
    <time>2020-06-14T08:09:06Z</time>
   </trkpt>
   <trkpt lat="51.1622820" lon="5.3300790">
    <ele>51.4</ele>
    <time>2020-06-14T08:09:07Z</time>
   </trkpt>
   <trkpt lat="51.1622630" lon="5.3301990">
    <ele>51.4</ele>
    <time>2020-06-14T08:09:08Z</time>
   </trkpt>
   <trkpt lat="51.1622560" lon="5.3303280">
    <ele>51.4</ele>
    <time>2020-06-14T08:09:09Z</time>
   </trkpt>
   <trkpt lat="51.1622520" lon="5.3304390">
    <ele>51.4</ele>
    <time>2020-06-14T08:09:10Z</time>
   </trkpt>
   <trkpt lat="51.1622460" lon="5.3305430">
    <ele>51.4</ele>
    <time>2020-06-14T08:09:11Z</time>
   </trkpt>
   <trkpt lat="51.1622380" lon="5.3306450">
    <ele>51.4</ele>
    <time>2020-06-14T08:09:12Z</time>
   </trkpt>
   <trkpt lat="51.1622210" lon="5.3307660">
    <ele>51.5</ele>
    <time>2020-06-14T08:09:13Z</time>
   </trkpt>
   <trkpt lat="51.1622030" lon="5.3308810">
    <ele>51.5</ele>
    <time>2020-06-14T08:09:14Z</time>
   </trkpt>
   <trkpt lat="51.1621940" lon="5.3309950">
    <ele>51.6</ele>
    <time>2020-06-14T08:09:15Z</time>
   </trkpt>
   <trkpt lat="51.1621840" lon="5.3311170">
    <ele>51.7</ele>
    <time>2020-06-14T08:09:16Z</time>
   </trkpt>
   <trkpt lat="51.1621770" lon="5.3312280">
    <ele>51.8</ele>
    <time>2020-06-14T08:09:17Z</time>
   </trkpt>
   <trkpt lat="51.1621600" lon="5.3313490">
    <ele>51.8</ele>
    <time>2020-06-14T08:09:18Z</time>
   </trkpt>
   <trkpt lat="51.1621450" lon="5.3314750">
    <ele>51.8</ele>
    <time>2020-06-14T08:09:19Z</time>
   </trkpt>
   <trkpt lat="51.1621420" lon="5.3316010">
    <ele>51.8</ele>
    <time>2020-06-14T08:09:20Z</time>
   </trkpt>
   <trkpt lat="51.1621550" lon="5.3317230">
    <ele>51.8</ele>
    <time>2020-06-14T08:09:21Z</time>
   </trkpt>
   <trkpt lat="51.1621610" lon="5.3318410">
    <ele>51.9</ele>
    <time>2020-06-14T08:09:22Z</time>
   </trkpt>
   <trkpt lat="51.1621680" lon="5.3319550">
    <ele>51.9</ele>
    <time>2020-06-14T08:09:23Z</time>
   </trkpt>
   <trkpt lat="51.1621760" lon="5.3320690">
    <ele>51.9</ele>
    <time>2020-06-14T08:09:24Z</time>
   </trkpt>
   <trkpt lat="51.1621930" lon="5.3321830">
    <ele>52.0</ele>
    <time>2020-06-14T08:09:25Z</time>
   </trkpt>
   <trkpt lat="51.1622000" lon="5.3322960">
    <ele>52.0</ele>
    <time>2020-06-14T08:09:26Z</time>
   </trkpt>
   <trkpt lat="51.1621980" lon="5.3324030">
    <ele>52.1</ele>
    <time>2020-06-14T08:09:27Z</time>
   </trkpt>
   <trkpt lat="51.1621950" lon="5.3325040">
    <ele>52.1</ele>
    <time>2020-06-14T08:09:28Z</time>
   </trkpt>
   <trkpt lat="51.1621840" lon="5.3326130">
    <ele>52.1</ele>
    <time>2020-06-14T08:09:29Z</time>
   </trkpt>
   <trkpt lat="51.1621990" lon="5.3327160">
    <ele>52.1</ele>
    <time>2020-06-14T08:09:30Z</time>
   </trkpt>
   <trkpt lat="51.1622170" lon="5.3328180">
    <ele>52.1</ele>
    <time>2020-06-14T08:09:31Z</time>
   </trkpt>
   <trkpt lat="51.1622110" lon="5.3329140">
    <ele>52.0</ele>
    <time>2020-06-14T08:09:32Z</time>
   </trkpt>
   <trkpt lat="51.1621940" lon="5.3330210">
    <ele>52.0</ele>
    <time>2020-06-14T08:09:33Z</time>
   </trkpt>
   <trkpt lat="51.1621760" lon="5.3331130">
    <ele>52.0</ele>
    <time>2020-06-14T08:09:34Z</time>
   </trkpt>
   <trkpt lat="51.1621710" lon="5.3332070">
    <ele>52.0</ele>
    <time>2020-06-14T08:09:35Z</time>
   </trkpt>
   <trkpt lat="51.1621650" lon="5.3333080">
    <ele>51.9</ele>
    <time>2020-06-14T08:09:36Z</time>
   </trkpt>
   <trkpt lat="51.1621590" lon="5.3334040">
    <ele>51.9</ele>
    <time>2020-06-14T08:09:37Z</time>
   </trkpt>
   <trkpt lat="51.1621420" lon="5.3335020">
    <ele>51.9</ele>
    <time>2020-06-14T08:09:38Z</time>
   </trkpt>
   <trkpt lat="51.1621280" lon="5.3336100">
    <ele>51.8</ele>
    <time>2020-06-14T08:09:39Z</time>
   </trkpt>
   <trkpt lat="51.1621140" lon="5.3337230">
    <ele>51.8</ele>
    <time>2020-06-14T08:09:40Z</time>
   </trkpt>
   <trkpt lat="51.1620990" lon="5.3338360">
    <ele>51.8</ele>
    <time>2020-06-14T08:09:41Z</time>
   </trkpt>
   <trkpt lat="51.1620840" lon="5.3339450">
    <ele>51.8</ele>
    <time>2020-06-14T08:09:42Z</time>
   </trkpt>
   <trkpt lat="51.1620770" lon="5.3340390">
    <ele>51.7</ele>
    <time>2020-06-14T08:09:43Z</time>
   </trkpt>
   <trkpt lat="51.1620840" lon="5.3341330">
    <ele>51.7</ele>
    <time>2020-06-14T08:09:44Z</time>
   </trkpt>
   <trkpt lat="51.1620950" lon="5.3342380">
    <ele>51.7</ele>
    <time>2020-06-14T08:09:45Z</time>
   </trkpt>
   <trkpt lat="51.1621060" lon="5.3343390">
    <ele>51.7</ele>
    <time>2020-06-14T08:09:46Z</time>
   </trkpt>
   <trkpt lat="51.1621140" lon="5.3344400">
    <ele>51.7</ele>
    <time>2020-06-14T08:09:47Z</time>
   </trkpt>
   <trkpt lat="51.1621090" lon="5.3345510">
    <ele>51.7</ele>
    <time>2020-06-14T08:09:48Z</time>
   </trkpt>
   <trkpt lat="51.1621090" lon="5.3346600">
    <ele>51.8</ele>
    <time>2020-06-14T08:09:49Z</time>
   </trkpt>
   <trkpt lat="51.1621160" lon="5.3347950">
    <ele>51.8</ele>
    <time>2020-06-14T08:09:50Z</time>
   </trkpt>
   <trkpt lat="51.1621190" lon="5.3349120">
    <ele>51.8</ele>
    <time>2020-06-14T08:09:51Z</time>
   </trkpt>
   <trkpt lat="51.1621270" lon="5.3350220">
    <ele>51.8</ele>
    <time>2020-06-14T08:09:52Z</time>
   </trkpt>
   <trkpt lat="51.1621300" lon="5.3351350">
    <ele>51.8</ele>
    <time>2020-06-14T08:09:53Z</time>
   </trkpt>
   <trkpt lat="51.1621270" lon="5.3352500">
    <ele>51.9</ele>
    <time>2020-06-14T08:09:54Z</time>
   </trkpt>
   <trkpt lat="51.1621240" lon="5.3353540">
    <ele>51.9</ele>
    <time>2020-06-14T08:09:55Z</time>
   </trkpt>
   <trkpt lat="51.1621150" lon="5.3354750">
    <ele>51.9</ele>
    <time>2020-06-14T08:09:56Z</time>
   </trkpt>
   <trkpt lat="51.1621030" lon="5.3355960">
    <ele>52.0</ele>
    <time>2020-06-14T08:09:57Z</time>
   </trkpt>
   <trkpt lat="51.1620880" lon="5.3357010">
    <ele>52.1</ele>
    <time>2020-06-14T08:09:58Z</time>
   </trkpt>
   <trkpt lat="51.1620770" lon="5.3358120">
    <ele>52.1</ele>
    <time>2020-06-14T08:09:59Z</time>
   </trkpt>
   <trkpt lat="51.1620610" lon="5.3359280">
    <ele>52.1</ele>
    <time>2020-06-14T08:10:00Z</time>
   </trkpt>
   <trkpt lat="51.1620420" lon="5.3360420">
    <ele>52.2</ele>
    <time>2020-06-14T08:10:01Z</time>
   </trkpt>
   <trkpt lat="51.1620300" lon="5.3361660">
    <ele>52.2</ele>
    <time>2020-06-14T08:10:02Z</time>
   </trkpt>
   <trkpt lat="51.1620230" lon="5.3362860">
    <ele>52.2</ele>
    <time>2020-06-14T08:10:03Z</time>
   </trkpt>
   <trkpt lat="51.1620200" lon="5.3364070">
    <ele>52.2</ele>
    <time>2020-06-14T08:10:04Z</time>
   </trkpt>
   <trkpt lat="51.1620240" lon="5.3365160">
    <ele>52.2</ele>
    <time>2020-06-14T08:10:05Z</time>
   </trkpt>
   <trkpt lat="51.1620280" lon="5.3366280">
    <ele>52.2</ele>
    <time>2020-06-14T08:10:06Z</time>
   </trkpt>
   <trkpt lat="51.1620290" lon="5.3367340">
    <ele>52.3</ele>
    <time>2020-06-14T08:10:07Z</time>
   </trkpt>
   <trkpt lat="51.1620320" lon="5.3368400">
    <ele>52.3</ele>
    <time>2020-06-14T08:10:08Z</time>
   </trkpt>
   <trkpt lat="51.1620370" lon="5.3369470">
    <ele>52.4</ele>
    <time>2020-06-14T08:10:09Z</time>
   </trkpt>
   <trkpt lat="51.1620430" lon="5.3370570">
    <ele>52.5</ele>
    <time>2020-06-14T08:10:10Z</time>
   </trkpt>
   <trkpt lat="51.1620490" lon="5.3371700">
    <ele>52.6</ele>
    <time>2020-06-14T08:10:11Z</time>
   </trkpt>
   <trkpt lat="51.1620540" lon="5.3372820">
    <ele>52.7</ele>
    <time>2020-06-14T08:10:12Z</time>
   </trkpt>
   <trkpt lat="51.1620460" lon="5.3373900">
    <ele>52.8</ele>
    <time>2020-06-14T08:10:13Z</time>
   </trkpt>
   <trkpt lat="51.1620140" lon="5.3374880">
    <ele>52.8</ele>
    <time>2020-06-14T08:10:14Z</time>
   </trkpt>
   <trkpt lat="51.1619900" lon="5.3375830">
    <ele>52.9</ele>
    <time>2020-06-14T08:10:15Z</time>
   </trkpt>
   <trkpt lat="51.1619720" lon="5.3376820">
    <ele>52.9</ele>
    <time>2020-06-14T08:10:16Z</time>
   </trkpt>
   <trkpt lat="51.1619730" lon="5.3377930">
    <ele>52.9</ele>
    <time>2020-06-14T08:10:17Z</time>
   </trkpt>
   <trkpt lat="51.1619890" lon="5.3378970">
    <ele>53.0</ele>
    <time>2020-06-14T08:10:18Z</time>
   </trkpt>
   <trkpt lat="51.1619840" lon="5.3379980">
    <ele>53.0</ele>
    <time>2020-06-14T08:10:19Z</time>
   </trkpt>
   <trkpt lat="51.1619680" lon="5.3380950">
    <ele>53.1</ele>
    <time>2020-06-14T08:10:20Z</time>
   </trkpt>
   <trkpt lat="51.1619480" lon="5.3381910">
    <ele>53.1</ele>
    <time>2020-06-14T08:10:21Z</time>
   </trkpt>
   <trkpt lat="51.1619300" lon="5.3382910">
    <ele>53.2</ele>
    <time>2020-06-14T08:10:22Z</time>
   </trkpt>
   <trkpt lat="51.1619180" lon="5.3383920">
    <ele>53.3</ele>
    <time>2020-06-14T08:10:23Z</time>
   </trkpt>
   <trkpt lat="51.1619060" lon="5.3384910">
    <ele>53.4</ele>
    <time>2020-06-14T08:10:24Z</time>
   </trkpt>
   <trkpt lat="51.1618900" lon="5.3385900">
    <ele>53.5</ele>
    <time>2020-06-14T08:10:25Z</time>
   </trkpt>
   <trkpt lat="51.1618760" lon="5.3386900">
    <ele>53.5</ele>
    <time>2020-06-14T08:10:26Z</time>
   </trkpt>
   <trkpt lat="51.1618670" lon="5.3387960">
    <ele>53.6</ele>
    <time>2020-06-14T08:10:27Z</time>
   </trkpt>
   <trkpt lat="51.1618710" lon="5.3389110">
    <ele>53.7</ele>
    <time>2020-06-14T08:10:28Z</time>
   </trkpt>
   <trkpt lat="51.1618730" lon="5.3390260">
    <ele>53.8</ele>
    <time>2020-06-14T08:10:29Z</time>
   </trkpt>
   <trkpt lat="51.1618570" lon="5.3391400">
    <ele>53.9</ele>
    <time>2020-06-14T08:10:30Z</time>
   </trkpt>
   <trkpt lat="51.1618430" lon="5.3392540">
    <ele>54.1</ele>
    <time>2020-06-14T08:10:31Z</time>
   </trkpt>
   <trkpt lat="51.1618300" lon="5.3393660">
    <ele>54.2</ele>
    <time>2020-06-14T08:10:32Z</time>
   </trkpt>
   <trkpt lat="51.1618210" lon="5.3394800">
    <ele>54.3</ele>
    <time>2020-06-14T08:10:33Z</time>
   </trkpt>
   <trkpt lat="51.1618200" lon="5.3395990">
    <ele>54.4</ele>
    <time>2020-06-14T08:10:34Z</time>
   </trkpt>
   <trkpt lat="51.1618150" lon="5.3397210">
    <ele>54.5</ele>
    <time>2020-06-14T08:10:35Z</time>
   </trkpt>
   <trkpt lat="51.1618080" lon="5.3398380">
    <ele>54.5</ele>
    <time>2020-06-14T08:10:36Z</time>
   </trkpt>
   <trkpt lat="51.1618040" lon="5.3399560">
    <ele>54.5</ele>
    <time>2020-06-14T08:10:37Z</time>
   </trkpt>
   <trkpt lat="51.1617990" lon="5.3400800">
    <ele>54.6</ele>
    <time>2020-06-14T08:10:38Z</time>
   </trkpt>
   <trkpt lat="51.1617990" lon="5.3402060">
    <ele>54.6</ele>
    <time>2020-06-14T08:10:39Z</time>
   </trkpt>
   <trkpt lat="51.1617970" lon="5.3403290">
    <ele>54.7</ele>
    <time>2020-06-14T08:10:40Z</time>
   </trkpt>
   <trkpt lat="51.1617890" lon="5.3404550">
    <ele>54.7</ele>
    <time>2020-06-14T08:10:41Z</time>
   </trkpt>
   <trkpt lat="51.1617910" lon="5.3405870">
    <ele>54.8</ele>
    <time>2020-06-14T08:10:42Z</time>
   </trkpt>
   <trkpt lat="51.1617870" lon="5.3407080">
    <ele>54.9</ele>
    <time>2020-06-14T08:10:43Z</time>
   </trkpt>
   <trkpt lat="51.1617800" lon="5.3408250">
    <ele>55.0</ele>
    <time>2020-06-14T08:10:44Z</time>
   </trkpt>
   <trkpt lat="51.1617740" lon="5.3409440">
    <ele>55.1</ele>
    <time>2020-06-14T08:10:45Z</time>
   </trkpt>
   <trkpt lat="51.1617690" lon="5.3410680">
    <ele>55.1</ele>
    <time>2020-06-14T08:10:46Z</time>
   </trkpt>
   <trkpt lat="51.1617630" lon="5.3411920">
    <ele>55.2</ele>
    <time>2020-06-14T08:10:47Z</time>
   </trkpt>
   <trkpt lat="51.1617620" lon="5.3413050">
    <ele>55.3</ele>
    <time>2020-06-14T08:10:48Z</time>
   </trkpt>
   <trkpt lat="51.1617550" lon="5.3414110">
    <ele>55.3</ele>
    <time>2020-06-14T08:10:49Z</time>
   </trkpt>
   <trkpt lat="51.1617530" lon="5.3415200">
    <ele>55.4</ele>
    <time>2020-06-14T08:10:50Z</time>
   </trkpt>
   <trkpt lat="51.1617540" lon="5.3416260">
    <ele>55.5</ele>
    <time>2020-06-14T08:10:51Z</time>
   </trkpt>
   <trkpt lat="51.1617610" lon="5.3417350">
    <ele>55.6</ele>
    <time>2020-06-14T08:10:52Z</time>
   </trkpt>
   <trkpt lat="51.1617650" lon="5.3418430">
    <ele>55.7</ele>
    <time>2020-06-14T08:10:53Z</time>
   </trkpt>
   <trkpt lat="51.1617660" lon="5.3419520">
    <ele>55.8</ele>
    <time>2020-06-14T08:10:54Z</time>
   </trkpt>
   <trkpt lat="51.1617610" lon="5.3420570">
    <ele>55.9</ele>
    <time>2020-06-14T08:10:55Z</time>
   </trkpt>
   <trkpt lat="51.1617590" lon="5.3421560">
    <ele>55.9</ele>
    <time>2020-06-14T08:10:56Z</time>
   </trkpt>
   <trkpt lat="51.1617600" lon="5.3422440">
    <ele>56.0</ele>
    <time>2020-06-14T08:10:57Z</time>
   </trkpt>
   <trkpt lat="51.1617590" lon="5.3423240">
    <ele>56.0</ele>
    <time>2020-06-14T08:10:58Z</time>
   </trkpt>
   <trkpt lat="51.1617620" lon="5.3423990">
    <ele>56.0</ele>
    <time>2020-06-14T08:10:59Z</time>
   </trkpt>
   <trkpt lat="51.1617620" lon="5.3424690">
    <ele>56.0</ele>
    <time>2020-06-14T08:11:00Z</time>
   </trkpt>
   <trkpt lat="51.1617830" lon="5.3425430">
    <ele>56.1</ele>
    <time>2020-06-14T08:11:01Z</time>
   </trkpt>
   <trkpt lat="51.1617970" lon="5.3426110">
    <ele>56.1</ele>
    <time>2020-06-14T08:11:02Z</time>
   </trkpt>
   <trkpt lat="51.1617960" lon="5.3426770">
    <ele>56.1</ele>
    <time>2020-06-14T08:11:03Z</time>
   </trkpt>
   <trkpt lat="51.1617980" lon="5.3427450">
    <ele>56.1</ele>
    <time>2020-06-14T08:11:04Z</time>
   </trkpt>
   <trkpt lat="51.1618010" lon="5.3428050">
    <ele>56.2</ele>
    <time>2020-06-14T08:11:05Z</time>
   </trkpt>
   <trkpt lat="51.1617990" lon="5.3428660">
    <ele>56.2</ele>
    <time>2020-06-14T08:11:06Z</time>
   </trkpt>
   <trkpt lat="51.1617930" lon="5.3429320">
    <ele>56.2</ele>
    <time>2020-06-14T08:11:07Z</time>
   </trkpt>
   <trkpt lat="51.1617880" lon="5.3430060">
    <ele>56.3</ele>
    <time>2020-06-14T08:11:08Z</time>
   </trkpt>
   <trkpt lat="51.1617850" lon="5.3430840">
    <ele>56.4</ele>
    <time>2020-06-14T08:11:09Z</time>
   </trkpt>
   <trkpt lat="51.1617840" lon="5.3431660">
    <ele>56.5</ele>
    <time>2020-06-14T08:11:10Z</time>
   </trkpt>
   <trkpt lat="51.1617830" lon="5.3432520">
    <ele>56.6</ele>
    <time>2020-06-14T08:11:11Z</time>
   </trkpt>
   <trkpt lat="51.1617810" lon="5.3433390">
    <ele>56.7</ele>
    <time>2020-06-14T08:11:12Z</time>
   </trkpt>
   <trkpt lat="51.1617490" lon="5.3434180">
    <ele>56.8</ele>
    <time>2020-06-14T08:11:13Z</time>
   </trkpt>
   <trkpt lat="51.1616870" lon="5.3434550">
    <ele>56.9</ele>
    <time>2020-06-14T08:11:14Z</time>
   </trkpt>
   <trkpt lat="51.1616270" lon="5.3435070">
    <ele>57.2</ele>
    <time>2020-06-14T08:11:15Z</time>
   </trkpt>
   <trkpt lat="51.1615630" lon="5.3435660">
    <ele>57.1</ele>
    <time>2020-06-14T08:11:16Z</time>
   </trkpt>
   <trkpt lat="51.1614990" lon="5.3436260">
    <ele>57.0</ele>
    <time>2020-06-14T08:11:17Z</time>
   </trkpt>
   <trkpt lat="51.1614280" lon="5.3436750">
    <ele>56.8</ele>
    <time>2020-06-14T08:11:18Z</time>
   </trkpt>
   <trkpt lat="51.1613590" lon="5.3437320">
    <ele>56.7</ele>
    <time>2020-06-14T08:11:19Z</time>
   </trkpt>
   <trkpt lat="51.1612860" lon="5.3437820">
    <ele>56.6</ele>
    <time>2020-06-14T08:11:20Z</time>
   </trkpt>
   <trkpt lat="51.1612160" lon="5.3438390">
    <ele>56.6</ele>
    <time>2020-06-14T08:11:21Z</time>
   </trkpt>
   <trkpt lat="51.1611410" lon="5.3439030">
    <ele>56.5</ele>
    <time>2020-06-14T08:11:22Z</time>
   </trkpt>
   <trkpt lat="51.1610670" lon="5.3439760">
    <ele>56.4</ele>
    <time>2020-06-14T08:11:23Z</time>
   </trkpt>
   <trkpt lat="51.1609850" lon="5.3440470">
    <ele>56.4</ele>
    <time>2020-06-14T08:11:24Z</time>
   </trkpt>
   <trkpt lat="51.1609020" lon="5.3441340">
    <ele>56.3</ele>
    <time>2020-06-14T08:11:25Z</time>
   </trkpt>
   <trkpt lat="51.1608210" lon="5.3442230">
    <ele>56.3</ele>
    <time>2020-06-14T08:11:26Z</time>
   </trkpt>
   <trkpt lat="51.1607390" lon="5.3443130">
    <ele>56.3</ele>
    <time>2020-06-14T08:11:27Z</time>
   </trkpt>
   <trkpt lat="51.1606530" lon="5.3443970">
    <ele>56.2</ele>
    <time>2020-06-14T08:11:28Z</time>
   </trkpt>
   <trkpt lat="51.1605750" lon="5.3444740">
    <ele>56.2</ele>
    <time>2020-06-14T08:11:29Z</time>
   </trkpt>
   <trkpt lat="51.1605010" lon="5.3445490">
    <ele>56.1</ele>
    <time>2020-06-14T08:11:30Z</time>
   </trkpt>
   <trkpt lat="51.1604240" lon="5.3446240">
    <ele>56.1</ele>
    <time>2020-06-14T08:11:31Z</time>
   </trkpt>
   <trkpt lat="51.1603520" lon="5.3446980">
    <ele>56.0</ele>
    <time>2020-06-14T08:11:32Z</time>
   </trkpt>
   <trkpt lat="51.1602780" lon="5.3447630">
    <ele>56.0</ele>
    <time>2020-06-14T08:11:33Z</time>
   </trkpt>
   <trkpt lat="51.1602080" lon="5.3448260">
    <ele>56.0</ele>
    <time>2020-06-14T08:11:34Z</time>
   </trkpt>
   <trkpt lat="51.1601340" lon="5.3448950">
    <ele>56.0</ele>
    <time>2020-06-14T08:11:35Z</time>
   </trkpt>
   <trkpt lat="51.1600630" lon="5.3449610">
    <ele>56.0</ele>
    <time>2020-06-14T08:11:36Z</time>
   </trkpt>
   <trkpt lat="51.1599950" lon="5.3450250">
    <ele>56.1</ele>
    <time>2020-06-14T08:11:37Z</time>
   </trkpt>
   <trkpt lat="51.1599290" lon="5.3450910">
    <ele>56.1</ele>
    <time>2020-06-14T08:11:38Z</time>
   </trkpt>
   <trkpt lat="51.1598650" lon="5.3451560">
    <ele>56.1</ele>
    <time>2020-06-14T08:11:39Z</time>
   </trkpt>
   <trkpt lat="51.1598020" lon="5.3452110">
    <ele>56.1</ele>
    <time>2020-06-14T08:11:40Z</time>
   </trkpt>
   <trkpt lat="51.1597380" lon="5.3452740">
    <ele>56.1</ele>
    <time>2020-06-14T08:11:41Z</time>
   </trkpt>
   <trkpt lat="51.1596790" lon="5.3453360">
    <ele>56.1</ele>
    <time>2020-06-14T08:11:42Z</time>
   </trkpt>
   <trkpt lat="51.1596180" lon="5.3453960">
    <ele>56.1</ele>
    <time>2020-06-14T08:11:43Z</time>
   </trkpt>
   <trkpt lat="51.1595580" lon="5.3454540">
    <ele>56.0</ele>
    <time>2020-06-14T08:11:44Z</time>
   </trkpt>
   <trkpt lat="51.1594990" lon="5.3455140">
    <ele>56.0</ele>
    <time>2020-06-14T08:11:45Z</time>
   </trkpt>
   <trkpt lat="51.1594360" lon="5.3455640">
    <ele>55.9</ele>
    <time>2020-06-14T08:11:46Z</time>
   </trkpt>
   <trkpt lat="51.1593720" lon="5.3456140">
    <ele>55.8</ele>
    <time>2020-06-14T08:11:47Z</time>
   </trkpt>
   <trkpt lat="51.1593050" lon="5.3456590">
    <ele>55.8</ele>
    <time>2020-06-14T08:11:48Z</time>
   </trkpt>
   <trkpt lat="51.1592360" lon="5.3457180">
    <ele>55.7</ele>
    <time>2020-06-14T08:11:49Z</time>
   </trkpt>
   <trkpt lat="51.1591660" lon="5.3457730">
    <ele>55.6</ele>
    <time>2020-06-14T08:11:50Z</time>
   </trkpt>
   <trkpt lat="51.1590980" lon="5.3458310">
    <ele>55.6</ele>
    <time>2020-06-14T08:11:51Z</time>
   </trkpt>
   <trkpt lat="51.1590340" lon="5.3458830">
    <ele>55.5</ele>
    <time>2020-06-14T08:11:52Z</time>
   </trkpt>
   <trkpt lat="51.1589740" lon="5.3459460">
    <ele>55.5</ele>
    <time>2020-06-14T08:11:53Z</time>
   </trkpt>
   <trkpt lat="51.1589110" lon="5.3460050">
    <ele>55.4</ele>
    <time>2020-06-14T08:11:54Z</time>
   </trkpt>
   <trkpt lat="51.1588530" lon="5.3460710">
    <ele>55.4</ele>
    <time>2020-06-14T08:11:55Z</time>
   </trkpt>
   <trkpt lat="51.1588000" lon="5.3461470">
    <ele>55.3</ele>
    <time>2020-06-14T08:11:56Z</time>
   </trkpt>
   <trkpt lat="51.1587440" lon="5.3462140">
    <ele>55.3</ele>
    <time>2020-06-14T08:11:57Z</time>
   </trkpt>
   <trkpt lat="51.1586860" lon="5.3462770">
    <ele>55.2</ele>
    <time>2020-06-14T08:11:58Z</time>
   </trkpt>
   <trkpt lat="51.1586270" lon="5.3463300">
    <ele>55.2</ele>
    <time>2020-06-14T08:11:59Z</time>
   </trkpt>
   <trkpt lat="51.1585710" lon="5.3463900">
    <ele>55.1</ele>
    <time>2020-06-14T08:12:00Z</time>
   </trkpt>
   <trkpt lat="51.1585200" lon="5.3464500">
    <ele>55.0</ele>
    <time>2020-06-14T08:12:01Z</time>
   </trkpt>
   <trkpt lat="51.1584660" lon="5.3465030">
    <ele>54.9</ele>
    <time>2020-06-14T08:12:02Z</time>
   </trkpt>
   <trkpt lat="51.1584070" lon="5.3465590">
    <ele>54.8</ele>
    <time>2020-06-14T08:12:03Z</time>
   </trkpt>
   <trkpt lat="51.1583430" lon="5.3466020">
    <ele>54.8</ele>
    <time>2020-06-14T08:12:04Z</time>
   </trkpt>
   <trkpt lat="51.1582750" lon="5.3466390">
    <ele>54.7</ele>
    <time>2020-06-14T08:12:05Z</time>
   </trkpt>
   <trkpt lat="51.1582120" lon="5.3466900">
    <ele>54.6</ele>
    <time>2020-06-14T08:12:06Z</time>
   </trkpt>
   <trkpt lat="51.1581410" lon="5.3467360">
    <ele>54.5</ele>
    <time>2020-06-14T08:12:07Z</time>
   </trkpt>
   <trkpt lat="51.1580710" lon="5.3467990">
    <ele>54.4</ele>
    <time>2020-06-14T08:12:08Z</time>
   </trkpt>
   <trkpt lat="51.1580070" lon="5.3468630">
    <ele>54.3</ele>
    <time>2020-06-14T08:12:09Z</time>
   </trkpt>
   <trkpt lat="51.1579440" lon="5.3469230">
    <ele>54.2</ele>
    <time>2020-06-14T08:12:10Z</time>
   </trkpt>
   <trkpt lat="51.1578830" lon="5.3469830">
    <ele>54.2</ele>
    <time>2020-06-14T08:12:11Z</time>
   </trkpt>
   <trkpt lat="51.1578240" lon="5.3470350">
    <ele>54.2</ele>
    <time>2020-06-14T08:12:12Z</time>
   </trkpt>
   <trkpt lat="51.1577650" lon="5.3470920">
    <ele>54.2</ele>
    <time>2020-06-14T08:12:13Z</time>
   </trkpt>
   <trkpt lat="51.1577100" lon="5.3471440">
    <ele>54.3</ele>
    <time>2020-06-14T08:12:14Z</time>
   </trkpt>
   <trkpt lat="51.1576570" lon="5.3471980">
    <ele>54.3</ele>
    <time>2020-06-14T08:12:15Z</time>
   </trkpt>
   <trkpt lat="51.1576010" lon="5.3472510">
    <ele>54.3</ele>
    <time>2020-06-14T08:12:16Z</time>
   </trkpt>
   <trkpt lat="51.1575470" lon="5.3473040">
    <ele>54.3</ele>
    <time>2020-06-14T08:12:17Z</time>
   </trkpt>
   <trkpt lat="51.1574920" lon="5.3473630">
    <ele>54.4</ele>
    <time>2020-06-14T08:12:18Z</time>
   </trkpt>
   <trkpt lat="51.1574170" lon="5.3474240">
    <ele>54.4</ele>
    <time>2020-06-14T08:12:19Z</time>
   </trkpt>
   <trkpt lat="51.1573500" lon="5.3473980">
    <ele>54.5</ele>
    <time>2020-06-14T08:12:20Z</time>
   </trkpt>
   <trkpt lat="51.1572930" lon="5.3473340">
    <ele>54.5</ele>
    <time>2020-06-14T08:12:21Z</time>
   </trkpt>
   <trkpt lat="51.1572470" lon="5.3472440">
    <ele>54.4</ele>
    <time>2020-06-14T08:12:22Z</time>
   </trkpt>
   <trkpt lat="51.1572150" lon="5.3471420">
    <ele>54.3</ele>
    <time>2020-06-14T08:12:23Z</time>
   </trkpt>
   <trkpt lat="51.1571790" lon="5.3470430">
    <ele>54.3</ele>
    <time>2020-06-14T08:12:24Z</time>
   </trkpt>
   <trkpt lat="51.1571470" lon="5.3469410">
    <ele>54.2</ele>
    <time>2020-06-14T08:12:25Z</time>
   </trkpt>
   <trkpt lat="51.1570890" lon="5.3468520">
    <ele>54.2</ele>
    <time>2020-06-14T08:12:26Z</time>
   </trkpt>
   <trkpt lat="51.1570490" lon="5.3467460">
    <ele>54.1</ele>
    <time>2020-06-14T08:12:27Z</time>
   </trkpt>
   <trkpt lat="51.1570110" lon="5.3466390">
    <ele>54.0</ele>
    <time>2020-06-14T08:12:28Z</time>
   </trkpt>
   <trkpt lat="51.1569710" lon="5.3465320">
    <ele>54.0</ele>
    <time>2020-06-14T08:12:29Z</time>
   </trkpt>
   <trkpt lat="51.1569300" lon="5.3464270">
    <ele>53.9</ele>
    <time>2020-06-14T08:12:30Z</time>
   </trkpt>
   <trkpt lat="51.1569010" lon="5.3463170">
    <ele>53.9</ele>
    <time>2020-06-14T08:12:31Z</time>
   </trkpt>
   <trkpt lat="51.1568690" lon="5.3462060">
    <ele>53.8</ele>
    <time>2020-06-14T08:12:32Z</time>
   </trkpt>
   <trkpt lat="51.1568370" lon="5.3460970">
    <ele>53.8</ele>
    <time>2020-06-14T08:12:33Z</time>
   </trkpt>
   <trkpt lat="51.1568010" lon="5.3459910">
    <ele>53.7</ele>
    <time>2020-06-14T08:12:34Z</time>
   </trkpt>
   <trkpt lat="51.1567700" lon="5.3458960">
    <ele>53.6</ele>
    <time>2020-06-14T08:12:35Z</time>
   </trkpt>
   <trkpt lat="51.1567390" lon="5.3458080">
    <ele>53.6</ele>
    <time>2020-06-14T08:12:36Z</time>
   </trkpt>
   <trkpt lat="51.1567110" lon="5.3457200">
    <ele>53.5</ele>
    <time>2020-06-14T08:12:37Z</time>
   </trkpt>
   <trkpt lat="51.1566910" lon="5.3456350">
    <ele>53.5</ele>
    <time>2020-06-14T08:12:38Z</time>
   </trkpt>
   <trkpt lat="51.1566680" lon="5.3455550">
    <ele>53.4</ele>
    <time>2020-06-14T08:12:39Z</time>
   </trkpt>
   <trkpt lat="51.1566430" lon="5.3454670">
    <ele>53.4</ele>
    <time>2020-06-14T08:12:40Z</time>
   </trkpt>
   <trkpt lat="51.1566140" lon="5.3453690">
    <ele>53.4</ele>
    <time>2020-06-14T08:12:41Z</time>
   </trkpt>
   <trkpt lat="51.1565830" lon="5.3452640">
    <ele>53.3</ele>
    <time>2020-06-14T08:12:42Z</time>
   </trkpt>
   <trkpt lat="51.1565480" lon="5.3451560">
    <ele>53.3</ele>
    <time>2020-06-14T08:12:43Z</time>
   </trkpt>
   <trkpt lat="51.1565100" lon="5.3450500">
    <ele>53.2</ele>
    <time>2020-06-14T08:12:44Z</time>
   </trkpt>
   <trkpt lat="51.1564730" lon="5.3449390">
    <ele>53.2</ele>
    <time>2020-06-14T08:12:45Z</time>
   </trkpt>
   <trkpt lat="51.1564370" lon="5.3448220">
    <ele>53.2</ele>
    <time>2020-06-14T08:12:46Z</time>
   </trkpt>
   <trkpt lat="51.1564000" lon="5.3447080">
    <ele>53.2</ele>
    <time>2020-06-14T08:12:47Z</time>
   </trkpt>
   <trkpt lat="51.1563640" lon="5.3445960">
    <ele>53.1</ele>
    <time>2020-06-14T08:12:48Z</time>
   </trkpt>
   <trkpt lat="51.1563300" lon="5.3444900">
    <ele>53.1</ele>
    <time>2020-06-14T08:12:49Z</time>
   </trkpt>
   <trkpt lat="51.1562950" lon="5.3443780">
    <ele>53.1</ele>
    <time>2020-06-14T08:12:50Z</time>
   </trkpt>
   <trkpt lat="51.1562590" lon="5.3442620">
    <ele>53.1</ele>
    <time>2020-06-14T08:12:51Z</time>
   </trkpt>
   <trkpt lat="51.1562250" lon="5.3441440">
    <ele>53.2</ele>
    <time>2020-06-14T08:12:52Z</time>
   </trkpt>
   <trkpt lat="51.1561880" lon="5.3440320">
    <ele>53.2</ele>
    <time>2020-06-14T08:12:53Z</time>
   </trkpt>
   <trkpt lat="51.1561520" lon="5.3439190">
    <ele>53.2</ele>
    <time>2020-06-14T08:12:54Z</time>
   </trkpt>
   <trkpt lat="51.1561150" lon="5.3438050">
    <ele>53.2</ele>
    <time>2020-06-14T08:12:55Z</time>
   </trkpt>
   <trkpt lat="51.1560810" lon="5.3436920">
    <ele>53.1</ele>
    <time>2020-06-14T08:12:56Z</time>
   </trkpt>
   <trkpt lat="51.1560470" lon="5.3435810">
    <ele>53.1</ele>
    <time>2020-06-14T08:12:57Z</time>
   </trkpt>
   <trkpt lat="51.1560140" lon="5.3434730">
    <ele>53.1</ele>
    <time>2020-06-14T08:12:58Z</time>
   </trkpt>
   <trkpt lat="51.1559810" lon="5.3433670">
    <ele>53.1</ele>
    <time>2020-06-14T08:12:59Z</time>
   </trkpt>
   <trkpt lat="51.1559500" lon="5.3432660">
    <ele>53.1</ele>
    <time>2020-06-14T08:13:00Z</time>
   </trkpt>
   <trkpt lat="51.1559190" lon="5.3431670">
    <ele>53.1</ele>
    <time>2020-06-14T08:13:01Z</time>
   </trkpt>
   <trkpt lat="51.1558890" lon="5.3430680">
    <ele>53.2</ele>
    <time>2020-06-14T08:13:02Z</time>
   </trkpt>
   <trkpt lat="51.1558610" lon="5.3429780">
    <ele>53.2</ele>
    <time>2020-06-14T08:13:03Z</time>
   </trkpt>
   <trkpt lat="51.1558320" lon="5.3428940">
    <ele>53.3</ele>
    <time>2020-06-14T08:13:04Z</time>
   </trkpt>
   <trkpt lat="51.1558080" lon="5.3428190">
    <ele>53.3</ele>
    <time>2020-06-14T08:13:05Z</time>
   </trkpt>
   <trkpt lat="51.1557890" lon="5.3427520">
    <ele>53.3</ele>
    <time>2020-06-14T08:13:06Z</time>
   </trkpt>
   <trkpt lat="51.1557710" lon="5.3426920">
    <ele>53.3</ele>
    <time>2020-06-14T08:13:07Z</time>
   </trkpt>
   <trkpt lat="51.1557520" lon="5.3426350">
    <ele>53.4</ele>
    <time>2020-06-14T08:13:08Z</time>
   </trkpt>
   <trkpt lat="51.1557330" lon="5.3425720">
    <ele>53.4</ele>
    <time>2020-06-14T08:13:09Z</time>
   </trkpt>
   <trkpt lat="51.1557080" lon="5.3425120">
    <ele>53.4</ele>
    <time>2020-06-14T08:13:10Z</time>
   </trkpt>
   <trkpt lat="51.1556850" lon="5.3424370">
    <ele>53.4</ele>
    <time>2020-06-14T08:13:11Z</time>
   </trkpt>
   <trkpt lat="51.1556620" lon="5.3423510">
    <ele>53.5</ele>
    <time>2020-06-14T08:13:12Z</time>
   </trkpt>
   <trkpt lat="51.1556340" lon="5.3422660">
    <ele>53.5</ele>
    <time>2020-06-14T08:13:13Z</time>
   </trkpt>
   <trkpt lat="51.1556030" lon="5.3421760">
    <ele>53.6</ele>
    <time>2020-06-14T08:13:14Z</time>
   </trkpt>
   <trkpt lat="51.1555740" lon="5.3420830">
    <ele>53.7</ele>
    <time>2020-06-14T08:13:15Z</time>
   </trkpt>
   <trkpt lat="51.1555470" lon="5.3419920">
    <ele>53.8</ele>
    <time>2020-06-14T08:13:16Z</time>
   </trkpt>
   <trkpt lat="51.1555200" lon="5.3419000">
    <ele>53.8</ele>
    <time>2020-06-14T08:13:17Z</time>
   </trkpt>
   <trkpt lat="51.1554920" lon="5.3418040">
    <ele>53.8</ele>
    <time>2020-06-14T08:13:18Z</time>
   </trkpt>
   <trkpt lat="51.1554580" lon="5.3417060">
    <ele>53.8</ele>
    <time>2020-06-14T08:13:19Z</time>
   </trkpt>
   <trkpt lat="51.1554270" lon="5.3416000">
    <ele>53.7</ele>
    <time>2020-06-14T08:13:20Z</time>
   </trkpt>
   <trkpt lat="51.1554050" lon="5.3414870">
    <ele>53.7</ele>
    <time>2020-06-14T08:13:21Z</time>
   </trkpt>
   <trkpt lat="51.1553790" lon="5.3413680">
    <ele>53.7</ele>
    <time>2020-06-14T08:13:22Z</time>
   </trkpt>
   <trkpt lat="51.1553310" lon="5.3413060">
    <ele>53.7</ele>
    <time>2020-06-14T08:13:23Z</time>
   </trkpt>
   <trkpt lat="51.1552760" lon="5.3412930">
    <ele>53.7</ele>
    <time>2020-06-14T08:13:24Z</time>
   </trkpt>
   <trkpt lat="51.1552200" lon="5.3413270">
    <ele>53.7</ele>
    <time>2020-06-14T08:13:25Z</time>
   </trkpt>
   <trkpt lat="51.1551580" lon="5.3413680">
    <ele>53.7</ele>
    <time>2020-06-14T08:13:26Z</time>
   </trkpt>
   <trkpt lat="51.1550720" lon="5.3413250">
    <ele>53.7</ele>
    <time>2020-06-14T08:13:27Z</time>
   </trkpt>
   <trkpt lat="51.1550040" lon="5.3413610">
    <ele>53.8</ele>
    <time>2020-06-14T08:13:28Z</time>
   </trkpt>
   <trkpt lat="51.1549330" lon="5.3414000">
    <ele>53.8</ele>
    <time>2020-06-14T08:13:29Z</time>
   </trkpt>
   <trkpt lat="51.1548640" lon="5.3414450">
    <ele>53.8</ele>
    <time>2020-06-14T08:13:30Z</time>
   </trkpt>
   <trkpt lat="51.1547990" lon="5.3414870">
    <ele>53.8</ele>
    <time>2020-06-14T08:13:31Z</time>
   </trkpt>
   <trkpt lat="51.1547320" lon="5.3415330">
    <ele>53.9</ele>
    <time>2020-06-14T08:13:32Z</time>
   </trkpt>
   <trkpt lat="51.1546610" lon="5.3415820">
    <ele>53.9</ele>
    <time>2020-06-14T08:13:33Z</time>
   </trkpt>
   <trkpt lat="51.1545950" lon="5.3416260">
    <ele>53.9</ele>
    <time>2020-06-14T08:13:34Z</time>
   </trkpt>
   <trkpt lat="51.1545250" lon="5.3416740">
    <ele>53.9</ele>
    <time>2020-06-14T08:13:35Z</time>
   </trkpt>
   <trkpt lat="51.1544540" lon="5.3417220">
    <ele>53.9</ele>
    <time>2020-06-14T08:13:36Z</time>
   </trkpt>
   <trkpt lat="51.1543820" lon="5.3417710">
    <ele>53.9</ele>
    <time>2020-06-14T08:13:37Z</time>
   </trkpt>
   <trkpt lat="51.1543110" lon="5.3418190">
    <ele>53.9</ele>
    <time>2020-06-14T08:13:38Z</time>
   </trkpt>
   <trkpt lat="51.1542420" lon="5.3418730">
    <ele>54.0</ele>
    <time>2020-06-14T08:13:39Z</time>
   </trkpt>
   <trkpt lat="51.1541710" lon="5.3419270">
    <ele>54.1</ele>
    <time>2020-06-14T08:13:40Z</time>
   </trkpt>
   <trkpt lat="51.1540980" lon="5.3419800">
    <ele>54.1</ele>
    <time>2020-06-14T08:13:41Z</time>
   </trkpt>
   <trkpt lat="51.1540250" lon="5.3420280">
    <ele>54.2</ele>
    <time>2020-06-14T08:13:42Z</time>
   </trkpt>
   <trkpt lat="51.1539540" lon="5.3420770">
    <ele>54.2</ele>
    <time>2020-06-14T08:13:43Z</time>
   </trkpt>
   <trkpt lat="51.1538850" lon="5.3421320">
    <ele>54.2</ele>
    <time>2020-06-14T08:13:44Z</time>
   </trkpt>
   <trkpt lat="51.1538170" lon="5.3421810">
    <ele>54.2</ele>
    <time>2020-06-14T08:13:45Z</time>
   </trkpt>
   <trkpt lat="51.1537530" lon="5.3422270">
    <ele>54.3</ele>
    <time>2020-06-14T08:13:46Z</time>
   </trkpt>
   <trkpt lat="51.1536960" lon="5.3422770">
    <ele>54.3</ele>
    <time>2020-06-14T08:13:47Z</time>
   </trkpt>
   <trkpt lat="51.1536410" lon="5.3423280">
    <ele>54.3</ele>
    <time>2020-06-14T08:13:48Z</time>
   </trkpt>
   <trkpt lat="51.1535830" lon="5.3423770">
    <ele>54.3</ele>
    <time>2020-06-14T08:13:49Z</time>
   </trkpt>
   <trkpt lat="51.1535050" lon="5.3423610">
    <ele>54.3</ele>
    <time>2020-06-14T08:13:50Z</time>
   </trkpt>
   <trkpt lat="51.1534390" lon="5.3424070">
    <ele>54.2</ele>
    <time>2020-06-14T08:13:51Z</time>
   </trkpt>
   <trkpt lat="51.1533680" lon="5.3424410">
    <ele>54.2</ele>
    <time>2020-06-14T08:13:52Z</time>
   </trkpt>
   <trkpt lat="51.1533010" lon="5.3424850">
    <ele>54.2</ele>
    <time>2020-06-14T08:13:53Z</time>
   </trkpt>
   <trkpt lat="51.1532340" lon="5.3425310">
    <ele>54.1</ele>
    <time>2020-06-14T08:13:54Z</time>
   </trkpt>
   <trkpt lat="51.1531660" lon="5.3425760">
    <ele>54.1</ele>
    <time>2020-06-14T08:13:55Z</time>
   </trkpt>
   <trkpt lat="51.1530990" lon="5.3426140">
    <ele>54.1</ele>
    <time>2020-06-14T08:13:56Z</time>
   </trkpt>
   <trkpt lat="51.1530340" lon="5.3426520">
    <ele>54.0</ele>
    <time>2020-06-14T08:13:57Z</time>
   </trkpt>
   <trkpt lat="51.1529640" lon="5.3426970">
    <ele>54.0</ele>
    <time>2020-06-14T08:13:58Z</time>
   </trkpt>
   <trkpt lat="51.1528960" lon="5.3427470">
    <ele>54.0</ele>
    <time>2020-06-14T08:13:59Z</time>
   </trkpt>
   <trkpt lat="51.1528310" lon="5.3427880">
    <ele>54.0</ele>
    <time>2020-06-14T08:14:00Z</time>
   </trkpt>
   <trkpt lat="51.1527710" lon="5.3428260">
    <ele>54.0</ele>
    <time>2020-06-14T08:14:01Z</time>
   </trkpt>
   <trkpt lat="51.1527120" lon="5.3428620">
    <ele>54.0</ele>
    <time>2020-06-14T08:14:02Z</time>
   </trkpt>
   <trkpt lat="51.1526540" lon="5.3429050">
    <ele>53.9</ele>
    <time>2020-06-14T08:14:03Z</time>
   </trkpt>
   <trkpt lat="51.1525890" lon="5.3429400">
    <ele>53.9</ele>
    <time>2020-06-14T08:14:04Z</time>
   </trkpt>
   <trkpt lat="51.1525260" lon="5.3429770">
    <ele>53.9</ele>
    <time>2020-06-14T08:14:05Z</time>
   </trkpt>
   <trkpt lat="51.1524640" lon="5.3430160">
    <ele>53.8</ele>
    <time>2020-06-14T08:14:06Z</time>
   </trkpt>
   <trkpt lat="51.1523980" lon="5.3430550">
    <ele>53.8</ele>
    <time>2020-06-14T08:14:07Z</time>
   </trkpt>
   <trkpt lat="51.1523360" lon="5.3431150">
    <ele>53.8</ele>
    <time>2020-06-14T08:14:08Z</time>
   </trkpt>
   <trkpt lat="51.1522800" lon="5.3431860">
    <ele>53.8</ele>
    <time>2020-06-14T08:14:09Z</time>
   </trkpt>
   <trkpt lat="51.1522270" lon="5.3432620">
    <ele>53.9</ele>
    <time>2020-06-14T08:14:10Z</time>
   </trkpt>
   <trkpt lat="51.1521710" lon="5.3433340">
    <ele>53.9</ele>
    <time>2020-06-14T08:14:11Z</time>
   </trkpt>
   <trkpt lat="51.1521140" lon="5.3434030">
    <ele>53.9</ele>
    <time>2020-06-14T08:14:12Z</time>
   </trkpt>
   <trkpt lat="51.1520530" lon="5.3434730">
    <ele>53.9</ele>
    <time>2020-06-14T08:14:13Z</time>
   </trkpt>
   <trkpt lat="51.1519920" lon="5.3435300">
    <ele>54.0</ele>
    <time>2020-06-14T08:14:14Z</time>
   </trkpt>
   <trkpt lat="51.1519180" lon="5.3435320">
    <ele>54.0</ele>
    <time>2020-06-14T08:14:15Z</time>
   </trkpt>
   <trkpt lat="51.1518630" lon="5.3435730">
    <ele>54.0</ele>
    <time>2020-06-14T08:14:16Z</time>
   </trkpt>
   <trkpt lat="51.1518140" lon="5.3436100">
    <ele>54.1</ele>
    <time>2020-06-14T08:14:17Z</time>
   </trkpt>
   <trkpt lat="51.1517640" lon="5.3436480">
    <ele>54.1</ele>
    <time>2020-06-14T08:14:18Z</time>
   </trkpt>
   <trkpt lat="51.1517130" lon="5.3436870">
    <ele>54.2</ele>
    <time>2020-06-14T08:14:19Z</time>
   </trkpt>
   <trkpt lat="51.1516630" lon="5.3437270">
    <ele>54.3</ele>
    <time>2020-06-14T08:14:20Z</time>
   </trkpt>
   <trkpt lat="51.1516180" lon="5.3437770">
    <ele>54.4</ele>
    <time>2020-06-14T08:14:21Z</time>
   </trkpt>
   <trkpt lat="51.1515750" lon="5.3438210">
    <ele>54.5</ele>
    <time>2020-06-14T08:14:22Z</time>
   </trkpt>
   <trkpt lat="51.1515280" lon="5.3438250">
    <ele>54.8</ele>
    <time>2020-06-14T08:14:23Z</time>
   </trkpt>
   <trkpt lat="51.1514720" lon="5.3437860">
    <ele>54.7</ele>
    <time>2020-06-14T08:14:24Z</time>
   </trkpt>
   <trkpt lat="51.1514190" lon="5.3437100">
    <ele>54.6</ele>
    <time>2020-06-14T08:14:25Z</time>
   </trkpt>
   <trkpt lat="51.1513720" lon="5.3436260">
    <ele>54.4</ele>
    <time>2020-06-14T08:14:26Z</time>
   </trkpt>
   <trkpt lat="51.1513350" lon="5.3435380">
    <ele>54.3</ele>
    <time>2020-06-14T08:14:27Z</time>
   </trkpt>
   <trkpt lat="51.1512950" lon="5.3434430">
    <ele>54.1</ele>
    <time>2020-06-14T08:14:28Z</time>
   </trkpt>
   <trkpt lat="51.1512480" lon="5.3433500">
    <ele>54.0</ele>
    <time>2020-06-14T08:14:29Z</time>
   </trkpt>
   <trkpt lat="51.1511730" lon="5.3432720">
    <ele>53.9</ele>
    <time>2020-06-14T08:14:30Z</time>
   </trkpt>
   <trkpt lat="51.1511240" lon="5.3431700">
    <ele>53.7</ele>
    <time>2020-06-14T08:14:31Z</time>
   </trkpt>
   <trkpt lat="51.1510810" lon="5.3430700">
    <ele>53.7</ele>
    <time>2020-06-14T08:14:32Z</time>
   </trkpt>
   <trkpt lat="51.1510480" lon="5.3429720">
    <ele>53.6</ele>
    <time>2020-06-14T08:14:33Z</time>
   </trkpt>
   <trkpt lat="51.1510180" lon="5.3428780">
    <ele>53.7</ele>
    <time>2020-06-14T08:14:34Z</time>
   </trkpt>
   <trkpt lat="51.1509860" lon="5.3427930">
    <ele>53.7</ele>
    <time>2020-06-14T08:14:35Z</time>
   </trkpt>
   <trkpt lat="51.1509560" lon="5.3427200">
    <ele>53.8</ele>
    <time>2020-06-14T08:14:36Z</time>
   </trkpt>
   <trkpt lat="51.1509300" lon="5.3426530">
    <ele>53.8</ele>
    <time>2020-06-14T08:14:37Z</time>
   </trkpt>
   <trkpt lat="51.1509020" lon="5.3425980">
    <ele>53.9</ele>
    <time>2020-06-14T08:14:38Z</time>
   </trkpt>
   <trkpt lat="51.1508750" lon="5.3425550">
    <ele>54.0</ele>
    <time>2020-06-14T08:14:39Z</time>
   </trkpt>
   <trkpt lat="51.1508410" lon="5.3425380">
    <ele>54.1</ele>
    <time>2020-06-14T08:14:40Z</time>
   </trkpt>
   <trkpt lat="51.1508030" lon="5.3425840">
    <ele>54.1</ele>
    <time>2020-06-14T08:14:41Z</time>
   </trkpt>
   <trkpt lat="51.1507720" lon="5.3426580">
    <ele>54.1</ele>
    <time>2020-06-14T08:14:42Z</time>
   </trkpt>
   <trkpt lat="51.1507380" lon="5.3427240">
    <ele>54.1</ele>
    <time>2020-06-14T08:14:43Z</time>
   </trkpt>
   <trkpt lat="51.1507000" lon="5.3427850">
    <ele>54.1</ele>
    <time>2020-06-14T08:14:44Z</time>
   </trkpt>
   <trkpt lat="51.1506560" lon="5.3428540">
    <ele>54.1</ele>
    <time>2020-06-14T08:14:45Z</time>
   </trkpt>
   <trkpt lat="51.1506130" lon="5.3429400">
    <ele>54.1</ele>
    <time>2020-06-14T08:14:46Z</time>
   </trkpt>
   <trkpt lat="51.1505650" lon="5.3430340">
    <ele>54.1</ele>
    <time>2020-06-14T08:14:47Z</time>
   </trkpt>
   <trkpt lat="51.1505120" lon="5.3431170">
    <ele>54.1</ele>
    <time>2020-06-14T08:14:48Z</time>
   </trkpt>
   <trkpt lat="51.1504560" lon="5.3431980">
    <ele>54.1</ele>
    <time>2020-06-14T08:14:49Z</time>
   </trkpt>
   <trkpt lat="51.1503980" lon="5.3432750">
    <ele>54.3</ele>
    <time>2020-06-14T08:14:50Z</time>
   </trkpt>
   <trkpt lat="51.1503390" lon="5.3433470">
    <ele>54.5</ele>
    <time>2020-06-14T08:14:52Z</time>
   </trkpt>
   <trkpt lat="51.1502850" lon="5.3434270">
    <ele>54.6</ele>
    <time>2020-06-14T08:14:53Z</time>
   </trkpt>
   <trkpt lat="51.1502270" lon="5.3435110">
    <ele>54.7</ele>
    <time>2020-06-14T08:14:54Z</time>
   </trkpt>
   <trkpt lat="51.1501730" lon="5.3436090">
    <ele>54.8</ele>
    <time>2020-06-14T08:14:55Z</time>
   </trkpt>
   <trkpt lat="51.1501220" lon="5.3436970">
    <ele>54.9</ele>
    <time>2020-06-14T08:14:56Z</time>
   </trkpt>
   <trkpt lat="51.1500800" lon="5.3437910">
    <ele>55.0</ele>
    <time>2020-06-14T08:14:57Z</time>
   </trkpt>
   <trkpt lat="51.1500490" lon="5.3439000">
    <ele>55.1</ele>
    <time>2020-06-14T08:14:58Z</time>
   </trkpt>
   <trkpt lat="51.1500240" lon="5.3440180">
    <ele>55.2</ele>
    <time>2020-06-14T08:14:59Z</time>
   </trkpt>
   <trkpt lat="51.1500050" lon="5.3441550">
    <ele>55.3</ele>
    <time>2020-06-14T08:15:00Z</time>
   </trkpt>
   <trkpt lat="51.1499950" lon="5.3442890">
    <ele>55.4</ele>
    <time>2020-06-14T08:15:01Z</time>
   </trkpt>
   <trkpt lat="51.1499850" lon="5.3444140">
    <ele>55.4</ele>
    <time>2020-06-14T08:15:02Z</time>
   </trkpt>
   <trkpt lat="51.1499650" lon="5.3445290">
    <ele>55.5</ele>
    <time>2020-06-14T08:15:03Z</time>
   </trkpt>
   <trkpt lat="51.1499440" lon="5.3446530">
    <ele>55.6</ele>
    <time>2020-06-14T08:15:04Z</time>
   </trkpt>
   <trkpt lat="51.1499280" lon="5.3447710">
    <ele>55.6</ele>
    <time>2020-06-14T08:15:05Z</time>
   </trkpt>
   <trkpt lat="51.1499140" lon="5.3448930">
    <ele>55.7</ele>
    <time>2020-06-14T08:15:06Z</time>
   </trkpt>
   <trkpt lat="51.1499070" lon="5.3450100">
    <ele>55.7</ele>
    <time>2020-06-14T08:15:07Z</time>
   </trkpt>
   <trkpt lat="51.1498990" lon="5.3451260">
    <ele>55.7</ele>
    <time>2020-06-14T08:15:08Z</time>
   </trkpt>
   <trkpt lat="51.1498880" lon="5.3452410">
    <ele>55.8</ele>
    <time>2020-06-14T08:15:09Z</time>
   </trkpt>
   <trkpt lat="51.1498890" lon="5.3453590">
    <ele>55.8</ele>
    <time>2020-06-14T08:15:10Z</time>
   </trkpt>
   <trkpt lat="51.1498830" lon="5.3454740">
    <ele>55.8</ele>
    <time>2020-06-14T08:15:11Z</time>
   </trkpt>
   <trkpt lat="51.1498680" lon="5.3455860">
    <ele>55.7</ele>
    <time>2020-06-14T08:15:12Z</time>
   </trkpt>
   <trkpt lat="51.1498570" lon="5.3456980">
    <ele>55.7</ele>
    <time>2020-06-14T08:15:13Z</time>
   </trkpt>
   <trkpt lat="51.1498450" lon="5.3458170">
    <ele>55.7</ele>
    <time>2020-06-14T08:15:14Z</time>
   </trkpt>
   <trkpt lat="51.1498300" lon="5.3459420">
    <ele>55.7</ele>
    <time>2020-06-14T08:15:15Z</time>
   </trkpt>
   <trkpt lat="51.1498180" lon="5.3460660">
    <ele>55.8</ele>
    <time>2020-06-14T08:15:16Z</time>
   </trkpt>
   <trkpt lat="51.1497340" lon="5.3461710">
    <ele>55.8</ele>
    <time>2020-06-14T08:15:17Z</time>
   </trkpt>
   <trkpt lat="51.1497170" lon="5.3462860">
    <ele>55.9</ele>
    <time>2020-06-14T08:15:18Z</time>
   </trkpt>
   <trkpt lat="51.1497050" lon="5.3463980">
    <ele>55.9</ele>
    <time>2020-06-14T08:15:19Z</time>
   </trkpt>
   <trkpt lat="51.1496960" lon="5.3465030">
    <ele>56.0</ele>
    <time>2020-06-14T08:15:20Z</time>
   </trkpt>
   <trkpt lat="51.1496860" lon="5.3466070">
    <ele>56.0</ele>
    <time>2020-06-14T08:15:21Z</time>
   </trkpt>
   <trkpt lat="51.1496720" lon="5.3467110">
    <ele>56.1</ele>
    <time>2020-06-14T08:15:22Z</time>
   </trkpt>
   <trkpt lat="51.1496620" lon="5.3468110">
    <ele>56.1</ele>
    <time>2020-06-14T08:15:23Z</time>
   </trkpt>
   <trkpt lat="51.1496560" lon="5.3469190">
    <ele>56.2</ele>
    <time>2020-06-14T08:15:24Z</time>
   </trkpt>
   <trkpt lat="51.1496450" lon="5.3470310">
    <ele>56.2</ele>
    <time>2020-06-14T08:15:25Z</time>
   </trkpt>
   <trkpt lat="51.1496290" lon="5.3471380">
    <ele>56.2</ele>
    <time>2020-06-14T08:15:26Z</time>
   </trkpt>
   <trkpt lat="51.1496150" lon="5.3472410">
    <ele>56.2</ele>
    <time>2020-06-14T08:15:27Z</time>
   </trkpt>
   <trkpt lat="51.1496020" lon="5.3473520">
    <ele>56.2</ele>
    <time>2020-06-14T08:15:28Z</time>
   </trkpt>
   <trkpt lat="51.1495900" lon="5.3474710">
    <ele>56.2</ele>
    <time>2020-06-14T08:15:29Z</time>
   </trkpt>
   <trkpt lat="51.1495790" lon="5.3475960">
    <ele>56.2</ele>
    <time>2020-06-14T08:15:30Z</time>
   </trkpt>
   <trkpt lat="51.1495660" lon="5.3477250">
    <ele>56.1</ele>
    <time>2020-06-14T08:15:31Z</time>
   </trkpt>
   <trkpt lat="51.1495530" lon="5.3478550">
    <ele>56.1</ele>
    <time>2020-06-14T08:15:32Z</time>
   </trkpt>
   <trkpt lat="51.1495400" lon="5.3479770">
    <ele>56.2</ele>
    <time>2020-06-14T08:15:33Z</time>
   </trkpt>
   <trkpt lat="51.1495330" lon="5.3480970">
    <ele>56.2</ele>
    <time>2020-06-14T08:15:34Z</time>
   </trkpt>
   <trkpt lat="51.1495240" lon="5.3482230">
    <ele>56.3</ele>
    <time>2020-06-14T08:15:35Z</time>
   </trkpt>
   <trkpt lat="51.1495080" lon="5.3483450">
    <ele>56.4</ele>
    <time>2020-06-14T08:15:36Z</time>
   </trkpt>
   <trkpt lat="51.1494970" lon="5.3484660">
    <ele>56.4</ele>
    <time>2020-06-14T08:15:37Z</time>
   </trkpt>
   <trkpt lat="51.1494870" lon="5.3485850">
    <ele>56.5</ele>
    <time>2020-06-14T08:15:38Z</time>
   </trkpt>
   <trkpt lat="51.1494790" lon="5.3487000">
    <ele>56.5</ele>
    <time>2020-06-14T08:15:39Z</time>
   </trkpt>
   <trkpt lat="51.1494670" lon="5.3488130">
    <ele>56.6</ele>
    <time>2020-06-14T08:15:40Z</time>
   </trkpt>
   <trkpt lat="51.1494590" lon="5.3489260">
    <ele>56.6</ele>
    <time>2020-06-14T08:15:41Z</time>
   </trkpt>
   <trkpt lat="51.1494410" lon="5.3490360">
    <ele>56.6</ele>
    <time>2020-06-14T08:15:42Z</time>
   </trkpt>
   <trkpt lat="51.1494230" lon="5.3491460">
    <ele>56.7</ele>
    <time>2020-06-14T08:15:43Z</time>
   </trkpt>
   <trkpt lat="51.1494100" lon="5.3492610">
    <ele>56.7</ele>
    <time>2020-06-14T08:15:44Z</time>
   </trkpt>
   <trkpt lat="51.1493980" lon="5.3493780">
    <ele>56.7</ele>
    <time>2020-06-14T08:15:45Z</time>
   </trkpt>
   <trkpt lat="51.1493810" lon="5.3494950">
    <ele>56.7</ele>
    <time>2020-06-14T08:15:46Z</time>
   </trkpt>
   <trkpt lat="51.1493660" lon="5.3496140">
    <ele>56.7</ele>
    <time>2020-06-14T08:15:47Z</time>
   </trkpt>
   <trkpt lat="51.1493510" lon="5.3497350">
    <ele>56.7</ele>
    <time>2020-06-14T08:15:48Z</time>
   </trkpt>
   <trkpt lat="51.1493420" lon="5.3498610">
    <ele>56.7</ele>
    <time>2020-06-14T08:15:49Z</time>
   </trkpt>
   <trkpt lat="51.1493350" lon="5.3499840">
    <ele>56.8</ele>
    <time>2020-06-14T08:15:50Z</time>
   </trkpt>
   <trkpt lat="51.1493200" lon="5.3501020">
    <ele>56.8</ele>
    <time>2020-06-14T08:15:51Z</time>
   </trkpt>
   <trkpt lat="51.1493040" lon="5.3502190">
    <ele>56.9</ele>
    <time>2020-06-14T08:15:52Z</time>
   </trkpt>
   <trkpt lat="51.1492880" lon="5.3503350">
    <ele>56.9</ele>
    <time>2020-06-14T08:15:53Z</time>
   </trkpt>
   <trkpt lat="51.1492660" lon="5.3504460">
    <ele>57.0</ele>
    <time>2020-06-14T08:15:54Z</time>
   </trkpt>
   <trkpt lat="51.1492390" lon="5.3505540">
    <ele>57.0</ele>
    <time>2020-06-14T08:15:55Z</time>
   </trkpt>
   <trkpt lat="51.1492110" lon="5.3506620">
    <ele>57.0</ele>
    <time>2020-06-14T08:15:56Z</time>
   </trkpt>
   <trkpt lat="51.1491790" lon="5.3507710">
    <ele>57.0</ele>
    <time>2020-06-14T08:15:57Z</time>
   </trkpt>
   <trkpt lat="51.1491500" lon="5.3508850">
    <ele>57.0</ele>
    <time>2020-06-14T08:15:58Z</time>
   </trkpt>
   <trkpt lat="51.1491170" lon="5.3510000">
    <ele>57.1</ele>
    <time>2020-06-14T08:15:59Z</time>
   </trkpt>
   <trkpt lat="51.1490880" lon="5.3511180">
    <ele>57.1</ele>
    <time>2020-06-14T08:16:00Z</time>
   </trkpt>
   <trkpt lat="51.1490560" lon="5.3512340">
    <ele>57.1</ele>
    <time>2020-06-14T08:16:01Z</time>
   </trkpt>
   <trkpt lat="51.1490270" lon="5.3513500">
    <ele>57.2</ele>
    <time>2020-06-14T08:16:02Z</time>
   </trkpt>
   <trkpt lat="51.1490020" lon="5.3514660">
    <ele>57.3</ele>
    <time>2020-06-14T08:16:03Z</time>
   </trkpt>
   <trkpt lat="51.1489740" lon="5.3515790">
    <ele>57.3</ele>
    <time>2020-06-14T08:16:04Z</time>
   </trkpt>
   <trkpt lat="51.1489460" lon="5.3516900">
    <ele>57.3</ele>
    <time>2020-06-14T08:16:05Z</time>
   </trkpt>
   <trkpt lat="51.1489210" lon="5.3518040">
    <ele>57.4</ele>
    <time>2020-06-14T08:16:06Z</time>
   </trkpt>
   <trkpt lat="51.1488910" lon="5.3519160">
    <ele>57.4</ele>
    <time>2020-06-14T08:16:07Z</time>
   </trkpt>
   <trkpt lat="51.1488690" lon="5.3520260">
    <ele>57.4</ele>
    <time>2020-06-14T08:16:08Z</time>
   </trkpt>
   <trkpt lat="51.1488360" lon="5.3521300">
    <ele>57.4</ele>
    <time>2020-06-14T08:16:09Z</time>
   </trkpt>
   <trkpt lat="51.1488180" lon="5.3522420">
    <ele>57.5</ele>
    <time>2020-06-14T08:16:10Z</time>
   </trkpt>
   <trkpt lat="51.1487910" lon="5.3523510">
    <ele>57.5</ele>
    <time>2020-06-14T08:16:11Z</time>
   </trkpt>
   <trkpt lat="51.1487640" lon="5.3524580">
    <ele>57.5</ele>
    <time>2020-06-14T08:16:12Z</time>
   </trkpt>
   <trkpt lat="51.1487410" lon="5.3525700">
    <ele>57.5</ele>
    <time>2020-06-14T08:16:13Z</time>
   </trkpt>
   <trkpt lat="51.1487140" lon="5.3526790">
    <ele>57.5</ele>
    <time>2020-06-14T08:16:14Z</time>
   </trkpt>
   <trkpt lat="51.1486880" lon="5.3527900">
    <ele>57.5</ele>
    <time>2020-06-14T08:16:15Z</time>
   </trkpt>
   <trkpt lat="51.1486710" lon="5.3529010">
    <ele>57.5</ele>
    <time>2020-06-14T08:16:16Z</time>
   </trkpt>
   <trkpt lat="51.1486570" lon="5.3530150">
    <ele>57.5</ele>
    <time>2020-06-14T08:16:17Z</time>
   </trkpt>
   <trkpt lat="51.1486360" lon="5.3531260">
    <ele>57.5</ele>
    <time>2020-06-14T08:16:18Z</time>
   </trkpt>
   <trkpt lat="51.1486090" lon="5.3532350">
    <ele>57.5</ele>
    <time>2020-06-14T08:16:19Z</time>
   </trkpt>
   <trkpt lat="51.1485800" lon="5.3533430">
    <ele>57.6</ele>
    <time>2020-06-14T08:16:20Z</time>
   </trkpt>
   <trkpt lat="51.1485570" lon="5.3534550">
    <ele>57.6</ele>
    <time>2020-06-14T08:16:21Z</time>
   </trkpt>
   <trkpt lat="51.1485330" lon="5.3535690">
    <ele>57.6</ele>
    <time>2020-06-14T08:16:22Z</time>
   </trkpt>
   <trkpt lat="51.1485070" lon="5.3536810">
    <ele>57.5</ele>
    <time>2020-06-14T08:16:23Z</time>
   </trkpt>
   <trkpt lat="51.1484840" lon="5.3537970">
    <ele>57.5</ele>
    <time>2020-06-14T08:16:24Z</time>
   </trkpt>
   <trkpt lat="51.1484560" lon="5.3539150">
    <ele>57.5</ele>
    <time>2020-06-14T08:16:25Z</time>
   </trkpt>
   <trkpt lat="51.1484280" lon="5.3540290">
    <ele>57.5</ele>
    <time>2020-06-14T08:16:26Z</time>
   </trkpt>
   <trkpt lat="51.1483950" lon="5.3541410">
    <ele>57.6</ele>
    <time>2020-06-14T08:16:27Z</time>
   </trkpt>
   <trkpt lat="51.1483620" lon="5.3542540">
    <ele>57.6</ele>
    <time>2020-06-14T08:16:28Z</time>
   </trkpt>
   <trkpt lat="51.1483310" lon="5.3543660">
    <ele>57.6</ele>
    <time>2020-06-14T08:16:29Z</time>
   </trkpt>
   <trkpt lat="51.1483020" lon="5.3544820">
    <ele>57.6</ele>
    <time>2020-06-14T08:16:30Z</time>
   </trkpt>
   <trkpt lat="51.1482800" lon="5.3545980">
    <ele>57.6</ele>
    <time>2020-06-14T08:16:31Z</time>
   </trkpt>
   <trkpt lat="51.1482620" lon="5.3547110">
    <ele>57.7</ele>
    <time>2020-06-14T08:16:32Z</time>
   </trkpt>
   <trkpt lat="51.1482480" lon="5.3548200">
    <ele>57.7</ele>
    <time>2020-06-14T08:16:33Z</time>
   </trkpt>
   <trkpt lat="51.1482260" lon="5.3549260">
    <ele>57.7</ele>
    <time>2020-06-14T08:16:34Z</time>
   </trkpt>
   <trkpt lat="51.1481990" lon="5.3550340">
    <ele>57.8</ele>
    <time>2020-06-14T08:16:35Z</time>
   </trkpt>
   <trkpt lat="51.1481780" lon="5.3551380">
    <ele>57.8</ele>
    <time>2020-06-14T08:16:36Z</time>
   </trkpt>
   <trkpt lat="51.1481600" lon="5.3552410">
    <ele>57.9</ele>
    <time>2020-06-14T08:16:37Z</time>
   </trkpt>
   <trkpt lat="51.1481380" lon="5.3553440">
    <ele>57.9</ele>
    <time>2020-06-14T08:16:38Z</time>
   </trkpt>
   <trkpt lat="51.1481200" lon="5.3554540">
    <ele>58.0</ele>
    <time>2020-06-14T08:16:39Z</time>
   </trkpt>
   <trkpt lat="51.1480020" lon="5.3555280">
    <ele>58.1</ele>
    <time>2020-06-14T08:16:40Z</time>
   </trkpt>
   <trkpt lat="51.1479730" lon="5.3556310">
    <ele>58.1</ele>
    <time>2020-06-14T08:16:41Z</time>
   </trkpt>
   <trkpt lat="51.1479460" lon="5.3557350">
    <ele>58.1</ele>
    <time>2020-06-14T08:16:42Z</time>
   </trkpt>
   <trkpt lat="51.1479150" lon="5.3558390">
    <ele>58.2</ele>
    <time>2020-06-14T08:16:43Z</time>
   </trkpt>
   <trkpt lat="51.1478950" lon="5.3559520">
    <ele>58.2</ele>
    <time>2020-06-14T08:16:44Z</time>
   </trkpt>
   <trkpt lat="51.1478720" lon="5.3560640">
    <ele>58.2</ele>
    <time>2020-06-14T08:16:45Z</time>
   </trkpt>
   <trkpt lat="51.1478370" lon="5.3561780">
    <ele>58.2</ele>
    <time>2020-06-14T08:16:46Z</time>
   </trkpt>
   <trkpt lat="51.1478080" lon="5.3562940">
    <ele>58.2</ele>
    <time>2020-06-14T08:16:47Z</time>
   </trkpt>
   <trkpt lat="51.1477750" lon="5.3564080">
    <ele>58.2</ele>
    <time>2020-06-14T08:16:48Z</time>
   </trkpt>
   <trkpt lat="51.1477490" lon="5.3565380">
    <ele>58.1</ele>
    <time>2020-06-14T08:16:49Z</time>
   </trkpt>
   <trkpt lat="51.1477240" lon="5.3566580">
    <ele>58.1</ele>
    <time>2020-06-14T08:16:50Z</time>
   </trkpt>
   <trkpt lat="51.1476880" lon="5.3567680">
    <ele>58.1</ele>
    <time>2020-06-14T08:16:51Z</time>
   </trkpt>
   <trkpt lat="51.1476660" lon="5.3568730">
    <ele>58.1</ele>
    <time>2020-06-14T08:16:52Z</time>
   </trkpt>
   <trkpt lat="51.1476380" lon="5.3569890">
    <ele>58.1</ele>
    <time>2020-06-14T08:16:53Z</time>
   </trkpt>
   <trkpt lat="51.1476260" lon="5.3570990">
    <ele>58.1</ele>
    <time>2020-06-14T08:16:54Z</time>
   </trkpt>
   <trkpt lat="51.1476020" lon="5.3572000">
    <ele>58.1</ele>
    <time>2020-06-14T08:16:55Z</time>
   </trkpt>
   <trkpt lat="51.1475930" lon="5.3573140">
    <ele>58.0</ele>
    <time>2020-06-14T08:16:56Z</time>
   </trkpt>
   <trkpt lat="51.1475720" lon="5.3574220">
    <ele>58.0</ele>
    <time>2020-06-14T08:16:57Z</time>
   </trkpt>
   <trkpt lat="51.1475450" lon="5.3575250">
    <ele>57.9</ele>
    <time>2020-06-14T08:16:58Z</time>
   </trkpt>
   <trkpt lat="51.1475280" lon="5.3576340">
    <ele>57.8</ele>
    <time>2020-06-14T08:16:59Z</time>
   </trkpt>
   <trkpt lat="51.1475160" lon="5.3577560">
    <ele>57.7</ele>
    <time>2020-06-14T08:17:00Z</time>
   </trkpt>
   <trkpt lat="51.1474770" lon="5.3578640">
    <ele>57.7</ele>
    <time>2020-06-14T08:17:01Z</time>
   </trkpt>
   <trkpt lat="51.1474380" lon="5.3579680">
    <ele>57.6</ele>
    <time>2020-06-14T08:17:02Z</time>
   </trkpt>
   <trkpt lat="51.1474170" lon="5.3580810">
    <ele>57.5</ele>
    <time>2020-06-14T08:17:03Z</time>
   </trkpt>
   <trkpt lat="51.1473850" lon="5.3581900">
    <ele>57.4</ele>
    <time>2020-06-14T08:17:04Z</time>
   </trkpt>
   <trkpt lat="51.1473600" lon="5.3583020">
    <ele>57.3</ele>
    <time>2020-06-14T08:17:05Z</time>
   </trkpt>
   <trkpt lat="51.1473410" lon="5.3584170">
    <ele>57.3</ele>
    <time>2020-06-14T08:17:06Z</time>
   </trkpt>
   <trkpt lat="51.1473140" lon="5.3585250">
    <ele>57.2</ele>
    <time>2020-06-14T08:17:07Z</time>
   </trkpt>
   <trkpt lat="51.1472860" lon="5.3586350">
    <ele>57.1</ele>
    <time>2020-06-14T08:17:08Z</time>
   </trkpt>
   <trkpt lat="51.1472580" lon="5.3587430">
    <ele>57.1</ele>
    <time>2020-06-14T08:17:09Z</time>
   </trkpt>
   <trkpt lat="51.1472290" lon="5.3588510">
    <ele>57.1</ele>
    <time>2020-06-14T08:17:10Z</time>
   </trkpt>
   <trkpt lat="51.1472030" lon="5.3589650">
    <ele>57.1</ele>
    <time>2020-06-14T08:17:11Z</time>
   </trkpt>
   <trkpt lat="51.1471690" lon="5.3590750">
    <ele>57.1</ele>
    <time>2020-06-14T08:17:12Z</time>
   </trkpt>
   <trkpt lat="51.1471330" lon="5.3591820">
    <ele>57.2</ele>
    <time>2020-06-14T08:17:13Z</time>
   </trkpt>
   <trkpt lat="51.1471030" lon="5.3592850">
    <ele>57.2</ele>
    <time>2020-06-14T08:17:14Z</time>
   </trkpt>
   <trkpt lat="51.1470740" lon="5.3593870">
    <ele>57.3</ele>
    <time>2020-06-14T08:17:15Z</time>
   </trkpt>
   <trkpt lat="51.1470440" lon="5.3594810">
    <ele>57.3</ele>
    <time>2020-06-14T08:17:16Z</time>
   </trkpt>
   <trkpt lat="51.1470140" lon="5.3595650">
    <ele>57.4</ele>
    <time>2020-06-14T08:17:17Z</time>
   </trkpt>
   <trkpt lat="51.1469860" lon="5.3596380">
    <ele>57.4</ele>
    <time>2020-06-14T08:17:18Z</time>
   </trkpt>
   <trkpt lat="51.1469630" lon="5.3597030">
    <ele>57.4</ele>
    <time>2020-06-14T08:17:19Z</time>
   </trkpt>
   <trkpt lat="51.1469400" lon="5.3597700">
    <ele>57.4</ele>
    <time>2020-06-14T08:17:20Z</time>
   </trkpt>
   <trkpt lat="51.1469110" lon="5.3598320">
    <ele>57.4</ele>
    <time>2020-06-14T08:17:21Z</time>
   </trkpt>
   <trkpt lat="51.1468700" lon="5.3598880">
    <ele>57.4</ele>
    <time>2020-06-14T08:17:22Z</time>
   </trkpt>
   <trkpt lat="51.1468210" lon="5.3599280">
    <ele>57.4</ele>
    <time>2020-06-14T08:17:23Z</time>
   </trkpt>
   <trkpt lat="51.1467610" lon="5.3599520">
    <ele>57.4</ele>
    <time>2020-06-14T08:17:24Z</time>
   </trkpt>
   <trkpt lat="51.1466980" lon="5.3599680">
    <ele>57.5</ele>
    <time>2020-06-14T08:17:25Z</time>
   </trkpt>
   <trkpt lat="51.1466400" lon="5.3599860">
    <ele>57.5</ele>
    <time>2020-06-14T08:17:26Z</time>
   </trkpt>
   <trkpt lat="51.1465840" lon="5.3599940">
    <ele>57.5</ele>
    <time>2020-06-14T08:17:27Z</time>
   </trkpt>
   <trkpt lat="51.1465360" lon="5.3600020">
    <ele>57.5</ele>
    <time>2020-06-14T08:17:28Z</time>
   </trkpt>
   <trkpt lat="51.1464960" lon="5.3600240">
    <ele>57.6</ele>
    <time>2020-06-14T08:17:29Z</time>
   </trkpt>
   <trkpt lat="51.1464510" lon="5.3600330">
    <ele>57.6</ele>
    <time>2020-06-14T08:17:30Z</time>
   </trkpt>
   <trkpt lat="51.1464010" lon="5.3600460">
    <ele>57.6</ele>
    <time>2020-06-14T08:17:31Z</time>
   </trkpt>
   <trkpt lat="51.1463440" lon="5.3600630">
    <ele>57.7</ele>
    <time>2020-06-14T08:17:32Z</time>
   </trkpt>
   <trkpt lat="51.1462840" lon="5.3600780">
    <ele>57.8</ele>
    <time>2020-06-14T08:17:33Z</time>
   </trkpt>
   <trkpt lat="51.1462190" lon="5.3600590">
    <ele>57.9</ele>
    <time>2020-06-14T08:17:34Z</time>
   </trkpt>
   <trkpt lat="51.1461580" lon="5.3600280">
    <ele>57.9</ele>
    <time>2020-06-14T08:17:35Z</time>
   </trkpt>
   <trkpt lat="51.1461020" lon="5.3599810">
    <ele>57.8</ele>
    <time>2020-06-14T08:17:36Z</time>
   </trkpt>
   <trkpt lat="51.1460700" lon="5.3598760">
    <ele>57.7</ele>
    <time>2020-06-14T08:17:37Z</time>
   </trkpt>
   <trkpt lat="51.1460330" lon="5.3597660">
    <ele>57.6</ele>
    <time>2020-06-14T08:17:38Z</time>
   </trkpt>
   <trkpt lat="51.1459860" lon="5.3596620">
    <ele>57.6</ele>
    <time>2020-06-14T08:17:39Z</time>
   </trkpt>
   <trkpt lat="51.1459290" lon="5.3595410">
    <ele>57.6</ele>
    <time>2020-06-14T08:17:40Z</time>
   </trkpt>
   <trkpt lat="51.1458670" lon="5.3594250">
    <ele>57.7</ele>
    <time>2020-06-14T08:17:41Z</time>
   </trkpt>
   <trkpt lat="51.1458110" lon="5.3593220">
    <ele>57.7</ele>
    <time>2020-06-14T08:17:42Z</time>
   </trkpt>
   <trkpt lat="51.1457520" lon="5.3592150">
    <ele>57.8</ele>
    <time>2020-06-14T08:17:43Z</time>
   </trkpt>
   <trkpt lat="51.1456990" lon="5.3591170">
    <ele>57.8</ele>
    <time>2020-06-14T08:17:44Z</time>
   </trkpt>
   <trkpt lat="51.1456540" lon="5.3590300">
    <ele>57.9</ele>
    <time>2020-06-14T08:17:45Z</time>
   </trkpt>
   <trkpt lat="51.1456050" lon="5.3589340">
    <ele>58.0</ele>
    <time>2020-06-14T08:17:46Z</time>
   </trkpt>
   <trkpt lat="51.1455630" lon="5.3588450">
    <ele>58.1</ele>
    <time>2020-06-14T08:17:47Z</time>
   </trkpt>
   <trkpt lat="51.1455170" lon="5.3587480">
    <ele>58.2</ele>
    <time>2020-06-14T08:17:48Z</time>
   </trkpt>
   <trkpt lat="51.1454730" lon="5.3586470">
    <ele>58.3</ele>
    <time>2020-06-14T08:17:49Z</time>
   </trkpt>
   <trkpt lat="51.1454290" lon="5.3585430">
    <ele>58.5</ele>
    <time>2020-06-14T08:17:50Z</time>
   </trkpt>
   <trkpt lat="51.1453970" lon="5.3584440">
    <ele>58.5</ele>
    <time>2020-06-14T08:17:51Z</time>
   </trkpt>
   <trkpt lat="51.1453640" lon="5.3583480">
    <ele>58.5</ele>
    <time>2020-06-14T08:17:52Z</time>
   </trkpt>
   <trkpt lat="51.1453270" lon="5.3582430">
    <ele>58.5</ele>
    <time>2020-06-14T08:17:53Z</time>
   </trkpt>
   <trkpt lat="51.1452990" lon="5.3581380">
    <ele>58.5</ele>
    <time>2020-06-14T08:17:54Z</time>
   </trkpt>
   <trkpt lat="51.1452730" lon="5.3580260">
    <ele>58.6</ele>
    <time>2020-06-14T08:17:55Z</time>
   </trkpt>
   <trkpt lat="51.1452420" lon="5.3579140">
    <ele>58.6</ele>
    <time>2020-06-14T08:17:56Z</time>
   </trkpt>
   <trkpt lat="51.1452160" lon="5.3578070">
    <ele>58.6</ele>
    <time>2020-06-14T08:17:57Z</time>
   </trkpt>
   <trkpt lat="51.1451880" lon="5.3577010">
    <ele>58.6</ele>
    <time>2020-06-14T08:17:58Z</time>
   </trkpt>
   <trkpt lat="51.1451590" lon="5.3575920">
    <ele>58.6</ele>
    <time>2020-06-14T08:17:59Z</time>
   </trkpt>
   <trkpt lat="51.1451310" lon="5.3574890">
    <ele>58.5</ele>
    <time>2020-06-14T08:18:00Z</time>
   </trkpt>
   <trkpt lat="51.1451040" lon="5.3573880">
    <ele>58.5</ele>
    <time>2020-06-14T08:18:01Z</time>
   </trkpt>
   <trkpt lat="51.1450790" lon="5.3572880">
    <ele>58.4</ele>
    <time>2020-06-14T08:18:02Z</time>
   </trkpt>
   <trkpt lat="51.1450550" lon="5.3571900">
    <ele>58.4</ele>
    <time>2020-06-14T08:18:03Z</time>
   </trkpt>
   <trkpt lat="51.1450330" lon="5.3570800">
    <ele>58.3</ele>
    <time>2020-06-14T08:18:04Z</time>
   </trkpt>
   <trkpt lat="51.1450100" lon="5.3569740">
    <ele>58.3</ele>
    <time>2020-06-14T08:18:05Z</time>
   </trkpt>
   <trkpt lat="51.1449920" lon="5.3568680">
    <ele>58.3</ele>
    <time>2020-06-14T08:18:06Z</time>
   </trkpt>
   <trkpt lat="51.1449770" lon="5.3567530">
    <ele>58.2</ele>
    <time>2020-06-14T08:18:07Z</time>
   </trkpt>
   <trkpt lat="51.1449700" lon="5.3566440">
    <ele>58.1</ele>
    <time>2020-06-14T08:18:08Z</time>
   </trkpt>
   <trkpt lat="51.1449600" lon="5.3565410">
    <ele>58.1</ele>
    <time>2020-06-14T08:18:09Z</time>
   </trkpt>
   <trkpt lat="51.1449500" lon="5.3564350">
    <ele>58.0</ele>
    <time>2020-06-14T08:18:10Z</time>
   </trkpt>
   <trkpt lat="51.1449460" lon="5.3563250">
    <ele>57.9</ele>
    <time>2020-06-14T08:18:11Z</time>
   </trkpt>
   <trkpt lat="51.1449420" lon="5.3562150">
    <ele>57.8</ele>
    <time>2020-06-14T08:18:12Z</time>
   </trkpt>
   <trkpt lat="51.1449360" lon="5.3561090">
    <ele>57.8</ele>
    <time>2020-06-14T08:18:13Z</time>
   </trkpt>
   <trkpt lat="51.1449270" lon="5.3560030">
    <ele>57.7</ele>
    <time>2020-06-14T08:18:14Z</time>
   </trkpt>
   <trkpt lat="51.1449250" lon="5.3558970">
    <ele>57.7</ele>
    <time>2020-06-14T08:18:15Z</time>
   </trkpt>
   <trkpt lat="51.1449240" lon="5.3557940">
    <ele>57.6</ele>
    <time>2020-06-14T08:18:16Z</time>
   </trkpt>
   <trkpt lat="51.1449210" lon="5.3556930">
    <ele>57.5</ele>
    <time>2020-06-14T08:18:17Z</time>
   </trkpt>
   <trkpt lat="51.1449170" lon="5.3555920">
    <ele>57.4</ele>
    <time>2020-06-14T08:18:18Z</time>
   </trkpt>
   <trkpt lat="51.1449100" lon="5.3554970">
    <ele>57.4</ele>
    <time>2020-06-14T08:18:19Z</time>
   </trkpt>
   <trkpt lat="51.1449040" lon="5.3554070">
    <ele>57.3</ele>
    <time>2020-06-14T08:18:20Z</time>
   </trkpt>
   <trkpt lat="51.1448950" lon="5.3553220">
    <ele>57.3</ele>
    <time>2020-06-14T08:18:21Z</time>
   </trkpt>
   <trkpt lat="51.1448860" lon="5.3552370">
    <ele>57.3</ele>
    <time>2020-06-14T08:18:22Z</time>
   </trkpt>
   <trkpt lat="51.1448670" lon="5.3551560">
    <ele>57.2</ele>
    <time>2020-06-14T08:18:23Z</time>
   </trkpt>
   <trkpt lat="51.1448370" lon="5.3550810">
    <ele>57.2</ele>
    <time>2020-06-14T08:18:24Z</time>
   </trkpt>
   <trkpt lat="51.1448090" lon="5.3550070">
    <ele>57.3</ele>
    <time>2020-06-14T08:18:25Z</time>
   </trkpt>
   <trkpt lat="51.1447780" lon="5.3549470">
    <ele>57.4</ele>
    <time>2020-06-14T08:18:26Z</time>
   </trkpt>
   <trkpt lat="51.1447420" lon="5.3548870">
    <ele>57.4</ele>
    <time>2020-06-14T08:18:27Z</time>
   </trkpt>
   <trkpt lat="51.1447160" lon="5.3548250">
    <ele>57.5</ele>
    <time>2020-06-14T08:18:28Z</time>
   </trkpt>
   <trkpt lat="51.1446910" lon="5.3547760">
    <ele>57.6</ele>
    <time>2020-06-14T08:18:29Z</time>
   </trkpt>
   <trkpt lat="51.1446670" lon="5.3547340">
    <ele>57.6</ele>
    <time>2020-06-14T08:18:30Z</time>
   </trkpt>
   <trkpt lat="51.1446440" lon="5.3547070">
    <ele>57.6</ele>
    <time>2020-06-14T08:18:31Z</time>
   </trkpt>
   <trkpt lat="51.1445990" lon="5.3546930">
    <ele>57.7</ele>
    <time>2020-06-14T08:18:32Z</time>
   </trkpt>
   <trkpt lat="51.1445780" lon="5.3546890">
    <ele>57.7</ele>
    <time>2020-06-14T08:18:33Z</time>
   </trkpt>
   <trkpt lat="51.1445270" lon="5.3546930">
    <ele>57.8</ele>
    <time>2020-06-14T08:18:34Z</time>
   </trkpt>
   <trkpt lat="51.1444810" lon="5.3546880">
    <ele>57.9</ele>
    <time>2020-06-14T08:18:35Z</time>
   </trkpt>
   <trkpt lat="51.1444340" lon="5.3546930">
    <ele>58.0</ele>
    <time>2020-06-14T08:18:36Z</time>
   </trkpt>
   <trkpt lat="51.1443850" lon="5.3546950">
    <ele>58.0</ele>
    <time>2020-06-14T08:18:37Z</time>
   </trkpt>
   <trkpt lat="51.1443260" lon="5.3547010">
    <ele>58.1</ele>
    <time>2020-06-14T08:18:38Z</time>
   </trkpt>
   <trkpt lat="51.1442590" lon="5.3547050">
    <ele>58.2</ele>
    <time>2020-06-14T08:18:39Z</time>
   </trkpt>
   <trkpt lat="51.1441990" lon="5.3547040">
    <ele>58.3</ele>
    <time>2020-06-14T08:18:40Z</time>
   </trkpt>
   <trkpt lat="51.1441450" lon="5.3546940">
    <ele>58.3</ele>
    <time>2020-06-14T08:18:41Z</time>
   </trkpt>
   <trkpt lat="51.1440890" lon="5.3546770">
    <ele>58.4</ele>
    <time>2020-06-14T08:18:42Z</time>
   </trkpt>
   <trkpt lat="51.1440230" lon="5.3546700">
    <ele>58.5</ele>
    <time>2020-06-14T08:18:43Z</time>
   </trkpt>
   <trkpt lat="51.1439450" lon="5.3546060">
    <ele>58.5</ele>
    <time>2020-06-14T08:18:44Z</time>
   </trkpt>
   <trkpt lat="51.1438620" lon="5.3546090">
    <ele>58.5</ele>
    <time>2020-06-14T08:18:45Z</time>
   </trkpt>
   <trkpt lat="51.1437790" lon="5.3546100">
    <ele>58.5</ele>
    <time>2020-06-14T08:18:46Z</time>
   </trkpt>
   <trkpt lat="51.1436900" lon="5.3546010">
    <ele>58.4</ele>
    <time>2020-06-14T08:18:47Z</time>
   </trkpt>
   <trkpt lat="51.1436020" lon="5.3545980">
    <ele>58.4</ele>
    <time>2020-06-14T08:18:48Z</time>
   </trkpt>
   <trkpt lat="51.1435110" lon="5.3545970">
    <ele>58.4</ele>
    <time>2020-06-14T08:18:49Z</time>
   </trkpt>
   <trkpt lat="51.1434290" lon="5.3545840">
    <ele>58.4</ele>
    <time>2020-06-14T08:18:50Z</time>
   </trkpt>
   <trkpt lat="51.1433520" lon="5.3545800">
    <ele>58.3</ele>
    <time>2020-06-14T08:18:51Z</time>
   </trkpt>
   <trkpt lat="51.1432660" lon="5.3545770">
    <ele>58.3</ele>
    <time>2020-06-14T08:18:52Z</time>
   </trkpt>
   <trkpt lat="51.1431710" lon="5.3545760">
    <ele>58.3</ele>
    <time>2020-06-14T08:18:53Z</time>
   </trkpt>
   <trkpt lat="51.1430900" lon="5.3545730">
    <ele>58.4</ele>
    <time>2020-06-14T08:18:54Z</time>
   </trkpt>
   <trkpt lat="51.1430170" lon="5.3545730">
    <ele>58.4</ele>
    <time>2020-06-14T08:18:55Z</time>
   </trkpt>
   <trkpt lat="51.1429470" lon="5.3545650">
    <ele>58.4</ele>
    <time>2020-06-14T08:18:56Z</time>
   </trkpt>
   <trkpt lat="51.1428710" lon="5.3545730">
    <ele>58.4</ele>
    <time>2020-06-14T08:18:57Z</time>
   </trkpt>
   <trkpt lat="51.1427900" lon="5.3545740">
    <ele>58.4</ele>
    <time>2020-06-14T08:18:58Z</time>
   </trkpt>
   <trkpt lat="51.1427050" lon="5.3545960">
    <ele>58.3</ele>
    <time>2020-06-14T08:18:59Z</time>
   </trkpt>
   <trkpt lat="51.1426160" lon="5.3546180">
    <ele>58.3</ele>
    <time>2020-06-14T08:19:00Z</time>
   </trkpt>
   <trkpt lat="51.1425340" lon="5.3546370">
    <ele>58.2</ele>
    <time>2020-06-14T08:19:01Z</time>
   </trkpt>
   <trkpt lat="51.1424540" lon="5.3546520">
    <ele>58.2</ele>
    <time>2020-06-14T08:19:02Z</time>
   </trkpt>
   <trkpt lat="51.1423840" lon="5.3546690">
    <ele>58.1</ele>
    <time>2020-06-14T08:19:03Z</time>
   </trkpt>
   <trkpt lat="51.1423040" lon="5.3546870">
    <ele>58.1</ele>
    <time>2020-06-14T08:19:04Z</time>
   </trkpt>
   <trkpt lat="51.1422220" lon="5.3547090">
    <ele>58.0</ele>
    <time>2020-06-14T08:19:05Z</time>
   </trkpt>
   <trkpt lat="51.1421460" lon="5.3547280">
    <ele>58.0</ele>
    <time>2020-06-14T08:19:06Z</time>
   </trkpt>
   <trkpt lat="51.1420730" lon="5.3547520">
    <ele>58.0</ele>
    <time>2020-06-14T08:19:07Z</time>
   </trkpt>
   <trkpt lat="51.1420110" lon="5.3547700">
    <ele>58.0</ele>
    <time>2020-06-14T08:19:08Z</time>
   </trkpt>
   <trkpt lat="51.1419540" lon="5.3547840">
    <ele>58.0</ele>
    <time>2020-06-14T08:19:09Z</time>
   </trkpt>
   <trkpt lat="51.1418890" lon="5.3548010">
    <ele>58.0</ele>
    <time>2020-06-14T08:19:10Z</time>
   </trkpt>
   <trkpt lat="51.1418040" lon="5.3548240">
    <ele>58.0</ele>
    <time>2020-06-14T08:19:11Z</time>
   </trkpt>
   <trkpt lat="51.1417270" lon="5.3548450">
    <ele>58.0</ele>
    <time>2020-06-14T08:19:12Z</time>
   </trkpt>
   <trkpt lat="51.1416460" lon="5.3548730">
    <ele>58.0</ele>
    <time>2020-06-14T08:19:13Z</time>
   </trkpt>
   <trkpt lat="51.1415700" lon="5.3548960">
    <ele>58.0</ele>
    <time>2020-06-14T08:19:14Z</time>
   </trkpt>
   <trkpt lat="51.1414860" lon="5.3549210">
    <ele>58.1</ele>
    <time>2020-06-14T08:19:15Z</time>
   </trkpt>
   <trkpt lat="51.1414140" lon="5.3549440">
    <ele>58.1</ele>
    <time>2020-06-14T08:19:16Z</time>
   </trkpt>
   <trkpt lat="51.1413440" lon="5.3549790">
    <ele>58.2</ele>
    <time>2020-06-14T08:19:17Z</time>
   </trkpt>
   <trkpt lat="51.1412790" lon="5.3550050">
    <ele>58.2</ele>
    <time>2020-06-14T08:19:18Z</time>
   </trkpt>
   <trkpt lat="51.1412180" lon="5.3550430">
    <ele>58.2</ele>
    <time>2020-06-14T08:19:19Z</time>
   </trkpt>
   <trkpt lat="51.1411460" lon="5.3550640">
    <ele>58.1</ele>
    <time>2020-06-14T08:19:20Z</time>
   </trkpt>
   <trkpt lat="51.1410500" lon="5.3550890">
    <ele>58.1</ele>
    <time>2020-06-14T08:19:21Z</time>
   </trkpt>
   <trkpt lat="51.1409560" lon="5.3551370">
    <ele>58.2</ele>
    <time>2020-06-14T08:19:22Z</time>
   </trkpt>
   <trkpt lat="51.1408860" lon="5.3551900">
    <ele>58.3</ele>
    <time>2020-06-14T08:19:23Z</time>
   </trkpt>
   <trkpt lat="51.1408150" lon="5.3552310">
    <ele>58.3</ele>
    <time>2020-06-14T08:19:24Z</time>
   </trkpt>
   <trkpt lat="51.1407520" lon="5.3552700">
    <ele>58.4</ele>
    <time>2020-06-14T08:19:25Z</time>
   </trkpt>
   <trkpt lat="51.1407020" lon="5.3553010">
    <ele>58.4</ele>
    <time>2020-06-14T08:19:26Z</time>
   </trkpt>
   <trkpt lat="51.1406370" lon="5.3553520">
    <ele>58.5</ele>
    <time>2020-06-14T08:19:27Z</time>
   </trkpt>
   <trkpt lat="51.1405680" lon="5.3554140">
    <ele>58.4</ele>
    <time>2020-06-14T08:19:28Z</time>
   </trkpt>
   <trkpt lat="51.1404990" lon="5.3554840">
    <ele>58.4</ele>
    <time>2020-06-14T08:19:29Z</time>
   </trkpt>
   <trkpt lat="51.1404400" lon="5.3555420">
    <ele>58.4</ele>
    <time>2020-06-14T08:19:30Z</time>
   </trkpt>
   <trkpt lat="51.1403900" lon="5.3556050">
    <ele>58.3</ele>
    <time>2020-06-14T08:19:31Z</time>
   </trkpt>
   <trkpt lat="51.1403470" lon="5.3556600">
    <ele>58.3</ele>
    <time>2020-06-14T08:19:32Z</time>
   </trkpt>
   <trkpt lat="51.1403110" lon="5.3557010">
    <ele>58.2</ele>
    <time>2020-06-14T08:19:33Z</time>
   </trkpt>
   <trkpt lat="51.1402800" lon="5.3557510">
    <ele>58.2</ele>
    <time>2020-06-14T08:19:34Z</time>
   </trkpt>
   <trkpt lat="51.1402330" lon="5.3558130">
    <ele>58.1</ele>
    <time>2020-06-14T08:19:35Z</time>
   </trkpt>
   <trkpt lat="51.1401590" lon="5.3558860">
    <ele>58.0</ele>
    <time>2020-06-14T08:19:36Z</time>
   </trkpt>
   <trkpt lat="51.1400790" lon="5.3559560">
    <ele>57.9</ele>
    <time>2020-06-14T08:19:37Z</time>
   </trkpt>
   <trkpt lat="51.1400050" lon="5.3560160">
    <ele>57.9</ele>
    <time>2020-06-14T08:19:38Z</time>
   </trkpt>
   <trkpt lat="51.1399170" lon="5.3560590">
    <ele>57.8</ele>
    <time>2020-06-14T08:19:39Z</time>
   </trkpt>
   <trkpt lat="51.1398420" lon="5.3561140">
    <ele>57.8</ele>
    <time>2020-06-14T08:19:40Z</time>
   </trkpt>
   <trkpt lat="51.1397630" lon="5.3561630">
    <ele>57.7</ele>
    <time>2020-06-14T08:19:41Z</time>
   </trkpt>
   <trkpt lat="51.1396900" lon="5.3562110">
    <ele>57.7</ele>
    <time>2020-06-14T08:19:42Z</time>
   </trkpt>
   <trkpt lat="51.1396060" lon="5.3562660">
    <ele>57.7</ele>
    <time>2020-06-14T08:19:43Z</time>
   </trkpt>
   <trkpt lat="51.1395300" lon="5.3563150">
    <ele>57.7</ele>
    <time>2020-06-14T08:19:44Z</time>
   </trkpt>
   <trkpt lat="51.1394700" lon="5.3563520">
    <ele>57.7</ele>
    <time>2020-06-14T08:19:45Z</time>
   </trkpt>
   <trkpt lat="51.1394060" lon="5.3563970">
    <ele>57.8</ele>
    <time>2020-06-14T08:19:46Z</time>
   </trkpt>
   <trkpt lat="51.1393540" lon="5.3564330">
    <ele>57.8</ele>
    <time>2020-06-14T08:19:47Z</time>
   </trkpt>
   <trkpt lat="51.1392990" lon="5.3564610">
    <ele>57.8</ele>
    <time>2020-06-14T08:19:48Z</time>
   </trkpt>
   <trkpt lat="51.1392400" lon="5.3564820">
    <ele>57.8</ele>
    <time>2020-06-14T08:19:49Z</time>
   </trkpt>
   <trkpt lat="51.1391820" lon="5.3564800">
    <ele>57.8</ele>
    <time>2020-06-14T08:19:50Z</time>
   </trkpt>
   <trkpt lat="51.1391220" lon="5.3564490">
    <ele>57.8</ele>
    <time>2020-06-14T08:19:51Z</time>
   </trkpt>
   <trkpt lat="51.1390580" lon="5.3563810">
    <ele>57.8</ele>
    <time>2020-06-14T08:19:52Z</time>
   </trkpt>
   <trkpt lat="51.1390000" lon="5.3563170">
    <ele>57.8</ele>
    <time>2020-06-14T08:19:53Z</time>
   </trkpt>
   <trkpt lat="51.1389440" lon="5.3562520">
    <ele>57.8</ele>
    <time>2020-06-14T08:19:54Z</time>
   </trkpt>
   <trkpt lat="51.1389010" lon="5.3561810">
    <ele>57.9</ele>
    <time>2020-06-14T08:19:55Z</time>
   </trkpt>
   <trkpt lat="51.1388550" lon="5.3561240">
    <ele>58.0</ele>
    <time>2020-06-14T08:19:56Z</time>
   </trkpt>
   <trkpt lat="51.1388150" lon="5.3560760">
    <ele>58.0</ele>
    <time>2020-06-14T08:19:57Z</time>
   </trkpt>
   <trkpt lat="51.1387800" lon="5.3560290">
    <ele>58.0</ele>
    <time>2020-06-14T08:19:58Z</time>
   </trkpt>
   <trkpt lat="51.1387460" lon="5.3559780">
    <ele>58.1</ele>
    <time>2020-06-14T08:19:59Z</time>
   </trkpt>
   <trkpt lat="51.1387120" lon="5.3559220">
    <ele>58.1</ele>
    <time>2020-06-14T08:20:00Z</time>
   </trkpt>
   <trkpt lat="51.1386640" lon="5.3558730">
    <ele>58.1</ele>
    <time>2020-06-14T08:20:01Z</time>
   </trkpt>
   <trkpt lat="51.1386240" lon="5.3558350">
    <ele>58.1</ele>
    <time>2020-06-14T08:20:02Z</time>
   </trkpt>
   <trkpt lat="51.1385860" lon="5.3557970">
    <ele>58.1</ele>
    <time>2020-06-14T08:20:03Z</time>
   </trkpt>
   <trkpt lat="51.1385370" lon="5.3557460">
    <ele>58.1</ele>
    <time>2020-06-14T08:20:04Z</time>
   </trkpt>
   <trkpt lat="51.1384760" lon="5.3556850">
    <ele>58.1</ele>
    <time>2020-06-14T08:20:05Z</time>
   </trkpt>
   <trkpt lat="51.1384150" lon="5.3556230">
    <ele>58.2</ele>
    <time>2020-06-14T08:20:06Z</time>
   </trkpt>
   <trkpt lat="51.1383520" lon="5.3555590">
    <ele>58.2</ele>
    <time>2020-06-14T08:20:07Z</time>
   </trkpt>
   <trkpt lat="51.1382810" lon="5.3554900">
    <ele>58.2</ele>
    <time>2020-06-14T08:20:08Z</time>
   </trkpt>
   <trkpt lat="51.1382110" lon="5.3554100">
    <ele>58.2</ele>
    <time>2020-06-14T08:20:09Z</time>
   </trkpt>
   <trkpt lat="51.1381450" lon="5.3553250">
    <ele>58.2</ele>
    <time>2020-06-14T08:20:10Z</time>
   </trkpt>
   <trkpt lat="51.1380800" lon="5.3552410">
    <ele>58.2</ele>
    <time>2020-06-14T08:20:11Z</time>
   </trkpt>
   <trkpt lat="51.1380170" lon="5.3551830">
    <ele>58.2</ele>
    <time>2020-06-14T08:20:12Z</time>
   </trkpt>
   <trkpt lat="51.1379550" lon="5.3551260">
    <ele>58.2</ele>
    <time>2020-06-14T08:20:13Z</time>
   </trkpt>
   <trkpt lat="51.1378920" lon="5.3550570">
    <ele>58.2</ele>
    <time>2020-06-14T08:20:14Z</time>
   </trkpt>
   <trkpt lat="51.1378220" lon="5.3549880">
    <ele>58.2</ele>
    <time>2020-06-14T08:20:15Z</time>
   </trkpt>
   <trkpt lat="51.1377650" lon="5.3549150">
    <ele>58.3</ele>
    <time>2020-06-14T08:20:16Z</time>
   </trkpt>
   <trkpt lat="51.1377040" lon="5.3548430">
    <ele>58.3</ele>
    <time>2020-06-14T08:20:17Z</time>
   </trkpt>
   <trkpt lat="51.1376480" lon="5.3547750">
    <ele>58.4</ele>
    <time>2020-06-14T08:20:18Z</time>
   </trkpt>
   <trkpt lat="51.1375940" lon="5.3547230">
    <ele>58.3</ele>
    <time>2020-06-14T08:20:19Z</time>
   </trkpt>
   <trkpt lat="51.1375380" lon="5.3546810">
    <ele>58.3</ele>
    <time>2020-06-14T08:20:20Z</time>
   </trkpt>
   <trkpt lat="51.1374870" lon="5.3546590">
    <ele>58.2</ele>
    <time>2020-06-14T08:20:21Z</time>
   </trkpt>
   <trkpt lat="51.1374260" lon="5.3546620">
    <ele>58.2</ele>
    <time>2020-06-14T08:20:22Z</time>
   </trkpt>
   <trkpt lat="51.1373640" lon="5.3546740">
    <ele>58.1</ele>
    <time>2020-06-14T08:20:23Z</time>
   </trkpt>
   <trkpt lat="51.1372930" lon="5.3546910">
    <ele>58.1</ele>
    <time>2020-06-14T08:20:24Z</time>
   </trkpt>
   <trkpt lat="51.1372210" lon="5.3547110">
    <ele>58.0</ele>
    <time>2020-06-14T08:20:25Z</time>
   </trkpt>
   <trkpt lat="51.1371510" lon="5.3547280">
    <ele>57.9</ele>
    <time>2020-06-14T08:20:26Z</time>
   </trkpt>
   <trkpt lat="51.1370700" lon="5.3547110">
    <ele>57.9</ele>
    <time>2020-06-14T08:20:27Z</time>
   </trkpt>
   <trkpt lat="51.1369890" lon="5.3547230">
    <ele>57.9</ele>
    <time>2020-06-14T08:20:28Z</time>
   </trkpt>
   <trkpt lat="51.1369150" lon="5.3547270">
    <ele>57.9</ele>
    <time>2020-06-14T08:20:29Z</time>
   </trkpt>
   <trkpt lat="51.1368460" lon="5.3547280">
    <ele>57.9</ele>
    <time>2020-06-14T08:20:30Z</time>
   </trkpt>
   <trkpt lat="51.1367800" lon="5.3547380">
    <ele>57.9</ele>
    <time>2020-06-14T08:20:31Z</time>
   </trkpt>
   <trkpt lat="51.1367170" lon="5.3547710">
    <ele>57.9</ele>
    <time>2020-06-14T08:20:32Z</time>
   </trkpt>
   <trkpt lat="51.1366570" lon="5.3548370">
    <ele>57.8</ele>
    <time>2020-06-14T08:20:33Z</time>
   </trkpt>
   <trkpt lat="51.1366070" lon="5.3549130">
    <ele>57.7</ele>
    <time>2020-06-14T08:20:34Z</time>
   </trkpt>
   <trkpt lat="51.1365480" lon="5.3549980">
    <ele>57.6</ele>
    <time>2020-06-14T08:20:35Z</time>
   </trkpt>
   <trkpt lat="51.1364910" lon="5.3550840">
    <ele>57.6</ele>
    <time>2020-06-14T08:20:36Z</time>
   </trkpt>
   <trkpt lat="51.1364420" lon="5.3551670">
    <ele>57.6</ele>
    <time>2020-06-14T08:20:37Z</time>
   </trkpt>
   <trkpt lat="51.1363900" lon="5.3552510">
    <ele>57.6</ele>
    <time>2020-06-14T08:20:38Z</time>
   </trkpt>
   <trkpt lat="51.1363470" lon="5.3553270">
    <ele>57.7</ele>
    <time>2020-06-14T08:20:39Z</time>
   </trkpt>
   <trkpt lat="51.1363020" lon="5.3553990">
    <ele>57.8</ele>
    <time>2020-06-14T08:20:40Z</time>
   </trkpt>
   <trkpt lat="51.1362600" lon="5.3554700">
    <ele>57.9</ele>
    <time>2020-06-14T08:20:41Z</time>
   </trkpt>
   <trkpt lat="51.1362270" lon="5.3555350">
    <ele>58.0</ele>
    <time>2020-06-14T08:20:42Z</time>
   </trkpt>
   <trkpt lat="51.1361930" lon="5.3555930">
    <ele>58.2</ele>
    <time>2020-06-14T08:20:43Z</time>
   </trkpt>
   <trkpt lat="51.1361540" lon="5.3556610">
    <ele>58.4</ele>
    <time>2020-06-14T08:20:44Z</time>
   </trkpt>
   <trkpt lat="51.1361280" lon="5.3557160">
    <ele>58.5</ele>
    <time>2020-06-14T08:20:45Z</time>
   </trkpt>
   <trkpt lat="51.1360990" lon="5.3557600">
    <ele>58.6</ele>
    <time>2020-06-14T08:20:46Z</time>
   </trkpt>
   <trkpt lat="51.1360570" lon="5.3558360">
    <ele>58.8</ele>
    <time>2020-06-14T08:20:47Z</time>
   </trkpt>
   <trkpt lat="51.1360190" lon="5.3559300">
    <ele>58.8</ele>
    <time>2020-06-14T08:20:48Z</time>
   </trkpt>
   <trkpt lat="51.1359920" lon="5.3560170">
    <ele>58.8</ele>
    <time>2020-06-14T08:20:49Z</time>
   </trkpt>
   <trkpt lat="51.1359570" lon="5.3560890">
    <ele>58.8</ele>
    <time>2020-06-14T08:20:50Z</time>
   </trkpt>
   <trkpt lat="51.1359220" lon="5.3561660">
    <ele>58.8</ele>
    <time>2020-06-14T08:20:51Z</time>
   </trkpt>
   <trkpt lat="51.1358810" lon="5.3562420">
    <ele>58.7</ele>
    <time>2020-06-14T08:20:52Z</time>
   </trkpt>
   <trkpt lat="51.1358270" lon="5.3563350">
    <ele>58.7</ele>
    <time>2020-06-14T08:20:53Z</time>
   </trkpt>
   <trkpt lat="51.1357720" lon="5.3564270">
    <ele>58.7</ele>
    <time>2020-06-14T08:20:54Z</time>
   </trkpt>
   <trkpt lat="51.1357200" lon="5.3565200">
    <ele>58.8</ele>
    <time>2020-06-14T08:20:55Z</time>
   </trkpt>
   <trkpt lat="51.1356590" lon="5.3566030">
    <ele>58.8</ele>
    <time>2020-06-14T08:20:56Z</time>
   </trkpt>
   <trkpt lat="51.1356030" lon="5.3567140">
    <ele>58.8</ele>
    <time>2020-06-14T08:20:57Z</time>
   </trkpt>
   <trkpt lat="51.1355570" lon="5.3568290">
    <ele>58.8</ele>
    <time>2020-06-14T08:20:58Z</time>
   </trkpt>
   <trkpt lat="51.1355320" lon="5.3569510">
    <ele>58.8</ele>
    <time>2020-06-14T08:20:59Z</time>
   </trkpt>
   <trkpt lat="51.1355240" lon="5.3570650">
    <ele>58.8</ele>
    <time>2020-06-14T08:21:00Z</time>
   </trkpt>
   <trkpt lat="51.1355330" lon="5.3571940">
    <ele>58.8</ele>
    <time>2020-06-14T08:21:01Z</time>
   </trkpt>
   <trkpt lat="51.1355460" lon="5.3573260">
    <ele>58.9</ele>
    <time>2020-06-14T08:21:02Z</time>
   </trkpt>
   <trkpt lat="51.1355600" lon="5.3574490">
    <ele>58.9</ele>
    <time>2020-06-14T08:21:03Z</time>
   </trkpt>
   <trkpt lat="51.1355770" lon="5.3575760">
    <ele>59.0</ele>
    <time>2020-06-14T08:21:04Z</time>
   </trkpt>
   <trkpt lat="51.1355930" lon="5.3577020">
    <ele>59.1</ele>
    <time>2020-06-14T08:21:05Z</time>
   </trkpt>
   <trkpt lat="51.1356090" lon="5.3578280">
    <ele>59.2</ele>
    <time>2020-06-14T08:21:06Z</time>
   </trkpt>
   <trkpt lat="51.1356260" lon="5.3579560">
    <ele>59.3</ele>
    <time>2020-06-14T08:21:07Z</time>
   </trkpt>
   <trkpt lat="51.1356370" lon="5.3580590">
    <ele>59.4</ele>
    <time>2020-06-14T08:21:08Z</time>
   </trkpt>
   <trkpt lat="51.1356530" lon="5.3581870">
    <ele>59.4</ele>
    <time>2020-06-14T08:21:09Z</time>
   </trkpt>
   <trkpt lat="51.1356680" lon="5.3583220">
    <ele>59.3</ele>
    <time>2020-06-14T08:21:10Z</time>
   </trkpt>
   <trkpt lat="51.1356780" lon="5.3584530">
    <ele>59.3</ele>
    <time>2020-06-14T08:21:11Z</time>
   </trkpt>
   <trkpt lat="51.1356850" lon="5.3585790">
    <ele>59.3</ele>
    <time>2020-06-14T08:21:12Z</time>
   </trkpt>
   <trkpt lat="51.1356900" lon="5.3587020">
    <ele>59.3</ele>
    <time>2020-06-14T08:21:13Z</time>
   </trkpt>
   <trkpt lat="51.1356920" lon="5.3588290">
    <ele>59.2</ele>
    <time>2020-06-14T08:21:14Z</time>
   </trkpt>
   <trkpt lat="51.1356900" lon="5.3589510">
    <ele>59.2</ele>
    <time>2020-06-14T08:21:15Z</time>
   </trkpt>
   <trkpt lat="51.1356960" lon="5.3590830">
    <ele>59.1</ele>
    <time>2020-06-14T08:21:16Z</time>
   </trkpt>
   <trkpt lat="51.1357030" lon="5.3592100">
    <ele>59.1</ele>
    <time>2020-06-14T08:21:17Z</time>
   </trkpt>
   <trkpt lat="51.1357090" lon="5.3593390">
    <ele>59.0</ele>
    <time>2020-06-14T08:21:18Z</time>
   </trkpt>
   <trkpt lat="51.1357270" lon="5.3594530">
    <ele>59.0</ele>
    <time>2020-06-14T08:21:19Z</time>
   </trkpt>
   <trkpt lat="51.1357440" lon="5.3595640">
    <ele>58.9</ele>
    <time>2020-06-14T08:21:20Z</time>
   </trkpt>
   <trkpt lat="51.1357570" lon="5.3596830">
    <ele>58.9</ele>
    <time>2020-06-14T08:21:21Z</time>
   </trkpt>
   <trkpt lat="51.1357610" lon="5.3598080">
    <ele>58.8</ele>
    <time>2020-06-14T08:21:22Z</time>
   </trkpt>
   <trkpt lat="51.1357700" lon="5.3599290">
    <ele>58.7</ele>
    <time>2020-06-14T08:21:23Z</time>
   </trkpt>
   <trkpt lat="51.1357770" lon="5.3600450">
    <ele>58.7</ele>
    <time>2020-06-14T08:21:24Z</time>
   </trkpt>
   <trkpt lat="51.1357900" lon="5.3601670">
    <ele>58.6</ele>
    <time>2020-06-14T08:21:25Z</time>
   </trkpt>
   <trkpt lat="51.1357990" lon="5.3602900">
    <ele>58.5</ele>
    <time>2020-06-14T08:21:26Z</time>
   </trkpt>
   <trkpt lat="51.1358080" lon="5.3604080">
    <ele>58.5</ele>
    <time>2020-06-14T08:21:27Z</time>
   </trkpt>
   <trkpt lat="51.1358180" lon="5.3605300">
    <ele>58.4</ele>
    <time>2020-06-14T08:21:28Z</time>
   </trkpt>
   <trkpt lat="51.1358230" lon="5.3606480">
    <ele>58.3</ele>
    <time>2020-06-14T08:21:29Z</time>
   </trkpt>
   <trkpt lat="51.1358270" lon="5.3607630">
    <ele>58.2</ele>
    <time>2020-06-14T08:21:30Z</time>
   </trkpt>
   <trkpt lat="51.1358320" lon="5.3608800">
    <ele>58.0</ele>
    <time>2020-06-14T08:21:31Z</time>
   </trkpt>
   <trkpt lat="51.1358480" lon="5.3609980">
    <ele>57.9</ele>
    <time>2020-06-14T08:21:32Z</time>
   </trkpt>
   <trkpt lat="51.1358590" lon="5.3611130">
    <ele>57.9</ele>
    <time>2020-06-14T08:21:33Z</time>
   </trkpt>
   <trkpt lat="51.1358600" lon="5.3612320">
    <ele>57.9</ele>
    <time>2020-06-14T08:21:34Z</time>
   </trkpt>
   <trkpt lat="51.1358580" lon="5.3613430">
    <ele>57.9</ele>
    <time>2020-06-14T08:21:35Z</time>
   </trkpt>
   <trkpt lat="51.1358660" lon="5.3614500">
    <ele>57.9</ele>
    <time>2020-06-14T08:21:36Z</time>
   </trkpt>
   <trkpt lat="51.1359060" lon="5.3615460">
    <ele>57.8</ele>
    <time>2020-06-14T08:21:37Z</time>
   </trkpt>
   <trkpt lat="51.1359170" lon="5.3616660">
    <ele>57.8</ele>
    <time>2020-06-14T08:21:38Z</time>
   </trkpt>
   <trkpt lat="51.1359240" lon="5.3617910">
    <ele>57.8</ele>
    <time>2020-06-14T08:21:39Z</time>
   </trkpt>
   <trkpt lat="51.1359540" lon="5.3619040">
    <ele>57.8</ele>
    <time>2020-06-14T08:21:40Z</time>
   </trkpt>
   <trkpt lat="51.1359810" lon="5.3620190">
    <ele>57.7</ele>
    <time>2020-06-14T08:21:41Z</time>
   </trkpt>
   <trkpt lat="51.1360160" lon="5.3621260">
    <ele>57.7</ele>
    <time>2020-06-14T08:21:42Z</time>
   </trkpt>
   <trkpt lat="51.1360500" lon="5.3622300">
    <ele>57.7</ele>
    <time>2020-06-14T08:21:43Z</time>
   </trkpt>
   <trkpt lat="51.1360810" lon="5.3623300">
    <ele>57.7</ele>
    <time>2020-06-14T08:21:44Z</time>
   </trkpt>
   <trkpt lat="51.1360660" lon="5.3624600">
    <ele>57.6</ele>
    <time>2020-06-14T08:21:45Z</time>
   </trkpt>
   <trkpt lat="51.1360890" lon="5.3625570">
    <ele>57.6</ele>
    <time>2020-06-14T08:21:46Z</time>
   </trkpt>
   <trkpt lat="51.1361180" lon="5.3626480">
    <ele>57.6</ele>
    <time>2020-06-14T08:21:47Z</time>
   </trkpt>
   <trkpt lat="51.1361440" lon="5.3627460">
    <ele>57.5</ele>
    <time>2020-06-14T08:21:48Z</time>
   </trkpt>
   <trkpt lat="51.1361710" lon="5.3628540">
    <ele>57.5</ele>
    <time>2020-06-14T08:21:49Z</time>
   </trkpt>
   <trkpt lat="51.1361970" lon="5.3629670">
    <ele>57.4</ele>
    <time>2020-06-14T08:21:50Z</time>
   </trkpt>
   <trkpt lat="51.1362190" lon="5.3630820">
    <ele>57.4</ele>
    <time>2020-06-14T08:21:51Z</time>
   </trkpt>
   <trkpt lat="51.1362420" lon="5.3631920">
    <ele>57.4</ele>
    <time>2020-06-14T08:21:52Z</time>
   </trkpt>
   <trkpt lat="51.1362700" lon="5.3633040">
    <ele>57.4</ele>
    <time>2020-06-14T08:21:53Z</time>
   </trkpt>
   <trkpt lat="51.1362980" lon="5.3634140">
    <ele>57.4</ele>
    <time>2020-06-14T08:21:54Z</time>
   </trkpt>
   <trkpt lat="51.1363260" lon="5.3635220">
    <ele>57.5</ele>
    <time>2020-06-14T08:21:55Z</time>
   </trkpt>
   <trkpt lat="51.1363550" lon="5.3636270">
    <ele>57.5</ele>
    <time>2020-06-14T08:21:56Z</time>
   </trkpt>
   <trkpt lat="51.1363860" lon="5.3637330">
    <ele>57.5</ele>
    <time>2020-06-14T08:21:57Z</time>
   </trkpt>
   <trkpt lat="51.1364130" lon="5.3638410">
    <ele>57.6</ele>
    <time>2020-06-14T08:21:58Z</time>
   </trkpt>
   <trkpt lat="51.1364350" lon="5.3639430">
    <ele>57.6</ele>
    <time>2020-06-14T08:21:59Z</time>
   </trkpt>
   <trkpt lat="51.1364520" lon="5.3640460">
    <ele>57.6</ele>
    <time>2020-06-14T08:22:00Z</time>
   </trkpt>
   <trkpt lat="51.1364710" lon="5.3641480">
    <ele>57.6</ele>
    <time>2020-06-14T08:22:01Z</time>
   </trkpt>
   <trkpt lat="51.1364700" lon="5.3642520">
    <ele>57.7</ele>
    <time>2020-06-14T08:22:02Z</time>
   </trkpt>
   <trkpt lat="51.1364660" lon="5.3643560">
    <ele>57.8</ele>
    <time>2020-06-14T08:22:03Z</time>
   </trkpt>
   <trkpt lat="51.1364400" lon="5.3644510">
    <ele>57.8</ele>
    <time>2020-06-14T08:22:04Z</time>
   </trkpt>
   <trkpt lat="51.1364110" lon="5.3645470">
    <ele>57.9</ele>
    <time>2020-06-14T08:22:05Z</time>
   </trkpt>
   <trkpt lat="51.1363870" lon="5.3646470">
    <ele>58.0</ele>
    <time>2020-06-14T08:22:06Z</time>
   </trkpt>
   <trkpt lat="51.1363600" lon="5.3647480">
    <ele>58.1</ele>
    <time>2020-06-14T08:22:07Z</time>
   </trkpt>
   <trkpt lat="51.1363350" lon="5.3648470">
    <ele>58.2</ele>
    <time>2020-06-14T08:22:08Z</time>
   </trkpt>
   <trkpt lat="51.1363100" lon="5.3649390">
    <ele>58.2</ele>
    <time>2020-06-14T08:22:09Z</time>
   </trkpt>
   <trkpt lat="51.1362880" lon="5.3650260">
    <ele>58.3</ele>
    <time>2020-06-14T08:22:10Z</time>
   </trkpt>
   <trkpt lat="51.1362730" lon="5.3651080">
    <ele>58.4</ele>
    <time>2020-06-14T08:22:11Z</time>
   </trkpt>
   <trkpt lat="51.1362550" lon="5.3651800">
    <ele>58.5</ele>
    <time>2020-06-14T08:22:12Z</time>
   </trkpt>
   <trkpt lat="51.1362410" lon="5.3652440">
    <ele>58.6</ele>
    <time>2020-06-14T08:22:13Z</time>
   </trkpt>
   <trkpt lat="51.1362300" lon="5.3653010">
    <ele>58.7</ele>
    <time>2020-06-14T08:22:14Z</time>
   </trkpt>
   <trkpt lat="51.1362210" lon="5.3653570">
    <ele>58.8</ele>
    <time>2020-06-14T08:22:15Z</time>
   </trkpt>
   <trkpt lat="51.1362170" lon="5.3654070">
    <ele>58.9</ele>
    <time>2020-06-14T08:22:16Z</time>
   </trkpt>
   <trkpt lat="51.1362110" lon="5.3654520">
    <ele>59.0</ele>
    <time>2020-06-14T08:22:17Z</time>
   </trkpt>
   <trkpt lat="51.1362050" lon="5.3655120">
    <ele>59.1</ele>
    <time>2020-06-14T08:22:18Z</time>
   </trkpt>
   <trkpt lat="51.1362020" lon="5.3655300">
    <ele>59.1</ele>
    <time>2020-06-14T08:22:19Z</time>
   </trkpt>
   <trkpt lat="51.1362040" lon="5.3655770">
    <ele>59.2</ele>
    <time>2020-06-14T08:22:20Z</time>
   </trkpt>
   <trkpt lat="51.1362040" lon="5.3655900">
    <ele>59.2</ele>
    <time>2020-06-14T08:22:21Z</time>
   </trkpt>
   <trkpt lat="51.1362010" lon="5.3656040">
    <ele>59.3</ele>
    <time>2020-06-14T08:22:22Z</time>
   </trkpt>
   <trkpt lat="51.1362010" lon="5.3656150">
    <ele>59.3</ele>
    <time>2020-06-14T08:22:23Z</time>
   </trkpt>
   <trkpt lat="51.1362020" lon="5.3656260">
    <ele>59.3</ele>
    <time>2020-06-14T08:22:24Z</time>
   </trkpt>
   <trkpt lat="51.1362040" lon="5.3656360">
    <ele>59.3</ele>
    <time>2020-06-14T08:22:25Z</time>
   </trkpt>
   <trkpt lat="51.1362090" lon="5.3656370">
    <ele>59.4</ele>
    <time>2020-06-14T08:22:26Z</time>
   </trkpt>
   <trkpt lat="51.1362130" lon="5.3656370">
    <ele>59.4</ele>
    <time>2020-06-14T08:22:27Z</time>
   </trkpt>
   <trkpt lat="51.1362130" lon="5.3656390">
    <ele>59.4</ele>
    <time>2020-06-14T08:22:28Z</time>
   </trkpt>
   <trkpt lat="51.1362140" lon="5.3656410">
    <ele>59.4</ele>
    <time>2020-06-14T08:22:29Z</time>
   </trkpt>
   <trkpt lat="51.1362110" lon="5.3656420">
    <ele>59.4</ele>
    <time>2020-06-14T08:22:30Z</time>
   </trkpt>
   <trkpt lat="51.1362070" lon="5.3656440">
    <ele>59.4</ele>
    <time>2020-06-14T08:22:31Z</time>
   </trkpt>
   <trkpt lat="51.1362060" lon="5.3656440">
    <ele>59.4</ele>
    <time>2020-06-14T08:22:32Z</time>
   </trkpt>
   <trkpt lat="51.1362040" lon="5.3656490">
    <ele>59.4</ele>
    <time>2020-06-14T08:22:33Z</time>
   </trkpt>
   <trkpt lat="51.1362070" lon="5.3656510">
    <ele>59.4</ele>
    <time>2020-06-14T08:22:34Z</time>
   </trkpt>
   <trkpt lat="51.1362130" lon="5.3656530">
    <ele>59.4</ele>
    <time>2020-06-14T08:22:35Z</time>
   </trkpt>
   <trkpt lat="51.1361950" lon="5.3657100">
    <ele>59.6</ele>
    <time>2020-06-14T08:22:48Z</time>
   </trkpt>
   <trkpt lat="51.1361960" lon="5.3657300">
    <ele>59.6</ele>
    <time>2020-06-14T08:22:49Z</time>
   </trkpt>
   <trkpt lat="51.1361860" lon="5.3657560">
    <ele>59.7</ele>
    <time>2020-06-14T08:22:50Z</time>
   </trkpt>
   <trkpt lat="51.1361670" lon="5.3657940">
    <ele>59.8</ele>
    <time>2020-06-14T08:22:51Z</time>
   </trkpt>
   <trkpt lat="51.1361550" lon="5.3658490">
    <ele>59.7</ele>
    <time>2020-06-14T08:22:52Z</time>
   </trkpt>
   <trkpt lat="51.1361310" lon="5.3659070">
    <ele>59.7</ele>
    <time>2020-06-14T08:22:53Z</time>
   </trkpt>
   <trkpt lat="51.1361040" lon="5.3659760">
    <ele>59.6</ele>
    <time>2020-06-14T08:22:54Z</time>
   </trkpt>
   <trkpt lat="51.1360830" lon="5.3660590">
    <ele>59.6</ele>
    <time>2020-06-14T08:22:55Z</time>
   </trkpt>
   <trkpt lat="51.1360660" lon="5.3661440">
    <ele>59.5</ele>
    <time>2020-06-14T08:22:56Z</time>
   </trkpt>
   <trkpt lat="51.1360490" lon="5.3662320">
    <ele>59.4</ele>
    <time>2020-06-14T08:22:57Z</time>
   </trkpt>
   <trkpt lat="51.1359560" lon="5.3663110">
    <ele>59.2</ele>
    <time>2020-06-14T08:22:58Z</time>
   </trkpt>
   <trkpt lat="51.1359280" lon="5.3664310">
    <ele>59.1</ele>
    <time>2020-06-14T08:22:59Z</time>
   </trkpt>
   <trkpt lat="51.1358960" lon="5.3665540">
    <ele>59.1</ele>
    <time>2020-06-14T08:23:00Z</time>
   </trkpt>
   <trkpt lat="51.1358570" lon="5.3666690">
    <ele>59.0</ele>
    <time>2020-06-14T08:23:01Z</time>
   </trkpt>
   <trkpt lat="51.1358290" lon="5.3667870">
    <ele>59.0</ele>
    <time>2020-06-14T08:23:02Z</time>
   </trkpt>
   <trkpt lat="51.1357970" lon="5.3669060">
    <ele>59.0</ele>
    <time>2020-06-14T08:23:03Z</time>
   </trkpt>
   <trkpt lat="51.1357700" lon="5.3670360">
    <ele>58.9</ele>
    <time>2020-06-14T08:23:04Z</time>
   </trkpt>
   <trkpt lat="51.1357380" lon="5.3671620">
    <ele>58.9</ele>
    <time>2020-06-14T08:23:05Z</time>
   </trkpt>
   <trkpt lat="51.1357060" lon="5.3672840">
    <ele>58.9</ele>
    <time>2020-06-14T08:23:06Z</time>
   </trkpt>
   <trkpt lat="51.1356750" lon="5.3674060">
    <ele>58.9</ele>
    <time>2020-06-14T08:23:07Z</time>
   </trkpt>
   <trkpt lat="51.1356390" lon="5.3675260">
    <ele>58.9</ele>
    <time>2020-06-14T08:23:08Z</time>
   </trkpt>
   <trkpt lat="51.1356090" lon="5.3676480">
    <ele>58.9</ele>
    <time>2020-06-14T08:23:09Z</time>
   </trkpt>
   <trkpt lat="51.1355800" lon="5.3677710">
    <ele>58.9</ele>
    <time>2020-06-14T08:23:10Z</time>
   </trkpt>
   <trkpt lat="51.1355510" lon="5.3678920">
    <ele>58.9</ele>
    <time>2020-06-14T08:23:11Z</time>
   </trkpt>
   <trkpt lat="51.1355210" lon="5.3680160">
    <ele>58.9</ele>
    <time>2020-06-14T08:23:12Z</time>
   </trkpt>
   <trkpt lat="51.1354950" lon="5.3681400">
    <ele>58.8</ele>
    <time>2020-06-14T08:23:13Z</time>
   </trkpt>
   <trkpt lat="51.1354680" lon="5.3682620">
    <ele>58.8</ele>
    <time>2020-06-14T08:23:14Z</time>
   </trkpt>
   <trkpt lat="51.1354350" lon="5.3683850">
    <ele>58.8</ele>
    <time>2020-06-14T08:23:15Z</time>
   </trkpt>
   <trkpt lat="51.1354030" lon="5.3685040">
    <ele>58.9</ele>
    <time>2020-06-14T08:23:16Z</time>
   </trkpt>
   <trkpt lat="51.1353730" lon="5.3686210">
    <ele>59.0</ele>
    <time>2020-06-14T08:23:17Z</time>
   </trkpt>
   <trkpt lat="51.1353450" lon="5.3687320">
    <ele>59.1</ele>
    <time>2020-06-14T08:23:18Z</time>
   </trkpt>
   <trkpt lat="51.1353210" lon="5.3688310">
    <ele>59.2</ele>
    <time>2020-06-14T08:23:19Z</time>
   </trkpt>
   <trkpt lat="51.1352930" lon="5.3689150">
    <ele>59.3</ele>
    <time>2020-06-14T08:23:20Z</time>
   </trkpt>
   <trkpt lat="51.1352870" lon="5.3690080">
    <ele>59.5</ele>
    <time>2020-06-14T08:23:21Z</time>
   </trkpt>
   <trkpt lat="51.1352570" lon="5.3690830">
    <ele>59.6</ele>
    <time>2020-06-14T08:23:22Z</time>
   </trkpt>
   <trkpt lat="51.1352440" lon="5.3691320">
    <ele>59.6</ele>
    <time>2020-06-14T08:23:23Z</time>
   </trkpt>
   <trkpt lat="51.1352430" lon="5.3691610">
    <ele>59.5</ele>
    <time>2020-06-14T08:23:24Z</time>
   </trkpt>
   <trkpt lat="51.1352580" lon="5.3691740">
    <ele>59.5</ele>
    <time>2020-06-14T08:23:25Z</time>
   </trkpt>
   <trkpt lat="51.1352920" lon="5.3691660">
    <ele>59.5</ele>
    <time>2020-06-14T08:23:26Z</time>
   </trkpt>
   <trkpt lat="51.1353460" lon="5.3691610">
    <ele>59.4</ele>
    <time>2020-06-14T08:23:27Z</time>
   </trkpt>
   <trkpt lat="51.1354110" lon="5.3691510">
    <ele>59.3</ele>
    <time>2020-06-14T08:23:28Z</time>
   </trkpt>
   <trkpt lat="51.1354740" lon="5.3691790">
    <ele>59.2</ele>
    <time>2020-06-14T08:23:29Z</time>
   </trkpt>
   <trkpt lat="51.1355370" lon="5.3691810">
    <ele>59.2</ele>
    <time>2020-06-14T08:23:30Z</time>
   </trkpt>
   <trkpt lat="51.1356010" lon="5.3691830">
    <ele>59.1</ele>
    <time>2020-06-14T08:23:31Z</time>
   </trkpt>
   <trkpt lat="51.1356680" lon="5.3691900">
    <ele>59.0</ele>
    <time>2020-06-14T08:23:32Z</time>
   </trkpt>
   <trkpt lat="51.1357440" lon="5.3692030">
    <ele>59.0</ele>
    <time>2020-06-14T08:23:33Z</time>
   </trkpt>
   <trkpt lat="51.1358290" lon="5.3692140">
    <ele>58.9</ele>
    <time>2020-06-14T08:23:34Z</time>
   </trkpt>
   <trkpt lat="51.1359120" lon="5.3692220">
    <ele>58.9</ele>
    <time>2020-06-14T08:23:35Z</time>
   </trkpt>
   <trkpt lat="51.1359910" lon="5.3692320">
    <ele>58.9</ele>
    <time>2020-06-14T08:23:36Z</time>
   </trkpt>
   <trkpt lat="51.1360650" lon="5.3692420">
    <ele>58.8</ele>
    <time>2020-06-14T08:23:37Z</time>
   </trkpt>
   <trkpt lat="51.1361460" lon="5.3692500">
    <ele>58.8</ele>
    <time>2020-06-14T08:23:38Z</time>
   </trkpt>
   <trkpt lat="51.1362280" lon="5.3692600">
    <ele>58.8</ele>
    <time>2020-06-14T08:23:39Z</time>
   </trkpt>
   <trkpt lat="51.1363110" lon="5.3692720">
    <ele>58.8</ele>
    <time>2020-06-14T08:23:40Z</time>
   </trkpt>
   <trkpt lat="51.1363930" lon="5.3692850">
    <ele>58.8</ele>
    <time>2020-06-14T08:23:41Z</time>
   </trkpt>
   <trkpt lat="51.1364690" lon="5.3692940">
    <ele>58.9</ele>
    <time>2020-06-14T08:23:42Z</time>
   </trkpt>
   <trkpt lat="51.1365410" lon="5.3692990">
    <ele>58.9</ele>
    <time>2020-06-14T08:23:43Z</time>
   </trkpt>
   <trkpt lat="51.1366130" lon="5.3693050">
    <ele>58.9</ele>
    <time>2020-06-14T08:23:44Z</time>
   </trkpt>
   <trkpt lat="51.1366880" lon="5.3693090">
    <ele>59.0</ele>
    <time>2020-06-14T08:23:45Z</time>
   </trkpt>
   <trkpt lat="51.1367700" lon="5.3693430">
    <ele>59.1</ele>
    <time>2020-06-14T08:23:46Z</time>
   </trkpt>
   <trkpt lat="51.1368420" lon="5.3693680">
    <ele>59.1</ele>
    <time>2020-06-14T08:23:47Z</time>
   </trkpt>
   <trkpt lat="51.1369250" lon="5.3693960">
    <ele>59.1</ele>
    <time>2020-06-14T08:23:48Z</time>
   </trkpt>
   <trkpt lat="51.1370130" lon="5.3694300">
    <ele>59.0</ele>
    <time>2020-06-14T08:23:49Z</time>
   </trkpt>
   <trkpt lat="51.1370930" lon="5.3694610">
    <ele>59.0</ele>
    <time>2020-06-14T08:23:50Z</time>
   </trkpt>
   <trkpt lat="51.1371750" lon="5.3694910">
    <ele>58.9</ele>
    <time>2020-06-14T08:23:51Z</time>
   </trkpt>
   <trkpt lat="51.1372580" lon="5.3695150">
    <ele>58.9</ele>
    <time>2020-06-14T08:23:52Z</time>
   </trkpt>
   <trkpt lat="51.1373370" lon="5.3695420">
    <ele>58.8</ele>
    <time>2020-06-14T08:23:53Z</time>
   </trkpt>
   <trkpt lat="51.1374090" lon="5.3695690">
    <ele>58.8</ele>
    <time>2020-06-14T08:23:54Z</time>
   </trkpt>
   <trkpt lat="51.1374840" lon="5.3695990">
    <ele>58.8</ele>
    <time>2020-06-14T08:23:55Z</time>
   </trkpt>
   <trkpt lat="51.1375610" lon="5.3696270">
    <ele>58.8</ele>
    <time>2020-06-14T08:23:56Z</time>
   </trkpt>
   <trkpt lat="51.1376410" lon="5.3696640">
    <ele>58.8</ele>
    <time>2020-06-14T08:23:57Z</time>
   </trkpt>
   <trkpt lat="51.1377280" lon="5.3697000">
    <ele>58.7</ele>
    <time>2020-06-14T08:23:58Z</time>
   </trkpt>
   <trkpt lat="51.1378000" lon="5.3697320">
    <ele>58.7</ele>
    <time>2020-06-14T08:23:59Z</time>
   </trkpt>
   <trkpt lat="51.1378730" lon="5.3697620">
    <ele>58.7</ele>
    <time>2020-06-14T08:24:00Z</time>
   </trkpt>
   <trkpt lat="51.1379420" lon="5.3697880">
    <ele>58.6</ele>
    <time>2020-06-14T08:24:01Z</time>
   </trkpt>
   <trkpt lat="51.1380140" lon="5.3698180">
    <ele>58.6</ele>
    <time>2020-06-14T08:24:02Z</time>
   </trkpt>
   <trkpt lat="51.1380850" lon="5.3698400">
    <ele>58.5</ele>
    <time>2020-06-14T08:24:03Z</time>
   </trkpt>
   <trkpt lat="51.1381510" lon="5.3698590">
    <ele>58.5</ele>
    <time>2020-06-14T08:24:04Z</time>
   </trkpt>
   <trkpt lat="51.1382230" lon="5.3698790">
    <ele>58.5</ele>
    <time>2020-06-14T08:24:05Z</time>
   </trkpt>
   <trkpt lat="51.1382960" lon="5.3699020">
    <ele>58.5</ele>
    <time>2020-06-14T08:24:06Z</time>
   </trkpt>
   <trkpt lat="51.1383700" lon="5.3699280">
    <ele>58.6</ele>
    <time>2020-06-14T08:24:07Z</time>
   </trkpt>
   <trkpt lat="51.1384440" lon="5.3699560">
    <ele>58.7</ele>
    <time>2020-06-14T08:24:08Z</time>
   </trkpt>
   <trkpt lat="51.1385160" lon="5.3699840">
    <ele>58.8</ele>
    <time>2020-06-14T08:24:09Z</time>
   </trkpt>
   <trkpt lat="51.1385830" lon="5.3700070">
    <ele>58.9</ele>
    <time>2020-06-14T08:24:10Z</time>
   </trkpt>
   <trkpt lat="51.1386450" lon="5.3700260">
    <ele>59.0</ele>
    <time>2020-06-14T08:24:11Z</time>
   </trkpt>
   <trkpt lat="51.1386960" lon="5.3700400">
    <ele>59.0</ele>
    <time>2020-06-14T08:24:12Z</time>
   </trkpt>
   <trkpt lat="51.1387550" lon="5.3700670">
    <ele>59.1</ele>
    <time>2020-06-14T08:24:13Z</time>
   </trkpt>
   <trkpt lat="51.1388070" lon="5.3700930">
    <ele>59.1</ele>
    <time>2020-06-14T08:24:14Z</time>
   </trkpt>
   <trkpt lat="51.1388460" lon="5.3701080">
    <ele>59.2</ele>
    <time>2020-06-14T08:24:15Z</time>
   </trkpt>
   <trkpt lat="51.1388890" lon="5.3701320">
    <ele>59.2</ele>
    <time>2020-06-14T08:24:16Z</time>
   </trkpt>
   <trkpt lat="51.1389260" lon="5.3701980">
    <ele>59.1</ele>
    <time>2020-06-14T08:24:17Z</time>
   </trkpt>
   <trkpt lat="51.1389390" lon="5.3702750">
    <ele>59.1</ele>
    <time>2020-06-14T08:24:18Z</time>
   </trkpt>
   <trkpt lat="51.1389350" lon="5.3703750">
    <ele>59.1</ele>
    <time>2020-06-14T08:24:19Z</time>
   </trkpt>
   <trkpt lat="51.1389060" lon="5.3704720">
    <ele>59.1</ele>
    <time>2020-06-14T08:24:20Z</time>
   </trkpt>
   <trkpt lat="51.1388800" lon="5.3705950">
    <ele>59.1</ele>
    <time>2020-06-14T08:24:21Z</time>
   </trkpt>
   <trkpt lat="51.1388630" lon="5.3707070">
    <ele>59.0</ele>
    <time>2020-06-14T08:24:22Z</time>
   </trkpt>
   <trkpt lat="51.1388460" lon="5.3708210">
    <ele>59.0</ele>
    <time>2020-06-14T08:24:23Z</time>
   </trkpt>
   <trkpt lat="51.1388370" lon="5.3709370">
    <ele>59.0</ele>
    <time>2020-06-14T08:24:24Z</time>
   </trkpt>
   <trkpt lat="51.1388300" lon="5.3710540">
    <ele>58.9</ele>
    <time>2020-06-14T08:24:25Z</time>
   </trkpt>
   <trkpt lat="51.1388180" lon="5.3711880">
    <ele>58.9</ele>
    <time>2020-06-14T08:24:26Z</time>
   </trkpt>
   <trkpt lat="51.1388090" lon="5.3713170">
    <ele>58.9</ele>
    <time>2020-06-14T08:24:27Z</time>
   </trkpt>
   <trkpt lat="51.1388040" lon="5.3714480">
    <ele>58.9</ele>
    <time>2020-06-14T08:24:28Z</time>
   </trkpt>
   <trkpt lat="51.1387970" lon="5.3715730">
    <ele>58.9</ele>
    <time>2020-06-14T08:24:29Z</time>
   </trkpt>
   <trkpt lat="51.1387640" lon="5.3718400">
    <ele>59.0</ele>
    <time>2020-06-14T08:24:30Z</time>
   </trkpt>
   <trkpt lat="51.1387420" lon="5.3719600">
    <ele>59.0</ele>
    <time>2020-06-14T08:24:31Z</time>
   </trkpt>
   <trkpt lat="51.1387170" lon="5.3720800">
    <ele>59.1</ele>
    <time>2020-06-14T08:24:32Z</time>
   </trkpt>
   <trkpt lat="51.1386870" lon="5.3721860">
    <ele>59.2</ele>
    <time>2020-06-14T08:24:33Z</time>
   </trkpt>
   <trkpt lat="51.1386520" lon="5.3723020">
    <ele>59.2</ele>
    <time>2020-06-14T08:24:34Z</time>
   </trkpt>
   <trkpt lat="51.1386210" lon="5.3724150">
    <ele>59.3</ele>
    <time>2020-06-14T08:24:35Z</time>
   </trkpt>
   <trkpt lat="51.1385880" lon="5.3725290">
    <ele>59.5</ele>
    <time>2020-06-14T08:24:36Z</time>
   </trkpt>
   <trkpt lat="51.1385600" lon="5.3726320">
    <ele>59.5</ele>
    <time>2020-06-14T08:24:37Z</time>
   </trkpt>
   <trkpt lat="51.1385300" lon="5.3727490">
    <ele>59.6</ele>
    <time>2020-06-14T08:24:38Z</time>
   </trkpt>
   <trkpt lat="51.1385020" lon="5.3728610">
    <ele>59.7</ele>
    <time>2020-06-14T08:24:39Z</time>
   </trkpt>
   <trkpt lat="51.1384680" lon="5.3729670">
    <ele>59.8</ele>
    <time>2020-06-14T08:24:40Z</time>
   </trkpt>
   <trkpt lat="51.1384350" lon="5.3730740">
    <ele>59.8</ele>
    <time>2020-06-14T08:24:41Z</time>
   </trkpt>
   <trkpt lat="51.1384050" lon="5.3731880">
    <ele>59.9</ele>
    <time>2020-06-14T08:24:42Z</time>
   </trkpt>
   <trkpt lat="51.1383790" lon="5.3733100">
    <ele>59.9</ele>
    <time>2020-06-14T08:24:43Z</time>
   </trkpt>
   <trkpt lat="51.1383490" lon="5.3734280">
    <ele>59.9</ele>
    <time>2020-06-14T08:24:44Z</time>
   </trkpt>
   <trkpt lat="51.1383200" lon="5.3735410">
    <ele>59.9</ele>
    <time>2020-06-14T08:24:45Z</time>
   </trkpt>
   <trkpt lat="51.1382920" lon="5.3736570">
    <ele>60.0</ele>
    <time>2020-06-14T08:24:46Z</time>
   </trkpt>
   <trkpt lat="51.1382620" lon="5.3737790">
    <ele>60.0</ele>
    <time>2020-06-14T08:24:47Z</time>
   </trkpt>
   <trkpt lat="51.1382330" lon="5.3738950">
    <ele>60.0</ele>
    <time>2020-06-14T08:24:48Z</time>
   </trkpt>
   <trkpt lat="51.1382040" lon="5.3740100">
    <ele>60.0</ele>
    <time>2020-06-14T08:24:49Z</time>
   </trkpt>
   <trkpt lat="51.1381770" lon="5.3741240">
    <ele>60.0</ele>
    <time>2020-06-14T08:24:50Z</time>
   </trkpt>
   <trkpt lat="51.1381490" lon="5.3742340">
    <ele>60.0</ele>
    <time>2020-06-14T08:24:51Z</time>
   </trkpt>
   <trkpt lat="51.1381260" lon="5.3743430">
    <ele>60.0</ele>
    <time>2020-06-14T08:24:52Z</time>
   </trkpt>
   <trkpt lat="51.1381090" lon="5.3744540">
    <ele>60.1</ele>
    <time>2020-06-14T08:24:53Z</time>
   </trkpt>
   <trkpt lat="51.1380940" lon="5.3745620">
    <ele>60.1</ele>
    <time>2020-06-14T08:24:54Z</time>
   </trkpt>
   <trkpt lat="51.1380750" lon="5.3746740">
    <ele>60.1</ele>
    <time>2020-06-14T08:24:55Z</time>
   </trkpt>
   <trkpt lat="51.1380550" lon="5.3747910">
    <ele>60.1</ele>
    <time>2020-06-14T08:24:56Z</time>
   </trkpt>
   <trkpt lat="51.1380330" lon="5.3749160">
    <ele>60.1</ele>
    <time>2020-06-14T08:24:57Z</time>
   </trkpt>
   <trkpt lat="51.1380160" lon="5.3750390">
    <ele>60.1</ele>
    <time>2020-06-14T08:24:58Z</time>
   </trkpt>
   <trkpt lat="51.1380010" lon="5.3751610">
    <ele>60.0</ele>
    <time>2020-06-14T08:24:59Z</time>
   </trkpt>
   <trkpt lat="51.1379870" lon="5.3752840">
    <ele>60.1</ele>
    <time>2020-06-14T08:25:00Z</time>
   </trkpt>
   <trkpt lat="51.1379720" lon="5.3754070">
    <ele>60.1</ele>
    <time>2020-06-14T08:25:01Z</time>
   </trkpt>
   <trkpt lat="51.1379560" lon="5.3755310">
    <ele>60.0</ele>
    <time>2020-06-14T08:25:02Z</time>
   </trkpt>
   <trkpt lat="51.1379450" lon="5.3756560">
    <ele>59.9</ele>
    <time>2020-06-14T08:25:03Z</time>
   </trkpt>
   <trkpt lat="51.1379370" lon="5.3757850">
    <ele>59.8</ele>
    <time>2020-06-14T08:25:04Z</time>
   </trkpt>
   <trkpt lat="51.1379270" lon="5.3759140">
    <ele>59.8</ele>
    <time>2020-06-14T08:25:05Z</time>
   </trkpt>
   <trkpt lat="51.1379220" lon="5.3760420">
    <ele>59.7</ele>
    <time>2020-06-14T08:25:06Z</time>
   </trkpt>
   <trkpt lat="51.1379140" lon="5.3761670">
    <ele>59.7</ele>
    <time>2020-06-14T08:25:07Z</time>
   </trkpt>
   <trkpt lat="51.1379070" lon="5.3762920">
    <ele>59.7</ele>
    <time>2020-06-14T08:25:08Z</time>
   </trkpt>
   <trkpt lat="51.1379090" lon="5.3764150">
    <ele>59.6</ele>
    <time>2020-06-14T08:25:09Z</time>
   </trkpt>
   <trkpt lat="51.1379060" lon="5.3765390">
    <ele>59.6</ele>
    <time>2020-06-14T08:25:10Z</time>
   </trkpt>
   <trkpt lat="51.1379040" lon="5.3766660">
    <ele>59.6</ele>
    <time>2020-06-14T08:25:11Z</time>
   </trkpt>
   <trkpt lat="51.1379030" lon="5.3767910">
    <ele>59.6</ele>
    <time>2020-06-14T08:25:12Z</time>
   </trkpt>
   <trkpt lat="51.1379150" lon="5.3769120">
    <ele>59.6</ele>
    <time>2020-06-14T08:25:13Z</time>
   </trkpt>
   <trkpt lat="51.1379350" lon="5.3770330">
    <ele>59.6</ele>
    <time>2020-06-14T08:25:14Z</time>
   </trkpt>
   <trkpt lat="51.1379490" lon="5.3771590">
    <ele>59.6</ele>
    <time>2020-06-14T08:25:15Z</time>
   </trkpt>
   <trkpt lat="51.1379650" lon="5.3772890">
    <ele>59.7</ele>
    <time>2020-06-14T08:25:16Z</time>
   </trkpt>
   <trkpt lat="51.1379900" lon="5.3774150">
    <ele>59.7</ele>
    <time>2020-06-14T08:25:17Z</time>
   </trkpt>
   <trkpt lat="51.1380120" lon="5.3775390">
    <ele>59.7</ele>
    <time>2020-06-14T08:25:18Z</time>
   </trkpt>
   <trkpt lat="51.1380380" lon="5.3776570">
    <ele>59.7</ele>
    <time>2020-06-14T08:25:19Z</time>
   </trkpt>
   <trkpt lat="51.1380570" lon="5.3777800">
    <ele>59.7</ele>
    <time>2020-06-14T08:25:20Z</time>
   </trkpt>
   <trkpt lat="51.1380750" lon="5.3779010">
    <ele>59.8</ele>
    <time>2020-06-14T08:25:21Z</time>
   </trkpt>
   <trkpt lat="51.1380980" lon="5.3780220">
    <ele>59.7</ele>
    <time>2020-06-14T08:25:22Z</time>
   </trkpt>
   <trkpt lat="51.1381210" lon="5.3781450">
    <ele>59.7</ele>
    <time>2020-06-14T08:25:23Z</time>
   </trkpt>
   <trkpt lat="51.1381410" lon="5.3782670">
    <ele>59.6</ele>
    <time>2020-06-14T08:25:24Z</time>
   </trkpt>
   <trkpt lat="51.1381590" lon="5.3783870">
    <ele>59.6</ele>
    <time>2020-06-14T08:25:25Z</time>
   </trkpt>
   <trkpt lat="51.1381710" lon="5.3785070">
    <ele>59.6</ele>
    <time>2020-06-14T08:25:26Z</time>
   </trkpt>
   <trkpt lat="51.1381710" lon="5.3786290">
    <ele>59.5</ele>
    <time>2020-06-14T08:25:27Z</time>
   </trkpt>
   <trkpt lat="51.1381680" lon="5.3787510">
    <ele>59.5</ele>
    <time>2020-06-14T08:25:28Z</time>
   </trkpt>
   <trkpt lat="51.1381650" lon="5.3788730">
    <ele>59.5</ele>
    <time>2020-06-14T08:25:29Z</time>
   </trkpt>
   <trkpt lat="51.1381570" lon="5.3789960">
    <ele>59.3</ele>
    <time>2020-06-14T08:25:30Z</time>
   </trkpt>
   <trkpt lat="51.1381440" lon="5.3791140">
    <ele>59.2</ele>
    <time>2020-06-14T08:25:31Z</time>
   </trkpt>
   <trkpt lat="51.1381400" lon="5.3792330">
    <ele>59.2</ele>
    <time>2020-06-14T08:25:32Z</time>
   </trkpt>
   <trkpt lat="51.1381380" lon="5.3793500">
    <ele>59.2</ele>
    <time>2020-06-14T08:25:33Z</time>
   </trkpt>
   <trkpt lat="51.1381390" lon="5.3794630">
    <ele>59.2</ele>
    <time>2020-06-14T08:25:34Z</time>
   </trkpt>
   <trkpt lat="51.1381360" lon="5.3795740">
    <ele>59.2</ele>
    <time>2020-06-14T08:25:35Z</time>
   </trkpt>
   <trkpt lat="51.1381350" lon="5.3796820">
    <ele>59.2</ele>
    <time>2020-06-14T08:25:36Z</time>
   </trkpt>
   <trkpt lat="51.1381340" lon="5.3797920">
    <ele>59.2</ele>
    <time>2020-06-14T08:25:37Z</time>
   </trkpt>
   <trkpt lat="51.1381340" lon="5.3799060">
    <ele>59.3</ele>
    <time>2020-06-14T08:25:38Z</time>
   </trkpt>
   <trkpt lat="51.1381280" lon="5.3800190">
    <ele>59.3</ele>
    <time>2020-06-14T08:25:39Z</time>
   </trkpt>
   <trkpt lat="51.1381270" lon="5.3801310">
    <ele>59.3</ele>
    <time>2020-06-14T08:25:40Z</time>
   </trkpt>
   <trkpt lat="51.1381270" lon="5.3802470">
    <ele>59.4</ele>
    <time>2020-06-14T08:25:41Z</time>
   </trkpt>
   <trkpt lat="51.1381250" lon="5.3803670">
    <ele>59.5</ele>
    <time>2020-06-14T08:25:42Z</time>
   </trkpt>
   <trkpt lat="51.1381280" lon="5.3804860">
    <ele>59.5</ele>
    <time>2020-06-14T08:25:43Z</time>
   </trkpt>
   <trkpt lat="51.1381300" lon="5.3806070">
    <ele>59.6</ele>
    <time>2020-06-14T08:25:44Z</time>
   </trkpt>
   <trkpt lat="51.1381300" lon="5.3807290">
    <ele>59.7</ele>
    <time>2020-06-14T08:25:45Z</time>
   </trkpt>
   <trkpt lat="51.1381250" lon="5.3808510">
    <ele>59.7</ele>
    <time>2020-06-14T08:25:46Z</time>
   </trkpt>
   <trkpt lat="51.1381190" lon="5.3809710">
    <ele>59.8</ele>
    <time>2020-06-14T08:25:47Z</time>
   </trkpt>
   <trkpt lat="51.1381060" lon="5.3810880">
    <ele>59.9</ele>
    <time>2020-06-14T08:25:48Z</time>
   </trkpt>
   <trkpt lat="51.1380880" lon="5.3812110">
    <ele>59.9</ele>
    <time>2020-06-14T08:25:49Z</time>
   </trkpt>
   <trkpt lat="51.1380700" lon="5.3813280">
    <ele>59.9</ele>
    <time>2020-06-14T08:25:50Z</time>
   </trkpt>
   <trkpt lat="51.1380480" lon="5.3814380">
    <ele>60.0</ele>
    <time>2020-06-14T08:25:51Z</time>
   </trkpt>
   <trkpt lat="51.1380270" lon="5.3815450">
    <ele>60.0</ele>
    <time>2020-06-14T08:25:52Z</time>
   </trkpt>
   <trkpt lat="51.1380070" lon="5.3816360">
    <ele>60.1</ele>
    <time>2020-06-14T08:25:53Z</time>
   </trkpt>
   <trkpt lat="51.1379950" lon="5.3817150">
    <ele>60.2</ele>
    <time>2020-06-14T08:25:54Z</time>
   </trkpt>
   <trkpt lat="51.1379810" lon="5.3817840">
    <ele>60.2</ele>
    <time>2020-06-14T08:25:55Z</time>
   </trkpt>
   <trkpt lat="51.1379670" lon="5.3818460">
    <ele>60.3</ele>
    <time>2020-06-14T08:25:56Z</time>
   </trkpt>
   <trkpt lat="51.1379560" lon="5.3818950">
    <ele>60.4</ele>
    <time>2020-06-14T08:25:57Z</time>
   </trkpt>
   <trkpt lat="51.1379450" lon="5.3819470">
    <ele>60.5</ele>
    <time>2020-06-14T08:25:58Z</time>
   </trkpt>
   <trkpt lat="51.1379400" lon="5.3819600">
    <ele>60.5</ele>
    <time>2020-06-14T08:25:59Z</time>
   </trkpt>
   <trkpt lat="51.1379370" lon="5.3819840">
    <ele>60.6</ele>
    <time>2020-06-14T08:26:00Z</time>
   </trkpt>
   <trkpt lat="51.1379350" lon="5.3820040">
    <ele>60.6</ele>
    <time>2020-06-14T08:26:01Z</time>
   </trkpt>
   <trkpt lat="51.1379390" lon="5.3820330">
    <ele>60.7</ele>
    <time>2020-06-14T08:26:02Z</time>
   </trkpt>
   <trkpt lat="51.1379400" lon="5.3820480">
    <ele>60.7</ele>
    <time>2020-06-14T08:26:03Z</time>
   </trkpt>
   <trkpt lat="51.1379420" lon="5.3820640">
    <ele>60.7</ele>
    <time>2020-06-14T08:26:04Z</time>
   </trkpt>
   <trkpt lat="51.1379350" lon="5.3821090">
    <ele>60.8</ele>
    <time>2020-06-14T08:26:05Z</time>
   </trkpt>
   <trkpt lat="51.1379320" lon="5.3821240">
    <ele>60.8</ele>
    <time>2020-06-14T08:26:06Z</time>
   </trkpt>
   <trkpt lat="51.1379250" lon="5.3821760">
    <ele>60.9</ele>
    <time>2020-06-14T08:26:07Z</time>
   </trkpt>
   <trkpt lat="51.1379240" lon="5.3821950">
    <ele>61.0</ele>
    <time>2020-06-14T08:26:08Z</time>
   </trkpt>
   <trkpt lat="51.1379290" lon="5.3822400">
    <ele>61.1</ele>
    <time>2020-06-14T08:26:09Z</time>
   </trkpt>
   <trkpt lat="51.1379300" lon="5.3822870">
    <ele>61.2</ele>
    <time>2020-06-14T08:26:10Z</time>
   </trkpt>
   <trkpt lat="51.1379290" lon="5.3823310">
    <ele>61.2</ele>
    <time>2020-06-14T08:26:11Z</time>
   </trkpt>
   <trkpt lat="51.1379230" lon="5.3823730">
    <ele>61.3</ele>
    <time>2020-06-14T08:26:12Z</time>
   </trkpt>
   <trkpt lat="51.1379100" lon="5.3824110">
    <ele>61.3</ele>
    <time>2020-06-14T08:26:13Z</time>
   </trkpt>
   <trkpt lat="51.1378880" lon="5.3824510">
    <ele>61.3</ele>
    <time>2020-06-14T08:26:14Z</time>
   </trkpt>
   <trkpt lat="51.1378520" lon="5.3824670">
    <ele>61.2</ele>
    <time>2020-06-14T08:26:15Z</time>
   </trkpt>
   <trkpt lat="51.1378090" lon="5.3824650">
    <ele>61.1</ele>
    <time>2020-06-14T08:26:16Z</time>
   </trkpt>
   <trkpt lat="51.1377640" lon="5.3824580">
    <ele>61.1</ele>
    <time>2020-06-14T08:26:17Z</time>
   </trkpt>
   <trkpt lat="51.1377160" lon="5.3824560">
    <ele>61.0</ele>
    <time>2020-06-14T08:26:18Z</time>
   </trkpt>
   <trkpt lat="51.1376640" lon="5.3824520">
    <ele>60.9</ele>
    <time>2020-06-14T08:26:19Z</time>
   </trkpt>
   <trkpt lat="51.1376070" lon="5.3824540">
    <ele>60.8</ele>
    <time>2020-06-14T08:26:20Z</time>
   </trkpt>
   <trkpt lat="51.1375480" lon="5.3824580">
    <ele>60.8</ele>
    <time>2020-06-14T08:26:21Z</time>
   </trkpt>
   <trkpt lat="51.1374840" lon="5.3824650">
    <ele>60.7</ele>
    <time>2020-06-14T08:26:22Z</time>
   </trkpt>
   <trkpt lat="51.1374130" lon="5.3824710">
    <ele>60.7</ele>
    <time>2020-06-14T08:26:23Z</time>
   </trkpt>
   <trkpt lat="51.1373400" lon="5.3824730">
    <ele>60.7</ele>
    <time>2020-06-14T08:26:24Z</time>
   </trkpt>
   <trkpt lat="51.1372710" lon="5.3824900">
    <ele>60.7</ele>
    <time>2020-06-14T08:26:25Z</time>
   </trkpt>
   <trkpt lat="51.1372010" lon="5.3825020">
    <ele>60.7</ele>
    <time>2020-06-14T08:26:26Z</time>
   </trkpt>
   <trkpt lat="51.1371280" lon="5.3825150">
    <ele>60.7</ele>
    <time>2020-06-14T08:26:27Z</time>
   </trkpt>
   <trkpt lat="51.1370510" lon="5.3825260">
    <ele>60.7</ele>
    <time>2020-06-14T08:26:28Z</time>
   </trkpt>
   <trkpt lat="51.1369750" lon="5.3825410">
    <ele>60.7</ele>
    <time>2020-06-14T08:26:29Z</time>
   </trkpt>
   <trkpt lat="51.1368980" lon="5.3825520">
    <ele>60.7</ele>
    <time>2020-06-14T08:26:30Z</time>
   </trkpt>
   <trkpt lat="51.1368220" lon="5.3825610">
    <ele>60.7</ele>
    <time>2020-06-14T08:26:31Z</time>
   </trkpt>
   <trkpt lat="51.1367460" lon="5.3825730">
    <ele>60.7</ele>
    <time>2020-06-14T08:26:32Z</time>
   </trkpt>
   <trkpt lat="51.1366670" lon="5.3826010">
    <ele>60.7</ele>
    <time>2020-06-14T08:26:33Z</time>
   </trkpt>
   <trkpt lat="51.1365860" lon="5.3826290">
    <ele>60.7</ele>
    <time>2020-06-14T08:26:34Z</time>
   </trkpt>
   <trkpt lat="51.1365090" lon="5.3826460">
    <ele>60.7</ele>
    <time>2020-06-14T08:26:35Z</time>
   </trkpt>
   <trkpt lat="51.1364240" lon="5.3826760">
    <ele>60.7</ele>
    <time>2020-06-14T08:26:36Z</time>
   </trkpt>
   <trkpt lat="51.1363430" lon="5.3827040">
    <ele>60.7</ele>
    <time>2020-06-14T08:26:37Z</time>
   </trkpt>
   <trkpt lat="51.1362750" lon="5.3827340">
    <ele>60.7</ele>
    <time>2020-06-14T08:26:38Z</time>
   </trkpt>
   <trkpt lat="51.1361960" lon="5.3826950">
    <ele>60.7</ele>
    <time>2020-06-14T08:26:39Z</time>
   </trkpt>
   <trkpt lat="51.1361180" lon="5.3827170">
    <ele>60.7</ele>
    <time>2020-06-14T08:26:40Z</time>
   </trkpt>
   <trkpt lat="51.1360540" lon="5.3827410">
    <ele>60.7</ele>
    <time>2020-06-14T08:26:41Z</time>
   </trkpt>
   <trkpt lat="51.1359870" lon="5.3827550">
    <ele>60.8</ele>
    <time>2020-06-14T08:26:42Z</time>
   </trkpt>
   <trkpt lat="51.1359290" lon="5.3827680">
    <ele>60.8</ele>
    <time>2020-06-14T08:26:43Z</time>
   </trkpt>
   <trkpt lat="51.1358690" lon="5.3827830">
    <ele>60.8</ele>
    <time>2020-06-14T08:26:44Z</time>
   </trkpt>
   <trkpt lat="51.1358330" lon="5.3827890">
    <ele>60.8</ele>
    <time>2020-06-14T08:26:45Z</time>
   </trkpt>
   <trkpt lat="51.1357760" lon="5.3828020">
    <ele>60.8</ele>
    <time>2020-06-14T08:26:46Z</time>
   </trkpt>
   <trkpt lat="51.1357100" lon="5.3828240">
    <ele>60.8</ele>
    <time>2020-06-14T08:26:47Z</time>
   </trkpt>
   <trkpt lat="51.1356490" lon="5.3828440">
    <ele>60.8</ele>
    <time>2020-06-14T08:26:48Z</time>
   </trkpt>
   <trkpt lat="51.1355770" lon="5.3828570">
    <ele>60.8</ele>
    <time>2020-06-14T08:26:49Z</time>
   </trkpt>
   <trkpt lat="51.1354950" lon="5.3828680">
    <ele>60.8</ele>
    <time>2020-06-14T08:26:50Z</time>
   </trkpt>
   <trkpt lat="51.1354150" lon="5.3828780">
    <ele>60.9</ele>
    <time>2020-06-14T08:26:51Z</time>
   </trkpt>
   <trkpt lat="51.1353300" lon="5.3828880">
    <ele>60.9</ele>
    <time>2020-06-14T08:26:52Z</time>
   </trkpt>
   <trkpt lat="51.1352560" lon="5.3829000">
    <ele>60.8</ele>
    <time>2020-06-14T08:26:53Z</time>
   </trkpt>
   <trkpt lat="51.1351760" lon="5.3829120">
    <ele>60.9</ele>
    <time>2020-06-14T08:26:54Z</time>
   </trkpt>
   <trkpt lat="51.1350940" lon="5.3829250">
    <ele>60.9</ele>
    <time>2020-06-14T08:26:55Z</time>
   </trkpt>
   <trkpt lat="51.1350150" lon="5.3829370">
    <ele>60.9</ele>
    <time>2020-06-14T08:26:56Z</time>
   </trkpt>
   <trkpt lat="51.1349380" lon="5.3829540">
    <ele>60.9</ele>
    <time>2020-06-14T08:26:57Z</time>
   </trkpt>
   <trkpt lat="51.1348620" lon="5.3829660">
    <ele>61.0</ele>
    <time>2020-06-14T08:26:58Z</time>
   </trkpt>
   <trkpt lat="51.1347870" lon="5.3829820">
    <ele>61.0</ele>
    <time>2020-06-14T08:26:59Z</time>
   </trkpt>
   <trkpt lat="51.1347060" lon="5.3829980">
    <ele>61.0</ele>
    <time>2020-06-14T08:27:00Z</time>
   </trkpt>
   <trkpt lat="51.1346230" lon="5.3830160">
    <ele>61.0</ele>
    <time>2020-06-14T08:27:01Z</time>
   </trkpt>
   <trkpt lat="51.1345350" lon="5.3830260">
    <ele>61.0</ele>
    <time>2020-06-14T08:27:02Z</time>
   </trkpt>
   <trkpt lat="51.1344560" lon="5.3830360">
    <ele>60.9</ele>
    <time>2020-06-14T08:27:03Z</time>
   </trkpt>
   <trkpt lat="51.1343800" lon="5.3830470">
    <ele>60.9</ele>
    <time>2020-06-14T08:27:04Z</time>
   </trkpt>
   <trkpt lat="51.1343010" lon="5.3830490">
    <ele>60.9</ele>
    <time>2020-06-14T08:27:05Z</time>
   </trkpt>
   <trkpt lat="51.1342210" lon="5.3830530">
    <ele>60.9</ele>
    <time>2020-06-14T08:27:06Z</time>
   </trkpt>
   <trkpt lat="51.1341410" lon="5.3830680">
    <ele>60.9</ele>
    <time>2020-06-14T08:27:07Z</time>
   </trkpt>
   <trkpt lat="51.1340550" lon="5.3830840">
    <ele>60.9</ele>
    <time>2020-06-14T08:27:08Z</time>
   </trkpt>
   <trkpt lat="51.1339660" lon="5.3830980">
    <ele>61.0</ele>
    <time>2020-06-14T08:27:09Z</time>
   </trkpt>
   <trkpt lat="51.1338810" lon="5.3831130">
    <ele>61.0</ele>
    <time>2020-06-14T08:27:10Z</time>
   </trkpt>
   <trkpt lat="51.1338030" lon="5.3831300">
    <ele>61.0</ele>
    <time>2020-06-14T08:27:11Z</time>
   </trkpt>
   <trkpt lat="51.1337200" lon="5.3831440">
    <ele>61.1</ele>
    <time>2020-06-14T08:27:12Z</time>
   </trkpt>
   <trkpt lat="51.1336330" lon="5.3831520">
    <ele>61.1</ele>
    <time>2020-06-14T08:27:13Z</time>
   </trkpt>
   <trkpt lat="51.1335480" lon="5.3831690">
    <ele>61.1</ele>
    <time>2020-06-14T08:27:14Z</time>
   </trkpt>
   <trkpt lat="51.1334620" lon="5.3831840">
    <ele>61.1</ele>
    <time>2020-06-14T08:27:15Z</time>
   </trkpt>
   <trkpt lat="51.1333830" lon="5.3832050">
    <ele>61.1</ele>
    <time>2020-06-14T08:27:16Z</time>
   </trkpt>
   <trkpt lat="51.1333030" lon="5.3832230">
    <ele>61.1</ele>
    <time>2020-06-14T08:27:17Z</time>
   </trkpt>
   <trkpt lat="51.1332190" lon="5.3832210">
    <ele>61.1</ele>
    <time>2020-06-14T08:27:18Z</time>
   </trkpt>
   <trkpt lat="51.1331320" lon="5.3832150">
    <ele>61.1</ele>
    <time>2020-06-14T08:27:19Z</time>
   </trkpt>
   <trkpt lat="51.1330490" lon="5.3832000">
    <ele>61.1</ele>
    <time>2020-06-14T08:27:20Z</time>
   </trkpt>
   <trkpt lat="51.1329720" lon="5.3831850">
    <ele>61.1</ele>
    <time>2020-06-14T08:27:21Z</time>
   </trkpt>
   <trkpt lat="51.1328980" lon="5.3831580">
    <ele>61.1</ele>
    <time>2020-06-14T08:27:22Z</time>
   </trkpt>
   <trkpt lat="51.1328200" lon="5.3831280">
    <ele>61.1</ele>
    <time>2020-06-14T08:27:23Z</time>
   </trkpt>
   <trkpt lat="51.1327480" lon="5.3830960">
    <ele>61.2</ele>
    <time>2020-06-14T08:27:24Z</time>
   </trkpt>
   <trkpt lat="51.1326740" lon="5.3830650">
    <ele>61.2</ele>
    <time>2020-06-14T08:27:25Z</time>
   </trkpt>
   <trkpt lat="51.1326060" lon="5.3830260">
    <ele>61.2</ele>
    <time>2020-06-14T08:27:26Z</time>
   </trkpt>
   <trkpt lat="51.1325370" lon="5.3829870">
    <ele>61.2</ele>
    <time>2020-06-14T08:27:27Z</time>
   </trkpt>
   <trkpt lat="51.1324680" lon="5.3829480">
    <ele>61.2</ele>
    <time>2020-06-14T08:27:28Z</time>
   </trkpt>
   <trkpt lat="51.1323960" lon="5.3829100">
    <ele>61.3</ele>
    <time>2020-06-14T08:27:29Z</time>
   </trkpt>
   <trkpt lat="51.1323240" lon="5.3828720">
    <ele>61.3</ele>
    <time>2020-06-14T08:27:30Z</time>
   </trkpt>
   <trkpt lat="51.1322520" lon="5.3828380">
    <ele>61.3</ele>
    <time>2020-06-14T08:27:31Z</time>
   </trkpt>
   <trkpt lat="51.1321830" lon="5.3828050">
    <ele>61.3</ele>
    <time>2020-06-14T08:27:32Z</time>
   </trkpt>
   <trkpt lat="51.1321120" lon="5.3827770">
    <ele>61.4</ele>
    <time>2020-06-14T08:27:33Z</time>
   </trkpt>
   <trkpt lat="51.1320410" lon="5.3827500">
    <ele>61.4</ele>
    <time>2020-06-14T08:27:34Z</time>
   </trkpt>
   <trkpt lat="51.1319700" lon="5.3827260">
    <ele>61.5</ele>
    <time>2020-06-14T08:27:35Z</time>
   </trkpt>
   <trkpt lat="51.1318980" lon="5.3827140">
    <ele>61.5</ele>
    <time>2020-06-14T08:27:36Z</time>
   </trkpt>
   <trkpt lat="51.1318300" lon="5.3826940">
    <ele>61.5</ele>
    <time>2020-06-14T08:27:37Z</time>
   </trkpt>
   <trkpt lat="51.1317690" lon="5.3826720">
    <ele>61.6</ele>
    <time>2020-06-14T08:27:38Z</time>
   </trkpt>
   <trkpt lat="51.1317170" lon="5.3826520">
    <ele>61.6</ele>
    <time>2020-06-14T08:27:39Z</time>
   </trkpt>
   <trkpt lat="51.1316630" lon="5.3826350">
    <ele>61.7</ele>
    <time>2020-06-14T08:27:40Z</time>
   </trkpt>
   <trkpt lat="51.1316130" lon="5.3826110">
    <ele>61.8</ele>
    <time>2020-06-14T08:27:41Z</time>
   </trkpt>
   <trkpt lat="51.1315630" lon="5.3825920">
    <ele>61.8</ele>
    <time>2020-06-14T08:27:42Z</time>
   </trkpt>
   <trkpt lat="51.1315130" lon="5.3825760">
    <ele>61.9</ele>
    <time>2020-06-14T08:27:43Z</time>
   </trkpt>
   <trkpt lat="51.1314630" lon="5.3825670">
    <ele>61.9</ele>
    <time>2020-06-14T08:27:44Z</time>
   </trkpt>
   <trkpt lat="51.1314170" lon="5.3825580">
    <ele>62.0</ele>
    <time>2020-06-14T08:27:45Z</time>
   </trkpt>
   <trkpt lat="51.1313780" lon="5.3825440">
    <ele>62.0</ele>
    <time>2020-06-14T08:27:46Z</time>
   </trkpt>
   <trkpt lat="51.1313470" lon="5.3825280">
    <ele>62.0</ele>
    <time>2020-06-14T08:27:47Z</time>
   </trkpt>
   <trkpt lat="51.1313190" lon="5.3825090">
    <ele>62.0</ele>
    <time>2020-06-14T08:27:48Z</time>
   </trkpt>
   <trkpt lat="51.1312880" lon="5.3825040">
    <ele>62.0</ele>
    <time>2020-06-14T08:27:49Z</time>
   </trkpt>
   <trkpt lat="51.1312540" lon="5.3825030">
    <ele>62.1</ele>
    <time>2020-06-14T08:27:50Z</time>
   </trkpt>
   <trkpt lat="51.1312180" lon="5.3824830">
    <ele>62.1</ele>
    <time>2020-06-14T08:27:51Z</time>
   </trkpt>
   <trkpt lat="51.1311720" lon="5.3824590">
    <ele>62.1</ele>
    <time>2020-06-14T08:27:52Z</time>
   </trkpt>
   <trkpt lat="51.1311250" lon="5.3824290">
    <ele>62.1</ele>
    <time>2020-06-14T08:27:53Z</time>
   </trkpt>
   <trkpt lat="51.1310680" lon="5.3823910">
    <ele>62.1</ele>
    <time>2020-06-14T08:27:54Z</time>
   </trkpt>
   <trkpt lat="51.1310100" lon="5.3823500">
    <ele>62.0</ele>
    <time>2020-06-14T08:27:55Z</time>
   </trkpt>
   <trkpt lat="51.1309440" lon="5.3823050">
    <ele>62.0</ele>
    <time>2020-06-14T08:27:56Z</time>
   </trkpt>
   <trkpt lat="51.1308730" lon="5.3822810">
    <ele>62.0</ele>
    <time>2020-06-14T08:27:57Z</time>
   </trkpt>
   <trkpt lat="51.1308050" lon="5.3822790">
    <ele>62.0</ele>
    <time>2020-06-14T08:27:58Z</time>
   </trkpt>
   <trkpt lat="51.1307330" lon="5.3822820">
    <ele>61.9</ele>
    <time>2020-06-14T08:27:59Z</time>
   </trkpt>
   <trkpt lat="51.1306550" lon="5.3822850">
    <ele>61.9</ele>
    <time>2020-06-14T08:28:00Z</time>
   </trkpt>
   <trkpt lat="51.1305750" lon="5.3822860">
    <ele>61.9</ele>
    <time>2020-06-14T08:28:01Z</time>
   </trkpt>
   <trkpt lat="51.1304960" lon="5.3822620">
    <ele>61.9</ele>
    <time>2020-06-14T08:28:02Z</time>
   </trkpt>
   <trkpt lat="51.1304140" lon="5.3822700">
    <ele>61.9</ele>
    <time>2020-06-14T08:28:03Z</time>
   </trkpt>
   <trkpt lat="51.1303310" lon="5.3822800">
    <ele>61.9</ele>
    <time>2020-06-14T08:28:04Z</time>
   </trkpt>
   <trkpt lat="51.1302440" lon="5.3822930">
    <ele>61.9</ele>
    <time>2020-06-14T08:28:05Z</time>
   </trkpt>
   <trkpt lat="51.1301650" lon="5.3823020">
    <ele>61.9</ele>
    <time>2020-06-14T08:28:06Z</time>
   </trkpt>
   <trkpt lat="51.1300830" lon="5.3823120">
    <ele>61.9</ele>
    <time>2020-06-14T08:28:07Z</time>
   </trkpt>
   <trkpt lat="51.1299990" lon="5.3823250">
    <ele>61.9</ele>
    <time>2020-06-14T08:28:08Z</time>
   </trkpt>
   <trkpt lat="51.1299180" lon="5.3823330">
    <ele>61.9</ele>
    <time>2020-06-14T08:28:09Z</time>
   </trkpt>
   <trkpt lat="51.1298400" lon="5.3823430">
    <ele>61.9</ele>
    <time>2020-06-14T08:28:10Z</time>
   </trkpt>
   <trkpt lat="51.1297620" lon="5.3823530">
    <ele>61.9</ele>
    <time>2020-06-14T08:28:11Z</time>
   </trkpt>
   <trkpt lat="51.1296830" lon="5.3823590">
    <ele>61.9</ele>
    <time>2020-06-14T08:28:12Z</time>
   </trkpt>
   <trkpt lat="51.1296060" lon="5.3823650">
    <ele>61.9</ele>
    <time>2020-06-14T08:28:13Z</time>
   </trkpt>
   <trkpt lat="51.1295310" lon="5.3823820">
    <ele>62.0</ele>
    <time>2020-06-14T08:28:14Z</time>
   </trkpt>
   <trkpt lat="51.1294580" lon="5.3824030">
    <ele>62.0</ele>
    <time>2020-06-14T08:28:15Z</time>
   </trkpt>
   <trkpt lat="51.1293860" lon="5.3824170">
    <ele>62.0</ele>
    <time>2020-06-14T08:28:16Z</time>
   </trkpt>
   <trkpt lat="51.1293170" lon="5.3824300">
    <ele>62.0</ele>
    <time>2020-06-14T08:28:17Z</time>
   </trkpt>
   <trkpt lat="51.1292560" lon="5.3824480">
    <ele>62.0</ele>
    <time>2020-06-14T08:28:18Z</time>
   </trkpt>
   <trkpt lat="51.1291980" lon="5.3824670">
    <ele>62.0</ele>
    <time>2020-06-14T08:28:19Z</time>
   </trkpt>
   <trkpt lat="51.1291440" lon="5.3824790">
    <ele>62.0</ele>
    <time>2020-06-14T08:28:20Z</time>
   </trkpt>
   <trkpt lat="51.1290880" lon="5.3824830">
    <ele>61.9</ele>
    <time>2020-06-14T08:28:21Z</time>
   </trkpt>
   <trkpt lat="51.1290310" lon="5.3824680">
    <ele>61.8</ele>
    <time>2020-06-14T08:28:22Z</time>
   </trkpt>
   <trkpt lat="51.1289820" lon="5.3824260">
    <ele>61.7</ele>
    <time>2020-06-14T08:28:23Z</time>
   </trkpt>
   <trkpt lat="51.1289490" lon="5.3823280">
    <ele>61.6</ele>
    <time>2020-06-14T08:28:24Z</time>
   </trkpt>
   <trkpt lat="51.1289270" lon="5.3822120">
    <ele>61.5</ele>
    <time>2020-06-14T08:28:25Z</time>
   </trkpt>
   <trkpt lat="51.1289070" lon="5.3820980">
    <ele>61.5</ele>
    <time>2020-06-14T08:28:26Z</time>
   </trkpt>
   <trkpt lat="51.1288810" lon="5.3819870">
    <ele>61.5</ele>
    <time>2020-06-14T08:28:27Z</time>
   </trkpt>
   <trkpt lat="51.1288530" lon="5.3818890">
    <ele>61.5</ele>
    <time>2020-06-14T08:28:28Z</time>
   </trkpt>
   <trkpt lat="51.1288120" lon="5.3817860">
    <ele>61.5</ele>
    <time>2020-06-14T08:28:29Z</time>
   </trkpt>
   <trkpt lat="51.1287550" lon="5.3817060">
    <ele>61.5</ele>
    <time>2020-06-14T08:28:30Z</time>
   </trkpt>
   <trkpt lat="51.1286820" lon="5.3816680">
    <ele>61.5</ele>
    <time>2020-06-14T08:28:31Z</time>
   </trkpt>
   <trkpt lat="51.1286050" lon="5.3816670">
    <ele>61.4</ele>
    <time>2020-06-14T08:28:32Z</time>
   </trkpt>
   <trkpt lat="51.1285330" lon="5.3816710">
    <ele>61.4</ele>
    <time>2020-06-14T08:28:33Z</time>
   </trkpt>
   <trkpt lat="51.1284530" lon="5.3816820">
    <ele>61.4</ele>
    <time>2020-06-14T08:28:34Z</time>
   </trkpt>
   <trkpt lat="51.1283700" lon="5.3816880">
    <ele>61.4</ele>
    <time>2020-06-14T08:28:35Z</time>
   </trkpt>
   <trkpt lat="51.1282820" lon="5.3816980">
    <ele>61.5</ele>
    <time>2020-06-14T08:28:36Z</time>
   </trkpt>
   <trkpt lat="51.1281990" lon="5.3817130">
    <ele>61.5</ele>
    <time>2020-06-14T08:28:37Z</time>
   </trkpt>
   <trkpt lat="51.1281200" lon="5.3817240">
    <ele>61.5</ele>
    <time>2020-06-14T08:28:38Z</time>
   </trkpt>
   <trkpt lat="51.1280360" lon="5.3817240">
    <ele>61.5</ele>
    <time>2020-06-14T08:28:39Z</time>
   </trkpt>
   <trkpt lat="51.1279580" lon="5.3817390">
    <ele>61.6</ele>
    <time>2020-06-14T08:28:40Z</time>
   </trkpt>
   <trkpt lat="51.1278760" lon="5.3817500">
    <ele>61.6</ele>
    <time>2020-06-14T08:28:41Z</time>
   </trkpt>
   <trkpt lat="51.1278000" lon="5.3817650">
    <ele>61.6</ele>
    <time>2020-06-14T08:28:42Z</time>
   </trkpt>
   <trkpt lat="51.1277300" lon="5.3817750">
    <ele>61.6</ele>
    <time>2020-06-14T08:28:43Z</time>
   </trkpt>
   <trkpt lat="51.1276660" lon="5.3817840">
    <ele>61.7</ele>
    <time>2020-06-14T08:28:44Z</time>
   </trkpt>
   <trkpt lat="51.1276050" lon="5.3817950">
    <ele>61.7</ele>
    <time>2020-06-14T08:28:45Z</time>
   </trkpt>
   <trkpt lat="51.1275380" lon="5.3818080">
    <ele>61.7</ele>
    <time>2020-06-14T08:28:46Z</time>
   </trkpt>
   <trkpt lat="51.1274720" lon="5.3818180">
    <ele>61.8</ele>
    <time>2020-06-14T08:28:47Z</time>
   </trkpt>
   <trkpt lat="51.1274040" lon="5.3818250">
    <ele>61.8</ele>
    <time>2020-06-14T08:28:48Z</time>
   </trkpt>
   <trkpt lat="51.1273320" lon="5.3818250">
    <ele>61.9</ele>
    <time>2020-06-14T08:28:49Z</time>
   </trkpt>
   <trkpt lat="51.1272600" lon="5.3818200">
    <ele>62.0</ele>
    <time>2020-06-14T08:28:50Z</time>
   </trkpt>
   <trkpt lat="51.1271850" lon="5.3817900">
    <ele>62.0</ele>
    <time>2020-06-14T08:28:51Z</time>
   </trkpt>
   <trkpt lat="51.1271220" lon="5.3817010">
    <ele>62.0</ele>
    <time>2020-06-14T08:28:52Z</time>
   </trkpt>
   <trkpt lat="51.1270810" lon="5.3815950">
    <ele>62.0</ele>
    <time>2020-06-14T08:28:53Z</time>
   </trkpt>
   <trkpt lat="51.1270480" lon="5.3815000">
    <ele>62.0</ele>
    <time>2020-06-14T08:28:54Z</time>
   </trkpt>
   <trkpt lat="51.1270110" lon="5.3814100">
    <ele>62.1</ele>
    <time>2020-06-14T08:28:55Z</time>
   </trkpt>
   <trkpt lat="51.1269790" lon="5.3813370">
    <ele>62.2</ele>
    <time>2020-06-14T08:28:56Z</time>
   </trkpt>
   <trkpt lat="51.1269320" lon="5.3812770">
    <ele>62.2</ele>
    <time>2020-06-14T08:28:57Z</time>
   </trkpt>
   <trkpt lat="51.1268890" lon="5.3812330">
    <ele>62.3</ele>
    <time>2020-06-14T08:28:58Z</time>
   </trkpt>
   <trkpt lat="51.1268430" lon="5.3812060">
    <ele>62.4</ele>
    <time>2020-06-14T08:28:59Z</time>
   </trkpt>
   <trkpt lat="51.1267980" lon="5.3811870">
    <ele>62.5</ele>
    <time>2020-06-14T08:29:00Z</time>
   </trkpt>
   <trkpt lat="51.1267500" lon="5.3811920">
    <ele>62.6</ele>
    <time>2020-06-14T08:29:01Z</time>
   </trkpt>
   <trkpt lat="51.1267090" lon="5.3811980">
    <ele>62.8</ele>
    <time>2020-06-14T08:29:02Z</time>
   </trkpt>
   <trkpt lat="51.1266760" lon="5.3812160">
    <ele>62.9</ele>
    <time>2020-06-14T08:29:03Z</time>
   </trkpt>
   <trkpt lat="51.1266490" lon="5.3812320">
    <ele>63.0</ele>
    <time>2020-06-14T08:29:04Z</time>
   </trkpt>
   <trkpt lat="51.1266210" lon="5.3812490">
    <ele>63.1</ele>
    <time>2020-06-14T08:29:05Z</time>
   </trkpt>
   <trkpt lat="51.1266130" lon="5.3812530">
    <ele>63.1</ele>
    <time>2020-06-14T08:29:06Z</time>
   </trkpt>
   <trkpt lat="51.1266010" lon="5.3812670">
    <ele>63.2</ele>
    <time>2020-06-14T08:29:07Z</time>
   </trkpt>
   <trkpt lat="51.1265830" lon="5.3812830">
    <ele>63.2</ele>
    <time>2020-06-14T08:29:08Z</time>
   </trkpt>
   <trkpt lat="51.1265660" lon="5.3812940">
    <ele>63.3</ele>
    <time>2020-06-14T08:29:09Z</time>
   </trkpt>
   <trkpt lat="51.1265560" lon="5.3812970">
    <ele>63.3</ele>
    <time>2020-06-14T08:29:10Z</time>
   </trkpt>
   <trkpt lat="51.1265430" lon="5.3813010">
    <ele>63.4</ele>
    <time>2020-06-14T08:29:11Z</time>
   </trkpt>
   <trkpt lat="51.1265290" lon="5.3813020">
    <ele>63.4</ele>
    <time>2020-06-14T08:29:12Z</time>
   </trkpt>
   <trkpt lat="51.1264950" lon="5.3813070">
    <ele>63.5</ele>
    <time>2020-06-14T08:29:13Z</time>
   </trkpt>
   <trkpt lat="51.1264840" lon="5.3813110">
    <ele>63.5</ele>
    <time>2020-06-14T08:29:14Z</time>
   </trkpt>
   <trkpt lat="51.1264560" lon="5.3813210">
    <ele>63.6</ele>
    <time>2020-06-14T08:29:15Z</time>
   </trkpt>
   <trkpt lat="51.1264480" lon="5.3813240">
    <ele>63.6</ele>
    <time>2020-06-14T08:29:16Z</time>
   </trkpt>
   <trkpt lat="51.1264090" lon="5.3813430">
    <ele>63.6</ele>
    <time>2020-06-14T08:29:17Z</time>
   </trkpt>
   <trkpt lat="51.1263940" lon="5.3813480">
    <ele>63.5</ele>
    <time>2020-06-14T08:29:18Z</time>
   </trkpt>
   <trkpt lat="51.1263650" lon="5.3813440">
    <ele>63.5</ele>
    <time>2020-06-14T08:29:19Z</time>
   </trkpt>
   <trkpt lat="51.1263250" lon="5.3813430">
    <ele>63.4</ele>
    <time>2020-06-14T08:29:20Z</time>
   </trkpt>
   <trkpt lat="51.1262660" lon="5.3813510">
    <ele>63.3</ele>
    <time>2020-06-14T08:29:21Z</time>
   </trkpt>
   <trkpt lat="51.1262060" lon="5.3813710">
    <ele>63.2</ele>
    <time>2020-06-14T08:29:22Z</time>
   </trkpt>
   <trkpt lat="51.1261420" lon="5.3813940">
    <ele>63.1</ele>
    <time>2020-06-14T08:29:23Z</time>
   </trkpt>
   <trkpt lat="51.1260710" lon="5.3814220">
    <ele>63.0</ele>
    <time>2020-06-14T08:29:24Z</time>
   </trkpt>
   <trkpt lat="51.1259950" lon="5.3814460">
    <ele>63.0</ele>
    <time>2020-06-14T08:29:25Z</time>
   </trkpt>
   <trkpt lat="51.1259260" lon="5.3814670">
    <ele>62.9</ele>
    <time>2020-06-14T08:29:26Z</time>
   </trkpt>
   <trkpt lat="51.1258640" lon="5.3814820">
    <ele>62.9</ele>
    <time>2020-06-14T08:29:27Z</time>
   </trkpt>
   <trkpt lat="51.1257990" lon="5.3815020">
    <ele>62.9</ele>
    <time>2020-06-14T08:29:28Z</time>
   </trkpt>
   <trkpt lat="51.1257360" lon="5.3815170">
    <ele>62.9</ele>
    <time>2020-06-14T08:29:29Z</time>
   </trkpt>
   <trkpt lat="51.1256790" lon="5.3815390">
    <ele>62.9</ele>
    <time>2020-06-14T08:29:30Z</time>
   </trkpt>
   <trkpt lat="51.1256220" lon="5.3815550">
    <ele>62.9</ele>
    <time>2020-06-14T08:29:31Z</time>
   </trkpt>
   <trkpt lat="51.1255650" lon="5.3815730">
    <ele>62.9</ele>
    <time>2020-06-14T08:29:32Z</time>
   </trkpt>
   <trkpt lat="51.1255010" lon="5.3815880">
    <ele>62.9</ele>
    <time>2020-06-14T08:29:33Z</time>
   </trkpt>
   <trkpt lat="51.1254290" lon="5.3816080">
    <ele>62.9</ele>
    <time>2020-06-14T08:29:34Z</time>
   </trkpt>
   <trkpt lat="51.1253570" lon="5.3816320">
    <ele>63.0</ele>
    <time>2020-06-14T08:29:35Z</time>
   </trkpt>
   <trkpt lat="51.1252830" lon="5.3816430">
    <ele>63.0</ele>
    <time>2020-06-14T08:29:36Z</time>
   </trkpt>
   <trkpt lat="51.1252160" lon="5.3816600">
    <ele>63.1</ele>
    <time>2020-06-14T08:29:37Z</time>
   </trkpt>
   <trkpt lat="51.1251470" lon="5.3816750">
    <ele>63.2</ele>
    <time>2020-06-14T08:29:38Z</time>
   </trkpt>
   <trkpt lat="51.1250790" lon="5.3816920">
    <ele>63.2</ele>
    <time>2020-06-14T08:29:39Z</time>
   </trkpt>
   <trkpt lat="51.1250130" lon="5.3817100">
    <ele>63.3</ele>
    <time>2020-06-14T08:29:40Z</time>
   </trkpt>
   <trkpt lat="51.1249420" lon="5.3817290">
    <ele>63.4</ele>
    <time>2020-06-14T08:29:41Z</time>
   </trkpt>
   <trkpt lat="51.1248680" lon="5.3817470">
    <ele>63.4</ele>
    <time>2020-06-14T08:29:42Z</time>
   </trkpt>
   <trkpt lat="51.1247990" lon="5.3817550">
    <ele>63.3</ele>
    <time>2020-06-14T08:29:43Z</time>
   </trkpt>
   <trkpt lat="51.1247270" lon="5.3817690">
    <ele>63.3</ele>
    <time>2020-06-14T08:29:44Z</time>
   </trkpt>
   <trkpt lat="51.1246530" lon="5.3817740">
    <ele>63.2</ele>
    <time>2020-06-14T08:29:45Z</time>
   </trkpt>
   <trkpt lat="51.1245830" lon="5.3817800">
    <ele>63.2</ele>
    <time>2020-06-14T08:29:46Z</time>
   </trkpt>
   <trkpt lat="51.1245180" lon="5.3817860">
    <ele>63.2</ele>
    <time>2020-06-14T08:29:47Z</time>
   </trkpt>
   <trkpt lat="51.1244550" lon="5.3817880">
    <ele>63.1</ele>
    <time>2020-06-14T08:29:48Z</time>
   </trkpt>
   <trkpt lat="51.1243910" lon="5.3818040">
    <ele>63.1</ele>
    <time>2020-06-14T08:29:49Z</time>
   </trkpt>
   <trkpt lat="51.1243280" lon="5.3818130">
    <ele>63.1</ele>
    <time>2020-06-14T08:29:50Z</time>
   </trkpt>
   <trkpt lat="51.1242570" lon="5.3818220">
    <ele>63.0</ele>
    <time>2020-06-14T08:29:51Z</time>
   </trkpt>
   <trkpt lat="51.1241900" lon="5.3818310">
    <ele>63.0</ele>
    <time>2020-06-14T08:29:52Z</time>
   </trkpt>
   <trkpt lat="51.1241220" lon="5.3818400">
    <ele>63.0</ele>
    <time>2020-06-14T08:29:53Z</time>
   </trkpt>
   <trkpt lat="51.1240390" lon="5.3818500">
    <ele>63.0</ele>
    <time>2020-06-14T08:29:54Z</time>
   </trkpt>
   <trkpt lat="51.1239620" lon="5.3818480">
    <ele>63.0</ele>
    <time>2020-06-14T08:29:55Z</time>
   </trkpt>
   <trkpt lat="51.1238940" lon="5.3818380">
    <ele>62.9</ele>
    <time>2020-06-14T08:29:56Z</time>
   </trkpt>
   <trkpt lat="51.1238190" lon="5.3818100">
    <ele>62.9</ele>
    <time>2020-06-14T08:29:57Z</time>
   </trkpt>
   <trkpt lat="51.1237380" lon="5.3817640">
    <ele>62.8</ele>
    <time>2020-06-14T08:29:58Z</time>
   </trkpt>
   <trkpt lat="51.1236630" lon="5.3816940">
    <ele>62.7</ele>
    <time>2020-06-14T08:29:59Z</time>
   </trkpt>
   <trkpt lat="51.1235970" lon="5.3816120">
    <ele>62.7</ele>
    <time>2020-06-14T08:30:00Z</time>
   </trkpt>
   <trkpt lat="51.1235340" lon="5.3815310">
    <ele>62.6</ele>
    <time>2020-06-14T08:30:01Z</time>
   </trkpt>
   <trkpt lat="51.1234750" lon="5.3814450">
    <ele>62.6</ele>
    <time>2020-06-14T08:30:02Z</time>
   </trkpt>
   <trkpt lat="51.1234180" lon="5.3813690">
    <ele>62.6</ele>
    <time>2020-06-14T08:30:03Z</time>
   </trkpt>
   <trkpt lat="51.1233670" lon="5.3812960">
    <ele>62.6</ele>
    <time>2020-06-14T08:30:04Z</time>
   </trkpt>
   <trkpt lat="51.1233180" lon="5.3812260">
    <ele>62.7</ele>
    <time>2020-06-14T08:30:05Z</time>
   </trkpt>
   <trkpt lat="51.1232720" lon="5.3811520">
    <ele>62.7</ele>
    <time>2020-06-14T08:30:06Z</time>
   </trkpt>
   <trkpt lat="51.1232270" lon="5.3810900">
    <ele>62.7</ele>
    <time>2020-06-14T08:30:07Z</time>
   </trkpt>
   <trkpt lat="51.1231770" lon="5.3810460">
    <ele>62.7</ele>
    <time>2020-06-14T08:30:08Z</time>
   </trkpt>
   <trkpt lat="51.1231190" lon="5.3810550">
    <ele>62.7</ele>
    <time>2020-06-14T08:30:09Z</time>
   </trkpt>
   <trkpt lat="51.1230680" lon="5.3811110">
    <ele>62.6</ele>
    <time>2020-06-14T08:30:10Z</time>
   </trkpt>
   <trkpt lat="51.1230340" lon="5.3811850">
    <ele>62.6</ele>
    <time>2020-06-14T08:30:11Z</time>
   </trkpt>
   <trkpt lat="51.1229970" lon="5.3812590">
    <ele>62.6</ele>
    <time>2020-06-14T08:30:12Z</time>
   </trkpt>
   <trkpt lat="51.1229620" lon="5.3813330">
    <ele>62.6</ele>
    <time>2020-06-14T08:30:13Z</time>
   </trkpt>
   <trkpt lat="51.1229280" lon="5.3814170">
    <ele>62.6</ele>
    <time>2020-06-14T08:30:14Z</time>
   </trkpt>
   <trkpt lat="51.1229040" lon="5.3814970">
    <ele>62.6</ele>
    <time>2020-06-14T08:30:15Z</time>
   </trkpt>
   <trkpt lat="51.1228690" lon="5.3815720">
    <ele>62.6</ele>
    <time>2020-06-14T08:30:16Z</time>
   </trkpt>
   <trkpt lat="51.1228290" lon="5.3816280">
    <ele>62.7</ele>
    <time>2020-06-14T08:30:17Z</time>
   </trkpt>
   <trkpt lat="51.1227930" lon="5.3816840">
    <ele>62.7</ele>
    <time>2020-06-14T08:30:18Z</time>
   </trkpt>
   <trkpt lat="51.1227360" lon="5.3817350">
    <ele>62.7</ele>
    <time>2020-06-14T08:30:19Z</time>
   </trkpt>
   <trkpt lat="51.1226680" lon="5.3817420">
    <ele>62.8</ele>
    <time>2020-06-14T08:30:20Z</time>
   </trkpt>
   <trkpt lat="51.1225980" lon="5.3817300">
    <ele>63.0</ele>
    <time>2020-06-14T08:30:21Z</time>
   </trkpt>
   <trkpt lat="51.1225210" lon="5.3817070">
    <ele>63.1</ele>
    <time>2020-06-14T08:30:22Z</time>
   </trkpt>
   <trkpt lat="51.1224480" lon="5.3816770">
    <ele>63.3</ele>
    <time>2020-06-14T08:30:23Z</time>
   </trkpt>
   <trkpt lat="51.1223710" lon="5.3816440">
    <ele>63.3</ele>
    <time>2020-06-14T08:30:24Z</time>
   </trkpt>
   <trkpt lat="51.1223040" lon="5.3816140">
    <ele>63.4</ele>
    <time>2020-06-14T08:30:25Z</time>
   </trkpt>
   <trkpt lat="51.1222410" lon="5.3815830">
    <ele>63.4</ele>
    <time>2020-06-14T08:30:26Z</time>
   </trkpt>
   <trkpt lat="51.1221710" lon="5.3815440">
    <ele>63.4</ele>
    <time>2020-06-14T08:30:27Z</time>
   </trkpt>
   <trkpt lat="51.1221050" lon="5.3815020">
    <ele>63.5</ele>
    <time>2020-06-14T08:30:28Z</time>
   </trkpt>
   <trkpt lat="51.1220400" lon="5.3814640">
    <ele>63.5</ele>
    <time>2020-06-14T08:30:29Z</time>
   </trkpt>
   <trkpt lat="51.1219830" lon="5.3814300">
    <ele>63.5</ele>
    <time>2020-06-14T08:30:30Z</time>
   </trkpt>
   <trkpt lat="51.1219190" lon="5.3813910">
    <ele>63.5</ele>
    <time>2020-06-14T08:30:31Z</time>
   </trkpt>
   <trkpt lat="51.1218510" lon="5.3813430">
    <ele>63.5</ele>
    <time>2020-06-14T08:30:32Z</time>
   </trkpt>
   <trkpt lat="51.1217770" lon="5.3812970">
    <ele>63.5</ele>
    <time>2020-06-14T08:30:33Z</time>
   </trkpt>
   <trkpt lat="51.1217090" lon="5.3812390">
    <ele>63.5</ele>
    <time>2020-06-14T08:30:34Z</time>
   </trkpt>
   <trkpt lat="51.1216450" lon="5.3812280">
    <ele>63.5</ele>
    <time>2020-06-14T08:30:35Z</time>
   </trkpt>
   <trkpt lat="51.1215790" lon="5.3812200">
    <ele>63.5</ele>
    <time>2020-06-14T08:30:36Z</time>
   </trkpt>
   <trkpt lat="51.1215130" lon="5.3812250">
    <ele>63.4</ele>
    <time>2020-06-14T08:30:37Z</time>
   </trkpt>
   <trkpt lat="51.1214360" lon="5.3812410">
    <ele>63.4</ele>
    <time>2020-06-14T08:30:38Z</time>
   </trkpt>
   <trkpt lat="51.1213590" lon="5.3812510">
    <ele>63.4</ele>
    <time>2020-06-14T08:30:39Z</time>
   </trkpt>
   <trkpt lat="51.1212810" lon="5.3812860">
    <ele>63.4</ele>
    <time>2020-06-14T08:30:40Z</time>
   </trkpt>
   <trkpt lat="51.1212020" lon="5.3812970">
    <ele>63.5</ele>
    <time>2020-06-14T08:30:41Z</time>
   </trkpt>
   <trkpt lat="51.1211260" lon="5.3813070">
    <ele>63.5</ele>
    <time>2020-06-14T08:30:42Z</time>
   </trkpt>
   <trkpt lat="51.1210560" lon="5.3813140">
    <ele>63.5</ele>
    <time>2020-06-14T08:30:43Z</time>
   </trkpt>
   <trkpt lat="51.1209930" lon="5.3813210">
    <ele>63.5</ele>
    <time>2020-06-14T08:30:44Z</time>
   </trkpt>
   <trkpt lat="51.1209270" lon="5.3813200">
    <ele>63.5</ele>
    <time>2020-06-14T08:30:45Z</time>
   </trkpt>
   <trkpt lat="51.1208640" lon="5.3813280">
    <ele>63.5</ele>
    <time>2020-06-14T08:30:46Z</time>
   </trkpt>
   <trkpt lat="51.1207960" lon="5.3813380">
    <ele>63.5</ele>
    <time>2020-06-14T08:30:47Z</time>
   </trkpt>
   <trkpt lat="51.1207270" lon="5.3813450">
    <ele>63.4</ele>
    <time>2020-06-14T08:30:48Z</time>
   </trkpt>
   <trkpt lat="51.1206600" lon="5.3813550">
    <ele>63.4</ele>
    <time>2020-06-14T08:30:49Z</time>
   </trkpt>
   <trkpt lat="51.1205880" lon="5.3813650">
    <ele>63.4</ele>
    <time>2020-06-14T08:30:50Z</time>
   </trkpt>
   <trkpt lat="51.1205140" lon="5.3813710">
    <ele>63.5</ele>
    <time>2020-06-14T08:30:51Z</time>
   </trkpt>
   <trkpt lat="51.1204400" lon="5.3813890">
    <ele>63.5</ele>
    <time>2020-06-14T08:30:52Z</time>
   </trkpt>
   <trkpt lat="51.1203680" lon="5.3814010">
    <ele>63.5</ele>
    <time>2020-06-14T08:30:53Z</time>
   </trkpt>
   <trkpt lat="51.1202960" lon="5.3814200">
    <ele>63.5</ele>
    <time>2020-06-14T08:30:54Z</time>
   </trkpt>
   <trkpt lat="51.1202280" lon="5.3814330">
    <ele>63.5</ele>
    <time>2020-06-14T08:30:55Z</time>
   </trkpt>
   <trkpt lat="51.1201560" lon="5.3814210">
    <ele>63.5</ele>
    <time>2020-06-14T08:30:56Z</time>
   </trkpt>
   <trkpt lat="51.1200830" lon="5.3813860">
    <ele>63.5</ele>
    <time>2020-06-14T08:30:57Z</time>
   </trkpt>
   <trkpt lat="51.1200220" lon="5.3813220">
    <ele>63.4</ele>
    <time>2020-06-14T08:30:58Z</time>
   </trkpt>
   <trkpt lat="51.1199780" lon="5.3812160">
    <ele>63.4</ele>
    <time>2020-06-14T08:30:59Z</time>
   </trkpt>
   <trkpt lat="51.1199300" lon="5.3811080">
    <ele>63.4</ele>
    <time>2020-06-14T08:31:00Z</time>
   </trkpt>
   <trkpt lat="51.1198760" lon="5.3810130">
    <ele>63.4</ele>
    <time>2020-06-14T08:31:01Z</time>
   </trkpt>
   <trkpt lat="51.1198190" lon="5.3809220">
    <ele>63.5</ele>
    <time>2020-06-14T08:31:02Z</time>
   </trkpt>
   <trkpt lat="51.1197630" lon="5.3808290">
    <ele>63.5</ele>
    <time>2020-06-14T08:31:03Z</time>
   </trkpt>
   <trkpt lat="51.1197080" lon="5.3807410">
    <ele>63.5</ele>
    <time>2020-06-14T08:31:04Z</time>
   </trkpt>
   <trkpt lat="51.1196570" lon="5.3806410">
    <ele>63.6</ele>
    <time>2020-06-14T08:31:05Z</time>
   </trkpt>
   <trkpt lat="51.1196090" lon="5.3805540">
    <ele>63.6</ele>
    <time>2020-06-14T08:31:06Z</time>
   </trkpt>
   <trkpt lat="51.1195600" lon="5.3804730">
    <ele>63.6</ele>
    <time>2020-06-14T08:31:07Z</time>
   </trkpt>
   <trkpt lat="51.1195190" lon="5.3803950">
    <ele>63.7</ele>
    <time>2020-06-14T08:31:08Z</time>
   </trkpt>
   <trkpt lat="51.1194830" lon="5.3803270">
    <ele>63.7</ele>
    <time>2020-06-14T08:31:09Z</time>
   </trkpt>
   <trkpt lat="51.1194480" lon="5.3802480">
    <ele>63.8</ele>
    <time>2020-06-14T08:31:10Z</time>
   </trkpt>
   <trkpt lat="51.1194100" lon="5.3801690">
    <ele>63.8</ele>
    <time>2020-06-14T08:31:11Z</time>
   </trkpt>
   <trkpt lat="51.1193680" lon="5.3800970">
    <ele>63.8</ele>
    <time>2020-06-14T08:31:12Z</time>
   </trkpt>
   <trkpt lat="51.1193270" lon="5.3800250">
    <ele>63.8</ele>
    <time>2020-06-14T08:31:13Z</time>
   </trkpt>
   <trkpt lat="51.1192820" lon="5.3799500">
    <ele>63.8</ele>
    <time>2020-06-14T08:31:14Z</time>
   </trkpt>
   <trkpt lat="51.1192390" lon="5.3798780">
    <ele>63.8</ele>
    <time>2020-06-14T08:31:15Z</time>
   </trkpt>
   <trkpt lat="51.1192010" lon="5.3798140">
    <ele>63.9</ele>
    <time>2020-06-14T08:31:16Z</time>
   </trkpt>
   <trkpt lat="51.1191670" lon="5.3797490">
    <ele>63.9</ele>
    <time>2020-06-14T08:31:17Z</time>
   </trkpt>
   <trkpt lat="51.1191330" lon="5.3796890">
    <ele>63.9</ele>
    <time>2020-06-14T08:31:18Z</time>
   </trkpt>
   <trkpt lat="51.1190990" lon="5.3796390">
    <ele>64.0</ele>
    <time>2020-06-14T08:31:19Z</time>
   </trkpt>
   <trkpt lat="51.1190710" lon="5.3795900">
    <ele>64.0</ele>
    <time>2020-06-14T08:31:20Z</time>
   </trkpt>
   <trkpt lat="51.1190450" lon="5.3795440">
    <ele>64.0</ele>
    <time>2020-06-14T08:31:21Z</time>
   </trkpt>
   <trkpt lat="51.1190120" lon="5.3795170">
    <ele>64.0</ele>
    <time>2020-06-14T08:31:22Z</time>
   </trkpt>
   <trkpt lat="51.1189720" lon="5.3795580">
    <ele>64.0</ele>
    <time>2020-06-14T08:31:23Z</time>
   </trkpt>
   <trkpt lat="51.1189400" lon="5.3796360">
    <ele>64.0</ele>
    <time>2020-06-14T08:31:24Z</time>
   </trkpt>
   <trkpt lat="51.1189100" lon="5.3797160">
    <ele>64.0</ele>
    <time>2020-06-14T08:31:25Z</time>
   </trkpt>
   <trkpt lat="51.1188790" lon="5.3798030">
    <ele>64.1</ele>
    <time>2020-06-14T08:31:26Z</time>
   </trkpt>
   <trkpt lat="51.1188350" lon="5.3798710">
    <ele>64.1</ele>
    <time>2020-06-14T08:31:27Z</time>
   </trkpt>
   <trkpt lat="51.1187860" lon="5.3799380">
    <ele>64.2</ele>
    <time>2020-06-14T08:31:28Z</time>
   </trkpt>
   <trkpt lat="51.1187250" lon="5.3799940">
    <ele>64.3</ele>
    <time>2020-06-14T08:31:29Z</time>
   </trkpt>
   <trkpt lat="51.1186550" lon="5.3800400">
    <ele>64.4</ele>
    <time>2020-06-14T08:31:30Z</time>
   </trkpt>
   <trkpt lat="51.1185870" lon="5.3800930">
    <ele>64.5</ele>
    <time>2020-06-14T08:31:31Z</time>
   </trkpt>
   <trkpt lat="51.1185170" lon="5.3801300">
    <ele>64.5</ele>
    <time>2020-06-14T08:31:32Z</time>
   </trkpt>
   <trkpt lat="51.1184490" lon="5.3801660">
    <ele>64.6</ele>
    <time>2020-06-14T08:31:33Z</time>
   </trkpt>
   <trkpt lat="51.1183800" lon="5.3801870">
    <ele>64.5</ele>
    <time>2020-06-14T08:31:34Z</time>
   </trkpt>
   <trkpt lat="51.1183140" lon="5.3802160">
    <ele>64.5</ele>
    <time>2020-06-14T08:31:35Z</time>
   </trkpt>
   <trkpt lat="51.1182450" lon="5.3802460">
    <ele>64.5</ele>
    <time>2020-06-14T08:31:36Z</time>
   </trkpt>
   <trkpt lat="51.1181720" lon="5.3802760">
    <ele>64.4</ele>
    <time>2020-06-14T08:31:37Z</time>
   </trkpt>
   <trkpt lat="51.1180910" lon="5.3803090">
    <ele>64.4</ele>
    <time>2020-06-14T08:31:38Z</time>
   </trkpt>
   <trkpt lat="51.1180090" lon="5.3803440">
    <ele>64.4</ele>
    <time>2020-06-14T08:31:39Z</time>
   </trkpt>
   <trkpt lat="51.1179250" lon="5.3803800">
    <ele>64.4</ele>
    <time>2020-06-14T08:31:40Z</time>
   </trkpt>
   <trkpt lat="51.1178470" lon="5.3804270">
    <ele>64.3</ele>
    <time>2020-06-14T08:31:41Z</time>
   </trkpt>
   <trkpt lat="51.1177720" lon="5.3804700">
    <ele>64.3</ele>
    <time>2020-06-14T08:31:42Z</time>
   </trkpt>
   <trkpt lat="51.1177040" lon="5.3805100">
    <ele>64.3</ele>
    <time>2020-06-14T08:31:43Z</time>
   </trkpt>
   <trkpt lat="51.1176350" lon="5.3805450">
    <ele>64.2</ele>
    <time>2020-06-14T08:31:44Z</time>
   </trkpt>
   <trkpt lat="51.1175680" lon="5.3805740">
    <ele>64.2</ele>
    <time>2020-06-14T08:31:45Z</time>
   </trkpt>
   <trkpt lat="51.1175010" lon="5.3806090">
    <ele>64.3</ele>
    <time>2020-06-14T08:31:46Z</time>
   </trkpt>
   <trkpt lat="51.1174340" lon="5.3806400">
    <ele>64.3</ele>
    <time>2020-06-14T08:31:47Z</time>
   </trkpt>
   <trkpt lat="51.1173610" lon="5.3806610">
    <ele>64.3</ele>
    <time>2020-06-14T08:31:48Z</time>
   </trkpt>
   <trkpt lat="51.1172940" lon="5.3806940">
    <ele>64.4</ele>
    <time>2020-06-14T08:31:49Z</time>
   </trkpt>
   <trkpt lat="51.1172330" lon="5.3807290">
    <ele>64.4</ele>
    <time>2020-06-14T08:31:50Z</time>
   </trkpt>
   <trkpt lat="51.1171690" lon="5.3807660">
    <ele>64.4</ele>
    <time>2020-06-14T08:31:51Z</time>
   </trkpt>
   <trkpt lat="51.1171020" lon="5.3808080">
    <ele>64.4</ele>
    <time>2020-06-14T08:31:52Z</time>
   </trkpt>
   <trkpt lat="51.1170400" lon="5.3808430">
    <ele>64.4</ele>
    <time>2020-06-14T08:31:53Z</time>
   </trkpt>
   <trkpt lat="51.1169800" lon="5.3808890">
    <ele>64.3</ele>
    <time>2020-06-14T08:31:54Z</time>
   </trkpt>
   <trkpt lat="51.1169200" lon="5.3809510">
    <ele>64.3</ele>
    <time>2020-06-14T08:31:55Z</time>
   </trkpt>
   <trkpt lat="51.1168650" lon="5.3810110">
    <ele>64.4</ele>
    <time>2020-06-14T08:31:56Z</time>
   </trkpt>
   <trkpt lat="51.1168010" lon="5.3810990">
    <ele>64.4</ele>
    <time>2020-06-14T08:31:57Z</time>
   </trkpt>
   <trkpt lat="51.1167440" lon="5.3811780">
    <ele>64.5</ele>
    <time>2020-06-14T08:31:58Z</time>
   </trkpt>
   <trkpt lat="51.1166970" lon="5.3812400">
    <ele>64.5</ele>
    <time>2020-06-14T08:31:59Z</time>
   </trkpt>
   <trkpt lat="51.1166430" lon="5.3812990">
    <ele>64.6</ele>
    <time>2020-06-14T08:32:00Z</time>
   </trkpt>
   <trkpt lat="51.1165880" lon="5.3813500">
    <ele>64.7</ele>
    <time>2020-06-14T08:32:01Z</time>
   </trkpt>
   <trkpt lat="51.1165260" lon="5.3814060">
    <ele>64.7</ele>
    <time>2020-06-14T08:32:02Z</time>
   </trkpt>
   <trkpt lat="51.1164570" lon="5.3814610">
    <ele>64.7</ele>
    <time>2020-06-14T08:32:03Z</time>
   </trkpt>
   <trkpt lat="51.1163980" lon="5.3815170">
    <ele>64.7</ele>
    <time>2020-06-14T08:32:04Z</time>
   </trkpt>
   <trkpt lat="51.1163430" lon="5.3815610">
    <ele>64.8</ele>
    <time>2020-06-14T08:32:05Z</time>
   </trkpt>
   <trkpt lat="51.1162860" lon="5.3815960">
    <ele>64.8</ele>
    <time>2020-06-14T08:32:06Z</time>
   </trkpt>
   <trkpt lat="51.1162340" lon="5.3816360">
    <ele>64.8</ele>
    <time>2020-06-14T08:32:07Z</time>
   </trkpt>
   <trkpt lat="51.1161810" lon="5.3816700">
    <ele>64.8</ele>
    <time>2020-06-14T08:32:08Z</time>
   </trkpt>
   <trkpt lat="51.1161300" lon="5.3817020">
    <ele>64.8</ele>
    <time>2020-06-14T08:32:09Z</time>
   </trkpt>
   <trkpt lat="51.1160890" lon="5.3817460">
    <ele>64.8</ele>
    <time>2020-06-14T08:32:10Z</time>
   </trkpt>
   <trkpt lat="51.1160430" lon="5.3818030">
    <ele>64.8</ele>
    <time>2020-06-14T08:32:11Z</time>
   </trkpt>
   <trkpt lat="51.1159450" lon="5.3817520">
    <ele>64.8</ele>
    <time>2020-06-14T08:32:12Z</time>
   </trkpt>
   <trkpt lat="51.1158810" lon="5.3817890">
    <ele>64.8</ele>
    <time>2020-06-14T08:32:13Z</time>
   </trkpt>
   <trkpt lat="51.1158160" lon="5.3818180">
    <ele>64.8</ele>
    <time>2020-06-14T08:32:14Z</time>
   </trkpt>
   <trkpt lat="51.1157480" lon="5.3818460">
    <ele>64.8</ele>
    <time>2020-06-14T08:32:15Z</time>
   </trkpt>
   <trkpt lat="51.1156770" lon="5.3818910">
    <ele>64.8</ele>
    <time>2020-06-14T08:32:16Z</time>
   </trkpt>
   <trkpt lat="51.1156030" lon="5.3819130">
    <ele>64.8</ele>
    <time>2020-06-14T08:32:17Z</time>
   </trkpt>
   <trkpt lat="51.1155320" lon="5.3819320">
    <ele>64.8</ele>
    <time>2020-06-14T08:32:18Z</time>
   </trkpt>
   <trkpt lat="51.1154590" lon="5.3819590">
    <ele>64.8</ele>
    <time>2020-06-14T08:32:19Z</time>
   </trkpt>
   <trkpt lat="51.1153910" lon="5.3819750">
    <ele>64.8</ele>
    <time>2020-06-14T08:32:20Z</time>
   </trkpt>
   <trkpt lat="51.1153280" lon="5.3819940">
    <ele>64.8</ele>
    <time>2020-06-14T08:32:21Z</time>
   </trkpt>
   <trkpt lat="51.1152720" lon="5.3820120">
    <ele>64.7</ele>
    <time>2020-06-14T08:32:22Z</time>
   </trkpt>
   <trkpt lat="51.1152080" lon="5.3820420">
    <ele>64.7</ele>
    <time>2020-06-14T08:32:23Z</time>
   </trkpt>
   <trkpt lat="51.1151360" lon="5.3820840">
    <ele>64.7</ele>
    <time>2020-06-14T08:32:24Z</time>
   </trkpt>
   <trkpt lat="51.1150670" lon="5.3820950">
    <ele>64.7</ele>
    <time>2020-06-14T08:32:25Z</time>
   </trkpt>
   <trkpt lat="51.1150000" lon="5.3821080">
    <ele>64.7</ele>
    <time>2020-06-14T08:32:26Z</time>
   </trkpt>
   <trkpt lat="51.1149310" lon="5.3821240">
    <ele>64.7</ele>
    <time>2020-06-14T08:32:27Z</time>
   </trkpt>
   <trkpt lat="51.1148570" lon="5.3821410">
    <ele>64.6</ele>
    <time>2020-06-14T08:32:28Z</time>
   </trkpt>
   <trkpt lat="51.1147850" lon="5.3821670">
    <ele>64.6</ele>
    <time>2020-06-14T08:32:29Z</time>
   </trkpt>
   <trkpt lat="51.1147120" lon="5.3821850">
    <ele>64.6</ele>
    <time>2020-06-14T08:32:30Z</time>
   </trkpt>
   <trkpt lat="51.1146340" lon="5.3821910">
    <ele>64.6</ele>
    <time>2020-06-14T08:32:31Z</time>
   </trkpt>
   <trkpt lat="51.1145520" lon="5.3822090">
    <ele>64.7</ele>
    <time>2020-06-14T08:32:32Z</time>
   </trkpt>
   <trkpt lat="51.1144640" lon="5.3822320">
    <ele>64.7</ele>
    <time>2020-06-14T08:32:33Z</time>
   </trkpt>
   <trkpt lat="51.1143780" lon="5.3822600">
    <ele>64.5</ele>
    <time>2020-06-14T08:32:34Z</time>
   </trkpt>
   <trkpt lat="51.1142960" lon="5.3823030">
    <ele>64.5</ele>
    <time>2020-06-14T08:32:35Z</time>
   </trkpt>
   <trkpt lat="51.1142220" lon="5.3823440">
    <ele>64.5</ele>
    <time>2020-06-14T08:32:36Z</time>
   </trkpt>
   <trkpt lat="51.1141500" lon="5.3823900">
    <ele>64.5</ele>
    <time>2020-06-14T08:32:37Z</time>
   </trkpt>
   <trkpt lat="51.1140670" lon="5.3824460">
    <ele>64.5</ele>
    <time>2020-06-14T08:32:38Z</time>
   </trkpt>
   <trkpt lat="51.1139830" lon="5.3824920">
    <ele>64.5</ele>
    <time>2020-06-14T08:32:39Z</time>
   </trkpt>
   <trkpt lat="51.1139080" lon="5.3825420">
    <ele>64.6</ele>
    <time>2020-06-14T08:32:40Z</time>
   </trkpt>
   <trkpt lat="51.1138320" lon="5.3826010">
    <ele>64.6</ele>
    <time>2020-06-14T08:32:41Z</time>
   </trkpt>
   <trkpt lat="51.1137510" lon="5.3826540">
    <ele>64.6</ele>
    <time>2020-06-14T08:32:42Z</time>
   </trkpt>
   <trkpt lat="51.1136750" lon="5.3827050">
    <ele>64.6</ele>
    <time>2020-06-14T08:32:43Z</time>
   </trkpt>
   <trkpt lat="51.1136080" lon="5.3827570">
    <ele>64.7</ele>
    <time>2020-06-14T08:32:44Z</time>
   </trkpt>
   <trkpt lat="51.1135400" lon="5.3827990">
    <ele>64.8</ele>
    <time>2020-06-14T08:32:45Z</time>
   </trkpt>
   <trkpt lat="51.1134720" lon="5.3828480">
    <ele>64.8</ele>
    <time>2020-06-14T08:32:46Z</time>
   </trkpt>
   <trkpt lat="51.1134050" lon="5.3829020">
    <ele>64.9</ele>
    <time>2020-06-14T08:32:47Z</time>
   </trkpt>
   <trkpt lat="51.1133440" lon="5.3829430">
    <ele>65.0</ele>
    <time>2020-06-14T08:32:48Z</time>
   </trkpt>
   <trkpt lat="51.1132910" lon="5.3829790">
    <ele>65.0</ele>
    <time>2020-06-14T08:32:49Z</time>
   </trkpt>
   <trkpt lat="51.1132430" lon="5.3830130">
    <ele>65.1</ele>
    <time>2020-06-14T08:32:50Z</time>
   </trkpt>
   <trkpt lat="51.1131990" lon="5.3830450">
    <ele>65.2</ele>
    <time>2020-06-14T08:32:51Z</time>
   </trkpt>
   <trkpt lat="51.1131600" lon="5.3830670">
    <ele>65.3</ele>
    <time>2020-06-14T08:32:52Z</time>
   </trkpt>
   <trkpt lat="51.1131250" lon="5.3830920">
    <ele>65.3</ele>
    <time>2020-06-14T08:32:53Z</time>
   </trkpt>
   <trkpt lat="51.1130880" lon="5.3831290">
    <ele>65.4</ele>
    <time>2020-06-14T08:32:54Z</time>
   </trkpt>
   <trkpt lat="51.1130590" lon="5.3831560">
    <ele>65.5</ele>
    <time>2020-06-14T08:32:55Z</time>
   </trkpt>
   <trkpt lat="51.1130300" lon="5.3831920">
    <ele>65.6</ele>
    <time>2020-06-14T08:32:56Z</time>
   </trkpt>
   <trkpt lat="51.1130220" lon="5.3832020">
    <ele>65.6</ele>
    <time>2020-06-14T08:32:57Z</time>
   </trkpt>
   <trkpt lat="51.1129970" lon="5.3832490">
    <ele>65.7</ele>
    <time>2020-06-14T08:32:58Z</time>
   </trkpt>
   <trkpt lat="51.1129870" lon="5.3832670">
    <ele>65.9</ele>
    <time>2020-06-14T08:32:59Z</time>
   </trkpt>
   <trkpt lat="51.1129680" lon="5.3833070">
    <ele>65.8</ele>
    <time>2020-06-14T08:33:00Z</time>
   </trkpt>
   <trkpt lat="51.1129540" lon="5.3833480">
    <ele>65.8</ele>
    <time>2020-06-14T08:33:01Z</time>
   </trkpt>
   <trkpt lat="51.1129520" lon="5.3834020">
    <ele>65.7</ele>
    <time>2020-06-14T08:33:02Z</time>
   </trkpt>
   <trkpt lat="51.1129500" lon="5.3834610">
    <ele>65.6</ele>
    <time>2020-06-14T08:33:03Z</time>
   </trkpt>
   <trkpt lat="51.1129500" lon="5.3835210">
    <ele>65.6</ele>
    <time>2020-06-14T08:33:04Z</time>
   </trkpt>
   <trkpt lat="51.1129570" lon="5.3835830">
    <ele>65.6</ele>
    <time>2020-06-14T08:33:05Z</time>
   </trkpt>
   <trkpt lat="51.1129650" lon="5.3836500">
    <ele>65.5</ele>
    <time>2020-06-14T08:33:06Z</time>
   </trkpt>
   <trkpt lat="51.1129720" lon="5.3837160">
    <ele>65.5</ele>
    <time>2020-06-14T08:33:07Z</time>
   </trkpt>
   <trkpt lat="51.1129880" lon="5.3837870">
    <ele>65.5</ele>
    <time>2020-06-14T08:33:08Z</time>
   </trkpt>
   <trkpt lat="51.1130080" lon="5.3838630">
    <ele>65.5</ele>
    <time>2020-06-14T08:33:09Z</time>
   </trkpt>
   <trkpt lat="51.1130390" lon="5.3839510">
    <ele>65.4</ele>
    <time>2020-06-14T08:33:10Z</time>
   </trkpt>
   <trkpt lat="51.1130620" lon="5.3840530">
    <ele>65.4</ele>
    <time>2020-06-14T08:33:11Z</time>
   </trkpt>
   <trkpt lat="51.1131670" lon="5.3841090">
    <ele>65.3</ele>
    <time>2020-06-14T08:33:12Z</time>
   </trkpt>
   <trkpt lat="51.1131970" lon="5.3842270">
    <ele>65.2</ele>
    <time>2020-06-14T08:33:13Z</time>
   </trkpt>
   <trkpt lat="51.1132520" lon="5.3843350">
    <ele>65.1</ele>
    <time>2020-06-14T08:33:14Z</time>
   </trkpt>
   <trkpt lat="51.1132900" lon="5.3844620">
    <ele>65.1</ele>
    <time>2020-06-14T08:33:15Z</time>
   </trkpt>
   <trkpt lat="51.1133320" lon="5.3845890">
    <ele>65.0</ele>
    <time>2020-06-14T08:33:16Z</time>
   </trkpt>
   <trkpt lat="51.1133690" lon="5.3847050">
    <ele>65.0</ele>
    <time>2020-06-14T08:33:17Z</time>
   </trkpt>
   <trkpt lat="51.1134350" lon="5.3848210">
    <ele>64.9</ele>
    <time>2020-06-14T08:33:18Z</time>
   </trkpt>
   <trkpt lat="51.1134810" lon="5.3849320">
    <ele>64.9</ele>
    <time>2020-06-14T08:33:19Z</time>
   </trkpt>
   <trkpt lat="51.1135210" lon="5.3850410">
    <ele>64.9</ele>
    <time>2020-06-14T08:33:20Z</time>
   </trkpt>
   <trkpt lat="51.1135630" lon="5.3851550">
    <ele>64.8</ele>
    <time>2020-06-14T08:33:21Z</time>
   </trkpt>
   <trkpt lat="51.1136040" lon="5.3852720">
    <ele>64.8</ele>
    <time>2020-06-14T08:33:22Z</time>
   </trkpt>
   <trkpt lat="51.1136420" lon="5.3853930">
    <ele>64.8</ele>
    <time>2020-06-14T08:33:23Z</time>
   </trkpt>
   <trkpt lat="51.1136880" lon="5.3855300">
    <ele>64.8</ele>
    <time>2020-06-14T08:33:24Z</time>
   </trkpt>
   <trkpt lat="51.1137260" lon="5.3856510">
    <ele>64.8</ele>
    <time>2020-06-14T08:33:25Z</time>
   </trkpt>
   <trkpt lat="51.1137680" lon="5.3857820">
    <ele>64.7</ele>
    <time>2020-06-14T08:33:26Z</time>
   </trkpt>
   <trkpt lat="51.1138050" lon="5.3859000">
    <ele>64.7</ele>
    <time>2020-06-14T08:33:27Z</time>
   </trkpt>
   <trkpt lat="51.1138400" lon="5.3860170">
    <ele>64.6</ele>
    <time>2020-06-14T08:33:28Z</time>
   </trkpt>
   <trkpt lat="51.1138820" lon="5.3861630">
    <ele>64.5</ele>
    <time>2020-06-14T08:33:29Z</time>
   </trkpt>
   <trkpt lat="51.1139220" lon="5.3863000">
    <ele>64.5</ele>
    <time>2020-06-14T08:33:30Z</time>
   </trkpt>
   <trkpt lat="51.1139600" lon="5.3864310">
    <ele>64.5</ele>
    <time>2020-06-14T08:33:31Z</time>
   </trkpt>
   <trkpt lat="51.1139970" lon="5.3865540">
    <ele>64.6</ele>
    <time>2020-06-14T08:33:32Z</time>
   </trkpt>
   <trkpt lat="51.1140390" lon="5.3866820">
    <ele>64.5</ele>
    <time>2020-06-14T08:33:33Z</time>
   </trkpt>
   <trkpt lat="51.1140770" lon="5.3868010">
    <ele>64.5</ele>
    <time>2020-06-14T08:33:34Z</time>
   </trkpt>
   <trkpt lat="51.1141140" lon="5.3869230">
    <ele>64.5</ele>
    <time>2020-06-14T08:33:35Z</time>
   </trkpt>
   <trkpt lat="51.1141500" lon="5.3870460">
    <ele>64.4</ele>
    <time>2020-06-14T08:33:36Z</time>
   </trkpt>
   <trkpt lat="51.1141860" lon="5.3871640">
    <ele>64.4</ele>
    <time>2020-06-14T08:33:37Z</time>
   </trkpt>
   <trkpt lat="51.1142230" lon="5.3872840">
    <ele>64.3</ele>
    <time>2020-06-14T08:33:38Z</time>
   </trkpt>
   <trkpt lat="51.1142570" lon="5.3874010">
    <ele>64.3</ele>
    <time>2020-06-14T08:33:39Z</time>
   </trkpt>
   <trkpt lat="51.1142970" lon="5.3875290">
    <ele>64.3</ele>
    <time>2020-06-14T08:33:40Z</time>
   </trkpt>
   <trkpt lat="51.1143370" lon="5.3876540">
    <ele>64.4</ele>
    <time>2020-06-14T08:33:41Z</time>
   </trkpt>
   <trkpt lat="51.1143660" lon="5.3877830">
    <ele>64.5</ele>
    <time>2020-06-14T08:33:42Z</time>
   </trkpt>
   <trkpt lat="51.1143910" lon="5.3879220">
    <ele>64.4</ele>
    <time>2020-06-14T08:33:43Z</time>
   </trkpt>
   <trkpt lat="51.1144310" lon="5.3880650">
    <ele>64.3</ele>
    <time>2020-06-14T08:33:44Z</time>
   </trkpt>
   <trkpt lat="51.1144660" lon="5.3881890">
    <ele>64.2</ele>
    <time>2020-06-14T08:33:45Z</time>
   </trkpt>
   <trkpt lat="51.1145010" lon="5.3883100">
    <ele>64.1</ele>
    <time>2020-06-14T08:33:46Z</time>
   </trkpt>
   <trkpt lat="51.1145520" lon="5.3884310">
    <ele>64.0</ele>
    <time>2020-06-14T08:33:47Z</time>
   </trkpt>
   <trkpt lat="51.1145970" lon="5.3885630">
    <ele>64.0</ele>
    <time>2020-06-14T08:33:48Z</time>
   </trkpt>
   <trkpt lat="51.1146390" lon="5.3886950">
    <ele>63.9</ele>
    <time>2020-06-14T08:33:49Z</time>
   </trkpt>
   <trkpt lat="51.1146770" lon="5.3888250">
    <ele>63.9</ele>
    <time>2020-06-14T08:33:50Z</time>
   </trkpt>
   <trkpt lat="51.1147120" lon="5.3889490">
    <ele>63.8</ele>
    <time>2020-06-14T08:33:51Z</time>
   </trkpt>
   <trkpt lat="51.1147500" lon="5.3890720">
    <ele>63.8</ele>
    <time>2020-06-14T08:33:52Z</time>
   </trkpt>
   <trkpt lat="51.1147860" lon="5.3891990">
    <ele>63.8</ele>
    <time>2020-06-14T08:33:53Z</time>
   </trkpt>
   <trkpt lat="51.1148240" lon="5.3893280">
    <ele>63.7</ele>
    <time>2020-06-14T08:33:54Z</time>
   </trkpt>
   <trkpt lat="51.1148600" lon="5.3894610">
    <ele>63.6</ele>
    <time>2020-06-14T08:33:55Z</time>
   </trkpt>
   <trkpt lat="51.1149020" lon="5.3895840">
    <ele>63.5</ele>
    <time>2020-06-14T08:33:56Z</time>
   </trkpt>
   <trkpt lat="51.1149370" lon="5.3896980">
    <ele>63.4</ele>
    <time>2020-06-14T08:33:57Z</time>
   </trkpt>
   <trkpt lat="51.1149690" lon="5.3898070">
    <ele>63.3</ele>
    <time>2020-06-14T08:33:58Z</time>
   </trkpt>
   <trkpt lat="51.1149980" lon="5.3899100">
    <ele>63.2</ele>
    <time>2020-06-14T08:33:59Z</time>
   </trkpt>
   <trkpt lat="51.1150300" lon="5.3900140">
    <ele>63.1</ele>
    <time>2020-06-14T08:34:00Z</time>
   </trkpt>
   <trkpt lat="51.1150570" lon="5.3901190">
    <ele>63.1</ele>
    <time>2020-06-14T08:34:01Z</time>
   </trkpt>
   <trkpt lat="51.1150890" lon="5.3902220">
    <ele>63.0</ele>
    <time>2020-06-14T08:34:02Z</time>
   </trkpt>
   <trkpt lat="51.1151210" lon="5.3903240">
    <ele>62.9</ele>
    <time>2020-06-14T08:34:03Z</time>
   </trkpt>
   <trkpt lat="51.1151510" lon="5.3904280">
    <ele>62.9</ele>
    <time>2020-06-14T08:34:04Z</time>
   </trkpt>
   <trkpt lat="51.1151750" lon="5.3905390">
    <ele>62.8</ele>
    <time>2020-06-14T08:34:05Z</time>
   </trkpt>
   <trkpt lat="51.1152020" lon="5.3906400">
    <ele>62.7</ele>
    <time>2020-06-14T08:34:06Z</time>
   </trkpt>
   <trkpt lat="51.1152320" lon="5.3907320">
    <ele>62.7</ele>
    <time>2020-06-14T08:34:07Z</time>
   </trkpt>
   <trkpt lat="51.1152590" lon="5.3908330">
    <ele>62.6</ele>
    <time>2020-06-14T08:34:08Z</time>
   </trkpt>
   <trkpt lat="51.1152850" lon="5.3909400">
    <ele>62.5</ele>
    <time>2020-06-14T08:34:09Z</time>
   </trkpt>
   <trkpt lat="51.1153200" lon="5.3910460">
    <ele>62.5</ele>
    <time>2020-06-14T08:34:10Z</time>
   </trkpt>
   <trkpt lat="51.1153590" lon="5.3911550">
    <ele>62.4</ele>
    <time>2020-06-14T08:34:11Z</time>
   </trkpt>
   <trkpt lat="51.1153840" lon="5.3912820">
    <ele>62.4</ele>
    <time>2020-06-14T08:34:12Z</time>
   </trkpt>
   <trkpt lat="51.1154160" lon="5.3914150">
    <ele>62.3</ele>
    <time>2020-06-14T08:34:13Z</time>
   </trkpt>
   <trkpt lat="51.1154590" lon="5.3915330">
    <ele>62.3</ele>
    <time>2020-06-14T08:34:14Z</time>
   </trkpt>
   <trkpt lat="51.1154950" lon="5.3916480">
    <ele>62.4</ele>
    <time>2020-06-14T08:34:15Z</time>
   </trkpt>
   <trkpt lat="51.1155310" lon="5.3917730">
    <ele>62.5</ele>
    <time>2020-06-14T08:34:16Z</time>
   </trkpt>
   <trkpt lat="51.1155600" lon="5.3919020">
    <ele>62.7</ele>
    <time>2020-06-14T08:34:17Z</time>
   </trkpt>
   <trkpt lat="51.1155880" lon="5.3920470">
    <ele>62.9</ele>
    <time>2020-06-14T08:34:18Z</time>
   </trkpt>
   <trkpt lat="51.1156530" lon="5.3921590">
    <ele>63.0</ele>
    <time>2020-06-14T08:34:19Z</time>
   </trkpt>
   <trkpt lat="51.1156780" lon="5.3922890">
    <ele>63.1</ele>
    <time>2020-06-14T08:34:20Z</time>
   </trkpt>
   <trkpt lat="51.1157190" lon="5.3924130">
    <ele>63.2</ele>
    <time>2020-06-14T08:34:21Z</time>
   </trkpt>
   <trkpt lat="51.1157530" lon="5.3925400">
    <ele>63.3</ele>
    <time>2020-06-14T08:34:22Z</time>
   </trkpt>
   <trkpt lat="51.1157880" lon="5.3926640">
    <ele>63.4</ele>
    <time>2020-06-14T08:34:23Z</time>
   </trkpt>
   <trkpt lat="51.1158260" lon="5.3927790">
    <ele>63.4</ele>
    <time>2020-06-14T08:34:24Z</time>
   </trkpt>
   <trkpt lat="51.1158600" lon="5.3928980">
    <ele>63.4</ele>
    <time>2020-06-14T08:34:25Z</time>
   </trkpt>
   <trkpt lat="51.1158860" lon="5.3930200">
    <ele>63.4</ele>
    <time>2020-06-14T08:34:26Z</time>
   </trkpt>
   <trkpt lat="51.1159220" lon="5.3931280">
    <ele>63.4</ele>
    <time>2020-06-14T08:34:27Z</time>
   </trkpt>
   <trkpt lat="51.1159540" lon="5.3932310">
    <ele>63.4</ele>
    <time>2020-06-14T08:34:28Z</time>
   </trkpt>
   <trkpt lat="51.1159850" lon="5.3933470">
    <ele>63.5</ele>
    <time>2020-06-14T08:34:29Z</time>
   </trkpt>
   <trkpt lat="51.1160170" lon="5.3934680">
    <ele>63.5</ele>
    <time>2020-06-14T08:34:30Z</time>
   </trkpt>
   <trkpt lat="51.1160480" lon="5.3935860">
    <ele>63.6</ele>
    <time>2020-06-14T08:34:31Z</time>
   </trkpt>
   <trkpt lat="51.1160800" lon="5.3937010">
    <ele>63.6</ele>
    <time>2020-06-14T08:34:32Z</time>
   </trkpt>
   <trkpt lat="51.1161040" lon="5.3938220">
    <ele>63.7</ele>
    <time>2020-06-14T08:34:33Z</time>
   </trkpt>
   <trkpt lat="51.1161290" lon="5.3939420">
    <ele>63.7</ele>
    <time>2020-06-14T08:34:34Z</time>
   </trkpt>
   <trkpt lat="51.1161600" lon="5.3940530">
    <ele>63.7</ele>
    <time>2020-06-14T08:34:35Z</time>
   </trkpt>
   <trkpt lat="51.1161950" lon="5.3941620">
    <ele>63.8</ele>
    <time>2020-06-14T08:34:36Z</time>
   </trkpt>
   <trkpt lat="51.1162250" lon="5.3942750">
    <ele>63.9</ele>
    <time>2020-06-14T08:34:37Z</time>
   </trkpt>
   <trkpt lat="51.1162520" lon="5.3943880">
    <ele>64.0</ele>
    <time>2020-06-14T08:34:38Z</time>
   </trkpt>
   <trkpt lat="51.1162780" lon="5.3945050">
    <ele>64.1</ele>
    <time>2020-06-14T08:34:39Z</time>
   </trkpt>
   <trkpt lat="51.1163590" lon="5.3945960">
    <ele>64.2</ele>
    <time>2020-06-14T08:34:40Z</time>
   </trkpt>
   <trkpt lat="51.1163930" lon="5.3947090">
    <ele>64.3</ele>
    <time>2020-06-14T08:34:41Z</time>
   </trkpt>
   <trkpt lat="51.1164220" lon="5.3948220">
    <ele>64.4</ele>
    <time>2020-06-14T08:34:42Z</time>
   </trkpt>
   <trkpt lat="51.1164510" lon="5.3949420">
    <ele>64.4</ele>
    <time>2020-06-14T08:34:43Z</time>
   </trkpt>
   <trkpt lat="51.1164830" lon="5.3950530">
    <ele>64.5</ele>
    <time>2020-06-14T08:34:44Z</time>
   </trkpt>
   <trkpt lat="51.1165130" lon="5.3951590">
    <ele>64.5</ele>
    <time>2020-06-14T08:34:45Z</time>
   </trkpt>
   <trkpt lat="51.1165450" lon="5.3952650">
    <ele>64.6</ele>
    <time>2020-06-14T08:34:46Z</time>
   </trkpt>
   <trkpt lat="51.1165770" lon="5.3953690">
    <ele>64.6</ele>
    <time>2020-06-14T08:34:47Z</time>
   </trkpt>
   <trkpt lat="51.1166080" lon="5.3954740">
    <ele>64.7</ele>
    <time>2020-06-14T08:34:48Z</time>
   </trkpt>
   <trkpt lat="51.1166370" lon="5.3955820">
    <ele>64.8</ele>
    <time>2020-06-14T08:34:49Z</time>
   </trkpt>
   <trkpt lat="51.1166680" lon="5.3956890">
    <ele>64.9</ele>
    <time>2020-06-14T08:34:50Z</time>
   </trkpt>
   <trkpt lat="51.1167030" lon="5.3957950">
    <ele>64.8</ele>
    <time>2020-06-14T08:34:51Z</time>
   </trkpt>
   <trkpt lat="51.1167280" lon="5.3959050">
    <ele>64.8</ele>
    <time>2020-06-14T08:34:52Z</time>
   </trkpt>
   <trkpt lat="51.1167600" lon="5.3960080">
    <ele>64.8</ele>
    <time>2020-06-14T08:34:53Z</time>
   </trkpt>
   <trkpt lat="51.1167960" lon="5.3961070">
    <ele>64.7</ele>
    <time>2020-06-14T08:34:54Z</time>
   </trkpt>
   <trkpt lat="51.1168260" lon="5.3962130">
    <ele>64.6</ele>
    <time>2020-06-14T08:34:55Z</time>
   </trkpt>
   <trkpt lat="51.1168530" lon="5.3963270">
    <ele>64.6</ele>
    <time>2020-06-14T08:34:56Z</time>
   </trkpt>
   <trkpt lat="51.1168840" lon="5.3964430">
    <ele>64.6</ele>
    <time>2020-06-14T08:34:57Z</time>
   </trkpt>
   <trkpt lat="51.1169150" lon="5.3965550">
    <ele>64.5</ele>
    <time>2020-06-14T08:34:58Z</time>
   </trkpt>
   <trkpt lat="51.1169470" lon="5.3966670">
    <ele>64.5</ele>
    <time>2020-06-14T08:34:59Z</time>
   </trkpt>
   <trkpt lat="51.1169790" lon="5.3967780">
    <ele>64.4</ele>
    <time>2020-06-14T08:35:00Z</time>
   </trkpt>
   <trkpt lat="51.1170060" lon="5.3968960">
    <ele>64.4</ele>
    <time>2020-06-14T08:35:01Z</time>
   </trkpt>
   <trkpt lat="51.1170440" lon="5.3970120">
    <ele>64.3</ele>
    <time>2020-06-14T08:35:02Z</time>
   </trkpt>
   <trkpt lat="51.1170800" lon="5.3971260">
    <ele>64.3</ele>
    <time>2020-06-14T08:35:03Z</time>
   </trkpt>
   <trkpt lat="51.1171160" lon="5.3972400">
    <ele>64.2</ele>
    <time>2020-06-14T08:35:04Z</time>
   </trkpt>
   <trkpt lat="51.1171480" lon="5.3973500">
    <ele>64.2</ele>
    <time>2020-06-14T08:35:05Z</time>
   </trkpt>
   <trkpt lat="51.1171820" lon="5.3974560">
    <ele>64.1</ele>
    <time>2020-06-14T08:35:06Z</time>
   </trkpt>
   <trkpt lat="51.1172160" lon="5.3975590">
    <ele>64.1</ele>
    <time>2020-06-14T08:35:07Z</time>
   </trkpt>
   <trkpt lat="51.1172480" lon="5.3976660">
    <ele>64.1</ele>
    <time>2020-06-14T08:35:08Z</time>
   </trkpt>
   <trkpt lat="51.1172780" lon="5.3977740">
    <ele>64.0</ele>
    <time>2020-06-14T08:35:09Z</time>
   </trkpt>
   <trkpt lat="51.1173070" lon="5.3978820">
    <ele>63.9</ele>
    <time>2020-06-14T08:35:10Z</time>
   </trkpt>
   <trkpt lat="51.1173370" lon="5.3979920">
    <ele>63.8</ele>
    <time>2020-06-14T08:35:11Z</time>
   </trkpt>
   <trkpt lat="51.1173700" lon="5.3981030">
    <ele>63.8</ele>
    <time>2020-06-14T08:35:12Z</time>
   </trkpt>
   <trkpt lat="51.1173990" lon="5.3982180">
    <ele>63.7</ele>
    <time>2020-06-14T08:35:13Z</time>
   </trkpt>
   <trkpt lat="51.1174320" lon="5.3983330">
    <ele>63.6</ele>
    <time>2020-06-14T08:35:14Z</time>
   </trkpt>
   <trkpt lat="51.1174660" lon="5.3984470">
    <ele>63.5</ele>
    <time>2020-06-14T08:35:15Z</time>
   </trkpt>
   <trkpt lat="51.1174980" lon="5.3985610">
    <ele>63.5</ele>
    <time>2020-06-14T08:35:16Z</time>
   </trkpt>
   <trkpt lat="51.1175320" lon="5.3986720">
    <ele>63.5</ele>
    <time>2020-06-14T08:35:17Z</time>
   </trkpt>
   <trkpt lat="51.1175650" lon="5.3987820">
    <ele>63.5</ele>
    <time>2020-06-14T08:35:18Z</time>
   </trkpt>
   <trkpt lat="51.1175990" lon="5.3988930">
    <ele>63.5</ele>
    <time>2020-06-14T08:35:19Z</time>
   </trkpt>
   <trkpt lat="51.1176320" lon="5.3990030">
    <ele>63.5</ele>
    <time>2020-06-14T08:35:20Z</time>
   </trkpt>
   <trkpt lat="51.1176650" lon="5.3991140">
    <ele>63.5</ele>
    <time>2020-06-14T08:35:21Z</time>
   </trkpt>
   <trkpt lat="51.1177000" lon="5.3992140">
    <ele>63.5</ele>
    <time>2020-06-14T08:35:22Z</time>
   </trkpt>
   <trkpt lat="51.1177400" lon="5.3993010">
    <ele>63.5</ele>
    <time>2020-06-14T08:35:23Z</time>
   </trkpt>
   <trkpt lat="51.1177840" lon="5.3993810">
    <ele>63.4</ele>
    <time>2020-06-14T08:35:24Z</time>
   </trkpt>
   <trkpt lat="51.1178370" lon="5.3994480">
    <ele>63.4</ele>
    <time>2020-06-14T08:35:25Z</time>
   </trkpt>
   <trkpt lat="51.1178990" lon="5.3994900">
    <ele>63.4</ele>
    <time>2020-06-14T08:35:26Z</time>
   </trkpt>
   <trkpt lat="51.1179620" lon="5.3995220">
    <ele>63.4</ele>
    <time>2020-06-14T08:35:27Z</time>
   </trkpt>
   <trkpt lat="51.1180220" lon="5.3995660">
    <ele>63.5</ele>
    <time>2020-06-14T08:35:28Z</time>
   </trkpt>
   <trkpt lat="51.1180830" lon="5.3996200">
    <ele>63.6</ele>
    <time>2020-06-14T08:35:29Z</time>
   </trkpt>
   <trkpt lat="51.1181370" lon="5.3996890">
    <ele>63.7</ele>
    <time>2020-06-14T08:35:30Z</time>
   </trkpt>
   <trkpt lat="51.1181840" lon="5.3997650">
    <ele>63.8</ele>
    <time>2020-06-14T08:35:31Z</time>
   </trkpt>
   <trkpt lat="51.1182100" lon="5.3998500">
    <ele>64.0</ele>
    <time>2020-06-14T08:35:32Z</time>
   </trkpt>
   <trkpt lat="51.1182210" lon="5.3999390">
    <ele>64.2</ele>
    <time>2020-06-14T08:35:33Z</time>
   </trkpt>
   <trkpt lat="51.1182250" lon="5.4000280">
    <ele>64.4</ele>
    <time>2020-06-14T08:35:34Z</time>
   </trkpt>
   <trkpt lat="51.1182240" lon="5.4001190">
    <ele>64.6</ele>
    <time>2020-06-14T08:35:35Z</time>
   </trkpt>
   <trkpt lat="51.1182190" lon="5.4002130">
    <ele>64.9</ele>
    <time>2020-06-14T08:35:36Z</time>
   </trkpt>
   <trkpt lat="51.1182080" lon="5.4003020">
    <ele>65.1</ele>
    <time>2020-06-14T08:35:37Z</time>
   </trkpt>
   <trkpt lat="51.1181960" lon="5.4003920">
    <ele>65.3</ele>
    <time>2020-06-14T08:35:38Z</time>
   </trkpt>
   <trkpt lat="51.1181840" lon="5.4004880">
    <ele>65.3</ele>
    <time>2020-06-14T08:35:39Z</time>
   </trkpt>
   <trkpt lat="51.1181740" lon="5.4005910">
    <ele>65.0</ele>
    <time>2020-06-14T08:35:40Z</time>
   </trkpt>
   <trkpt lat="51.1181660" lon="5.4007070">
    <ele>64.9</ele>
    <time>2020-06-14T08:35:41Z</time>
   </trkpt>
   <trkpt lat="51.1181720" lon="5.4008290">
    <ele>64.8</ele>
    <time>2020-06-14T08:35:42Z</time>
   </trkpt>
   <trkpt lat="51.1182000" lon="5.4009410">
    <ele>64.8</ele>
    <time>2020-06-14T08:35:43Z</time>
   </trkpt>
   <trkpt lat="51.1182310" lon="5.4010530">
    <ele>64.8</ele>
    <time>2020-06-14T08:35:44Z</time>
   </trkpt>
   <trkpt lat="51.1182580" lon="5.4011730">
    <ele>64.7</ele>
    <time>2020-06-14T08:35:45Z</time>
   </trkpt>
   <trkpt lat="51.1182860" lon="5.4013000">
    <ele>64.7</ele>
    <time>2020-06-14T08:35:46Z</time>
   </trkpt>
   <trkpt lat="51.1183130" lon="5.4014250">
    <ele>64.7</ele>
    <time>2020-06-14T08:35:47Z</time>
   </trkpt>
   <trkpt lat="51.1183390" lon="5.4015410">
    <ele>64.8</ele>
    <time>2020-06-14T08:35:48Z</time>
   </trkpt>
   <trkpt lat="51.1183630" lon="5.4016580">
    <ele>64.8</ele>
    <time>2020-06-14T08:35:49Z</time>
   </trkpt>
   <trkpt lat="51.1183910" lon="5.4017740">
    <ele>64.8</ele>
    <time>2020-06-14T08:35:50Z</time>
   </trkpt>
   <trkpt lat="51.1184220" lon="5.4018870">
    <ele>64.8</ele>
    <time>2020-06-14T08:35:51Z</time>
   </trkpt>
   <trkpt lat="51.1184500" lon="5.4020000">
    <ele>64.8</ele>
    <time>2020-06-14T08:35:52Z</time>
   </trkpt>
   <trkpt lat="51.1184810" lon="5.4021050">
    <ele>64.8</ele>
    <time>2020-06-14T08:35:53Z</time>
   </trkpt>
   <trkpt lat="51.1185120" lon="5.4022120">
    <ele>64.8</ele>
    <time>2020-06-14T08:35:54Z</time>
   </trkpt>
   <trkpt lat="51.1185420" lon="5.4023230">
    <ele>64.8</ele>
    <time>2020-06-14T08:35:55Z</time>
   </trkpt>
   <trkpt lat="51.1185760" lon="5.4024290">
    <ele>64.8</ele>
    <time>2020-06-14T08:35:56Z</time>
   </trkpt>
   <trkpt lat="51.1186120" lon="5.4025430">
    <ele>64.7</ele>
    <time>2020-06-14T08:35:57Z</time>
   </trkpt>
   <trkpt lat="51.1186520" lon="5.4026590">
    <ele>64.7</ele>
    <time>2020-06-14T08:35:58Z</time>
   </trkpt>
   <trkpt lat="51.1186940" lon="5.4027680">
    <ele>64.7</ele>
    <time>2020-06-14T08:35:59Z</time>
   </trkpt>
   <trkpt lat="51.1187350" lon="5.4028840">
    <ele>64.7</ele>
    <time>2020-06-14T08:36:00Z</time>
   </trkpt>
   <trkpt lat="51.1187720" lon="5.4030020">
    <ele>64.7</ele>
    <time>2020-06-14T08:36:01Z</time>
   </trkpt>
   <trkpt lat="51.1188090" lon="5.4031200">
    <ele>64.7</ele>
    <time>2020-06-14T08:36:02Z</time>
   </trkpt>
   <trkpt lat="51.1188460" lon="5.4032450">
    <ele>64.7</ele>
    <time>2020-06-14T08:36:03Z</time>
   </trkpt>
   <trkpt lat="51.1188830" lon="5.4033600">
    <ele>64.7</ele>
    <time>2020-06-14T08:36:04Z</time>
   </trkpt>
   <trkpt lat="51.1189190" lon="5.4034770">
    <ele>64.8</ele>
    <time>2020-06-14T08:36:05Z</time>
   </trkpt>
   <trkpt lat="51.1189500" lon="5.4035920">
    <ele>64.8</ele>
    <time>2020-06-14T08:36:06Z</time>
   </trkpt>
   <trkpt lat="51.1189830" lon="5.4037100">
    <ele>64.8</ele>
    <time>2020-06-14T08:36:07Z</time>
   </trkpt>
   <trkpt lat="51.1190190" lon="5.4038310">
    <ele>64.8</ele>
    <time>2020-06-14T08:36:08Z</time>
   </trkpt>
   <trkpt lat="51.1190490" lon="5.4039500">
    <ele>64.8</ele>
    <time>2020-06-14T08:36:09Z</time>
   </trkpt>
   <trkpt lat="51.1190830" lon="5.4040690">
    <ele>64.8</ele>
    <time>2020-06-14T08:36:10Z</time>
   </trkpt>
   <trkpt lat="51.1191140" lon="5.4041870">
    <ele>64.8</ele>
    <time>2020-06-14T08:36:11Z</time>
   </trkpt>
   <trkpt lat="51.1191490" lon="5.4043090">
    <ele>64.8</ele>
    <time>2020-06-14T08:36:12Z</time>
   </trkpt>
   <trkpt lat="51.1192360" lon="5.4044080">
    <ele>64.8</ele>
    <time>2020-06-14T08:36:13Z</time>
   </trkpt>
   <trkpt lat="51.1192720" lon="5.4045210">
    <ele>64.7</ele>
    <time>2020-06-14T08:36:14Z</time>
   </trkpt>
   <trkpt lat="51.1193020" lon="5.4046370">
    <ele>64.7</ele>
    <time>2020-06-14T08:36:15Z</time>
   </trkpt>
   <trkpt lat="51.1193310" lon="5.4047640">
    <ele>64.7</ele>
    <time>2020-06-14T08:36:16Z</time>
   </trkpt>
   <trkpt lat="51.1193670" lon="5.4048830">
    <ele>64.7</ele>
    <time>2020-06-14T08:36:18Z</time>
   </trkpt>
   <trkpt lat="51.1194020" lon="5.4050000">
    <ele>64.7</ele>
    <time>2020-06-14T08:36:19Z</time>
   </trkpt>
   <trkpt lat="51.1194380" lon="5.4051210">
    <ele>64.7</ele>
    <time>2020-06-14T08:36:20Z</time>
   </trkpt>
   <trkpt lat="51.1194730" lon="5.4052370">
    <ele>64.6</ele>
    <time>2020-06-14T08:36:21Z</time>
   </trkpt>
   <trkpt lat="51.1195060" lon="5.4053590">
    <ele>64.6</ele>
    <time>2020-06-14T08:36:22Z</time>
   </trkpt>
   <trkpt lat="51.1195410" lon="5.4054770">
    <ele>64.6</ele>
    <time>2020-06-14T08:36:23Z</time>
   </trkpt>
   <trkpt lat="51.1195770" lon="5.4055830">
    <ele>64.5</ele>
    <time>2020-06-14T08:36:24Z</time>
   </trkpt>
   <trkpt lat="51.1196130" lon="5.4056930">
    <ele>64.5</ele>
    <time>2020-06-14T08:36:25Z</time>
   </trkpt>
   <trkpt lat="51.1196450" lon="5.4058010">
    <ele>64.5</ele>
    <time>2020-06-14T08:36:26Z</time>
   </trkpt>
   <trkpt lat="51.1196710" lon="5.4059100">
    <ele>64.5</ele>
    <time>2020-06-14T08:36:27Z</time>
   </trkpt>
   <trkpt lat="51.1196950" lon="5.4060160">
    <ele>64.5</ele>
    <time>2020-06-14T08:36:28Z</time>
   </trkpt>
   <trkpt lat="51.1197200" lon="5.4061250">
    <ele>64.4</ele>
    <time>2020-06-14T08:36:29Z</time>
   </trkpt>
   <trkpt lat="51.1197470" lon="5.4062400">
    <ele>64.4</ele>
    <time>2020-06-14T08:36:30Z</time>
   </trkpt>
   <trkpt lat="51.1197800" lon="5.4063580">
    <ele>64.4</ele>
    <time>2020-06-14T08:36:31Z</time>
   </trkpt>
   <trkpt lat="51.1198170" lon="5.4064720">
    <ele>64.3</ele>
    <time>2020-06-14T08:36:32Z</time>
   </trkpt>
   <trkpt lat="51.1198530" lon="5.4065920">
    <ele>64.3</ele>
    <time>2020-06-14T08:36:33Z</time>
   </trkpt>
   <trkpt lat="51.1198700" lon="5.4067240">
    <ele>64.2</ele>
    <time>2020-06-14T08:36:34Z</time>
   </trkpt>
   <trkpt lat="51.1199060" lon="5.4068410">
    <ele>64.1</ele>
    <time>2020-06-14T08:36:35Z</time>
   </trkpt>
   <trkpt lat="51.1199410" lon="5.4069610">
    <ele>64.0</ele>
    <time>2020-06-14T08:36:36Z</time>
   </trkpt>
   <trkpt lat="51.1199730" lon="5.4070850">
    <ele>64.0</ele>
    <time>2020-06-14T08:36:37Z</time>
   </trkpt>
   <trkpt lat="51.1200110" lon="5.4072090">
    <ele>63.9</ele>
    <time>2020-06-14T08:36:38Z</time>
   </trkpt>
   <trkpt lat="51.1200480" lon="5.4073300">
    <ele>63.8</ele>
    <time>2020-06-14T08:36:39Z</time>
   </trkpt>
   <trkpt lat="51.1200810" lon="5.4074520">
    <ele>63.8</ele>
    <time>2020-06-14T08:36:40Z</time>
   </trkpt>
   <trkpt lat="51.1201140" lon="5.4075670">
    <ele>63.8</ele>
    <time>2020-06-14T08:36:41Z</time>
   </trkpt>
   <trkpt lat="51.1201460" lon="5.4076780">
    <ele>63.8</ele>
    <time>2020-06-14T08:36:42Z</time>
   </trkpt>
   <trkpt lat="51.1201770" lon="5.4077900">
    <ele>63.7</ele>
    <time>2020-06-14T08:36:43Z</time>
   </trkpt>
   <trkpt lat="51.1202080" lon="5.4078970">
    <ele>63.8</ele>
    <time>2020-06-14T08:36:44Z</time>
   </trkpt>
   <trkpt lat="51.1202400" lon="5.4079980">
    <ele>63.8</ele>
    <time>2020-06-14T08:36:45Z</time>
   </trkpt>
   <trkpt lat="51.1202720" lon="5.4081070">
    <ele>63.8</ele>
    <time>2020-06-14T08:36:46Z</time>
   </trkpt>
   <trkpt lat="51.1203040" lon="5.4082250">
    <ele>63.8</ele>
    <time>2020-06-14T08:36:47Z</time>
   </trkpt>
   <trkpt lat="51.1203390" lon="5.4083460">
    <ele>63.9</ele>
    <time>2020-06-14T08:36:48Z</time>
   </trkpt>
   <trkpt lat="51.1203670" lon="5.4084680">
    <ele>64.0</ele>
    <time>2020-06-14T08:36:49Z</time>
   </trkpt>
   <trkpt lat="51.1203860" lon="5.4085880">
    <ele>64.0</ele>
    <time>2020-06-14T08:36:50Z</time>
   </trkpt>
   <trkpt lat="51.1204000" lon="5.4087050">
    <ele>64.1</ele>
    <time>2020-06-14T08:36:51Z</time>
   </trkpt>
   <trkpt lat="51.1204120" lon="5.4088210">
    <ele>64.2</ele>
    <time>2020-06-14T08:36:52Z</time>
   </trkpt>
   <trkpt lat="51.1204160" lon="5.4089360">
    <ele>64.2</ele>
    <time>2020-06-14T08:36:53Z</time>
   </trkpt>
   <trkpt lat="51.1203930" lon="5.4090510">
    <ele>64.3</ele>
    <time>2020-06-14T08:36:54Z</time>
   </trkpt>
   <trkpt lat="51.1203890" lon="5.4091650">
    <ele>64.4</ele>
    <time>2020-06-14T08:36:55Z</time>
   </trkpt>
   <trkpt lat="51.1203950" lon="5.4092780">
    <ele>64.4</ele>
    <time>2020-06-14T08:36:56Z</time>
   </trkpt>
   <trkpt lat="51.1204110" lon="5.4094020">
    <ele>64.5</ele>
    <time>2020-06-14T08:36:57Z</time>
   </trkpt>
   <trkpt lat="51.1204080" lon="5.4095150">
    <ele>64.5</ele>
    <time>2020-06-14T08:36:58Z</time>
   </trkpt>
   <trkpt lat="51.1204050" lon="5.4096200">
    <ele>64.6</ele>
    <time>2020-06-14T08:36:59Z</time>
   </trkpt>
   <trkpt lat="51.1203960" lon="5.4097220">
    <ele>64.6</ele>
    <time>2020-06-14T08:37:00Z</time>
   </trkpt>
   <trkpt lat="51.1203870" lon="5.4098250">
    <ele>64.7</ele>
    <time>2020-06-14T08:37:01Z</time>
   </trkpt>
   <trkpt lat="51.1203780" lon="5.4099280">
    <ele>64.7</ele>
    <time>2020-06-14T08:37:02Z</time>
   </trkpt>
   <trkpt lat="51.1203550" lon="5.4100240">
    <ele>64.7</ele>
    <time>2020-06-14T08:37:03Z</time>
   </trkpt>
   <trkpt lat="51.1203100" lon="5.4101100">
    <ele>64.8</ele>
    <time>2020-06-14T08:37:04Z</time>
   </trkpt>
   <trkpt lat="51.1202510" lon="5.4101930">
    <ele>64.8</ele>
    <time>2020-06-14T08:37:05Z</time>
   </trkpt>
   <trkpt lat="51.1201880" lon="5.4102670">
    <ele>64.8</ele>
    <time>2020-06-14T08:37:06Z</time>
   </trkpt>
   <trkpt lat="51.1201250" lon="5.4103250">
    <ele>64.9</ele>
    <time>2020-06-14T08:37:07Z</time>
   </trkpt>
   <trkpt lat="51.1200600" lon="5.4103720">
    <ele>64.9</ele>
    <time>2020-06-14T08:37:08Z</time>
   </trkpt>
   <trkpt lat="51.1199680" lon="5.4103780">
    <ele>64.9</ele>
    <time>2020-06-14T08:37:09Z</time>
   </trkpt>
   <trkpt lat="51.1198970" lon="5.4104460">
    <ele>64.9</ele>
    <time>2020-06-14T08:37:10Z</time>
   </trkpt>
   <trkpt lat="51.1198270" lon="5.4105140">
    <ele>65.0</ele>
    <time>2020-06-14T08:37:11Z</time>
   </trkpt>
   <trkpt lat="51.1197590" lon="5.4105830">
    <ele>65.0</ele>
    <time>2020-06-14T08:37:12Z</time>
   </trkpt>
   <trkpt lat="51.1196870" lon="5.4106570">
    <ele>65.0</ele>
    <time>2020-06-14T08:37:13Z</time>
   </trkpt>
   <trkpt lat="51.1196150" lon="5.4107260">
    <ele>65.1</ele>
    <time>2020-06-14T08:37:14Z</time>
   </trkpt>
   <trkpt lat="51.1195430" lon="5.4107950">
    <ele>65.1</ele>
    <time>2020-06-14T08:37:15Z</time>
   </trkpt>
   <trkpt lat="51.1194730" lon="5.4108640">
    <ele>65.2</ele>
    <time>2020-06-14T08:37:16Z</time>
   </trkpt>
   <trkpt lat="51.1194060" lon="5.4109360">
    <ele>65.3</ele>
    <time>2020-06-14T08:37:17Z</time>
   </trkpt>
   <trkpt lat="51.1193430" lon="5.4110070">
    <ele>65.4</ele>
    <time>2020-06-14T08:37:18Z</time>
   </trkpt>
   <trkpt lat="51.1192730" lon="5.4110750">
    <ele>65.5</ele>
    <time>2020-06-14T08:37:19Z</time>
   </trkpt>
   <trkpt lat="51.1192050" lon="5.4111430">
    <ele>65.6</ele>
    <time>2020-06-14T08:37:20Z</time>
   </trkpt>
   <trkpt lat="51.1191360" lon="5.4112060">
    <ele>65.6</ele>
    <time>2020-06-14T08:37:21Z</time>
   </trkpt>
   <trkpt lat="51.1190640" lon="5.4112680">
    <ele>65.7</ele>
    <time>2020-06-14T08:37:22Z</time>
   </trkpt>
   <trkpt lat="51.1189930" lon="5.4113340">
    <ele>65.7</ele>
    <time>2020-06-14T08:37:23Z</time>
   </trkpt>
   <trkpt lat="51.1189240" lon="5.4114050">
    <ele>65.7</ele>
    <time>2020-06-14T08:37:24Z</time>
   </trkpt>
   <trkpt lat="51.1188490" lon="5.4114700">
    <ele>65.7</ele>
    <time>2020-06-14T08:37:25Z</time>
   </trkpt>
   <trkpt lat="51.1187760" lon="5.4115410">
    <ele>65.7</ele>
    <time>2020-06-14T08:37:26Z</time>
   </trkpt>
   <trkpt lat="51.1187030" lon="5.4116060">
    <ele>65.8</ele>
    <time>2020-06-14T08:37:27Z</time>
   </trkpt>
   <trkpt lat="51.1186290" lon="5.4116650">
    <ele>65.8</ele>
    <time>2020-06-14T08:37:28Z</time>
   </trkpt>
   <trkpt lat="51.1185480" lon="5.4117260">
    <ele>65.9</ele>
    <time>2020-06-14T08:37:29Z</time>
   </trkpt>
   <trkpt lat="51.1184690" lon="5.4117960">
    <ele>65.9</ele>
    <time>2020-06-14T08:37:30Z</time>
   </trkpt>
   <trkpt lat="51.1184010" lon="5.4118580">
    <ele>65.9</ele>
    <time>2020-06-14T08:37:31Z</time>
   </trkpt>
   <trkpt lat="51.1183330" lon="5.4119240">
    <ele>65.9</ele>
    <time>2020-06-14T08:37:32Z</time>
   </trkpt>
   <trkpt lat="51.1182670" lon="5.4119860">
    <ele>66.0</ele>
    <time>2020-06-14T08:37:33Z</time>
   </trkpt>
   <trkpt lat="51.1182040" lon="5.4120510">
    <ele>66.0</ele>
    <time>2020-06-14T08:37:34Z</time>
   </trkpt>
   <trkpt lat="51.1181460" lon="5.4121120">
    <ele>66.0</ele>
    <time>2020-06-14T08:37:35Z</time>
   </trkpt>
   <trkpt lat="51.1180810" lon="5.4121830">
    <ele>66.0</ele>
    <time>2020-06-14T08:37:36Z</time>
   </trkpt>
   <trkpt lat="51.1180080" lon="5.4122630">
    <ele>66.1</ele>
    <time>2020-06-14T08:37:37Z</time>
   </trkpt>
   <trkpt lat="51.1179360" lon="5.4123360">
    <ele>66.1</ele>
    <time>2020-06-14T08:37:38Z</time>
   </trkpt>
   <trkpt lat="51.1178640" lon="5.4124020">
    <ele>66.2</ele>
    <time>2020-06-14T08:37:39Z</time>
   </trkpt>
   <trkpt lat="51.1177960" lon="5.4124730">
    <ele>66.1</ele>
    <time>2020-06-14T08:37:40Z</time>
   </trkpt>
   <trkpt lat="51.1177290" lon="5.4125440">
    <ele>66.0</ele>
    <time>2020-06-14T08:37:41Z</time>
   </trkpt>
   <trkpt lat="51.1176570" lon="5.4126150">
    <ele>65.9</ele>
    <time>2020-06-14T08:37:42Z</time>
   </trkpt>
   <trkpt lat="51.1175880" lon="5.4126820">
    <ele>65.9</ele>
    <time>2020-06-14T08:37:43Z</time>
   </trkpt>
   <trkpt lat="51.1175210" lon="5.4127410">
    <ele>65.9</ele>
    <time>2020-06-14T08:37:44Z</time>
   </trkpt>
   <trkpt lat="51.1174550" lon="5.4128080">
    <ele>65.9</ele>
    <time>2020-06-14T08:37:45Z</time>
   </trkpt>
   <trkpt lat="51.1173930" lon="5.4128700">
    <ele>65.9</ele>
    <time>2020-06-14T08:37:46Z</time>
   </trkpt>
   <trkpt lat="51.1173410" lon="5.4129390">
    <ele>65.9</ele>
    <time>2020-06-14T08:37:47Z</time>
   </trkpt>
   <trkpt lat="51.1172860" lon="5.4130020">
    <ele>65.9</ele>
    <time>2020-06-14T08:37:48Z</time>
   </trkpt>
   <trkpt lat="51.1172290" lon="5.4130620">
    <ele>65.9</ele>
    <time>2020-06-14T08:37:49Z</time>
   </trkpt>
   <trkpt lat="51.1171790" lon="5.4131160">
    <ele>65.9</ele>
    <time>2020-06-14T08:37:50Z</time>
   </trkpt>
   <trkpt lat="51.1171300" lon="5.4131710">
    <ele>65.9</ele>
    <time>2020-06-14T08:37:51Z</time>
   </trkpt>
   <trkpt lat="51.1170830" lon="5.4132410">
    <ele>65.9</ele>
    <time>2020-06-14T08:37:52Z</time>
   </trkpt>
   <trkpt lat="51.1170260" lon="5.4133150">
    <ele>65.9</ele>
    <time>2020-06-14T08:37:53Z</time>
   </trkpt>
   <trkpt lat="51.1169590" lon="5.4133930">
    <ele>65.9</ele>
    <time>2020-06-14T08:37:54Z</time>
   </trkpt>
   <trkpt lat="51.1168880" lon="5.4134650">
    <ele>65.9</ele>
    <time>2020-06-14T08:37:55Z</time>
   </trkpt>
   <trkpt lat="51.1168210" lon="5.4135280">
    <ele>65.8</ele>
    <time>2020-06-14T08:37:56Z</time>
   </trkpt>
   <trkpt lat="51.1167550" lon="5.4135750">
    <ele>65.8</ele>
    <time>2020-06-14T08:37:57Z</time>
   </trkpt>
   <trkpt lat="51.1166800" lon="5.4136220">
    <ele>65.8</ele>
    <time>2020-06-14T08:37:58Z</time>
   </trkpt>
   <trkpt lat="51.1166010" lon="5.4136640">
    <ele>65.8</ele>
    <time>2020-06-14T08:37:59Z</time>
   </trkpt>
   <trkpt lat="51.1165210" lon="5.4137000">
    <ele>65.8</ele>
    <time>2020-06-14T08:38:00Z</time>
   </trkpt>
   <trkpt lat="51.1164450" lon="5.4137320">
    <ele>65.7</ele>
    <time>2020-06-14T08:38:01Z</time>
   </trkpt>
   <trkpt lat="51.1163690" lon="5.4137660">
    <ele>65.7</ele>
    <time>2020-06-14T08:38:02Z</time>
   </trkpt>
   <trkpt lat="51.1162990" lon="5.4138000">
    <ele>65.6</ele>
    <time>2020-06-14T08:38:03Z</time>
   </trkpt>
   <trkpt lat="51.1162320" lon="5.4138740">
    <ele>65.6</ele>
    <time>2020-06-14T08:38:04Z</time>
   </trkpt>
   <trkpt lat="51.1161790" lon="5.4139680">
    <ele>65.5</ele>
    <time>2020-06-14T08:38:05Z</time>
   </trkpt>
   <trkpt lat="51.1161390" lon="5.4140680">
    <ele>65.5</ele>
    <time>2020-06-14T08:38:06Z</time>
   </trkpt>
   <trkpt lat="51.1161040" lon="5.4141880">
    <ele>65.5</ele>
    <time>2020-06-14T08:38:07Z</time>
   </trkpt>
   <trkpt lat="51.1160730" lon="5.4143080">
    <ele>65.4</ele>
    <time>2020-06-14T08:38:08Z</time>
   </trkpt>
   <trkpt lat="51.1160420" lon="5.4144330">
    <ele>65.4</ele>
    <time>2020-06-14T08:38:09Z</time>
   </trkpt>
   <trkpt lat="51.1160110" lon="5.4145490">
    <ele>65.4</ele>
    <time>2020-06-14T08:38:10Z</time>
   </trkpt>
   <trkpt lat="51.1159830" lon="5.4146660">
    <ele>65.4</ele>
    <time>2020-06-14T08:38:11Z</time>
   </trkpt>
   <trkpt lat="51.1159890" lon="5.4147950">
    <ele>65.4</ele>
    <time>2020-06-14T08:38:12Z</time>
   </trkpt>
   <trkpt lat="51.1159620" lon="5.4149130">
    <ele>65.4</ele>
    <time>2020-06-14T08:38:13Z</time>
   </trkpt>
   <trkpt lat="51.1159330" lon="5.4150280">
    <ele>65.3</ele>
    <time>2020-06-14T08:38:14Z</time>
   </trkpt>
   <trkpt lat="51.1159070" lon="5.4151470">
    <ele>65.3</ele>
    <time>2020-06-14T08:38:15Z</time>
   </trkpt>
   <trkpt lat="51.1158780" lon="5.4152630">
    <ele>65.3</ele>
    <time>2020-06-14T08:38:16Z</time>
   </trkpt>
   <trkpt lat="51.1158540" lon="5.4153740">
    <ele>65.3</ele>
    <time>2020-06-14T08:38:17Z</time>
   </trkpt>
   <trkpt lat="51.1158310" lon="5.4154860">
    <ele>65.3</ele>
    <time>2020-06-14T08:38:18Z</time>
   </trkpt>
   <trkpt lat="51.1158030" lon="5.4155920">
    <ele>65.3</ele>
    <time>2020-06-14T08:38:19Z</time>
   </trkpt>
   <trkpt lat="51.1157800" lon="5.4156960">
    <ele>65.3</ele>
    <time>2020-06-14T08:38:20Z</time>
   </trkpt>
   <trkpt lat="51.1157550" lon="5.4157980">
    <ele>65.3</ele>
    <time>2020-06-14T08:38:21Z</time>
   </trkpt>
   <trkpt lat="51.1157290" lon="5.4159020">
    <ele>65.3</ele>
    <time>2020-06-14T08:38:22Z</time>
   </trkpt>
   <trkpt lat="51.1157030" lon="5.4160080">
    <ele>65.3</ele>
    <time>2020-06-14T08:38:23Z</time>
   </trkpt>
   <trkpt lat="51.1156770" lon="5.4161160">
    <ele>65.3</ele>
    <time>2020-06-14T08:38:24Z</time>
   </trkpt>
   <trkpt lat="51.1156500" lon="5.4162250">
    <ele>65.3</ele>
    <time>2020-06-14T08:38:25Z</time>
   </trkpt>
   <trkpt lat="51.1156230" lon="5.4163360">
    <ele>65.4</ele>
    <time>2020-06-14T08:38:26Z</time>
   </trkpt>
   <trkpt lat="51.1155960" lon="5.4164470">
    <ele>65.4</ele>
    <time>2020-06-14T08:38:27Z</time>
   </trkpt>
   <trkpt lat="51.1155660" lon="5.4165610">
    <ele>65.4</ele>
    <time>2020-06-14T08:38:28Z</time>
   </trkpt>
   <trkpt lat="51.1155340" lon="5.4166700">
    <ele>65.4</ele>
    <time>2020-06-14T08:38:29Z</time>
   </trkpt>
   <trkpt lat="51.1155000" lon="5.4167730">
    <ele>65.4</ele>
    <time>2020-06-14T08:38:30Z</time>
   </trkpt>
   <trkpt lat="51.1154560" lon="5.4168660">
    <ele>65.5</ele>
    <time>2020-06-14T08:38:31Z</time>
   </trkpt>
   <trkpt lat="51.1154030" lon="5.4169480">
    <ele>65.5</ele>
    <time>2020-06-14T08:38:32Z</time>
   </trkpt>
   <trkpt lat="51.1153500" lon="5.4170220">
    <ele>65.6</ele>
    <time>2020-06-14T08:38:33Z</time>
   </trkpt>
   <trkpt lat="51.1153000" lon="5.4170960">
    <ele>65.6</ele>
    <time>2020-06-14T08:38:34Z</time>
   </trkpt>
   <trkpt lat="51.1152380" lon="5.4171530">
    <ele>65.6</ele>
    <time>2020-06-14T08:38:35Z</time>
   </trkpt>
   <trkpt lat="51.1151720" lon="5.4172100">
    <ele>65.6</ele>
    <time>2020-06-14T08:38:36Z</time>
   </trkpt>
   <trkpt lat="51.1151020" lon="5.4172590">
    <ele>65.7</ele>
    <time>2020-06-14T08:38:37Z</time>
   </trkpt>
   <trkpt lat="51.1150360" lon="5.4173070">
    <ele>65.7</ele>
    <time>2020-06-14T08:38:38Z</time>
   </trkpt>
   <trkpt lat="51.1149740" lon="5.4173680">
    <ele>65.8</ele>
    <time>2020-06-14T08:38:39Z</time>
   </trkpt>
   <trkpt lat="51.1149190" lon="5.4174480">
    <ele>65.8</ele>
    <time>2020-06-14T08:38:40Z</time>
   </trkpt>
   <trkpt lat="51.1148620" lon="5.4175330">
    <ele>65.8</ele>
    <time>2020-06-14T08:38:41Z</time>
   </trkpt>
   <trkpt lat="51.1148000" lon="5.4176150">
    <ele>65.8</ele>
    <time>2020-06-14T08:38:42Z</time>
   </trkpt>
   <trkpt lat="51.1147430" lon="5.4176920">
    <ele>65.8</ele>
    <time>2020-06-14T08:38:43Z</time>
   </trkpt>
   <trkpt lat="51.1146840" lon="5.4177690">
    <ele>65.8</ele>
    <time>2020-06-14T08:38:44Z</time>
   </trkpt>
   <trkpt lat="51.1146250" lon="5.4178580">
    <ele>65.8</ele>
    <time>2020-06-14T08:38:45Z</time>
   </trkpt>
   <trkpt lat="51.1145590" lon="5.4179480">
    <ele>65.8</ele>
    <time>2020-06-14T08:38:46Z</time>
   </trkpt>
   <trkpt lat="51.1144980" lon="5.4180370">
    <ele>65.8</ele>
    <time>2020-06-14T08:38:47Z</time>
   </trkpt>
   <trkpt lat="51.1144380" lon="5.4181220">
    <ele>65.7</ele>
    <time>2020-06-14T08:38:48Z</time>
   </trkpt>
   <trkpt lat="51.1143790" lon="5.4182090">
    <ele>65.8</ele>
    <time>2020-06-14T08:38:49Z</time>
   </trkpt>
   <trkpt lat="51.1143200" lon="5.4182950">
    <ele>65.8</ele>
    <time>2020-06-14T08:38:50Z</time>
   </trkpt>
   <trkpt lat="51.1142710" lon="5.4183690">
    <ele>65.8</ele>
    <time>2020-06-14T08:38:51Z</time>
   </trkpt>
   <trkpt lat="51.1142150" lon="5.4184400">
    <ele>65.9</ele>
    <time>2020-06-14T08:38:52Z</time>
   </trkpt>
   <trkpt lat="51.1141640" lon="5.4185110">
    <ele>65.9</ele>
    <time>2020-06-14T08:38:53Z</time>
   </trkpt>
   <trkpt lat="51.1141120" lon="5.4185810">
    <ele>65.9</ele>
    <time>2020-06-14T08:38:54Z</time>
   </trkpt>
   <trkpt lat="51.1140610" lon="5.4186510">
    <ele>65.9</ele>
    <time>2020-06-14T08:38:55Z</time>
   </trkpt>
   <trkpt lat="51.1140050" lon="5.4187270">
    <ele>65.9</ele>
    <time>2020-06-14T08:38:56Z</time>
   </trkpt>
   <trkpt lat="51.1139490" lon="5.4188010">
    <ele>66.0</ele>
    <time>2020-06-14T08:38:57Z</time>
   </trkpt>
   <trkpt lat="51.1138860" lon="5.4188740">
    <ele>66.1</ele>
    <time>2020-06-14T08:38:58Z</time>
   </trkpt>
   <trkpt lat="51.1138240" lon="5.4189360">
    <ele>66.2</ele>
    <time>2020-06-14T08:38:59Z</time>
   </trkpt>
   <trkpt lat="51.1137550" lon="5.4189870">
    <ele>66.1</ele>
    <time>2020-06-14T08:39:00Z</time>
   </trkpt>
   <trkpt lat="51.1136810" lon="5.4190390">
    <ele>66.1</ele>
    <time>2020-06-14T08:39:01Z</time>
   </trkpt>
   <trkpt lat="51.1136100" lon="5.4190960">
    <ele>66.1</ele>
    <time>2020-06-14T08:39:02Z</time>
   </trkpt>
   <trkpt lat="51.1135430" lon="5.4191510">
    <ele>66.1</ele>
    <time>2020-06-14T08:39:03Z</time>
   </trkpt>
   <trkpt lat="51.1134740" lon="5.4192010">
    <ele>66.1</ele>
    <time>2020-06-14T08:39:04Z</time>
   </trkpt>
   <trkpt lat="51.1134030" lon="5.4192540">
    <ele>66.2</ele>
    <time>2020-06-14T08:39:05Z</time>
   </trkpt>
   <trkpt lat="51.1133380" lon="5.4193020">
    <ele>66.2</ele>
    <time>2020-06-14T08:39:06Z</time>
   </trkpt>
   <trkpt lat="51.1132780" lon="5.4193410">
    <ele>66.3</ele>
    <time>2020-06-14T08:39:07Z</time>
   </trkpt>
   <trkpt lat="51.1132260" lon="5.4193890">
    <ele>66.3</ele>
    <time>2020-06-14T08:39:08Z</time>
   </trkpt>
   <trkpt lat="51.1131810" lon="5.4194450">
    <ele>66.3</ele>
    <time>2020-06-14T08:39:09Z</time>
   </trkpt>
   <trkpt lat="51.1131500" lon="5.4195350">
    <ele>66.2</ele>
    <time>2020-06-14T08:39:10Z</time>
   </trkpt>
   <trkpt lat="51.1131360" lon="5.4196470">
    <ele>66.1</ele>
    <time>2020-06-14T08:39:11Z</time>
   </trkpt>
   <trkpt lat="51.1131310" lon="5.4197580">
    <ele>66.0</ele>
    <time>2020-06-14T08:39:12Z</time>
   </trkpt>
   <trkpt lat="51.1131320" lon="5.4198640">
    <ele>66.0</ele>
    <time>2020-06-14T08:39:13Z</time>
   </trkpt>
   <trkpt lat="51.1131420" lon="5.4199760">
    <ele>65.9</ele>
    <time>2020-06-14T08:39:14Z</time>
   </trkpt>
   <trkpt lat="51.1131540" lon="5.4200780">
    <ele>65.9</ele>
    <time>2020-06-14T08:39:15Z</time>
   </trkpt>
   <trkpt lat="51.1131660" lon="5.4201790">
    <ele>65.9</ele>
    <time>2020-06-14T08:39:16Z</time>
   </trkpt>
   <trkpt lat="51.1131790" lon="5.4202820">
    <ele>66.0</ele>
    <time>2020-06-14T08:39:17Z</time>
   </trkpt>
   <trkpt lat="51.1131960" lon="5.4203770">
    <ele>66.1</ele>
    <time>2020-06-14T08:39:18Z</time>
   </trkpt>
   <trkpt lat="51.1132110" lon="5.4204630">
    <ele>66.2</ele>
    <time>2020-06-14T08:39:19Z</time>
   </trkpt>
   <trkpt lat="51.1132300" lon="5.4205540">
    <ele>66.3</ele>
    <time>2020-06-14T08:39:20Z</time>
   </trkpt>
   <trkpt lat="51.1132380" lon="5.4206390">
    <ele>66.4</ele>
    <time>2020-06-14T08:39:21Z</time>
   </trkpt>
   <trkpt lat="51.1132460" lon="5.4207290">
    <ele>66.4</ele>
    <time>2020-06-14T08:39:22Z</time>
   </trkpt>
   <trkpt lat="51.1132540" lon="5.4208070">
    <ele>66.5</ele>
    <time>2020-06-14T08:39:23Z</time>
   </trkpt>
   <trkpt lat="51.1132610" lon="5.4208740">
    <ele>66.6</ele>
    <time>2020-06-14T08:39:24Z</time>
   </trkpt>
   <trkpt lat="51.1132740" lon="5.4209580">
    <ele>66.6</ele>
    <time>2020-06-14T08:39:25Z</time>
   </trkpt>
   <trkpt lat="51.1132890" lon="5.4210720">
    <ele>66.6</ele>
    <time>2020-06-14T08:39:26Z</time>
   </trkpt>
   <trkpt lat="51.1133080" lon="5.4211730">
    <ele>66.5</ele>
    <time>2020-06-14T08:39:27Z</time>
   </trkpt>
   <trkpt lat="51.1133410" lon="5.4212620">
    <ele>66.4</ele>
    <time>2020-06-14T08:39:28Z</time>
   </trkpt>
   <trkpt lat="51.1133850" lon="5.4213410">
    <ele>66.3</ele>
    <time>2020-06-14T08:39:29Z</time>
   </trkpt>
   <trkpt lat="51.1134400" lon="5.4214350">
    <ele>66.2</ele>
    <time>2020-06-14T08:39:30Z</time>
   </trkpt>
   <trkpt lat="51.1134930" lon="5.4215390">
    <ele>66.1</ele>
    <time>2020-06-14T08:39:31Z</time>
   </trkpt>
   <trkpt lat="51.1135430" lon="5.4216300">
    <ele>66.1</ele>
    <time>2020-06-14T08:39:32Z</time>
   </trkpt>
   <trkpt lat="51.1135930" lon="5.4217220">
    <ele>66.0</ele>
    <time>2020-06-14T08:39:33Z</time>
   </trkpt>
   <trkpt lat="51.1136440" lon="5.4218130">
    <ele>66.0</ele>
    <time>2020-06-14T08:39:34Z</time>
   </trkpt>
   <trkpt lat="51.1136940" lon="5.4219190">
    <ele>65.9</ele>
    <time>2020-06-14T08:39:35Z</time>
   </trkpt>
   <trkpt lat="51.1137460" lon="5.4220260">
    <ele>65.9</ele>
    <time>2020-06-14T08:39:36Z</time>
   </trkpt>
   <trkpt lat="51.1138000" lon="5.4221350">
    <ele>65.9</ele>
    <time>2020-06-14T08:39:37Z</time>
   </trkpt>
   <trkpt lat="51.1138490" lon="5.4222450">
    <ele>65.8</ele>
    <time>2020-06-14T08:39:38Z</time>
   </trkpt>
   <trkpt lat="51.1138960" lon="5.4223700">
    <ele>65.7</ele>
    <time>2020-06-14T08:39:39Z</time>
   </trkpt>
   <trkpt lat="51.1139430" lon="5.4224870">
    <ele>65.7</ele>
    <time>2020-06-14T08:39:40Z</time>
   </trkpt>
   <trkpt lat="51.1139840" lon="5.4225890">
    <ele>65.7</ele>
    <time>2020-06-14T08:39:41Z</time>
   </trkpt>
   <trkpt lat="51.1140280" lon="5.4226870">
    <ele>65.7</ele>
    <time>2020-06-14T08:39:42Z</time>
   </trkpt>
   <trkpt lat="51.1140620" lon="5.4227660">
    <ele>65.7</ele>
    <time>2020-06-14T08:39:43Z</time>
   </trkpt>
   <trkpt lat="51.1140970" lon="5.4228470">
    <ele>65.8</ele>
    <time>2020-06-14T08:39:44Z</time>
   </trkpt>
   <trkpt lat="51.1141290" lon="5.4229210">
    <ele>65.8</ele>
    <time>2020-06-14T08:39:45Z</time>
   </trkpt>
   <trkpt lat="51.1141630" lon="5.4229950">
    <ele>65.9</ele>
    <time>2020-06-14T08:39:46Z</time>
   </trkpt>
   <trkpt lat="51.1141920" lon="5.4230640">
    <ele>65.9</ele>
    <time>2020-06-14T08:39:47Z</time>
   </trkpt>
   <trkpt lat="51.1142270" lon="5.4231350">
    <ele>66.0</ele>
    <time>2020-06-14T08:39:48Z</time>
   </trkpt>
   <trkpt lat="51.1142630" lon="5.4231970">
    <ele>66.1</ele>
    <time>2020-06-14T08:39:49Z</time>
   </trkpt>
   <trkpt lat="51.1143010" lon="5.4232550">
    <ele>66.0</ele>
    <time>2020-06-14T08:39:50Z</time>
   </trkpt>
   <trkpt lat="51.1143400" lon="5.4233060">
    <ele>66.0</ele>
    <time>2020-06-14T08:39:51Z</time>
   </trkpt>
   <trkpt lat="51.1143890" lon="5.4233410">
    <ele>65.9</ele>
    <time>2020-06-14T08:39:52Z</time>
   </trkpt>
   <trkpt lat="51.1144440" lon="5.4233670">
    <ele>65.9</ele>
    <time>2020-06-14T08:39:53Z</time>
   </trkpt>
   <trkpt lat="51.1145120" lon="5.4233790">
    <ele>65.8</ele>
    <time>2020-06-14T08:39:54Z</time>
   </trkpt>
   <trkpt lat="51.1145860" lon="5.4233980">
    <ele>65.7</ele>
    <time>2020-06-14T08:39:55Z</time>
   </trkpt>
   <trkpt lat="51.1146610" lon="5.4234260">
    <ele>65.7</ele>
    <time>2020-06-14T08:39:56Z</time>
   </trkpt>
   <trkpt lat="51.1147360" lon="5.4234630">
    <ele>65.6</ele>
    <time>2020-06-14T08:39:57Z</time>
   </trkpt>
   <trkpt lat="51.1148260" lon="5.4234900">
    <ele>65.6</ele>
    <time>2020-06-14T08:39:58Z</time>
   </trkpt>
   <trkpt lat="51.1149170" lon="5.4235170">
    <ele>65.5</ele>
    <time>2020-06-14T08:39:59Z</time>
   </trkpt>
   <trkpt lat="51.1150110" lon="5.4235450">
    <ele>65.5</ele>
    <time>2020-06-14T08:40:00Z</time>
   </trkpt>
   <trkpt lat="51.1151060" lon="5.4235640">
    <ele>65.4</ele>
    <time>2020-06-14T08:40:01Z</time>
   </trkpt>
   <trkpt lat="51.1152040" lon="5.4235680">
    <ele>65.4</ele>
    <time>2020-06-14T08:40:02Z</time>
   </trkpt>
   <trkpt lat="51.1153050" lon="5.4235620">
    <ele>65.4</ele>
    <time>2020-06-14T08:40:03Z</time>
   </trkpt>
   <trkpt lat="51.1153980" lon="5.4235440">
    <ele>65.4</ele>
    <time>2020-06-14T08:40:04Z</time>
   </trkpt>
   <trkpt lat="51.1154930" lon="5.4235210">
    <ele>65.4</ele>
    <time>2020-06-14T08:40:05Z</time>
   </trkpt>
   <trkpt lat="51.1155920" lon="5.4235000">
    <ele>65.3</ele>
    <time>2020-06-14T08:40:06Z</time>
   </trkpt>
   <trkpt lat="51.1156770" lon="5.4234740">
    <ele>65.3</ele>
    <time>2020-06-14T08:40:07Z</time>
   </trkpt>
   <trkpt lat="51.1157610" lon="5.4234100">
    <ele>65.3</ele>
    <time>2020-06-14T08:40:08Z</time>
   </trkpt>
   <trkpt lat="51.1158430" lon="5.4233880">
    <ele>65.3</ele>
    <time>2020-06-14T08:40:09Z</time>
   </trkpt>
   <trkpt lat="51.1159080" lon="5.4233760">
    <ele>65.3</ele>
    <time>2020-06-14T08:40:10Z</time>
   </trkpt>
   <trkpt lat="51.1159750" lon="5.4233620">
    <ele>65.4</ele>
    <time>2020-06-14T08:40:11Z</time>
   </trkpt>
   <trkpt lat="51.1160520" lon="5.4233400">
    <ele>65.4</ele>
    <time>2020-06-14T08:40:12Z</time>
   </trkpt>
   <trkpt lat="51.1161220" lon="5.4233220">
    <ele>65.4</ele>
    <time>2020-06-14T08:40:13Z</time>
   </trkpt>
   <trkpt lat="51.1161830" lon="5.4233080">
    <ele>65.4</ele>
    <time>2020-06-14T08:40:14Z</time>
   </trkpt>
   <trkpt lat="51.1162450" lon="5.4232960">
    <ele>65.4</ele>
    <time>2020-06-14T08:40:15Z</time>
   </trkpt>
   <trkpt lat="51.1163030" lon="5.4232850">
    <ele>65.5</ele>
    <time>2020-06-14T08:40:16Z</time>
   </trkpt>
   <trkpt lat="51.1163580" lon="5.4232730">
    <ele>65.5</ele>
    <time>2020-06-14T08:40:17Z</time>
   </trkpt>
   <trkpt lat="51.1164000" lon="5.4232600">
    <ele>65.6</ele>
    <time>2020-06-14T08:40:18Z</time>
   </trkpt>
   <trkpt lat="51.1164390" lon="5.4232530">
    <ele>65.6</ele>
    <time>2020-06-14T08:40:19Z</time>
   </trkpt>
   <trkpt lat="51.1164820" lon="5.4232530">
    <ele>65.8</ele>
    <time>2020-06-14T08:40:20Z</time>
   </trkpt>
   <trkpt lat="51.1165230" lon="5.4232600">
    <ele>65.6</ele>
    <time>2020-06-14T08:40:21Z</time>
   </trkpt>
   <trkpt lat="51.1165640" lon="5.4233000">
    <ele>65.5</ele>
    <time>2020-06-14T08:40:22Z</time>
   </trkpt>
   <trkpt lat="51.1166000" lon="5.4233780">
    <ele>65.3</ele>
    <time>2020-06-14T08:40:23Z</time>
   </trkpt>
   <trkpt lat="51.1166210" lon="5.4234680">
    <ele>65.2</ele>
    <time>2020-06-14T08:40:24Z</time>
   </trkpt>
   <trkpt lat="51.1166320" lon="5.4235840">
    <ele>64.9</ele>
    <time>2020-06-14T08:40:25Z</time>
   </trkpt>
   <trkpt lat="51.1166390" lon="5.4236990">
    <ele>64.7</ele>
    <time>2020-06-14T08:40:26Z</time>
   </trkpt>
   <trkpt lat="51.1166390" lon="5.4238170">
    <ele>64.6</ele>
    <time>2020-06-14T08:40:27Z</time>
   </trkpt>
   <trkpt lat="51.1165540" lon="5.4239680">
    <ele>64.4</ele>
    <time>2020-06-14T08:40:28Z</time>
   </trkpt>
   <trkpt lat="51.1165540" lon="5.4241100">
    <ele>64.3</ele>
    <time>2020-06-14T08:40:29Z</time>
   </trkpt>
   <trkpt lat="51.1165630" lon="5.4242500">
    <ele>64.2</ele>
    <time>2020-06-14T08:40:30Z</time>
   </trkpt>
   <trkpt lat="51.1165700" lon="5.4243840">
    <ele>64.1</ele>
    <time>2020-06-14T08:40:31Z</time>
   </trkpt>
   <trkpt lat="51.1165760" lon="5.4245160">
    <ele>64.0</ele>
    <time>2020-06-14T08:40:32Z</time>
   </trkpt>
   <trkpt lat="51.1165870" lon="5.4246470">
    <ele>63.9</ele>
    <time>2020-06-14T08:40:33Z</time>
   </trkpt>
   <trkpt lat="51.1165950" lon="5.4247750">
    <ele>63.8</ele>
    <time>2020-06-14T08:40:34Z</time>
   </trkpt>
   <trkpt lat="51.1166020" lon="5.4249000">
    <ele>63.8</ele>
    <time>2020-06-14T08:40:35Z</time>
   </trkpt>
   <trkpt lat="51.1166090" lon="5.4250210">
    <ele>63.7</ele>
    <time>2020-06-14T08:40:36Z</time>
   </trkpt>
   <trkpt lat="51.1166070" lon="5.4251470">
    <ele>63.7</ele>
    <time>2020-06-14T08:40:37Z</time>
   </trkpt>
   <trkpt lat="51.1166190" lon="5.4252680">
    <ele>63.6</ele>
    <time>2020-06-14T08:40:38Z</time>
   </trkpt>
   <trkpt lat="51.1166510" lon="5.4253930">
    <ele>63.6</ele>
    <time>2020-06-14T08:40:39Z</time>
   </trkpt>
   <trkpt lat="51.1166850" lon="5.4255040">
    <ele>63.6</ele>
    <time>2020-06-14T08:40:40Z</time>
   </trkpt>
   <trkpt lat="51.1167210" lon="5.4256070">
    <ele>63.5</ele>
    <time>2020-06-14T08:40:41Z</time>
   </trkpt>
   <trkpt lat="51.1167680" lon="5.4257050">
    <ele>63.5</ele>
    <time>2020-06-14T08:40:42Z</time>
   </trkpt>
   <trkpt lat="51.1168140" lon="5.4258020">
    <ele>63.5</ele>
    <time>2020-06-14T08:40:43Z</time>
   </trkpt>
   <trkpt lat="51.1168570" lon="5.4258920">
    <ele>63.6</ele>
    <time>2020-06-14T08:40:44Z</time>
   </trkpt>
   <trkpt lat="51.1168940" lon="5.4259780">
    <ele>63.7</ele>
    <time>2020-06-14T08:40:45Z</time>
   </trkpt>
   <trkpt lat="51.1169240" lon="5.4260580">
    <ele>63.8</ele>
    <time>2020-06-14T08:40:46Z</time>
   </trkpt>
   <trkpt lat="51.1169530" lon="5.4261300">
    <ele>63.9</ele>
    <time>2020-06-14T08:40:47Z</time>
   </trkpt>
   <trkpt lat="51.1169940" lon="5.4261850">
    <ele>64.0</ele>
    <time>2020-06-14T08:40:48Z</time>
   </trkpt>
   <trkpt lat="51.1170400" lon="5.4262190">
    <ele>64.1</ele>
    <time>2020-06-14T08:40:49Z</time>
   </trkpt>
   <trkpt lat="51.1170960" lon="5.4262400">
    <ele>64.2</ele>
    <time>2020-06-14T08:40:50Z</time>
   </trkpt>
   <trkpt lat="51.1171600" lon="5.4261950">
    <ele>64.2</ele>
    <time>2020-06-14T08:40:51Z</time>
   </trkpt>
   <trkpt lat="51.1172370" lon="5.4261710">
    <ele>64.2</ele>
    <time>2020-06-14T08:40:52Z</time>
   </trkpt>
   <trkpt lat="51.1173190" lon="5.4261470">
    <ele>64.2</ele>
    <time>2020-06-14T08:40:53Z</time>
   </trkpt>
   <trkpt lat="51.1173970" lon="5.4261190">
    <ele>64.2</ele>
    <time>2020-06-14T08:40:54Z</time>
   </trkpt>
   <trkpt lat="51.1174670" lon="5.4260660">
    <ele>64.2</ele>
    <time>2020-06-14T08:40:55Z</time>
   </trkpt>
   <trkpt lat="51.1175420" lon="5.4260190">
    <ele>64.2</ele>
    <time>2020-06-14T08:40:56Z</time>
   </trkpt>
   <trkpt lat="51.1176230" lon="5.4259730">
    <ele>64.3</ele>
    <time>2020-06-14T08:40:57Z</time>
   </trkpt>
   <trkpt lat="51.1177070" lon="5.4259260">
    <ele>64.2</ele>
    <time>2020-06-14T08:40:58Z</time>
   </trkpt>
   <trkpt lat="51.1177950" lon="5.4258940">
    <ele>64.2</ele>
    <time>2020-06-14T08:40:59Z</time>
   </trkpt>
   <trkpt lat="51.1178820" lon="5.4258620">
    <ele>64.1</ele>
    <time>2020-06-14T08:41:00Z</time>
   </trkpt>
   <trkpt lat="51.1179710" lon="5.4258260">
    <ele>64.1</ele>
    <time>2020-06-14T08:41:01Z</time>
   </trkpt>
   <trkpt lat="51.1180600" lon="5.4257880">
    <ele>64.1</ele>
    <time>2020-06-14T08:41:02Z</time>
   </trkpt>
   <trkpt lat="51.1181460" lon="5.4257460">
    <ele>64.0</ele>
    <time>2020-06-14T08:41:03Z</time>
   </trkpt>
   <trkpt lat="51.1182250" lon="5.4257110">
    <ele>64.0</ele>
    <time>2020-06-14T08:41:04Z</time>
   </trkpt>
   <trkpt lat="51.1183070" lon="5.4256840">
    <ele>64.0</ele>
    <time>2020-06-14T08:41:05Z</time>
   </trkpt>
   <trkpt lat="51.1183920" lon="5.4256520">
    <ele>64.0</ele>
    <time>2020-06-14T08:41:06Z</time>
   </trkpt>
   <trkpt lat="51.1184740" lon="5.4256240">
    <ele>64.0</ele>
    <time>2020-06-14T08:41:07Z</time>
   </trkpt>
   <trkpt lat="51.1185640" lon="5.4255960">
    <ele>64.0</ele>
    <time>2020-06-14T08:41:08Z</time>
   </trkpt>
   <trkpt lat="51.1186600" lon="5.4255800">
    <ele>64.0</ele>
    <time>2020-06-14T08:41:09Z</time>
   </trkpt>
   <trkpt lat="51.1187540" lon="5.4255950">
    <ele>64.0</ele>
    <time>2020-06-14T08:41:10Z</time>
   </trkpt>
   <trkpt lat="51.1188410" lon="5.4255980">
    <ele>64.0</ele>
    <time>2020-06-14T08:41:11Z</time>
   </trkpt>
   <trkpt lat="51.1189240" lon="5.4255950">
    <ele>64.0</ele>
    <time>2020-06-14T08:41:12Z</time>
   </trkpt>
   <trkpt lat="51.1190070" lon="5.4255950">
    <ele>64.0</ele>
    <time>2020-06-14T08:41:13Z</time>
   </trkpt>
   <trkpt lat="51.1190900" lon="5.4255900">
    <ele>64.0</ele>
    <time>2020-06-14T08:41:14Z</time>
   </trkpt>
   <trkpt lat="51.1191680" lon="5.4255970">
    <ele>64.0</ele>
    <time>2020-06-14T08:41:15Z</time>
   </trkpt>
   <trkpt lat="51.1192490" lon="5.4256010">
    <ele>64.0</ele>
    <time>2020-06-14T08:41:16Z</time>
   </trkpt>
   <trkpt lat="51.1193360" lon="5.4256080">
    <ele>64.0</ele>
    <time>2020-06-14T08:41:17Z</time>
   </trkpt>
   <trkpt lat="51.1194210" lon="5.4256120">
    <ele>64.0</ele>
    <time>2020-06-14T08:41:18Z</time>
   </trkpt>
   <trkpt lat="51.1195050" lon="5.4256230">
    <ele>64.0</ele>
    <time>2020-06-14T08:41:19Z</time>
   </trkpt>
   <trkpt lat="51.1195900" lon="5.4256420">
    <ele>63.9</ele>
    <time>2020-06-14T08:41:20Z</time>
   </trkpt>
   <trkpt lat="51.1196770" lon="5.4256680">
    <ele>63.9</ele>
    <time>2020-06-14T08:41:21Z</time>
   </trkpt>
   <trkpt lat="51.1197610" lon="5.4256910">
    <ele>63.9</ele>
    <time>2020-06-14T08:41:22Z</time>
   </trkpt>
   <trkpt lat="51.1198410" lon="5.4257190">
    <ele>63.9</ele>
    <time>2020-06-14T08:41:23Z</time>
   </trkpt>
   <trkpt lat="51.1199210" lon="5.4257430">
    <ele>63.8</ele>
    <time>2020-06-14T08:41:24Z</time>
   </trkpt>
   <trkpt lat="51.1199990" lon="5.4257770">
    <ele>63.8</ele>
    <time>2020-06-14T08:41:25Z</time>
   </trkpt>
   <trkpt lat="51.1200860" lon="5.4258120">
    <ele>63.8</ele>
    <time>2020-06-14T08:41:26Z</time>
   </trkpt>
   <trkpt lat="51.1201670" lon="5.4258410">
    <ele>63.7</ele>
    <time>2020-06-14T08:41:27Z</time>
   </trkpt>
   <trkpt lat="51.1202490" lon="5.4258630">
    <ele>63.7</ele>
    <time>2020-06-14T08:41:28Z</time>
   </trkpt>
   <trkpt lat="51.1203310" lon="5.4258810">
    <ele>63.7</ele>
    <time>2020-06-14T08:41:29Z</time>
   </trkpt>
   <trkpt lat="51.1204150" lon="5.4258950">
    <ele>63.7</ele>
    <time>2020-06-14T08:41:30Z</time>
   </trkpt>
   <trkpt lat="51.1204950" lon="5.4259100">
    <ele>63.7</ele>
    <time>2020-06-14T08:41:31Z</time>
   </trkpt>
   <trkpt lat="51.1205760" lon="5.4259310">
    <ele>63.7</ele>
    <time>2020-06-14T08:41:32Z</time>
   </trkpt>
   <trkpt lat="51.1206590" lon="5.4259490">
    <ele>63.7</ele>
    <time>2020-06-14T08:41:33Z</time>
   </trkpt>
   <trkpt lat="51.1207360" lon="5.4259850">
    <ele>63.7</ele>
    <time>2020-06-14T08:41:34Z</time>
   </trkpt>
   <trkpt lat="51.1208180" lon="5.4260220">
    <ele>63.7</ele>
    <time>2020-06-14T08:41:35Z</time>
   </trkpt>
   <trkpt lat="51.1208990" lon="5.4260570">
    <ele>63.7</ele>
    <time>2020-06-14T08:41:36Z</time>
   </trkpt>
   <trkpt lat="51.1209840" lon="5.4261010">
    <ele>63.7</ele>
    <time>2020-06-14T08:41:37Z</time>
   </trkpt>
   <trkpt lat="51.1210650" lon="5.4261420">
    <ele>63.7</ele>
    <time>2020-06-14T08:41:38Z</time>
   </trkpt>
   <trkpt lat="51.1211440" lon="5.4261930">
    <ele>63.6</ele>
    <time>2020-06-14T08:41:39Z</time>
   </trkpt>
   <trkpt lat="51.1212250" lon="5.4262400">
    <ele>63.6</ele>
    <time>2020-06-14T08:41:40Z</time>
   </trkpt>
   <trkpt lat="51.1213040" lon="5.4262900">
    <ele>63.6</ele>
    <time>2020-06-14T08:41:41Z</time>
   </trkpt>
   <trkpt lat="51.1213820" lon="5.4263340">
    <ele>63.6</ele>
    <time>2020-06-14T08:41:42Z</time>
   </trkpt>
   <trkpt lat="51.1214570" lon="5.4263790">
    <ele>63.6</ele>
    <time>2020-06-14T08:41:43Z</time>
   </trkpt>
   <trkpt lat="51.1215290" lon="5.4264260">
    <ele>63.6</ele>
    <time>2020-06-14T08:41:44Z</time>
   </trkpt>
   <trkpt lat="51.1216060" lon="5.4264680">
    <ele>63.6</ele>
    <time>2020-06-14T08:41:45Z</time>
   </trkpt>
   <trkpt lat="51.1216820" lon="5.4265060">
    <ele>63.6</ele>
    <time>2020-06-14T08:41:46Z</time>
   </trkpt>
   <trkpt lat="51.1217540" lon="5.4265480">
    <ele>63.6</ele>
    <time>2020-06-14T08:41:47Z</time>
   </trkpt>
   <trkpt lat="51.1218330" lon="5.4265850">
    <ele>63.6</ele>
    <time>2020-06-14T08:41:48Z</time>
   </trkpt>
   <trkpt lat="51.1219090" lon="5.4266280">
    <ele>63.6</ele>
    <time>2020-06-14T08:41:49Z</time>
   </trkpt>
   <trkpt lat="51.1219810" lon="5.4266780">
    <ele>63.6</ele>
    <time>2020-06-14T08:41:50Z</time>
   </trkpt>
   <trkpt lat="51.1220580" lon="5.4267290">
    <ele>63.5</ele>
    <time>2020-06-14T08:41:51Z</time>
   </trkpt>
   <trkpt lat="51.1221300" lon="5.4267780">
    <ele>63.5</ele>
    <time>2020-06-14T08:41:52Z</time>
   </trkpt>
   <trkpt lat="51.1222020" lon="5.4268290">
    <ele>63.5</ele>
    <time>2020-06-14T08:41:53Z</time>
   </trkpt>
   <trkpt lat="51.1222740" lon="5.4268730">
    <ele>63.5</ele>
    <time>2020-06-14T08:41:54Z</time>
   </trkpt>
   <trkpt lat="51.1223510" lon="5.4269220">
    <ele>63.5</ele>
    <time>2020-06-14T08:41:55Z</time>
   </trkpt>
   <trkpt lat="51.1224310" lon="5.4269800">
    <ele>63.4</ele>
    <time>2020-06-14T08:41:56Z</time>
   </trkpt>
   <trkpt lat="51.1225090" lon="5.4270330">
    <ele>63.4</ele>
    <time>2020-06-14T08:41:57Z</time>
   </trkpt>
   <trkpt lat="51.1225850" lon="5.4270820">
    <ele>63.4</ele>
    <time>2020-06-14T08:41:58Z</time>
   </trkpt>
   <trkpt lat="51.1226620" lon="5.4271260">
    <ele>63.3</ele>
    <time>2020-06-14T08:41:59Z</time>
   </trkpt>
   <trkpt lat="51.1227380" lon="5.4271660">
    <ele>63.3</ele>
    <time>2020-06-14T08:42:00Z</time>
   </trkpt>
   <trkpt lat="51.1228130" lon="5.4272130">
    <ele>63.2</ele>
    <time>2020-06-14T08:42:01Z</time>
   </trkpt>
   <trkpt lat="51.1228880" lon="5.4272570">
    <ele>63.2</ele>
    <time>2020-06-14T08:42:02Z</time>
   </trkpt>
   <trkpt lat="51.1229600" lon="5.4272980">
    <ele>63.2</ele>
    <time>2020-06-14T08:42:03Z</time>
   </trkpt>
   <trkpt lat="51.1230310" lon="5.4273390">
    <ele>63.1</ele>
    <time>2020-06-14T08:42:04Z</time>
   </trkpt>
   <trkpt lat="51.1231020" lon="5.4273790">
    <ele>63.1</ele>
    <time>2020-06-14T08:42:05Z</time>
   </trkpt>
   <trkpt lat="51.1231740" lon="5.4274290">
    <ele>63.1</ele>
    <time>2020-06-14T08:42:06Z</time>
   </trkpt>
   <trkpt lat="51.1232450" lon="5.4274890">
    <ele>63.0</ele>
    <time>2020-06-14T08:42:07Z</time>
   </trkpt>
   <trkpt lat="51.1233160" lon="5.4275480">
    <ele>63.0</ele>
    <time>2020-06-14T08:42:08Z</time>
   </trkpt>
   <trkpt lat="51.1233810" lon="5.4276090">
    <ele>63.0</ele>
    <time>2020-06-14T08:42:09Z</time>
   </trkpt>
   <trkpt lat="51.1234460" lon="5.4276590">
    <ele>62.9</ele>
    <time>2020-06-14T08:42:10Z</time>
   </trkpt>
   <trkpt lat="51.1235130" lon="5.4277120">
    <ele>62.9</ele>
    <time>2020-06-14T08:42:11Z</time>
   </trkpt>
   <trkpt lat="51.1235790" lon="5.4277740">
    <ele>62.9</ele>
    <time>2020-06-14T08:42:12Z</time>
   </trkpt>
   <trkpt lat="51.1236490" lon="5.4278320">
    <ele>62.9</ele>
    <time>2020-06-14T08:42:13Z</time>
   </trkpt>
   <trkpt lat="51.1237220" lon="5.4278870">
    <ele>62.9</ele>
    <time>2020-06-14T08:42:14Z</time>
   </trkpt>
   <trkpt lat="51.1238010" lon="5.4279440">
    <ele>62.8</ele>
    <time>2020-06-14T08:42:15Z</time>
   </trkpt>
   <trkpt lat="51.1238830" lon="5.4279980">
    <ele>62.8</ele>
    <time>2020-06-14T08:42:16Z</time>
   </trkpt>
   <trkpt lat="51.1239560" lon="5.4280530">
    <ele>62.8</ele>
    <time>2020-06-14T08:42:17Z</time>
   </trkpt>
   <trkpt lat="51.1240240" lon="5.4281100">
    <ele>62.7</ele>
    <time>2020-06-14T08:42:18Z</time>
   </trkpt>
   <trkpt lat="51.1240920" lon="5.4281700">
    <ele>62.7</ele>
    <time>2020-06-14T08:42:19Z</time>
   </trkpt>
   <trkpt lat="51.1241600" lon="5.4282340">
    <ele>62.6</ele>
    <time>2020-06-14T08:42:20Z</time>
   </trkpt>
   <trkpt lat="51.1242240" lon="5.4283030">
    <ele>62.6</ele>
    <time>2020-06-14T08:42:21Z</time>
   </trkpt>
   <trkpt lat="51.1242910" lon="5.4283780">
    <ele>62.6</ele>
    <time>2020-06-14T08:42:22Z</time>
   </trkpt>
   <trkpt lat="51.1243580" lon="5.4284500">
    <ele>62.6</ele>
    <time>2020-06-14T08:42:23Z</time>
   </trkpt>
   <trkpt lat="51.1244240" lon="5.4285260">
    <ele>62.6</ele>
    <time>2020-06-14T08:42:24Z</time>
   </trkpt>
   <trkpt lat="51.1244880" lon="5.4286040">
    <ele>62.5</ele>
    <time>2020-06-14T08:42:25Z</time>
   </trkpt>
   <trkpt lat="51.1245560" lon="5.4286860">
    <ele>62.5</ele>
    <time>2020-06-14T08:42:26Z</time>
   </trkpt>
   <trkpt lat="51.1246250" lon="5.4287630">
    <ele>62.4</ele>
    <time>2020-06-14T08:42:27Z</time>
   </trkpt>
   <trkpt lat="51.1246910" lon="5.4288430">
    <ele>62.4</ele>
    <time>2020-06-14T08:42:28Z</time>
   </trkpt>
   <trkpt lat="51.1247600" lon="5.4289250">
    <ele>62.4</ele>
    <time>2020-06-14T08:42:29Z</time>
   </trkpt>
   <trkpt lat="51.1248310" lon="5.4290030">
    <ele>62.4</ele>
    <time>2020-06-14T08:42:30Z</time>
   </trkpt>
   <trkpt lat="51.1249000" lon="5.4290840">
    <ele>62.3</ele>
    <time>2020-06-14T08:42:31Z</time>
   </trkpt>
   <trkpt lat="51.1249700" lon="5.4291620">
    <ele>62.3</ele>
    <time>2020-06-14T08:42:32Z</time>
   </trkpt>
   <trkpt lat="51.1250410" lon="5.4292350">
    <ele>62.2</ele>
    <time>2020-06-14T08:42:33Z</time>
   </trkpt>
   <trkpt lat="51.1251080" lon="5.4293080">
    <ele>62.2</ele>
    <time>2020-06-14T08:42:34Z</time>
   </trkpt>
   <trkpt lat="51.1251740" lon="5.4293760">
    <ele>62.1</ele>
    <time>2020-06-14T08:42:35Z</time>
   </trkpt>
   <trkpt lat="51.1252410" lon="5.4294410">
    <ele>62.0</ele>
    <time>2020-06-14T08:42:36Z</time>
   </trkpt>
   <trkpt lat="51.1253700" lon="5.4295740">
    <ele>61.9</ele>
    <time>2020-06-14T08:42:37Z</time>
   </trkpt>
   <trkpt lat="51.1254400" lon="5.4296360">
    <ele>61.8</ele>
    <time>2020-06-14T08:42:38Z</time>
   </trkpt>
   <trkpt lat="51.1255150" lon="5.4297050">
    <ele>61.8</ele>
    <time>2020-06-14T08:42:39Z</time>
   </trkpt>
   <trkpt lat="51.1255860" lon="5.4297730">
    <ele>61.7</ele>
    <time>2020-06-14T08:42:40Z</time>
   </trkpt>
   <trkpt lat="51.1256610" lon="5.4298330">
    <ele>61.6</ele>
    <time>2020-06-14T08:42:41Z</time>
   </trkpt>
   <trkpt lat="51.1257320" lon="5.4299000">
    <ele>61.6</ele>
    <time>2020-06-14T08:42:42Z</time>
   </trkpt>
   <trkpt lat="51.1258020" lon="5.4299720">
    <ele>61.5</ele>
    <time>2020-06-14T08:42:43Z</time>
   </trkpt>
   <trkpt lat="51.1258690" lon="5.4300550">
    <ele>61.5</ele>
    <time>2020-06-14T08:42:44Z</time>
   </trkpt>
   <trkpt lat="51.1259410" lon="5.4301390">
    <ele>61.5</ele>
    <time>2020-06-14T08:42:45Z</time>
   </trkpt>
   <trkpt lat="51.1260110" lon="5.4302320">
    <ele>61.5</ele>
    <time>2020-06-14T08:42:46Z</time>
   </trkpt>
   <trkpt lat="51.1260740" lon="5.4303240">
    <ele>61.5</ele>
    <time>2020-06-14T08:42:47Z</time>
   </trkpt>
   <trkpt lat="51.1261370" lon="5.4304120">
    <ele>61.4</ele>
    <time>2020-06-14T08:42:48Z</time>
   </trkpt>
   <trkpt lat="51.1262000" lon="5.4304940">
    <ele>61.4</ele>
    <time>2020-06-14T08:42:49Z</time>
   </trkpt>
   <trkpt lat="51.1262640" lon="5.4305730">
    <ele>61.3</ele>
    <time>2020-06-14T08:42:50Z</time>
   </trkpt>
   <trkpt lat="51.1263240" lon="5.4306590">
    <ele>61.3</ele>
    <time>2020-06-14T08:42:51Z</time>
   </trkpt>
   <trkpt lat="51.1263770" lon="5.4307500">
    <ele>61.2</ele>
    <time>2020-06-14T08:42:52Z</time>
   </trkpt>
   <trkpt lat="51.1264260" lon="5.4308370">
    <ele>61.1</ele>
    <time>2020-06-14T08:42:53Z</time>
   </trkpt>
   <trkpt lat="51.1264770" lon="5.4309190">
    <ele>61.1</ele>
    <time>2020-06-14T08:42:54Z</time>
   </trkpt>
   <trkpt lat="51.1265200" lon="5.4310070">
    <ele>61.0</ele>
    <time>2020-06-14T08:42:55Z</time>
   </trkpt>
   <trkpt lat="51.1265630" lon="5.4311020">
    <ele>61.0</ele>
    <time>2020-06-14T08:42:56Z</time>
   </trkpt>
   <trkpt lat="51.1266090" lon="5.4311960">
    <ele>61.0</ele>
    <time>2020-06-14T08:42:57Z</time>
   </trkpt>
   <trkpt lat="51.1266480" lon="5.4312990">
    <ele>60.9</ele>
    <time>2020-06-14T08:42:58Z</time>
   </trkpt>
   <trkpt lat="51.1266850" lon="5.4314060">
    <ele>60.8</ele>
    <time>2020-06-14T08:42:59Z</time>
   </trkpt>
   <trkpt lat="51.1267130" lon="5.4315240">
    <ele>60.8</ele>
    <time>2020-06-14T08:43:00Z</time>
   </trkpt>
   <trkpt lat="51.1267470" lon="5.4316370">
    <ele>60.7</ele>
    <time>2020-06-14T08:43:01Z</time>
   </trkpt>
   <trkpt lat="51.1267820" lon="5.4317470">
    <ele>60.6</ele>
    <time>2020-06-14T08:43:02Z</time>
   </trkpt>
   <trkpt lat="51.1268130" lon="5.4318600">
    <ele>60.5</ele>
    <time>2020-06-14T08:43:03Z</time>
   </trkpt>
   <trkpt lat="51.1268440" lon="5.4319710">
    <ele>60.4</ele>
    <time>2020-06-14T08:43:04Z</time>
   </trkpt>
   <trkpt lat="51.1268750" lon="5.4320820">
    <ele>60.3</ele>
    <time>2020-06-14T08:43:05Z</time>
   </trkpt>
   <trkpt lat="51.1268970" lon="5.4321960">
    <ele>60.2</ele>
    <time>2020-06-14T08:43:06Z</time>
   </trkpt>
   <trkpt lat="51.1269240" lon="5.4323060">
    <ele>60.2</ele>
    <time>2020-06-14T08:43:07Z</time>
   </trkpt>
   <trkpt lat="51.1269490" lon="5.4324130">
    <ele>60.2</ele>
    <time>2020-06-14T08:43:08Z</time>
   </trkpt>
   <trkpt lat="51.1269700" lon="5.4325200">
    <ele>60.2</ele>
    <time>2020-06-14T08:43:09Z</time>
   </trkpt>
   <trkpt lat="51.1269840" lon="5.4326360">
    <ele>60.2</ele>
    <time>2020-06-14T08:43:10Z</time>
   </trkpt>
   <trkpt lat="51.1270040" lon="5.4327520">
    <ele>60.2</ele>
    <time>2020-06-14T08:43:11Z</time>
   </trkpt>
   <trkpt lat="51.1270220" lon="5.4328660">
    <ele>60.3</ele>
    <time>2020-06-14T08:43:12Z</time>
   </trkpt>
   <trkpt lat="51.1270500" lon="5.4329660">
    <ele>60.3</ele>
    <time>2020-06-14T08:43:13Z</time>
   </trkpt>
   <trkpt lat="51.1270760" lon="5.4330540">
    <ele>60.5</ele>
    <time>2020-06-14T08:43:14Z</time>
   </trkpt>
   <trkpt lat="51.1271030" lon="5.4331230">
    <ele>60.6</ele>
    <time>2020-06-14T08:43:15Z</time>
   </trkpt>
   <trkpt lat="51.1271270" lon="5.4331800">
    <ele>60.7</ele>
    <time>2020-06-14T08:43:16Z</time>
   </trkpt>
   <trkpt lat="51.1271440" lon="5.4332270">
    <ele>60.9</ele>
    <time>2020-06-14T08:43:17Z</time>
   </trkpt>
   <trkpt lat="51.1271610" lon="5.4332800">
    <ele>61.0</ele>
    <time>2020-06-14T08:43:18Z</time>
   </trkpt>
   <trkpt lat="51.1271660" lon="5.4332960">
    <ele>61.0</ele>
    <time>2020-06-14T08:43:19Z</time>
   </trkpt>
   <trkpt lat="51.1271970" lon="5.4333370">
    <ele>61.2</ele>
    <time>2020-06-14T08:43:20Z</time>
   </trkpt>
   <trkpt lat="51.1272090" lon="5.4333490">
    <ele>61.2</ele>
    <time>2020-06-14T08:43:21Z</time>
   </trkpt>
   <trkpt lat="51.1272270" lon="5.4333850">
    <ele>61.3</ele>
    <time>2020-06-14T08:43:22Z</time>
   </trkpt>
   <trkpt lat="51.1272340" lon="5.4334300">
    <ele>61.5</ele>
    <time>2020-06-14T08:43:23Z</time>
   </trkpt>
   <trkpt lat="51.1272250" lon="5.4334740">
    <ele>61.5</ele>
    <time>2020-06-14T08:43:24Z</time>
   </trkpt>
   <trkpt lat="51.1271920" lon="5.4335140">
    <ele>61.5</ele>
    <time>2020-06-14T08:43:25Z</time>
   </trkpt>
   <trkpt lat="51.1271470" lon="5.4335440">
    <ele>61.4</ele>
    <time>2020-06-14T08:43:26Z</time>
   </trkpt>
   <trkpt lat="51.1270980" lon="5.4335820">
    <ele>61.4</ele>
    <time>2020-06-14T08:43:27Z</time>
   </trkpt>
   <trkpt lat="51.1270460" lon="5.4336280">
    <ele>61.3</ele>
    <time>2020-06-14T08:43:28Z</time>
   </trkpt>
   <trkpt lat="51.1269850" lon="5.4336730">
    <ele>61.2</ele>
    <time>2020-06-14T08:43:29Z</time>
   </trkpt>
   <trkpt lat="51.1269160" lon="5.4337230">
    <ele>61.1</ele>
    <time>2020-06-14T08:43:30Z</time>
   </trkpt>
   <trkpt lat="51.1268450" lon="5.4337830">
    <ele>61.1</ele>
    <time>2020-06-14T08:43:31Z</time>
   </trkpt>
   <trkpt lat="51.1267720" lon="5.4338420">
    <ele>61.1</ele>
    <time>2020-06-14T08:43:32Z</time>
   </trkpt>
   <trkpt lat="51.1266950" lon="5.4339030">
    <ele>61.0</ele>
    <time>2020-06-14T08:43:33Z</time>
   </trkpt>
   <trkpt lat="51.1266200" lon="5.4339600">
    <ele>61.0</ele>
    <time>2020-06-14T08:43:34Z</time>
   </trkpt>
   <trkpt lat="51.1265420" lon="5.4340140">
    <ele>61.0</ele>
    <time>2020-06-14T08:43:35Z</time>
   </trkpt>
   <trkpt lat="51.1264660" lon="5.4340750">
    <ele>61.1</ele>
    <time>2020-06-14T08:43:36Z</time>
   </trkpt>
   <trkpt lat="51.1263880" lon="5.4341260">
    <ele>61.1</ele>
    <time>2020-06-14T08:43:37Z</time>
   </trkpt>
   <trkpt lat="51.1263080" lon="5.4341800">
    <ele>61.1</ele>
    <time>2020-06-14T08:43:38Z</time>
   </trkpt>
   <trkpt lat="51.1262250" lon="5.4342350">
    <ele>61.2</ele>
    <time>2020-06-14T08:43:39Z</time>
   </trkpt>
   <trkpt lat="51.1261420" lon="5.4342930">
    <ele>61.2</ele>
    <time>2020-06-14T08:43:40Z</time>
   </trkpt>
   <trkpt lat="51.1260660" lon="5.4343500">
    <ele>61.3</ele>
    <time>2020-06-14T08:43:41Z</time>
   </trkpt>
   <trkpt lat="51.1259930" lon="5.4344080">
    <ele>61.3</ele>
    <time>2020-06-14T08:43:42Z</time>
   </trkpt>
   <trkpt lat="51.1259280" lon="5.4344620">
    <ele>61.3</ele>
    <time>2020-06-14T08:43:43Z</time>
   </trkpt>
   <trkpt lat="51.1258630" lon="5.4345210">
    <ele>61.4</ele>
    <time>2020-06-14T08:43:44Z</time>
   </trkpt>
   <trkpt lat="51.1258070" lon="5.4345610">
    <ele>61.5</ele>
    <time>2020-06-14T08:43:45Z</time>
   </trkpt>
   <trkpt lat="51.1257500" lon="5.4346010">
    <ele>61.5</ele>
    <time>2020-06-14T08:43:46Z</time>
   </trkpt>
   <trkpt lat="51.1256890" lon="5.4346460">
    <ele>61.6</ele>
    <time>2020-06-14T08:43:47Z</time>
   </trkpt>
   <trkpt lat="51.1256210" lon="5.4346900">
    <ele>61.6</ele>
    <time>2020-06-14T08:43:48Z</time>
   </trkpt>
   <trkpt lat="51.1255520" lon="5.4347360">
    <ele>61.7</ele>
    <time>2020-06-14T08:43:49Z</time>
   </trkpt>
   <trkpt lat="51.1254790" lon="5.4347870">
    <ele>61.7</ele>
    <time>2020-06-14T08:43:50Z</time>
   </trkpt>
   <trkpt lat="51.1254130" lon="5.4348320">
    <ele>61.8</ele>
    <time>2020-06-14T08:43:51Z</time>
   </trkpt>
   <trkpt lat="51.1253500" lon="5.4348810">
    <ele>61.8</ele>
    <time>2020-06-14T08:43:52Z</time>
   </trkpt>
   <trkpt lat="51.1252830" lon="5.4349260">
    <ele>61.9</ele>
    <time>2020-06-14T08:43:53Z</time>
   </trkpt>
   <trkpt lat="51.1252150" lon="5.4349730">
    <ele>62.0</ele>
    <time>2020-06-14T08:43:54Z</time>
   </trkpt>
   <trkpt lat="51.1251410" lon="5.4350250">
    <ele>62.0</ele>
    <time>2020-06-14T08:43:55Z</time>
   </trkpt>
   <trkpt lat="51.1250640" lon="5.4350870">
    <ele>62.1</ele>
    <time>2020-06-14T08:43:56Z</time>
   </trkpt>
   <trkpt lat="51.1249950" lon="5.4351450">
    <ele>62.1</ele>
    <time>2020-06-14T08:43:57Z</time>
   </trkpt>
   <trkpt lat="51.1249410" lon="5.4351970">
    <ele>62.1</ele>
    <time>2020-06-14T08:43:58Z</time>
   </trkpt>
   <trkpt lat="51.1248830" lon="5.4352420">
    <ele>62.2</ele>
    <time>2020-06-14T08:43:59Z</time>
   </trkpt>
   <trkpt lat="51.1248070" lon="5.4352860">
    <ele>62.2</ele>
    <time>2020-06-14T08:44:00Z</time>
   </trkpt>
   <trkpt lat="51.1247310" lon="5.4353230">
    <ele>62.2</ele>
    <time>2020-06-14T08:44:01Z</time>
   </trkpt>
   <trkpt lat="51.1246580" lon="5.4353590">
    <ele>62.3</ele>
    <time>2020-06-14T08:44:02Z</time>
   </trkpt>
   <trkpt lat="51.1245890" lon="5.4353920">
    <ele>62.3</ele>
    <time>2020-06-14T08:44:03Z</time>
   </trkpt>
   <trkpt lat="51.1245230" lon="5.4354180">
    <ele>62.3</ele>
    <time>2020-06-14T08:44:04Z</time>
   </trkpt>
   <trkpt lat="51.1244520" lon="5.4354450">
    <ele>62.4</ele>
    <time>2020-06-14T08:44:05Z</time>
   </trkpt>
   <trkpt lat="51.1243840" lon="5.4354750">
    <ele>62.4</ele>
    <time>2020-06-14T08:44:06Z</time>
   </trkpt>
   <trkpt lat="51.1243100" lon="5.4355110">
    <ele>62.4</ele>
    <time>2020-06-14T08:44:07Z</time>
   </trkpt>
   <trkpt lat="51.1242380" lon="5.4355450">
    <ele>62.4</ele>
    <time>2020-06-14T08:44:08Z</time>
   </trkpt>
   <trkpt lat="51.1241720" lon="5.4355790">
    <ele>62.4</ele>
    <time>2020-06-14T08:44:09Z</time>
   </trkpt>
   <trkpt lat="51.1241030" lon="5.4356180">
    <ele>62.4</ele>
    <time>2020-06-14T08:44:10Z</time>
   </trkpt>
   <trkpt lat="51.1240340" lon="5.4356540">
    <ele>62.5</ele>
    <time>2020-06-14T08:44:11Z</time>
   </trkpt>
   <trkpt lat="51.1239670" lon="5.4356920">
    <ele>62.5</ele>
    <time>2020-06-14T08:44:12Z</time>
   </trkpt>
   <trkpt lat="51.1239010" lon="5.4357320">
    <ele>62.5</ele>
    <time>2020-06-14T08:44:13Z</time>
   </trkpt>
   <trkpt lat="51.1238370" lon="5.4357700">
    <ele>62.6</ele>
    <time>2020-06-14T08:44:14Z</time>
   </trkpt>
   <trkpt lat="51.1237720" lon="5.4358070">
    <ele>62.6</ele>
    <time>2020-06-14T08:44:15Z</time>
   </trkpt>
   <trkpt lat="51.1237040" lon="5.4358440">
    <ele>62.6</ele>
    <time>2020-06-14T08:44:16Z</time>
   </trkpt>
   <trkpt lat="51.1236350" lon="5.4358790">
    <ele>62.6</ele>
    <time>2020-06-14T08:44:17Z</time>
   </trkpt>
   <trkpt lat="51.1235650" lon="5.4359130">
    <ele>62.7</ele>
    <time>2020-06-14T08:44:18Z</time>
   </trkpt>
   <trkpt lat="51.1234950" lon="5.4359440">
    <ele>62.7</ele>
    <time>2020-06-14T08:44:19Z</time>
   </trkpt>
   <trkpt lat="51.1234320" lon="5.4359830">
    <ele>62.7</ele>
    <time>2020-06-14T08:44:20Z</time>
   </trkpt>
   <trkpt lat="51.1233660" lon="5.4360150">
    <ele>62.7</ele>
    <time>2020-06-14T08:44:21Z</time>
   </trkpt>
   <trkpt lat="51.1232970" lon="5.4360480">
    <ele>62.8</ele>
    <time>2020-06-14T08:44:22Z</time>
   </trkpt>
   <trkpt lat="51.1232240" lon="5.4360820">
    <ele>62.8</ele>
    <time>2020-06-14T08:44:23Z</time>
   </trkpt>
   <trkpt lat="51.1231510" lon="5.4361140">
    <ele>62.8</ele>
    <time>2020-06-14T08:44:24Z</time>
   </trkpt>
   <trkpt lat="51.1230800" lon="5.4361500">
    <ele>62.8</ele>
    <time>2020-06-14T08:44:25Z</time>
   </trkpt>
   <trkpt lat="51.1230110" lon="5.4361800">
    <ele>62.8</ele>
    <time>2020-06-14T08:44:26Z</time>
   </trkpt>
   <trkpt lat="51.1229410" lon="5.4362130">
    <ele>62.9</ele>
    <time>2020-06-14T08:44:27Z</time>
   </trkpt>
   <trkpt lat="51.1228730" lon="5.4362460">
    <ele>62.9</ele>
    <time>2020-06-14T08:44:28Z</time>
   </trkpt>
   <trkpt lat="51.1228070" lon="5.4362800">
    <ele>63.0</ele>
    <time>2020-06-14T08:44:29Z</time>
   </trkpt>
   <trkpt lat="51.1227410" lon="5.4363120">
    <ele>63.0</ele>
    <time>2020-06-14T08:44:30Z</time>
   </trkpt>
   <trkpt lat="51.1226740" lon="5.4363440">
    <ele>63.0</ele>
    <time>2020-06-14T08:44:31Z</time>
   </trkpt>
   <trkpt lat="51.1226070" lon="5.4363760">
    <ele>63.0</ele>
    <time>2020-06-14T08:44:32Z</time>
   </trkpt>
   <trkpt lat="51.1225420" lon="5.4364120">
    <ele>63.1</ele>
    <time>2020-06-14T08:44:33Z</time>
   </trkpt>
   <trkpt lat="51.1224760" lon="5.4364460">
    <ele>63.1</ele>
    <time>2020-06-14T08:44:34Z</time>
   </trkpt>
   <trkpt lat="51.1224070" lon="5.4364790">
    <ele>63.2</ele>
    <time>2020-06-14T08:44:35Z</time>
   </trkpt>
   <trkpt lat="51.1223390" lon="5.4365180">
    <ele>63.2</ele>
    <time>2020-06-14T08:44:36Z</time>
   </trkpt>
   <trkpt lat="51.1222740" lon="5.4365550">
    <ele>63.2</ele>
    <time>2020-06-14T08:44:37Z</time>
   </trkpt>
   <trkpt lat="51.1222130" lon="5.4365960">
    <ele>63.3</ele>
    <time>2020-06-14T08:44:38Z</time>
   </trkpt>
   <trkpt lat="51.1221440" lon="5.4366350">
    <ele>63.3</ele>
    <time>2020-06-14T08:44:39Z</time>
   </trkpt>
   <trkpt lat="51.1220720" lon="5.4366720">
    <ele>63.4</ele>
    <time>2020-06-14T08:44:40Z</time>
   </trkpt>
   <trkpt lat="51.1220100" lon="5.4367190">
    <ele>63.5</ele>
    <time>2020-06-14T08:44:41Z</time>
   </trkpt>
   <trkpt lat="51.1219440" lon="5.4367620">
    <ele>63.5</ele>
    <time>2020-06-14T08:44:42Z</time>
   </trkpt>
   <trkpt lat="51.1218770" lon="5.4368050">
    <ele>63.6</ele>
    <time>2020-06-14T08:44:43Z</time>
   </trkpt>
   <trkpt lat="51.1218150" lon="5.4368490">
    <ele>63.6</ele>
    <time>2020-06-14T08:44:44Z</time>
   </trkpt>
   <trkpt lat="51.1217600" lon="5.4368990">
    <ele>63.7</ele>
    <time>2020-06-14T08:44:45Z</time>
   </trkpt>
   <trkpt lat="51.1217040" lon="5.4369540">
    <ele>63.7</ele>
    <time>2020-06-14T08:44:46Z</time>
   </trkpt>
   <trkpt lat="51.1216400" lon="5.4370120">
    <ele>63.7</ele>
    <time>2020-06-14T08:44:47Z</time>
   </trkpt>
   <trkpt lat="51.1215750" lon="5.4370640">
    <ele>63.7</ele>
    <time>2020-06-14T08:44:48Z</time>
   </trkpt>
   <trkpt lat="51.1215140" lon="5.4371110">
    <ele>63.8</ele>
    <time>2020-06-14T08:44:49Z</time>
   </trkpt>
   <trkpt lat="51.1214480" lon="5.4371580">
    <ele>63.8</ele>
    <time>2020-06-14T08:44:50Z</time>
   </trkpt>
   <trkpt lat="51.1213800" lon="5.4372080">
    <ele>63.8</ele>
    <time>2020-06-14T08:44:51Z</time>
   </trkpt>
   <trkpt lat="51.1213130" lon="5.4372490">
    <ele>63.8</ele>
    <time>2020-06-14T08:44:52Z</time>
   </trkpt>
   <trkpt lat="51.1212430" lon="5.4372800">
    <ele>63.9</ele>
    <time>2020-06-14T08:44:53Z</time>
   </trkpt>
   <trkpt lat="51.1211760" lon="5.4373180">
    <ele>63.9</ele>
    <time>2020-06-14T08:44:54Z</time>
   </trkpt>
   <trkpt lat="51.1211120" lon="5.4373530">
    <ele>63.9</ele>
    <time>2020-06-14T08:44:55Z</time>
   </trkpt>
   <trkpt lat="51.1210460" lon="5.4373830">
    <ele>64.0</ele>
    <time>2020-06-14T08:44:56Z</time>
   </trkpt>
   <trkpt lat="51.1209760" lon="5.4374180">
    <ele>64.0</ele>
    <time>2020-06-14T08:44:57Z</time>
   </trkpt>
   <trkpt lat="51.1209100" lon="5.4374660">
    <ele>64.1</ele>
    <time>2020-06-14T08:44:58Z</time>
   </trkpt>
   <trkpt lat="51.1208390" lon="5.4375110">
    <ele>64.1</ele>
    <time>2020-06-14T08:44:59Z</time>
   </trkpt>
   <trkpt lat="51.1207680" lon="5.4375520">
    <ele>64.0</ele>
    <time>2020-06-14T08:45:00Z</time>
   </trkpt>
   <trkpt lat="51.1206990" lon="5.4375990">
    <ele>63.9</ele>
    <time>2020-06-14T08:45:01Z</time>
   </trkpt>
   <trkpt lat="51.1206320" lon="5.4376520">
    <ele>63.8</ele>
    <time>2020-06-14T08:45:02Z</time>
   </trkpt>
   <trkpt lat="51.1205650" lon="5.4377100">
    <ele>63.8</ele>
    <time>2020-06-14T08:45:03Z</time>
   </trkpt>
   <trkpt lat="51.1204900" lon="5.4377740">
    <ele>63.8</ele>
    <time>2020-06-14T08:45:04Z</time>
   </trkpt>
   <trkpt lat="51.1204160" lon="5.4378450">
    <ele>63.8</ele>
    <time>2020-06-14T08:45:05Z</time>
   </trkpt>
   <trkpt lat="51.1203490" lon="5.4379180">
    <ele>63.8</ele>
    <time>2020-06-14T08:45:06Z</time>
   </trkpt>
   <trkpt lat="51.1202850" lon="5.4379910">
    <ele>63.8</ele>
    <time>2020-06-14T08:45:07Z</time>
   </trkpt>
   <trkpt lat="51.1202240" lon="5.4380620">
    <ele>63.8</ele>
    <time>2020-06-14T08:45:08Z</time>
   </trkpt>
   <trkpt lat="51.1201610" lon="5.4381240">
    <ele>63.8</ele>
    <time>2020-06-14T08:45:09Z</time>
   </trkpt>
   <trkpt lat="51.1201070" lon="5.4381940">
    <ele>63.8</ele>
    <time>2020-06-14T08:45:10Z</time>
   </trkpt>
   <trkpt lat="51.1200480" lon="5.4382510">
    <ele>63.8</ele>
    <time>2020-06-14T08:45:11Z</time>
   </trkpt>
   <trkpt lat="51.1199920" lon="5.4383070">
    <ele>63.8</ele>
    <time>2020-06-14T08:45:12Z</time>
   </trkpt>
   <trkpt lat="51.1199410" lon="5.4383640">
    <ele>63.8</ele>
    <time>2020-06-14T08:45:13Z</time>
   </trkpt>
   <trkpt lat="51.1198930" lon="5.4384200">
    <ele>63.8</ele>
    <time>2020-06-14T08:45:14Z</time>
   </trkpt>
   <trkpt lat="51.1198510" lon="5.4384670">
    <ele>63.9</ele>
    <time>2020-06-14T08:45:15Z</time>
   </trkpt>
   <trkpt lat="51.1198120" lon="5.4385290">
    <ele>63.9</ele>
    <time>2020-06-14T08:45:16Z</time>
   </trkpt>
   <trkpt lat="51.1197700" lon="5.4385880">
    <ele>63.9</ele>
    <time>2020-06-14T08:45:17Z</time>
   </trkpt>
   <trkpt lat="51.1197250" lon="5.4386340">
    <ele>63.9</ele>
    <time>2020-06-14T08:45:18Z</time>
   </trkpt>
   <trkpt lat="51.1196870" lon="5.4386720">
    <ele>63.9</ele>
    <time>2020-06-14T08:45:19Z</time>
   </trkpt>
   <trkpt lat="51.1196520" lon="5.4387060">
    <ele>63.9</ele>
    <time>2020-06-14T08:45:20Z</time>
   </trkpt>
   <trkpt lat="51.1196200" lon="5.4387510">
    <ele>63.9</ele>
    <time>2020-06-14T08:45:21Z</time>
   </trkpt>
   <trkpt lat="51.1195930" lon="5.4388040">
    <ele>63.9</ele>
    <time>2020-06-14T08:45:22Z</time>
   </trkpt>
   <trkpt lat="51.1195690" lon="5.4388620">
    <ele>63.9</ele>
    <time>2020-06-14T08:45:23Z</time>
   </trkpt>
   <trkpt lat="51.1195540" lon="5.4389350">
    <ele>63.9</ele>
    <time>2020-06-14T08:45:24Z</time>
   </trkpt>
   <trkpt lat="51.1195490" lon="5.4390090">
    <ele>63.9</ele>
    <time>2020-06-14T08:45:25Z</time>
   </trkpt>
   <trkpt lat="51.1195600" lon="5.4390880">
    <ele>63.8</ele>
    <time>2020-06-14T08:45:26Z</time>
   </trkpt>
   <trkpt lat="51.1195920" lon="5.4391710">
    <ele>63.8</ele>
    <time>2020-06-14T08:45:27Z</time>
   </trkpt>
   <trkpt lat="51.1196330" lon="5.4392520">
    <ele>63.8</ele>
    <time>2020-06-14T08:45:28Z</time>
   </trkpt>
   <trkpt lat="51.1196730" lon="5.4393390">
    <ele>63.8</ele>
    <time>2020-06-14T08:45:29Z</time>
   </trkpt>
   <trkpt lat="51.1197170" lon="5.4394310">
    <ele>63.8</ele>
    <time>2020-06-14T08:45:30Z</time>
   </trkpt>
   <trkpt lat="51.1197710" lon="5.4395230">
    <ele>63.8</ele>
    <time>2020-06-14T08:45:31Z</time>
   </trkpt>
   <trkpt lat="51.1198700" lon="5.4395700">
    <ele>63.9</ele>
    <time>2020-06-14T08:45:32Z</time>
   </trkpt>
   <trkpt lat="51.1199360" lon="5.4396460">
    <ele>63.9</ele>
    <time>2020-06-14T08:45:33Z</time>
   </trkpt>
   <trkpt lat="51.1199950" lon="5.4397340">
    <ele>64.0</ele>
    <time>2020-06-14T08:45:34Z</time>
   </trkpt>
   <trkpt lat="51.1200480" lon="5.4398200">
    <ele>64.1</ele>
    <time>2020-06-14T08:45:35Z</time>
   </trkpt>
   <trkpt lat="51.1200980" lon="5.4399120">
    <ele>64.1</ele>
    <time>2020-06-14T08:45:36Z</time>
   </trkpt>
   <trkpt lat="51.1201490" lon="5.4400060">
    <ele>64.2</ele>
    <time>2020-06-14T08:45:37Z</time>
   </trkpt>
   <trkpt lat="51.1201990" lon="5.4400990">
    <ele>64.2</ele>
    <time>2020-06-14T08:45:38Z</time>
   </trkpt>
   <trkpt lat="51.1202470" lon="5.4401910">
    <ele>64.2</ele>
    <time>2020-06-14T08:45:39Z</time>
   </trkpt>
   <trkpt lat="51.1202930" lon="5.4402780">
    <ele>64.2</ele>
    <time>2020-06-14T08:45:40Z</time>
   </trkpt>
   <trkpt lat="51.1203380" lon="5.4403640">
    <ele>64.2</ele>
    <time>2020-06-14T08:45:41Z</time>
   </trkpt>
   <trkpt lat="51.1203840" lon="5.4404460">
    <ele>64.2</ele>
    <time>2020-06-14T08:45:42Z</time>
   </trkpt>
   <trkpt lat="51.1204380" lon="5.4405300">
    <ele>64.2</ele>
    <time>2020-06-14T08:45:43Z</time>
   </trkpt>
   <trkpt lat="51.1204960" lon="5.4406090">
    <ele>64.1</ele>
    <time>2020-06-14T08:45:44Z</time>
   </trkpt>
   <trkpt lat="51.1205510" lon="5.4406710">
    <ele>64.1</ele>
    <time>2020-06-14T08:45:45Z</time>
   </trkpt>
   <trkpt lat="51.1206050" lon="5.4407240">
    <ele>64.1</ele>
    <time>2020-06-14T08:45:46Z</time>
   </trkpt>
   <trkpt lat="51.1206710" lon="5.4407720">
    <ele>64.1</ele>
    <time>2020-06-14T08:45:47Z</time>
   </trkpt>
   <trkpt lat="51.1207350" lon="5.4408260">
    <ele>64.1</ele>
    <time>2020-06-14T08:45:48Z</time>
   </trkpt>
   <trkpt lat="51.1208040" lon="5.4408750">
    <ele>64.1</ele>
    <time>2020-06-14T08:45:49Z</time>
   </trkpt>
   <trkpt lat="51.1208710" lon="5.4409110">
    <ele>64.1</ele>
    <time>2020-06-14T08:45:50Z</time>
   </trkpt>
   <trkpt lat="51.1209370" lon="5.4409370">
    <ele>64.1</ele>
    <time>2020-06-14T08:45:51Z</time>
   </trkpt>
   <trkpt lat="51.1210080" lon="5.4409530">
    <ele>64.1</ele>
    <time>2020-06-14T08:45:52Z</time>
   </trkpt>
   <trkpt lat="51.1210800" lon="5.4409710">
    <ele>64.0</ele>
    <time>2020-06-14T08:45:53Z</time>
   </trkpt>
   <trkpt lat="51.1211480" lon="5.4410010">
    <ele>64.0</ele>
    <time>2020-06-14T08:45:54Z</time>
   </trkpt>
   <trkpt lat="51.1212140" lon="5.4410450">
    <ele>64.0</ele>
    <time>2020-06-14T08:45:55Z</time>
   </trkpt>
   <trkpt lat="51.1212740" lon="5.4411140">
    <ele>64.1</ele>
    <time>2020-06-14T08:45:56Z</time>
   </trkpt>
   <trkpt lat="51.1213330" lon="5.4412130">
    <ele>64.1</ele>
    <time>2020-06-14T08:45:57Z</time>
   </trkpt>
   <trkpt lat="51.1213930" lon="5.4412970">
    <ele>64.1</ele>
    <time>2020-06-14T08:45:58Z</time>
   </trkpt>
   <trkpt lat="51.1214510" lon="5.4413680">
    <ele>64.1</ele>
    <time>2020-06-14T08:45:59Z</time>
   </trkpt>
   <trkpt lat="51.1215080" lon="5.4414340">
    <ele>64.1</ele>
    <time>2020-06-14T08:46:00Z</time>
   </trkpt>
   <trkpt lat="51.1215660" lon="5.4415040">
    <ele>64.1</ele>
    <time>2020-06-14T08:46:01Z</time>
   </trkpt>
   <trkpt lat="51.1216230" lon="5.4415760">
    <ele>64.0</ele>
    <time>2020-06-14T08:46:02Z</time>
   </trkpt>
   <trkpt lat="51.1216790" lon="5.4416470">
    <ele>64.0</ele>
    <time>2020-06-14T08:46:03Z</time>
   </trkpt>
   <trkpt lat="51.1217360" lon="5.4417280">
    <ele>64.0</ele>
    <time>2020-06-14T08:46:04Z</time>
   </trkpt>
   <trkpt lat="51.1217910" lon="5.4418190">
    <ele>64.0</ele>
    <time>2020-06-14T08:46:05Z</time>
   </trkpt>
   <trkpt lat="51.1218470" lon="5.4419100">
    <ele>64.0</ele>
    <time>2020-06-14T08:46:06Z</time>
   </trkpt>
   <trkpt lat="51.1219000" lon="5.4419950">
    <ele>64.0</ele>
    <time>2020-06-14T08:46:07Z</time>
   </trkpt>
   <trkpt lat="51.1219600" lon="5.4420840">
    <ele>63.9</ele>
    <time>2020-06-14T08:46:08Z</time>
   </trkpt>
   <trkpt lat="51.1220210" lon="5.4421730">
    <ele>63.7</ele>
    <time>2020-06-14T08:46:09Z</time>
   </trkpt>
   <trkpt lat="51.1220780" lon="5.4422540">
    <ele>63.6</ele>
    <time>2020-06-14T08:46:10Z</time>
   </trkpt>
   <trkpt lat="51.1221340" lon="5.4423470">
    <ele>63.5</ele>
    <time>2020-06-14T08:46:11Z</time>
   </trkpt>
   <trkpt lat="51.1221860" lon="5.4424290">
    <ele>63.4</ele>
    <time>2020-06-14T08:46:12Z</time>
   </trkpt>
   <trkpt lat="51.1222400" lon="5.4425100">
    <ele>63.3</ele>
    <time>2020-06-14T08:46:13Z</time>
   </trkpt>
   <trkpt lat="51.1222930" lon="5.4425830">
    <ele>63.2</ele>
    <time>2020-06-14T08:46:14Z</time>
   </trkpt>
   <trkpt lat="51.1223420" lon="5.4426540">
    <ele>63.2</ele>
    <time>2020-06-14T08:46:15Z</time>
   </trkpt>
   <trkpt lat="51.1223890" lon="5.4427400">
    <ele>63.1</ele>
    <time>2020-06-14T08:46:16Z</time>
   </trkpt>
   <trkpt lat="51.1224390" lon="5.4428380">
    <ele>63.0</ele>
    <time>2020-06-14T08:46:17Z</time>
   </trkpt>
   <trkpt lat="51.1224900" lon="5.4429380">
    <ele>62.9</ele>
    <time>2020-06-14T08:46:18Z</time>
   </trkpt>
   <trkpt lat="51.1225450" lon="5.4430530">
    <ele>62.8</ele>
    <time>2020-06-14T08:46:19Z</time>
   </trkpt>
   <trkpt lat="51.1225930" lon="5.4431660">
    <ele>62.8</ele>
    <time>2020-06-14T08:46:20Z</time>
   </trkpt>
   <trkpt lat="51.1226380" lon="5.4432770">
    <ele>62.7</ele>
    <time>2020-06-14T08:46:21Z</time>
   </trkpt>
   <trkpt lat="51.1226810" lon="5.4433990">
    <ele>62.7</ele>
    <time>2020-06-14T08:46:22Z</time>
   </trkpt>
   <trkpt lat="51.1227130" lon="5.4435190">
    <ele>62.6</ele>
    <time>2020-06-14T08:46:23Z</time>
   </trkpt>
   <trkpt lat="51.1227430" lon="5.4436290">
    <ele>62.5</ele>
    <time>2020-06-14T08:46:24Z</time>
   </trkpt>
   <trkpt lat="51.1227700" lon="5.4437390">
    <ele>62.5</ele>
    <time>2020-06-14T08:46:25Z</time>
   </trkpt>
   <trkpt lat="51.1227980" lon="5.4438540">
    <ele>62.5</ele>
    <time>2020-06-14T08:46:26Z</time>
   </trkpt>
   <trkpt lat="51.1228230" lon="5.4439670">
    <ele>62.4</ele>
    <time>2020-06-14T08:46:27Z</time>
   </trkpt>
   <trkpt lat="51.1228470" lon="5.4440800">
    <ele>62.4</ele>
    <time>2020-06-14T08:46:28Z</time>
   </trkpt>
   <trkpt lat="51.1228730" lon="5.4441880">
    <ele>62.3</ele>
    <time>2020-06-14T08:46:29Z</time>
   </trkpt>
   <trkpt lat="51.1229010" lon="5.4442940">
    <ele>62.3</ele>
    <time>2020-06-14T08:46:30Z</time>
   </trkpt>
   <trkpt lat="51.1229270" lon="5.4443980">
    <ele>62.2</ele>
    <time>2020-06-14T08:46:31Z</time>
   </trkpt>
   <trkpt lat="51.1229540" lon="5.4445010">
    <ele>62.1</ele>
    <time>2020-06-14T08:46:32Z</time>
   </trkpt>
   <trkpt lat="51.1229810" lon="5.4446040">
    <ele>62.1</ele>
    <time>2020-06-14T08:46:33Z</time>
   </trkpt>
   <trkpt lat="51.1230110" lon="5.4447000">
    <ele>62.0</ele>
    <time>2020-06-14T08:46:34Z</time>
   </trkpt>
   <trkpt lat="51.1230410" lon="5.4447980">
    <ele>61.9</ele>
    <time>2020-06-14T08:46:35Z</time>
   </trkpt>
   <trkpt lat="51.1230740" lon="5.4448930">
    <ele>61.9</ele>
    <time>2020-06-14T08:46:36Z</time>
   </trkpt>
   <trkpt lat="51.1231070" lon="5.4449850">
    <ele>61.8</ele>
    <time>2020-06-14T08:46:37Z</time>
   </trkpt>
   <trkpt lat="51.1231440" lon="5.4450720">
    <ele>61.8</ele>
    <time>2020-06-14T08:46:38Z</time>
   </trkpt>
   <trkpt lat="51.1231810" lon="5.4451590">
    <ele>61.8</ele>
    <time>2020-06-14T08:46:39Z</time>
   </trkpt>
   <trkpt lat="51.1232190" lon="5.4452450">
    <ele>61.7</ele>
    <time>2020-06-14T08:46:40Z</time>
   </trkpt>
   <trkpt lat="51.1232580" lon="5.4453340">
    <ele>61.7</ele>
    <time>2020-06-14T08:46:41Z</time>
   </trkpt>
   <trkpt lat="51.1232930" lon="5.4454290">
    <ele>61.6</ele>
    <time>2020-06-14T08:46:42Z</time>
   </trkpt>
   <trkpt lat="51.1233270" lon="5.4455200">
    <ele>61.6</ele>
    <time>2020-06-14T08:46:43Z</time>
   </trkpt>
   <trkpt lat="51.1233670" lon="5.4455990">
    <ele>61.6</ele>
    <time>2020-06-14T08:46:44Z</time>
   </trkpt>
   <trkpt lat="51.1234060" lon="5.4456810">
    <ele>61.6</ele>
    <time>2020-06-14T08:46:45Z</time>
   </trkpt>
   <trkpt lat="51.1234440" lon="5.4457650">
    <ele>61.6</ele>
    <time>2020-06-14T08:46:46Z</time>
   </trkpt>
   <trkpt lat="51.1234800" lon="5.4458490">
    <ele>61.6</ele>
    <time>2020-06-14T08:46:47Z</time>
   </trkpt>
   <trkpt lat="51.1235170" lon="5.4459290">
    <ele>61.7</ele>
    <time>2020-06-14T08:46:48Z</time>
   </trkpt>
   <trkpt lat="51.1235510" lon="5.4460120">
    <ele>61.7</ele>
    <time>2020-06-14T08:46:49Z</time>
   </trkpt>
   <trkpt lat="51.1235830" lon="5.4461010">
    <ele>61.8</ele>
    <time>2020-06-14T08:46:50Z</time>
   </trkpt>
   <trkpt lat="51.1236050" lon="5.4461840">
    <ele>61.8</ele>
    <time>2020-06-14T08:46:51Z</time>
   </trkpt>
   <trkpt lat="51.1236120" lon="5.4462760">
    <ele>61.8</ele>
    <time>2020-06-14T08:46:52Z</time>
   </trkpt>
   <trkpt lat="51.1236120" lon="5.4463560">
    <ele>61.7</ele>
    <time>2020-06-14T08:46:53Z</time>
   </trkpt>
   <trkpt lat="51.1235920" lon="5.4464270">
    <ele>61.6</ele>
    <time>2020-06-14T08:46:54Z</time>
   </trkpt>
   <trkpt lat="51.1235290" lon="5.4464650">
    <ele>61.4</ele>
    <time>2020-06-14T08:46:55Z</time>
   </trkpt>
   <trkpt lat="51.1234520" lon="5.4465120">
    <ele>61.3</ele>
    <time>2020-06-14T08:46:56Z</time>
   </trkpt>
   <trkpt lat="51.1233780" lon="5.4465770">
    <ele>61.2</ele>
    <time>2020-06-14T08:46:57Z</time>
   </trkpt>
   <trkpt lat="51.1233030" lon="5.4466360">
    <ele>61.1</ele>
    <time>2020-06-14T08:46:58Z</time>
   </trkpt>
   <trkpt lat="51.1232270" lon="5.4466950">
    <ele>61.1</ele>
    <time>2020-06-14T08:46:59Z</time>
   </trkpt>
   <trkpt lat="51.1231510" lon="5.4467510">
    <ele>61.0</ele>
    <time>2020-06-14T08:47:00Z</time>
   </trkpt>
   <trkpt lat="51.1230730" lon="5.4468120">
    <ele>61.0</ele>
    <time>2020-06-14T08:47:01Z</time>
   </trkpt>
   <trkpt lat="51.1230010" lon="5.4468770">
    <ele>61.0</ele>
    <time>2020-06-14T08:47:02Z</time>
   </trkpt>
   <trkpt lat="51.1229220" lon="5.4469280">
    <ele>61.0</ele>
    <time>2020-06-14T08:47:03Z</time>
   </trkpt>
   <trkpt lat="51.1228480" lon="5.4469860">
    <ele>61.0</ele>
    <time>2020-06-14T08:47:04Z</time>
   </trkpt>
   <trkpt lat="51.1227750" lon="5.4470410">
    <ele>61.0</ele>
    <time>2020-06-14T08:47:05Z</time>
   </trkpt>
   <trkpt lat="51.1227050" lon="5.4471080">
    <ele>60.9</ele>
    <time>2020-06-14T08:47:06Z</time>
   </trkpt>
   <trkpt lat="51.1226380" lon="5.4471690">
    <ele>60.9</ele>
    <time>2020-06-14T08:47:07Z</time>
   </trkpt>
   <trkpt lat="51.1225700" lon="5.4472250">
    <ele>60.9</ele>
    <time>2020-06-14T08:47:08Z</time>
   </trkpt>
   <trkpt lat="51.1224990" lon="5.4472810">
    <ele>60.9</ele>
    <time>2020-06-14T08:47:09Z</time>
   </trkpt>
   <trkpt lat="51.1224270" lon="5.4473340">
    <ele>61.0</ele>
    <time>2020-06-14T08:47:10Z</time>
   </trkpt>
   <trkpt lat="51.1223570" lon="5.4473900">
    <ele>61.0</ele>
    <time>2020-06-14T08:47:11Z</time>
   </trkpt>
   <trkpt lat="51.1222880" lon="5.4474390">
    <ele>61.1</ele>
    <time>2020-06-14T08:47:12Z</time>
   </trkpt>
   <trkpt lat="51.1222220" lon="5.4474940">
    <ele>61.1</ele>
    <time>2020-06-14T08:47:13Z</time>
   </trkpt>
   <trkpt lat="51.1221520" lon="5.4475480">
    <ele>61.1</ele>
    <time>2020-06-14T08:47:14Z</time>
   </trkpt>
   <trkpt lat="51.1220840" lon="5.4476070">
    <ele>61.1</ele>
    <time>2020-06-14T08:47:15Z</time>
   </trkpt>
   <trkpt lat="51.1220200" lon="5.4476670">
    <ele>61.1</ele>
    <time>2020-06-14T08:47:16Z</time>
   </trkpt>
   <trkpt lat="51.1219540" lon="5.4477340">
    <ele>61.1</ele>
    <time>2020-06-14T08:47:17Z</time>
   </trkpt>
   <trkpt lat="51.1218860" lon="5.4478030">
    <ele>61.1</ele>
    <time>2020-06-14T08:47:18Z</time>
   </trkpt>
   <trkpt lat="51.1218190" lon="5.4478660">
    <ele>61.1</ele>
    <time>2020-06-14T08:47:19Z</time>
   </trkpt>
   <trkpt lat="51.1217530" lon="5.4479260">
    <ele>61.2</ele>
    <time>2020-06-14T08:47:20Z</time>
   </trkpt>
   <trkpt lat="51.1216870" lon="5.4479810">
    <ele>61.2</ele>
    <time>2020-06-14T08:47:21Z</time>
   </trkpt>
   <trkpt lat="51.1216200" lon="5.4480360">
    <ele>61.2</ele>
    <time>2020-06-14T08:47:22Z</time>
   </trkpt>
   <trkpt lat="51.1215520" lon="5.4480860">
    <ele>61.2</ele>
    <time>2020-06-14T08:47:23Z</time>
   </trkpt>
   <trkpt lat="51.1214810" lon="5.4481370">
    <ele>61.2</ele>
    <time>2020-06-14T08:47:24Z</time>
   </trkpt>
   <trkpt lat="51.1214100" lon="5.4481860">
    <ele>61.3</ele>
    <time>2020-06-14T08:47:25Z</time>
   </trkpt>
   <trkpt lat="51.1213410" lon="5.4482370">
    <ele>61.4</ele>
    <time>2020-06-14T08:47:26Z</time>
   </trkpt>
   <trkpt lat="51.1212690" lon="5.4482840">
    <ele>61.4</ele>
    <time>2020-06-14T08:47:27Z</time>
   </trkpt>
   <trkpt lat="51.1211930" lon="5.4483190">
    <ele>61.5</ele>
    <time>2020-06-14T08:47:28Z</time>
   </trkpt>
   <trkpt lat="51.1211150" lon="5.4483490">
    <ele>61.5</ele>
    <time>2020-06-14T08:47:29Z</time>
   </trkpt>
   <trkpt lat="51.1210370" lon="5.4483790">
    <ele>61.5</ele>
    <time>2020-06-14T08:47:30Z</time>
   </trkpt>
   <trkpt lat="51.1209650" lon="5.4484130">
    <ele>61.6</ele>
    <time>2020-06-14T08:47:31Z</time>
   </trkpt>
   <trkpt lat="51.1208920" lon="5.4484500">
    <ele>61.6</ele>
    <time>2020-06-14T08:47:32Z</time>
   </trkpt>
   <trkpt lat="51.1208170" lon="5.4484860">
    <ele>61.7</ele>
    <time>2020-06-14T08:47:33Z</time>
   </trkpt>
   <trkpt lat="51.1207440" lon="5.4485190">
    <ele>61.7</ele>
    <time>2020-06-14T08:47:34Z</time>
   </trkpt>
   <trkpt lat="51.1206730" lon="5.4485530">
    <ele>61.7</ele>
    <time>2020-06-14T08:47:35Z</time>
   </trkpt>
   <trkpt lat="51.1206010" lon="5.4485930">
    <ele>61.7</ele>
    <time>2020-06-14T08:47:36Z</time>
   </trkpt>
   <trkpt lat="51.1205260" lon="5.4486360">
    <ele>61.8</ele>
    <time>2020-06-14T08:47:37Z</time>
   </trkpt>
   <trkpt lat="51.1204550" lon="5.4486760">
    <ele>61.8</ele>
    <time>2020-06-14T08:47:38Z</time>
   </trkpt>
   <trkpt lat="51.1203840" lon="5.4487170">
    <ele>61.8</ele>
    <time>2020-06-14T08:47:39Z</time>
   </trkpt>
   <trkpt lat="51.1203090" lon="5.4487610">
    <ele>61.8</ele>
    <time>2020-06-14T08:47:40Z</time>
   </trkpt>
   <trkpt lat="51.1202370" lon="5.4488040">
    <ele>61.8</ele>
    <time>2020-06-14T08:47:41Z</time>
   </trkpt>
   <trkpt lat="51.1201670" lon="5.4488510">
    <ele>61.9</ele>
    <time>2020-06-14T08:47:42Z</time>
   </trkpt>
   <trkpt lat="51.1200930" lon="5.4488900">
    <ele>61.9</ele>
    <time>2020-06-14T08:47:43Z</time>
   </trkpt>
   <trkpt lat="51.1200160" lon="5.4489250">
    <ele>61.9</ele>
    <time>2020-06-14T08:47:44Z</time>
   </trkpt>
   <trkpt lat="51.1199360" lon="5.4489650">
    <ele>61.9</ele>
    <time>2020-06-14T08:47:45Z</time>
   </trkpt>
   <trkpt lat="51.1198580" lon="5.4490100">
    <ele>62.0</ele>
    <time>2020-06-14T08:47:46Z</time>
   </trkpt>
   <trkpt lat="51.1197860" lon="5.4490490">
    <ele>62.0</ele>
    <time>2020-06-14T08:47:47Z</time>
   </trkpt>
   <trkpt lat="51.1197180" lon="5.4490840">
    <ele>62.0</ele>
    <time>2020-06-14T08:47:48Z</time>
   </trkpt>
   <trkpt lat="51.1196510" lon="5.4491090">
    <ele>62.0</ele>
    <time>2020-06-14T08:47:49Z</time>
   </trkpt>
   <trkpt lat="51.1195920" lon="5.4491310">
    <ele>62.1</ele>
    <time>2020-06-14T08:47:50Z</time>
   </trkpt>
   <trkpt lat="51.1195330" lon="5.4491620">
    <ele>62.1</ele>
    <time>2020-06-14T08:47:51Z</time>
   </trkpt>
   <trkpt lat="51.1194740" lon="5.4491940">
    <ele>62.1</ele>
    <time>2020-06-14T08:47:52Z</time>
   </trkpt>
   <trkpt lat="51.1194060" lon="5.4492360">
    <ele>62.1</ele>
    <time>2020-06-14T08:47:53Z</time>
   </trkpt>
   <trkpt lat="51.1193390" lon="5.4492750">
    <ele>62.1</ele>
    <time>2020-06-14T08:47:54Z</time>
   </trkpt>
   <trkpt lat="51.1192710" lon="5.4493150">
    <ele>62.2</ele>
    <time>2020-06-14T08:47:55Z</time>
   </trkpt>
   <trkpt lat="51.1192030" lon="5.4493650">
    <ele>62.2</ele>
    <time>2020-06-14T08:47:56Z</time>
   </trkpt>
   <trkpt lat="51.1191320" lon="5.4494090">
    <ele>62.2</ele>
    <time>2020-06-14T08:47:57Z</time>
   </trkpt>
   <trkpt lat="51.1190600" lon="5.4494530">
    <ele>62.2</ele>
    <time>2020-06-14T08:47:58Z</time>
   </trkpt>
   <trkpt lat="51.1189890" lon="5.4495020">
    <ele>62.2</ele>
    <time>2020-06-14T08:47:59Z</time>
   </trkpt>
   <trkpt lat="51.1189130" lon="5.4495530">
    <ele>62.3</ele>
    <time>2020-06-14T08:48:00Z</time>
   </trkpt>
   <trkpt lat="51.1188340" lon="5.4496010">
    <ele>62.3</ele>
    <time>2020-06-14T08:48:01Z</time>
   </trkpt>
   <trkpt lat="51.1187550" lon="5.4496410">
    <ele>62.3</ele>
    <time>2020-06-14T08:48:02Z</time>
   </trkpt>
   <trkpt lat="51.1186750" lon="5.4496860">
    <ele>62.3</ele>
    <time>2020-06-14T08:48:03Z</time>
   </trkpt>
   <trkpt lat="51.1185930" lon="5.4497220">
    <ele>62.3</ele>
    <time>2020-06-14T08:48:04Z</time>
   </trkpt>
   <trkpt lat="51.1185080" lon="5.4497630">
    <ele>62.4</ele>
    <time>2020-06-14T08:48:05Z</time>
   </trkpt>
   <trkpt lat="51.1184250" lon="5.4498040">
    <ele>62.4</ele>
    <time>2020-06-14T08:48:06Z</time>
   </trkpt>
   <trkpt lat="51.1183450" lon="5.4498460">
    <ele>62.5</ele>
    <time>2020-06-14T08:48:07Z</time>
   </trkpt>
   <trkpt lat="51.1182660" lon="5.4498780">
    <ele>62.5</ele>
    <time>2020-06-14T08:48:08Z</time>
   </trkpt>
   <trkpt lat="51.1181880" lon="5.4499160">
    <ele>62.6</ele>
    <time>2020-06-14T08:48:09Z</time>
   </trkpt>
   <trkpt lat="51.1181130" lon="5.4499660">
    <ele>62.6</ele>
    <time>2020-06-14T08:48:10Z</time>
   </trkpt>
   <trkpt lat="51.1180380" lon="5.4500150">
    <ele>62.6</ele>
    <time>2020-06-14T08:48:11Z</time>
   </trkpt>
   <trkpt lat="51.1179690" lon="5.4500640">
    <ele>62.7</ele>
    <time>2020-06-14T08:48:12Z</time>
   </trkpt>
   <trkpt lat="51.1179000" lon="5.4501140">
    <ele>62.7</ele>
    <time>2020-06-14T08:48:13Z</time>
   </trkpt>
   <trkpt lat="51.1178290" lon="5.4501670">
    <ele>62.8</ele>
    <time>2020-06-14T08:48:14Z</time>
   </trkpt>
   <trkpt lat="51.1177530" lon="5.4502200">
    <ele>62.8</ele>
    <time>2020-06-14T08:48:15Z</time>
   </trkpt>
   <trkpt lat="51.1176750" lon="5.4502720">
    <ele>62.8</ele>
    <time>2020-06-14T08:48:16Z</time>
   </trkpt>
   <trkpt lat="51.1176080" lon="5.4503250">
    <ele>62.9</ele>
    <time>2020-06-14T08:48:17Z</time>
   </trkpt>
   <trkpt lat="51.1175440" lon="5.4503640">
    <ele>62.9</ele>
    <time>2020-06-14T08:48:18Z</time>
   </trkpt>
   <trkpt lat="51.1174780" lon="5.4503990">
    <ele>63.0</ele>
    <time>2020-06-14T08:48:19Z</time>
   </trkpt>
   <trkpt lat="51.1174130" lon="5.4504370">
    <ele>63.0</ele>
    <time>2020-06-14T08:48:20Z</time>
   </trkpt>
   <trkpt lat="51.1173520" lon="5.4504820">
    <ele>63.1</ele>
    <time>2020-06-14T08:48:21Z</time>
   </trkpt>
   <trkpt lat="51.1172900" lon="5.4505220">
    <ele>63.1</ele>
    <time>2020-06-14T08:48:22Z</time>
   </trkpt>
   <trkpt lat="51.1172250" lon="5.4505670">
    <ele>63.3</ele>
    <time>2020-06-14T08:48:23Z</time>
   </trkpt>
   <trkpt lat="51.1171510" lon="5.4506190">
    <ele>63.4</ele>
    <time>2020-06-14T08:48:24Z</time>
   </trkpt>
   <trkpt lat="51.1170770" lon="5.4506770">
    <ele>63.4</ele>
    <time>2020-06-14T08:48:25Z</time>
   </trkpt>
   <trkpt lat="51.1170090" lon="5.4507460">
    <ele>63.4</ele>
    <time>2020-06-14T08:48:26Z</time>
   </trkpt>
   <trkpt lat="51.1169460" lon="5.4508080">
    <ele>63.4</ele>
    <time>2020-06-14T08:48:27Z</time>
   </trkpt>
   <trkpt lat="51.1168840" lon="5.4508620">
    <ele>63.4</ele>
    <time>2020-06-14T08:48:28Z</time>
   </trkpt>
   <trkpt lat="51.1168260" lon="5.4509190">
    <ele>63.4</ele>
    <time>2020-06-14T08:48:29Z</time>
   </trkpt>
   <trkpt lat="51.1167650" lon="5.4509850">
    <ele>63.4</ele>
    <time>2020-06-14T08:48:30Z</time>
   </trkpt>
   <trkpt lat="51.1167050" lon="5.4510420">
    <ele>63.4</ele>
    <time>2020-06-14T08:48:31Z</time>
   </trkpt>
   <trkpt lat="51.1166430" lon="5.4510950">
    <ele>63.4</ele>
    <time>2020-06-14T08:48:32Z</time>
   </trkpt>
   <trkpt lat="51.1165780" lon="5.4511450">
    <ele>63.4</ele>
    <time>2020-06-14T08:48:33Z</time>
   </trkpt>
   <trkpt lat="51.1165190" lon="5.4512010">
    <ele>63.5</ele>
    <time>2020-06-14T08:48:34Z</time>
   </trkpt>
   <trkpt lat="51.1164630" lon="5.4512630">
    <ele>63.5</ele>
    <time>2020-06-14T08:48:35Z</time>
   </trkpt>
   <trkpt lat="51.1164020" lon="5.4513290">
    <ele>63.5</ele>
    <time>2020-06-14T08:48:36Z</time>
   </trkpt>
   <trkpt lat="51.1163380" lon="5.4513940">
    <ele>63.6</ele>
    <time>2020-06-14T08:48:37Z</time>
   </trkpt>
   <trkpt lat="51.1162740" lon="5.4514590">
    <ele>63.6</ele>
    <time>2020-06-14T08:48:38Z</time>
   </trkpt>
   <trkpt lat="51.1162100" lon="5.4515400">
    <ele>63.6</ele>
    <time>2020-06-14T08:48:39Z</time>
   </trkpt>
   <trkpt lat="51.1161400" lon="5.4516200">
    <ele>63.6</ele>
    <time>2020-06-14T08:48:40Z</time>
   </trkpt>
   <trkpt lat="51.1160760" lon="5.4516910">
    <ele>63.6</ele>
    <time>2020-06-14T08:48:41Z</time>
   </trkpt>
   <trkpt lat="51.1160120" lon="5.4517630">
    <ele>63.7</ele>
    <time>2020-06-14T08:48:42Z</time>
   </trkpt>
   <trkpt lat="51.1159470" lon="5.4518350">
    <ele>63.7</ele>
    <time>2020-06-14T08:48:43Z</time>
   </trkpt>
   <trkpt lat="51.1158820" lon="5.4519000">
    <ele>63.7</ele>
    <time>2020-06-14T08:48:44Z</time>
   </trkpt>
   <trkpt lat="51.1158180" lon="5.4519590">
    <ele>63.7</ele>
    <time>2020-06-14T08:48:45Z</time>
   </trkpt>
   <trkpt lat="51.1157630" lon="5.4520090">
    <ele>63.7</ele>
    <time>2020-06-14T08:48:46Z</time>
   </trkpt>
   <trkpt lat="51.1157130" lon="5.4520610">
    <ele>63.8</ele>
    <time>2020-06-14T08:48:47Z</time>
   </trkpt>
   <trkpt lat="51.1156660" lon="5.4521140">
    <ele>63.8</ele>
    <time>2020-06-14T08:48:48Z</time>
   </trkpt>
   <trkpt lat="51.1156110" lon="5.4521790">
    <ele>63.8</ele>
    <time>2020-06-14T08:48:49Z</time>
   </trkpt>
   <trkpt lat="51.1155550" lon="5.4522440">
    <ele>63.8</ele>
    <time>2020-06-14T08:48:50Z</time>
   </trkpt>
   <trkpt lat="51.1155000" lon="5.4523080">
    <ele>63.8</ele>
    <time>2020-06-14T08:48:51Z</time>
   </trkpt>
   <trkpt lat="51.1154390" lon="5.4523710">
    <ele>63.8</ele>
    <time>2020-06-14T08:48:52Z</time>
   </trkpt>
   <trkpt lat="51.1153690" lon="5.4524550">
    <ele>63.7</ele>
    <time>2020-06-14T08:48:53Z</time>
   </trkpt>
   <trkpt lat="51.1152930" lon="5.4525240">
    <ele>63.7</ele>
    <time>2020-06-14T08:48:54Z</time>
   </trkpt>
   <trkpt lat="51.1152090" lon="5.4525900">
    <ele>63.7</ele>
    <time>2020-06-14T08:48:55Z</time>
   </trkpt>
   <trkpt lat="51.1151290" lon="5.4526480">
    <ele>63.6</ele>
    <time>2020-06-14T08:48:56Z</time>
   </trkpt>
   <trkpt lat="51.1150490" lon="5.4527080">
    <ele>63.6</ele>
    <time>2020-06-14T08:48:57Z</time>
   </trkpt>
   <trkpt lat="51.1149720" lon="5.4527710">
    <ele>63.6</ele>
    <time>2020-06-14T08:48:58Z</time>
   </trkpt>
   <trkpt lat="51.1148930" lon="5.4528240">
    <ele>63.6</ele>
    <time>2020-06-14T08:48:59Z</time>
   </trkpt>
   <trkpt lat="51.1148240" lon="5.4528650">
    <ele>63.6</ele>
    <time>2020-06-14T08:49:00Z</time>
   </trkpt>
   <trkpt lat="51.1147520" lon="5.4529070">
    <ele>63.6</ele>
    <time>2020-06-14T08:49:01Z</time>
   </trkpt>
   <trkpt lat="51.1146820" lon="5.4529470">
    <ele>63.7</ele>
    <time>2020-06-14T08:49:02Z</time>
   </trkpt>
   <trkpt lat="51.1146110" lon="5.4529940">
    <ele>63.7</ele>
    <time>2020-06-14T08:49:03Z</time>
   </trkpt>
   <trkpt lat="51.1145430" lon="5.4530390">
    <ele>63.7</ele>
    <time>2020-06-14T08:49:04Z</time>
   </trkpt>
   <trkpt lat="51.1144760" lon="5.4530830">
    <ele>63.7</ele>
    <time>2020-06-14T08:49:05Z</time>
   </trkpt>
   <trkpt lat="51.1144090" lon="5.4531270">
    <ele>63.7</ele>
    <time>2020-06-14T08:49:06Z</time>
   </trkpt>
   <trkpt lat="51.1143420" lon="5.4531760">
    <ele>63.8</ele>
    <time>2020-06-14T08:49:07Z</time>
   </trkpt>
   <trkpt lat="51.1142800" lon="5.4532260">
    <ele>63.8</ele>
    <time>2020-06-14T08:49:08Z</time>
   </trkpt>
   <trkpt lat="51.1142410" lon="5.4532560">
    <ele>63.8</ele>
    <time>2020-06-14T08:49:09Z</time>
   </trkpt>
   <trkpt lat="51.1141940" lon="5.4532890">
    <ele>63.8</ele>
    <time>2020-06-14T08:49:10Z</time>
   </trkpt>
   <trkpt lat="51.1141380" lon="5.4533210">
    <ele>63.9</ele>
    <time>2020-06-14T08:49:11Z</time>
   </trkpt>
   <trkpt lat="51.1140900" lon="5.4533480">
    <ele>63.9</ele>
    <time>2020-06-14T08:49:12Z</time>
   </trkpt>
   <trkpt lat="51.1140490" lon="5.4533660">
    <ele>64.0</ele>
    <time>2020-06-14T08:49:13Z</time>
   </trkpt>
   <trkpt lat="51.1140130" lon="5.4533840">
    <ele>64.0</ele>
    <time>2020-06-14T08:49:14Z</time>
   </trkpt>
   <trkpt lat="51.1139720" lon="5.4534080">
    <ele>64.0</ele>
    <time>2020-06-14T08:49:15Z</time>
   </trkpt>
   <trkpt lat="51.1139350" lon="5.4534320">
    <ele>64.1</ele>
    <time>2020-06-14T08:49:16Z</time>
   </trkpt>
   <trkpt lat="51.1138990" lon="5.4534440">
    <ele>64.1</ele>
    <time>2020-06-14T08:49:17Z</time>
   </trkpt>
   <trkpt lat="51.1138610" lon="5.4534440">
    <ele>64.1</ele>
    <time>2020-06-14T08:49:18Z</time>
   </trkpt>
   <trkpt lat="51.1138140" lon="5.4534310">
    <ele>64.1</ele>
    <time>2020-06-14T08:49:19Z</time>
   </trkpt>
   <trkpt lat="51.1137570" lon="5.4534070">
    <ele>64.1</ele>
    <time>2020-06-14T08:49:20Z</time>
   </trkpt>
   <trkpt lat="51.1136890" lon="5.4534020">
    <ele>64.0</ele>
    <time>2020-06-14T08:49:21Z</time>
   </trkpt>
   <trkpt lat="51.1136260" lon="5.4534110">
    <ele>63.9</ele>
    <time>2020-06-14T08:49:22Z</time>
   </trkpt>
   <trkpt lat="51.1135560" lon="5.4534110">
    <ele>63.8</ele>
    <time>2020-06-14T08:49:23Z</time>
   </trkpt>
   <trkpt lat="51.1134780" lon="5.4534020">
    <ele>63.8</ele>
    <time>2020-06-14T08:49:24Z</time>
   </trkpt>
   <trkpt lat="51.1134070" lon="5.4533960">
    <ele>63.8</ele>
    <time>2020-06-14T08:49:25Z</time>
   </trkpt>
   <trkpt lat="51.1133360" lon="5.4533890">
    <ele>63.8</ele>
    <time>2020-06-14T08:49:26Z</time>
   </trkpt>
   <trkpt lat="51.1132610" lon="5.4533760">
    <ele>63.9</ele>
    <time>2020-06-14T08:49:27Z</time>
   </trkpt>
   <trkpt lat="51.1131860" lon="5.4533730">
    <ele>63.9</ele>
    <time>2020-06-14T08:49:28Z</time>
   </trkpt>
   <trkpt lat="51.1131120" lon="5.4533740">
    <ele>63.9</ele>
    <time>2020-06-14T08:49:29Z</time>
   </trkpt>
   <trkpt lat="51.1130370" lon="5.4533740">
    <ele>63.9</ele>
    <time>2020-06-14T08:49:30Z</time>
   </trkpt>
   <trkpt lat="51.1129580" lon="5.4533610">
    <ele>63.9</ele>
    <time>2020-06-14T08:49:31Z</time>
   </trkpt>
   <trkpt lat="51.1128730" lon="5.4533070">
    <ele>63.9</ele>
    <time>2020-06-14T08:49:32Z</time>
   </trkpt>
   <trkpt lat="51.1127900" lon="5.4533020">
    <ele>63.9</ele>
    <time>2020-06-14T08:49:33Z</time>
   </trkpt>
   <trkpt lat="51.1127100" lon="5.4533000">
    <ele>64.0</ele>
    <time>2020-06-14T08:49:34Z</time>
   </trkpt>
   <trkpt lat="51.1126320" lon="5.4532950">
    <ele>64.0</ele>
    <time>2020-06-14T08:49:35Z</time>
   </trkpt>
   <trkpt lat="51.1125510" lon="5.4532790">
    <ele>64.1</ele>
    <time>2020-06-14T08:49:36Z</time>
   </trkpt>
   <trkpt lat="51.1124730" lon="5.4532690">
    <ele>64.1</ele>
    <time>2020-06-14T08:49:37Z</time>
   </trkpt>
   <trkpt lat="51.1123990" lon="5.4532590">
    <ele>64.1</ele>
    <time>2020-06-14T08:49:38Z</time>
   </trkpt>
   <trkpt lat="51.1123250" lon="5.4532550">
    <ele>64.1</ele>
    <time>2020-06-14T08:49:39Z</time>
   </trkpt>
   <trkpt lat="51.1122510" lon="5.4532600">
    <ele>64.1</ele>
    <time>2020-06-14T08:49:40Z</time>
   </trkpt>
   <trkpt lat="51.1121740" lon="5.4532580">
    <ele>64.1</ele>
    <time>2020-06-14T08:49:41Z</time>
   </trkpt>
   <trkpt lat="51.1120990" lon="5.4532610">
    <ele>64.1</ele>
    <time>2020-06-14T08:49:42Z</time>
   </trkpt>
   <trkpt lat="51.1120210" lon="5.4532700">
    <ele>64.1</ele>
    <time>2020-06-14T08:49:43Z</time>
   </trkpt>
   <trkpt lat="51.1119440" lon="5.4532650">
    <ele>64.1</ele>
    <time>2020-06-14T08:49:44Z</time>
   </trkpt>
   <trkpt lat="51.1118650" lon="5.4532660">
    <ele>64.1</ele>
    <time>2020-06-14T08:49:45Z</time>
   </trkpt>
   <trkpt lat="51.1117850" lon="5.4532630">
    <ele>64.2</ele>
    <time>2020-06-14T08:49:46Z</time>
   </trkpt>
   <trkpt lat="51.1117090" lon="5.4532520">
    <ele>64.2</ele>
    <time>2020-06-14T08:49:47Z</time>
   </trkpt>
   <trkpt lat="51.1116370" lon="5.4532440">
    <ele>64.3</ele>
    <time>2020-06-14T08:49:48Z</time>
   </trkpt>
   <trkpt lat="51.1115650" lon="5.4532380">
    <ele>64.3</ele>
    <time>2020-06-14T08:49:49Z</time>
   </trkpt>
   <trkpt lat="51.1114920" lon="5.4532360">
    <ele>64.3</ele>
    <time>2020-06-14T08:49:50Z</time>
   </trkpt>
   <trkpt lat="51.1114230" lon="5.4532330">
    <ele>64.3</ele>
    <time>2020-06-14T08:49:51Z</time>
   </trkpt>
   <trkpt lat="51.1113570" lon="5.4532280">
    <ele>64.3</ele>
    <time>2020-06-14T08:49:52Z</time>
   </trkpt>
   <trkpt lat="51.1112930" lon="5.4532230">
    <ele>64.3</ele>
    <time>2020-06-14T08:49:53Z</time>
   </trkpt>
   <trkpt lat="51.1112240" lon="5.4532240">
    <ele>64.3</ele>
    <time>2020-06-14T08:49:54Z</time>
   </trkpt>
   <trkpt lat="51.1111550" lon="5.4532130">
    <ele>64.4</ele>
    <time>2020-06-14T08:49:55Z</time>
   </trkpt>
   <trkpt lat="51.1110840" lon="5.4532040">
    <ele>64.4</ele>
    <time>2020-06-14T08:49:56Z</time>
   </trkpt>
   <trkpt lat="51.1110130" lon="5.4531960">
    <ele>64.4</ele>
    <time>2020-06-14T08:49:57Z</time>
   </trkpt>
   <trkpt lat="51.1109400" lon="5.4531910">
    <ele>64.5</ele>
    <time>2020-06-14T08:49:58Z</time>
   </trkpt>
   <trkpt lat="51.1108660" lon="5.4531840">
    <ele>64.5</ele>
    <time>2020-06-14T08:49:59Z</time>
   </trkpt>
   <trkpt lat="51.1107940" lon="5.4531840">
    <ele>64.6</ele>
    <time>2020-06-14T08:50:00Z</time>
   </trkpt>
   <trkpt lat="51.1107230" lon="5.4531790">
    <ele>64.6</ele>
    <time>2020-06-14T08:50:01Z</time>
   </trkpt>
   <trkpt lat="51.1106530" lon="5.4531650">
    <ele>64.6</ele>
    <time>2020-06-14T08:50:02Z</time>
   </trkpt>
   <trkpt lat="51.1105840" lon="5.4531630">
    <ele>64.7</ele>
    <time>2020-06-14T08:50:03Z</time>
   </trkpt>
   <trkpt lat="51.1105190" lon="5.4531540">
    <ele>64.7</ele>
    <time>2020-06-14T08:50:04Z</time>
   </trkpt>
   <trkpt lat="51.1104590" lon="5.4531460">
    <ele>64.7</ele>
    <time>2020-06-14T08:50:05Z</time>
   </trkpt>
   <trkpt lat="51.1104080" lon="5.4531320">
    <ele>64.7</ele>
    <time>2020-06-14T08:50:06Z</time>
   </trkpt>
   <trkpt lat="51.1103630" lon="5.4531230">
    <ele>64.7</ele>
    <time>2020-06-14T08:50:07Z</time>
   </trkpt>
   <trkpt lat="51.1103150" lon="5.4531090">
    <ele>64.8</ele>
    <time>2020-06-14T08:50:08Z</time>
   </trkpt>
   <trkpt lat="51.1102660" lon="5.4531020">
    <ele>64.8</ele>
    <time>2020-06-14T08:50:09Z</time>
   </trkpt>
   <trkpt lat="51.1102180" lon="5.4530940">
    <ele>64.9</ele>
    <time>2020-06-14T08:50:10Z</time>
   </trkpt>
   <trkpt lat="51.1101700" lon="5.4530860">
    <ele>65.0</ele>
    <time>2020-06-14T08:50:11Z</time>
   </trkpt>
   <trkpt lat="51.1101240" lon="5.4530780">
    <ele>65.1</ele>
    <time>2020-06-14T08:50:12Z</time>
   </trkpt>
   <trkpt lat="51.1100820" lon="5.4530670">
    <ele>65.1</ele>
    <time>2020-06-14T08:50:13Z</time>
   </trkpt>
   <trkpt lat="51.1100420" lon="5.4530640">
    <ele>65.2</ele>
    <time>2020-06-14T08:50:14Z</time>
   </trkpt>
   <trkpt lat="51.1100040" lon="5.4530650">
    <ele>65.3</ele>
    <time>2020-06-14T08:50:15Z</time>
   </trkpt>
   <trkpt lat="51.1099640" lon="5.4530650">
    <ele>65.3</ele>
    <time>2020-06-14T08:50:16Z</time>
   </trkpt>
   <trkpt lat="51.1099260" lon="5.4530660">
    <ele>65.4</ele>
    <time>2020-06-14T08:50:17Z</time>
   </trkpt>
   <trkpt lat="51.1098830" lon="5.4530630">
    <ele>65.5</ele>
    <time>2020-06-14T08:50:18Z</time>
   </trkpt>
   <trkpt lat="51.1098400" lon="5.4530610">
    <ele>65.5</ele>
    <time>2020-06-14T08:50:19Z</time>
   </trkpt>
   <trkpt lat="51.1097950" lon="5.4530580">
    <ele>65.6</ele>
    <time>2020-06-14T08:50:20Z</time>
   </trkpt>
   <trkpt lat="51.1097470" lon="5.4530540">
    <ele>65.6</ele>
    <time>2020-06-14T08:50:21Z</time>
   </trkpt>
   <trkpt lat="51.1097050" lon="5.4530340">
    <ele>65.6</ele>
    <time>2020-06-14T08:50:22Z</time>
   </trkpt>
   <trkpt lat="51.1096630" lon="5.4530240">
    <ele>65.6</ele>
    <time>2020-06-14T08:50:23Z</time>
   </trkpt>
   <trkpt lat="51.1096170" lon="5.4529810">
    <ele>65.5</ele>
    <time>2020-06-14T08:50:24Z</time>
   </trkpt>
   <trkpt lat="51.1095750" lon="5.4529530">
    <ele>65.5</ele>
    <time>2020-06-14T08:50:25Z</time>
   </trkpt>
   <trkpt lat="51.1095230" lon="5.4529130">
    <ele>65.4</ele>
    <time>2020-06-14T08:50:26Z</time>
   </trkpt>
   <trkpt lat="51.1094690" lon="5.4528640">
    <ele>65.4</ele>
    <time>2020-06-14T08:50:27Z</time>
   </trkpt>
   <trkpt lat="51.1094110" lon="5.4527930">
    <ele>65.4</ele>
    <time>2020-06-14T08:50:28Z</time>
   </trkpt>
   <trkpt lat="51.1093500" lon="5.4527220">
    <ele>65.4</ele>
    <time>2020-06-14T08:50:29Z</time>
   </trkpt>
   <trkpt lat="51.1092940" lon="5.4526560">
    <ele>65.4</ele>
    <time>2020-06-14T08:50:30Z</time>
   </trkpt>
   <trkpt lat="51.1092470" lon="5.4525910">
    <ele>65.4</ele>
    <time>2020-06-14T08:50:31Z</time>
   </trkpt>
   <trkpt lat="51.1091970" lon="5.4525310">
    <ele>65.4</ele>
    <time>2020-06-14T08:50:32Z</time>
   </trkpt>
   <trkpt lat="51.1091410" lon="5.4524700">
    <ele>65.5</ele>
    <time>2020-06-14T08:50:33Z</time>
   </trkpt>
   <trkpt lat="51.1090870" lon="5.4524090">
    <ele>65.5</ele>
    <time>2020-06-14T08:50:34Z</time>
   </trkpt>
   <trkpt lat="51.1090390" lon="5.4523440">
    <ele>65.6</ele>
    <time>2020-06-14T08:50:35Z</time>
   </trkpt>
   <trkpt lat="51.1089900" lon="5.4522840">
    <ele>65.7</ele>
    <time>2020-06-14T08:50:36Z</time>
   </trkpt>
   <trkpt lat="51.1089410" lon="5.4522240">
    <ele>65.7</ele>
    <time>2020-06-14T08:50:37Z</time>
   </trkpt>
   <trkpt lat="51.1088970" lon="5.4521810">
    <ele>65.8</ele>
    <time>2020-06-14T08:50:38Z</time>
   </trkpt>
   <trkpt lat="51.1088540" lon="5.4521590">
    <ele>65.9</ele>
    <time>2020-06-14T08:50:39Z</time>
   </trkpt>
   <trkpt lat="51.1087910" lon="5.4521680">
    <ele>66.0</ele>
    <time>2020-06-14T08:50:40Z</time>
   </trkpt>
   <trkpt lat="51.1087500" lon="5.4521950">
    <ele>65.9</ele>
    <time>2020-06-14T08:50:41Z</time>
   </trkpt>
   <trkpt lat="51.1087140" lon="5.4522440">
    <ele>65.8</ele>
    <time>2020-06-14T08:50:42Z</time>
   </trkpt>
   <trkpt lat="51.1086860" lon="5.4523010">
    <ele>65.7</ele>
    <time>2020-06-14T08:50:43Z</time>
   </trkpt>
   <trkpt lat="51.1086600" lon="5.4523850">
    <ele>65.6</ele>
    <time>2020-06-14T08:50:44Z</time>
   </trkpt>
   <trkpt lat="51.1086340" lon="5.4524930">
    <ele>65.4</ele>
    <time>2020-06-14T08:50:45Z</time>
   </trkpt>
   <trkpt lat="51.1086100" lon="5.4525990">
    <ele>65.3</ele>
    <time>2020-06-14T08:50:46Z</time>
   </trkpt>
   <trkpt lat="51.1085870" lon="5.4527010">
    <ele>65.2</ele>
    <time>2020-06-14T08:50:47Z</time>
   </trkpt>
   <trkpt lat="51.1085630" lon="5.4527960">
    <ele>65.2</ele>
    <time>2020-06-14T08:50:48Z</time>
   </trkpt>
   <trkpt lat="51.1085390" lon="5.4529010">
    <ele>65.1</ele>
    <time>2020-06-14T08:50:49Z</time>
   </trkpt>
   <trkpt lat="51.1085160" lon="5.4530120">
    <ele>65.1</ele>
    <time>2020-06-14T08:50:50Z</time>
   </trkpt>
   <trkpt lat="51.1084870" lon="5.4531150">
    <ele>65.0</ele>
    <time>2020-06-14T08:50:51Z</time>
   </trkpt>
   <trkpt lat="51.1084590" lon="5.4532260">
    <ele>64.9</ele>
    <time>2020-06-14T08:50:52Z</time>
   </trkpt>
   <trkpt lat="51.1084340" lon="5.4533330">
    <ele>64.9</ele>
    <time>2020-06-14T08:50:53Z</time>
   </trkpt>
   <trkpt lat="51.1084070" lon="5.4534480">
    <ele>64.8</ele>
    <time>2020-06-14T08:50:54Z</time>
   </trkpt>
   <trkpt lat="51.1083830" lon="5.4535500">
    <ele>64.8</ele>
    <time>2020-06-14T08:50:55Z</time>
   </trkpt>
   <trkpt lat="51.1083610" lon="5.4536330">
    <ele>64.7</ele>
    <time>2020-06-14T08:50:57Z</time>
   </trkpt>
   <trkpt lat="51.1083300" lon="5.4537510">
    <ele>64.7</ele>
    <time>2020-06-14T08:50:58Z</time>
   </trkpt>
   <trkpt lat="51.1082890" lon="5.4538660">
    <ele>64.7</ele>
    <time>2020-06-14T08:50:59Z</time>
   </trkpt>
   <trkpt lat="51.1082570" lon="5.4539670">
    <ele>64.7</ele>
    <time>2020-06-14T08:51:00Z</time>
   </trkpt>
   <trkpt lat="51.1082220" lon="5.4540720">
    <ele>64.7</ele>
    <time>2020-06-14T08:51:01Z</time>
   </trkpt>
   <trkpt lat="51.1081740" lon="5.4541790">
    <ele>64.9</ele>
    <time>2020-06-14T08:51:02Z</time>
   </trkpt>
   <trkpt lat="51.1081190" lon="5.4542960">
    <ele>65.1</ele>
    <time>2020-06-14T08:51:03Z</time>
   </trkpt>
   <trkpt lat="51.1080760" lon="5.4544120">
    <ele>65.1</ele>
    <time>2020-06-14T08:51:04Z</time>
   </trkpt>
   <trkpt lat="51.1080370" lon="5.4545160">
    <ele>65.1</ele>
    <time>2020-06-14T08:51:05Z</time>
   </trkpt>
   <trkpt lat="51.1079980" lon="5.4546110">
    <ele>65.1</ele>
    <time>2020-06-14T08:51:06Z</time>
   </trkpt>
   <trkpt lat="51.1079490" lon="5.4547240">
    <ele>65.1</ele>
    <time>2020-06-14T08:51:07Z</time>
   </trkpt>
   <trkpt lat="51.1079110" lon="5.4548020">
    <ele>65.1</ele>
    <time>2020-06-14T08:51:08Z</time>
   </trkpt>
   <trkpt lat="51.1078590" lon="5.4548880">
    <ele>65.1</ele>
    <time>2020-06-14T08:51:09Z</time>
   </trkpt>
   <trkpt lat="51.1078110" lon="5.4549820">
    <ele>65.1</ele>
    <time>2020-06-14T08:51:10Z</time>
   </trkpt>
   <trkpt lat="51.1077600" lon="5.4550800">
    <ele>65.2</ele>
    <time>2020-06-14T08:51:11Z</time>
   </trkpt>
   <trkpt lat="51.1077070" lon="5.4551720">
    <ele>65.2</ele>
    <time>2020-06-14T08:51:12Z</time>
   </trkpt>
   <trkpt lat="51.1076560" lon="5.4552630">
    <ele>65.2</ele>
    <time>2020-06-14T08:51:13Z</time>
   </trkpt>
   <trkpt lat="51.1076060" lon="5.4553520">
    <ele>65.2</ele>
    <time>2020-06-14T08:51:14Z</time>
   </trkpt>
   <trkpt lat="51.1075500" lon="5.4554450">
    <ele>65.3</ele>
    <time>2020-06-14T08:51:15Z</time>
   </trkpt>
   <trkpt lat="51.1075000" lon="5.4555390">
    <ele>65.3</ele>
    <time>2020-06-14T08:51:16Z</time>
   </trkpt>
   <trkpt lat="51.1074460" lon="5.4556280">
    <ele>65.4</ele>
    <time>2020-06-14T08:51:17Z</time>
   </trkpt>
   <trkpt lat="51.1073850" lon="5.4557130">
    <ele>65.5</ele>
    <time>2020-06-14T08:51:18Z</time>
   </trkpt>
   <trkpt lat="51.1073330" lon="5.4558060">
    <ele>65.6</ele>
    <time>2020-06-14T08:51:19Z</time>
   </trkpt>
   <trkpt lat="51.1072850" lon="5.4558930">
    <ele>65.6</ele>
    <time>2020-06-14T08:51:20Z</time>
   </trkpt>
   <trkpt lat="51.1072370" lon="5.4559820">
    <ele>65.7</ele>
    <time>2020-06-14T08:51:21Z</time>
   </trkpt>
   <trkpt lat="51.1071870" lon="5.4560730">
    <ele>65.7</ele>
    <time>2020-06-14T08:51:22Z</time>
   </trkpt>
   <trkpt lat="51.1071380" lon="5.4561540">
    <ele>65.8</ele>
    <time>2020-06-14T08:51:23Z</time>
   </trkpt>
   <trkpt lat="51.1070920" lon="5.4562380">
    <ele>65.8</ele>
    <time>2020-06-14T08:51:24Z</time>
   </trkpt>
   <trkpt lat="51.1070440" lon="5.4563280">
    <ele>65.9</ele>
    <time>2020-06-14T08:51:25Z</time>
   </trkpt>
   <trkpt lat="51.1069880" lon="5.4564080">
    <ele>65.9</ele>
    <time>2020-06-14T08:51:26Z</time>
   </trkpt>
   <trkpt lat="51.1069370" lon="5.4564950">
    <ele>65.9</ele>
    <time>2020-06-14T08:51:27Z</time>
   </trkpt>
   <trkpt lat="51.1068870" lon="5.4565830">
    <ele>65.9</ele>
    <time>2020-06-14T08:51:28Z</time>
   </trkpt>
   <trkpt lat="51.1068390" lon="5.4566700">
    <ele>65.9</ele>
    <time>2020-06-14T08:51:29Z</time>
   </trkpt>
   <trkpt lat="51.1067970" lon="5.4567570">
    <ele>65.9</ele>
    <time>2020-06-14T08:51:30Z</time>
   </trkpt>
   <trkpt lat="51.1067560" lon="5.4568460">
    <ele>65.9</ele>
    <time>2020-06-14T08:51:31Z</time>
   </trkpt>
   <trkpt lat="51.1067120" lon="5.4569300">
    <ele>65.9</ele>
    <time>2020-06-14T08:51:32Z</time>
   </trkpt>
   <trkpt lat="51.1066730" lon="5.4570190">
    <ele>66.0</ele>
    <time>2020-06-14T08:51:33Z</time>
   </trkpt>
   <trkpt lat="51.1066300" lon="5.4570990">
    <ele>66.0</ele>
    <time>2020-06-14T08:51:34Z</time>
   </trkpt>
   <trkpt lat="51.1065880" lon="5.4571760">
    <ele>66.0</ele>
    <time>2020-06-14T08:51:35Z</time>
   </trkpt>
   <trkpt lat="51.1065530" lon="5.4572550">
    <ele>65.9</ele>
    <time>2020-06-14T08:51:36Z</time>
   </trkpt>
   <trkpt lat="51.1065160" lon="5.4573370">
    <ele>65.9</ele>
    <time>2020-06-14T08:51:37Z</time>
   </trkpt>
   <trkpt lat="51.1064790" lon="5.4574100">
    <ele>65.9</ele>
    <time>2020-06-14T08:51:38Z</time>
   </trkpt>
   <trkpt lat="51.1064420" lon="5.4574790">
    <ele>65.9</ele>
    <time>2020-06-14T08:51:39Z</time>
   </trkpt>
   <trkpt lat="51.1064020" lon="5.4575450">
    <ele>65.9</ele>
    <time>2020-06-14T08:51:40Z</time>
   </trkpt>
   <trkpt lat="51.1063620" lon="5.4576240">
    <ele>65.9</ele>
    <time>2020-06-14T08:51:41Z</time>
   </trkpt>
   <trkpt lat="51.1063200" lon="5.4577190">
    <ele>65.9</ele>
    <time>2020-06-14T08:51:42Z</time>
   </trkpt>
   <trkpt lat="51.1062760" lon="5.4578220">
    <ele>65.9</ele>
    <time>2020-06-14T08:51:43Z</time>
   </trkpt>
   <trkpt lat="51.1062290" lon="5.4579220">
    <ele>65.9</ele>
    <time>2020-06-14T08:51:44Z</time>
   </trkpt>
   <trkpt lat="51.1061880" lon="5.4580150">
    <ele>65.8</ele>
    <time>2020-06-14T08:51:45Z</time>
   </trkpt>
   <trkpt lat="51.1061460" lon="5.4581100">
    <ele>65.8</ele>
    <time>2020-06-14T08:51:46Z</time>
   </trkpt>
   <trkpt lat="51.1061060" lon="5.4582060">
    <ele>65.8</ele>
    <time>2020-06-14T08:51:47Z</time>
   </trkpt>
   <trkpt lat="51.1060650" lon="5.4583120">
    <ele>65.8</ele>
    <time>2020-06-14T08:51:48Z</time>
   </trkpt>
   <trkpt lat="51.1060210" lon="5.4584210">
    <ele>65.8</ele>
    <time>2020-06-14T08:51:49Z</time>
   </trkpt>
   <trkpt lat="51.1059790" lon="5.4585250">
    <ele>65.8</ele>
    <time>2020-06-14T08:51:50Z</time>
   </trkpt>
   <trkpt lat="51.1059380" lon="5.4586230">
    <ele>65.8</ele>
    <time>2020-06-14T08:51:51Z</time>
   </trkpt>
   <trkpt lat="51.1059030" lon="5.4587110">
    <ele>65.7</ele>
    <time>2020-06-14T08:51:52Z</time>
   </trkpt>
   <trkpt lat="51.1058560" lon="5.4587970">
    <ele>65.7</ele>
    <time>2020-06-14T08:51:53Z</time>
   </trkpt>
   <trkpt lat="51.1058090" lon="5.4588890">
    <ele>65.7</ele>
    <time>2020-06-14T08:51:54Z</time>
   </trkpt>
   <trkpt lat="51.1057670" lon="5.4589720">
    <ele>65.7</ele>
    <time>2020-06-14T08:51:55Z</time>
   </trkpt>
   <trkpt lat="51.1057240" lon="5.4590580">
    <ele>65.8</ele>
    <time>2020-06-14T08:51:56Z</time>
   </trkpt>
   <trkpt lat="51.1056830" lon="5.4591290">
    <ele>65.8</ele>
    <time>2020-06-14T08:51:57Z</time>
   </trkpt>
   <trkpt lat="51.1056410" lon="5.4592000">
    <ele>65.9</ele>
    <time>2020-06-14T08:51:58Z</time>
   </trkpt>
   <trkpt lat="51.1056050" lon="5.4592720">
    <ele>66.0</ele>
    <time>2020-06-14T08:51:59Z</time>
   </trkpt>
   <trkpt lat="51.1055640" lon="5.4593370">
    <ele>66.1</ele>
    <time>2020-06-14T08:52:00Z</time>
   </trkpt>
   <trkpt lat="51.1055260" lon="5.4594040">
    <ele>66.2</ele>
    <time>2020-06-14T08:52:01Z</time>
   </trkpt>
   <trkpt lat="51.1054960" lon="5.4594620">
    <ele>66.3</ele>
    <time>2020-06-14T08:52:02Z</time>
   </trkpt>
   <trkpt lat="51.1054640" lon="5.4595080">
    <ele>66.3</ele>
    <time>2020-06-14T08:52:03Z</time>
   </trkpt>
   <trkpt lat="51.1054350" lon="5.4595500">
    <ele>66.4</ele>
    <time>2020-06-14T08:52:04Z</time>
   </trkpt>
   <trkpt lat="51.1054080" lon="5.4595970">
    <ele>66.4</ele>
    <time>2020-06-14T08:52:05Z</time>
   </trkpt>
   <trkpt lat="51.1054050" lon="5.4596950">
    <ele>66.4</ele>
    <time>2020-06-14T08:52:06Z</time>
   </trkpt>
   <trkpt lat="51.1054200" lon="5.4598240">
    <ele>66.3</ele>
    <time>2020-06-14T08:52:07Z</time>
   </trkpt>
   <trkpt lat="51.1054480" lon="5.4599290">
    <ele>66.2</ele>
    <time>2020-06-14T08:52:08Z</time>
   </trkpt>
   <trkpt lat="51.1054730" lon="5.4600450">
    <ele>66.2</ele>
    <time>2020-06-14T08:52:09Z</time>
   </trkpt>
   <trkpt lat="51.1054950" lon="5.4601480">
    <ele>66.2</ele>
    <time>2020-06-14T08:52:10Z</time>
   </trkpt>
   <trkpt lat="51.1055190" lon="5.4602530">
    <ele>66.2</ele>
    <time>2020-06-14T08:52:11Z</time>
   </trkpt>
   <trkpt lat="51.1055460" lon="5.4603560">
    <ele>66.2</ele>
    <time>2020-06-14T08:52:12Z</time>
   </trkpt>
   <trkpt lat="51.1055770" lon="5.4604550">
    <ele>66.2</ele>
    <time>2020-06-14T08:52:13Z</time>
   </trkpt>
   <trkpt lat="51.1056160" lon="5.4605440">
    <ele>66.2</ele>
    <time>2020-06-14T08:52:14Z</time>
   </trkpt>
   <trkpt lat="51.1056700" lon="5.4606080">
    <ele>66.2</ele>
    <time>2020-06-14T08:52:15Z</time>
   </trkpt>
   <trkpt lat="51.1057440" lon="5.4606450">
    <ele>66.2</ele>
    <time>2020-06-14T08:52:16Z</time>
   </trkpt>
   <trkpt lat="51.1058260" lon="5.4606520">
    <ele>66.2</ele>
    <time>2020-06-14T08:52:17Z</time>
   </trkpt>
   <trkpt lat="51.1059070" lon="5.4606710">
    <ele>66.2</ele>
    <time>2020-06-14T08:52:18Z</time>
   </trkpt>
   <trkpt lat="51.1059880" lon="5.4606930">
    <ele>66.2</ele>
    <time>2020-06-14T08:52:19Z</time>
   </trkpt>
   <trkpt lat="51.1060710" lon="5.4607090">
    <ele>66.2</ele>
    <time>2020-06-14T08:52:20Z</time>
   </trkpt>
   <trkpt lat="51.1061480" lon="5.4607160">
    <ele>66.2</ele>
    <time>2020-06-14T08:52:21Z</time>
   </trkpt>
   <trkpt lat="51.1062250" lon="5.4607240">
    <ele>66.2</ele>
    <time>2020-06-14T08:52:22Z</time>
   </trkpt>
   <trkpt lat="51.1062940" lon="5.4607330">
    <ele>66.3</ele>
    <time>2020-06-14T08:52:23Z</time>
   </trkpt>
   <trkpt lat="51.1063550" lon="5.4607360">
    <ele>66.3</ele>
    <time>2020-06-14T08:52:24Z</time>
   </trkpt>
   <trkpt lat="51.1064170" lon="5.4607350">
    <ele>66.4</ele>
    <time>2020-06-14T08:52:25Z</time>
   </trkpt>
   <trkpt lat="51.1064750" lon="5.4607360">
    <ele>66.5</ele>
    <time>2020-06-14T08:52:26Z</time>
   </trkpt>
   <trkpt lat="51.1065390" lon="5.4607490">
    <ele>66.5</ele>
    <time>2020-06-14T08:52:27Z</time>
   </trkpt>
   <trkpt lat="51.1066050" lon="5.4607780">
    <ele>66.6</ele>
    <time>2020-06-14T08:52:28Z</time>
   </trkpt>
   <trkpt lat="51.1066600" lon="5.4608190">
    <ele>66.4</ele>
    <time>2020-06-14T08:52:29Z</time>
   </trkpt>
   <trkpt lat="51.1067090" lon="5.4608690">
    <ele>66.3</ele>
    <time>2020-06-14T08:52:30Z</time>
   </trkpt>
   <trkpt lat="51.1067600" lon="5.4609230">
    <ele>66.2</ele>
    <time>2020-06-14T08:52:31Z</time>
   </trkpt>
   <trkpt lat="51.1067970" lon="5.4609720">
    <ele>66.2</ele>
    <time>2020-06-14T08:52:32Z</time>
   </trkpt>
   <trkpt lat="51.1068230" lon="5.4610990">
    <ele>66.1</ele>
    <time>2020-06-14T08:52:33Z</time>
   </trkpt>
   <trkpt lat="51.1068430" lon="5.4612160">
    <ele>66.1</ele>
    <time>2020-06-14T08:52:34Z</time>
   </trkpt>
   <trkpt lat="51.1068640" lon="5.4613490">
    <ele>66.0</ele>
    <time>2020-06-14T08:52:35Z</time>
   </trkpt>
   <trkpt lat="51.1068740" lon="5.4614740">
    <ele>66.0</ele>
    <time>2020-06-14T08:52:36Z</time>
   </trkpt>
   <trkpt lat="51.1068870" lon="5.4616080">
    <ele>66.0</ele>
    <time>2020-06-14T08:52:37Z</time>
   </trkpt>
   <trkpt lat="51.1069060" lon="5.4617700">
    <ele>66.0</ele>
    <time>2020-06-14T08:52:38Z</time>
   </trkpt>
   <trkpt lat="51.1069220" lon="5.4618910">
    <ele>66.0</ele>
    <time>2020-06-14T08:52:39Z</time>
   </trkpt>
   <trkpt lat="51.1069370" lon="5.4620320">
    <ele>66.1</ele>
    <time>2020-06-14T08:52:40Z</time>
   </trkpt>
   <trkpt lat="51.1069540" lon="5.4621680">
    <ele>66.1</ele>
    <time>2020-06-14T08:52:41Z</time>
   </trkpt>
   <trkpt lat="51.1069740" lon="5.4622890">
    <ele>66.2</ele>
    <time>2020-06-14T08:52:42Z</time>
   </trkpt>
   <trkpt lat="51.1069930" lon="5.4624120">
    <ele>66.4</ele>
    <time>2020-06-14T08:52:43Z</time>
   </trkpt>
   <trkpt lat="51.1070150" lon="5.4625230">
    <ele>66.6</ele>
    <time>2020-06-14T08:52:44Z</time>
   </trkpt>
   <trkpt lat="51.1070310" lon="5.4626340">
    <ele>66.8</ele>
    <time>2020-06-14T08:52:45Z</time>
   </trkpt>
   <trkpt lat="51.1070420" lon="5.4627330">
    <ele>67.0</ele>
    <time>2020-06-14T08:52:46Z</time>
   </trkpt>
   <trkpt lat="51.1070390" lon="5.4627950">
    <ele>67.1</ele>
    <time>2020-06-14T08:52:47Z</time>
   </trkpt>
   <trkpt lat="51.1070440" lon="5.4628690">
    <ele>67.2</ele>
    <time>2020-06-14T08:52:48Z</time>
   </trkpt>
   <trkpt lat="51.1070450" lon="5.4629570">
    <ele>67.1</ele>
    <time>2020-06-14T08:52:49Z</time>
   </trkpt>
   <trkpt lat="51.1070460" lon="5.4630400">
    <ele>67.0</ele>
    <time>2020-06-14T08:52:50Z</time>
   </trkpt>
   <trkpt lat="51.1070430" lon="5.4631210">
    <ele>67.0</ele>
    <time>2020-06-14T08:52:51Z</time>
   </trkpt>
   <trkpt lat="51.1070440" lon="5.4632100">
    <ele>66.9</ele>
    <time>2020-06-14T08:52:52Z</time>
   </trkpt>
   <trkpt lat="51.1070460" lon="5.4633030">
    <ele>66.8</ele>
    <time>2020-06-14T08:52:53Z</time>
   </trkpt>
   <trkpt lat="51.1070490" lon="5.4633890">
    <ele>66.8</ele>
    <time>2020-06-14T08:52:54Z</time>
   </trkpt>
   <trkpt lat="51.1070550" lon="5.4634840">
    <ele>66.7</ele>
    <time>2020-06-14T08:52:55Z</time>
   </trkpt>
   <trkpt lat="51.1070800" lon="5.4635750">
    <ele>66.7</ele>
    <time>2020-06-14T08:52:56Z</time>
   </trkpt>
   <trkpt lat="51.1071060" lon="5.4636690">
    <ele>66.6</ele>
    <time>2020-06-14T08:52:57Z</time>
   </trkpt>
   <trkpt lat="51.1071370" lon="5.4637770">
    <ele>66.5</ele>
    <time>2020-06-14T08:52:58Z</time>
   </trkpt>
   <trkpt lat="51.1071680" lon="5.4638920">
    <ele>66.5</ele>
    <time>2020-06-14T08:52:59Z</time>
   </trkpt>
   <trkpt lat="51.1072040" lon="5.4639930">
    <ele>66.4</ele>
    <time>2020-06-14T08:53:00Z</time>
   </trkpt>
   <trkpt lat="51.1072480" lon="5.4640970">
    <ele>66.4</ele>
    <time>2020-06-14T08:53:01Z</time>
   </trkpt>
   <trkpt lat="51.1072920" lon="5.4642020">
    <ele>66.4</ele>
    <time>2020-06-14T08:53:02Z</time>
   </trkpt>
   <trkpt lat="51.1073320" lon="5.4643050">
    <ele>66.4</ele>
    <time>2020-06-14T08:53:03Z</time>
   </trkpt>
   <trkpt lat="51.1073750" lon="5.4644070">
    <ele>66.4</ele>
    <time>2020-06-14T08:53:04Z</time>
   </trkpt>
   <trkpt lat="51.1074160" lon="5.4645050">
    <ele>66.4</ele>
    <time>2020-06-14T08:53:05Z</time>
   </trkpt>
   <trkpt lat="51.1074550" lon="5.4646070">
    <ele>66.4</ele>
    <time>2020-06-14T08:53:06Z</time>
   </trkpt>
   <trkpt lat="51.1074970" lon="5.4647120">
    <ele>66.4</ele>
    <time>2020-06-14T08:53:07Z</time>
   </trkpt>
   <trkpt lat="51.1075370" lon="5.4648200">
    <ele>66.5</ele>
    <time>2020-06-14T08:53:08Z</time>
   </trkpt>
   <trkpt lat="51.1075780" lon="5.4649240">
    <ele>66.6</ele>
    <time>2020-06-14T08:53:09Z</time>
   </trkpt>
   <trkpt lat="51.1076140" lon="5.4650270">
    <ele>66.7</ele>
    <time>2020-06-14T08:53:10Z</time>
   </trkpt>
   <trkpt lat="51.1076530" lon="5.4651270">
    <ele>66.7</ele>
    <time>2020-06-14T08:53:11Z</time>
   </trkpt>
   <trkpt lat="51.1076930" lon="5.4652260">
    <ele>66.7</ele>
    <time>2020-06-14T08:53:12Z</time>
   </trkpt>
   <trkpt lat="51.1077310" lon="5.4653260">
    <ele>66.7</ele>
    <time>2020-06-14T08:53:13Z</time>
   </trkpt>
   <trkpt lat="51.1077660" lon="5.4654110">
    <ele>66.7</ele>
    <time>2020-06-14T08:53:14Z</time>
   </trkpt>
   <trkpt lat="51.1078010" lon="5.4655010">
    <ele>66.7</ele>
    <time>2020-06-14T08:53:15Z</time>
   </trkpt>
   <trkpt lat="51.1078360" lon="5.4655830">
    <ele>66.7</ele>
    <time>2020-06-14T08:53:16Z</time>
   </trkpt>
   <trkpt lat="51.1078680" lon="5.4656610">
    <ele>66.7</ele>
    <time>2020-06-14T08:53:17Z</time>
   </trkpt>
   <trkpt lat="51.1078940" lon="5.4657470">
    <ele>66.7</ele>
    <time>2020-06-14T08:53:18Z</time>
   </trkpt>
   <trkpt lat="51.1079120" lon="5.4658430">
    <ele>66.7</ele>
    <time>2020-06-14T08:53:19Z</time>
   </trkpt>
   <trkpt lat="51.1079250" lon="5.4659630">
    <ele>66.7</ele>
    <time>2020-06-14T08:53:20Z</time>
   </trkpt>
   <trkpt lat="51.1079350" lon="5.4660730">
    <ele>66.6</ele>
    <time>2020-06-14T08:53:21Z</time>
   </trkpt>
   <trkpt lat="51.1079450" lon="5.4661930">
    <ele>66.6</ele>
    <time>2020-06-14T08:53:22Z</time>
   </trkpt>
   <trkpt lat="51.1079560" lon="5.4663000">
    <ele>66.6</ele>
    <time>2020-06-14T08:53:23Z</time>
   </trkpt>
   <trkpt lat="51.1079620" lon="5.4664080">
    <ele>66.5</ele>
    <time>2020-06-14T08:53:24Z</time>
   </trkpt>
   <trkpt lat="51.1079690" lon="5.4665110">
    <ele>66.5</ele>
    <time>2020-06-14T08:53:25Z</time>
   </trkpt>
   <trkpt lat="51.1079780" lon="5.4666250">
    <ele>66.4</ele>
    <time>2020-06-14T08:53:26Z</time>
   </trkpt>
   <trkpt lat="51.1079840" lon="5.4667470">
    <ele>66.4</ele>
    <time>2020-06-14T08:53:27Z</time>
   </trkpt>
   <trkpt lat="51.1079950" lon="5.4668880">
    <ele>66.4</ele>
    <time>2020-06-14T08:53:28Z</time>
   </trkpt>
   <trkpt lat="51.1080030" lon="5.4670430">
    <ele>66.4</ele>
    <time>2020-06-14T08:53:29Z</time>
   </trkpt>
   <trkpt lat="51.1080090" lon="5.4671860">
    <ele>66.4</ele>
    <time>2020-06-14T08:53:30Z</time>
   </trkpt>
   <trkpt lat="51.1080080" lon="5.4673350">
    <ele>66.4</ele>
    <time>2020-06-14T08:53:31Z</time>
   </trkpt>
   <trkpt lat="51.1080090" lon="5.4674640">
    <ele>66.4</ele>
    <time>2020-06-14T08:53:32Z</time>
   </trkpt>
   <trkpt lat="51.1080120" lon="5.4675920">
    <ele>66.5</ele>
    <time>2020-06-14T08:53:33Z</time>
   </trkpt>
   <trkpt lat="51.1080140" lon="5.4677220">
    <ele>66.5</ele>
    <time>2020-06-14T08:53:34Z</time>
   </trkpt>
   <trkpt lat="51.1079960" lon="5.4678620">
    <ele>66.4</ele>
    <time>2020-06-14T08:53:35Z</time>
   </trkpt>
   <trkpt lat="51.1080060" lon="5.4679870">
    <ele>66.4</ele>
    <time>2020-06-14T08:53:36Z</time>
   </trkpt>
   <trkpt lat="51.1080270" lon="5.4681150">
    <ele>66.4</ele>
    <time>2020-06-14T08:53:37Z</time>
   </trkpt>
   <trkpt lat="51.1080490" lon="5.4682410">
    <ele>66.3</ele>
    <time>2020-06-14T08:53:38Z</time>
   </trkpt>
   <trkpt lat="51.1081080" lon="5.4683580">
    <ele>66.3</ele>
    <time>2020-06-14T08:53:39Z</time>
   </trkpt>
   <trkpt lat="51.1081410" lon="5.4684830">
    <ele>66.2</ele>
    <time>2020-06-14T08:53:40Z</time>
   </trkpt>
   <trkpt lat="51.1081730" lon="5.4686100">
    <ele>66.2</ele>
    <time>2020-06-14T08:53:41Z</time>
   </trkpt>
   <trkpt lat="51.1082010" lon="5.4687210">
    <ele>66.2</ele>
    <time>2020-06-14T08:53:42Z</time>
   </trkpt>
   <trkpt lat="51.1082350" lon="5.4688440">
    <ele>66.2</ele>
    <time>2020-06-14T08:53:43Z</time>
   </trkpt>
   <trkpt lat="51.1082660" lon="5.4689620">
    <ele>66.2</ele>
    <time>2020-06-14T08:53:44Z</time>
   </trkpt>
   <trkpt lat="51.1082940" lon="5.4690900">
    <ele>66.2</ele>
    <time>2020-06-14T08:53:45Z</time>
   </trkpt>
   <trkpt lat="51.1083420" lon="5.4692070">
    <ele>66.2</ele>
    <time>2020-06-14T08:53:46Z</time>
   </trkpt>
   <trkpt lat="51.1083700" lon="5.4693240">
    <ele>66.2</ele>
    <time>2020-06-14T08:53:47Z</time>
   </trkpt>
   <trkpt lat="51.1083980" lon="5.4694410">
    <ele>66.1</ele>
    <time>2020-06-14T08:53:48Z</time>
   </trkpt>
   <trkpt lat="51.1084280" lon="5.4695570">
    <ele>66.1</ele>
    <time>2020-06-14T08:53:49Z</time>
   </trkpt>
   <trkpt lat="51.1084610" lon="5.4696810">
    <ele>66.2</ele>
    <time>2020-06-14T08:53:50Z</time>
   </trkpt>
   <trkpt lat="51.1084940" lon="5.4698010">
    <ele>66.2</ele>
    <time>2020-06-14T08:53:51Z</time>
   </trkpt>
   <trkpt lat="51.1085240" lon="5.4699180">
    <ele>66.2</ele>
    <time>2020-06-14T08:53:52Z</time>
   </trkpt>
   <trkpt lat="51.1085570" lon="5.4700350">
    <ele>66.1</ele>
    <time>2020-06-14T08:53:53Z</time>
   </trkpt>
   <trkpt lat="51.1085890" lon="5.4701500">
    <ele>66.1</ele>
    <time>2020-06-14T08:53:54Z</time>
   </trkpt>
   <trkpt lat="51.1086210" lon="5.4702570">
    <ele>66.1</ele>
    <time>2020-06-14T08:53:55Z</time>
   </trkpt>
   <trkpt lat="51.1086510" lon="5.4703730">
    <ele>66.1</ele>
    <time>2020-06-14T08:53:56Z</time>
   </trkpt>
   <trkpt lat="51.1086860" lon="5.4704920">
    <ele>66.1</ele>
    <time>2020-06-14T08:53:57Z</time>
   </trkpt>
   <trkpt lat="51.1087170" lon="5.4706080">
    <ele>66.1</ele>
    <time>2020-06-14T08:53:58Z</time>
   </trkpt>
   <trkpt lat="51.1087460" lon="5.4707200">
    <ele>66.1</ele>
    <time>2020-06-14T08:53:59Z</time>
   </trkpt>
   <trkpt lat="51.1087680" lon="5.4708340">
    <ele>66.0</ele>
    <time>2020-06-14T08:54:00Z</time>
   </trkpt>
   <trkpt lat="51.1087950" lon="5.4709450">
    <ele>66.0</ele>
    <time>2020-06-14T08:54:01Z</time>
   </trkpt>
   <trkpt lat="51.1088280" lon="5.4710600">
    <ele>66.0</ele>
    <time>2020-06-14T08:54:02Z</time>
   </trkpt>
   <trkpt lat="51.1088540" lon="5.4711730">
    <ele>65.9</ele>
    <time>2020-06-14T08:54:03Z</time>
   </trkpt>
   <trkpt lat="51.1088820" lon="5.4712840">
    <ele>65.9</ele>
    <time>2020-06-14T08:54:04Z</time>
   </trkpt>
   <trkpt lat="51.1089140" lon="5.4713930">
    <ele>65.9</ele>
    <time>2020-06-14T08:54:05Z</time>
   </trkpt>
   <trkpt lat="51.1089500" lon="5.4715130">
    <ele>65.9</ele>
    <time>2020-06-14T08:54:06Z</time>
   </trkpt>
   <trkpt lat="51.1089860" lon="5.4716370">
    <ele>65.9</ele>
    <time>2020-06-14T08:54:07Z</time>
   </trkpt>
   <trkpt lat="51.1090170" lon="5.4717640">
    <ele>65.9</ele>
    <time>2020-06-14T08:54:08Z</time>
   </trkpt>
   <trkpt lat="51.1090410" lon="5.4718870">
    <ele>65.9</ele>
    <time>2020-06-14T08:54:09Z</time>
   </trkpt>
   <trkpt lat="51.1090640" lon="5.4720060">
    <ele>66.0</ele>
    <time>2020-06-14T08:54:10Z</time>
   </trkpt>
   <trkpt lat="51.1090870" lon="5.4721260">
    <ele>66.0</ele>
    <time>2020-06-14T08:54:11Z</time>
   </trkpt>
   <trkpt lat="51.1091120" lon="5.4722470">
    <ele>66.0</ele>
    <time>2020-06-14T08:54:12Z</time>
   </trkpt>
   <trkpt lat="51.1091420" lon="5.4723660">
    <ele>66.0</ele>
    <time>2020-06-14T08:54:13Z</time>
   </trkpt>
   <trkpt lat="51.1091710" lon="5.4724840">
    <ele>66.1</ele>
    <time>2020-06-14T08:54:14Z</time>
   </trkpt>
   <trkpt lat="51.1091970" lon="5.4726040">
    <ele>66.1</ele>
    <time>2020-06-14T08:54:15Z</time>
   </trkpt>
   <trkpt lat="51.1092270" lon="5.4727210">
    <ele>66.1</ele>
    <time>2020-06-14T08:54:16Z</time>
   </trkpt>
   <trkpt lat="51.1092550" lon="5.4728340">
    <ele>66.0</ele>
    <time>2020-06-14T08:54:17Z</time>
   </trkpt>
   <trkpt lat="51.1092820" lon="5.4729470">
    <ele>66.0</ele>
    <time>2020-06-14T08:54:18Z</time>
   </trkpt>
   <trkpt lat="51.1093160" lon="5.4730620">
    <ele>65.9</ele>
    <time>2020-06-14T08:54:19Z</time>
   </trkpt>
   <trkpt lat="51.1093460" lon="5.4731810">
    <ele>65.9</ele>
    <time>2020-06-14T08:54:20Z</time>
   </trkpt>
   <trkpt lat="51.1093730" lon="5.4733020">
    <ele>65.9</ele>
    <time>2020-06-14T08:54:21Z</time>
   </trkpt>
   <trkpt lat="51.1094650" lon="5.4734080">
    <ele>65.8</ele>
    <time>2020-06-14T08:54:22Z</time>
   </trkpt>
   <trkpt lat="51.1094940" lon="5.4735320">
    <ele>65.8</ele>
    <time>2020-06-14T08:54:23Z</time>
   </trkpt>
   <trkpt lat="51.1095210" lon="5.4736600">
    <ele>65.7</ele>
    <time>2020-06-14T08:54:24Z</time>
   </trkpt>
   <trkpt lat="51.1095530" lon="5.4737800">
    <ele>65.7</ele>
    <time>2020-06-14T08:54:25Z</time>
   </trkpt>
   <trkpt lat="51.1095840" lon="5.4738980">
    <ele>65.7</ele>
    <time>2020-06-14T08:54:26Z</time>
   </trkpt>
   <trkpt lat="51.1096080" lon="5.4740220">
    <ele>65.7</ele>
    <time>2020-06-14T08:54:27Z</time>
   </trkpt>
   <trkpt lat="51.1096320" lon="5.4741480">
    <ele>65.7</ele>
    <time>2020-06-14T08:54:28Z</time>
   </trkpt>
   <trkpt lat="51.1096570" lon="5.4742670">
    <ele>65.7</ele>
    <time>2020-06-14T08:54:29Z</time>
   </trkpt>
   <trkpt lat="51.1096880" lon="5.4743850">
    <ele>65.6</ele>
    <time>2020-06-14T08:54:30Z</time>
   </trkpt>
   <trkpt lat="51.1097150" lon="5.4745040">
    <ele>65.6</ele>
    <time>2020-06-14T08:54:31Z</time>
   </trkpt>
   <trkpt lat="51.1097410" lon="5.4746230">
    <ele>65.6</ele>
    <time>2020-06-14T08:54:32Z</time>
   </trkpt>
   <trkpt lat="51.1097690" lon="5.4747350">
    <ele>65.6</ele>
    <time>2020-06-14T08:54:33Z</time>
   </trkpt>
   <trkpt lat="51.1097970" lon="5.4748540">
    <ele>65.6</ele>
    <time>2020-06-14T08:54:34Z</time>
   </trkpt>
   <trkpt lat="51.1098280" lon="5.4749730">
    <ele>65.6</ele>
    <time>2020-06-14T08:54:35Z</time>
   </trkpt>
   <trkpt lat="51.1098640" lon="5.4750810">
    <ele>65.7</ele>
    <time>2020-06-14T08:54:36Z</time>
   </trkpt>
   <trkpt lat="51.1099100" lon="5.4751700">
    <ele>65.7</ele>
    <time>2020-06-14T08:54:37Z</time>
   </trkpt>
   <trkpt lat="51.1099820" lon="5.4752220">
    <ele>65.6</ele>
    <time>2020-06-14T08:54:38Z</time>
   </trkpt>
   <trkpt lat="51.1100590" lon="5.4752590">
    <ele>65.5</ele>
    <time>2020-06-14T08:54:39Z</time>
   </trkpt>
   <trkpt lat="51.1101290" lon="5.4752940">
    <ele>65.5</ele>
    <time>2020-06-14T08:54:40Z</time>
   </trkpt>
   <trkpt lat="51.1101960" lon="5.4753280">
    <ele>65.4</ele>
    <time>2020-06-14T08:54:41Z</time>
   </trkpt>
   <trkpt lat="51.1102670" lon="5.4753650">
    <ele>65.3</ele>
    <time>2020-06-14T08:54:42Z</time>
   </trkpt>
   <trkpt lat="51.1103440" lon="5.4754020">
    <ele>65.2</ele>
    <time>2020-06-14T08:54:43Z</time>
   </trkpt>
   <trkpt lat="51.1104120" lon="5.4754390">
    <ele>65.2</ele>
    <time>2020-06-14T08:54:44Z</time>
   </trkpt>
   <trkpt lat="51.1104790" lon="5.4754480">
    <ele>65.1</ele>
    <time>2020-06-14T08:54:45Z</time>
   </trkpt>
   <trkpt lat="51.1105500" lon="5.4754840">
    <ele>65.1</ele>
    <time>2020-06-14T08:54:46Z</time>
   </trkpt>
   <trkpt lat="51.1106290" lon="5.4755220">
    <ele>65.1</ele>
    <time>2020-06-14T08:54:47Z</time>
   </trkpt>
   <trkpt lat="51.1107000" lon="5.4755660">
    <ele>65.1</ele>
    <time>2020-06-14T08:54:48Z</time>
   </trkpt>
   <trkpt lat="51.1107710" lon="5.4755960">
    <ele>65.0</ele>
    <time>2020-06-14T08:54:49Z</time>
   </trkpt>
   <trkpt lat="51.1108440" lon="5.4756430">
    <ele>65.0</ele>
    <time>2020-06-14T08:54:50Z</time>
   </trkpt>
   <trkpt lat="51.1109160" lon="5.4757020">
    <ele>65.0</ele>
    <time>2020-06-14T08:54:51Z</time>
   </trkpt>
   <trkpt lat="51.1109780" lon="5.4757860">
    <ele>65.0</ele>
    <time>2020-06-14T08:54:52Z</time>
   </trkpt>
   <trkpt lat="51.1110440" lon="5.4758620">
    <ele>64.9</ele>
    <time>2020-06-14T08:54:53Z</time>
   </trkpt>
   <trkpt lat="51.1111110" lon="5.4759320">
    <ele>64.9</ele>
    <time>2020-06-14T08:54:54Z</time>
   </trkpt>
   <trkpt lat="51.1111760" lon="5.4760050">
    <ele>64.9</ele>
    <time>2020-06-14T08:54:55Z</time>
   </trkpt>
   <trkpt lat="51.1112400" lon="5.4760740">
    <ele>64.8</ele>
    <time>2020-06-14T08:54:56Z</time>
   </trkpt>
   <trkpt lat="51.1113070" lon="5.4761490">
    <ele>64.8</ele>
    <time>2020-06-14T08:54:57Z</time>
   </trkpt>
   <trkpt lat="51.1113750" lon="5.4762280">
    <ele>64.8</ele>
    <time>2020-06-14T08:54:58Z</time>
   </trkpt>
   <trkpt lat="51.1114400" lon="5.4763060">
    <ele>64.8</ele>
    <time>2020-06-14T08:54:59Z</time>
   </trkpt>
   <trkpt lat="51.1115070" lon="5.4763870">
    <ele>64.8</ele>
    <time>2020-06-14T08:55:00Z</time>
   </trkpt>
   <trkpt lat="51.1115730" lon="5.4764690">
    <ele>64.8</ele>
    <time>2020-06-14T08:55:01Z</time>
   </trkpt>
   <trkpt lat="51.1116400" lon="5.4765500">
    <ele>64.7</ele>
    <time>2020-06-14T08:55:02Z</time>
   </trkpt>
   <trkpt lat="51.1117080" lon="5.4766310">
    <ele>64.7</ele>
    <time>2020-06-14T08:55:03Z</time>
   </trkpt>
   <trkpt lat="51.1117760" lon="5.4767140">
    <ele>64.7</ele>
    <time>2020-06-14T08:55:04Z</time>
   </trkpt>
   <trkpt lat="51.1118430" lon="5.4767940">
    <ele>64.6</ele>
    <time>2020-06-14T08:55:05Z</time>
   </trkpt>
   <trkpt lat="51.1119120" lon="5.4768800">
    <ele>64.6</ele>
    <time>2020-06-14T08:55:06Z</time>
   </trkpt>
   <trkpt lat="51.1119810" lon="5.4769620">
    <ele>64.6</ele>
    <time>2020-06-14T08:55:07Z</time>
   </trkpt>
   <trkpt lat="51.1120510" lon="5.4770450">
    <ele>64.6</ele>
    <time>2020-06-14T08:55:08Z</time>
   </trkpt>
   <trkpt lat="51.1121190" lon="5.4771250">
    <ele>64.6</ele>
    <time>2020-06-14T08:55:09Z</time>
   </trkpt>
   <trkpt lat="51.1121890" lon="5.4772000">
    <ele>64.6</ele>
    <time>2020-06-14T08:55:10Z</time>
   </trkpt>
   <trkpt lat="51.1122580" lon="5.4772760">
    <ele>64.6</ele>
    <time>2020-06-14T08:55:11Z</time>
   </trkpt>
   <trkpt lat="51.1123270" lon="5.4773440">
    <ele>64.5</ele>
    <time>2020-06-14T08:55:12Z</time>
   </trkpt>
   <trkpt lat="51.1123960" lon="5.4774110">
    <ele>64.5</ele>
    <time>2020-06-14T08:55:13Z</time>
   </trkpt>
   <trkpt lat="51.1124640" lon="5.4774750">
    <ele>64.5</ele>
    <time>2020-06-14T08:55:14Z</time>
   </trkpt>
   <trkpt lat="51.1125330" lon="5.4775330">
    <ele>64.5</ele>
    <time>2020-06-14T08:55:15Z</time>
   </trkpt>
   <trkpt lat="51.1126000" lon="5.4775940">
    <ele>64.5</ele>
    <time>2020-06-14T08:55:16Z</time>
   </trkpt>
   <trkpt lat="51.1126700" lon="5.4776510">
    <ele>64.4</ele>
    <time>2020-06-14T08:55:17Z</time>
   </trkpt>
   <trkpt lat="51.1127430" lon="5.4777020">
    <ele>64.4</ele>
    <time>2020-06-14T08:55:18Z</time>
   </trkpt>
   <trkpt lat="51.1128190" lon="5.4777560">
    <ele>64.4</ele>
    <time>2020-06-14T08:55:19Z</time>
   </trkpt>
   <trkpt lat="51.1128940" lon="5.4778120">
    <ele>64.3</ele>
    <time>2020-06-14T08:55:20Z</time>
   </trkpt>
   <trkpt lat="51.1129660" lon="5.4778770">
    <ele>64.3</ele>
    <time>2020-06-14T08:55:21Z</time>
   </trkpt>
   <trkpt lat="51.1130400" lon="5.4779360">
    <ele>64.3</ele>
    <time>2020-06-14T08:55:22Z</time>
   </trkpt>
   <trkpt lat="51.1131150" lon="5.4779880">
    <ele>64.3</ele>
    <time>2020-06-14T08:55:23Z</time>
   </trkpt>
   <trkpt lat="51.1131870" lon="5.4780360">
    <ele>64.4</ele>
    <time>2020-06-14T08:55:24Z</time>
   </trkpt>
   <trkpt lat="51.1132600" lon="5.4780780">
    <ele>64.5</ele>
    <time>2020-06-14T08:55:25Z</time>
   </trkpt>
   <trkpt lat="51.1133380" lon="5.4781200">
    <ele>64.6</ele>
    <time>2020-06-14T08:55:26Z</time>
   </trkpt>
   <trkpt lat="51.1134150" lon="5.4781670">
    <ele>64.6</ele>
    <time>2020-06-14T08:55:27Z</time>
   </trkpt>
   <trkpt lat="51.1134890" lon="5.4782130">
    <ele>64.6</ele>
    <time>2020-06-14T08:55:28Z</time>
   </trkpt>
   <trkpt lat="51.1135620" lon="5.4782570">
    <ele>64.5</ele>
    <time>2020-06-14T08:55:29Z</time>
   </trkpt>
   <trkpt lat="51.1136390" lon="5.4783070">
    <ele>64.4</ele>
    <time>2020-06-14T08:55:30Z</time>
   </trkpt>
   <trkpt lat="51.1137160" lon="5.4783540">
    <ele>64.4</ele>
    <time>2020-06-14T08:55:31Z</time>
   </trkpt>
   <trkpt lat="51.1137920" lon="5.4783960">
    <ele>64.3</ele>
    <time>2020-06-14T08:55:32Z</time>
   </trkpt>
   <trkpt lat="51.1138670" lon="5.4784340">
    <ele>64.2</ele>
    <time>2020-06-14T08:55:33Z</time>
   </trkpt>
   <trkpt lat="51.1139380" lon="5.4784780">
    <ele>64.2</ele>
    <time>2020-06-14T08:55:34Z</time>
   </trkpt>
   <trkpt lat="51.1140080" lon="5.4785270">
    <ele>64.2</ele>
    <time>2020-06-14T08:55:35Z</time>
   </trkpt>
   <trkpt lat="51.1140810" lon="5.4785740">
    <ele>64.2</ele>
    <time>2020-06-14T08:55:36Z</time>
   </trkpt>
   <trkpt lat="51.1141480" lon="5.4786150">
    <ele>64.2</ele>
    <time>2020-06-14T08:55:37Z</time>
   </trkpt>
   <trkpt lat="51.1142120" lon="5.4786540">
    <ele>64.2</ele>
    <time>2020-06-14T08:55:38Z</time>
   </trkpt>
   <trkpt lat="51.1142760" lon="5.4786900">
    <ele>64.2</ele>
    <time>2020-06-14T08:55:39Z</time>
   </trkpt>
   <trkpt lat="51.1143390" lon="5.4787220">
    <ele>64.3</ele>
    <time>2020-06-14T08:55:40Z</time>
   </trkpt>
   <trkpt lat="51.1143950" lon="5.4787520">
    <ele>64.3</ele>
    <time>2020-06-14T08:55:41Z</time>
   </trkpt>
   <trkpt lat="51.1144450" lon="5.4787870">
    <ele>64.3</ele>
    <time>2020-06-14T08:55:42Z</time>
   </trkpt>
   <trkpt lat="51.1144920" lon="5.4788090">
    <ele>64.4</ele>
    <time>2020-06-14T08:55:43Z</time>
   </trkpt>
   <trkpt lat="51.1145360" lon="5.4788330">
    <ele>64.4</ele>
    <time>2020-06-14T08:55:44Z</time>
   </trkpt>
   <trkpt lat="51.1145790" lon="5.4788530">
    <ele>64.5</ele>
    <time>2020-06-14T08:55:45Z</time>
   </trkpt>
   <trkpt lat="51.1146170" lon="5.4788780">
    <ele>64.6</ele>
    <time>2020-06-14T08:55:46Z</time>
   </trkpt>
   <trkpt lat="51.1146550" lon="5.4789110">
    <ele>64.6</ele>
    <time>2020-06-14T08:55:47Z</time>
   </trkpt>
   <trkpt lat="51.1146770" lon="5.4789680">
    <ele>64.7</ele>
    <time>2020-06-14T08:55:48Z</time>
   </trkpt>
   <trkpt lat="51.1146900" lon="5.4790230">
    <ele>64.8</ele>
    <time>2020-06-14T08:55:49Z</time>
   </trkpt>
   <trkpt lat="51.1146930" lon="5.4790820">
    <ele>64.8</ele>
    <time>2020-06-14T08:55:50Z</time>
   </trkpt>
   <trkpt lat="51.1146680" lon="5.4791580">
    <ele>64.6</ele>
    <time>2020-06-14T08:55:51Z</time>
   </trkpt>
   <trkpt lat="51.1146120" lon="5.4792070">
    <ele>64.4</ele>
    <time>2020-06-14T08:55:52Z</time>
   </trkpt>
   <trkpt lat="51.1145480" lon="5.4792480">
    <ele>64.1</ele>
    <time>2020-06-14T08:55:53Z</time>
   </trkpt>
   <trkpt lat="51.1144810" lon="5.4793160">
    <ele>63.9</ele>
    <time>2020-06-14T08:55:54Z</time>
   </trkpt>
   <trkpt lat="51.1144120" lon="5.4793780">
    <ele>63.8</ele>
    <time>2020-06-14T08:55:55Z</time>
   </trkpt>
   <trkpt lat="51.1143440" lon="5.4794370">
    <ele>63.6</ele>
    <time>2020-06-14T08:55:56Z</time>
   </trkpt>
   <trkpt lat="51.1142770" lon="5.4795020">
    <ele>63.6</ele>
    <time>2020-06-14T08:55:57Z</time>
   </trkpt>
   <trkpt lat="51.1142170" lon="5.4795810">
    <ele>63.5</ele>
    <time>2020-06-14T08:55:58Z</time>
   </trkpt>
   <trkpt lat="51.1141610" lon="5.4796750">
    <ele>63.4</ele>
    <time>2020-06-14T08:55:59Z</time>
   </trkpt>
   <trkpt lat="51.1141080" lon="5.4797770">
    <ele>63.4</ele>
    <time>2020-06-14T08:56:00Z</time>
   </trkpt>
   <trkpt lat="51.1140550" lon="5.4798790">
    <ele>63.4</ele>
    <time>2020-06-14T08:56:01Z</time>
   </trkpt>
   <trkpt lat="51.1140020" lon="5.4799820">
    <ele>63.4</ele>
    <time>2020-06-14T08:56:02Z</time>
   </trkpt>
   <trkpt lat="51.1139470" lon="5.4800810">
    <ele>63.4</ele>
    <time>2020-06-14T08:56:03Z</time>
   </trkpt>
   <trkpt lat="51.1138880" lon="5.4801860">
    <ele>63.4</ele>
    <time>2020-06-14T08:56:04Z</time>
   </trkpt>
   <trkpt lat="51.1138340" lon="5.4802880">
    <ele>63.4</ele>
    <time>2020-06-14T08:56:05Z</time>
   </trkpt>
   <trkpt lat="51.1137790" lon="5.4803880">
    <ele>63.4</ele>
    <time>2020-06-14T08:56:06Z</time>
   </trkpt>
   <trkpt lat="51.1137240" lon="5.4804900">
    <ele>63.4</ele>
    <time>2020-06-14T08:56:07Z</time>
   </trkpt>
   <trkpt lat="51.1136670" lon="5.4805880">
    <ele>63.5</ele>
    <time>2020-06-14T08:56:08Z</time>
   </trkpt>
   <trkpt lat="51.1136150" lon="5.4806940">
    <ele>63.6</ele>
    <time>2020-06-14T08:56:09Z</time>
   </trkpt>
   <trkpt lat="51.1135630" lon="5.4807900">
    <ele>63.6</ele>
    <time>2020-06-14T08:56:10Z</time>
   </trkpt>
   <trkpt lat="51.1135080" lon="5.4808840">
    <ele>63.7</ele>
    <time>2020-06-14T08:56:11Z</time>
   </trkpt>
   <trkpt lat="51.1134540" lon="5.4809750">
    <ele>63.7</ele>
    <time>2020-06-14T08:56:12Z</time>
   </trkpt>
   <trkpt lat="51.1134030" lon="5.4810640">
    <ele>63.7</ele>
    <time>2020-06-14T08:56:13Z</time>
   </trkpt>
   <trkpt lat="51.1133490" lon="5.4811590">
    <ele>63.7</ele>
    <time>2020-06-14T08:56:14Z</time>
   </trkpt>
   <trkpt lat="51.1132910" lon="5.4812590">
    <ele>63.7</ele>
    <time>2020-06-14T08:56:15Z</time>
   </trkpt>
   <trkpt lat="51.1132320" lon="5.4813560">
    <ele>63.8</ele>
    <time>2020-06-14T08:56:16Z</time>
   </trkpt>
   <trkpt lat="51.1131730" lon="5.4814480">
    <ele>63.8</ele>
    <time>2020-06-14T08:56:17Z</time>
   </trkpt>
   <trkpt lat="51.1131220" lon="5.4815370">
    <ele>63.8</ele>
    <time>2020-06-14T08:56:18Z</time>
   </trkpt>
   <trkpt lat="51.1130670" lon="5.4816290">
    <ele>63.8</ele>
    <time>2020-06-14T08:56:19Z</time>
   </trkpt>
   <trkpt lat="51.1130170" lon="5.4817190">
    <ele>63.8</ele>
    <time>2020-06-14T08:56:20Z</time>
   </trkpt>
   <trkpt lat="51.1129630" lon="5.4818080">
    <ele>63.8</ele>
    <time>2020-06-14T08:56:21Z</time>
   </trkpt>
   <trkpt lat="51.1129070" lon="5.4819010">
    <ele>63.8</ele>
    <time>2020-06-14T08:56:22Z</time>
   </trkpt>
   <trkpt lat="51.1128510" lon="5.4819990">
    <ele>63.8</ele>
    <time>2020-06-14T08:56:23Z</time>
   </trkpt>
   <trkpt lat="51.1127980" lon="5.4820940">
    <ele>63.8</ele>
    <time>2020-06-14T08:56:24Z</time>
   </trkpt>
   <trkpt lat="51.1127470" lon="5.4821820">
    <ele>63.8</ele>
    <time>2020-06-14T08:56:25Z</time>
   </trkpt>
   <trkpt lat="51.1126950" lon="5.4822680">
    <ele>63.8</ele>
    <time>2020-06-14T08:56:26Z</time>
   </trkpt>
   <trkpt lat="51.1126450" lon="5.4823590">
    <ele>63.8</ele>
    <time>2020-06-14T08:56:27Z</time>
   </trkpt>
   <trkpt lat="51.1126010" lon="5.4824360">
    <ele>63.7</ele>
    <time>2020-06-14T08:56:28Z</time>
   </trkpt>
   <trkpt lat="51.1125540" lon="5.4825150">
    <ele>63.7</ele>
    <time>2020-06-14T08:56:29Z</time>
   </trkpt>
   <trkpt lat="51.1124990" lon="5.4826040">
    <ele>63.7</ele>
    <time>2020-06-14T08:56:30Z</time>
   </trkpt>
   <trkpt lat="51.1124380" lon="5.4826960">
    <ele>63.7</ele>
    <time>2020-06-14T08:56:31Z</time>
   </trkpt>
   <trkpt lat="51.1123790" lon="5.4827820">
    <ele>63.7</ele>
    <time>2020-06-14T08:56:32Z</time>
   </trkpt>
   <trkpt lat="51.1123250" lon="5.4828650">
    <ele>63.6</ele>
    <time>2020-06-14T08:56:33Z</time>
   </trkpt>
   <trkpt lat="51.1122770" lon="5.4829490">
    <ele>63.6</ele>
    <time>2020-06-14T08:56:34Z</time>
   </trkpt>
   <trkpt lat="51.1122260" lon="5.4830370">
    <ele>63.6</ele>
    <time>2020-06-14T08:56:35Z</time>
   </trkpt>
   <trkpt lat="51.1121820" lon="5.4831110">
    <ele>63.5</ele>
    <time>2020-06-14T08:56:36Z</time>
   </trkpt>
   <trkpt lat="51.1121320" lon="5.4831940">
    <ele>63.5</ele>
    <time>2020-06-14T08:56:37Z</time>
   </trkpt>
   <trkpt lat="51.1120830" lon="5.4832760">
    <ele>63.5</ele>
    <time>2020-06-14T08:56:38Z</time>
   </trkpt>
   <trkpt lat="51.1120340" lon="5.4833540">
    <ele>63.6</ele>
    <time>2020-06-14T08:56:39Z</time>
   </trkpt>
   <trkpt lat="51.1119830" lon="5.4834320">
    <ele>63.6</ele>
    <time>2020-06-14T08:56:40Z</time>
   </trkpt>
   <trkpt lat="51.1119390" lon="5.4834990">
    <ele>63.7</ele>
    <time>2020-06-14T08:56:41Z</time>
   </trkpt>
   <trkpt lat="51.1118980" lon="5.4835610">
    <ele>63.8</ele>
    <time>2020-06-14T08:56:42Z</time>
   </trkpt>
   <trkpt lat="51.1118570" lon="5.4836260">
    <ele>63.9</ele>
    <time>2020-06-14T08:56:43Z</time>
   </trkpt>
   <trkpt lat="51.1118160" lon="5.4836900">
    <ele>64.1</ele>
    <time>2020-06-14T08:56:44Z</time>
   </trkpt>
   <trkpt lat="51.1117800" lon="5.4837390">
    <ele>64.2</ele>
    <time>2020-06-14T08:56:45Z</time>
   </trkpt>
   <trkpt lat="51.1117490" lon="5.4837880">
    <ele>64.3</ele>
    <time>2020-06-14T08:56:46Z</time>
   </trkpt>
   <trkpt lat="51.1117210" lon="5.4838400">
    <ele>64.4</ele>
    <time>2020-06-14T08:56:47Z</time>
   </trkpt>
   <trkpt lat="51.1117130" lon="5.4838990">
    <ele>64.5</ele>
    <time>2020-06-14T08:56:48Z</time>
   </trkpt>
   <trkpt lat="51.1117300" lon="5.4839730">
    <ele>64.6</ele>
    <time>2020-06-14T08:56:49Z</time>
   </trkpt>
   <trkpt lat="51.1117590" lon="5.4840360">
    <ele>64.4</ele>
    <time>2020-06-14T08:56:50Z</time>
   </trkpt>
   <trkpt lat="51.1117990" lon="5.4840920">
    <ele>64.2</ele>
    <time>2020-06-14T08:56:51Z</time>
   </trkpt>
   <trkpt lat="51.1118950" lon="5.4841090">
    <ele>64.0</ele>
    <time>2020-06-14T08:56:52Z</time>
   </trkpt>
   <trkpt lat="51.1119570" lon="5.4841820">
    <ele>63.8</ele>
    <time>2020-06-14T08:56:53Z</time>
   </trkpt>
   <trkpt lat="51.1120220" lon="5.4842660">
    <ele>63.7</ele>
    <time>2020-06-14T08:56:54Z</time>
   </trkpt>
   <trkpt lat="51.1120880" lon="5.4843510">
    <ele>63.5</ele>
    <time>2020-06-14T08:56:55Z</time>
   </trkpt>
   <trkpt lat="51.1121540" lon="5.4844370">
    <ele>63.4</ele>
    <time>2020-06-14T08:56:56Z</time>
   </trkpt>
   <trkpt lat="51.1122220" lon="5.4845300">
    <ele>63.3</ele>
    <time>2020-06-14T08:56:57Z</time>
   </trkpt>
   <trkpt lat="51.1122870" lon="5.4846190">
    <ele>63.2</ele>
    <time>2020-06-14T08:56:58Z</time>
   </trkpt>
   <trkpt lat="51.1123480" lon="5.4847020">
    <ele>63.2</ele>
    <time>2020-06-14T08:56:59Z</time>
   </trkpt>
   <trkpt lat="51.1124080" lon="5.4847840">
    <ele>63.1</ele>
    <time>2020-06-14T08:57:00Z</time>
   </trkpt>
   <trkpt lat="51.1124670" lon="5.4848710">
    <ele>63.1</ele>
    <time>2020-06-14T08:57:01Z</time>
   </trkpt>
   <trkpt lat="51.1125300" lon="5.4849620">
    <ele>63.1</ele>
    <time>2020-06-14T08:57:02Z</time>
   </trkpt>
   <trkpt lat="51.1125860" lon="5.4850540">
    <ele>63.0</ele>
    <time>2020-06-14T08:57:03Z</time>
   </trkpt>
   <trkpt lat="51.1126410" lon="5.4851420">
    <ele>63.0</ele>
    <time>2020-06-14T08:57:04Z</time>
   </trkpt>
   <trkpt lat="51.1126970" lon="5.4852310">
    <ele>62.9</ele>
    <time>2020-06-14T08:57:05Z</time>
   </trkpt>
   <trkpt lat="51.1127540" lon="5.4853210">
    <ele>62.9</ele>
    <time>2020-06-14T08:57:06Z</time>
   </trkpt>
   <trkpt lat="51.1128140" lon="5.4854140">
    <ele>62.8</ele>
    <time>2020-06-14T08:57:07Z</time>
   </trkpt>
   <trkpt lat="51.1128740" lon="5.4855060">
    <ele>62.8</ele>
    <time>2020-06-14T08:57:08Z</time>
   </trkpt>
   <trkpt lat="51.1129340" lon="5.4855960">
    <ele>62.7</ele>
    <time>2020-06-14T08:57:09Z</time>
   </trkpt>
   <trkpt lat="51.1129980" lon="5.4856950">
    <ele>62.7</ele>
    <time>2020-06-14T08:57:10Z</time>
   </trkpt>
   <trkpt lat="51.1130580" lon="5.4857970">
    <ele>62.7</ele>
    <time>2020-06-14T08:57:11Z</time>
   </trkpt>
   <trkpt lat="51.1131220" lon="5.4858950">
    <ele>62.7</ele>
    <time>2020-06-14T08:57:12Z</time>
   </trkpt>
   <trkpt lat="51.1131860" lon="5.4859840">
    <ele>62.7</ele>
    <time>2020-06-14T08:57:13Z</time>
   </trkpt>
   <trkpt lat="51.1132490" lon="5.4860700">
    <ele>62.7</ele>
    <time>2020-06-14T08:57:14Z</time>
   </trkpt>
   <trkpt lat="51.1133320" lon="5.4861620">
    <ele>62.7</ele>
    <time>2020-06-14T08:57:15Z</time>
   </trkpt>
   <trkpt lat="51.1133920" lon="5.4862380">
    <ele>62.7</ele>
    <time>2020-06-14T08:57:16Z</time>
   </trkpt>
   <trkpt lat="51.1134590" lon="5.4863170">
    <ele>62.8</ele>
    <time>2020-06-14T08:57:17Z</time>
   </trkpt>
   <trkpt lat="51.1135190" lon="5.4863940">
    <ele>62.8</ele>
    <time>2020-06-14T08:57:18Z</time>
   </trkpt>
   <trkpt lat="51.1135720" lon="5.4864720">
    <ele>62.8</ele>
    <time>2020-06-14T08:57:19Z</time>
   </trkpt>
   <trkpt lat="51.1136250" lon="5.4865610">
    <ele>62.9</ele>
    <time>2020-06-14T08:57:20Z</time>
   </trkpt>
   <trkpt lat="51.1136750" lon="5.4866440">
    <ele>63.0</ele>
    <time>2020-06-14T08:57:21Z</time>
   </trkpt>
   <trkpt lat="51.1137210" lon="5.4867230">
    <ele>63.1</ele>
    <time>2020-06-14T08:57:22Z</time>
   </trkpt>
   <trkpt lat="51.1137660" lon="5.4867950">
    <ele>63.2</ele>
    <time>2020-06-14T08:57:23Z</time>
   </trkpt>
   <trkpt lat="51.1138080" lon="5.4868610">
    <ele>63.2</ele>
    <time>2020-06-14T08:57:24Z</time>
   </trkpt>
   <trkpt lat="51.1138470" lon="5.4869280">
    <ele>63.3</ele>
    <time>2020-06-14T08:57:25Z</time>
   </trkpt>
   <trkpt lat="51.1138880" lon="5.4869860">
    <ele>63.4</ele>
    <time>2020-06-14T08:57:26Z</time>
   </trkpt>
   <trkpt lat="51.1139340" lon="5.4870350">
    <ele>63.4</ele>
    <time>2020-06-14T08:57:27Z</time>
   </trkpt>
   <trkpt lat="51.1139800" lon="5.4870720">
    <ele>63.4</ele>
    <time>2020-06-14T08:57:28Z</time>
   </trkpt>
   <trkpt lat="51.1140310" lon="5.4870810">
    <ele>63.4</ele>
    <time>2020-06-14T08:57:29Z</time>
   </trkpt>
   <trkpt lat="51.1140880" lon="5.4870710">
    <ele>63.3</ele>
    <time>2020-06-14T08:57:30Z</time>
   </trkpt>
   <trkpt lat="51.1141560" lon="5.4870490">
    <ele>63.3</ele>
    <time>2020-06-14T08:57:31Z</time>
   </trkpt>
   <trkpt lat="51.1142300" lon="5.4870230">
    <ele>63.2</ele>
    <time>2020-06-14T08:57:32Z</time>
   </trkpt>
   <trkpt lat="51.1143080" lon="5.4870150">
    <ele>63.2</ele>
    <time>2020-06-14T08:57:33Z</time>
   </trkpt>
   <trkpt lat="51.1143950" lon="5.4870240">
    <ele>63.2</ele>
    <time>2020-06-14T08:57:34Z</time>
   </trkpt>
   <trkpt lat="51.1144780" lon="5.4870530">
    <ele>63.2</ele>
    <time>2020-06-14T08:57:35Z</time>
   </trkpt>
   <trkpt lat="51.1145560" lon="5.4870800">
    <ele>63.1</ele>
    <time>2020-06-14T08:57:36Z</time>
   </trkpt>
   <trkpt lat="51.1146330" lon="5.4871150">
    <ele>63.1</ele>
    <time>2020-06-14T08:57:37Z</time>
   </trkpt>
   <trkpt lat="51.1147090" lon="5.4871550">
    <ele>63.0</ele>
    <time>2020-06-14T08:57:38Z</time>
   </trkpt>
   <trkpt lat="51.1147850" lon="5.4871900">
    <ele>62.9</ele>
    <time>2020-06-14T08:57:39Z</time>
   </trkpt>
   <trkpt lat="51.1148600" lon="5.4872310">
    <ele>62.9</ele>
    <time>2020-06-14T08:57:40Z</time>
   </trkpt>
   <trkpt lat="51.1149350" lon="5.4872700">
    <ele>62.9</ele>
    <time>2020-06-14T08:57:41Z</time>
   </trkpt>
   <trkpt lat="51.1150110" lon="5.4873100">
    <ele>62.9</ele>
    <time>2020-06-14T08:57:42Z</time>
   </trkpt>
   <trkpt lat="51.1150840" lon="5.4873550">
    <ele>62.9</ele>
    <time>2020-06-14T08:57:43Z</time>
   </trkpt>
   <trkpt lat="51.1151550" lon="5.4874080">
    <ele>62.9</ele>
    <time>2020-06-14T08:57:44Z</time>
   </trkpt>
   <trkpt lat="51.1152230" lon="5.4874690">
    <ele>62.9</ele>
    <time>2020-06-14T08:57:45Z</time>
   </trkpt>
   <trkpt lat="51.1152900" lon="5.4875390">
    <ele>62.9</ele>
    <time>2020-06-14T08:57:46Z</time>
   </trkpt>
   <trkpt lat="51.1153530" lon="5.4876140">
    <ele>62.9</ele>
    <time>2020-06-14T08:57:47Z</time>
   </trkpt>
   <trkpt lat="51.1154110" lon="5.4876890">
    <ele>62.9</ele>
    <time>2020-06-14T08:57:48Z</time>
   </trkpt>
   <trkpt lat="51.1154660" lon="5.4877650">
    <ele>62.9</ele>
    <time>2020-06-14T08:57:49Z</time>
   </trkpt>
   <trkpt lat="51.1155220" lon="5.4878500">
    <ele>62.9</ele>
    <time>2020-06-14T08:57:50Z</time>
   </trkpt>
   <trkpt lat="51.1155780" lon="5.4879450">
    <ele>62.9</ele>
    <time>2020-06-14T08:57:51Z</time>
   </trkpt>
   <trkpt lat="51.1156350" lon="5.4880250">
    <ele>62.9</ele>
    <time>2020-06-14T08:57:52Z</time>
   </trkpt>
   <trkpt lat="51.1156920" lon="5.4881080">
    <ele>62.9</ele>
    <time>2020-06-14T08:57:53Z</time>
   </trkpt>
   <trkpt lat="51.1157470" lon="5.4881910">
    <ele>62.9</ele>
    <time>2020-06-14T08:57:54Z</time>
   </trkpt>
   <trkpt lat="51.1157990" lon="5.4882740">
    <ele>62.9</ele>
    <time>2020-06-14T08:57:55Z</time>
   </trkpt>
   <trkpt lat="51.1158560" lon="5.4883580">
    <ele>62.9</ele>
    <time>2020-06-14T08:57:56Z</time>
   </trkpt>
   <trkpt lat="51.1159120" lon="5.4884460">
    <ele>62.9</ele>
    <time>2020-06-14T08:57:57Z</time>
   </trkpt>
   <trkpt lat="51.1159720" lon="5.4885390">
    <ele>62.9</ele>
    <time>2020-06-14T08:57:58Z</time>
   </trkpt>
   <trkpt lat="51.1160320" lon="5.4886280">
    <ele>62.9</ele>
    <time>2020-06-14T08:57:59Z</time>
   </trkpt>
   <trkpt lat="51.1160910" lon="5.4887090">
    <ele>62.9</ele>
    <time>2020-06-14T08:58:00Z</time>
   </trkpt>
   <trkpt lat="51.1161490" lon="5.4887940">
    <ele>62.9</ele>
    <time>2020-06-14T08:58:01Z</time>
   </trkpt>
   <trkpt lat="51.1162130" lon="5.4888760">
    <ele>63.0</ele>
    <time>2020-06-14T08:58:02Z</time>
   </trkpt>
   <trkpt lat="51.1162730" lon="5.4889610">
    <ele>63.0</ele>
    <time>2020-06-14T08:58:03Z</time>
   </trkpt>
   <trkpt lat="51.1163320" lon="5.4890280">
    <ele>63.1</ele>
    <time>2020-06-14T08:58:04Z</time>
   </trkpt>
   <trkpt lat="51.1164060" lon="5.4890770">
    <ele>63.1</ele>
    <time>2020-06-14T08:58:05Z</time>
   </trkpt>
   <trkpt lat="51.1164810" lon="5.4891210">
    <ele>63.2</ele>
    <time>2020-06-14T08:58:06Z</time>
   </trkpt>
   <trkpt lat="51.1165620" lon="5.4891480">
    <ele>63.3</ele>
    <time>2020-06-14T08:58:07Z</time>
   </trkpt>
   <trkpt lat="51.1166380" lon="5.4891650">
    <ele>63.3</ele>
    <time>2020-06-14T08:58:08Z</time>
   </trkpt>
   <trkpt lat="51.1167140" lon="5.4891980">
    <ele>63.4</ele>
    <time>2020-06-14T08:58:09Z</time>
   </trkpt>
   <trkpt lat="51.1167900" lon="5.4892430">
    <ele>63.4</ele>
    <time>2020-06-14T08:58:10Z</time>
   </trkpt>
   <trkpt lat="51.1168660" lon="5.4892940">
    <ele>63.5</ele>
    <time>2020-06-14T08:58:11Z</time>
   </trkpt>
   <trkpt lat="51.1169420" lon="5.4893680">
    <ele>63.5</ele>
    <time>2020-06-14T08:58:12Z</time>
   </trkpt>
   <trkpt lat="51.1170140" lon="5.4894390">
    <ele>63.6</ele>
    <time>2020-06-14T08:58:13Z</time>
   </trkpt>
   <trkpt lat="51.1170900" lon="5.4895330">
    <ele>63.6</ele>
    <time>2020-06-14T08:58:14Z</time>
   </trkpt>
   <trkpt lat="51.1171560" lon="5.4896190">
    <ele>63.6</ele>
    <time>2020-06-14T08:58:15Z</time>
   </trkpt>
   <trkpt lat="51.1172170" lon="5.4897000">
    <ele>63.6</ele>
    <time>2020-06-14T08:58:16Z</time>
   </trkpt>
   <trkpt lat="51.1172790" lon="5.4897940">
    <ele>63.6</ele>
    <time>2020-06-14T08:58:17Z</time>
   </trkpt>
   <trkpt lat="51.1173380" lon="5.4898980">
    <ele>63.6</ele>
    <time>2020-06-14T08:58:18Z</time>
   </trkpt>
   <trkpt lat="51.1173940" lon="5.4899890">
    <ele>63.6</ele>
    <time>2020-06-14T08:58:19Z</time>
   </trkpt>
   <trkpt lat="51.1174500" lon="5.4900660">
    <ele>63.5</ele>
    <time>2020-06-14T08:58:20Z</time>
   </trkpt>
   <trkpt lat="51.1175070" lon="5.4901500">
    <ele>63.5</ele>
    <time>2020-06-14T08:58:21Z</time>
   </trkpt>
   <trkpt lat="51.1175600" lon="5.4902390">
    <ele>63.5</ele>
    <time>2020-06-14T08:58:22Z</time>
   </trkpt>
   <trkpt lat="51.1176140" lon="5.4903240">
    <ele>63.5</ele>
    <time>2020-06-14T08:58:23Z</time>
   </trkpt>
   <trkpt lat="51.1176690" lon="5.4904080">
    <ele>63.5</ele>
    <time>2020-06-14T08:58:24Z</time>
   </trkpt>
   <trkpt lat="51.1177260" lon="5.4904980">
    <ele>63.6</ele>
    <time>2020-06-14T08:58:25Z</time>
   </trkpt>
   <trkpt lat="51.1177820" lon="5.4905810">
    <ele>63.6</ele>
    <time>2020-06-14T08:58:26Z</time>
   </trkpt>
   <trkpt lat="51.1178360" lon="5.4906640">
    <ele>63.7</ele>
    <time>2020-06-14T08:58:27Z</time>
   </trkpt>
   <trkpt lat="51.1178820" lon="5.4907300">
    <ele>63.7</ele>
    <time>2020-06-14T08:58:28Z</time>
   </trkpt>
   <trkpt lat="51.1179340" lon="5.4908070">
    <ele>63.8</ele>
    <time>2020-06-14T08:58:29Z</time>
   </trkpt>
   <trkpt lat="51.1179810" lon="5.4908770">
    <ele>63.8</ele>
    <time>2020-06-14T08:58:30Z</time>
   </trkpt>
   <trkpt lat="51.1180200" lon="5.4909290">
    <ele>63.9</ele>
    <time>2020-06-14T08:58:31Z</time>
   </trkpt>
   <trkpt lat="51.1180570" lon="5.4909760">
    <ele>64.0</ele>
    <time>2020-06-14T08:58:32Z</time>
   </trkpt>
   <trkpt lat="51.1180910" lon="5.4910170">
    <ele>64.1</ele>
    <time>2020-06-14T08:58:33Z</time>
   </trkpt>
   <trkpt lat="51.1181150" lon="5.4910570">
    <ele>64.2</ele>
    <time>2020-06-14T08:58:34Z</time>
   </trkpt>
   <trkpt lat="51.1181370" lon="5.4910900">
    <ele>64.3</ele>
    <time>2020-06-14T08:58:35Z</time>
   </trkpt>
   <trkpt lat="51.1181610" lon="5.4911370">
    <ele>64.4</ele>
    <time>2020-06-14T08:58:36Z</time>
   </trkpt>
   <trkpt lat="51.1181680" lon="5.4911510">
    <ele>64.4</ele>
    <time>2020-06-14T08:58:37Z</time>
   </trkpt>
   <trkpt lat="51.1181810" lon="5.4911760">
    <ele>64.5</ele>
    <time>2020-06-14T08:58:38Z</time>
   </trkpt>
   <trkpt lat="51.1181830" lon="5.4911910">
    <ele>64.5</ele>
    <time>2020-06-14T08:58:39Z</time>
   </trkpt>
   <trkpt lat="51.1181870" lon="5.4912040">
    <ele>64.5</ele>
    <time>2020-06-14T08:58:40Z</time>
   </trkpt>
   <trkpt lat="51.1181970" lon="5.4912290">
    <ele>64.6</ele>
    <time>2020-06-14T08:58:41Z</time>
   </trkpt>
   <trkpt lat="51.1182210" lon="5.4912690">
    <ele>64.7</ele>
    <time>2020-06-14T08:58:42Z</time>
   </trkpt>
   <trkpt lat="51.1182290" lon="5.4912850">
    <ele>64.7</ele>
    <time>2020-06-14T08:58:43Z</time>
   </trkpt>
   <trkpt lat="51.1182560" lon="5.4913310">
    <ele>64.8</ele>
    <time>2020-06-14T08:58:44Z</time>
   </trkpt>
   <trkpt lat="51.1182660" lon="5.4913470">
    <ele>64.8</ele>
    <time>2020-06-14T08:58:45Z</time>
   </trkpt>
   <trkpt lat="51.1182890" lon="5.4913810">
    <ele>64.9</ele>
    <time>2020-06-14T08:58:46Z</time>
   </trkpt>
   <trkpt lat="51.1183170" lon="5.4914170">
    <ele>64.9</ele>
    <time>2020-06-14T08:58:47Z</time>
   </trkpt>
   <trkpt lat="51.1183510" lon="5.4914590">
    <ele>64.9</ele>
    <time>2020-06-14T08:58:48Z</time>
   </trkpt>
   <trkpt lat="51.1183970" lon="5.4915030">
    <ele>64.8</ele>
    <time>2020-06-14T08:58:49Z</time>
   </trkpt>
   <trkpt lat="51.1184490" lon="5.4915430">
    <ele>64.6</ele>
    <time>2020-06-14T08:58:50Z</time>
   </trkpt>
   <trkpt lat="51.1185010" lon="5.4915930">
    <ele>64.5</ele>
    <time>2020-06-14T08:58:51Z</time>
   </trkpt>
   <trkpt lat="51.1185560" lon="5.4916520">
    <ele>64.3</ele>
    <time>2020-06-14T08:58:52Z</time>
   </trkpt>
   <trkpt lat="51.1186160" lon="5.4917130">
    <ele>64.2</ele>
    <time>2020-06-14T08:58:53Z</time>
   </trkpt>
   <trkpt lat="51.1186780" lon="5.4917810">
    <ele>64.1</ele>
    <time>2020-06-14T08:58:54Z</time>
   </trkpt>
   <trkpt lat="51.1187390" lon="5.4918550">
    <ele>64.0</ele>
    <time>2020-06-14T08:58:55Z</time>
   </trkpt>
   <trkpt lat="51.1188040" lon="5.4919280">
    <ele>63.9</ele>
    <time>2020-06-14T08:58:56Z</time>
   </trkpt>
   <trkpt lat="51.1188750" lon="5.4920030">
    <ele>63.8</ele>
    <time>2020-06-14T08:58:57Z</time>
   </trkpt>
   <trkpt lat="51.1189450" lon="5.4920740">
    <ele>63.7</ele>
    <time>2020-06-14T08:58:58Z</time>
   </trkpt>
   <trkpt lat="51.1190160" lon="5.4921510">
    <ele>63.7</ele>
    <time>2020-06-14T08:58:59Z</time>
   </trkpt>
   <trkpt lat="51.1190900" lon="5.4922210">
    <ele>63.6</ele>
    <time>2020-06-14T08:59:00Z</time>
   </trkpt>
   <trkpt lat="51.1191590" lon="5.4922900">
    <ele>63.6</ele>
    <time>2020-06-14T08:59:01Z</time>
   </trkpt>
   <trkpt lat="51.1192300" lon="5.4923600">
    <ele>63.6</ele>
    <time>2020-06-14T08:59:02Z</time>
   </trkpt>
   <trkpt lat="51.1192960" lon="5.4924290">
    <ele>63.7</ele>
    <time>2020-06-14T08:59:03Z</time>
   </trkpt>
   <trkpt lat="51.1193640" lon="5.4925050">
    <ele>63.7</ele>
    <time>2020-06-14T08:59:04Z</time>
   </trkpt>
   <trkpt lat="51.1194320" lon="5.4925800">
    <ele>63.7</ele>
    <time>2020-06-14T08:59:05Z</time>
   </trkpt>
   <trkpt lat="51.1194990" lon="5.4926520">
    <ele>63.7</ele>
    <time>2020-06-14T08:59:06Z</time>
   </trkpt>
   <trkpt lat="51.1195670" lon="5.4927180">
    <ele>63.7</ele>
    <time>2020-06-14T08:59:07Z</time>
   </trkpt>
   <trkpt lat="51.1196350" lon="5.4927920">
    <ele>63.7</ele>
    <time>2020-06-14T08:59:08Z</time>
   </trkpt>
   <trkpt lat="51.1197030" lon="5.4928580">
    <ele>63.6</ele>
    <time>2020-06-14T08:59:09Z</time>
   </trkpt>
   <trkpt lat="51.1197730" lon="5.4929260">
    <ele>63.6</ele>
    <time>2020-06-14T08:59:10Z</time>
   </trkpt>
   <trkpt lat="51.1198310" lon="5.4929860">
    <ele>63.6</ele>
    <time>2020-06-14T08:59:11Z</time>
   </trkpt>
   <trkpt lat="51.1198940" lon="5.4930590">
    <ele>63.5</ele>
    <time>2020-06-14T08:59:12Z</time>
   </trkpt>
   <trkpt lat="51.1199640" lon="5.4931350">
    <ele>63.5</ele>
    <time>2020-06-14T08:59:13Z</time>
   </trkpt>
   <trkpt lat="51.1200360" lon="5.4932100">
    <ele>63.5</ele>
    <time>2020-06-14T08:59:14Z</time>
   </trkpt>
   <trkpt lat="51.1201030" lon="5.4932710">
    <ele>63.5</ele>
    <time>2020-06-14T08:59:15Z</time>
   </trkpt>
   <trkpt lat="51.1201660" lon="5.4933290">
    <ele>63.6</ele>
    <time>2020-06-14T08:59:16Z</time>
   </trkpt>
   <trkpt lat="51.1202280" lon="5.4933970">
    <ele>63.6</ele>
    <time>2020-06-14T08:59:17Z</time>
   </trkpt>
   <trkpt lat="51.1202890" lon="5.4934620">
    <ele>63.6</ele>
    <time>2020-06-14T08:59:18Z</time>
   </trkpt>
   <trkpt lat="51.1203490" lon="5.4935250">
    <ele>63.7</ele>
    <time>2020-06-14T08:59:19Z</time>
   </trkpt>
   <trkpt lat="51.1204090" lon="5.4935890">
    <ele>63.7</ele>
    <time>2020-06-14T08:59:20Z</time>
   </trkpt>
   <trkpt lat="51.1204720" lon="5.4936590">
    <ele>63.7</ele>
    <time>2020-06-14T08:59:21Z</time>
   </trkpt>
   <trkpt lat="51.1205350" lon="5.4937240">
    <ele>63.7</ele>
    <time>2020-06-14T08:59:22Z</time>
   </trkpt>
   <trkpt lat="51.1205990" lon="5.4937920">
    <ele>63.8</ele>
    <time>2020-06-14T08:59:23Z</time>
   </trkpt>
   <trkpt lat="51.1206590" lon="5.4938630">
    <ele>63.8</ele>
    <time>2020-06-14T08:59:24Z</time>
   </trkpt>
   <trkpt lat="51.1207230" lon="5.4939360">
    <ele>63.8</ele>
    <time>2020-06-14T08:59:25Z</time>
   </trkpt>
   <trkpt lat="51.1207820" lon="5.4940060">
    <ele>63.9</ele>
    <time>2020-06-14T08:59:26Z</time>
   </trkpt>
   <trkpt lat="51.1208470" lon="5.4940700">
    <ele>64.0</ele>
    <time>2020-06-14T08:59:27Z</time>
   </trkpt>
   <trkpt lat="51.1209090" lon="5.4941360">
    <ele>64.0</ele>
    <time>2020-06-14T08:59:28Z</time>
   </trkpt>
   <trkpt lat="51.1209740" lon="5.4942130">
    <ele>64.1</ele>
    <time>2020-06-14T08:59:29Z</time>
   </trkpt>
   <trkpt lat="51.1210390" lon="5.4942830">
    <ele>64.1</ele>
    <time>2020-06-14T08:59:30Z</time>
   </trkpt>
   <trkpt lat="51.1210960" lon="5.4943530">
    <ele>64.1</ele>
    <time>2020-06-14T08:59:31Z</time>
   </trkpt>
   <trkpt lat="51.1211570" lon="5.4944150">
    <ele>64.0</ele>
    <time>2020-06-14T08:59:32Z</time>
   </trkpt>
   <trkpt lat="51.1212190" lon="5.4944820">
    <ele>64.0</ele>
    <time>2020-06-14T08:59:33Z</time>
   </trkpt>
   <trkpt lat="51.1212840" lon="5.4945420">
    <ele>64.0</ele>
    <time>2020-06-14T08:59:34Z</time>
   </trkpt>
   <trkpt lat="51.1213420" lon="5.4945960">
    <ele>64.0</ele>
    <time>2020-06-14T08:59:35Z</time>
   </trkpt>
   <trkpt lat="51.1214010" lon="5.4946450">
    <ele>64.0</ele>
    <time>2020-06-14T08:59:36Z</time>
   </trkpt>
   <trkpt lat="51.1214650" lon="5.4946930">
    <ele>64.0</ele>
    <time>2020-06-14T08:59:37Z</time>
   </trkpt>
   <trkpt lat="51.1215300" lon="5.4947360">
    <ele>64.0</ele>
    <time>2020-06-14T08:59:38Z</time>
   </trkpt>
   <trkpt lat="51.1216020" lon="5.4947830">
    <ele>64.0</ele>
    <time>2020-06-14T08:59:39Z</time>
   </trkpt>
   <trkpt lat="51.1216740" lon="5.4948290">
    <ele>63.9</ele>
    <time>2020-06-14T08:59:40Z</time>
   </trkpt>
   <trkpt lat="51.1217440" lon="5.4948750">
    <ele>63.9</ele>
    <time>2020-06-14T08:59:41Z</time>
   </trkpt>
   <trkpt lat="51.1218170" lon="5.4949150">
    <ele>63.9</ele>
    <time>2020-06-14T08:59:42Z</time>
   </trkpt>
   <trkpt lat="51.1218880" lon="5.4949520">
    <ele>63.9</ele>
    <time>2020-06-14T08:59:43Z</time>
   </trkpt>
   <trkpt lat="51.1219540" lon="5.4949800">
    <ele>63.9</ele>
    <time>2020-06-14T08:59:44Z</time>
   </trkpt>
   <trkpt lat="51.1220140" lon="5.4950050">
    <ele>63.9</ele>
    <time>2020-06-14T08:59:45Z</time>
   </trkpt>
   <trkpt lat="51.1220730" lon="5.4950170">
    <ele>64.0</ele>
    <time>2020-06-14T08:59:46Z</time>
   </trkpt>
   <trkpt lat="51.1221320" lon="5.4950250">
    <ele>64.0</ele>
    <time>2020-06-14T08:59:47Z</time>
   </trkpt>
   <trkpt lat="51.1221840" lon="5.4950330">
    <ele>64.0</ele>
    <time>2020-06-14T08:59:48Z</time>
   </trkpt>
   <trkpt lat="51.1222400" lon="5.4950340">
    <ele>64.1</ele>
    <time>2020-06-14T08:59:49Z</time>
   </trkpt>
   <trkpt lat="51.1222940" lon="5.4950350">
    <ele>64.1</ele>
    <time>2020-06-14T08:59:50Z</time>
   </trkpt>
   <trkpt lat="51.1223370" lon="5.4950220">
    <ele>64.2</ele>
    <time>2020-06-14T08:59:51Z</time>
   </trkpt>
   <trkpt lat="51.1223810" lon="5.4950180">
    <ele>64.3</ele>
    <time>2020-06-14T08:59:52Z</time>
   </trkpt>
   <trkpt lat="51.1224210" lon="5.4950160">
    <ele>64.3</ele>
    <time>2020-06-14T08:59:53Z</time>
   </trkpt>
   <trkpt lat="51.1224570" lon="5.4950200">
    <ele>64.4</ele>
    <time>2020-06-14T08:59:54Z</time>
   </trkpt>
   <trkpt lat="51.1224930" lon="5.4950500">
    <ele>64.4</ele>
    <time>2020-06-14T08:59:55Z</time>
   </trkpt>
   <trkpt lat="51.1225240" lon="5.4951120">
    <ele>64.5</ele>
    <time>2020-06-14T08:59:56Z</time>
   </trkpt>
   <trkpt lat="51.1225380" lon="5.4952010">
    <ele>64.2</ele>
    <time>2020-06-14T08:59:57Z</time>
   </trkpt>
   <trkpt lat="51.1225340" lon="5.4952960">
    <ele>64.1</ele>
    <time>2020-06-14T08:59:58Z</time>
   </trkpt>
   <trkpt lat="51.1225120" lon="5.4953910">
    <ele>63.9</ele>
    <time>2020-06-14T08:59:59Z</time>
   </trkpt>
   <trkpt lat="51.1224920" lon="5.4954960">
    <ele>63.7</ele>
    <time>2020-06-14T09:00:00Z</time>
   </trkpt>
   <trkpt lat="51.1224720" lon="5.4956060">
    <ele>63.5</ele>
    <time>2020-06-14T09:00:01Z</time>
   </trkpt>
   <trkpt lat="51.1224550" lon="5.4957170">
    <ele>63.4</ele>
    <time>2020-06-14T09:00:02Z</time>
   </trkpt>
   <trkpt lat="51.1224370" lon="5.4958230">
    <ele>63.4</ele>
    <time>2020-06-14T09:00:03Z</time>
   </trkpt>
   <trkpt lat="51.1224190" lon="5.4959250">
    <ele>63.4</ele>
    <time>2020-06-14T09:00:04Z</time>
   </trkpt>
   <trkpt lat="51.1224080" lon="5.4960350">
    <ele>63.4</ele>
    <time>2020-06-14T09:00:05Z</time>
   </trkpt>
   <trkpt lat="51.1224110" lon="5.4961410">
    <ele>63.3</ele>
    <time>2020-06-14T09:00:06Z</time>
   </trkpt>
   <trkpt lat="51.1224240" lon="5.4962470">
    <ele>63.3</ele>
    <time>2020-06-14T09:00:07Z</time>
   </trkpt>
   <trkpt lat="51.1224440" lon="5.4963530">
    <ele>63.2</ele>
    <time>2020-06-14T09:00:08Z</time>
   </trkpt>
   <trkpt lat="51.1224670" lon="5.4964660">
    <ele>63.2</ele>
    <time>2020-06-14T09:00:09Z</time>
   </trkpt>
   <trkpt lat="51.1224830" lon="5.4965910">
    <ele>63.1</ele>
    <time>2020-06-14T09:00:10Z</time>
   </trkpt>
   <trkpt lat="51.1225050" lon="5.4967160">
    <ele>63.1</ele>
    <time>2020-06-14T09:00:11Z</time>
   </trkpt>
   <trkpt lat="51.1225270" lon="5.4968230">
    <ele>63.0</ele>
    <time>2020-06-14T09:00:12Z</time>
   </trkpt>
   <trkpt lat="51.1225540" lon="5.4969410">
    <ele>63.0</ele>
    <time>2020-06-14T09:00:13Z</time>
   </trkpt>
   <trkpt lat="51.1225840" lon="5.4970520">
    <ele>63.0</ele>
    <time>2020-06-14T09:00:14Z</time>
   </trkpt>
   <trkpt lat="51.1226250" lon="5.4971420">
    <ele>63.0</ele>
    <time>2020-06-14T09:00:15Z</time>
   </trkpt>
   <trkpt lat="51.1226790" lon="5.4972190">
    <ele>63.0</ele>
    <time>2020-06-14T09:00:16Z</time>
   </trkpt>
   <trkpt lat="51.1227310" lon="5.4972950">
    <ele>63.0</ele>
    <time>2020-06-14T09:00:17Z</time>
   </trkpt>
   <trkpt lat="51.1227900" lon="5.4973570">
    <ele>63.0</ele>
    <time>2020-06-14T09:00:18Z</time>
   </trkpt>
   <trkpt lat="51.1228430" lon="5.4974230">
    <ele>63.0</ele>
    <time>2020-06-14T09:00:19Z</time>
   </trkpt>
   <trkpt lat="51.1228980" lon="5.4974890">
    <ele>63.0</ele>
    <time>2020-06-14T09:00:20Z</time>
   </trkpt>
   <trkpt lat="51.1229540" lon="5.4975520">
    <ele>62.9</ele>
    <time>2020-06-14T09:00:21Z</time>
   </trkpt>
   <trkpt lat="51.1230090" lon="5.4976250">
    <ele>62.9</ele>
    <time>2020-06-14T09:00:22Z</time>
   </trkpt>
   <trkpt lat="51.1230710" lon="5.4976990">
    <ele>62.8</ele>
    <time>2020-06-14T09:00:23Z</time>
   </trkpt>
   <trkpt lat="51.1231340" lon="5.4977930">
    <ele>62.7</ele>
    <time>2020-06-14T09:00:24Z</time>
   </trkpt>
   <trkpt lat="51.1231950" lon="5.4978930">
    <ele>62.7</ele>
    <time>2020-06-14T09:00:25Z</time>
   </trkpt>
   <trkpt lat="51.1232460" lon="5.4979920">
    <ele>62.6</ele>
    <time>2020-06-14T09:00:26Z</time>
   </trkpt>
   <trkpt lat="51.1233040" lon="5.4981010">
    <ele>62.5</ele>
    <time>2020-06-14T09:00:27Z</time>
   </trkpt>
   <trkpt lat="51.1233670" lon="5.4981960">
    <ele>62.5</ele>
    <time>2020-06-14T09:00:28Z</time>
   </trkpt>
   <trkpt lat="51.1234210" lon="5.4983030">
    <ele>62.4</ele>
    <time>2020-06-14T09:00:29Z</time>
   </trkpt>
   <trkpt lat="51.1234680" lon="5.4984170">
    <ele>62.3</ele>
    <time>2020-06-14T09:00:30Z</time>
   </trkpt>
   <trkpt lat="51.1235090" lon="5.4985260">
    <ele>62.2</ele>
    <time>2020-06-14T09:00:31Z</time>
   </trkpt>
   <trkpt lat="51.1235450" lon="5.4986430">
    <ele>62.2</ele>
    <time>2020-06-14T09:00:32Z</time>
   </trkpt>
   <trkpt lat="51.1235730" lon="5.4987500">
    <ele>62.1</ele>
    <time>2020-06-14T09:00:33Z</time>
   </trkpt>
   <trkpt lat="51.1236020" lon="5.4988890">
    <ele>62.0</ele>
    <time>2020-06-14T09:00:34Z</time>
   </trkpt>
   <trkpt lat="51.1236330" lon="5.4990200">
    <ele>62.0</ele>
    <time>2020-06-14T09:00:35Z</time>
   </trkpt>
   <trkpt lat="51.1236530" lon="5.4991480">
    <ele>62.0</ele>
    <time>2020-06-14T09:00:36Z</time>
   </trkpt>
   <trkpt lat="51.1236420" lon="5.4992650">
    <ele>62.0</ele>
    <time>2020-06-14T09:00:37Z</time>
   </trkpt>
   <trkpt lat="51.1236690" lon="5.4993870">
    <ele>62.0</ele>
    <time>2020-06-14T09:00:38Z</time>
   </trkpt>
   <trkpt lat="51.1236860" lon="5.4995100">
    <ele>62.0</ele>
    <time>2020-06-14T09:00:39Z</time>
   </trkpt>
   <trkpt lat="51.1237030" lon="5.4996340">
    <ele>62.0</ele>
    <time>2020-06-14T09:00:40Z</time>
   </trkpt>
   <trkpt lat="51.1237190" lon="5.4997440">
    <ele>62.0</ele>
    <time>2020-06-14T09:00:41Z</time>
   </trkpt>
   <trkpt lat="51.1237310" lon="5.4998600">
    <ele>61.9</ele>
    <time>2020-06-14T09:00:42Z</time>
   </trkpt>
   <trkpt lat="51.1237690" lon="5.5000840">
    <ele>61.8</ele>
    <time>2020-06-14T09:00:43Z</time>
   </trkpt>
   <trkpt lat="51.1237900" lon="5.5002060">
    <ele>61.7</ele>
    <time>2020-06-14T09:00:44Z</time>
   </trkpt>
   <trkpt lat="51.1238070" lon="5.5003150">
    <ele>61.7</ele>
    <time>2020-06-14T09:00:45Z</time>
   </trkpt>
   <trkpt lat="51.1238230" lon="5.5004450">
    <ele>61.5</ele>
    <time>2020-06-14T09:00:46Z</time>
   </trkpt>
   <trkpt lat="51.1238420" lon="5.5005710">
    <ele>61.4</ele>
    <time>2020-06-14T09:00:47Z</time>
   </trkpt>
   <trkpt lat="51.1238630" lon="5.5006960">
    <ele>61.4</ele>
    <time>2020-06-14T09:00:48Z</time>
   </trkpt>
   <trkpt lat="51.1238760" lon="5.5008240">
    <ele>61.3</ele>
    <time>2020-06-14T09:00:49Z</time>
   </trkpt>
   <trkpt lat="51.1239170" lon="5.5009290">
    <ele>61.2</ele>
    <time>2020-06-14T09:00:50Z</time>
   </trkpt>
   <trkpt lat="51.1239320" lon="5.5010500">
    <ele>61.2</ele>
    <time>2020-06-14T09:00:51Z</time>
   </trkpt>
   <trkpt lat="51.1239560" lon="5.5011680">
    <ele>61.2</ele>
    <time>2020-06-14T09:00:52Z</time>
   </trkpt>
   <trkpt lat="51.1239810" lon="5.5012860">
    <ele>61.1</ele>
    <time>2020-06-14T09:00:53Z</time>
   </trkpt>
   <trkpt lat="51.1240130" lon="5.5014040">
    <ele>61.1</ele>
    <time>2020-06-14T09:00:54Z</time>
   </trkpt>
   <trkpt lat="51.1240480" lon="5.5015130">
    <ele>61.1</ele>
    <time>2020-06-14T09:00:55Z</time>
   </trkpt>
   <trkpt lat="51.1240820" lon="5.5016130">
    <ele>61.1</ele>
    <time>2020-06-14T09:00:56Z</time>
   </trkpt>
   <trkpt lat="51.1241260" lon="5.5016980">
    <ele>61.1</ele>
    <time>2020-06-14T09:00:57Z</time>
   </trkpt>
   <trkpt lat="51.1241830" lon="5.5017610">
    <ele>61.1</ele>
    <time>2020-06-14T09:00:58Z</time>
   </trkpt>
   <trkpt lat="51.1242470" lon="5.5018180">
    <ele>61.1</ele>
    <time>2020-06-14T09:00:59Z</time>
   </trkpt>
   <trkpt lat="51.1243390" lon="5.5018230">
    <ele>61.1</ele>
    <time>2020-06-14T09:01:00Z</time>
   </trkpt>
   <trkpt lat="51.1244140" lon="5.5018610">
    <ele>61.1</ele>
    <time>2020-06-14T09:01:01Z</time>
   </trkpt>
   <trkpt lat="51.1244890" lon="5.5019090">
    <ele>61.1</ele>
    <time>2020-06-14T09:01:02Z</time>
   </trkpt>
   <trkpt lat="51.1245620" lon="5.5019630">
    <ele>61.2</ele>
    <time>2020-06-14T09:01:03Z</time>
   </trkpt>
   <trkpt lat="51.1246340" lon="5.5020150">
    <ele>61.3</ele>
    <time>2020-06-14T09:01:04Z</time>
   </trkpt>
   <trkpt lat="51.1247080" lon="5.5020610">
    <ele>61.4</ele>
    <time>2020-06-14T09:01:05Z</time>
   </trkpt>
   <trkpt lat="51.1247670" lon="5.5021370">
    <ele>61.5</ele>
    <time>2020-06-14T09:01:06Z</time>
   </trkpt>
   <trkpt lat="51.1248180" lon="5.5022210">
    <ele>61.6</ele>
    <time>2020-06-14T09:01:07Z</time>
   </trkpt>
   <trkpt lat="51.1248540" lon="5.5023130">
    <ele>61.8</ele>
    <time>2020-06-14T09:01:08Z</time>
   </trkpt>
   <trkpt lat="51.1248700" lon="5.5024030">
    <ele>61.8</ele>
    <time>2020-06-14T09:01:09Z</time>
   </trkpt>
   <trkpt lat="51.1248760" lon="5.5025000">
    <ele>61.8</ele>
    <time>2020-06-14T09:01:10Z</time>
   </trkpt>
   <trkpt lat="51.1248690" lon="5.5025990">
    <ele>61.8</ele>
    <time>2020-06-14T09:01:11Z</time>
   </trkpt>
   <trkpt lat="51.1248440" lon="5.5027040">
    <ele>61.8</ele>
    <time>2020-06-14T09:01:12Z</time>
   </trkpt>
   <trkpt lat="51.1248090" lon="5.5028180">
    <ele>61.9</ele>
    <time>2020-06-14T09:01:13Z</time>
   </trkpt>
   <trkpt lat="51.1247800" lon="5.5029380">
    <ele>61.9</ele>
    <time>2020-06-14T09:01:14Z</time>
   </trkpt>
   <trkpt lat="51.1247590" lon="5.5030620">
    <ele>61.9</ele>
    <time>2020-06-14T09:01:15Z</time>
   </trkpt>
   <trkpt lat="51.1247370" lon="5.5031770">
    <ele>61.9</ele>
    <time>2020-06-14T09:01:16Z</time>
   </trkpt>
   <trkpt lat="51.1247150" lon="5.5032770">
    <ele>61.8</ele>
    <time>2020-06-14T09:01:17Z</time>
   </trkpt>
   <trkpt lat="51.1246930" lon="5.5033850">
    <ele>61.8</ele>
    <time>2020-06-14T09:01:18Z</time>
   </trkpt>
   <trkpt lat="51.1246610" lon="5.5034940">
    <ele>61.8</ele>
    <time>2020-06-14T09:01:19Z</time>
   </trkpt>
   <trkpt lat="51.1246280" lon="5.5036120">
    <ele>61.8</ele>
    <time>2020-06-14T09:01:20Z</time>
   </trkpt>
   <trkpt lat="51.1245940" lon="5.5037430">
    <ele>61.8</ele>
    <time>2020-06-14T09:01:21Z</time>
   </trkpt>
   <trkpt lat="51.1245570" lon="5.5038730">
    <ele>61.8</ele>
    <time>2020-06-14T09:01:22Z</time>
   </trkpt>
   <trkpt lat="51.1245200" lon="5.5040010">
    <ele>61.8</ele>
    <time>2020-06-14T09:01:23Z</time>
   </trkpt>
   <trkpt lat="51.1244780" lon="5.5041250">
    <ele>61.8</ele>
    <time>2020-06-14T09:01:24Z</time>
   </trkpt>
   <trkpt lat="51.1244450" lon="5.5042440">
    <ele>61.8</ele>
    <time>2020-06-14T09:01:25Z</time>
   </trkpt>
   <trkpt lat="51.1244090" lon="5.5043580">
    <ele>61.8</ele>
    <time>2020-06-14T09:01:26Z</time>
   </trkpt>
   <trkpt lat="51.1243730" lon="5.5044780">
    <ele>61.8</ele>
    <time>2020-06-14T09:01:27Z</time>
   </trkpt>
   <trkpt lat="51.1243440" lon="5.5045840">
    <ele>61.8</ele>
    <time>2020-06-14T09:01:28Z</time>
   </trkpt>
   <trkpt lat="51.1243170" lon="5.5046890">
    <ele>61.8</ele>
    <time>2020-06-14T09:01:29Z</time>
   </trkpt>
   <trkpt lat="51.1242870" lon="5.5047840">
    <ele>61.9</ele>
    <time>2020-06-14T09:01:30Z</time>
   </trkpt>
   <trkpt lat="51.1242560" lon="5.5048770">
    <ele>61.9</ele>
    <time>2020-06-14T09:01:31Z</time>
   </trkpt>
   <trkpt lat="51.1242250" lon="5.5049740">
    <ele>61.9</ele>
    <time>2020-06-14T09:01:32Z</time>
   </trkpt>
   <trkpt lat="51.1241880" lon="5.5050780">
    <ele>61.9</ele>
    <time>2020-06-14T09:01:33Z</time>
   </trkpt>
   <trkpt lat="51.1241520" lon="5.5051850">
    <ele>61.8</ele>
    <time>2020-06-14T09:01:34Z</time>
   </trkpt>
   <trkpt lat="51.1241180" lon="5.5052900">
    <ele>61.7</ele>
    <time>2020-06-14T09:01:35Z</time>
   </trkpt>
   <trkpt lat="51.1240800" lon="5.5053930">
    <ele>61.7</ele>
    <time>2020-06-14T09:01:36Z</time>
   </trkpt>
   <trkpt lat="51.1240380" lon="5.5054970">
    <ele>61.6</ele>
    <time>2020-06-14T09:01:37Z</time>
   </trkpt>
   <trkpt lat="51.1239910" lon="5.5056040">
    <ele>61.5</ele>
    <time>2020-06-14T09:01:38Z</time>
   </trkpt>
   <trkpt lat="51.1239450" lon="5.5057170">
    <ele>61.3</ele>
    <time>2020-06-14T09:01:39Z</time>
   </trkpt>
   <trkpt lat="51.1238880" lon="5.5058270">
    <ele>61.1</ele>
    <time>2020-06-14T09:01:40Z</time>
   </trkpt>
   <trkpt lat="51.1238230" lon="5.5059440">
    <ele>60.8</ele>
    <time>2020-06-14T09:01:41Z</time>
   </trkpt>
   <trkpt lat="51.1237660" lon="5.5060700">
    <ele>60.6</ele>
    <time>2020-06-14T09:01:42Z</time>
   </trkpt>
   <trkpt lat="51.1237160" lon="5.5061790">
    <ele>60.4</ele>
    <time>2020-06-14T09:01:43Z</time>
   </trkpt>
   <trkpt lat="51.1236690" lon="5.5062910">
    <ele>60.3</ele>
    <time>2020-06-14T09:01:44Z</time>
   </trkpt>
   <trkpt lat="51.1236300" lon="5.5064080">
    <ele>60.2</ele>
    <time>2020-06-14T09:01:45Z</time>
   </trkpt>
   <trkpt lat="51.1236100" lon="5.5065540">
    <ele>60.0</ele>
    <time>2020-06-14T09:01:46Z</time>
   </trkpt>
   <trkpt lat="51.1236100" lon="5.5066940">
    <ele>60.0</ele>
    <time>2020-06-14T09:01:47Z</time>
   </trkpt>
   <trkpt lat="51.1236250" lon="5.5068330">
    <ele>59.9</ele>
    <time>2020-06-14T09:01:48Z</time>
   </trkpt>
   <trkpt lat="51.1235590" lon="5.5070220">
    <ele>59.8</ele>
    <time>2020-06-14T09:01:49Z</time>
   </trkpt>
   <trkpt lat="51.1235800" lon="5.5071630">
    <ele>59.7</ele>
    <time>2020-06-14T09:01:50Z</time>
   </trkpt>
   <trkpt lat="51.1235950" lon="5.5073020">
    <ele>59.6</ele>
    <time>2020-06-14T09:01:51Z</time>
   </trkpt>
   <trkpt lat="51.1236150" lon="5.5074440">
    <ele>59.6</ele>
    <time>2020-06-14T09:01:52Z</time>
   </trkpt>
   <trkpt lat="51.1236440" lon="5.5075730">
    <ele>59.5</ele>
    <time>2020-06-14T09:01:53Z</time>
   </trkpt>
   <trkpt lat="51.1236730" lon="5.5077040">
    <ele>59.4</ele>
    <time>2020-06-14T09:01:54Z</time>
   </trkpt>
   <trkpt lat="51.1236980" lon="5.5078380">
    <ele>59.3</ele>
    <time>2020-06-14T09:01:55Z</time>
   </trkpt>
   <trkpt lat="51.1237200" lon="5.5079800">
    <ele>59.2</ele>
    <time>2020-06-14T09:01:56Z</time>
   </trkpt>
   <trkpt lat="51.1237430" lon="5.5081160">
    <ele>59.1</ele>
    <time>2020-06-14T09:01:57Z</time>
   </trkpt>
   <trkpt lat="51.1237660" lon="5.5082490">
    <ele>58.9</ele>
    <time>2020-06-14T09:01:58Z</time>
   </trkpt>
   <trkpt lat="51.1237870" lon="5.5083780">
    <ele>58.8</ele>
    <time>2020-06-14T09:01:59Z</time>
   </trkpt>
   <trkpt lat="51.1238100" lon="5.5085120">
    <ele>58.7</ele>
    <time>2020-06-14T09:02:00Z</time>
   </trkpt>
   <trkpt lat="51.1238350" lon="5.5086560">
    <ele>58.6</ele>
    <time>2020-06-14T09:02:01Z</time>
   </trkpt>
   <trkpt lat="51.1238590" lon="5.5087960">
    <ele>58.5</ele>
    <time>2020-06-14T09:02:02Z</time>
   </trkpt>
   <trkpt lat="51.1238820" lon="5.5089250">
    <ele>58.4</ele>
    <time>2020-06-14T09:02:03Z</time>
   </trkpt>
   <trkpt lat="51.1239080" lon="5.5090520">
    <ele>58.3</ele>
    <time>2020-06-14T09:02:04Z</time>
   </trkpt>
   <trkpt lat="51.1239320" lon="5.5091760">
    <ele>58.2</ele>
    <time>2020-06-14T09:02:05Z</time>
   </trkpt>
   <trkpt lat="51.1239550" lon="5.5092940">
    <ele>58.1</ele>
    <time>2020-06-14T09:02:06Z</time>
   </trkpt>
   <trkpt lat="51.1239760" lon="5.5094120">
    <ele>58.1</ele>
    <time>2020-06-14T09:02:07Z</time>
   </trkpt>
   <trkpt lat="51.1240330" lon="5.5095140">
    <ele>58.0</ele>
    <time>2020-06-14T09:02:08Z</time>
   </trkpt>
   <trkpt lat="51.1240670" lon="5.5096190">
    <ele>58.0</ele>
    <time>2020-06-14T09:02:09Z</time>
   </trkpt>
   <trkpt lat="51.1240980" lon="5.5097260">
    <ele>58.1</ele>
    <time>2020-06-14T09:02:10Z</time>
   </trkpt>
   <trkpt lat="51.1241360" lon="5.5098300">
    <ele>58.1</ele>
    <time>2020-06-14T09:02:11Z</time>
   </trkpt>
   <trkpt lat="51.1241780" lon="5.5099300">
    <ele>58.1</ele>
    <time>2020-06-14T09:02:12Z</time>
   </trkpt>
   <trkpt lat="51.1242180" lon="5.5100300">
    <ele>58.1</ele>
    <time>2020-06-14T09:02:13Z</time>
   </trkpt>
   <trkpt lat="51.1242530" lon="5.5101380">
    <ele>58.2</ele>
    <time>2020-06-14T09:02:14Z</time>
   </trkpt>
   <trkpt lat="51.1242970" lon="5.5102340">
    <ele>58.2</ele>
    <time>2020-06-14T09:02:15Z</time>
   </trkpt>
   <trkpt lat="51.1243440" lon="5.5103240">
    <ele>58.2</ele>
    <time>2020-06-14T09:02:16Z</time>
   </trkpt>
   <trkpt lat="51.1243880" lon="5.5104180">
    <ele>58.3</ele>
    <time>2020-06-14T09:02:17Z</time>
   </trkpt>
   <trkpt lat="51.1244590" lon="5.5104910">
    <ele>58.3</ele>
    <time>2020-06-14T09:02:18Z</time>
   </trkpt>
   <trkpt lat="51.1245190" lon="5.5105810">
    <ele>58.3</ele>
    <time>2020-06-14T09:02:19Z</time>
   </trkpt>
   <trkpt lat="51.1245750" lon="5.5106660">
    <ele>58.3</ele>
    <time>2020-06-14T09:02:20Z</time>
   </trkpt>
   <trkpt lat="51.1246210" lon="5.5107660">
    <ele>58.3</ele>
    <time>2020-06-14T09:02:21Z</time>
   </trkpt>
   <trkpt lat="51.1246700" lon="5.5108680">
    <ele>58.3</ele>
    <time>2020-06-14T09:02:22Z</time>
   </trkpt>
   <trkpt lat="51.1247150" lon="5.5109660">
    <ele>58.3</ele>
    <time>2020-06-14T09:02:23Z</time>
   </trkpt>
   <trkpt lat="51.1247560" lon="5.5110620">
    <ele>58.3</ele>
    <time>2020-06-14T09:02:24Z</time>
   </trkpt>
   <trkpt lat="51.1247980" lon="5.5111620">
    <ele>58.3</ele>
    <time>2020-06-14T09:02:25Z</time>
   </trkpt>
   <trkpt lat="51.1248320" lon="5.5112700">
    <ele>58.2</ele>
    <time>2020-06-14T09:02:26Z</time>
   </trkpt>
   <trkpt lat="51.1248710" lon="5.5113660">
    <ele>58.2</ele>
    <time>2020-06-14T09:02:27Z</time>
   </trkpt>
   <trkpt lat="51.1249110" lon="5.5114600">
    <ele>58.2</ele>
    <time>2020-06-14T09:02:28Z</time>
   </trkpt>
   <trkpt lat="51.1249520" lon="5.5115540">
    <ele>58.1</ele>
    <time>2020-06-14T09:02:29Z</time>
   </trkpt>
   <trkpt lat="51.1249940" lon="5.5116490">
    <ele>58.1</ele>
    <time>2020-06-14T09:02:30Z</time>
   </trkpt>
   <trkpt lat="51.1250320" lon="5.5117430">
    <ele>58.0</ele>
    <time>2020-06-14T09:02:31Z</time>
   </trkpt>
   <trkpt lat="51.1250680" lon="5.5118310">
    <ele>58.0</ele>
    <time>2020-06-14T09:02:32Z</time>
   </trkpt>
   <trkpt lat="51.1251110" lon="5.5119190">
    <ele>58.0</ele>
    <time>2020-06-14T09:02:33Z</time>
   </trkpt>
   <trkpt lat="51.1251520" lon="5.5120190">
    <ele>58.0</ele>
    <time>2020-06-14T09:02:34Z</time>
   </trkpt>
   <trkpt lat="51.1251910" lon="5.5121140">
    <ele>57.9</ele>
    <time>2020-06-14T09:02:35Z</time>
   </trkpt>
   <trkpt lat="51.1252350" lon="5.5122100">
    <ele>57.9</ele>
    <time>2020-06-14T09:02:36Z</time>
   </trkpt>
   <trkpt lat="51.1252730" lon="5.5123070">
    <ele>57.9</ele>
    <time>2020-06-14T09:02:37Z</time>
   </trkpt>
   <trkpt lat="51.1253210" lon="5.5123980">
    <ele>57.8</ele>
    <time>2020-06-14T09:02:38Z</time>
   </trkpt>
   <trkpt lat="51.1253690" lon="5.5124900">
    <ele>57.8</ele>
    <time>2020-06-14T09:02:39Z</time>
   </trkpt>
   <trkpt lat="51.1254190" lon="5.5125870">
    <ele>57.7</ele>
    <time>2020-06-14T09:02:40Z</time>
   </trkpt>
   <trkpt lat="51.1254670" lon="5.5126850">
    <ele>57.7</ele>
    <time>2020-06-14T09:02:41Z</time>
   </trkpt>
   <trkpt lat="51.1255140" lon="5.5127880">
    <ele>57.7</ele>
    <time>2020-06-14T09:02:42Z</time>
   </trkpt>
   <trkpt lat="51.1255590" lon="5.5128900">
    <ele>57.6</ele>
    <time>2020-06-14T09:02:43Z</time>
   </trkpt>
   <trkpt lat="51.1256030" lon="5.5129990">
    <ele>57.6</ele>
    <time>2020-06-14T09:02:44Z</time>
   </trkpt>
   <trkpt lat="51.1256440" lon="5.5131130">
    <ele>57.5</ele>
    <time>2020-06-14T09:02:45Z</time>
   </trkpt>
   <trkpt lat="51.1256870" lon="5.5132190">
    <ele>57.5</ele>
    <time>2020-06-14T09:02:46Z</time>
   </trkpt>
   <trkpt lat="51.1257360" lon="5.5133240">
    <ele>57.5</ele>
    <time>2020-06-14T09:02:47Z</time>
   </trkpt>
   <trkpt lat="51.1257880" lon="5.5134340">
    <ele>57.4</ele>
    <time>2020-06-14T09:02:48Z</time>
   </trkpt>
   <trkpt lat="51.1258480" lon="5.5135720">
    <ele>57.4</ele>
    <time>2020-06-14T09:02:49Z</time>
   </trkpt>
   <trkpt lat="51.1259050" lon="5.5137020">
    <ele>57.4</ele>
    <time>2020-06-14T09:02:50Z</time>
   </trkpt>
   <trkpt lat="51.1259570" lon="5.5138160">
    <ele>57.4</ele>
    <time>2020-06-14T09:02:51Z</time>
   </trkpt>
   <trkpt lat="51.1260050" lon="5.5139300">
    <ele>57.3</ele>
    <time>2020-06-14T09:02:52Z</time>
   </trkpt>
   <trkpt lat="51.1260580" lon="5.5140380">
    <ele>57.3</ele>
    <time>2020-06-14T09:02:53Z</time>
   </trkpt>
   <trkpt lat="51.1261130" lon="5.5141470">
    <ele>57.2</ele>
    <time>2020-06-14T09:02:54Z</time>
   </trkpt>
   <trkpt lat="51.1261690" lon="5.5142450">
    <ele>57.2</ele>
    <time>2020-06-14T09:02:55Z</time>
   </trkpt>
   <trkpt lat="51.1262240" lon="5.5143500">
    <ele>57.1</ele>
    <time>2020-06-14T09:02:56Z</time>
   </trkpt>
   <trkpt lat="51.1262770" lon="5.5144600">
    <ele>57.1</ele>
    <time>2020-06-14T09:02:57Z</time>
   </trkpt>
   <trkpt lat="51.1263280" lon="5.5145700">
    <ele>57.1</ele>
    <time>2020-06-14T09:02:58Z</time>
   </trkpt>
   <trkpt lat="51.1263730" lon="5.5146860">
    <ele>57.1</ele>
    <time>2020-06-14T09:02:59Z</time>
   </trkpt>
   <trkpt lat="51.1264040" lon="5.5148060">
    <ele>57.1</ele>
    <time>2020-06-14T09:03:00Z</time>
   </trkpt>
   <trkpt lat="51.1264150" lon="5.5149280">
    <ele>57.1</ele>
    <time>2020-06-14T09:03:01Z</time>
   </trkpt>
   <trkpt lat="51.1264570" lon="5.5150450">
    <ele>57.0</ele>
    <time>2020-06-14T09:03:02Z</time>
   </trkpt>
   <trkpt lat="51.1264850" lon="5.5151730">
    <ele>57.0</ele>
    <time>2020-06-14T09:03:03Z</time>
   </trkpt>
   <trkpt lat="51.1265000" lon="5.5153030">
    <ele>56.9</ele>
    <time>2020-06-14T09:03:04Z</time>
   </trkpt>
   <trkpt lat="51.1265370" lon="5.5154310">
    <ele>56.8</ele>
    <time>2020-06-14T09:03:05Z</time>
   </trkpt>
   <trkpt lat="51.1265790" lon="5.5155500">
    <ele>56.7</ele>
    <time>2020-06-14T09:03:06Z</time>
   </trkpt>
   <trkpt lat="51.1266120" lon="5.5156690">
    <ele>56.7</ele>
    <time>2020-06-14T09:03:07Z</time>
   </trkpt>
   <trkpt lat="51.1266760" lon="5.5157690">
    <ele>56.5</ele>
    <time>2020-06-14T09:03:08Z</time>
   </trkpt>
   <trkpt lat="51.1267280" lon="5.5158800">
    <ele>56.4</ele>
    <time>2020-06-14T09:03:09Z</time>
   </trkpt>
   <trkpt lat="51.1267780" lon="5.5159870">
    <ele>56.3</ele>
    <time>2020-06-14T09:03:10Z</time>
   </trkpt>
   <trkpt lat="51.1268270" lon="5.5160940">
    <ele>56.2</ele>
    <time>2020-06-14T09:03:11Z</time>
   </trkpt>
   <trkpt lat="51.1268770" lon="5.5162010">
    <ele>56.2</ele>
    <time>2020-06-14T09:03:12Z</time>
   </trkpt>
   <trkpt lat="51.1269300" lon="5.5163080">
    <ele>56.2</ele>
    <time>2020-06-14T09:03:13Z</time>
   </trkpt>
   <trkpt lat="51.1269800" lon="5.5164110">
    <ele>56.1</ele>
    <time>2020-06-14T09:03:14Z</time>
   </trkpt>
   <trkpt lat="51.1270330" lon="5.5165080">
    <ele>56.1</ele>
    <time>2020-06-14T09:03:15Z</time>
   </trkpt>
   <trkpt lat="51.1270840" lon="5.5166100">
    <ele>56.0</ele>
    <time>2020-06-14T09:03:16Z</time>
   </trkpt>
   <trkpt lat="51.1271390" lon="5.5167110">
    <ele>55.9</ele>
    <time>2020-06-14T09:03:17Z</time>
   </trkpt>
   <trkpt lat="51.1271910" lon="5.5168030">
    <ele>55.9</ele>
    <time>2020-06-14T09:03:18Z</time>
   </trkpt>
   <trkpt lat="51.1272380" lon="5.5168950">
    <ele>55.8</ele>
    <time>2020-06-14T09:03:19Z</time>
   </trkpt>
   <trkpt lat="51.1272860" lon="5.5169840">
    <ele>55.8</ele>
    <time>2020-06-14T09:03:20Z</time>
   </trkpt>
   <trkpt lat="51.1273400" lon="5.5170630">
    <ele>55.7</ele>
    <time>2020-06-14T09:03:21Z</time>
   </trkpt>
   <trkpt lat="51.1274010" lon="5.5171320">
    <ele>55.7</ele>
    <time>2020-06-14T09:03:22Z</time>
   </trkpt>
   <trkpt lat="51.1274640" lon="5.5171910">
    <ele>55.6</ele>
    <time>2020-06-14T09:03:23Z</time>
   </trkpt>
   <trkpt lat="51.1275290" lon="5.5172300">
    <ele>55.6</ele>
    <time>2020-06-14T09:03:24Z</time>
   </trkpt>
   <trkpt lat="51.1275950" lon="5.5172640">
    <ele>55.6</ele>
    <time>2020-06-14T09:03:25Z</time>
   </trkpt>
   <trkpt lat="51.1276680" lon="5.5172880">
    <ele>55.6</ele>
    <time>2020-06-14T09:03:26Z</time>
   </trkpt>
   <trkpt lat="51.1277450" lon="5.5173140">
    <ele>55.7</ele>
    <time>2020-06-14T09:03:27Z</time>
   </trkpt>
   <trkpt lat="51.1278250" lon="5.5173470">
    <ele>55.7</ele>
    <time>2020-06-14T09:03:28Z</time>
   </trkpt>
   <trkpt lat="51.1279040" lon="5.5173840">
    <ele>55.7</ele>
    <time>2020-06-14T09:03:29Z</time>
   </trkpt>
   <trkpt lat="51.1279810" lon="5.5174200">
    <ele>55.6</ele>
    <time>2020-06-14T09:03:30Z</time>
   </trkpt>
   <trkpt lat="51.1280530" lon="5.5174630">
    <ele>55.6</ele>
    <time>2020-06-14T09:03:31Z</time>
   </trkpt>
   <trkpt lat="51.1281270" lon="5.5175060">
    <ele>55.6</ele>
    <time>2020-06-14T09:03:32Z</time>
   </trkpt>
   <trkpt lat="51.1282020" lon="5.5175520">
    <ele>55.5</ele>
    <time>2020-06-14T09:03:33Z</time>
   </trkpt>
   <trkpt lat="51.1282740" lon="5.5175860">
    <ele>55.4</ele>
    <time>2020-06-14T09:03:34Z</time>
   </trkpt>
   <trkpt lat="51.1283430" lon="5.5176160">
    <ele>55.4</ele>
    <time>2020-06-14T09:03:35Z</time>
   </trkpt>
   <trkpt lat="51.1284160" lon="5.5176510">
    <ele>55.3</ele>
    <time>2020-06-14T09:03:36Z</time>
   </trkpt>
   <trkpt lat="51.1284880" lon="5.5176910">
    <ele>55.2</ele>
    <time>2020-06-14T09:03:37Z</time>
   </trkpt>
   <trkpt lat="51.1285590" lon="5.5177440">
    <ele>55.1</ele>
    <time>2020-06-14T09:03:38Z</time>
   </trkpt>
   <trkpt lat="51.1286310" lon="5.5177780">
    <ele>55.1</ele>
    <time>2020-06-14T09:03:39Z</time>
   </trkpt>
   <trkpt lat="51.1287060" lon="5.5178120">
    <ele>55.0</ele>
    <time>2020-06-14T09:03:40Z</time>
   </trkpt>
   <trkpt lat="51.1287760" lon="5.5178490">
    <ele>55.0</ele>
    <time>2020-06-14T09:03:41Z</time>
   </trkpt>
   <trkpt lat="51.1288470" lon="5.5178870">
    <ele>55.0</ele>
    <time>2020-06-14T09:03:42Z</time>
   </trkpt>
   <trkpt lat="51.1289160" lon="5.5179270">
    <ele>55.0</ele>
    <time>2020-06-14T09:03:43Z</time>
   </trkpt>
   <trkpt lat="51.1289840" lon="5.5179660">
    <ele>55.0</ele>
    <time>2020-06-14T09:03:44Z</time>
   </trkpt>
   <trkpt lat="51.1290540" lon="5.5180040">
    <ele>55.0</ele>
    <time>2020-06-14T09:03:45Z</time>
   </trkpt>
   <trkpt lat="51.1291230" lon="5.5180410">
    <ele>55.0</ele>
    <time>2020-06-14T09:03:46Z</time>
   </trkpt>
   <trkpt lat="51.1291890" lon="5.5180810">
    <ele>55.0</ele>
    <time>2020-06-14T09:03:47Z</time>
   </trkpt>
   <trkpt lat="51.1292520" lon="5.5181130">
    <ele>55.0</ele>
    <time>2020-06-14T09:03:48Z</time>
   </trkpt>
   <trkpt lat="51.1293110" lon="5.5181500">
    <ele>55.0</ele>
    <time>2020-06-14T09:03:49Z</time>
   </trkpt>
   <trkpt lat="51.1293710" lon="5.5182100">
    <ele>55.0</ele>
    <time>2020-06-14T09:03:50Z</time>
   </trkpt>
   <trkpt lat="51.1294280" lon="5.5182780">
    <ele>55.0</ele>
    <time>2020-06-14T09:03:51Z</time>
   </trkpt>
   <trkpt lat="51.1294750" lon="5.5183740">
    <ele>54.9</ele>
    <time>2020-06-14T09:03:52Z</time>
   </trkpt>
   <trkpt lat="51.1295080" lon="5.5184880">
    <ele>54.7</ele>
    <time>2020-06-14T09:03:53Z</time>
   </trkpt>
   <trkpt lat="51.1295400" lon="5.5186160">
    <ele>54.6</ele>
    <time>2020-06-14T09:03:54Z</time>
   </trkpt>
   <trkpt lat="51.1295700" lon="5.5187240">
    <ele>54.4</ele>
    <time>2020-06-14T09:03:55Z</time>
   </trkpt>
   <trkpt lat="51.1295990" lon="5.5188310">
    <ele>54.3</ele>
    <time>2020-06-14T09:03:56Z</time>
   </trkpt>
   <trkpt lat="51.1296760" lon="5.5189110">
    <ele>54.1</ele>
    <time>2020-06-14T09:03:57Z</time>
   </trkpt>
   <trkpt lat="51.1297160" lon="5.5190220">
    <ele>54.0</ele>
    <time>2020-06-14T09:03:58Z</time>
   </trkpt>
   <trkpt lat="51.1297690" lon="5.5191160">
    <ele>53.8</ele>
    <time>2020-06-14T09:03:59Z</time>
   </trkpt>
   <trkpt lat="51.1298140" lon="5.5192180">
    <ele>53.6</ele>
    <time>2020-06-14T09:04:00Z</time>
   </trkpt>
   <trkpt lat="51.1298580" lon="5.5193190">
    <ele>53.5</ele>
    <time>2020-06-14T09:04:01Z</time>
   </trkpt>
   <trkpt lat="51.1298980" lon="5.5194250">
    <ele>53.3</ele>
    <time>2020-06-14T09:04:02Z</time>
   </trkpt>
   <trkpt lat="51.1299420" lon="5.5195400">
    <ele>53.2</ele>
    <time>2020-06-14T09:04:03Z</time>
   </trkpt>
   <trkpt lat="51.1299930" lon="5.5196650">
    <ele>53.0</ele>
    <time>2020-06-14T09:04:04Z</time>
   </trkpt>
   <trkpt lat="51.1300470" lon="5.5197970">
    <ele>52.9</ele>
    <time>2020-06-14T09:04:05Z</time>
   </trkpt>
   <trkpt lat="51.1301000" lon="5.5199340">
    <ele>52.8</ele>
    <time>2020-06-14T09:04:06Z</time>
   </trkpt>
   <trkpt lat="51.1301450" lon="5.5200780">
    <ele>52.7</ele>
    <time>2020-06-14T09:04:07Z</time>
   </trkpt>
   <trkpt lat="51.1301820" lon="5.5202160">
    <ele>52.6</ele>
    <time>2020-06-14T09:04:08Z</time>
   </trkpt>
   <trkpt lat="51.1302120" lon="5.5203560">
    <ele>52.5</ele>
    <time>2020-06-14T09:04:09Z</time>
   </trkpt>
   <trkpt lat="51.1302350" lon="5.5204970">
    <ele>52.4</ele>
    <time>2020-06-14T09:04:10Z</time>
   </trkpt>
   <trkpt lat="51.1300740" lon="5.5206420">
    <ele>52.4</ele>
    <time>2020-06-14T09:04:11Z</time>
   </trkpt>
   <trkpt lat="51.1300790" lon="5.5207920">
    <ele>52.3</ele>
    <time>2020-06-14T09:04:12Z</time>
   </trkpt>
   <trkpt lat="51.1300830" lon="5.5209360">
    <ele>52.3</ele>
    <time>2020-06-14T09:04:13Z</time>
   </trkpt>
   <trkpt lat="51.1301000" lon="5.5210670">
    <ele>52.3</ele>
    <time>2020-06-14T09:04:14Z</time>
   </trkpt>
   <trkpt lat="51.1300940" lon="5.5212050">
    <ele>52.2</ele>
    <time>2020-06-14T09:04:15Z</time>
   </trkpt>
   <trkpt lat="51.1301010" lon="5.5213480">
    <ele>52.3</ele>
    <time>2020-06-14T09:04:16Z</time>
   </trkpt>
   <trkpt lat="51.1300880" lon="5.5214910">
    <ele>52.3</ele>
    <time>2020-06-14T09:04:17Z</time>
   </trkpt>
   <trkpt lat="51.1301140" lon="5.5216350">
    <ele>52.4</ele>
    <time>2020-06-14T09:04:18Z</time>
   </trkpt>
   <trkpt lat="51.1301120" lon="5.5217750">
    <ele>52.5</ele>
    <time>2020-06-14T09:04:19Z</time>
   </trkpt>
   <trkpt lat="51.1301120" lon="5.5219200">
    <ele>52.7</ele>
    <time>2020-06-14T09:04:20Z</time>
   </trkpt>
   <trkpt lat="51.1301010" lon="5.5220620">
    <ele>52.9</ele>
    <time>2020-06-14T09:04:21Z</time>
   </trkpt>
   <trkpt lat="51.1300970" lon="5.5222040">
    <ele>53.1</ele>
    <time>2020-06-14T09:04:22Z</time>
   </trkpt>
   <trkpt lat="51.1300950" lon="5.5223480">
    <ele>53.4</ele>
    <time>2020-06-14T09:04:23Z</time>
   </trkpt>
   <trkpt lat="51.1300790" lon="5.5224870">
    <ele>53.6</ele>
    <time>2020-06-14T09:04:24Z</time>
   </trkpt>
   <trkpt lat="51.1300910" lon="5.5226230">
    <ele>53.9</ele>
    <time>2020-06-14T09:04:25Z</time>
   </trkpt>
   <trkpt lat="51.1300880" lon="5.5227590">
    <ele>54.2</ele>
    <time>2020-06-14T09:04:26Z</time>
   </trkpt>
   <trkpt lat="51.1300890" lon="5.5228930">
    <ele>54.4</ele>
    <time>2020-06-14T09:04:27Z</time>
   </trkpt>
   <trkpt lat="51.1300870" lon="5.5230250">
    <ele>54.7</ele>
    <time>2020-06-14T09:04:28Z</time>
   </trkpt>
   <trkpt lat="51.1300780" lon="5.5231530">
    <ele>55.1</ele>
    <time>2020-06-14T09:04:29Z</time>
   </trkpt>
   <trkpt lat="51.1300830" lon="5.5232780">
    <ele>55.4</ele>
    <time>2020-06-14T09:04:30Z</time>
   </trkpt>
   <trkpt lat="51.1300880" lon="5.5234060">
    <ele>55.8</ele>
    <time>2020-06-14T09:04:31Z</time>
   </trkpt>
   <trkpt lat="51.1300980" lon="5.5235320">
    <ele>56.2</ele>
    <time>2020-06-14T09:04:32Z</time>
   </trkpt>
   <trkpt lat="51.1301090" lon="5.5236440">
    <ele>56.5</ele>
    <time>2020-06-14T09:04:33Z</time>
   </trkpt>
   <trkpt lat="51.1301220" lon="5.5237420">
    <ele>56.9</ele>
    <time>2020-06-14T09:04:34Z</time>
   </trkpt>
   <trkpt lat="51.1301370" lon="5.5238340">
    <ele>57.2</ele>
    <time>2020-06-14T09:04:35Z</time>
   </trkpt>
   <trkpt lat="51.1301620" lon="5.5239170">
    <ele>57.4</ele>
    <time>2020-06-14T09:04:36Z</time>
   </trkpt>
   <trkpt lat="51.1301890" lon="5.5239820">
    <ele>57.7</ele>
    <time>2020-06-14T09:04:37Z</time>
   </trkpt>
   <trkpt lat="51.1302140" lon="5.5240270">
    <ele>57.8</ele>
    <time>2020-06-14T09:04:38Z</time>
   </trkpt>
   <trkpt lat="51.1302360" lon="5.5240710">
    <ele>58.0</ele>
    <time>2020-06-14T09:04:39Z</time>
   </trkpt>
   <trkpt lat="51.1302650" lon="5.5241150">
    <ele>58.2</ele>
    <time>2020-06-14T09:04:40Z</time>
   </trkpt>
   <trkpt lat="51.1302940" lon="5.5241570">
    <ele>58.3</ele>
    <time>2020-06-14T09:04:41Z</time>
   </trkpt>
   <trkpt lat="51.1303180" lon="5.5242170">
    <ele>58.4</ele>
    <time>2020-06-14T09:04:42Z</time>
   </trkpt>
   <trkpt lat="51.1303400" lon="5.5242860">
    <ele>58.6</ele>
    <time>2020-06-14T09:04:43Z</time>
   </trkpt>
   <trkpt lat="51.1303540" lon="5.5243720">
    <ele>58.7</ele>
    <time>2020-06-14T09:04:44Z</time>
   </trkpt>
   <trkpt lat="51.1303460" lon="5.5244570">
    <ele>59.1</ele>
    <time>2020-06-14T09:04:45Z</time>
   </trkpt>
   <trkpt lat="51.1303150" lon="5.5245240">
    <ele>59.1</ele>
    <time>2020-06-14T09:04:46Z</time>
   </trkpt>
   <trkpt lat="51.1302710" lon="5.5245810">
    <ele>59.2</ele>
    <time>2020-06-14T09:04:47Z</time>
   </trkpt>
   <trkpt lat="51.1302220" lon="5.5246320">
    <ele>59.3</ele>
    <time>2020-06-14T09:04:48Z</time>
   </trkpt>
   <trkpt lat="51.1301720" lon="5.5246820">
    <ele>59.4</ele>
    <time>2020-06-14T09:04:49Z</time>
   </trkpt>
   <trkpt lat="51.1301200" lon="5.5247270">
    <ele>59.5</ele>
    <time>2020-06-14T09:04:50Z</time>
   </trkpt>
   <trkpt lat="51.1300650" lon="5.5247600">
    <ele>59.6</ele>
    <time>2020-06-14T09:04:51Z</time>
   </trkpt>
   <trkpt lat="51.1300260" lon="5.5248020">
    <ele>59.7</ele>
    <time>2020-06-14T09:04:52Z</time>
   </trkpt>
   <trkpt lat="51.1299840" lon="5.5248410">
    <ele>59.8</ele>
    <time>2020-06-14T09:04:53Z</time>
   </trkpt>
   <trkpt lat="51.1299400" lon="5.5248820">
    <ele>60.1</ele>
    <time>2020-06-14T09:04:54Z</time>
   </trkpt>
   <trkpt lat="51.1299020" lon="5.5249380">
    <ele>60.0</ele>
    <time>2020-06-14T09:04:55Z</time>
   </trkpt>
   <trkpt lat="51.1298810" lon="5.5250210">
    <ele>60.0</ele>
    <time>2020-06-14T09:04:56Z</time>
   </trkpt>
   <trkpt lat="51.1298610" lon="5.5251170">
    <ele>60.0</ele>
    <time>2020-06-14T09:04:57Z</time>
   </trkpt>
   <trkpt lat="51.1298450" lon="5.5252180">
    <ele>60.0</ele>
    <time>2020-06-14T09:04:58Z</time>
   </trkpt>
   <trkpt lat="51.1298250" lon="5.5253210">
    <ele>60.1</ele>
    <time>2020-06-14T09:04:59Z</time>
   </trkpt>
   <trkpt lat="51.1298080" lon="5.5254230">
    <ele>60.1</ele>
    <time>2020-06-14T09:05:00Z</time>
   </trkpt>
   <trkpt lat="51.1297930" lon="5.5255270">
    <ele>60.1</ele>
    <time>2020-06-14T09:05:01Z</time>
   </trkpt>
   <trkpt lat="51.1297760" lon="5.5256290">
    <ele>60.0</ele>
    <time>2020-06-14T09:05:02Z</time>
   </trkpt>
   <trkpt lat="51.1297560" lon="5.5257360">
    <ele>60.0</ele>
    <time>2020-06-14T09:05:03Z</time>
   </trkpt>
   <trkpt lat="51.1297380" lon="5.5258330">
    <ele>60.1</ele>
    <time>2020-06-14T09:05:04Z</time>
   </trkpt>
   <trkpt lat="51.1297190" lon="5.5259330">
    <ele>60.1</ele>
    <time>2020-06-14T09:05:05Z</time>
   </trkpt>
   <trkpt lat="51.1296990" lon="5.5260270">
    <ele>60.1</ele>
    <time>2020-06-14T09:05:06Z</time>
   </trkpt>
   <trkpt lat="51.1296800" lon="5.5261070">
    <ele>60.1</ele>
    <time>2020-06-14T09:05:07Z</time>
   </trkpt>
   <trkpt lat="51.1296590" lon="5.5262000">
    <ele>60.1</ele>
    <time>2020-06-14T09:05:08Z</time>
   </trkpt>
   <trkpt lat="51.1296400" lon="5.5262850">
    <ele>60.1</ele>
    <time>2020-06-14T09:05:09Z</time>
   </trkpt>
   <trkpt lat="51.1296220" lon="5.5263720">
    <ele>60.1</ele>
    <time>2020-06-14T09:05:10Z</time>
   </trkpt>
   <trkpt lat="51.1296080" lon="5.5264680">
    <ele>60.1</ele>
    <time>2020-06-14T09:05:11Z</time>
   </trkpt>
   <trkpt lat="51.1295950" lon="5.5265700">
    <ele>60.2</ele>
    <time>2020-06-14T09:05:12Z</time>
   </trkpt>
   <trkpt lat="51.1295900" lon="5.5266770">
    <ele>60.2</ele>
    <time>2020-06-14T09:05:13Z</time>
   </trkpt>
   <trkpt lat="51.1295810" lon="5.5267800">
    <ele>60.3</ele>
    <time>2020-06-14T09:05:14Z</time>
   </trkpt>
   <trkpt lat="51.1295770" lon="5.5268840">
    <ele>60.3</ele>
    <time>2020-06-14T09:05:15Z</time>
   </trkpt>
   <trkpt lat="51.1295750" lon="5.5269810">
    <ele>60.3</ele>
    <time>2020-06-14T09:05:16Z</time>
   </trkpt>
   <trkpt lat="51.1295820" lon="5.5270840">
    <ele>60.4</ele>
    <time>2020-06-14T09:05:17Z</time>
   </trkpt>
   <trkpt lat="51.1295940" lon="5.5271790">
    <ele>60.4</ele>
    <time>2020-06-14T09:05:18Z</time>
   </trkpt>
   <trkpt lat="51.1296090" lon="5.5272800">
    <ele>60.4</ele>
    <time>2020-06-14T09:05:19Z</time>
   </trkpt>
   <trkpt lat="51.1296290" lon="5.5273830">
    <ele>60.4</ele>
    <time>2020-06-14T09:05:20Z</time>
   </trkpt>
   <trkpt lat="51.1296460" lon="5.5274690">
    <ele>60.4</ele>
    <time>2020-06-14T09:05:21Z</time>
   </trkpt>
   <trkpt lat="51.1296650" lon="5.5275670">
    <ele>60.5</ele>
    <time>2020-06-14T09:05:22Z</time>
   </trkpt>
   <trkpt lat="51.1296900" lon="5.5276640">
    <ele>60.5</ele>
    <time>2020-06-14T09:05:23Z</time>
   </trkpt>
   <trkpt lat="51.1297180" lon="5.5277660">
    <ele>60.5</ele>
    <time>2020-06-14T09:05:24Z</time>
   </trkpt>
   <trkpt lat="51.1297430" lon="5.5278730">
    <ele>60.4</ele>
    <time>2020-06-14T09:05:25Z</time>
   </trkpt>
   <trkpt lat="51.1297830" lon="5.5279790">
    <ele>60.4</ele>
    <time>2020-06-14T09:05:26Z</time>
   </trkpt>
   <trkpt lat="51.1298150" lon="5.5280900">
    <ele>60.4</ele>
    <time>2020-06-14T09:05:27Z</time>
   </trkpt>
   <trkpt lat="51.1298420" lon="5.5281910">
    <ele>60.4</ele>
    <time>2020-06-14T09:05:28Z</time>
   </trkpt>
   <trkpt lat="51.1298720" lon="5.5283040">
    <ele>60.4</ele>
    <time>2020-06-14T09:05:29Z</time>
   </trkpt>
   <trkpt lat="51.1299010" lon="5.5284090">
    <ele>60.5</ele>
    <time>2020-06-14T09:05:30Z</time>
   </trkpt>
   <trkpt lat="51.1299280" lon="5.5285270">
    <ele>60.5</ele>
    <time>2020-06-14T09:05:31Z</time>
   </trkpt>
   <trkpt lat="51.1299620" lon="5.5286400">
    <ele>60.5</ele>
    <time>2020-06-14T09:05:32Z</time>
   </trkpt>
   <trkpt lat="51.1299980" lon="5.5287540">
    <ele>60.6</ele>
    <time>2020-06-14T09:05:33Z</time>
   </trkpt>
   <trkpt lat="51.1300680" lon="5.5288650">
    <ele>60.6</ele>
    <time>2020-06-14T09:05:34Z</time>
   </trkpt>
   <trkpt lat="51.1301020" lon="5.5289890">
    <ele>60.6</ele>
    <time>2020-06-14T09:05:35Z</time>
   </trkpt>
   <trkpt lat="51.1301390" lon="5.5290980">
    <ele>60.6</ele>
    <time>2020-06-14T09:05:36Z</time>
   </trkpt>
   <trkpt lat="51.1301710" lon="5.5292170">
    <ele>60.6</ele>
    <time>2020-06-14T09:05:37Z</time>
   </trkpt>
   <trkpt lat="51.1302000" lon="5.5293310">
    <ele>60.6</ele>
    <time>2020-06-14T09:05:38Z</time>
   </trkpt>
   <trkpt lat="51.1302280" lon="5.5294450">
    <ele>60.6</ele>
    <time>2020-06-14T09:05:39Z</time>
   </trkpt>
   <trkpt lat="51.1302590" lon="5.5295610">
    <ele>60.6</ele>
    <time>2020-06-14T09:05:40Z</time>
   </trkpt>
   <trkpt lat="51.1302840" lon="5.5296790">
    <ele>60.6</ele>
    <time>2020-06-14T09:05:41Z</time>
   </trkpt>
   <trkpt lat="51.1303130" lon="5.5298000">
    <ele>60.6</ele>
    <time>2020-06-14T09:05:42Z</time>
   </trkpt>
   <trkpt lat="51.1303410" lon="5.5299170">
    <ele>60.6</ele>
    <time>2020-06-14T09:05:43Z</time>
   </trkpt>
   <trkpt lat="51.1303660" lon="5.5300310">
    <ele>60.6</ele>
    <time>2020-06-14T09:05:44Z</time>
   </trkpt>
   <trkpt lat="51.1303880" lon="5.5301460">
    <ele>60.7</ele>
    <time>2020-06-14T09:05:45Z</time>
   </trkpt>
   <trkpt lat="51.1304050" lon="5.5302650">
    <ele>60.7</ele>
    <time>2020-06-14T09:05:46Z</time>
   </trkpt>
   <trkpt lat="51.1304220" lon="5.5303860">
    <ele>60.7</ele>
    <time>2020-06-14T09:05:47Z</time>
   </trkpt>
   <trkpt lat="51.1304380" lon="5.5305050">
    <ele>60.8</ele>
    <time>2020-06-14T09:05:48Z</time>
   </trkpt>
   <trkpt lat="51.1304510" lon="5.5306260">
    <ele>60.9</ele>
    <time>2020-06-14T09:05:49Z</time>
   </trkpt>
   <trkpt lat="51.1304650" lon="5.5307460">
    <ele>60.9</ele>
    <time>2020-06-14T09:05:50Z</time>
   </trkpt>
   <trkpt lat="51.1304770" lon="5.5308680">
    <ele>60.9</ele>
    <time>2020-06-14T09:05:51Z</time>
   </trkpt>
   <trkpt lat="51.1304450" lon="5.5309920">
    <ele>61.0</ele>
    <time>2020-06-14T09:05:52Z</time>
   </trkpt>
   <trkpt lat="51.1304540" lon="5.5311070">
    <ele>61.0</ele>
    <time>2020-06-14T09:05:53Z</time>
   </trkpt>
   <trkpt lat="51.1304490" lon="5.5312250">
    <ele>61.0</ele>
    <time>2020-06-14T09:05:54Z</time>
   </trkpt>
   <trkpt lat="51.1304530" lon="5.5313410">
    <ele>61.0</ele>
    <time>2020-06-14T09:05:55Z</time>
   </trkpt>
   <trkpt lat="51.1304580" lon="5.5314560">
    <ele>61.0</ele>
    <time>2020-06-14T09:05:56Z</time>
   </trkpt>
   <trkpt lat="51.1304670" lon="5.5315680">
    <ele>61.0</ele>
    <time>2020-06-14T09:05:57Z</time>
   </trkpt>
   <trkpt lat="51.1304740" lon="5.5316820">
    <ele>61.0</ele>
    <time>2020-06-14T09:05:58Z</time>
   </trkpt>
   <trkpt lat="51.1304740" lon="5.5317960">
    <ele>61.0</ele>
    <time>2020-06-14T09:05:59Z</time>
   </trkpt>
   <trkpt lat="51.1304740" lon="5.5319130">
    <ele>61.0</ele>
    <time>2020-06-14T09:06:00Z</time>
   </trkpt>
   <trkpt lat="51.1304940" lon="5.5320270">
    <ele>61.1</ele>
    <time>2020-06-14T09:06:01Z</time>
   </trkpt>
   <trkpt lat="51.1305010" lon="5.5321460">
    <ele>61.1</ele>
    <time>2020-06-14T09:06:02Z</time>
   </trkpt>
   <trkpt lat="51.1305030" lon="5.5322700">
    <ele>61.1</ele>
    <time>2020-06-14T09:06:03Z</time>
   </trkpt>
   <trkpt lat="51.1305220" lon="5.5323900">
    <ele>61.1</ele>
    <time>2020-06-14T09:06:04Z</time>
   </trkpt>
   <trkpt lat="51.1305480" lon="5.5325080">
    <ele>61.1</ele>
    <time>2020-06-14T09:06:05Z</time>
   </trkpt>
   <trkpt lat="51.1305750" lon="5.5326330">
    <ele>61.1</ele>
    <time>2020-06-14T09:06:06Z</time>
   </trkpt>
   <trkpt lat="51.1305850" lon="5.5327570">
    <ele>61.2</ele>
    <time>2020-06-14T09:06:07Z</time>
   </trkpt>
   <trkpt lat="51.1305910" lon="5.5328850">
    <ele>61.2</ele>
    <time>2020-06-14T09:06:08Z</time>
   </trkpt>
   <trkpt lat="51.1305970" lon="5.5330110">
    <ele>61.3</ele>
    <time>2020-06-14T09:06:09Z</time>
   </trkpt>
   <trkpt lat="51.1306180" lon="5.5331320">
    <ele>61.3</ele>
    <time>2020-06-14T09:06:10Z</time>
   </trkpt>
   <trkpt lat="51.1306320" lon="5.5332580">
    <ele>61.3</ele>
    <time>2020-06-14T09:06:11Z</time>
   </trkpt>
   <trkpt lat="51.1306460" lon="5.5333830">
    <ele>61.3</ele>
    <time>2020-06-14T09:06:12Z</time>
   </trkpt>
   <trkpt lat="51.1306610" lon="5.5335030">
    <ele>61.4</ele>
    <time>2020-06-14T09:06:13Z</time>
   </trkpt>
   <trkpt lat="51.1306770" lon="5.5336210">
    <ele>61.4</ele>
    <time>2020-06-14T09:06:14Z</time>
   </trkpt>
   <trkpt lat="51.1306860" lon="5.5337350">
    <ele>61.5</ele>
    <time>2020-06-14T09:06:15Z</time>
   </trkpt>
   <trkpt lat="51.1306980" lon="5.5338460">
    <ele>61.5</ele>
    <time>2020-06-14T09:06:16Z</time>
   </trkpt>
   <trkpt lat="51.1307210" lon="5.5339660">
    <ele>61.6</ele>
    <time>2020-06-14T09:06:17Z</time>
   </trkpt>
   <trkpt lat="51.1307470" lon="5.5340820">
    <ele>61.7</ele>
    <time>2020-06-14T09:06:18Z</time>
   </trkpt>
   <trkpt lat="51.1307690" lon="5.5342010">
    <ele>61.8</ele>
    <time>2020-06-14T09:06:19Z</time>
   </trkpt>
   <trkpt lat="51.1307940" lon="5.5343250">
    <ele>61.9</ele>
    <time>2020-06-14T09:06:20Z</time>
   </trkpt>
   <trkpt lat="51.1308140" lon="5.5344410">
    <ele>61.9</ele>
    <time>2020-06-14T09:06:21Z</time>
   </trkpt>
   <trkpt lat="51.1308290" lon="5.5345580">
    <ele>61.9</ele>
    <time>2020-06-14T09:06:22Z</time>
   </trkpt>
   <trkpt lat="51.1308390" lon="5.5346740">
    <ele>61.9</ele>
    <time>2020-06-14T09:06:23Z</time>
   </trkpt>
   <trkpt lat="51.1308430" lon="5.5347920">
    <ele>61.9</ele>
    <time>2020-06-14T09:06:24Z</time>
   </trkpt>
   <trkpt lat="51.1308280" lon="5.5349070">
    <ele>61.9</ele>
    <time>2020-06-14T09:06:25Z</time>
   </trkpt>
   <trkpt lat="51.1308370" lon="5.5350230">
    <ele>62.0</ele>
    <time>2020-06-14T09:06:26Z</time>
   </trkpt>
   <trkpt lat="51.1308450" lon="5.5351450">
    <ele>62.0</ele>
    <time>2020-06-14T09:06:27Z</time>
   </trkpt>
   <trkpt lat="51.1308660" lon="5.5352540">
    <ele>62.0</ele>
    <time>2020-06-14T09:06:28Z</time>
   </trkpt>
   <trkpt lat="51.1308770" lon="5.5353610">
    <ele>62.1</ele>
    <time>2020-06-14T09:06:29Z</time>
   </trkpt>
   <trkpt lat="51.1308910" lon="5.5354800">
    <ele>62.1</ele>
    <time>2020-06-14T09:06:30Z</time>
   </trkpt>
   <trkpt lat="51.1309070" lon="5.5355930">
    <ele>62.2</ele>
    <time>2020-06-14T09:06:31Z</time>
   </trkpt>
   <trkpt lat="51.1309200" lon="5.5357090">
    <ele>62.2</ele>
    <time>2020-06-14T09:06:32Z</time>
   </trkpt>
   <trkpt lat="51.1309380" lon="5.5358270">
    <ele>62.1</ele>
    <time>2020-06-14T09:06:33Z</time>
   </trkpt>
   <trkpt lat="51.1309550" lon="5.5359430">
    <ele>62.1</ele>
    <time>2020-06-14T09:06:34Z</time>
   </trkpt>
   <trkpt lat="51.1309660" lon="5.5360600">
    <ele>62.1</ele>
    <time>2020-06-14T09:06:35Z</time>
   </trkpt>
   <trkpt lat="51.1309670" lon="5.5361810">
    <ele>62.1</ele>
    <time>2020-06-14T09:06:36Z</time>
   </trkpt>
   <trkpt lat="51.1309790" lon="5.5363040">
    <ele>62.1</ele>
    <time>2020-06-14T09:06:37Z</time>
   </trkpt>
   <trkpt lat="51.1310120" lon="5.5364230">
    <ele>62.1</ele>
    <time>2020-06-14T09:06:38Z</time>
   </trkpt>
   <trkpt lat="51.1310260" lon="5.5365410">
    <ele>62.1</ele>
    <time>2020-06-14T09:06:39Z</time>
   </trkpt>
   <trkpt lat="51.1310410" lon="5.5366580">
    <ele>62.1</ele>
    <time>2020-06-14T09:06:40Z</time>
   </trkpt>
   <trkpt lat="51.1310560" lon="5.5367720">
    <ele>62.1</ele>
    <time>2020-06-14T09:06:41Z</time>
   </trkpt>
   <trkpt lat="51.1310710" lon="5.5368820">
    <ele>62.1</ele>
    <time>2020-06-14T09:06:42Z</time>
   </trkpt>
   <trkpt lat="51.1310850" lon="5.5369930">
    <ele>62.1</ele>
    <time>2020-06-14T09:06:43Z</time>
   </trkpt>
   <trkpt lat="51.1311010" lon="5.5371040">
    <ele>62.1</ele>
    <time>2020-06-14T09:06:44Z</time>
   </trkpt>
   <trkpt lat="51.1311030" lon="5.5372300">
    <ele>62.0</ele>
    <time>2020-06-14T09:06:45Z</time>
   </trkpt>
   <trkpt lat="51.1311310" lon="5.5373450">
    <ele>62.0</ele>
    <time>2020-06-14T09:06:46Z</time>
   </trkpt>
   <trkpt lat="51.1311500" lon="5.5374600">
    <ele>61.9</ele>
    <time>2020-06-14T09:06:47Z</time>
   </trkpt>
   <trkpt lat="51.1311620" lon="5.5375810">
    <ele>61.9</ele>
    <time>2020-06-14T09:06:48Z</time>
   </trkpt>
   <trkpt lat="51.1311840" lon="5.5376950">
    <ele>61.8</ele>
    <time>2020-06-14T09:06:49Z</time>
   </trkpt>
   <trkpt lat="51.1312190" lon="5.5378180">
    <ele>61.8</ele>
    <time>2020-06-14T09:06:50Z</time>
   </trkpt>
   <trkpt lat="51.1312290" lon="5.5379430">
    <ele>61.8</ele>
    <time>2020-06-14T09:06:51Z</time>
   </trkpt>
   <trkpt lat="51.1312400" lon="5.5380640">
    <ele>61.7</ele>
    <time>2020-06-14T09:06:52Z</time>
   </trkpt>
   <trkpt lat="51.1312580" lon="5.5381760">
    <ele>61.7</ele>
    <time>2020-06-14T09:06:53Z</time>
   </trkpt>
   <trkpt lat="51.1312700" lon="5.5382900">
    <ele>61.6</ele>
    <time>2020-06-14T09:06:54Z</time>
   </trkpt>
   <trkpt lat="51.1312820" lon="5.5384060">
    <ele>61.6</ele>
    <time>2020-06-14T09:06:55Z</time>
   </trkpt>
   <trkpt lat="51.1312970" lon="5.5385280">
    <ele>61.6</ele>
    <time>2020-06-14T09:06:56Z</time>
   </trkpt>
   <trkpt lat="51.1313030" lon="5.5386540">
    <ele>61.5</ele>
    <time>2020-06-14T09:06:57Z</time>
   </trkpt>
   <trkpt lat="51.1313180" lon="5.5387740">
    <ele>61.5</ele>
    <time>2020-06-14T09:06:58Z</time>
   </trkpt>
   <trkpt lat="51.1313330" lon="5.5388970">
    <ele>61.5</ele>
    <time>2020-06-14T09:06:59Z</time>
   </trkpt>
   <trkpt lat="51.1313480" lon="5.5390180">
    <ele>61.5</ele>
    <time>2020-06-14T09:07:00Z</time>
   </trkpt>
   <trkpt lat="51.1313620" lon="5.5391430">
    <ele>61.6</ele>
    <time>2020-06-14T09:07:01Z</time>
   </trkpt>
   <trkpt lat="51.1313760" lon="5.5392650">
    <ele>61.7</ele>
    <time>2020-06-14T09:07:02Z</time>
   </trkpt>
   <trkpt lat="51.1313910" lon="5.5393870">
    <ele>61.9</ele>
    <time>2020-06-14T09:07:03Z</time>
   </trkpt>
   <trkpt lat="51.1314100" lon="5.5395110">
    <ele>61.9</ele>
    <time>2020-06-14T09:07:04Z</time>
   </trkpt>
   <trkpt lat="51.1314290" lon="5.5396410">
    <ele>61.8</ele>
    <time>2020-06-14T09:07:05Z</time>
   </trkpt>
   <trkpt lat="51.1314470" lon="5.5397680">
    <ele>61.8</ele>
    <time>2020-06-14T09:07:06Z</time>
   </trkpt>
   <trkpt lat="51.1314640" lon="5.5398900">
    <ele>61.7</ele>
    <time>2020-06-14T09:07:07Z</time>
   </trkpt>
   <trkpt lat="51.1314710" lon="5.5400190">
    <ele>61.6</ele>
    <time>2020-06-14T09:07:08Z</time>
   </trkpt>
   <trkpt lat="51.1314780" lon="5.5401530">
    <ele>61.5</ele>
    <time>2020-06-14T09:07:09Z</time>
   </trkpt>
   <trkpt lat="51.1314800" lon="5.5402830">
    <ele>61.5</ele>
    <time>2020-06-14T09:07:10Z</time>
   </trkpt>
   <trkpt lat="51.1314810" lon="5.5404080">
    <ele>61.5</ele>
    <time>2020-06-14T09:07:11Z</time>
   </trkpt>
   <trkpt lat="51.1314870" lon="5.5405330">
    <ele>61.4</ele>
    <time>2020-06-14T09:07:12Z</time>
   </trkpt>
   <trkpt lat="51.1314920" lon="5.5406560">
    <ele>61.4</ele>
    <time>2020-06-14T09:07:13Z</time>
   </trkpt>
   <trkpt lat="51.1315050" lon="5.5407730">
    <ele>61.4</ele>
    <time>2020-06-14T09:07:14Z</time>
   </trkpt>
   <trkpt lat="51.1315220" lon="5.5408840">
    <ele>61.4</ele>
    <time>2020-06-14T09:07:15Z</time>
   </trkpt>
   <trkpt lat="51.1315410" lon="5.5410060">
    <ele>61.3</ele>
    <time>2020-06-14T09:07:16Z</time>
   </trkpt>
   <trkpt lat="51.1315610" lon="5.5411330">
    <ele>61.2</ele>
    <time>2020-06-14T09:07:17Z</time>
   </trkpt>
   <trkpt lat="51.1316210" lon="5.5412540">
    <ele>61.2</ele>
    <time>2020-06-14T09:07:18Z</time>
   </trkpt>
   <trkpt lat="51.1316360" lon="5.5413730">
    <ele>61.2</ele>
    <time>2020-06-14T09:07:19Z</time>
   </trkpt>
   <trkpt lat="51.1316510" lon="5.5414910">
    <ele>61.1</ele>
    <time>2020-06-14T09:07:20Z</time>
   </trkpt>
   <trkpt lat="51.1316670" lon="5.5416050">
    <ele>61.1</ele>
    <time>2020-06-14T09:07:21Z</time>
   </trkpt>
   <trkpt lat="51.1316830" lon="5.5417240">
    <ele>61.1</ele>
    <time>2020-06-14T09:07:22Z</time>
   </trkpt>
   <trkpt lat="51.1317050" lon="5.5418520">
    <ele>61.0</ele>
    <time>2020-06-14T09:07:23Z</time>
   </trkpt>
   <trkpt lat="51.1317220" lon="5.5419770">
    <ele>61.0</ele>
    <time>2020-06-14T09:07:24Z</time>
   </trkpt>
   <trkpt lat="51.1317320" lon="5.5420970">
    <ele>61.0</ele>
    <time>2020-06-14T09:07:25Z</time>
   </trkpt>
   <trkpt lat="51.1317470" lon="5.5422130">
    <ele>61.0</ele>
    <time>2020-06-14T09:07:26Z</time>
   </trkpt>
   <trkpt lat="51.1317600" lon="5.5423320">
    <ele>61.1</ele>
    <time>2020-06-14T09:07:27Z</time>
   </trkpt>
   <trkpt lat="51.1317760" lon="5.5424410">
    <ele>61.1</ele>
    <time>2020-06-14T09:07:28Z</time>
   </trkpt>
   <trkpt lat="51.1317770" lon="5.5425550">
    <ele>61.1</ele>
    <time>2020-06-14T09:07:29Z</time>
   </trkpt>
   <trkpt lat="51.1317840" lon="5.5426500">
    <ele>61.2</ele>
    <time>2020-06-14T09:07:30Z</time>
   </trkpt>
   <trkpt lat="51.1317940" lon="5.5427430">
    <ele>61.2</ele>
    <time>2020-06-14T09:07:31Z</time>
   </trkpt>
   <trkpt lat="51.1318060" lon="5.5428390">
    <ele>61.2</ele>
    <time>2020-06-14T09:07:32Z</time>
   </trkpt>
   <trkpt lat="51.1318130" lon="5.5429450">
    <ele>61.2</ele>
    <time>2020-06-14T09:07:33Z</time>
   </trkpt>
   <trkpt lat="51.1318230" lon="5.5430540">
    <ele>61.2</ele>
    <time>2020-06-14T09:07:34Z</time>
   </trkpt>
   <trkpt lat="51.1318370" lon="5.5431550">
    <ele>61.2</ele>
    <time>2020-06-14T09:07:35Z</time>
   </trkpt>
   <trkpt lat="51.1318510" lon="5.5432570">
    <ele>61.2</ele>
    <time>2020-06-14T09:07:36Z</time>
   </trkpt>
   <trkpt lat="51.1318670" lon="5.5433600">
    <ele>61.1</ele>
    <time>2020-06-14T09:07:37Z</time>
   </trkpt>
   <trkpt lat="51.1318930" lon="5.5434730">
    <ele>61.1</ele>
    <time>2020-06-14T09:07:38Z</time>
   </trkpt>
   <trkpt lat="51.1319280" lon="5.5436090">
    <ele>61.1</ele>
    <time>2020-06-14T09:07:39Z</time>
   </trkpt>
   <trkpt lat="51.1319660" lon="5.5437550">
    <ele>61.1</ele>
    <time>2020-06-14T09:07:40Z</time>
   </trkpt>
   <trkpt lat="51.1320020" lon="5.5438910">
    <ele>61.0</ele>
    <time>2020-06-14T09:07:41Z</time>
   </trkpt>
   <trkpt lat="51.1320370" lon="5.5440260">
    <ele>61.0</ele>
    <time>2020-06-14T09:07:42Z</time>
   </trkpt>
   <trkpt lat="51.1320650" lon="5.5441590">
    <ele>60.9</ele>
    <time>2020-06-14T09:07:43Z</time>
   </trkpt>
   <trkpt lat="51.1320820" lon="5.5442940">
    <ele>60.9</ele>
    <time>2020-06-14T09:07:44Z</time>
   </trkpt>
   <trkpt lat="51.1320250" lon="5.5444350">
    <ele>60.9</ele>
    <time>2020-06-14T09:07:45Z</time>
   </trkpt>
   <trkpt lat="51.1320440" lon="5.5445640">
    <ele>61.0</ele>
    <time>2020-06-14T09:07:46Z</time>
   </trkpt>
   <trkpt lat="51.1320600" lon="5.5446920">
    <ele>61.0</ele>
    <time>2020-06-14T09:07:47Z</time>
   </trkpt>
   <trkpt lat="51.1320770" lon="5.5448180">
    <ele>61.1</ele>
    <time>2020-06-14T09:07:48Z</time>
   </trkpt>
   <trkpt lat="51.1320990" lon="5.5449430">
    <ele>61.2</ele>
    <time>2020-06-14T09:07:49Z</time>
   </trkpt>
   <trkpt lat="51.1321180" lon="5.5450690">
    <ele>61.2</ele>
    <time>2020-06-14T09:07:50Z</time>
   </trkpt>
   <trkpt lat="51.1321340" lon="5.5451900">
    <ele>61.3</ele>
    <time>2020-06-14T09:07:51Z</time>
   </trkpt>
   <trkpt lat="51.1321480" lon="5.5453140">
    <ele>61.3</ele>
    <time>2020-06-14T09:07:52Z</time>
   </trkpt>
   <trkpt lat="51.1321640" lon="5.5454400">
    <ele>61.3</ele>
    <time>2020-06-14T09:07:53Z</time>
   </trkpt>
   <trkpt lat="51.1321800" lon="5.5455710">
    <ele>61.2</ele>
    <time>2020-06-14T09:07:54Z</time>
   </trkpt>
   <trkpt lat="51.1321980" lon="5.5456990">
    <ele>61.2</ele>
    <time>2020-06-14T09:07:55Z</time>
   </trkpt>
   <trkpt lat="51.1322130" lon="5.5458290">
    <ele>61.2</ele>
    <time>2020-06-14T09:07:56Z</time>
   </trkpt>
   <trkpt lat="51.1322240" lon="5.5459540">
    <ele>61.2</ele>
    <time>2020-06-14T09:07:57Z</time>
   </trkpt>
   <trkpt lat="51.1322400" lon="5.5460760">
    <ele>61.2</ele>
    <time>2020-06-14T09:07:58Z</time>
   </trkpt>
   <trkpt lat="51.1322570" lon="5.5461960">
    <ele>61.1</ele>
    <time>2020-06-14T09:07:59Z</time>
   </trkpt>
   <trkpt lat="51.1322720" lon="5.5463180">
    <ele>61.1</ele>
    <time>2020-06-14T09:08:00Z</time>
   </trkpt>
   <trkpt lat="51.1322860" lon="5.5464380">
    <ele>61.1</ele>
    <time>2020-06-14T09:08:01Z</time>
   </trkpt>
   <trkpt lat="51.1323010" lon="5.5465550">
    <ele>61.1</ele>
    <time>2020-06-14T09:08:02Z</time>
   </trkpt>
   <trkpt lat="51.1323140" lon="5.5466730">
    <ele>61.1</ele>
    <time>2020-06-14T09:08:03Z</time>
   </trkpt>
   <trkpt lat="51.1323270" lon="5.5467920">
    <ele>61.1</ele>
    <time>2020-06-14T09:08:04Z</time>
   </trkpt>
   <trkpt lat="51.1323470" lon="5.5469060">
    <ele>61.2</ele>
    <time>2020-06-14T09:08:05Z</time>
   </trkpt>
   <trkpt lat="51.1323580" lon="5.5470220">
    <ele>61.2</ele>
    <time>2020-06-14T09:08:06Z</time>
   </trkpt>
   <trkpt lat="51.1323690" lon="5.5471300">
    <ele>61.2</ele>
    <time>2020-06-14T09:08:07Z</time>
   </trkpt>
   <trkpt lat="51.1323790" lon="5.5472360">
    <ele>61.3</ele>
    <time>2020-06-14T09:08:08Z</time>
   </trkpt>
   <trkpt lat="51.1323910" lon="5.5473440">
    <ele>61.3</ele>
    <time>2020-06-14T09:08:09Z</time>
   </trkpt>
   <trkpt lat="51.1324030" lon="5.5474520">
    <ele>61.3</ele>
    <time>2020-06-14T09:08:10Z</time>
   </trkpt>
   <trkpt lat="51.1324180" lon="5.5475630">
    <ele>61.4</ele>
    <time>2020-06-14T09:08:11Z</time>
   </trkpt>
   <trkpt lat="51.1324310" lon="5.5476780">
    <ele>61.3</ele>
    <time>2020-06-14T09:08:12Z</time>
   </trkpt>
   <trkpt lat="51.1324480" lon="5.5477950">
    <ele>61.3</ele>
    <time>2020-06-14T09:08:13Z</time>
   </trkpt>
   <trkpt lat="51.1324600" lon="5.5479210">
    <ele>61.3</ele>
    <time>2020-06-14T09:08:14Z</time>
   </trkpt>
   <trkpt lat="51.1324760" lon="5.5480450">
    <ele>61.3</ele>
    <time>2020-06-14T09:08:15Z</time>
   </trkpt>
   <trkpt lat="51.1324960" lon="5.5481630">
    <ele>61.3</ele>
    <time>2020-06-14T09:08:16Z</time>
   </trkpt>
   <trkpt lat="51.1325080" lon="5.5482800">
    <ele>61.4</ele>
    <time>2020-06-14T09:08:17Z</time>
   </trkpt>
   <trkpt lat="51.1325260" lon="5.5483950">
    <ele>61.4</ele>
    <time>2020-06-14T09:08:18Z</time>
   </trkpt>
   <trkpt lat="51.1325480" lon="5.5485130">
    <ele>61.4</ele>
    <time>2020-06-14T09:08:19Z</time>
   </trkpt>
   <trkpt lat="51.1325640" lon="5.5486330">
    <ele>61.5</ele>
    <time>2020-06-14T09:08:20Z</time>
   </trkpt>
   <trkpt lat="51.1325730" lon="5.5487670">
    <ele>61.5</ele>
    <time>2020-06-14T09:08:21Z</time>
   </trkpt>
   <trkpt lat="51.1325920" lon="5.5489030">
    <ele>61.5</ele>
    <time>2020-06-14T09:08:22Z</time>
   </trkpt>
   <trkpt lat="51.1326130" lon="5.5490360">
    <ele>61.6</ele>
    <time>2020-06-14T09:08:23Z</time>
   </trkpt>
   <trkpt lat="51.1326300" lon="5.5491690">
    <ele>61.6</ele>
    <time>2020-06-14T09:08:24Z</time>
   </trkpt>
   <trkpt lat="51.1326460" lon="5.5492970">
    <ele>61.6</ele>
    <time>2020-06-14T09:08:25Z</time>
   </trkpt>
   <trkpt lat="51.1326660" lon="5.5494170">
    <ele>61.7</ele>
    <time>2020-06-14T09:08:26Z</time>
   </trkpt>
   <trkpt lat="51.1326860" lon="5.5495430">
    <ele>61.8</ele>
    <time>2020-06-14T09:08:28Z</time>
   </trkpt>
   <trkpt lat="51.1327090" lon="5.5496730">
    <ele>62.1</ele>
    <time>2020-06-14T09:08:29Z</time>
   </trkpt>
   <trkpt lat="51.1327380" lon="5.5497980">
    <ele>62.1</ele>
    <time>2020-06-14T09:08:30Z</time>
   </trkpt>
   <trkpt lat="51.1327640" lon="5.5499130">
    <ele>62.1</ele>
    <time>2020-06-14T09:08:31Z</time>
   </trkpt>
   <trkpt lat="51.1327840" lon="5.5500430">
    <ele>62.1</ele>
    <time>2020-06-14T09:08:32Z</time>
   </trkpt>
   <trkpt lat="51.1328010" lon="5.5501700">
    <ele>62.1</ele>
    <time>2020-06-14T09:08:33Z</time>
   </trkpt>
   <trkpt lat="51.1328200" lon="5.5502870">
    <ele>62.0</ele>
    <time>2020-06-14T09:08:34Z</time>
   </trkpt>
   <trkpt lat="51.1328360" lon="5.5504050">
    <ele>62.0</ele>
    <time>2020-06-14T09:08:35Z</time>
   </trkpt>
   <trkpt lat="51.1328530" lon="5.5505180">
    <ele>62.0</ele>
    <time>2020-06-14T09:08:36Z</time>
   </trkpt>
   <trkpt lat="51.1328680" lon="5.5506240">
    <ele>62.0</ele>
    <time>2020-06-14T09:08:37Z</time>
   </trkpt>
   <trkpt lat="51.1328820" lon="5.5507360">
    <ele>62.1</ele>
    <time>2020-06-14T09:08:38Z</time>
   </trkpt>
   <trkpt lat="51.1328970" lon="5.5508410">
    <ele>62.1</ele>
    <time>2020-06-14T09:08:39Z</time>
   </trkpt>
   <trkpt lat="51.1329100" lon="5.5509550">
    <ele>62.1</ele>
    <time>2020-06-14T09:08:40Z</time>
   </trkpt>
   <trkpt lat="51.1329220" lon="5.5510680">
    <ele>62.1</ele>
    <time>2020-06-14T09:08:41Z</time>
   </trkpt>
   <trkpt lat="51.1329300" lon="5.5511930">
    <ele>62.1</ele>
    <time>2020-06-14T09:08:42Z</time>
   </trkpt>
   <trkpt lat="51.1329480" lon="5.5513150">
    <ele>62.1</ele>
    <time>2020-06-14T09:08:43Z</time>
   </trkpt>
   <trkpt lat="51.1329670" lon="5.5514420">
    <ele>62.1</ele>
    <time>2020-06-14T09:08:44Z</time>
   </trkpt>
   <trkpt lat="51.1329800" lon="5.5515640">
    <ele>62.0</ele>
    <time>2020-06-14T09:08:45Z</time>
   </trkpt>
   <trkpt lat="51.1329940" lon="5.5516860">
    <ele>62.0</ele>
    <time>2020-06-14T09:08:46Z</time>
   </trkpt>
   <trkpt lat="51.1330040" lon="5.5518160">
    <ele>62.0</ele>
    <time>2020-06-14T09:08:47Z</time>
   </trkpt>
   <trkpt lat="51.1330160" lon="5.5519490">
    <ele>61.9</ele>
    <time>2020-06-14T09:08:48Z</time>
   </trkpt>
   <trkpt lat="51.1330260" lon="5.5520760">
    <ele>61.9</ele>
    <time>2020-06-14T09:08:49Z</time>
   </trkpt>
   <trkpt lat="51.1330380" lon="5.5522040">
    <ele>61.8</ele>
    <time>2020-06-14T09:08:50Z</time>
   </trkpt>
   <trkpt lat="51.1330510" lon="5.5523270">
    <ele>61.8</ele>
    <time>2020-06-14T09:08:51Z</time>
   </trkpt>
   <trkpt lat="51.1330630" lon="5.5524500">
    <ele>61.7</ele>
    <time>2020-06-14T09:08:52Z</time>
   </trkpt>
   <trkpt lat="51.1330780" lon="5.5525700">
    <ele>61.6</ele>
    <time>2020-06-14T09:08:53Z</time>
   </trkpt>
   <trkpt lat="51.1330930" lon="5.5526940">
    <ele>61.5</ele>
    <time>2020-06-14T09:08:54Z</time>
   </trkpt>
   <trkpt lat="51.1331060" lon="5.5528200">
    <ele>61.4</ele>
    <time>2020-06-14T09:08:55Z</time>
   </trkpt>
   <trkpt lat="51.1331230" lon="5.5529430">
    <ele>61.4</ele>
    <time>2020-06-14T09:08:56Z</time>
   </trkpt>
   <trkpt lat="51.1331410" lon="5.5530790">
    <ele>61.3</ele>
    <time>2020-06-14T09:08:57Z</time>
   </trkpt>
   <trkpt lat="51.1331560" lon="5.5532040">
    <ele>61.3</ele>
    <time>2020-06-14T09:08:58Z</time>
   </trkpt>
   <trkpt lat="51.1331710" lon="5.5533200">
    <ele>61.2</ele>
    <time>2020-06-14T09:08:59Z</time>
   </trkpt>
   <trkpt lat="51.1331960" lon="5.5534310">
    <ele>61.2</ele>
    <time>2020-06-14T09:09:00Z</time>
   </trkpt>
   <trkpt lat="51.1332190" lon="5.5535470">
    <ele>61.2</ele>
    <time>2020-06-14T09:09:01Z</time>
   </trkpt>
   <trkpt lat="51.1332420" lon="5.5536620">
    <ele>61.2</ele>
    <time>2020-06-14T09:09:02Z</time>
   </trkpt>
   <trkpt lat="51.1332610" lon="5.5537830">
    <ele>61.2</ele>
    <time>2020-06-14T09:09:03Z</time>
   </trkpt>
   <trkpt lat="51.1332790" lon="5.5539040">
    <ele>61.2</ele>
    <time>2020-06-14T09:09:04Z</time>
   </trkpt>
   <trkpt lat="51.1332140" lon="5.5540240">
    <ele>61.2</ele>
    <time>2020-06-14T09:09:05Z</time>
   </trkpt>
   <trkpt lat="51.1332230" lon="5.5541700">
    <ele>61.2</ele>
    <time>2020-06-14T09:09:06Z</time>
   </trkpt>
   <trkpt lat="51.1332450" lon="5.5543100">
    <ele>61.1</ele>
    <time>2020-06-14T09:09:07Z</time>
   </trkpt>
   <trkpt lat="51.1332660" lon="5.5544590">
    <ele>61.1</ele>
    <time>2020-06-14T09:09:08Z</time>
   </trkpt>
   <trkpt lat="51.1332850" lon="5.5546030">
    <ele>61.1</ele>
    <time>2020-06-14T09:09:09Z</time>
   </trkpt>
   <trkpt lat="51.1333160" lon="5.5547460">
    <ele>61.1</ele>
    <time>2020-06-14T09:09:10Z</time>
   </trkpt>
   <trkpt lat="51.1333450" lon="5.5548880">
    <ele>61.0</ele>
    <time>2020-06-14T09:09:11Z</time>
   </trkpt>
   <trkpt lat="51.1333660" lon="5.5550280">
    <ele>61.0</ele>
    <time>2020-06-14T09:09:12Z</time>
   </trkpt>
   <trkpt lat="51.1333900" lon="5.5551690">
    <ele>61.0</ele>
    <time>2020-06-14T09:09:13Z</time>
   </trkpt>
   <trkpt lat="51.1334120" lon="5.5553120">
    <ele>60.9</ele>
    <time>2020-06-14T09:09:14Z</time>
   </trkpt>
   <trkpt lat="51.1334250" lon="5.5554500">
    <ele>60.8</ele>
    <time>2020-06-14T09:09:15Z</time>
   </trkpt>
   <trkpt lat="51.1334380" lon="5.5555850">
    <ele>60.7</ele>
    <time>2020-06-14T09:09:16Z</time>
   </trkpt>
   <trkpt lat="51.1334530" lon="5.5557210">
    <ele>60.6</ele>
    <time>2020-06-14T09:09:17Z</time>
   </trkpt>
   <trkpt lat="51.1334690" lon="5.5558620">
    <ele>60.5</ele>
    <time>2020-06-14T09:09:18Z</time>
   </trkpt>
   <trkpt lat="51.1334900" lon="5.5560010">
    <ele>60.4</ele>
    <time>2020-06-14T09:09:19Z</time>
   </trkpt>
   <trkpt lat="51.1335190" lon="5.5561400">
    <ele>60.2</ele>
    <time>2020-06-14T09:09:20Z</time>
   </trkpt>
   <trkpt lat="51.1335440" lon="5.5562730">
    <ele>60.1</ele>
    <time>2020-06-14T09:09:21Z</time>
   </trkpt>
   <trkpt lat="51.1335670" lon="5.5564070">
    <ele>59.9</ele>
    <time>2020-06-14T09:09:22Z</time>
   </trkpt>
   <trkpt lat="51.1335840" lon="5.5565330">
    <ele>59.8</ele>
    <time>2020-06-14T09:09:23Z</time>
   </trkpt>
   <trkpt lat="51.1335980" lon="5.5566630">
    <ele>59.6</ele>
    <time>2020-06-14T09:09:24Z</time>
   </trkpt>
   <trkpt lat="51.1336030" lon="5.5567960">
    <ele>59.4</ele>
    <time>2020-06-14T09:09:25Z</time>
   </trkpt>
   <trkpt lat="51.1336010" lon="5.5569310">
    <ele>59.1</ele>
    <time>2020-06-14T09:09:26Z</time>
   </trkpt>
   <trkpt lat="51.1335850" lon="5.5570690">
    <ele>58.9</ele>
    <time>2020-06-14T09:09:27Z</time>
   </trkpt>
   <trkpt lat="51.1335670" lon="5.5571950">
    <ele>58.6</ele>
    <time>2020-06-14T09:09:28Z</time>
   </trkpt>
   <trkpt lat="51.1335320" lon="5.5573040">
    <ele>58.4</ele>
    <time>2020-06-14T09:09:29Z</time>
   </trkpt>
   <trkpt lat="51.1334450" lon="5.5573800">
    <ele>58.1</ele>
    <time>2020-06-14T09:09:30Z</time>
   </trkpt>
   <trkpt lat="51.1333940" lon="5.5574920">
    <ele>57.8</ele>
    <time>2020-06-14T09:09:31Z</time>
   </trkpt>
   <trkpt lat="51.1333510" lon="5.5576270">
    <ele>57.5</ele>
    <time>2020-06-14T09:09:32Z</time>
   </trkpt>
   <trkpt lat="51.1333110" lon="5.5577670">
    <ele>57.1</ele>
    <time>2020-06-14T09:09:33Z</time>
   </trkpt>
   <trkpt lat="51.1332690" lon="5.5579010">
    <ele>56.8</ele>
    <time>2020-06-14T09:09:34Z</time>
   </trkpt>
   <trkpt lat="51.1332280" lon="5.5580340">
    <ele>56.5</ele>
    <time>2020-06-14T09:09:35Z</time>
   </trkpt>
   <trkpt lat="51.1331910" lon="5.5581700">
    <ele>56.1</ele>
    <time>2020-06-14T09:09:36Z</time>
   </trkpt>
   <trkpt lat="51.1331580" lon="5.5583080">
    <ele>55.8</ele>
    <time>2020-06-14T09:09:37Z</time>
   </trkpt>
   <trkpt lat="51.1331230" lon="5.5584470">
    <ele>55.5</ele>
    <time>2020-06-14T09:09:38Z</time>
   </trkpt>
   <trkpt lat="51.1330870" lon="5.5585840">
    <ele>55.2</ele>
    <time>2020-06-14T09:09:39Z</time>
   </trkpt>
   <trkpt lat="51.1330510" lon="5.5587160">
    <ele>55.0</ele>
    <time>2020-06-14T09:09:40Z</time>
   </trkpt>
   <trkpt lat="51.1330130" lon="5.5588430">
    <ele>54.8</ele>
    <time>2020-06-14T09:09:41Z</time>
   </trkpt>
   <trkpt lat="51.1329740" lon="5.5589670">
    <ele>54.7</ele>
    <time>2020-06-14T09:09:42Z</time>
   </trkpt>
   <trkpt lat="51.1329360" lon="5.5590940">
    <ele>54.6</ele>
    <time>2020-06-14T09:09:43Z</time>
   </trkpt>
   <trkpt lat="51.1328990" lon="5.5592160">
    <ele>54.6</ele>
    <time>2020-06-14T09:09:44Z</time>
   </trkpt>
   <trkpt lat="51.1328600" lon="5.5593380">
    <ele>54.7</ele>
    <time>2020-06-14T09:09:45Z</time>
   </trkpt>
   <trkpt lat="51.1328140" lon="5.5594560">
    <ele>54.8</ele>
    <time>2020-06-14T09:09:46Z</time>
   </trkpt>
   <trkpt lat="51.1327600" lon="5.5595630">
    <ele>54.9</ele>
    <time>2020-06-14T09:09:47Z</time>
   </trkpt>
   <trkpt lat="51.1326530" lon="5.5596020">
    <ele>55.1</ele>
    <time>2020-06-14T09:09:48Z</time>
   </trkpt>
   <trkpt lat="51.1325970" lon="5.5597000">
    <ele>55.2</ele>
    <time>2020-06-14T09:09:49Z</time>
   </trkpt>
   <trkpt lat="51.1325450" lon="5.5598050">
    <ele>55.4</ele>
    <time>2020-06-14T09:09:50Z</time>
   </trkpt>
   <trkpt lat="51.1324890" lon="5.5599070">
    <ele>55.7</ele>
    <time>2020-06-14T09:09:51Z</time>
   </trkpt>
   <trkpt lat="51.1324340" lon="5.5600090">
    <ele>56.0</ele>
    <time>2020-06-14T09:09:52Z</time>
   </trkpt>
   <trkpt lat="51.1323810" lon="5.5601100">
    <ele>56.2</ele>
    <time>2020-06-14T09:09:53Z</time>
   </trkpt>
   <trkpt lat="51.1323330" lon="5.5602170">
    <ele>56.4</ele>
    <time>2020-06-14T09:09:54Z</time>
   </trkpt>
   <trkpt lat="51.1322790" lon="5.5603180">
    <ele>56.5</ele>
    <time>2020-06-14T09:09:55Z</time>
   </trkpt>
   <trkpt lat="51.1322110" lon="5.5604020">
    <ele>56.7</ele>
    <time>2020-06-14T09:09:56Z</time>
   </trkpt>
   <trkpt lat="51.1321640" lon="5.5605020">
    <ele>56.7</ele>
    <time>2020-06-14T09:09:57Z</time>
   </trkpt>
   <trkpt lat="51.1321160" lon="5.5605920">
    <ele>56.8</ele>
    <time>2020-06-14T09:09:58Z</time>
   </trkpt>
   <trkpt lat="51.1320660" lon="5.5606800">
    <ele>56.9</ele>
    <time>2020-06-14T09:09:59Z</time>
   </trkpt>
   <trkpt lat="51.1320160" lon="5.5607710">
    <ele>56.9</ele>
    <time>2020-06-14T09:10:00Z</time>
   </trkpt>
   <trkpt lat="51.1319620" lon="5.5608740">
    <ele>56.9</ele>
    <time>2020-06-14T09:10:01Z</time>
   </trkpt>
   <trkpt lat="51.1319100" lon="5.5609800">
    <ele>57.0</ele>
    <time>2020-06-14T09:10:02Z</time>
   </trkpt>
   <trkpt lat="51.1318670" lon="5.5610670">
    <ele>57.1</ele>
    <time>2020-06-14T09:10:03Z</time>
   </trkpt>
   <trkpt lat="51.1318150" lon="5.5611680">
    <ele>57.1</ele>
    <time>2020-06-14T09:10:04Z</time>
   </trkpt>
   <trkpt lat="51.1317660" lon="5.5612610">
    <ele>57.1</ele>
    <time>2020-06-14T09:10:05Z</time>
   </trkpt>
   <trkpt lat="51.1317150" lon="5.5613590">
    <ele>57.1</ele>
    <time>2020-06-14T09:10:06Z</time>
   </trkpt>
   <trkpt lat="51.1316670" lon="5.5614550">
    <ele>57.1</ele>
    <time>2020-06-14T09:10:07Z</time>
   </trkpt>
   <trkpt lat="51.1316170" lon="5.5615610">
    <ele>57.1</ele>
    <time>2020-06-14T09:10:08Z</time>
   </trkpt>
   <trkpt lat="51.1315660" lon="5.5616600">
    <ele>57.2</ele>
    <time>2020-06-14T09:10:09Z</time>
   </trkpt>
   <trkpt lat="51.1315130" lon="5.5617520">
    <ele>57.2</ele>
    <time>2020-06-14T09:10:10Z</time>
   </trkpt>
   <trkpt lat="51.1314600" lon="5.5618520">
    <ele>57.3</ele>
    <time>2020-06-14T09:10:11Z</time>
   </trkpt>
   <trkpt lat="51.1314090" lon="5.5619450">
    <ele>57.4</ele>
    <time>2020-06-14T09:10:12Z</time>
   </trkpt>
   <trkpt lat="51.1313610" lon="5.5620370">
    <ele>57.5</ele>
    <time>2020-06-14T09:10:13Z</time>
   </trkpt>
   <trkpt lat="51.1313220" lon="5.5621230">
    <ele>57.5</ele>
    <time>2020-06-14T09:10:14Z</time>
   </trkpt>
   <trkpt lat="51.1312770" lon="5.5622000">
    <ele>57.6</ele>
    <time>2020-06-14T09:10:15Z</time>
   </trkpt>
   <trkpt lat="51.1312300" lon="5.5622840">
    <ele>57.7</ele>
    <time>2020-06-14T09:10:16Z</time>
   </trkpt>
   <trkpt lat="51.1311850" lon="5.5623650">
    <ele>57.8</ele>
    <time>2020-06-14T09:10:17Z</time>
   </trkpt>
   <trkpt lat="51.1311400" lon="5.5624480">
    <ele>57.9</ele>
    <time>2020-06-14T09:10:18Z</time>
   </trkpt>
   <trkpt lat="51.1310940" lon="5.5625310">
    <ele>58.0</ele>
    <time>2020-06-14T09:10:19Z</time>
   </trkpt>
   <trkpt lat="51.1310490" lon="5.5626110">
    <ele>58.1</ele>
    <time>2020-06-14T09:10:20Z</time>
   </trkpt>
   <trkpt lat="51.1310040" lon="5.5626930">
    <ele>58.2</ele>
    <time>2020-06-14T09:10:21Z</time>
   </trkpt>
   <trkpt lat="51.1309590" lon="5.5627740">
    <ele>58.4</ele>
    <time>2020-06-14T09:10:22Z</time>
   </trkpt>
   <trkpt lat="51.1309100" lon="5.5628590">
    <ele>58.6</ele>
    <time>2020-06-14T09:10:23Z</time>
   </trkpt>
   <trkpt lat="51.1308550" lon="5.5629430">
    <ele>58.7</ele>
    <time>2020-06-14T09:10:24Z</time>
   </trkpt>
   <trkpt lat="51.1307990" lon="5.5630260">
    <ele>58.8</ele>
    <time>2020-06-14T09:10:25Z</time>
   </trkpt>
   <trkpt lat="51.1307460" lon="5.5631080">
    <ele>58.8</ele>
    <time>2020-06-14T09:10:26Z</time>
   </trkpt>
   <trkpt lat="51.1306950" lon="5.5631930">
    <ele>58.9</ele>
    <time>2020-06-14T09:10:27Z</time>
   </trkpt>
   <trkpt lat="51.1306410" lon="5.5632710">
    <ele>58.9</ele>
    <time>2020-06-14T09:10:28Z</time>
   </trkpt>
   <trkpt lat="51.1305910" lon="5.5633500">
    <ele>58.9</ele>
    <time>2020-06-14T09:10:29Z</time>
   </trkpt>
   <trkpt lat="51.1305410" lon="5.5634310">
    <ele>58.9</ele>
    <time>2020-06-14T09:10:30Z</time>
   </trkpt>
   <trkpt lat="51.1304910" lon="5.5635150">
    <ele>59.0</ele>
    <time>2020-06-14T09:10:31Z</time>
   </trkpt>
   <trkpt lat="51.1304380" lon="5.5635940">
    <ele>59.0</ele>
    <time>2020-06-14T09:10:32Z</time>
   </trkpt>
   <trkpt lat="51.1303830" lon="5.5636710">
    <ele>59.0</ele>
    <time>2020-06-14T09:10:33Z</time>
   </trkpt>
   <trkpt lat="51.1303330" lon="5.5637480">
    <ele>59.0</ele>
    <time>2020-06-14T09:10:34Z</time>
   </trkpt>
   <trkpt lat="51.1302800" lon="5.5638210">
    <ele>59.1</ele>
    <time>2020-06-14T09:10:35Z</time>
   </trkpt>
   <trkpt lat="51.1302320" lon="5.5639010">
    <ele>59.1</ele>
    <time>2020-06-14T09:10:36Z</time>
   </trkpt>
   <trkpt lat="51.1301840" lon="5.5639820">
    <ele>59.1</ele>
    <time>2020-06-14T09:10:37Z</time>
   </trkpt>
   <trkpt lat="51.1301330" lon="5.5640620">
    <ele>59.1</ele>
    <time>2020-06-14T09:10:38Z</time>
   </trkpt>
   <trkpt lat="51.1300800" lon="5.5641360">
    <ele>59.1</ele>
    <time>2020-06-14T09:10:39Z</time>
   </trkpt>
   <trkpt lat="51.1300250" lon="5.5642080">
    <ele>59.2</ele>
    <time>2020-06-14T09:10:40Z</time>
   </trkpt>
   <trkpt lat="51.1299630" lon="5.5642670">
    <ele>59.2</ele>
    <time>2020-06-14T09:10:41Z</time>
   </trkpt>
   <trkpt lat="51.1298990" lon="5.5643130">
    <ele>59.2</ele>
    <time>2020-06-14T09:10:42Z</time>
   </trkpt>
   <trkpt lat="51.1298390" lon="5.5643660">
    <ele>59.3</ele>
    <time>2020-06-14T09:10:43Z</time>
   </trkpt>
   <trkpt lat="51.1297820" lon="5.5644260">
    <ele>59.3</ele>
    <time>2020-06-14T09:10:44Z</time>
   </trkpt>
   <trkpt lat="51.1297250" lon="5.5644860">
    <ele>59.3</ele>
    <time>2020-06-14T09:10:45Z</time>
   </trkpt>
   <trkpt lat="51.1296680" lon="5.5645440">
    <ele>59.3</ele>
    <time>2020-06-14T09:10:46Z</time>
   </trkpt>
   <trkpt lat="51.1296090" lon="5.5646060">
    <ele>59.4</ele>
    <time>2020-06-14T09:10:47Z</time>
   </trkpt>
   <trkpt lat="51.1295480" lon="5.5646670">
    <ele>59.5</ele>
    <time>2020-06-14T09:10:48Z</time>
   </trkpt>
   <trkpt lat="51.1294880" lon="5.5647270">
    <ele>59.5</ele>
    <time>2020-06-14T09:10:49Z</time>
   </trkpt>
   <trkpt lat="51.1294260" lon="5.5647860">
    <ele>59.6</ele>
    <time>2020-06-14T09:10:50Z</time>
   </trkpt>
   <trkpt lat="51.1293710" lon="5.5648590">
    <ele>59.6</ele>
    <time>2020-06-14T09:10:51Z</time>
   </trkpt>
   <trkpt lat="51.1293160" lon="5.5649300">
    <ele>59.7</ele>
    <time>2020-06-14T09:10:52Z</time>
   </trkpt>
   <trkpt lat="51.1292610" lon="5.5649980">
    <ele>59.7</ele>
    <time>2020-06-14T09:10:53Z</time>
   </trkpt>
   <trkpt lat="51.1292070" lon="5.5650680">
    <ele>59.7</ele>
    <time>2020-06-14T09:10:54Z</time>
   </trkpt>
   <trkpt lat="51.1291490" lon="5.5651390">
    <ele>59.7</ele>
    <time>2020-06-14T09:10:55Z</time>
   </trkpt>
   <trkpt lat="51.1290910" lon="5.5652130">
    <ele>59.7</ele>
    <time>2020-06-14T09:10:56Z</time>
   </trkpt>
   <trkpt lat="51.1290360" lon="5.5652930">
    <ele>59.7</ele>
    <time>2020-06-14T09:10:57Z</time>
   </trkpt>
   <trkpt lat="51.1289750" lon="5.5653740">
    <ele>59.8</ele>
    <time>2020-06-14T09:10:58Z</time>
   </trkpt>
   <trkpt lat="51.1289120" lon="5.5654560">
    <ele>59.8</ele>
    <time>2020-06-14T09:10:59Z</time>
   </trkpt>
   <trkpt lat="51.1288500" lon="5.5655300">
    <ele>59.9</ele>
    <time>2020-06-14T09:11:00Z</time>
   </trkpt>
   <trkpt lat="51.1287930" lon="5.5656080">
    <ele>59.9</ele>
    <time>2020-06-14T09:11:01Z</time>
   </trkpt>
   <trkpt lat="51.1287400" lon="5.5656900">
    <ele>60.0</ele>
    <time>2020-06-14T09:11:02Z</time>
   </trkpt>
   <trkpt lat="51.1286840" lon="5.5657660">
    <ele>60.0</ele>
    <time>2020-06-14T09:11:03Z</time>
   </trkpt>
   <trkpt lat="51.1286270" lon="5.5658460">
    <ele>60.0</ele>
    <time>2020-06-14T09:11:04Z</time>
   </trkpt>
   <trkpt lat="51.1285710" lon="5.5659310">
    <ele>60.1</ele>
    <time>2020-06-14T09:11:05Z</time>
   </trkpt>
   <trkpt lat="51.1285180" lon="5.5660160">
    <ele>60.2</ele>
    <time>2020-06-14T09:11:06Z</time>
   </trkpt>
   <trkpt lat="51.1284660" lon="5.5660980">
    <ele>60.2</ele>
    <time>2020-06-14T09:11:07Z</time>
   </trkpt>
   <trkpt lat="51.1284160" lon="5.5661760">
    <ele>60.2</ele>
    <time>2020-06-14T09:11:08Z</time>
   </trkpt>
   <trkpt lat="51.1283700" lon="5.5662550">
    <ele>60.1</ele>
    <time>2020-06-14T09:11:09Z</time>
   </trkpt>
   <trkpt lat="51.1283260" lon="5.5663370">
    <ele>60.1</ele>
    <time>2020-06-14T09:11:10Z</time>
   </trkpt>
   <trkpt lat="51.1282800" lon="5.5664130">
    <ele>60.1</ele>
    <time>2020-06-14T09:11:11Z</time>
   </trkpt>
   <trkpt lat="51.1282300" lon="5.5664730">
    <ele>60.1</ele>
    <time>2020-06-14T09:11:12Z</time>
   </trkpt>
   <trkpt lat="51.1281810" lon="5.5665340">
    <ele>60.1</ele>
    <time>2020-06-14T09:11:13Z</time>
   </trkpt>
   <trkpt lat="51.1281260" lon="5.5665960">
    <ele>60.1</ele>
    <time>2020-06-14T09:11:14Z</time>
   </trkpt>
   <trkpt lat="51.1280660" lon="5.5666560">
    <ele>60.2</ele>
    <time>2020-06-14T09:11:15Z</time>
   </trkpt>
   <trkpt lat="51.1280060" lon="5.5667230">
    <ele>60.2</ele>
    <time>2020-06-14T09:11:16Z</time>
   </trkpt>
   <trkpt lat="51.1279450" lon="5.5667880">
    <ele>60.3</ele>
    <time>2020-06-14T09:11:17Z</time>
   </trkpt>
   <trkpt lat="51.1278870" lon="5.5668560">
    <ele>60.3</ele>
    <time>2020-06-14T09:11:18Z</time>
   </trkpt>
   <trkpt lat="51.1278210" lon="5.5669120">
    <ele>60.4</ele>
    <time>2020-06-14T09:11:19Z</time>
   </trkpt>
   <trkpt lat="51.1277510" lon="5.5669710">
    <ele>60.4</ele>
    <time>2020-06-14T09:11:20Z</time>
   </trkpt>
   <trkpt lat="51.1276930" lon="5.5670400">
    <ele>60.5</ele>
    <time>2020-06-14T09:11:21Z</time>
   </trkpt>
   <trkpt lat="51.1276340" lon="5.5671050">
    <ele>60.5</ele>
    <time>2020-06-14T09:11:22Z</time>
   </trkpt>
   <trkpt lat="51.1275760" lon="5.5671730">
    <ele>60.6</ele>
    <time>2020-06-14T09:11:23Z</time>
   </trkpt>
   <trkpt lat="51.1275200" lon="5.5672370">
    <ele>60.6</ele>
    <time>2020-06-14T09:11:24Z</time>
   </trkpt>
   <trkpt lat="51.1274640" lon="5.5673050">
    <ele>60.7</ele>
    <time>2020-06-14T09:11:25Z</time>
   </trkpt>
   <trkpt lat="51.1274090" lon="5.5673710">
    <ele>60.8</ele>
    <time>2020-06-14T09:11:26Z</time>
   </trkpt>
   <trkpt lat="51.1273530" lon="5.5674470">
    <ele>60.9</ele>
    <time>2020-06-14T09:11:27Z</time>
   </trkpt>
   <trkpt lat="51.1272960" lon="5.5675230">
    <ele>60.9</ele>
    <time>2020-06-14T09:11:28Z</time>
   </trkpt>
   <trkpt lat="51.1272390" lon="5.5675990">
    <ele>61.0</ele>
    <time>2020-06-14T09:11:29Z</time>
   </trkpt>
   <trkpt lat="51.1271830" lon="5.5676700">
    <ele>61.0</ele>
    <time>2020-06-14T09:11:30Z</time>
   </trkpt>
   <trkpt lat="51.1271300" lon="5.5677310">
    <ele>61.1</ele>
    <time>2020-06-14T09:11:31Z</time>
   </trkpt>
   <trkpt lat="51.1270760" lon="5.5678010">
    <ele>61.2</ele>
    <time>2020-06-14T09:11:32Z</time>
   </trkpt>
   <trkpt lat="51.1270220" lon="5.5678710">
    <ele>61.3</ele>
    <time>2020-06-14T09:11:33Z</time>
   </trkpt>
   <trkpt lat="51.1269720" lon="5.5679390">
    <ele>61.5</ele>
    <time>2020-06-14T09:11:34Z</time>
   </trkpt>
   <trkpt lat="51.1269240" lon="5.5679910">
    <ele>61.7</ele>
    <time>2020-06-14T09:11:35Z</time>
   </trkpt>
   <trkpt lat="51.1268810" lon="5.5680340">
    <ele>61.8</ele>
    <time>2020-06-14T09:11:36Z</time>
   </trkpt>
   <trkpt lat="51.1268410" lon="5.5680760">
    <ele>62.0</ele>
    <time>2020-06-14T09:11:37Z</time>
   </trkpt>
   <trkpt lat="51.1267990" lon="5.5681190">
    <ele>62.4</ele>
    <time>2020-06-14T09:11:38Z</time>
   </trkpt>
   <trkpt lat="51.1267640" lon="5.5681520">
    <ele>62.5</ele>
    <time>2020-06-14T09:11:39Z</time>
   </trkpt>
   <trkpt lat="51.1267380" lon="5.5681790">
    <ele>62.6</ele>
    <time>2020-06-14T09:11:40Z</time>
   </trkpt>
   <trkpt lat="51.1267080" lon="5.5681930">
    <ele>62.7</ele>
    <time>2020-06-14T09:11:41Z</time>
   </trkpt>
   <trkpt lat="51.1266780" lon="5.5682160">
    <ele>62.8</ele>
    <time>2020-06-14T09:11:42Z</time>
   </trkpt>
   <trkpt lat="51.1266480" lon="5.5682450">
    <ele>62.9</ele>
    <time>2020-06-14T09:11:43Z</time>
   </trkpt>
   <trkpt lat="51.1266210" lon="5.5682770">
    <ele>63.0</ele>
    <time>2020-06-14T09:11:44Z</time>
   </trkpt>
   <trkpt lat="51.1265860" lon="5.5682890">
    <ele>63.1</ele>
    <time>2020-06-14T09:11:45Z</time>
   </trkpt>
   <trkpt lat="51.1265410" lon="5.5682740">
    <ele>63.2</ele>
    <time>2020-06-14T09:11:46Z</time>
   </trkpt>
   <trkpt lat="51.1264870" lon="5.5682500">
    <ele>63.1</ele>
    <time>2020-06-14T09:11:47Z</time>
   </trkpt>
   <trkpt lat="51.1264340" lon="5.5682300">
    <ele>63.0</ele>
    <time>2020-06-14T09:11:48Z</time>
   </trkpt>
   <trkpt lat="51.1263740" lon="5.5682220">
    <ele>62.9</ele>
    <time>2020-06-14T09:11:49Z</time>
   </trkpt>
   <trkpt lat="51.1263120" lon="5.5682150">
    <ele>62.9</ele>
    <time>2020-06-14T09:11:50Z</time>
   </trkpt>
   <trkpt lat="51.1262470" lon="5.5681980">
    <ele>62.8</ele>
    <time>2020-06-14T09:11:51Z</time>
   </trkpt>
   <trkpt lat="51.1261730" lon="5.5681730">
    <ele>62.8</ele>
    <time>2020-06-14T09:11:52Z</time>
   </trkpt>
   <trkpt lat="51.1260980" lon="5.5681500">
    <ele>62.7</ele>
    <time>2020-06-14T09:11:53Z</time>
   </trkpt>
   <trkpt lat="51.1260240" lon="5.5681280">
    <ele>62.7</ele>
    <time>2020-06-14T09:11:54Z</time>
   </trkpt>
   <trkpt lat="51.1259510" lon="5.5681050">
    <ele>62.7</ele>
    <time>2020-06-14T09:11:55Z</time>
   </trkpt>
   <trkpt lat="51.1258800" lon="5.5680820">
    <ele>62.7</ele>
    <time>2020-06-14T09:11:56Z</time>
   </trkpt>
   <trkpt lat="51.1258100" lon="5.5680650">
    <ele>62.7</ele>
    <time>2020-06-14T09:11:57Z</time>
   </trkpt>
   <trkpt lat="51.1257450" lon="5.5680630">
    <ele>62.6</ele>
    <time>2020-06-14T09:11:58Z</time>
   </trkpt>
   <trkpt lat="51.1256800" lon="5.5680960">
    <ele>62.7</ele>
    <time>2020-06-14T09:11:59Z</time>
   </trkpt>
   <trkpt lat="51.1256200" lon="5.5681460">
    <ele>62.7</ele>
    <time>2020-06-14T09:12:00Z</time>
   </trkpt>
   <trkpt lat="51.1255630" lon="5.5682160">
    <ele>62.9</ele>
    <time>2020-06-14T09:12:01Z</time>
   </trkpt>
   <trkpt lat="51.1255170" lon="5.5682970">
    <ele>63.0</ele>
    <time>2020-06-14T09:12:02Z</time>
   </trkpt>
   <trkpt lat="51.1254770" lon="5.5683690">
    <ele>63.2</ele>
    <time>2020-06-14T09:12:03Z</time>
   </trkpt>
   <trkpt lat="51.1254400" lon="5.5684590">
    <ele>63.3</ele>
    <time>2020-06-14T09:12:04Z</time>
   </trkpt>
   <trkpt lat="51.1253960" lon="5.5685270">
    <ele>63.4</ele>
    <time>2020-06-14T09:12:05Z</time>
   </trkpt>
   <trkpt lat="51.1253500" lon="5.5686120">
    <ele>63.5</ele>
    <time>2020-06-14T09:12:06Z</time>
   </trkpt>
   <trkpt lat="51.1253050" lon="5.5686960">
    <ele>63.6</ele>
    <time>2020-06-14T09:12:07Z</time>
   </trkpt>
   <trkpt lat="51.1252590" lon="5.5687810">
    <ele>63.7</ele>
    <time>2020-06-14T09:12:08Z</time>
   </trkpt>
   <trkpt lat="51.1252160" lon="5.5688620">
    <ele>63.7</ele>
    <time>2020-06-14T09:12:09Z</time>
   </trkpt>
   <trkpt lat="51.1251770" lon="5.5689320">
    <ele>63.8</ele>
    <time>2020-06-14T09:12:10Z</time>
   </trkpt>
   <trkpt lat="51.1251380" lon="5.5690020">
    <ele>63.8</ele>
    <time>2020-06-14T09:12:11Z</time>
   </trkpt>
   <trkpt lat="51.1250990" lon="5.5690770">
    <ele>63.9</ele>
    <time>2020-06-14T09:12:12Z</time>
   </trkpt>
   <trkpt lat="51.1250640" lon="5.5691380">
    <ele>63.9</ele>
    <time>2020-06-14T09:12:13Z</time>
   </trkpt>
   <trkpt lat="51.1250260" lon="5.5692090">
    <ele>63.9</ele>
    <time>2020-06-14T09:12:14Z</time>
   </trkpt>
   <trkpt lat="51.1249870" lon="5.5692840">
    <ele>64.0</ele>
    <time>2020-06-14T09:12:15Z</time>
   </trkpt>
   <trkpt lat="51.1249500" lon="5.5693560">
    <ele>64.1</ele>
    <time>2020-06-14T09:12:16Z</time>
   </trkpt>
   <trkpt lat="51.1249120" lon="5.5694310">
    <ele>64.1</ele>
    <time>2020-06-14T09:12:17Z</time>
   </trkpt>
   <trkpt lat="51.1248730" lon="5.5695070">
    <ele>64.2</ele>
    <time>2020-06-14T09:12:18Z</time>
   </trkpt>
   <trkpt lat="51.1248300" lon="5.5695830">
    <ele>64.3</ele>
    <time>2020-06-14T09:12:19Z</time>
   </trkpt>
   <trkpt lat="51.1247920" lon="5.5696490">
    <ele>64.4</ele>
    <time>2020-06-14T09:12:20Z</time>
   </trkpt>
   <trkpt lat="51.1247480" lon="5.5697280">
    <ele>64.5</ele>
    <time>2020-06-14T09:12:21Z</time>
   </trkpt>
   <trkpt lat="51.1247030" lon="5.5698110">
    <ele>64.5</ele>
    <time>2020-06-14T09:12:22Z</time>
   </trkpt>
   <trkpt lat="51.1246510" lon="5.5699040">
    <ele>64.5</ele>
    <time>2020-06-14T09:12:23Z</time>
   </trkpt>
   <trkpt lat="51.1246010" lon="5.5699900">
    <ele>64.5</ele>
    <time>2020-06-14T09:12:24Z</time>
   </trkpt>
   <trkpt lat="51.1245500" lon="5.5700820">
    <ele>64.5</ele>
    <time>2020-06-14T09:12:25Z</time>
   </trkpt>
   <trkpt lat="51.1245010" lon="5.5701740">
    <ele>64.6</ele>
    <time>2020-06-14T09:12:26Z</time>
   </trkpt>
   <trkpt lat="51.1244520" lon="5.5702660">
    <ele>64.6</ele>
    <time>2020-06-14T09:12:27Z</time>
   </trkpt>
   <trkpt lat="51.1244010" lon="5.5703660">
    <ele>64.6</ele>
    <time>2020-06-14T09:12:28Z</time>
   </trkpt>
   <trkpt lat="51.1243460" lon="5.5704690">
    <ele>64.6</ele>
    <time>2020-06-14T09:12:29Z</time>
   </trkpt>
   <trkpt lat="51.1242970" lon="5.5705650">
    <ele>64.6</ele>
    <time>2020-06-14T09:12:30Z</time>
   </trkpt>
   <trkpt lat="51.1242510" lon="5.5706680">
    <ele>64.6</ele>
    <time>2020-06-14T09:12:31Z</time>
   </trkpt>
   <trkpt lat="51.1241990" lon="5.5707640">
    <ele>64.7</ele>
    <time>2020-06-14T09:12:32Z</time>
   </trkpt>
   <trkpt lat="51.1241480" lon="5.5708570">
    <ele>64.7</ele>
    <time>2020-06-14T09:12:33Z</time>
   </trkpt>
   <trkpt lat="51.1240980" lon="5.5709540">
    <ele>64.7</ele>
    <time>2020-06-14T09:12:34Z</time>
   </trkpt>
   <trkpt lat="51.1240460" lon="5.5710520">
    <ele>64.8</ele>
    <time>2020-06-14T09:12:35Z</time>
   </trkpt>
   <trkpt lat="51.1239900" lon="5.5711530">
    <ele>64.8</ele>
    <time>2020-06-14T09:12:36Z</time>
   </trkpt>
   <trkpt lat="51.1239320" lon="5.5712560">
    <ele>64.9</ele>
    <time>2020-06-14T09:12:37Z</time>
   </trkpt>
   <trkpt lat="51.1238740" lon="5.5713490">
    <ele>65.0</ele>
    <time>2020-06-14T09:12:38Z</time>
   </trkpt>
   <trkpt lat="51.1238170" lon="5.5714480">
    <ele>65.0</ele>
    <time>2020-06-14T09:12:39Z</time>
   </trkpt>
   <trkpt lat="51.1237650" lon="5.5715450">
    <ele>65.1</ele>
    <time>2020-06-14T09:12:40Z</time>
   </trkpt>
   <trkpt lat="51.1237120" lon="5.5716380">
    <ele>65.1</ele>
    <time>2020-06-14T09:12:41Z</time>
   </trkpt>
   <trkpt lat="51.1236670" lon="5.5717300">
    <ele>65.1</ele>
    <time>2020-06-14T09:12:42Z</time>
   </trkpt>
   <trkpt lat="51.1236260" lon="5.5718280">
    <ele>65.2</ele>
    <time>2020-06-14T09:12:43Z</time>
   </trkpt>
   <trkpt lat="51.1235800" lon="5.5719200">
    <ele>65.2</ele>
    <time>2020-06-14T09:12:44Z</time>
   </trkpt>
   <trkpt lat="51.1235380" lon="5.5720140">
    <ele>65.2</ele>
    <time>2020-06-14T09:12:45Z</time>
   </trkpt>
   <trkpt lat="51.1234890" lon="5.5721080">
    <ele>65.3</ele>
    <time>2020-06-14T09:12:46Z</time>
   </trkpt>
   <trkpt lat="51.1234350" lon="5.5721990">
    <ele>65.3</ele>
    <time>2020-06-14T09:12:47Z</time>
   </trkpt>
   <trkpt lat="51.1233870" lon="5.5722850">
    <ele>65.3</ele>
    <time>2020-06-14T09:12:48Z</time>
   </trkpt>
   <trkpt lat="51.1233440" lon="5.5723790">
    <ele>65.3</ele>
    <time>2020-06-14T09:12:49Z</time>
   </trkpt>
   <trkpt lat="51.1232990" lon="5.5724750">
    <ele>65.3</ele>
    <time>2020-06-14T09:12:50Z</time>
   </trkpt>
   <trkpt lat="51.1232540" lon="5.5725750">
    <ele>65.3</ele>
    <time>2020-06-14T09:12:51Z</time>
   </trkpt>
   <trkpt lat="51.1232080" lon="5.5726670">
    <ele>65.3</ele>
    <time>2020-06-14T09:12:52Z</time>
   </trkpt>
   <trkpt lat="51.1231630" lon="5.5727590">
    <ele>65.3</ele>
    <time>2020-06-14T09:12:53Z</time>
   </trkpt>
   <trkpt lat="51.1231160" lon="5.5728480">
    <ele>65.3</ele>
    <time>2020-06-14T09:12:54Z</time>
   </trkpt>
   <trkpt lat="51.1230700" lon="5.5729390">
    <ele>65.3</ele>
    <time>2020-06-14T09:12:55Z</time>
   </trkpt>
   <trkpt lat="51.1230230" lon="5.5730360">
    <ele>65.3</ele>
    <time>2020-06-14T09:12:56Z</time>
   </trkpt>
   <trkpt lat="51.1229760" lon="5.5731390">
    <ele>65.2</ele>
    <time>2020-06-14T09:12:57Z</time>
   </trkpt>
   <trkpt lat="51.1229270" lon="5.5732310">
    <ele>65.2</ele>
    <time>2020-06-14T09:12:58Z</time>
   </trkpt>
   <trkpt lat="51.1228770" lon="5.5733310">
    <ele>65.2</ele>
    <time>2020-06-14T09:12:59Z</time>
   </trkpt>
   <trkpt lat="51.1228270" lon="5.5734240">
    <ele>65.2</ele>
    <time>2020-06-14T09:13:00Z</time>
   </trkpt>
   <trkpt lat="51.1227820" lon="5.5735210">
    <ele>65.2</ele>
    <time>2020-06-14T09:13:01Z</time>
   </trkpt>
   <trkpt lat="51.1227380" lon="5.5736130">
    <ele>65.2</ele>
    <time>2020-06-14T09:13:02Z</time>
   </trkpt>
   <trkpt lat="51.1226930" lon="5.5737040">
    <ele>65.2</ele>
    <time>2020-06-14T09:13:03Z</time>
   </trkpt>
   <trkpt lat="51.1226480" lon="5.5737970">
    <ele>65.2</ele>
    <time>2020-06-14T09:13:04Z</time>
   </trkpt>
   <trkpt lat="51.1226030" lon="5.5738840">
    <ele>65.3</ele>
    <time>2020-06-14T09:13:05Z</time>
   </trkpt>
   <trkpt lat="51.1225620" lon="5.5739730">
    <ele>65.3</ele>
    <time>2020-06-14T09:13:06Z</time>
   </trkpt>
   <trkpt lat="51.1225200" lon="5.5740550">
    <ele>65.3</ele>
    <time>2020-06-14T09:13:07Z</time>
   </trkpt>
   <trkpt lat="51.1224760" lon="5.5741450">
    <ele>65.4</ele>
    <time>2020-06-14T09:13:08Z</time>
   </trkpt>
   <trkpt lat="51.1224310" lon="5.5742280">
    <ele>65.4</ele>
    <time>2020-06-14T09:13:09Z</time>
   </trkpt>
   <trkpt lat="51.1223830" lon="5.5743110">
    <ele>65.4</ele>
    <time>2020-06-14T09:13:10Z</time>
   </trkpt>
   <trkpt lat="51.1223420" lon="5.5743890">
    <ele>65.5</ele>
    <time>2020-06-14T09:13:11Z</time>
   </trkpt>
   <trkpt lat="51.1223000" lon="5.5744600">
    <ele>65.6</ele>
    <time>2020-06-14T09:13:12Z</time>
   </trkpt>
   <trkpt lat="51.1222650" lon="5.5745390">
    <ele>65.6</ele>
    <time>2020-06-14T09:13:13Z</time>
   </trkpt>
   <trkpt lat="51.1222300" lon="5.5746230">
    <ele>65.7</ele>
    <time>2020-06-14T09:13:14Z</time>
   </trkpt>
   <trkpt lat="51.1222010" lon="5.5747060">
    <ele>65.8</ele>
    <time>2020-06-14T09:13:15Z</time>
   </trkpt>
   <trkpt lat="51.1221720" lon="5.5747960">
    <ele>65.8</ele>
    <time>2020-06-14T09:13:16Z</time>
   </trkpt>
   <trkpt lat="51.1221580" lon="5.5749050">
    <ele>65.7</ele>
    <time>2020-06-14T09:13:17Z</time>
   </trkpt>
   <trkpt lat="51.1221550" lon="5.5750200">
    <ele>65.7</ele>
    <time>2020-06-14T09:13:18Z</time>
   </trkpt>
   <trkpt lat="51.1221600" lon="5.5751340">
    <ele>65.7</ele>
    <time>2020-06-14T09:13:19Z</time>
   </trkpt>
   <trkpt lat="51.1221660" lon="5.5752500">
    <ele>65.6</ele>
    <time>2020-06-14T09:13:20Z</time>
   </trkpt>
   <trkpt lat="51.1221700" lon="5.5753740">
    <ele>65.6</ele>
    <time>2020-06-14T09:13:21Z</time>
   </trkpt>
   <trkpt lat="51.1222370" lon="5.5754980">
    <ele>65.5</ele>
    <time>2020-06-14T09:13:22Z</time>
   </trkpt>
   <trkpt lat="51.1222390" lon="5.5756250">
    <ele>65.4</ele>
    <time>2020-06-14T09:13:23Z</time>
   </trkpt>
   <trkpt lat="51.1222490" lon="5.5757520">
    <ele>65.3</ele>
    <time>2020-06-14T09:13:24Z</time>
   </trkpt>
   <trkpt lat="51.1222530" lon="5.5758890">
    <ele>65.3</ele>
    <time>2020-06-14T09:13:25Z</time>
   </trkpt>
   <trkpt lat="51.1222840" lon="5.5760200">
    <ele>65.2</ele>
    <time>2020-06-14T09:13:26Z</time>
   </trkpt>
   <trkpt lat="51.1223010" lon="5.5761540">
    <ele>65.2</ele>
    <time>2020-06-14T09:13:27Z</time>
   </trkpt>
   <trkpt lat="51.1223210" lon="5.5762820">
    <ele>65.2</ele>
    <time>2020-06-14T09:13:28Z</time>
   </trkpt>
   <trkpt lat="51.1223420" lon="5.5764010">
    <ele>65.2</ele>
    <time>2020-06-14T09:13:29Z</time>
   </trkpt>
   <trkpt lat="51.1223580" lon="5.5765180">
    <ele>65.2</ele>
    <time>2020-06-14T09:13:30Z</time>
   </trkpt>
   <trkpt lat="51.1223810" lon="5.5766320">
    <ele>65.1</ele>
    <time>2020-06-14T09:13:31Z</time>
   </trkpt>
   <trkpt lat="51.1223920" lon="5.5767590">
    <ele>65.1</ele>
    <time>2020-06-14T09:13:32Z</time>
   </trkpt>
   <trkpt lat="51.1224170" lon="5.5768830">
    <ele>65.1</ele>
    <time>2020-06-14T09:13:33Z</time>
   </trkpt>
   <trkpt lat="51.1224280" lon="5.5770060">
    <ele>65.0</ele>
    <time>2020-06-14T09:13:34Z</time>
   </trkpt>
   <trkpt lat="51.1224520" lon="5.5771180">
    <ele>65.0</ele>
    <time>2020-06-14T09:13:35Z</time>
   </trkpt>
   <trkpt lat="51.1224700" lon="5.5772440">
    <ele>65.0</ele>
    <time>2020-06-14T09:13:36Z</time>
   </trkpt>
   <trkpt lat="51.1224940" lon="5.5773680">
    <ele>65.0</ele>
    <time>2020-06-14T09:13:37Z</time>
   </trkpt>
   <trkpt lat="51.1225160" lon="5.5774910">
    <ele>65.0</ele>
    <time>2020-06-14T09:13:38Z</time>
   </trkpt>
   <trkpt lat="51.1225510" lon="5.5776180">
    <ele>65.0</ele>
    <time>2020-06-14T09:13:39Z</time>
   </trkpt>
   <trkpt lat="51.1225660" lon="5.5777470">
    <ele>65.0</ele>
    <time>2020-06-14T09:13:40Z</time>
   </trkpt>
   <trkpt lat="51.1225900" lon="5.5778710">
    <ele>65.0</ele>
    <time>2020-06-14T09:13:41Z</time>
   </trkpt>
   <trkpt lat="51.1226050" lon="5.5779870">
    <ele>65.1</ele>
    <time>2020-06-14T09:13:42Z</time>
   </trkpt>
   <trkpt lat="51.1226210" lon="5.5781060">
    <ele>65.1</ele>
    <time>2020-06-14T09:13:43Z</time>
   </trkpt>
   <trkpt lat="51.1226270" lon="5.5782280">
    <ele>65.2</ele>
    <time>2020-06-14T09:13:44Z</time>
   </trkpt>
   <trkpt lat="51.1226470" lon="5.5783400">
    <ele>65.2</ele>
    <time>2020-06-14T09:13:45Z</time>
   </trkpt>
   <trkpt lat="51.1226610" lon="5.5784500">
    <ele>65.3</ele>
    <time>2020-06-14T09:13:46Z</time>
   </trkpt>
   <trkpt lat="51.1226810" lon="5.5785480">
    <ele>65.4</ele>
    <time>2020-06-14T09:13:47Z</time>
   </trkpt>
   <trkpt lat="51.1227000" lon="5.5786330">
    <ele>65.4</ele>
    <time>2020-06-14T09:13:48Z</time>
   </trkpt>
   <trkpt lat="51.1227170" lon="5.5787150">
    <ele>65.5</ele>
    <time>2020-06-14T09:13:49Z</time>
   </trkpt>
   <trkpt lat="51.1227270" lon="5.5788000">
    <ele>65.6</ele>
    <time>2020-06-14T09:13:50Z</time>
   </trkpt>
   <trkpt lat="51.1227430" lon="5.5788840">
    <ele>65.6</ele>
    <time>2020-06-14T09:13:51Z</time>
   </trkpt>
   <trkpt lat="51.1227500" lon="5.5789690">
    <ele>65.7</ele>
    <time>2020-06-14T09:13:52Z</time>
   </trkpt>
   <trkpt lat="51.1227580" lon="5.5790500">
    <ele>65.8</ele>
    <time>2020-06-14T09:13:53Z</time>
   </trkpt>
   <trkpt lat="51.1227640" lon="5.5791290">
    <ele>65.9</ele>
    <time>2020-06-14T09:13:54Z</time>
   </trkpt>
   <trkpt lat="51.1227650" lon="5.5791950">
    <ele>65.9</ele>
    <time>2020-06-14T09:13:55Z</time>
   </trkpt>
   <trkpt lat="51.1227610" lon="5.5792560">
    <ele>65.8</ele>
    <time>2020-06-14T09:13:56Z</time>
   </trkpt>
   <trkpt lat="51.1227490" lon="5.5793140">
    <ele>65.8</ele>
    <time>2020-06-14T09:13:57Z</time>
   </trkpt>
   <trkpt lat="51.1227260" lon="5.5793760">
    <ele>65.8</ele>
    <time>2020-06-14T09:13:58Z</time>
   </trkpt>
   <trkpt lat="51.1226930" lon="5.5794340">
    <ele>65.8</ele>
    <time>2020-06-14T09:13:59Z</time>
   </trkpt>
   <trkpt lat="51.1226540" lon="5.5794830">
    <ele>65.8</ele>
    <time>2020-06-14T09:14:00Z</time>
   </trkpt>
   <trkpt lat="51.1226070" lon="5.5795310">
    <ele>65.8</ele>
    <time>2020-06-14T09:14:01Z</time>
   </trkpt>
   <trkpt lat="51.1225460" lon="5.5795670">
    <ele>65.8</ele>
    <time>2020-06-14T09:14:02Z</time>
   </trkpt>
   <trkpt lat="51.1224890" lon="5.5796150">
    <ele>65.8</ele>
    <time>2020-06-14T09:14:03Z</time>
   </trkpt>
   <trkpt lat="51.1222450" lon="5.5793450">
    <ele>65.9</ele>
    <time>2020-06-14T09:14:04Z</time>
   </trkpt>
   <trkpt lat="51.1222070" lon="5.5793580">
    <ele>65.9</ele>
    <time>2020-06-14T09:14:05Z</time>
   </trkpt>
   <trkpt lat="51.1221370" lon="5.5794030">
    <ele>65.8</ele>
    <time>2020-06-14T09:14:06Z</time>
   </trkpt>
   <trkpt lat="51.1220620" lon="5.5794590">
    <ele>65.8</ele>
    <time>2020-06-14T09:14:07Z</time>
   </trkpt>
   <trkpt lat="51.1219870" lon="5.5795020">
    <ele>65.7</ele>
    <time>2020-06-14T09:14:08Z</time>
   </trkpt>
   <trkpt lat="51.1219160" lon="5.5795320">
    <ele>65.7</ele>
    <time>2020-06-14T09:14:09Z</time>
   </trkpt>
   <trkpt lat="51.1218330" lon="5.5795700">
    <ele>65.6</ele>
    <time>2020-06-14T09:14:10Z</time>
   </trkpt>
   <trkpt lat="51.1217550" lon="5.5796070">
    <ele>65.6</ele>
    <time>2020-06-14T09:14:11Z</time>
   </trkpt>
   <trkpt lat="51.1216760" lon="5.5796530">
    <ele>65.6</ele>
    <time>2020-06-14T09:14:12Z</time>
   </trkpt>
   <trkpt lat="51.1215880" lon="5.5797130">
    <ele>65.7</ele>
    <time>2020-06-14T09:14:13Z</time>
   </trkpt>
   <trkpt lat="51.1215020" lon="5.5797700">
    <ele>65.8</ele>
    <time>2020-06-14T09:14:14Z</time>
   </trkpt>
   <trkpt lat="51.1214150" lon="5.5798180">
    <ele>66.0</ele>
    <time>2020-06-14T09:14:15Z</time>
   </trkpt>
   <trkpt lat="51.1213260" lon="5.5798660">
    <ele>65.9</ele>
    <time>2020-06-14T09:14:16Z</time>
   </trkpt>
   <trkpt lat="51.1212390" lon="5.5799160">
    <ele>65.9</ele>
    <time>2020-06-14T09:14:17Z</time>
   </trkpt>
   <trkpt lat="51.1211560" lon="5.5799670">
    <ele>65.9</ele>
    <time>2020-06-14T09:14:18Z</time>
   </trkpt>
   <trkpt lat="51.1210820" lon="5.5800180">
    <ele>65.9</ele>
    <time>2020-06-14T09:14:19Z</time>
   </trkpt>
   <trkpt lat="51.1209850" lon="5.5800110">
    <ele>65.9</ele>
    <time>2020-06-14T09:14:20Z</time>
   </trkpt>
   <trkpt lat="51.1209030" lon="5.5800500">
    <ele>66.0</ele>
    <time>2020-06-14T09:14:21Z</time>
   </trkpt>
   <trkpt lat="51.1208260" lon="5.5800900">
    <ele>66.0</ele>
    <time>2020-06-14T09:14:22Z</time>
   </trkpt>
   <trkpt lat="51.1207490" lon="5.5801350">
    <ele>66.0</ele>
    <time>2020-06-14T09:14:23Z</time>
   </trkpt>
   <trkpt lat="51.1206720" lon="5.5801740">
    <ele>66.0</ele>
    <time>2020-06-14T09:14:24Z</time>
   </trkpt>
   <trkpt lat="51.1205950" lon="5.5802070">
    <ele>66.0</ele>
    <time>2020-06-14T09:14:25Z</time>
   </trkpt>
   <trkpt lat="51.1205230" lon="5.5802450">
    <ele>66.0</ele>
    <time>2020-06-14T09:14:26Z</time>
   </trkpt>
   <trkpt lat="51.1204500" lon="5.5802920">
    <ele>66.0</ele>
    <time>2020-06-14T09:14:27Z</time>
   </trkpt>
   <trkpt lat="51.1203760" lon="5.5803350">
    <ele>66.0</ele>
    <time>2020-06-14T09:14:28Z</time>
   </trkpt>
   <trkpt lat="51.1203050" lon="5.5803820">
    <ele>66.0</ele>
    <time>2020-06-14T09:14:29Z</time>
   </trkpt>
   <trkpt lat="51.1202350" lon="5.5804260">
    <ele>66.0</ele>
    <time>2020-06-14T09:14:30Z</time>
   </trkpt>
   <trkpt lat="51.1201620" lon="5.5804620">
    <ele>66.0</ele>
    <time>2020-06-14T09:14:31Z</time>
   </trkpt>
   <trkpt lat="51.1200890" lon="5.5805000">
    <ele>66.0</ele>
    <time>2020-06-14T09:14:32Z</time>
   </trkpt>
   <trkpt lat="51.1200200" lon="5.5805420">
    <ele>66.0</ele>
    <time>2020-06-14T09:14:33Z</time>
   </trkpt>
   <trkpt lat="51.1199530" lon="5.5805860">
    <ele>66.0</ele>
    <time>2020-06-14T09:14:34Z</time>
   </trkpt>
   <trkpt lat="51.1198860" lon="5.5806270">
    <ele>66.0</ele>
    <time>2020-06-14T09:14:35Z</time>
   </trkpt>
   <trkpt lat="51.1198170" lon="5.5806660">
    <ele>66.0</ele>
    <time>2020-06-14T09:14:36Z</time>
   </trkpt>
   <trkpt lat="51.1197500" lon="5.5807110">
    <ele>66.1</ele>
    <time>2020-06-14T09:14:37Z</time>
   </trkpt>
   <trkpt lat="51.1196920" lon="5.5807550">
    <ele>66.1</ele>
    <time>2020-06-14T09:14:38Z</time>
   </trkpt>
   <trkpt lat="51.1196330" lon="5.5807890">
    <ele>66.1</ele>
    <time>2020-06-14T09:14:39Z</time>
   </trkpt>
   <trkpt lat="51.1195780" lon="5.5808210">
    <ele>66.1</ele>
    <time>2020-06-14T09:14:40Z</time>
   </trkpt>
   <trkpt lat="51.1195240" lon="5.5808540">
    <ele>66.2</ele>
    <time>2020-06-14T09:14:41Z</time>
   </trkpt>
   <trkpt lat="51.1194770" lon="5.5809110">
    <ele>66.2</ele>
    <time>2020-06-14T09:14:42Z</time>
   </trkpt>
   <trkpt lat="51.1194400" lon="5.5809890">
    <ele>66.2</ele>
    <time>2020-06-14T09:14:43Z</time>
   </trkpt>
   <trkpt lat="51.1194250" lon="5.5810860">
    <ele>66.1</ele>
    <time>2020-06-14T09:14:44Z</time>
   </trkpt>
   <trkpt lat="51.1194190" lon="5.5811850">
    <ele>66.0</ele>
    <time>2020-06-14T09:14:45Z</time>
   </trkpt>
   <trkpt lat="51.1194330" lon="5.5812820">
    <ele>66.0</ele>
    <time>2020-06-14T09:14:46Z</time>
   </trkpt>
   <trkpt lat="51.1194530" lon="5.5813840">
    <ele>65.9</ele>
    <time>2020-06-14T09:14:47Z</time>
   </trkpt>
   <trkpt lat="51.1194790" lon="5.5814930">
    <ele>65.8</ele>
    <time>2020-06-14T09:14:48Z</time>
   </trkpt>
   <trkpt lat="51.1195720" lon="5.5815780">
    <ele>65.7</ele>
    <time>2020-06-14T09:14:49Z</time>
   </trkpt>
   <trkpt lat="51.1196050" lon="5.5816890">
    <ele>65.7</ele>
    <time>2020-06-14T09:14:50Z</time>
   </trkpt>
   <trkpt lat="51.1196340" lon="5.5818050">
    <ele>65.6</ele>
    <time>2020-06-14T09:14:51Z</time>
   </trkpt>
   <trkpt lat="51.1196640" lon="5.5819210">
    <ele>65.6</ele>
    <time>2020-06-14T09:14:52Z</time>
   </trkpt>
   <trkpt lat="51.1196940" lon="5.5820380">
    <ele>65.6</ele>
    <time>2020-06-14T09:14:53Z</time>
   </trkpt>
   <trkpt lat="51.1197270" lon="5.5821550">
    <ele>65.6</ele>
    <time>2020-06-14T09:14:54Z</time>
   </trkpt>
   <trkpt lat="51.1197590" lon="5.5822750">
    <ele>65.6</ele>
    <time>2020-06-14T09:14:55Z</time>
   </trkpt>
   <trkpt lat="51.1197920" lon="5.5823930">
    <ele>65.6</ele>
    <time>2020-06-14T09:14:56Z</time>
   </trkpt>
   <trkpt lat="51.1198200" lon="5.5825110">
    <ele>65.5</ele>
    <time>2020-06-14T09:14:57Z</time>
   </trkpt>
   <trkpt lat="51.1198500" lon="5.5826310">
    <ele>65.5</ele>
    <time>2020-06-14T09:14:58Z</time>
   </trkpt>
   <trkpt lat="51.1198850" lon="5.5827520">
    <ele>65.4</ele>
    <time>2020-06-14T09:14:59Z</time>
   </trkpt>
   <trkpt lat="51.1199210" lon="5.5828760">
    <ele>65.4</ele>
    <time>2020-06-14T09:15:00Z</time>
   </trkpt>
   <trkpt lat="51.1199560" lon="5.5830020">
    <ele>65.3</ele>
    <time>2020-06-14T09:15:01Z</time>
   </trkpt>
   <trkpt lat="51.1199890" lon="5.5831250">
    <ele>65.3</ele>
    <time>2020-06-14T09:15:02Z</time>
   </trkpt>
   <trkpt lat="51.1200210" lon="5.5832460">
    <ele>65.2</ele>
    <time>2020-06-14T09:15:03Z</time>
   </trkpt>
   <trkpt lat="51.1200510" lon="5.5833720">
    <ele>65.1</ele>
    <time>2020-06-14T09:15:04Z</time>
   </trkpt>
   <trkpt lat="51.1200820" lon="5.5834930">
    <ele>65.0</ele>
    <time>2020-06-14T09:15:05Z</time>
   </trkpt>
   <trkpt lat="51.1201150" lon="5.5836110">
    <ele>64.9</ele>
    <time>2020-06-14T09:15:06Z</time>
   </trkpt>
   <trkpt lat="51.1201440" lon="5.5837310">
    <ele>64.8</ele>
    <time>2020-06-14T09:15:07Z</time>
   </trkpt>
   <trkpt lat="51.1201720" lon="5.5838490">
    <ele>64.8</ele>
    <time>2020-06-14T09:15:08Z</time>
   </trkpt>
   <trkpt lat="51.1202000" lon="5.5839690">
    <ele>64.8</ele>
    <time>2020-06-14T09:15:09Z</time>
   </trkpt>
   <trkpt lat="51.1202300" lon="5.5840940">
    <ele>64.7</ele>
    <time>2020-06-14T09:15:10Z</time>
   </trkpt>
   <trkpt lat="51.1202590" lon="5.5842150">
    <ele>64.7</ele>
    <time>2020-06-14T09:15:11Z</time>
   </trkpt>
   <trkpt lat="51.1202880" lon="5.5843370">
    <ele>64.7</ele>
    <time>2020-06-14T09:15:12Z</time>
   </trkpt>
   <trkpt lat="51.1203180" lon="5.5844590">
    <ele>64.7</ele>
    <time>2020-06-14T09:15:13Z</time>
   </trkpt>
   <trkpt lat="51.1203490" lon="5.5845790">
    <ele>64.7</ele>
    <time>2020-06-14T09:15:14Z</time>
   </trkpt>
   <trkpt lat="51.1203780" lon="5.5847020">
    <ele>64.7</ele>
    <time>2020-06-14T09:15:15Z</time>
   </trkpt>
   <trkpt lat="51.1204100" lon="5.5848170">
    <ele>64.6</ele>
    <time>2020-06-14T09:15:16Z</time>
   </trkpt>
   <trkpt lat="51.1204440" lon="5.5849280">
    <ele>64.5</ele>
    <time>2020-06-14T09:15:17Z</time>
   </trkpt>
   <trkpt lat="51.1204790" lon="5.5850450">
    <ele>64.5</ele>
    <time>2020-06-14T09:15:18Z</time>
   </trkpt>
   <trkpt lat="51.1205170" lon="5.5851680">
    <ele>64.4</ele>
    <time>2020-06-14T09:15:19Z</time>
   </trkpt>
   <trkpt lat="51.1205560" lon="5.5852850">
    <ele>64.4</ele>
    <time>2020-06-14T09:15:20Z</time>
   </trkpt>
   <trkpt lat="51.1205890" lon="5.5854000">
    <ele>64.4</ele>
    <time>2020-06-14T09:15:21Z</time>
   </trkpt>
   <trkpt lat="51.1206240" lon="5.5855090">
    <ele>64.4</ele>
    <time>2020-06-14T09:15:22Z</time>
   </trkpt>
   <trkpt lat="51.1206560" lon="5.5856240">
    <ele>64.4</ele>
    <time>2020-06-14T09:15:23Z</time>
   </trkpt>
   <trkpt lat="51.1206850" lon="5.5857480">
    <ele>64.3</ele>
    <time>2020-06-14T09:15:24Z</time>
   </trkpt>
   <trkpt lat="51.1207150" lon="5.5858610">
    <ele>64.2</ele>
    <time>2020-06-14T09:15:25Z</time>
   </trkpt>
   <trkpt lat="51.1207390" lon="5.5859710">
    <ele>64.2</ele>
    <time>2020-06-14T09:15:26Z</time>
   </trkpt>
   <trkpt lat="51.1207660" lon="5.5860870">
    <ele>64.2</ele>
    <time>2020-06-14T09:15:27Z</time>
   </trkpt>
   <trkpt lat="51.1207990" lon="5.5862130">
    <ele>64.1</ele>
    <time>2020-06-14T09:15:28Z</time>
   </trkpt>
   <trkpt lat="51.1208330" lon="5.5863280">
    <ele>64.1</ele>
    <time>2020-06-14T09:15:29Z</time>
   </trkpt>
   <trkpt lat="51.1208570" lon="5.5864560">
    <ele>64.0</ele>
    <time>2020-06-14T09:15:30Z</time>
   </trkpt>
   <trkpt lat="51.1208640" lon="5.5865880">
    <ele>64.0</ele>
    <time>2020-06-14T09:15:31Z</time>
   </trkpt>
   <trkpt lat="51.1208750" lon="5.5867170">
    <ele>64.0</ele>
    <time>2020-06-14T09:15:32Z</time>
   </trkpt>
   <trkpt lat="51.1208830" lon="5.5868510">
    <ele>64.1</ele>
    <time>2020-06-14T09:15:33Z</time>
   </trkpt>
   <trkpt lat="51.1208880" lon="5.5869810">
    <ele>64.2</ele>
    <time>2020-06-14T09:15:34Z</time>
   </trkpt>
   <trkpt lat="51.1208920" lon="5.5871120">
    <ele>64.3</ele>
    <time>2020-06-14T09:15:35Z</time>
   </trkpt>
   <trkpt lat="51.1208990" lon="5.5872430">
    <ele>64.3</ele>
    <time>2020-06-14T09:15:36Z</time>
   </trkpt>
   <trkpt lat="51.1209060" lon="5.5873720">
    <ele>64.3</ele>
    <time>2020-06-14T09:15:37Z</time>
   </trkpt>
   <trkpt lat="51.1209110" lon="5.5874960">
    <ele>64.4</ele>
    <time>2020-06-14T09:15:38Z</time>
   </trkpt>
   <trkpt lat="51.1209100" lon="5.5876150">
    <ele>64.4</ele>
    <time>2020-06-14T09:15:39Z</time>
   </trkpt>
   <trkpt lat="51.1209110" lon="5.5877370">
    <ele>64.4</ele>
    <time>2020-06-14T09:15:40Z</time>
   </trkpt>
   <trkpt lat="51.1209080" lon="5.5878590">
    <ele>64.4</ele>
    <time>2020-06-14T09:15:41Z</time>
   </trkpt>
   <trkpt lat="51.1209090" lon="5.5879840">
    <ele>64.4</ele>
    <time>2020-06-14T09:15:42Z</time>
   </trkpt>
   <trkpt lat="51.1209120" lon="5.5881050">
    <ele>64.4</ele>
    <time>2020-06-14T09:15:43Z</time>
   </trkpt>
   <trkpt lat="51.1209200" lon="5.5882310">
    <ele>64.4</ele>
    <time>2020-06-14T09:15:44Z</time>
   </trkpt>
   <trkpt lat="51.1209310" lon="5.5883620">
    <ele>64.4</ele>
    <time>2020-06-14T09:15:45Z</time>
   </trkpt>
   <trkpt lat="51.1209380" lon="5.5884910">
    <ele>64.5</ele>
    <time>2020-06-14T09:15:46Z</time>
   </trkpt>
   <trkpt lat="51.1209390" lon="5.5886200">
    <ele>64.3</ele>
    <time>2020-06-14T09:15:47Z</time>
   </trkpt>
   <trkpt lat="51.1209420" lon="5.5887490">
    <ele>64.2</ele>
    <time>2020-06-14T09:15:48Z</time>
   </trkpt>
   <trkpt lat="51.1209400" lon="5.5888790">
    <ele>64.1</ele>
    <time>2020-06-14T09:15:49Z</time>
   </trkpt>
   <trkpt lat="51.1209400" lon="5.5890060">
    <ele>64.1</ele>
    <time>2020-06-14T09:15:50Z</time>
   </trkpt>
   <trkpt lat="51.1209420" lon="5.5891300">
    <ele>64.1</ele>
    <time>2020-06-14T09:15:51Z</time>
   </trkpt>
   <trkpt lat="51.1209640" lon="5.5892490">
    <ele>64.1</ele>
    <time>2020-06-14T09:15:52Z</time>
   </trkpt>
   <trkpt lat="51.1209670" lon="5.5893680">
    <ele>64.1</ele>
    <time>2020-06-14T09:15:53Z</time>
   </trkpt>
   <trkpt lat="51.1209700" lon="5.5894880">
    <ele>64.1</ele>
    <time>2020-06-14T09:15:54Z</time>
   </trkpt>
   <trkpt lat="51.1209710" lon="5.5896110">
    <ele>64.1</ele>
    <time>2020-06-14T09:15:55Z</time>
   </trkpt>
   <trkpt lat="51.1209750" lon="5.5897230">
    <ele>64.1</ele>
    <time>2020-06-14T09:15:56Z</time>
   </trkpt>
   <trkpt lat="51.1209820" lon="5.5898320">
    <ele>64.1</ele>
    <time>2020-06-14T09:15:57Z</time>
   </trkpt>
   <trkpt lat="51.1209880" lon="5.5899410">
    <ele>64.1</ele>
    <time>2020-06-14T09:15:58Z</time>
   </trkpt>
   <trkpt lat="51.1209930" lon="5.5900530">
    <ele>64.1</ele>
    <time>2020-06-14T09:15:59Z</time>
   </trkpt>
   <trkpt lat="51.1209990" lon="5.5901640">
    <ele>64.0</ele>
    <time>2020-06-14T09:16:00Z</time>
   </trkpt>
   <trkpt lat="51.1210080" lon="5.5902740">
    <ele>64.0</ele>
    <time>2020-06-14T09:16:01Z</time>
   </trkpt>
   <trkpt lat="51.1210170" lon="5.5903860">
    <ele>64.1</ele>
    <time>2020-06-14T09:16:02Z</time>
   </trkpt>
   <trkpt lat="51.1210240" lon="5.5905000">
    <ele>64.1</ele>
    <time>2020-06-14T09:16:03Z</time>
   </trkpt>
   <trkpt lat="51.1210220" lon="5.5906040">
    <ele>64.2</ele>
    <time>2020-06-14T09:16:04Z</time>
   </trkpt>
   <trkpt lat="51.1210220" lon="5.5907080">
    <ele>64.2</ele>
    <time>2020-06-14T09:16:05Z</time>
   </trkpt>
   <trkpt lat="51.1210250" lon="5.5908090">
    <ele>64.2</ele>
    <time>2020-06-14T09:16:06Z</time>
   </trkpt>
   <trkpt lat="51.1210270" lon="5.5909040">
    <ele>64.3</ele>
    <time>2020-06-14T09:16:07Z</time>
   </trkpt>
   <trkpt lat="51.1210330" lon="5.5909940">
    <ele>64.3</ele>
    <time>2020-06-14T09:16:08Z</time>
   </trkpt>
   <trkpt lat="51.1210410" lon="5.5910730">
    <ele>64.4</ele>
    <time>2020-06-14T09:16:09Z</time>
   </trkpt>
   <trkpt lat="51.1210460" lon="5.5911500">
    <ele>64.4</ele>
    <time>2020-06-14T09:16:10Z</time>
   </trkpt>
   <trkpt lat="51.1210490" lon="5.5912290">
    <ele>64.5</ele>
    <time>2020-06-14T09:16:11Z</time>
   </trkpt>
   <trkpt lat="51.1210520" lon="5.5913060">
    <ele>64.5</ele>
    <time>2020-06-14T09:16:12Z</time>
   </trkpt>
   <trkpt lat="51.1210450" lon="5.5913790">
    <ele>64.5</ele>
    <time>2020-06-14T09:16:13Z</time>
   </trkpt>
   <trkpt lat="51.1210540" lon="5.5914480">
    <ele>64.6</ele>
    <time>2020-06-14T09:16:14Z</time>
   </trkpt>
   <trkpt lat="51.1210610" lon="5.5915030">
    <ele>64.6</ele>
    <time>2020-06-14T09:16:15Z</time>
   </trkpt>
   <trkpt lat="51.1210630" lon="5.5915560">
    <ele>64.7</ele>
    <time>2020-06-14T09:16:16Z</time>
   </trkpt>
   <trkpt lat="51.1210670" lon="5.5916050">
    <ele>64.7</ele>
    <time>2020-06-14T09:16:17Z</time>
   </trkpt>
   <trkpt lat="51.1210670" lon="5.5916520">
    <ele>64.8</ele>
    <time>2020-06-14T09:16:18Z</time>
   </trkpt>
   <trkpt lat="51.1210600" lon="5.5916970">
    <ele>64.9</ele>
    <time>2020-06-14T09:16:19Z</time>
   </trkpt>
   <trkpt lat="51.1210500" lon="5.5917520">
    <ele>65.0</ele>
    <time>2020-06-14T09:16:20Z</time>
   </trkpt>
   <trkpt lat="51.1210450" lon="5.5917650">
    <ele>65.1</ele>
    <time>2020-06-14T09:16:21Z</time>
   </trkpt>
   <trkpt lat="51.1210430" lon="5.5917780">
    <ele>65.1</ele>
    <time>2020-06-14T09:16:22Z</time>
   </trkpt>
   <trkpt lat="51.1210330" lon="5.5917850">
    <ele>65.1</ele>
    <time>2020-06-14T09:16:23Z</time>
   </trkpt>
   <trkpt lat="51.1210350" lon="5.5918030">
    <ele>65.2</ele>
    <time>2020-06-14T09:16:24Z</time>
   </trkpt>
   <trkpt lat="51.1210410" lon="5.5918190">
    <ele>65.2</ele>
    <time>2020-06-14T09:16:25Z</time>
   </trkpt>
   <trkpt lat="51.1210380" lon="5.5918380">
    <ele>65.3</ele>
    <time>2020-06-14T09:16:26Z</time>
   </trkpt>
   <trkpt lat="51.1210430" lon="5.5918470">
    <ele>65.3</ele>
    <time>2020-06-14T09:16:27Z</time>
   </trkpt>
   <trkpt lat="51.1210430" lon="5.5918640">
    <ele>65.3</ele>
    <time>2020-06-14T09:16:28Z</time>
   </trkpt>
   <trkpt lat="51.1210450" lon="5.5918750">
    <ele>65.3</ele>
    <time>2020-06-14T09:16:29Z</time>
   </trkpt>
   <trkpt lat="51.1210430" lon="5.5918850">
    <ele>65.4</ele>
    <time>2020-06-14T09:16:30Z</time>
   </trkpt>
   <trkpt lat="51.1210420" lon="5.5918910">
    <ele>65.4</ele>
    <time>2020-06-14T09:16:31Z</time>
   </trkpt>
   <trkpt lat="51.1210410" lon="5.5918900">
    <ele>65.4</ele>
    <time>2020-06-14T09:16:32Z</time>
   </trkpt>
   <trkpt lat="51.1210390" lon="5.5918960">
    <ele>65.4</ele>
    <time>2020-06-14T09:16:33Z</time>
   </trkpt>
   <trkpt lat="51.1210380" lon="5.5919090">
    <ele>65.4</ele>
    <time>2020-06-14T09:16:34Z</time>
   </trkpt>
   <trkpt lat="51.1210370" lon="5.5919300">
    <ele>65.5</ele>
    <time>2020-06-14T09:16:35Z</time>
   </trkpt>
   <trkpt lat="51.1210420" lon="5.5919470">
    <ele>65.5</ele>
    <time>2020-06-14T09:16:36Z</time>
   </trkpt>
   <trkpt lat="51.1210450" lon="5.5919620">
    <ele>65.8</ele>
    <time>2020-06-14T09:16:37Z</time>
   </trkpt>
   <trkpt lat="51.1210550" lon="5.5920150">
    <ele>65.8</ele>
    <time>2020-06-14T09:16:38Z</time>
   </trkpt>
   <trkpt lat="51.1210580" lon="5.5920370">
    <ele>65.8</ele>
    <time>2020-06-14T09:16:39Z</time>
   </trkpt>
   <trkpt lat="51.1210660" lon="5.5920780">
    <ele>65.8</ele>
    <time>2020-06-14T09:16:40Z</time>
   </trkpt>
   <trkpt lat="51.1210760" lon="5.5921450">
    <ele>65.6</ele>
    <time>2020-06-14T09:16:41Z</time>
   </trkpt>
   <trkpt lat="51.1210780" lon="5.5921730">
    <ele>65.6</ele>
    <time>2020-06-14T09:16:42Z</time>
   </trkpt>
   <trkpt lat="51.1210870" lon="5.5922420">
    <ele>65.4</ele>
    <time>2020-06-14T09:16:43Z</time>
   </trkpt>
   <trkpt lat="51.1210850" lon="5.5923130">
    <ele>65.3</ele>
    <time>2020-06-14T09:16:44Z</time>
   </trkpt>
   <trkpt lat="51.1210780" lon="5.5923880">
    <ele>65.2</ele>
    <time>2020-06-14T09:16:45Z</time>
   </trkpt>
   <trkpt lat="51.1210690" lon="5.5924690">
    <ele>65.0</ele>
    <time>2020-06-14T09:16:46Z</time>
   </trkpt>
   <trkpt lat="51.1210180" lon="5.5925650">
    <ele>64.9</ele>
    <time>2020-06-14T09:16:47Z</time>
   </trkpt>
   <trkpt lat="51.1210160" lon="5.5926620">
    <ele>64.8</ele>
    <time>2020-06-14T09:16:48Z</time>
   </trkpt>
   <trkpt lat="51.1210110" lon="5.5927650">
    <ele>64.7</ele>
    <time>2020-06-14T09:16:49Z</time>
   </trkpt>
   <trkpt lat="51.1210120" lon="5.5928710">
    <ele>64.6</ele>
    <time>2020-06-14T09:16:50Z</time>
   </trkpt>
   <trkpt lat="51.1210120" lon="5.5929820">
    <ele>64.5</ele>
    <time>2020-06-14T09:16:51Z</time>
   </trkpt>
   <trkpt lat="51.1210080" lon="5.5931040">
    <ele>64.4</ele>
    <time>2020-06-14T09:16:52Z</time>
   </trkpt>
   <trkpt lat="51.1210060" lon="5.5932310">
    <ele>64.4</ele>
    <time>2020-06-14T09:16:53Z</time>
   </trkpt>
   <trkpt lat="51.1210180" lon="5.5933570">
    <ele>64.3</ele>
    <time>2020-06-14T09:16:54Z</time>
   </trkpt>
   <trkpt lat="51.1210290" lon="5.5934820">
    <ele>64.3</ele>
    <time>2020-06-14T09:16:55Z</time>
   </trkpt>
   <trkpt lat="51.1210430" lon="5.5936120">
    <ele>64.2</ele>
    <time>2020-06-14T09:16:56Z</time>
   </trkpt>
   <trkpt lat="51.1210650" lon="5.5937310">
    <ele>64.2</ele>
    <time>2020-06-14T09:16:57Z</time>
   </trkpt>
   <trkpt lat="51.1210840" lon="5.5938470">
    <ele>64.2</ele>
    <time>2020-06-14T09:16:58Z</time>
   </trkpt>
   <trkpt lat="51.1211000" lon="5.5939690">
    <ele>64.2</ele>
    <time>2020-06-14T09:16:59Z</time>
   </trkpt>
   <trkpt lat="51.1211210" lon="5.5940960">
    <ele>64.2</ele>
    <time>2020-06-14T09:17:00Z</time>
   </trkpt>
   <trkpt lat="51.1211470" lon="5.5942070">
    <ele>64.3</ele>
    <time>2020-06-14T09:17:01Z</time>
   </trkpt>
   <trkpt lat="51.1211680" lon="5.5943180">
    <ele>64.3</ele>
    <time>2020-06-14T09:17:02Z</time>
   </trkpt>
   <trkpt lat="51.1211920" lon="5.5944320">
    <ele>64.3</ele>
    <time>2020-06-14T09:17:03Z</time>
   </trkpt>
   <trkpt lat="51.1212480" lon="5.5945460">
    <ele>64.3</ele>
    <time>2020-06-14T09:17:04Z</time>
   </trkpt>
   <trkpt lat="51.1212800" lon="5.5946660">
    <ele>64.3</ele>
    <time>2020-06-14T09:17:05Z</time>
   </trkpt>
   <trkpt lat="51.1213140" lon="5.5947920">
    <ele>64.3</ele>
    <time>2020-06-14T09:17:06Z</time>
   </trkpt>
   <trkpt lat="51.1213480" lon="5.5949180">
    <ele>64.2</ele>
    <time>2020-06-14T09:17:07Z</time>
   </trkpt>
   <trkpt lat="51.1213790" lon="5.5950500">
    <ele>64.1</ele>
    <time>2020-06-14T09:17:08Z</time>
   </trkpt>
   <trkpt lat="51.1214030" lon="5.5951860">
    <ele>64.0</ele>
    <time>2020-06-14T09:17:09Z</time>
   </trkpt>
   <trkpt lat="51.1214440" lon="5.5953120">
    <ele>63.9</ele>
    <time>2020-06-14T09:17:10Z</time>
   </trkpt>
   <trkpt lat="51.1214730" lon="5.5954300">
    <ele>63.9</ele>
    <time>2020-06-14T09:17:11Z</time>
   </trkpt>
   <trkpt lat="51.1215000" lon="5.5955530">
    <ele>63.8</ele>
    <time>2020-06-14T09:17:12Z</time>
   </trkpt>
   <trkpt lat="51.1215260" lon="5.5956770">
    <ele>63.7</ele>
    <time>2020-06-14T09:17:13Z</time>
   </trkpt>
   <trkpt lat="51.1215460" lon="5.5957920">
    <ele>63.6</ele>
    <time>2020-06-14T09:17:14Z</time>
   </trkpt>
   <trkpt lat="51.1215700" lon="5.5959080">
    <ele>63.6</ele>
    <time>2020-06-14T09:17:15Z</time>
   </trkpt>
   <trkpt lat="51.1215940" lon="5.5960220">
    <ele>63.5</ele>
    <time>2020-06-14T09:17:16Z</time>
   </trkpt>
   <trkpt lat="51.1216180" lon="5.5961390">
    <ele>63.5</ele>
    <time>2020-06-14T09:17:17Z</time>
   </trkpt>
   <trkpt lat="51.1216400" lon="5.5962520">
    <ele>63.4</ele>
    <time>2020-06-14T09:17:18Z</time>
   </trkpt>
   <trkpt lat="51.1216750" lon="5.5963660">
    <ele>63.4</ele>
    <time>2020-06-14T09:17:19Z</time>
   </trkpt>
   <trkpt lat="51.1217140" lon="5.5964800">
    <ele>63.3</ele>
    <time>2020-06-14T09:17:20Z</time>
   </trkpt>
   <trkpt lat="51.1217420" lon="5.5965840">
    <ele>63.3</ele>
    <time>2020-06-14T09:17:21Z</time>
   </trkpt>
   <trkpt lat="51.1217710" lon="5.5966830">
    <ele>63.2</ele>
    <time>2020-06-14T09:17:22Z</time>
   </trkpt>
   <trkpt lat="51.1217990" lon="5.5967750">
    <ele>63.2</ele>
    <time>2020-06-14T09:17:23Z</time>
   </trkpt>
   <trkpt lat="51.1218320" lon="5.5968720">
    <ele>63.1</ele>
    <time>2020-06-14T09:17:24Z</time>
   </trkpt>
   <trkpt lat="51.1218400" lon="5.5969680">
    <ele>63.0</ele>
    <time>2020-06-14T09:17:25Z</time>
   </trkpt>
   <trkpt lat="51.1218660" lon="5.5970660">
    <ele>62.9</ele>
    <time>2020-06-14T09:17:26Z</time>
   </trkpt>
   <trkpt lat="51.1218980" lon="5.5971700">
    <ele>62.8</ele>
    <time>2020-06-14T09:17:27Z</time>
   </trkpt>
   <trkpt lat="51.1219380" lon="5.5972780">
    <ele>62.7</ele>
    <time>2020-06-14T09:17:28Z</time>
   </trkpt>
   <trkpt lat="51.1219770" lon="5.5973840">
    <ele>62.6</ele>
    <time>2020-06-14T09:17:29Z</time>
   </trkpt>
   <trkpt lat="51.1220160" lon="5.5974900">
    <ele>62.5</ele>
    <time>2020-06-14T09:17:30Z</time>
   </trkpt>
   <trkpt lat="51.1220540" lon="5.5975940">
    <ele>62.5</ele>
    <time>2020-06-14T09:17:31Z</time>
   </trkpt>
   <trkpt lat="51.1220950" lon="5.5977050">
    <ele>62.5</ele>
    <time>2020-06-14T09:17:32Z</time>
   </trkpt>
   <trkpt lat="51.1221340" lon="5.5978100">
    <ele>62.5</ele>
    <time>2020-06-14T09:17:33Z</time>
   </trkpt>
   <trkpt lat="51.1221770" lon="5.5979210">
    <ele>62.5</ele>
    <time>2020-06-14T09:17:34Z</time>
   </trkpt>
   <trkpt lat="51.1222120" lon="5.5980410">
    <ele>62.5</ele>
    <time>2020-06-14T09:17:35Z</time>
   </trkpt>
   <trkpt lat="51.1222460" lon="5.5981680">
    <ele>62.5</ele>
    <time>2020-06-14T09:17:36Z</time>
   </trkpt>
   <trkpt lat="51.1222640" lon="5.5983100">
    <ele>62.4</ele>
    <time>2020-06-14T09:17:37Z</time>
   </trkpt>
   <trkpt lat="51.1222740" lon="5.5984380">
    <ele>62.4</ele>
    <time>2020-06-14T09:17:38Z</time>
   </trkpt>
   <trkpt lat="51.1222720" lon="5.5985510">
    <ele>62.5</ele>
    <time>2020-06-14T09:17:39Z</time>
   </trkpt>
   <trkpt lat="51.1222630" lon="5.5986690">
    <ele>62.6</ele>
    <time>2020-06-14T09:17:40Z</time>
   </trkpt>
   <trkpt lat="51.1222180" lon="5.5987710">
    <ele>62.7</ele>
    <time>2020-06-14T09:17:41Z</time>
   </trkpt>
   <trkpt lat="51.1221630" lon="5.5988780">
    <ele>62.8</ele>
    <time>2020-06-14T09:17:42Z</time>
   </trkpt>
   <trkpt lat="51.1221120" lon="5.5989720">
    <ele>62.9</ele>
    <time>2020-06-14T09:17:43Z</time>
   </trkpt>
   <trkpt lat="51.1220550" lon="5.5990650">
    <ele>63.0</ele>
    <time>2020-06-14T09:17:44Z</time>
   </trkpt>
   <trkpt lat="51.1219960" lon="5.5991640">
    <ele>63.1</ele>
    <time>2020-06-14T09:17:45Z</time>
   </trkpt>
   <trkpt lat="51.1218700" lon="5.5991970">
    <ele>63.3</ele>
    <time>2020-06-14T09:17:46Z</time>
   </trkpt>
   <trkpt lat="51.1217950" lon="5.5992780">
    <ele>63.4</ele>
    <time>2020-06-14T09:17:47Z</time>
   </trkpt>
   <trkpt lat="51.1217340" lon="5.5993750">
    <ele>63.4</ele>
    <time>2020-06-14T09:17:48Z</time>
   </trkpt>
   <trkpt lat="51.1216790" lon="5.5994730">
    <ele>63.5</ele>
    <time>2020-06-14T09:17:49Z</time>
   </trkpt>
   <trkpt lat="51.1216280" lon="5.5995710">
    <ele>63.5</ele>
    <time>2020-06-14T09:17:50Z</time>
   </trkpt>
   <trkpt lat="51.1215790" lon="5.5996690">
    <ele>63.6</ele>
    <time>2020-06-14T09:17:51Z</time>
   </trkpt>
   <trkpt lat="51.1215290" lon="5.5997710">
    <ele>63.6</ele>
    <time>2020-06-14T09:17:52Z</time>
   </trkpt>
   <trkpt lat="51.1214800" lon="5.5998750">
    <ele>63.7</ele>
    <time>2020-06-14T09:17:53Z</time>
   </trkpt>
   <trkpt lat="51.1214350" lon="5.5999750">
    <ele>63.8</ele>
    <time>2020-06-14T09:17:54Z</time>
   </trkpt>
   <trkpt lat="51.1213880" lon="5.6000780">
    <ele>63.9</ele>
    <time>2020-06-14T09:17:55Z</time>
   </trkpt>
   <trkpt lat="51.1213440" lon="5.6001860">
    <ele>64.0</ele>
    <time>2020-06-14T09:17:56Z</time>
   </trkpt>
   <trkpt lat="51.1213040" lon="5.6002980">
    <ele>64.1</ele>
    <time>2020-06-14T09:17:57Z</time>
   </trkpt>
   <trkpt lat="51.1212670" lon="5.6004000">
    <ele>64.2</ele>
    <time>2020-06-14T09:17:58Z</time>
   </trkpt>
   <trkpt lat="51.1212270" lon="5.6005020">
    <ele>64.3</ele>
    <time>2020-06-14T09:17:59Z</time>
   </trkpt>
   <trkpt lat="51.1211820" lon="5.6006030">
    <ele>64.1</ele>
    <time>2020-06-14T09:18:00Z</time>
   </trkpt>
   <trkpt lat="51.1211370" lon="5.6007020">
    <ele>64.0</ele>
    <time>2020-06-14T09:18:01Z</time>
   </trkpt>
   <trkpt lat="51.1210960" lon="5.6008050">
    <ele>63.9</ele>
    <time>2020-06-14T09:18:02Z</time>
   </trkpt>
   <trkpt lat="51.1210580" lon="5.6009160">
    <ele>63.8</ele>
    <time>2020-06-14T09:18:03Z</time>
   </trkpt>
   <trkpt lat="51.1210270" lon="5.6010250">
    <ele>63.7</ele>
    <time>2020-06-14T09:18:04Z</time>
   </trkpt>
   <trkpt lat="51.1209900" lon="5.6011240">
    <ele>63.7</ele>
    <time>2020-06-14T09:18:05Z</time>
   </trkpt>
   <trkpt lat="51.1209550" lon="5.6012250">
    <ele>63.6</ele>
    <time>2020-06-14T09:18:06Z</time>
   </trkpt>
   <trkpt lat="51.1209120" lon="5.6013300">
    <ele>63.6</ele>
    <time>2020-06-14T09:18:07Z</time>
   </trkpt>
   <trkpt lat="51.1208670" lon="5.6014380">
    <ele>63.5</ele>
    <time>2020-06-14T09:18:08Z</time>
   </trkpt>
   <trkpt lat="51.1208200" lon="5.6015460">
    <ele>63.5</ele>
    <time>2020-06-14T09:18:09Z</time>
   </trkpt>
   <trkpt lat="51.1207740" lon="5.6016590">
    <ele>63.4</ele>
    <time>2020-06-14T09:18:10Z</time>
   </trkpt>
   <trkpt lat="51.1207270" lon="5.6017590">
    <ele>63.4</ele>
    <time>2020-06-14T09:18:11Z</time>
   </trkpt>
   <trkpt lat="51.1206850" lon="5.6018570">
    <ele>63.3</ele>
    <time>2020-06-14T09:18:12Z</time>
   </trkpt>
   <trkpt lat="51.1206400" lon="5.6019540">
    <ele>63.3</ele>
    <time>2020-06-14T09:18:13Z</time>
   </trkpt>
   <trkpt lat="51.1205960" lon="5.6020530">
    <ele>63.3</ele>
    <time>2020-06-14T09:18:14Z</time>
   </trkpt>
   <trkpt lat="51.1205560" lon="5.6021570">
    <ele>63.2</ele>
    <time>2020-06-14T09:18:15Z</time>
   </trkpt>
   <trkpt lat="51.1205180" lon="5.6022590">
    <ele>63.2</ele>
    <time>2020-06-14T09:18:16Z</time>
   </trkpt>
   <trkpt lat="51.1204800" lon="5.6023580">
    <ele>63.1</ele>
    <time>2020-06-14T09:18:17Z</time>
   </trkpt>
   <trkpt lat="51.1204380" lon="5.6024630">
    <ele>63.1</ele>
    <time>2020-06-14T09:18:18Z</time>
   </trkpt>
   <trkpt lat="51.1204000" lon="5.6025780">
    <ele>63.0</ele>
    <time>2020-06-14T09:18:19Z</time>
   </trkpt>
   <trkpt lat="51.1203620" lon="5.6026910">
    <ele>63.0</ele>
    <time>2020-06-14T09:18:20Z</time>
   </trkpt>
   <trkpt lat="51.1203210" lon="5.6028020">
    <ele>62.9</ele>
    <time>2020-06-14T09:18:21Z</time>
   </trkpt>
   <trkpt lat="51.1202830" lon="5.6029130">
    <ele>62.9</ele>
    <time>2020-06-14T09:18:22Z</time>
   </trkpt>
   <trkpt lat="51.1202490" lon="5.6030210">
    <ele>62.9</ele>
    <time>2020-06-14T09:18:23Z</time>
   </trkpt>
   <trkpt lat="51.1202150" lon="5.6031350">
    <ele>62.8</ele>
    <time>2020-06-14T09:18:24Z</time>
   </trkpt>
   <trkpt lat="51.1201850" lon="5.6032520">
    <ele>62.7</ele>
    <time>2020-06-14T09:18:25Z</time>
   </trkpt>
   <trkpt lat="51.1201530" lon="5.6033670">
    <ele>62.6</ele>
    <time>2020-06-14T09:18:26Z</time>
   </trkpt>
   <trkpt lat="51.1201210" lon="5.6034820">
    <ele>62.6</ele>
    <time>2020-06-14T09:18:27Z</time>
   </trkpt>
   <trkpt lat="51.1200910" lon="5.6035940">
    <ele>62.5</ele>
    <time>2020-06-14T09:18:28Z</time>
   </trkpt>
   <trkpt lat="51.1200430" lon="5.6037010">
    <ele>62.4</ele>
    <time>2020-06-14T09:18:29Z</time>
   </trkpt>
   <trkpt lat="51.1200040" lon="5.6038100">
    <ele>62.4</ele>
    <time>2020-06-14T09:18:30Z</time>
   </trkpt>
   <trkpt lat="51.1199680" lon="5.6039150">
    <ele>62.4</ele>
    <time>2020-06-14T09:18:31Z</time>
   </trkpt>
   <trkpt lat="51.1199390" lon="5.6040240">
    <ele>62.4</ele>
    <time>2020-06-14T09:18:32Z</time>
   </trkpt>
   <trkpt lat="51.1199120" lon="5.6041400">
    <ele>62.3</ele>
    <time>2020-06-14T09:18:33Z</time>
   </trkpt>
   <trkpt lat="51.1198870" lon="5.6042570">
    <ele>62.3</ele>
    <time>2020-06-14T09:18:34Z</time>
   </trkpt>
   <trkpt lat="51.1198530" lon="5.6043640">
    <ele>62.2</ele>
    <time>2020-06-14T09:18:35Z</time>
   </trkpt>
   <trkpt lat="51.1198180" lon="5.6044650">
    <ele>62.1</ele>
    <time>2020-06-14T09:18:36Z</time>
   </trkpt>
   <trkpt lat="51.1197790" lon="5.6045610">
    <ele>62.0</ele>
    <time>2020-06-14T09:18:37Z</time>
   </trkpt>
   <trkpt lat="51.1197390" lon="5.6046600">
    <ele>61.9</ele>
    <time>2020-06-14T09:18:38Z</time>
   </trkpt>
   <trkpt lat="51.1197010" lon="5.6047580">
    <ele>61.9</ele>
    <time>2020-06-14T09:18:39Z</time>
   </trkpt>
   <trkpt lat="51.1196490" lon="5.6048360">
    <ele>61.8</ele>
    <time>2020-06-14T09:18:40Z</time>
   </trkpt>
   <trkpt lat="51.1196100" lon="5.6049300">
    <ele>61.8</ele>
    <time>2020-06-14T09:18:41Z</time>
   </trkpt>
   <trkpt lat="51.1195650" lon="5.6050240">
    <ele>61.7</ele>
    <time>2020-06-14T09:18:42Z</time>
   </trkpt>
   <trkpt lat="51.1195130" lon="5.6051140">
    <ele>61.7</ele>
    <time>2020-06-14T09:18:43Z</time>
   </trkpt>
   <trkpt lat="51.1194670" lon="5.6052050">
    <ele>61.7</ele>
    <time>2020-06-14T09:18:44Z</time>
   </trkpt>
   <trkpt lat="51.1194180" lon="5.6052940">
    <ele>61.7</ele>
    <time>2020-06-14T09:18:45Z</time>
   </trkpt>
   <trkpt lat="51.1193600" lon="5.6053850">
    <ele>61.7</ele>
    <time>2020-06-14T09:18:46Z</time>
   </trkpt>
   <trkpt lat="51.1193000" lon="5.6054800">
    <ele>61.5</ele>
    <time>2020-06-14T09:18:47Z</time>
   </trkpt>
   <trkpt lat="51.1192380" lon="5.6055650">
    <ele>61.4</ele>
    <time>2020-06-14T09:18:48Z</time>
   </trkpt>
   <trkpt lat="51.1191040" lon="5.6057120">
    <ele>61.2</ele>
    <time>2020-06-14T09:18:49Z</time>
   </trkpt>
   <trkpt lat="51.1190450" lon="5.6058090">
    <ele>61.2</ele>
    <time>2020-06-14T09:18:50Z</time>
   </trkpt>
   <trkpt lat="51.1189840" lon="5.6058940">
    <ele>61.2</ele>
    <time>2020-06-14T09:18:51Z</time>
   </trkpt>
   <trkpt lat="51.1189210" lon="5.6059790">
    <ele>61.1</ele>
    <time>2020-06-14T09:18:52Z</time>
   </trkpt>
   <trkpt lat="51.1188490" lon="5.6060410">
    <ele>61.1</ele>
    <time>2020-06-14T09:18:53Z</time>
   </trkpt>
   <trkpt lat="51.1187760" lon="5.6061050">
    <ele>61.0</ele>
    <time>2020-06-14T09:18:54Z</time>
   </trkpt>
   <trkpt lat="51.1187060" lon="5.6061740">
    <ele>61.0</ele>
    <time>2020-06-14T09:18:55Z</time>
   </trkpt>
   <trkpt lat="51.1186320" lon="5.6062270">
    <ele>60.9</ele>
    <time>2020-06-14T09:18:56Z</time>
   </trkpt>
   <trkpt lat="51.1185640" lon="5.6062930">
    <ele>60.8</ele>
    <time>2020-06-14T09:18:57Z</time>
   </trkpt>
   <trkpt lat="51.1184930" lon="5.6063580">
    <ele>60.8</ele>
    <time>2020-06-14T09:18:58Z</time>
   </trkpt>
   <trkpt lat="51.1184220" lon="5.6064170">
    <ele>60.8</ele>
    <time>2020-06-14T09:18:59Z</time>
   </trkpt>
   <trkpt lat="51.1183480" lon="5.6064700">
    <ele>60.7</ele>
    <time>2020-06-14T09:19:00Z</time>
   </trkpt>
   <trkpt lat="51.1182740" lon="5.6065220">
    <ele>60.7</ele>
    <time>2020-06-14T09:19:01Z</time>
   </trkpt>
   <trkpt lat="51.1182010" lon="5.6065710">
    <ele>60.7</ele>
    <time>2020-06-14T09:19:02Z</time>
   </trkpt>
   <trkpt lat="51.1181260" lon="5.6066220">
    <ele>60.4</ele>
    <time>2020-06-14T09:19:03Z</time>
   </trkpt>
   <trkpt lat="51.1180520" lon="5.6066810">
    <ele>60.2</ele>
    <time>2020-06-14T09:19:04Z</time>
   </trkpt>
   <trkpt lat="51.1179800" lon="5.6067380">
    <ele>60.1</ele>
    <time>2020-06-14T09:19:05Z</time>
   </trkpt>
   <trkpt lat="51.1179070" lon="5.6067890">
    <ele>59.9</ele>
    <time>2020-06-14T09:19:06Z</time>
   </trkpt>
   <trkpt lat="51.1178320" lon="5.6068410">
    <ele>59.8</ele>
    <time>2020-06-14T09:19:07Z</time>
   </trkpt>
   <trkpt lat="51.1177580" lon="5.6069000">
    <ele>59.6</ele>
    <time>2020-06-14T09:19:08Z</time>
   </trkpt>
   <trkpt lat="51.1176850" lon="5.6069490">
    <ele>59.5</ele>
    <time>2020-06-14T09:19:09Z</time>
   </trkpt>
   <trkpt lat="51.1176110" lon="5.6070010">
    <ele>59.4</ele>
    <time>2020-06-14T09:19:10Z</time>
   </trkpt>
   <trkpt lat="51.1175370" lon="5.6070570">
    <ele>59.3</ele>
    <time>2020-06-14T09:19:11Z</time>
   </trkpt>
   <trkpt lat="51.1174620" lon="5.6071160">
    <ele>59.1</ele>
    <time>2020-06-14T09:19:12Z</time>
   </trkpt>
   <trkpt lat="51.1173850" lon="5.6071780">
    <ele>59.1</ele>
    <time>2020-06-14T09:19:13Z</time>
   </trkpt>
   <trkpt lat="51.1173120" lon="5.6072580">
    <ele>59.0</ele>
    <time>2020-06-14T09:19:14Z</time>
   </trkpt>
   <trkpt lat="51.1172420" lon="5.6073440">
    <ele>58.9</ele>
    <time>2020-06-14T09:19:15Z</time>
   </trkpt>
   <trkpt lat="51.1171690" lon="5.6074220">
    <ele>58.8</ele>
    <time>2020-06-14T09:19:16Z</time>
   </trkpt>
   <trkpt lat="51.1170970" lon="5.6075110">
    <ele>58.6</ele>
    <time>2020-06-14T09:19:17Z</time>
   </trkpt>
   <trkpt lat="51.1170270" lon="5.6076040">
    <ele>58.5</ele>
    <time>2020-06-14T09:19:18Z</time>
   </trkpt>
   <trkpt lat="51.1169510" lon="5.6076830">
    <ele>58.4</ele>
    <time>2020-06-14T09:19:19Z</time>
   </trkpt>
   <trkpt lat="51.1168760" lon="5.6077580">
    <ele>58.3</ele>
    <time>2020-06-14T09:19:20Z</time>
   </trkpt>
   <trkpt lat="51.1168070" lon="5.6078340">
    <ele>58.2</ele>
    <time>2020-06-14T09:19:21Z</time>
   </trkpt>
   <trkpt lat="51.1167380" lon="5.6079050">
    <ele>58.2</ele>
    <time>2020-06-14T09:19:22Z</time>
   </trkpt>
   <trkpt lat="51.1166700" lon="5.6079670">
    <ele>58.2</ele>
    <time>2020-06-14T09:19:23Z</time>
   </trkpt>
   <trkpt lat="51.1165990" lon="5.6080320">
    <ele>58.1</ele>
    <time>2020-06-14T09:19:24Z</time>
   </trkpt>
   <trkpt lat="51.1165290" lon="5.6080890">
    <ele>57.9</ele>
    <time>2020-06-14T09:19:25Z</time>
   </trkpt>
   <trkpt lat="51.1164570" lon="5.6081410">
    <ele>57.8</ele>
    <time>2020-06-14T09:19:26Z</time>
   </trkpt>
   <trkpt lat="51.1163850" lon="5.6081980">
    <ele>57.6</ele>
    <time>2020-06-14T09:19:27Z</time>
   </trkpt>
   <trkpt lat="51.1163140" lon="5.6082500">
    <ele>57.5</ele>
    <time>2020-06-14T09:19:28Z</time>
   </trkpt>
   <trkpt lat="51.1162430" lon="5.6082940">
    <ele>57.4</ele>
    <time>2020-06-14T09:19:29Z</time>
   </trkpt>
   <trkpt lat="51.1161790" lon="5.6083360">
    <ele>57.4</ele>
    <time>2020-06-14T09:19:30Z</time>
   </trkpt>
   <trkpt lat="51.1161180" lon="5.6083770">
    <ele>57.3</ele>
    <time>2020-06-14T09:19:31Z</time>
   </trkpt>
   <trkpt lat="51.1160600" lon="5.6084200">
    <ele>57.3</ele>
    <time>2020-06-14T09:19:32Z</time>
   </trkpt>
   <trkpt lat="51.1160060" lon="5.6084490">
    <ele>57.4</ele>
    <time>2020-06-14T09:19:33Z</time>
   </trkpt>
   <trkpt lat="51.1159540" lon="5.6084900">
    <ele>57.4</ele>
    <time>2020-06-14T09:19:34Z</time>
   </trkpt>
   <trkpt lat="51.1159080" lon="5.6085490">
    <ele>57.4</ele>
    <time>2020-06-14T09:19:35Z</time>
   </trkpt>
   <trkpt lat="51.1158730" lon="5.6086270">
    <ele>57.4</ele>
    <time>2020-06-14T09:19:36Z</time>
   </trkpt>
   <trkpt lat="51.1158480" lon="5.6087190">
    <ele>57.2</ele>
    <time>2020-06-14T09:19:37Z</time>
   </trkpt>
   <trkpt lat="51.1158240" lon="5.6088100">
    <ele>57.1</ele>
    <time>2020-06-14T09:19:38Z</time>
   </trkpt>
   <trkpt lat="51.1158010" lon="5.6089170">
    <ele>57.1</ele>
    <time>2020-06-14T09:19:39Z</time>
   </trkpt>
   <trkpt lat="51.1157980" lon="5.6090350">
    <ele>57.1</ele>
    <time>2020-06-14T09:19:40Z</time>
   </trkpt>
   <trkpt lat="51.1158000" lon="5.6091600">
    <ele>57.1</ele>
    <time>2020-06-14T09:19:41Z</time>
   </trkpt>
   <trkpt lat="51.1158030" lon="5.6092920">
    <ele>57.1</ele>
    <time>2020-06-14T09:19:42Z</time>
   </trkpt>
   <trkpt lat="51.1158090" lon="5.6094260">
    <ele>57.2</ele>
    <time>2020-06-14T09:19:43Z</time>
   </trkpt>
   <trkpt lat="51.1158120" lon="5.6095680">
    <ele>57.2</ele>
    <time>2020-06-14T09:19:44Z</time>
   </trkpt>
   <trkpt lat="51.1158360" lon="5.6097000">
    <ele>57.1</ele>
    <time>2020-06-14T09:19:45Z</time>
   </trkpt>
   <trkpt lat="51.1158650" lon="5.6098290">
    <ele>57.1</ele>
    <time>2020-06-14T09:19:46Z</time>
   </trkpt>
   <trkpt lat="51.1158960" lon="5.6099520">
    <ele>57.1</ele>
    <time>2020-06-14T09:19:47Z</time>
   </trkpt>
   <trkpt lat="51.1160460" lon="5.6100090">
    <ele>57.2</ele>
    <time>2020-06-14T09:19:48Z</time>
   </trkpt>
   <trkpt lat="51.1160780" lon="5.6101330">
    <ele>57.2</ele>
    <time>2020-06-14T09:19:49Z</time>
   </trkpt>
   <trkpt lat="51.1161100" lon="5.6102610">
    <ele>57.3</ele>
    <time>2020-06-14T09:19:50Z</time>
   </trkpt>
   <trkpt lat="51.1161420" lon="5.6103830">
    <ele>57.3</ele>
    <time>2020-06-14T09:19:51Z</time>
   </trkpt>
   <trkpt lat="51.1161740" lon="5.6105020">
    <ele>57.4</ele>
    <time>2020-06-14T09:19:52Z</time>
   </trkpt>
   <trkpt lat="51.1162070" lon="5.6106190">
    <ele>57.6</ele>
    <time>2020-06-14T09:19:53Z</time>
   </trkpt>
   <trkpt lat="51.1162370" lon="5.6107400">
    <ele>57.8</ele>
    <time>2020-06-14T09:19:54Z</time>
   </trkpt>
   <trkpt lat="51.1162670" lon="5.6108620">
    <ele>58.2</ele>
    <time>2020-06-14T09:19:55Z</time>
   </trkpt>
   <trkpt lat="51.1162970" lon="5.6109820">
    <ele>58.3</ele>
    <time>2020-06-14T09:19:56Z</time>
   </trkpt>
   <trkpt lat="51.1163280" lon="5.6110980">
    <ele>58.5</ele>
    <time>2020-06-14T09:19:57Z</time>
   </trkpt>
   <trkpt lat="51.1163560" lon="5.6112170">
    <ele>58.6</ele>
    <time>2020-06-14T09:19:58Z</time>
   </trkpt>
   <trkpt lat="51.1163820" lon="5.6113370">
    <ele>58.8</ele>
    <time>2020-06-14T09:19:59Z</time>
   </trkpt>
   <trkpt lat="51.1164060" lon="5.6114560">
    <ele>59.0</ele>
    <time>2020-06-14T09:20:00Z</time>
   </trkpt>
   <trkpt lat="51.1164770" lon="5.6115550">
    <ele>59.3</ele>
    <time>2020-06-14T09:20:01Z</time>
   </trkpt>
   <trkpt lat="51.1165240" lon="5.6116740">
    <ele>59.5</ele>
    <time>2020-06-14T09:20:02Z</time>
   </trkpt>
   <trkpt lat="51.1165550" lon="5.6118020">
    <ele>59.7</ele>
    <time>2020-06-14T09:20:03Z</time>
   </trkpt>
   <trkpt lat="51.1165870" lon="5.6119260">
    <ele>60.0</ele>
    <time>2020-06-14T09:20:04Z</time>
   </trkpt>
   <trkpt lat="51.1166120" lon="5.6120490">
    <ele>60.2</ele>
    <time>2020-06-14T09:20:05Z</time>
   </trkpt>
   <trkpt lat="51.1166380" lon="5.6121780">
    <ele>60.3</ele>
    <time>2020-06-14T09:20:06Z</time>
   </trkpt>
   <trkpt lat="51.1166690" lon="5.6123020">
    <ele>60.5</ele>
    <time>2020-06-14T09:20:07Z</time>
   </trkpt>
   <trkpt lat="51.1167150" lon="5.6124160">
    <ele>60.6</ele>
    <time>2020-06-14T09:20:08Z</time>
   </trkpt>
   <trkpt lat="51.1167620" lon="5.6125310">
    <ele>60.8</ele>
    <time>2020-06-14T09:20:09Z</time>
   </trkpt>
   <trkpt lat="51.1168110" lon="5.6126440">
    <ele>61.0</ele>
    <time>2020-06-14T09:20:10Z</time>
   </trkpt>
   <trkpt lat="51.1168610" lon="5.6127510">
    <ele>61.3</ele>
    <time>2020-06-14T09:20:11Z</time>
   </trkpt>
   <trkpt lat="51.1169110" lon="5.6128520">
    <ele>61.5</ele>
    <time>2020-06-14T09:20:12Z</time>
   </trkpt>
   <trkpt lat="51.1169640" lon="5.6129500">
    <ele>61.7</ele>
    <time>2020-06-14T09:20:13Z</time>
   </trkpt>
   <trkpt lat="51.1170150" lon="5.6130430">
    <ele>61.9</ele>
    <time>2020-06-14T09:20:14Z</time>
   </trkpt>
   <trkpt lat="51.1170640" lon="5.6131290">
    <ele>62.1</ele>
    <time>2020-06-14T09:20:15Z</time>
   </trkpt>
   <trkpt lat="51.1171110" lon="5.6132120">
    <ele>62.3</ele>
    <time>2020-06-14T09:20:16Z</time>
   </trkpt>
   <trkpt lat="51.1171470" lon="5.6133120">
    <ele>62.4</ele>
    <time>2020-06-14T09:20:17Z</time>
   </trkpt>
   <trkpt lat="51.1171770" lon="5.6134270">
    <ele>62.6</ele>
    <time>2020-06-14T09:20:18Z</time>
   </trkpt>
   <trkpt lat="51.1172040" lon="5.6135350">
    <ele>62.7</ele>
    <time>2020-06-14T09:20:19Z</time>
   </trkpt>
   <trkpt lat="51.1172350" lon="5.6136470">
    <ele>62.8</ele>
    <time>2020-06-14T09:20:20Z</time>
   </trkpt>
   <trkpt lat="51.1172630" lon="5.6137580">
    <ele>62.9</ele>
    <time>2020-06-14T09:20:21Z</time>
   </trkpt>
   <trkpt lat="51.1172980" lon="5.6138660">
    <ele>63.0</ele>
    <time>2020-06-14T09:20:22Z</time>
   </trkpt>
   <trkpt lat="51.1173370" lon="5.6139680">
    <ele>63.1</ele>
    <time>2020-06-14T09:20:23Z</time>
   </trkpt>
   <trkpt lat="51.1173770" lon="5.6140780">
    <ele>63.2</ele>
    <time>2020-06-14T09:20:24Z</time>
   </trkpt>
   <trkpt lat="51.1174220" lon="5.6141780">
    <ele>63.2</ele>
    <time>2020-06-14T09:20:25Z</time>
   </trkpt>
   <trkpt lat="51.1174650" lon="5.6142850">
    <ele>63.2</ele>
    <time>2020-06-14T09:20:26Z</time>
   </trkpt>
   <trkpt lat="51.1175080" lon="5.6143940">
    <ele>63.3</ele>
    <time>2020-06-14T09:20:27Z</time>
   </trkpt>
   <trkpt lat="51.1175500" lon="5.6145100">
    <ele>63.3</ele>
    <time>2020-06-14T09:20:28Z</time>
   </trkpt>
   <trkpt lat="51.1175910" lon="5.6146230">
    <ele>63.4</ele>
    <time>2020-06-14T09:20:29Z</time>
   </trkpt>
   <trkpt lat="51.1176280" lon="5.6147290">
    <ele>63.4</ele>
    <time>2020-06-14T09:20:30Z</time>
   </trkpt>
   <trkpt lat="51.1176660" lon="5.6148380">
    <ele>63.4</ele>
    <time>2020-06-14T09:20:31Z</time>
   </trkpt>
   <trkpt lat="51.1177090" lon="5.6149470">
    <ele>63.4</ele>
    <time>2020-06-14T09:20:32Z</time>
   </trkpt>
   <trkpt lat="51.1177560" lon="5.6150550">
    <ele>63.4</ele>
    <time>2020-06-14T09:20:33Z</time>
   </trkpt>
   <trkpt lat="51.1178020" lon="5.6151580">
    <ele>63.4</ele>
    <time>2020-06-14T09:20:34Z</time>
   </trkpt>
   <trkpt lat="51.1178470" lon="5.6152640">
    <ele>63.4</ele>
    <time>2020-06-14T09:20:35Z</time>
   </trkpt>
   <trkpt lat="51.1178930" lon="5.6153710">
    <ele>63.5</ele>
    <time>2020-06-14T09:20:36Z</time>
   </trkpt>
   <trkpt lat="51.1179390" lon="5.6154760">
    <ele>63.5</ele>
    <time>2020-06-14T09:20:37Z</time>
   </trkpt>
   <trkpt lat="51.1179930" lon="5.6155790">
    <ele>63.5</ele>
    <time>2020-06-14T09:20:38Z</time>
   </trkpt>
   <trkpt lat="51.1180500" lon="5.6156850">
    <ele>63.6</ele>
    <time>2020-06-14T09:20:39Z</time>
   </trkpt>
   <trkpt lat="51.1181030" lon="5.6157970">
    <ele>63.7</ele>
    <time>2020-06-14T09:20:40Z</time>
   </trkpt>
   <trkpt lat="51.1181560" lon="5.6159220">
    <ele>63.8</ele>
    <time>2020-06-14T09:20:41Z</time>
   </trkpt>
   <trkpt lat="51.1182040" lon="5.6160430">
    <ele>63.8</ele>
    <time>2020-06-14T09:20:42Z</time>
   </trkpt>
   <trkpt lat="51.1182440" lon="5.6161640">
    <ele>63.9</ele>
    <time>2020-06-14T09:20:43Z</time>
   </trkpt>
   <trkpt lat="51.1182710" lon="5.6162780">
    <ele>64.0</ele>
    <time>2020-06-14T09:20:44Z</time>
   </trkpt>
   <trkpt lat="51.1182970" lon="5.6163940">
    <ele>64.0</ele>
    <time>2020-06-14T09:20:45Z</time>
   </trkpt>
   <trkpt lat="51.1183290" lon="5.6165080">
    <ele>64.1</ele>
    <time>2020-06-14T09:20:46Z</time>
   </trkpt>
   <trkpt lat="51.1183590" lon="5.6166280">
    <ele>64.2</ele>
    <time>2020-06-14T09:20:47Z</time>
   </trkpt>
   <trkpt lat="51.1183920" lon="5.6167470">
    <ele>64.3</ele>
    <time>2020-06-14T09:20:48Z</time>
   </trkpt>
   <trkpt lat="51.1184230" lon="5.6168730">
    <ele>64.4</ele>
    <time>2020-06-14T09:20:49Z</time>
   </trkpt>
   <trkpt lat="51.1184560" lon="5.6169900">
    <ele>64.6</ele>
    <time>2020-06-14T09:20:50Z</time>
   </trkpt>
   <trkpt lat="51.1184810" lon="5.6171090">
    <ele>64.7</ele>
    <time>2020-06-14T09:20:51Z</time>
   </trkpt>
   <trkpt lat="51.1185070" lon="5.6172310">
    <ele>64.9</ele>
    <time>2020-06-14T09:20:52Z</time>
   </trkpt>
   <trkpt lat="51.1185320" lon="5.6173550">
    <ele>65.2</ele>
    <time>2020-06-14T09:20:53Z</time>
   </trkpt>
   <trkpt lat="51.1185580" lon="5.6174700">
    <ele>65.4</ele>
    <time>2020-06-14T09:20:54Z</time>
   </trkpt>
   <trkpt lat="51.1185830" lon="5.6175900">
    <ele>65.7</ele>
    <time>2020-06-14T09:20:55Z</time>
   </trkpt>
   <trkpt lat="51.1186110" lon="5.6177040">
    <ele>65.8</ele>
    <time>2020-06-14T09:20:56Z</time>
   </trkpt>
   <trkpt lat="51.1186390" lon="5.6178190">
    <ele>66.0</ele>
    <time>2020-06-14T09:20:57Z</time>
   </trkpt>
   <trkpt lat="51.1186670" lon="5.6179350">
    <ele>66.0</ele>
    <time>2020-06-14T09:20:58Z</time>
   </trkpt>
   <trkpt lat="51.1186930" lon="5.6180560">
    <ele>66.1</ele>
    <time>2020-06-14T09:20:59Z</time>
   </trkpt>
   <trkpt lat="51.1187220" lon="5.6181750">
    <ele>66.0</ele>
    <time>2020-06-14T09:21:00Z</time>
   </trkpt>
   <trkpt lat="51.1187460" lon="5.6183000">
    <ele>66.0</ele>
    <time>2020-06-14T09:21:01Z</time>
   </trkpt>
   <trkpt lat="51.1187600" lon="5.6184290">
    <ele>66.1</ele>
    <time>2020-06-14T09:21:02Z</time>
   </trkpt>
   <trkpt lat="51.1187740" lon="5.6185600">
    <ele>66.2</ele>
    <time>2020-06-14T09:21:03Z</time>
   </trkpt>
   <trkpt lat="51.1187800" lon="5.6186890">
    <ele>66.2</ele>
    <time>2020-06-14T09:21:04Z</time>
   </trkpt>
   <trkpt lat="51.1187820" lon="5.6188130">
    <ele>66.3</ele>
    <time>2020-06-14T09:21:05Z</time>
   </trkpt>
   <trkpt lat="51.1187830" lon="5.6189420">
    <ele>66.3</ele>
    <time>2020-06-14T09:21:06Z</time>
   </trkpt>
   <trkpt lat="51.1187820" lon="5.6190760">
    <ele>66.3</ele>
    <time>2020-06-14T09:21:07Z</time>
   </trkpt>
   <trkpt lat="51.1187790" lon="5.6192060">
    <ele>66.3</ele>
    <time>2020-06-14T09:21:08Z</time>
   </trkpt>
   <trkpt lat="51.1187750" lon="5.6193320">
    <ele>66.4</ele>
    <time>2020-06-14T09:21:09Z</time>
   </trkpt>
   <trkpt lat="51.1187750" lon="5.6194580">
    <ele>66.4</ele>
    <time>2020-06-14T09:21:10Z</time>
   </trkpt>
   <trkpt lat="51.1187740" lon="5.6195820">
    <ele>66.4</ele>
    <time>2020-06-14T09:21:11Z</time>
   </trkpt>
   <trkpt lat="51.1187740" lon="5.6197000">
    <ele>66.5</ele>
    <time>2020-06-14T09:21:12Z</time>
   </trkpt>
   <trkpt lat="51.1187770" lon="5.6198200">
    <ele>66.5</ele>
    <time>2020-06-14T09:21:13Z</time>
   </trkpt>
   <trkpt lat="51.1187840" lon="5.6199420">
    <ele>66.5</ele>
    <time>2020-06-14T09:21:14Z</time>
   </trkpt>
   <trkpt lat="51.1187860" lon="5.6200630">
    <ele>66.5</ele>
    <time>2020-06-14T09:21:15Z</time>
   </trkpt>
   <trkpt lat="51.1187860" lon="5.6201820">
    <ele>66.5</ele>
    <time>2020-06-14T09:21:16Z</time>
   </trkpt>
   <trkpt lat="51.1187880" lon="5.6203010">
    <ele>66.5</ele>
    <time>2020-06-14T09:21:17Z</time>
   </trkpt>
   <trkpt lat="51.1187930" lon="5.6204250">
    <ele>66.6</ele>
    <time>2020-06-14T09:21:18Z</time>
   </trkpt>
   <trkpt lat="51.1188000" lon="5.6205510">
    <ele>66.7</ele>
    <time>2020-06-14T09:21:19Z</time>
   </trkpt>
   <trkpt lat="51.1188000" lon="5.6206740">
    <ele>66.9</ele>
    <time>2020-06-14T09:21:20Z</time>
   </trkpt>
   <trkpt lat="51.1188000" lon="5.6207990">
    <ele>66.9</ele>
    <time>2020-06-14T09:21:21Z</time>
   </trkpt>
   <trkpt lat="51.1188020" lon="5.6209300">
    <ele>66.9</ele>
    <time>2020-06-14T09:21:22Z</time>
   </trkpt>
   <trkpt lat="51.1188060" lon="5.6210590">
    <ele>66.9</ele>
    <time>2020-06-14T09:21:23Z</time>
   </trkpt>
   <trkpt lat="51.1188130" lon="5.6211830">
    <ele>66.8</ele>
    <time>2020-06-14T09:21:24Z</time>
   </trkpt>
   <trkpt lat="51.1188100" lon="5.6213060">
    <ele>66.8</ele>
    <time>2020-06-14T09:21:25Z</time>
   </trkpt>
   <trkpt lat="51.1187980" lon="5.6214310">
    <ele>66.8</ele>
    <time>2020-06-14T09:21:26Z</time>
   </trkpt>
   <trkpt lat="51.1187890" lon="5.6215570">
    <ele>66.8</ele>
    <time>2020-06-14T09:21:27Z</time>
   </trkpt>
   <trkpt lat="51.1188480" lon="5.6216910">
    <ele>66.7</ele>
    <time>2020-06-14T09:21:28Z</time>
   </trkpt>
   <trkpt lat="51.1188490" lon="5.6218160">
    <ele>66.7</ele>
    <time>2020-06-14T09:21:29Z</time>
   </trkpt>
   <trkpt lat="51.1188460" lon="5.6219430">
    <ele>66.6</ele>
    <time>2020-06-14T09:21:30Z</time>
   </trkpt>
   <trkpt lat="51.1188470" lon="5.6220730">
    <ele>66.6</ele>
    <time>2020-06-14T09:21:31Z</time>
   </trkpt>
   <trkpt lat="51.1188540" lon="5.6222020">
    <ele>66.5</ele>
    <time>2020-06-14T09:21:32Z</time>
   </trkpt>
   <trkpt lat="51.1188660" lon="5.6223240">
    <ele>66.5</ele>
    <time>2020-06-14T09:21:33Z</time>
   </trkpt>
   <trkpt lat="51.1188990" lon="5.6224430">
    <ele>66.4</ele>
    <time>2020-06-14T09:21:34Z</time>
   </trkpt>
   <trkpt lat="51.1189410" lon="5.6225610">
    <ele>66.4</ele>
    <time>2020-06-14T09:21:35Z</time>
   </trkpt>
   <trkpt lat="51.1189660" lon="5.6226870">
    <ele>66.3</ele>
    <time>2020-06-14T09:21:36Z</time>
   </trkpt>
   <trkpt lat="51.1189880" lon="5.6228240">
    <ele>66.3</ele>
    <time>2020-06-14T09:21:37Z</time>
   </trkpt>
   <trkpt lat="51.1190180" lon="5.6229550">
    <ele>66.3</ele>
    <time>2020-06-14T09:21:38Z</time>
   </trkpt>
   <trkpt lat="51.1190370" lon="5.6230920">
    <ele>66.3</ele>
    <time>2020-06-14T09:21:39Z</time>
   </trkpt>
   <trkpt lat="51.1190490" lon="5.6232280">
    <ele>66.3</ele>
    <time>2020-06-14T09:21:40Z</time>
   </trkpt>
   <trkpt lat="51.1190550" lon="5.6233650">
    <ele>66.3</ele>
    <time>2020-06-14T09:21:41Z</time>
   </trkpt>
   <trkpt lat="51.1190500" lon="5.6234970">
    <ele>66.3</ele>
    <time>2020-06-14T09:21:42Z</time>
   </trkpt>
   <trkpt lat="51.1190380" lon="5.6236280">
    <ele>66.3</ele>
    <time>2020-06-14T09:21:43Z</time>
   </trkpt>
   <trkpt lat="51.1189870" lon="5.6237520">
    <ele>66.3</ele>
    <time>2020-06-14T09:21:44Z</time>
   </trkpt>
   <trkpt lat="51.1189820" lon="5.6238920">
    <ele>66.4</ele>
    <time>2020-06-14T09:21:45Z</time>
   </trkpt>
   <trkpt lat="51.1189700" lon="5.6240290">
    <ele>66.4</ele>
    <time>2020-06-14T09:21:46Z</time>
   </trkpt>
   <trkpt lat="51.1189580" lon="5.6241580">
    <ele>66.4</ele>
    <time>2020-06-14T09:21:47Z</time>
   </trkpt>
   <trkpt lat="51.1189510" lon="5.6242850">
    <ele>66.5</ele>
    <time>2020-06-14T09:21:48Z</time>
   </trkpt>
   <trkpt lat="51.1189160" lon="5.6244010">
    <ele>66.5</ele>
    <time>2020-06-14T09:21:49Z</time>
   </trkpt>
   <trkpt lat="51.1189000" lon="5.6245100">
    <ele>66.6</ele>
    <time>2020-06-14T09:21:50Z</time>
   </trkpt>
   <trkpt lat="51.1188910" lon="5.6246150">
    <ele>66.6</ele>
    <time>2020-06-14T09:21:51Z</time>
   </trkpt>
   <trkpt lat="51.1188880" lon="5.6247190">
    <ele>66.7</ele>
    <time>2020-06-14T09:21:52Z</time>
   </trkpt>
   <trkpt lat="51.1188680" lon="5.6248100">
    <ele>66.8</ele>
    <time>2020-06-14T09:21:53Z</time>
   </trkpt>
   <trkpt lat="51.1188500" lon="5.6249050">
    <ele>66.9</ele>
    <time>2020-06-14T09:21:54Z</time>
   </trkpt>
   <trkpt lat="51.1188300" lon="5.6250070">
    <ele>67.0</ele>
    <time>2020-06-14T09:21:55Z</time>
   </trkpt>
   <trkpt lat="51.1188140" lon="5.6251120">
    <ele>66.9</ele>
    <time>2020-06-14T09:21:56Z</time>
   </trkpt>
   <trkpt lat="51.1188000" lon="5.6252230">
    <ele>66.9</ele>
    <time>2020-06-14T09:21:57Z</time>
   </trkpt>
   <trkpt lat="51.1187820" lon="5.6253300">
    <ele>66.9</ele>
    <time>2020-06-14T09:21:58Z</time>
   </trkpt>
   <trkpt lat="51.1187610" lon="5.6254340">
    <ele>66.9</ele>
    <time>2020-06-14T09:21:59Z</time>
   </trkpt>
   <trkpt lat="51.1187440" lon="5.6255290">
    <ele>67.0</ele>
    <time>2020-06-14T09:22:00Z</time>
   </trkpt>
   <trkpt lat="51.1187260" lon="5.6256100">
    <ele>67.0</ele>
    <time>2020-06-14T09:22:01Z</time>
   </trkpt>
   <trkpt lat="51.1186990" lon="5.6256960">
    <ele>67.1</ele>
    <time>2020-06-14T09:22:02Z</time>
   </trkpt>
   <trkpt lat="51.1186780" lon="5.6257890">
    <ele>67.1</ele>
    <time>2020-06-14T09:22:03Z</time>
   </trkpt>
   <trkpt lat="51.1186520" lon="5.6258780">
    <ele>67.1</ele>
    <time>2020-06-14T09:22:04Z</time>
   </trkpt>
   <trkpt lat="51.1186310" lon="5.6259700">
    <ele>67.1</ele>
    <time>2020-06-14T09:22:05Z</time>
   </trkpt>
   <trkpt lat="51.1186150" lon="5.6260680">
    <ele>67.1</ele>
    <time>2020-06-14T09:22:06Z</time>
   </trkpt>
   <trkpt lat="51.1185930" lon="5.6261700">
    <ele>67.1</ele>
    <time>2020-06-14T09:22:07Z</time>
   </trkpt>
   <trkpt lat="51.1185720" lon="5.6262700">
    <ele>67.0</ele>
    <time>2020-06-14T09:22:08Z</time>
   </trkpt>
   <trkpt lat="51.1185530" lon="5.6263790">
    <ele>67.0</ele>
    <time>2020-06-14T09:22:09Z</time>
   </trkpt>
   <trkpt lat="51.1185420" lon="5.6264930">
    <ele>67.0</ele>
    <time>2020-06-14T09:22:10Z</time>
   </trkpt>
   <trkpt lat="51.1185330" lon="5.6266160">
    <ele>66.9</ele>
    <time>2020-06-14T09:22:11Z</time>
   </trkpt>
   <trkpt lat="51.1185230" lon="5.6267390">
    <ele>66.7</ele>
    <time>2020-06-14T09:22:12Z</time>
   </trkpt>
   <trkpt lat="51.1185430" lon="5.6268650">
    <ele>66.6</ele>
    <time>2020-06-14T09:22:13Z</time>
   </trkpt>
   <trkpt lat="51.1185370" lon="5.6269720">
    <ele>66.4</ele>
    <time>2020-06-14T09:22:14Z</time>
   </trkpt>
   <trkpt lat="51.1185290" lon="5.6270800">
    <ele>66.3</ele>
    <time>2020-06-14T09:22:15Z</time>
   </trkpt>
   <trkpt lat="51.1185220" lon="5.6271880">
    <ele>66.0</ele>
    <time>2020-06-14T09:22:16Z</time>
   </trkpt>
   <trkpt lat="51.1185320" lon="5.6272960">
    <ele>65.7</ele>
    <time>2020-06-14T09:22:17Z</time>
   </trkpt>
   <trkpt lat="51.1185320" lon="5.6274000">
    <ele>65.5</ele>
    <time>2020-06-14T09:22:18Z</time>
   </trkpt>
   <trkpt lat="51.1185300" lon="5.6275060">
    <ele>65.1</ele>
    <time>2020-06-14T09:22:19Z</time>
   </trkpt>
   <trkpt lat="51.1185040" lon="5.6276350">
    <ele>64.7</ele>
    <time>2020-06-14T09:22:20Z</time>
   </trkpt>
   <trkpt lat="51.1185210" lon="5.6277660">
    <ele>64.1</ele>
    <time>2020-06-14T09:22:21Z</time>
   </trkpt>
   <trkpt lat="51.1185420" lon="5.6278930">
    <ele>63.6</ele>
    <time>2020-06-14T09:22:22Z</time>
   </trkpt>
   <trkpt lat="51.1185610" lon="5.6280190">
    <ele>63.0</ele>
    <time>2020-06-14T09:22:23Z</time>
   </trkpt>
   <trkpt lat="51.1185820" lon="5.6281450">
    <ele>62.5</ele>
    <time>2020-06-14T09:22:24Z</time>
   </trkpt>
   <trkpt lat="51.1186050" lon="5.6282750">
    <ele>61.9</ele>
    <time>2020-06-14T09:22:25Z</time>
   </trkpt>
   <trkpt lat="51.1186360" lon="5.6284070">
    <ele>61.3</ele>
    <time>2020-06-14T09:22:26Z</time>
   </trkpt>
   <trkpt lat="51.1187300" lon="5.6285270">
    <ele>60.5</ele>
    <time>2020-06-14T09:22:27Z</time>
   </trkpt>
   <trkpt lat="51.1187930" lon="5.6286610">
    <ele>59.8</ele>
    <time>2020-06-14T09:22:28Z</time>
   </trkpt>
   <trkpt lat="51.1188350" lon="5.6287900">
    <ele>59.2</ele>
    <time>2020-06-14T09:22:29Z</time>
   </trkpt>
   <trkpt lat="51.1188740" lon="5.6289190">
    <ele>58.6</ele>
    <time>2020-06-14T09:22:30Z</time>
   </trkpt>
   <trkpt lat="51.1189250" lon="5.6290670">
    <ele>57.8</ele>
    <time>2020-06-14T09:22:31Z</time>
   </trkpt>
   <trkpt lat="51.1189830" lon="5.6292300">
    <ele>56.9</ele>
    <time>2020-06-14T09:22:32Z</time>
   </trkpt>
   <trkpt lat="51.1190520" lon="5.6293810">
    <ele>56.0</ele>
    <time>2020-06-14T09:22:33Z</time>
   </trkpt>
   <trkpt lat="51.1191260" lon="5.6295640">
    <ele>55.0</ele>
    <time>2020-06-14T09:22:34Z</time>
   </trkpt>
   <trkpt lat="51.1191960" lon="5.6297390">
    <ele>54.0</ele>
    <time>2020-06-14T09:22:35Z</time>
   </trkpt>
   <trkpt lat="51.1192600" lon="5.6299330">
    <ele>53.0</ele>
    <time>2020-06-14T09:22:36Z</time>
   </trkpt>
   <trkpt lat="51.1193150" lon="5.6301620">
    <ele>52.4</ele>
    <time>2020-06-14T09:22:37Z</time>
   </trkpt>
   <trkpt lat="51.1193360" lon="5.6303790">
    <ele>51.9</ele>
    <time>2020-06-14T09:22:38Z</time>
   </trkpt>
   <trkpt lat="51.1193510" lon="5.6306000">
    <ele>51.4</ele>
    <time>2020-06-14T09:22:39Z</time>
   </trkpt>
   <trkpt lat="51.1193450" lon="5.6308150">
    <ele>51.1</ele>
    <time>2020-06-14T09:22:40Z</time>
   </trkpt>
   <trkpt lat="51.1193500" lon="5.6310310">
    <ele>50.8</ele>
    <time>2020-06-14T09:22:41Z</time>
   </trkpt>
   <trkpt lat="51.1193610" lon="5.6312460">
    <ele>50.5</ele>
    <time>2020-06-14T09:22:42Z</time>
   </trkpt>
   <trkpt lat="51.1193580" lon="5.6314510">
    <ele>50.2</ele>
    <time>2020-06-14T09:22:43Z</time>
   </trkpt>
   <trkpt lat="51.1193610" lon="5.6316600">
    <ele>49.9</ele>
    <time>2020-06-14T09:22:44Z</time>
   </trkpt>
   <trkpt lat="51.1193600" lon="5.6318620">
    <ele>49.7</ele>
    <time>2020-06-14T09:22:45Z</time>
   </trkpt>
   <trkpt lat="51.1193490" lon="5.6320610">
    <ele>49.4</ele>
    <time>2020-06-14T09:22:46Z</time>
   </trkpt>
   <trkpt lat="51.1193480" lon="5.6322550">
    <ele>49.1</ele>
    <time>2020-06-14T09:22:47Z</time>
   </trkpt>
   <trkpt lat="51.1193420" lon="5.6324520">
    <ele>48.9</ele>
    <time>2020-06-14T09:22:48Z</time>
   </trkpt>
   <trkpt lat="51.1193370" lon="5.6326470">
    <ele>48.6</ele>
    <time>2020-06-14T09:22:49Z</time>
   </trkpt>
   <trkpt lat="51.1193300" lon="5.6328400">
    <ele>48.3</ele>
    <time>2020-06-14T09:22:50Z</time>
   </trkpt>
   <trkpt lat="51.1193260" lon="5.6330310">
    <ele>48.1</ele>
    <time>2020-06-14T09:22:51Z</time>
   </trkpt>
   <trkpt lat="51.1193260" lon="5.6332210">
    <ele>47.9</ele>
    <time>2020-06-14T09:22:52Z</time>
   </trkpt>
   <trkpt lat="51.1193170" lon="5.6334070">
    <ele>47.6</ele>
    <time>2020-06-14T09:22:53Z</time>
   </trkpt>
   <trkpt lat="51.1193060" lon="5.6335900">
    <ele>47.3</ele>
    <time>2020-06-14T09:22:54Z</time>
   </trkpt>
   <trkpt lat="51.1192930" lon="5.6337720">
    <ele>47.0</ele>
    <time>2020-06-14T09:22:55Z</time>
   </trkpt>
   <trkpt lat="51.1192830" lon="5.6339530">
    <ele>46.8</ele>
    <time>2020-06-14T09:22:56Z</time>
   </trkpt>
   <trkpt lat="51.1192710" lon="5.6341340">
    <ele>46.6</ele>
    <time>2020-06-14T09:22:57Z</time>
   </trkpt>
   <trkpt lat="51.1192610" lon="5.6343150">
    <ele>46.4</ele>
    <time>2020-06-14T09:22:58Z</time>
   </trkpt>
   <trkpt lat="51.1192490" lon="5.6344940">
    <ele>46.1</ele>
    <time>2020-06-14T09:22:59Z</time>
   </trkpt>
   <trkpt lat="51.1192380" lon="5.6346700">
    <ele>45.9</ele>
    <time>2020-06-14T09:23:00Z</time>
   </trkpt>
   <trkpt lat="51.1192270" lon="5.6348400">
    <ele>45.7</ele>
    <time>2020-06-14T09:23:01Z</time>
   </trkpt>
   <trkpt lat="51.1192170" lon="5.6350110">
    <ele>45.5</ele>
    <time>2020-06-14T09:23:02Z</time>
   </trkpt>
   <trkpt lat="51.1192040" lon="5.6351800">
    <ele>45.3</ele>
    <time>2020-06-14T09:23:03Z</time>
   </trkpt>
   <trkpt lat="51.1191950" lon="5.6353490">
    <ele>45.1</ele>
    <time>2020-06-14T09:23:04Z</time>
   </trkpt>
   <trkpt lat="51.1191830" lon="5.6355170">
    <ele>44.9</ele>
    <time>2020-06-14T09:23:05Z</time>
   </trkpt>
   <trkpt lat="51.1191680" lon="5.6356870">
    <ele>44.7</ele>
    <time>2020-06-14T09:23:06Z</time>
   </trkpt>
   <trkpt lat="51.1191620" lon="5.6358550">
    <ele>44.6</ele>
    <time>2020-06-14T09:23:07Z</time>
   </trkpt>
   <trkpt lat="51.1191580" lon="5.6360210">
    <ele>44.5</ele>
    <time>2020-06-14T09:23:08Z</time>
   </trkpt>
   <trkpt lat="51.1191530" lon="5.6361880">
    <ele>44.3</ele>
    <time>2020-06-14T09:23:09Z</time>
   </trkpt>
   <trkpt lat="51.1191440" lon="5.6363570">
    <ele>44.2</ele>
    <time>2020-06-14T09:23:10Z</time>
   </trkpt>
   <trkpt lat="51.1191340" lon="5.6365270">
    <ele>44.1</ele>
    <time>2020-06-14T09:23:11Z</time>
   </trkpt>
   <trkpt lat="51.1191260" lon="5.6366910">
    <ele>44.1</ele>
    <time>2020-06-14T09:23:12Z</time>
   </trkpt>
   <trkpt lat="51.1191170" lon="5.6368480">
    <ele>44.0</ele>
    <time>2020-06-14T09:23:13Z</time>
   </trkpt>
   <trkpt lat="51.1191060" lon="5.6370040">
    <ele>43.9</ele>
    <time>2020-06-14T09:23:14Z</time>
   </trkpt>
   <trkpt lat="51.1190980" lon="5.6371570">
    <ele>43.9</ele>
    <time>2020-06-14T09:23:15Z</time>
   </trkpt>
   <trkpt lat="51.1190890" lon="5.6373020">
    <ele>43.8</ele>
    <time>2020-06-14T09:23:16Z</time>
   </trkpt>
   <trkpt lat="51.1190830" lon="5.6374420">
    <ele>43.7</ele>
    <time>2020-06-14T09:23:17Z</time>
   </trkpt>
   <trkpt lat="51.1190700" lon="5.6375720">
    <ele>43.7</ele>
    <time>2020-06-14T09:23:18Z</time>
   </trkpt>
   <trkpt lat="51.1190590" lon="5.6376900">
    <ele>43.7</ele>
    <time>2020-06-14T09:23:19Z</time>
   </trkpt>
   <trkpt lat="51.1190460" lon="5.6378020">
    <ele>43.7</ele>
    <time>2020-06-14T09:23:20Z</time>
   </trkpt>
   <trkpt lat="51.1190420" lon="5.6379060">
    <ele>43.7</ele>
    <time>2020-06-14T09:23:21Z</time>
   </trkpt>
   <trkpt lat="51.1190370" lon="5.6379960">
    <ele>43.8</ele>
    <time>2020-06-14T09:23:22Z</time>
   </trkpt>
   <trkpt lat="51.1189790" lon="5.6380640">
    <ele>43.8</ele>
    <time>2020-06-14T09:23:23Z</time>
   </trkpt>
   <trkpt lat="51.1189690" lon="5.6381430">
    <ele>43.8</ele>
    <time>2020-06-14T09:23:24Z</time>
   </trkpt>
   <trkpt lat="51.1189610" lon="5.6382200">
    <ele>43.8</ele>
    <time>2020-06-14T09:23:25Z</time>
   </trkpt>
   <trkpt lat="51.1189560" lon="5.6382960">
    <ele>43.8</ele>
    <time>2020-06-14T09:23:26Z</time>
   </trkpt>
   <trkpt lat="51.1189520" lon="5.6383690">
    <ele>43.8</ele>
    <time>2020-06-14T09:23:27Z</time>
   </trkpt>
   <trkpt lat="51.1189630" lon="5.6384410">
    <ele>43.7</ele>
    <time>2020-06-14T09:23:28Z</time>
   </trkpt>
   <trkpt lat="51.1189920" lon="5.6384980">
    <ele>43.6</ele>
    <time>2020-06-14T09:23:29Z</time>
   </trkpt>
   <trkpt lat="51.1190290" lon="5.6385570">
    <ele>43.6</ele>
    <time>2020-06-14T09:23:30Z</time>
   </trkpt>
   <trkpt lat="51.1190840" lon="5.6386190">
    <ele>43.5</ele>
    <time>2020-06-14T09:23:31Z</time>
   </trkpt>
   <trkpt lat="51.1191430" lon="5.6386860">
    <ele>43.4</ele>
    <time>2020-06-14T09:23:32Z</time>
   </trkpt>
   <trkpt lat="51.1192000" lon="5.6387600">
    <ele>43.3</ele>
    <time>2020-06-14T09:23:33Z</time>
   </trkpt>
   <trkpt lat="51.1192810" lon="5.6388040">
    <ele>43.3</ele>
    <time>2020-06-14T09:23:34Z</time>
   </trkpt>
   <trkpt lat="51.1193480" lon="5.6388740">
    <ele>43.2</ele>
    <time>2020-06-14T09:23:35Z</time>
   </trkpt>
   <trkpt lat="51.1194120" lon="5.6389490">
    <ele>43.2</ele>
    <time>2020-06-14T09:23:36Z</time>
   </trkpt>
   <trkpt lat="51.1194730" lon="5.6390270">
    <ele>43.1</ele>
    <time>2020-06-14T09:23:37Z</time>
   </trkpt>
   <trkpt lat="51.1195350" lon="5.6391040">
    <ele>43.1</ele>
    <time>2020-06-14T09:23:38Z</time>
   </trkpt>
   <trkpt lat="51.1195950" lon="5.6391870">
    <ele>43.0</ele>
    <time>2020-06-14T09:23:39Z</time>
   </trkpt>
   <trkpt lat="51.1196550" lon="5.6392760">
    <ele>42.9</ele>
    <time>2020-06-14T09:23:40Z</time>
   </trkpt>
   <trkpt lat="51.1197200" lon="5.6393540">
    <ele>42.9</ele>
    <time>2020-06-14T09:23:41Z</time>
   </trkpt>
   <trkpt lat="51.1197860" lon="5.6394260">
    <ele>42.9</ele>
    <time>2020-06-14T09:23:42Z</time>
   </trkpt>
   <trkpt lat="51.1198510" lon="5.6394900">
    <ele>42.9</ele>
    <time>2020-06-14T09:23:43Z</time>
   </trkpt>
   <trkpt lat="51.1199140" lon="5.6395480">
    <ele>42.9</ele>
    <time>2020-06-14T09:23:44Z</time>
   </trkpt>
   <trkpt lat="51.1199790" lon="5.6396040">
    <ele>43.0</ele>
    <time>2020-06-14T09:23:45Z</time>
   </trkpt>
   <trkpt lat="51.1200440" lon="5.6396500">
    <ele>43.1</ele>
    <time>2020-06-14T09:23:46Z</time>
   </trkpt>
   <trkpt lat="51.1201030" lon="5.6396800">
    <ele>43.1</ele>
    <time>2020-06-14T09:23:47Z</time>
   </trkpt>
   <trkpt lat="51.1201550" lon="5.6397070">
    <ele>43.2</ele>
    <time>2020-06-14T09:23:48Z</time>
   </trkpt>
   <trkpt lat="51.1201920" lon="5.6397310">
    <ele>43.3</ele>
    <time>2020-06-14T09:23:49Z</time>
   </trkpt>
   <trkpt lat="51.1202290" lon="5.6397560">
    <ele>43.4</ele>
    <time>2020-06-14T09:23:50Z</time>
   </trkpt>
   <trkpt lat="51.1202650" lon="5.6397760">
    <ele>43.5</ele>
    <time>2020-06-14T09:23:51Z</time>
   </trkpt>
   <trkpt lat="51.1203010" lon="5.6397850">
    <ele>43.5</ele>
    <time>2020-06-14T09:23:52Z</time>
   </trkpt>
   <trkpt lat="51.1203300" lon="5.6397980">
    <ele>43.7</ele>
    <time>2020-06-14T09:23:53Z</time>
   </trkpt>
   <trkpt lat="51.1203700" lon="5.6398190">
    <ele>43.7</ele>
    <time>2020-06-14T09:23:54Z</time>
   </trkpt>
   <trkpt lat="51.1204220" lon="5.6398500">
    <ele>43.8</ele>
    <time>2020-06-14T09:23:55Z</time>
   </trkpt>
   <trkpt lat="51.1204730" lon="5.6398820">
    <ele>43.8</ele>
    <time>2020-06-14T09:23:56Z</time>
   </trkpt>
   <trkpt lat="51.1205230" lon="5.6399140">
    <ele>43.8</ele>
    <time>2020-06-14T09:23:57Z</time>
   </trkpt>
   <trkpt lat="51.1205790" lon="5.6399470">
    <ele>43.8</ele>
    <time>2020-06-14T09:23:58Z</time>
   </trkpt>
   <trkpt lat="51.1206340" lon="5.6399760">
    <ele>43.8</ele>
    <time>2020-06-14T09:23:59Z</time>
   </trkpt>
   <trkpt lat="51.1206920" lon="5.6400080">
    <ele>43.8</ele>
    <time>2020-06-14T09:24:00Z</time>
   </trkpt>
   <trkpt lat="51.1207490" lon="5.6400330">
    <ele>43.8</ele>
    <time>2020-06-14T09:24:01Z</time>
   </trkpt>
   <trkpt lat="51.1208030" lon="5.6400620">
    <ele>43.7</ele>
    <time>2020-06-14T09:24:02Z</time>
   </trkpt>
   <trkpt lat="51.1208560" lon="5.6400890">
    <ele>43.7</ele>
    <time>2020-06-14T09:24:03Z</time>
   </trkpt>
   <trkpt lat="51.1209100" lon="5.6401120">
    <ele>43.6</ele>
    <time>2020-06-14T09:24:04Z</time>
   </trkpt>
   <trkpt lat="51.1209670" lon="5.6401310">
    <ele>43.6</ele>
    <time>2020-06-14T09:24:05Z</time>
   </trkpt>
   <trkpt lat="51.1210200" lon="5.6401580">
    <ele>43.5</ele>
    <time>2020-06-14T09:24:06Z</time>
   </trkpt>
   <trkpt lat="51.1210760" lon="5.6401860">
    <ele>43.5</ele>
    <time>2020-06-14T09:24:07Z</time>
   </trkpt>
   <trkpt lat="51.1211360" lon="5.6402120">
    <ele>43.5</ele>
    <time>2020-06-14T09:24:08Z</time>
   </trkpt>
   <trkpt lat="51.1211990" lon="5.6402430">
    <ele>43.5</ele>
    <time>2020-06-14T09:24:09Z</time>
   </trkpt>
   <trkpt lat="51.1212560" lon="5.6402710">
    <ele>43.4</ele>
    <time>2020-06-14T09:24:10Z</time>
   </trkpt>
   <trkpt lat="51.1213120" lon="5.6402950">
    <ele>43.4</ele>
    <time>2020-06-14T09:24:11Z</time>
   </trkpt>
   <trkpt lat="51.1213760" lon="5.6403160">
    <ele>43.4</ele>
    <time>2020-06-14T09:24:12Z</time>
   </trkpt>
   <trkpt lat="51.1214410" lon="5.6403490">
    <ele>43.4</ele>
    <time>2020-06-14T09:24:13Z</time>
   </trkpt>
   <trkpt lat="51.1215030" lon="5.6403700">
    <ele>43.4</ele>
    <time>2020-06-14T09:24:14Z</time>
   </trkpt>
   <trkpt lat="51.1215640" lon="5.6403950">
    <ele>43.4</ele>
    <time>2020-06-14T09:24:15Z</time>
   </trkpt>
   <trkpt lat="51.1216280" lon="5.6404270">
    <ele>43.4</ele>
    <time>2020-06-14T09:24:16Z</time>
   </trkpt>
   <trkpt lat="51.1216920" lon="5.6404570">
    <ele>43.4</ele>
    <time>2020-06-14T09:24:17Z</time>
   </trkpt>
   <trkpt lat="51.1217580" lon="5.6404850">
    <ele>43.4</ele>
    <time>2020-06-14T09:24:18Z</time>
   </trkpt>
   <trkpt lat="51.1218230" lon="5.6405210">
    <ele>43.4</ele>
    <time>2020-06-14T09:24:19Z</time>
   </trkpt>
   <trkpt lat="51.1218900" lon="5.6405560">
    <ele>43.3</ele>
    <time>2020-06-14T09:24:20Z</time>
   </trkpt>
   <trkpt lat="51.1219520" lon="5.6405920">
    <ele>43.3</ele>
    <time>2020-06-14T09:24:21Z</time>
   </trkpt>
   <trkpt lat="51.1220120" lon="5.6406250">
    <ele>43.3</ele>
    <time>2020-06-14T09:24:22Z</time>
   </trkpt>
   <trkpt lat="51.1220660" lon="5.6406550">
    <ele>43.3</ele>
    <time>2020-06-14T09:24:23Z</time>
   </trkpt>
   <trkpt lat="51.1221270" lon="5.6406880">
    <ele>43.2</ele>
    <time>2020-06-14T09:24:24Z</time>
   </trkpt>
   <trkpt lat="51.1221860" lon="5.6407260">
    <ele>43.2</ele>
    <time>2020-06-14T09:24:25Z</time>
   </trkpt>
   <trkpt lat="51.1222420" lon="5.6407600">
    <ele>43.2</ele>
    <time>2020-06-14T09:24:26Z</time>
   </trkpt>
   <trkpt lat="51.1223160" lon="5.6407870">
    <ele>43.2</ele>
    <time>2020-06-14T09:24:27Z</time>
   </trkpt>
   <trkpt lat="51.1223880" lon="5.6408040">
    <ele>43.2</ele>
    <time>2020-06-14T09:24:28Z</time>
   </trkpt>
   <trkpt lat="51.1224620" lon="5.6408140">
    <ele>43.1</ele>
    <time>2020-06-14T09:24:29Z</time>
   </trkpt>
   <trkpt lat="51.1225310" lon="5.6408200">
    <ele>43.1</ele>
    <time>2020-06-14T09:24:30Z</time>
   </trkpt>
   <trkpt lat="51.1225950" lon="5.6408120">
    <ele>43.1</ele>
    <time>2020-06-14T09:24:31Z</time>
   </trkpt>
   <trkpt lat="51.1226590" lon="5.6407950">
    <ele>43.0</ele>
    <time>2020-06-14T09:24:32Z</time>
   </trkpt>
   <trkpt lat="51.1227320" lon="5.6407800">
    <ele>43.0</ele>
    <time>2020-06-14T09:24:33Z</time>
   </trkpt>
   <trkpt lat="51.1227960" lon="5.6407610">
    <ele>42.9</ele>
    <time>2020-06-14T09:24:34Z</time>
   </trkpt>
   <trkpt lat="51.1228540" lon="5.6407490">
    <ele>42.9</ele>
    <time>2020-06-14T09:24:35Z</time>
   </trkpt>
   <trkpt lat="51.1229210" lon="5.6407380">
    <ele>42.8</ele>
    <time>2020-06-14T09:24:36Z</time>
   </trkpt>
   <trkpt lat="51.1229880" lon="5.6407290">
    <ele>42.8</ele>
    <time>2020-06-14T09:24:37Z</time>
   </trkpt>
   <trkpt lat="51.1230560" lon="5.6407220">
    <ele>42.8</ele>
    <time>2020-06-14T09:24:38Z</time>
   </trkpt>
   <trkpt lat="51.1231330" lon="5.6407090">
    <ele>42.7</ele>
    <time>2020-06-14T09:24:39Z</time>
   </trkpt>
   <trkpt lat="51.1232070" lon="5.6407070">
    <ele>42.7</ele>
    <time>2020-06-14T09:24:40Z</time>
   </trkpt>
   <trkpt lat="51.1232810" lon="5.6407020">
    <ele>42.7</ele>
    <time>2020-06-14T09:24:41Z</time>
   </trkpt>
   <trkpt lat="51.1233560" lon="5.6406990">
    <ele>42.6</ele>
    <time>2020-06-14T09:24:42Z</time>
   </trkpt>
   <trkpt lat="51.1234230" lon="5.6406960">
    <ele>42.6</ele>
    <time>2020-06-14T09:24:43Z</time>
   </trkpt>
   <trkpt lat="51.1234910" lon="5.6406910">
    <ele>42.5</ele>
    <time>2020-06-14T09:24:44Z</time>
   </trkpt>
   <trkpt lat="51.1235600" lon="5.6406880">
    <ele>42.4</ele>
    <time>2020-06-14T09:24:45Z</time>
   </trkpt>
   <trkpt lat="51.1236340" lon="5.6406900">
    <ele>42.3</ele>
    <time>2020-06-14T09:24:46Z</time>
   </trkpt>
   <trkpt lat="51.1237200" lon="5.6406900">
    <ele>42.2</ele>
    <time>2020-06-14T09:24:47Z</time>
   </trkpt>
   <trkpt lat="51.1237980" lon="5.6406890">
    <ele>42.1</ele>
    <time>2020-06-14T09:24:48Z</time>
   </trkpt>
   <trkpt lat="51.1238770" lon="5.6406810">
    <ele>42.0</ele>
    <time>2020-06-14T09:24:49Z</time>
   </trkpt>
   <trkpt lat="51.1239570" lon="5.6406720">
    <ele>42.0</ele>
    <time>2020-06-14T09:24:50Z</time>
   </trkpt>
   <trkpt lat="51.1240380" lon="5.6406910">
    <ele>42.0</ele>
    <time>2020-06-14T09:24:51Z</time>
   </trkpt>
   <trkpt lat="51.1241210" lon="5.6407180">
    <ele>41.9</ele>
    <time>2020-06-14T09:24:52Z</time>
   </trkpt>
   <trkpt lat="51.1242040" lon="5.6407530">
    <ele>41.9</ele>
    <time>2020-06-14T09:24:53Z</time>
   </trkpt>
   <trkpt lat="51.1242810" lon="5.6408130">
    <ele>41.8</ele>
    <time>2020-06-14T09:24:54Z</time>
   </trkpt>
   <trkpt lat="51.1243590" lon="5.6408640">
    <ele>41.8</ele>
    <time>2020-06-14T09:24:55Z</time>
   </trkpt>
   <trkpt lat="51.1244360" lon="5.6409150">
    <ele>41.8</ele>
    <time>2020-06-14T09:24:56Z</time>
   </trkpt>
   <trkpt lat="51.1245140" lon="5.6409590">
    <ele>41.7</ele>
    <time>2020-06-14T09:24:57Z</time>
   </trkpt>
   <trkpt lat="51.1245890" lon="5.6410170">
    <ele>41.7</ele>
    <time>2020-06-14T09:24:58Z</time>
   </trkpt>
   <trkpt lat="51.1246640" lon="5.6410680">
    <ele>41.6</ele>
    <time>2020-06-14T09:24:59Z</time>
   </trkpt>
   <trkpt lat="51.1247350" lon="5.6411190">
    <ele>41.5</ele>
    <time>2020-06-14T09:25:00Z</time>
   </trkpt>
   <trkpt lat="51.1248020" lon="5.6411740">
    <ele>41.5</ele>
    <time>2020-06-14T09:25:01Z</time>
   </trkpt>
   <trkpt lat="51.1248680" lon="5.6412210">
    <ele>41.4</ele>
    <time>2020-06-14T09:25:02Z</time>
   </trkpt>
   <trkpt lat="51.1249360" lon="5.6412670">
    <ele>41.4</ele>
    <time>2020-06-14T09:25:03Z</time>
   </trkpt>
   <trkpt lat="51.1250050" lon="5.6413110">
    <ele>41.3</ele>
    <time>2020-06-14T09:25:04Z</time>
   </trkpt>
   <trkpt lat="51.1250740" lon="5.6413530">
    <ele>41.3</ele>
    <time>2020-06-14T09:25:05Z</time>
   </trkpt>
   <trkpt lat="51.1251420" lon="5.6413970">
    <ele>41.3</ele>
    <time>2020-06-14T09:25:06Z</time>
   </trkpt>
   <trkpt lat="51.1252100" lon="5.6414420">
    <ele>41.2</ele>
    <time>2020-06-14T09:25:07Z</time>
   </trkpt>
   <trkpt lat="51.1252800" lon="5.6414850">
    <ele>41.2</ele>
    <time>2020-06-14T09:25:08Z</time>
   </trkpt>
   <trkpt lat="51.1253490" lon="5.6415260">
    <ele>41.1</ele>
    <time>2020-06-14T09:25:09Z</time>
   </trkpt>
   <trkpt lat="51.1254160" lon="5.6415660">
    <ele>41.1</ele>
    <time>2020-06-14T09:25:10Z</time>
   </trkpt>
   <trkpt lat="51.1254800" lon="5.6416090">
    <ele>41.0</ele>
    <time>2020-06-14T09:25:11Z</time>
   </trkpt>
   <trkpt lat="51.1255420" lon="5.6416490">
    <ele>41.0</ele>
    <time>2020-06-14T09:25:12Z</time>
   </trkpt>
   <trkpt lat="51.1256020" lon="5.6416920">
    <ele>41.0</ele>
    <time>2020-06-14T09:25:13Z</time>
   </trkpt>
   <trkpt lat="51.1256600" lon="5.6417270">
    <ele>41.0</ele>
    <time>2020-06-14T09:25:14Z</time>
   </trkpt>
   <trkpt lat="51.1257140" lon="5.6417540">
    <ele>41.0</ele>
    <time>2020-06-14T09:25:15Z</time>
   </trkpt>
   <trkpt lat="51.1257590" lon="5.6417830">
    <ele>41.0</ele>
    <time>2020-06-14T09:25:16Z</time>
   </trkpt>
   <trkpt lat="51.1258020" lon="5.6418100">
    <ele>41.0</ele>
    <time>2020-06-14T09:25:17Z</time>
   </trkpt>
   <trkpt lat="51.1258530" lon="5.6418410">
    <ele>41.0</ele>
    <time>2020-06-14T09:25:18Z</time>
   </trkpt>
   <trkpt lat="51.1258990" lon="5.6418880">
    <ele>41.0</ele>
    <time>2020-06-14T09:25:19Z</time>
   </trkpt>
   <trkpt lat="51.1259330" lon="5.6419470">
    <ele>41.0</ele>
    <time>2020-06-14T09:25:20Z</time>
   </trkpt>
   <trkpt lat="51.1259400" lon="5.6420150">
    <ele>41.0</ele>
    <time>2020-06-14T09:25:21Z</time>
   </trkpt>
   <trkpt lat="51.1259200" lon="5.6420750">
    <ele>41.0</ele>
    <time>2020-06-14T09:25:22Z</time>
   </trkpt>
   <trkpt lat="51.1258960" lon="5.6421440">
    <ele>41.0</ele>
    <time>2020-06-14T09:25:23Z</time>
   </trkpt>
   <trkpt lat="51.1258600" lon="5.6422060">
    <ele>41.0</ele>
    <time>2020-06-14T09:25:24Z</time>
   </trkpt>
   <trkpt lat="51.1258060" lon="5.6422630">
    <ele>41.0</ele>
    <time>2020-06-14T09:25:25Z</time>
   </trkpt>
   <trkpt lat="51.1257480" lon="5.6423290">
    <ele>41.1</ele>
    <time>2020-06-14T09:25:26Z</time>
   </trkpt>
   <trkpt lat="51.1256900" lon="5.6424020">
    <ele>41.1</ele>
    <time>2020-06-14T09:25:27Z</time>
   </trkpt>
   <trkpt lat="51.1256290" lon="5.6424730">
    <ele>41.2</ele>
    <time>2020-06-14T09:25:28Z</time>
   </trkpt>
   <trkpt lat="51.1255360" lon="5.6424850">
    <ele>41.3</ele>
    <time>2020-06-14T09:25:29Z</time>
   </trkpt>
   <trkpt lat="51.1254670" lon="5.6425540">
    <ele>41.4</ele>
    <time>2020-06-14T09:25:30Z</time>
   </trkpt>
   <trkpt lat="51.1253960" lon="5.6426230">
    <ele>41.5</ele>
    <time>2020-06-14T09:25:31Z</time>
   </trkpt>
   <trkpt lat="51.1253240" lon="5.6426950">
    <ele>41.6</ele>
    <time>2020-06-14T09:25:32Z</time>
   </trkpt>
   <trkpt lat="51.1252490" lon="5.6427620">
    <ele>41.7</ele>
    <time>2020-06-14T09:25:33Z</time>
   </trkpt>
   <trkpt lat="51.1251740" lon="5.6428250">
    <ele>41.7</ele>
    <time>2020-06-14T09:25:34Z</time>
   </trkpt>
   <trkpt lat="51.1250960" lon="5.6428860">
    <ele>41.8</ele>
    <time>2020-06-14T09:25:35Z</time>
   </trkpt>
   <trkpt lat="51.1250210" lon="5.6429460">
    <ele>41.9</ele>
    <time>2020-06-14T09:25:36Z</time>
   </trkpt>
   <trkpt lat="51.1249440" lon="5.6429870">
    <ele>41.9</ele>
    <time>2020-06-14T09:25:37Z</time>
   </trkpt>
   <trkpt lat="51.1248780" lon="5.6430390">
    <ele>42.0</ele>
    <time>2020-06-14T09:25:38Z</time>
   </trkpt>
   <trkpt lat="51.1248090" lon="5.6430900">
    <ele>42.1</ele>
    <time>2020-06-14T09:25:39Z</time>
   </trkpt>
   <trkpt lat="51.1247390" lon="5.6431410">
    <ele>42.2</ele>
    <time>2020-06-14T09:25:40Z</time>
   </trkpt>
   <trkpt lat="51.1246680" lon="5.6431820">
    <ele>42.3</ele>
    <time>2020-06-14T09:25:41Z</time>
   </trkpt>
   <trkpt lat="51.1245940" lon="5.6432240">
    <ele>42.4</ele>
    <time>2020-06-14T09:25:42Z</time>
   </trkpt>
   <trkpt lat="51.1245260" lon="5.6432760">
    <ele>42.5</ele>
    <time>2020-06-14T09:25:43Z</time>
   </trkpt>
   <trkpt lat="51.1244690" lon="5.6433470">
    <ele>42.6</ele>
    <time>2020-06-14T09:25:44Z</time>
   </trkpt>
   <trkpt lat="51.1244220" lon="5.6434380">
    <ele>42.7</ele>
    <time>2020-06-14T09:25:45Z</time>
   </trkpt>
   <trkpt lat="51.1243720" lon="5.6435290">
    <ele>42.8</ele>
    <time>2020-06-14T09:25:46Z</time>
   </trkpt>
   <trkpt lat="51.1243180" lon="5.6436060">
    <ele>42.8</ele>
    <time>2020-06-14T09:25:47Z</time>
   </trkpt>
   <trkpt lat="51.1242640" lon="5.6436830">
    <ele>42.9</ele>
    <time>2020-06-14T09:25:48Z</time>
   </trkpt>
   <trkpt lat="51.1242130" lon="5.6437650">
    <ele>42.9</ele>
    <time>2020-06-14T09:25:49Z</time>
   </trkpt>
   <trkpt lat="51.1241630" lon="5.6438560">
    <ele>43.0</ele>
    <time>2020-06-14T09:25:51Z</time>
   </trkpt>
   <trkpt lat="51.1241120" lon="5.6439440">
    <ele>43.0</ele>
    <time>2020-06-14T09:25:52Z</time>
   </trkpt>
   <trkpt lat="51.1240600" lon="5.6440300">
    <ele>43.1</ele>
    <time>2020-06-14T09:25:53Z</time>
   </trkpt>
   <trkpt lat="51.1240070" lon="5.6441200">
    <ele>43.1</ele>
    <time>2020-06-14T09:25:54Z</time>
   </trkpt>
   <trkpt lat="51.1239510" lon="5.6442050">
    <ele>43.1</ele>
    <time>2020-06-14T09:25:55Z</time>
   </trkpt>
   <trkpt lat="51.1238940" lon="5.6442940">
    <ele>43.1</ele>
    <time>2020-06-14T09:25:56Z</time>
   </trkpt>
   <trkpt lat="51.1238350" lon="5.6443810">
    <ele>43.1</ele>
    <time>2020-06-14T09:25:57Z</time>
   </trkpt>
   <trkpt lat="51.1237760" lon="5.6444620">
    <ele>43.1</ele>
    <time>2020-06-14T09:25:58Z</time>
   </trkpt>
   <trkpt lat="51.1237110" lon="5.6445420">
    <ele>43.0</ele>
    <time>2020-06-14T09:25:59Z</time>
   </trkpt>
   <trkpt lat="51.1236440" lon="5.6446170">
    <ele>43.0</ele>
    <time>2020-06-14T09:26:00Z</time>
   </trkpt>
   <trkpt lat="51.1235870" lon="5.6446980">
    <ele>43.1</ele>
    <time>2020-06-14T09:26:01Z</time>
   </trkpt>
   <trkpt lat="51.1235240" lon="5.6447780">
    <ele>43.1</ele>
    <time>2020-06-14T09:26:02Z</time>
   </trkpt>
   <trkpt lat="51.1234630" lon="5.6448580">
    <ele>43.1</ele>
    <time>2020-06-14T09:26:03Z</time>
   </trkpt>
   <trkpt lat="51.1234000" lon="5.6449300">
    <ele>43.1</ele>
    <time>2020-06-14T09:26:04Z</time>
   </trkpt>
   <trkpt lat="51.1233370" lon="5.6450060">
    <ele>43.0</ele>
    <time>2020-06-14T09:26:05Z</time>
   </trkpt>
   <trkpt lat="51.1232780" lon="5.6450860">
    <ele>43.0</ele>
    <time>2020-06-14T09:26:06Z</time>
   </trkpt>
   <trkpt lat="51.1232210" lon="5.6451650">
    <ele>43.0</ele>
    <time>2020-06-14T09:26:07Z</time>
   </trkpt>
   <trkpt lat="51.1231690" lon="5.6452530">
    <ele>42.6</ele>
    <time>2020-06-14T09:26:08Z</time>
   </trkpt>
   <trkpt lat="51.1231360" lon="5.6453570">
    <ele>42.4</ele>
    <time>2020-06-14T09:26:09Z</time>
   </trkpt>
   <trkpt lat="51.1231150" lon="5.6454720">
    <ele>42.2</ele>
    <time>2020-06-14T09:26:10Z</time>
   </trkpt>
   <trkpt lat="51.1231050" lon="5.6455930">
    <ele>42.0</ele>
    <time>2020-06-14T09:26:11Z</time>
   </trkpt>
   <trkpt lat="51.1230970" lon="5.6457150">
    <ele>41.9</ele>
    <time>2020-06-14T09:26:12Z</time>
   </trkpt>
   <trkpt lat="51.1230890" lon="5.6458390">
    <ele>41.7</ele>
    <time>2020-06-14T09:26:13Z</time>
   </trkpt>
   <trkpt lat="51.1230800" lon="5.6459660">
    <ele>41.6</ele>
    <time>2020-06-14T09:26:14Z</time>
   </trkpt>
   <trkpt lat="51.1230790" lon="5.6460950">
    <ele>41.5</ele>
    <time>2020-06-14T09:26:15Z</time>
   </trkpt>
   <trkpt lat="51.1230820" lon="5.6462160">
    <ele>41.4</ele>
    <time>2020-06-14T09:26:16Z</time>
   </trkpt>
   <trkpt lat="51.1230840" lon="5.6463370">
    <ele>41.2</ele>
    <time>2020-06-14T09:26:17Z</time>
   </trkpt>
   <trkpt lat="51.1230890" lon="5.6464590">
    <ele>41.1</ele>
    <time>2020-06-14T09:26:18Z</time>
   </trkpt>
   <trkpt lat="51.1230960" lon="5.6465770">
    <ele>41.0</ele>
    <time>2020-06-14T09:26:19Z</time>
   </trkpt>
   <trkpt lat="51.1231070" lon="5.6466950">
    <ele>40.9</ele>
    <time>2020-06-14T09:26:20Z</time>
   </trkpt>
   <trkpt lat="51.1231150" lon="5.6468170">
    <ele>40.7</ele>
    <time>2020-06-14T09:26:21Z</time>
   </trkpt>
   <trkpt lat="51.1231220" lon="5.6469430">
    <ele>40.6</ele>
    <time>2020-06-14T09:26:22Z</time>
   </trkpt>
   <trkpt lat="51.1232040" lon="5.6470720">
    <ele>40.5</ele>
    <time>2020-06-14T09:26:23Z</time>
   </trkpt>
   <trkpt lat="51.1232090" lon="5.6471990">
    <ele>40.4</ele>
    <time>2020-06-14T09:26:24Z</time>
   </trkpt>
   <trkpt lat="51.1232120" lon="5.6473280">
    <ele>40.3</ele>
    <time>2020-06-14T09:26:25Z</time>
   </trkpt>
   <trkpt lat="51.1232180" lon="5.6474560">
    <ele>40.2</ele>
    <time>2020-06-14T09:26:26Z</time>
   </trkpt>
   <trkpt lat="51.1232180" lon="5.6475860">
    <ele>40.0</ele>
    <time>2020-06-14T09:26:27Z</time>
   </trkpt>
   <trkpt lat="51.1232180" lon="5.6477190">
    <ele>39.9</ele>
    <time>2020-06-14T09:26:28Z</time>
   </trkpt>
   <trkpt lat="51.1232210" lon="5.6478470">
    <ele>39.7</ele>
    <time>2020-06-14T09:26:29Z</time>
   </trkpt>
   <trkpt lat="51.1232190" lon="5.6479760">
    <ele>39.6</ele>
    <time>2020-06-14T09:26:30Z</time>
   </trkpt>
   <trkpt lat="51.1232140" lon="5.6481070">
    <ele>39.5</ele>
    <time>2020-06-14T09:26:31Z</time>
   </trkpt>
   <trkpt lat="51.1232060" lon="5.6482350">
    <ele>39.4</ele>
    <time>2020-06-14T09:26:32Z</time>
   </trkpt>
   <trkpt lat="51.1231910" lon="5.6483610">
    <ele>39.2</ele>
    <time>2020-06-14T09:26:33Z</time>
   </trkpt>
   <trkpt lat="51.1231720" lon="5.6484900">
    <ele>39.1</ele>
    <time>2020-06-14T09:26:34Z</time>
   </trkpt>
   <trkpt lat="51.1231410" lon="5.6486150">
    <ele>39.0</ele>
    <time>2020-06-14T09:26:35Z</time>
   </trkpt>
   <trkpt lat="51.1230420" lon="5.6486860">
    <ele>38.9</ele>
    <time>2020-06-14T09:26:36Z</time>
   </trkpt>
   <trkpt lat="51.1229850" lon="5.6487830">
    <ele>38.9</ele>
    <time>2020-06-14T09:26:37Z</time>
   </trkpt>
   <trkpt lat="51.1229360" lon="5.6488830">
    <ele>38.9</ele>
    <time>2020-06-14T09:26:38Z</time>
   </trkpt>
   <trkpt lat="51.1228890" lon="5.6489760">
    <ele>38.9</ele>
    <time>2020-06-14T09:26:39Z</time>
   </trkpt>
   <trkpt lat="51.1228460" lon="5.6490690">
    <ele>38.9</ele>
    <time>2020-06-14T09:26:40Z</time>
   </trkpt>
   <trkpt lat="51.1228060" lon="5.6491640">
    <ele>38.9</ele>
    <time>2020-06-14T09:26:41Z</time>
   </trkpt>
   <trkpt lat="51.1227690" lon="5.6492540">
    <ele>38.9</ele>
    <time>2020-06-14T09:26:42Z</time>
   </trkpt>
   <trkpt lat="51.1227310" lon="5.6493410">
    <ele>39.0</ele>
    <time>2020-06-14T09:26:43Z</time>
   </trkpt>
   <trkpt lat="51.1226950" lon="5.6494270">
    <ele>39.0</ele>
    <time>2020-06-14T09:26:44Z</time>
   </trkpt>
   <trkpt lat="51.1226560" lon="5.6495080">
    <ele>39.1</ele>
    <time>2020-06-14T09:26:45Z</time>
   </trkpt>
   <trkpt lat="51.1226190" lon="5.6495850">
    <ele>39.2</ele>
    <time>2020-06-14T09:26:46Z</time>
   </trkpt>
   <trkpt lat="51.1225860" lon="5.6496570">
    <ele>39.4</ele>
    <time>2020-06-14T09:26:47Z</time>
   </trkpt>
   <trkpt lat="51.1225570" lon="5.6497230">
    <ele>39.5</ele>
    <time>2020-06-14T09:26:48Z</time>
   </trkpt>
   <trkpt lat="51.1225280" lon="5.6497900">
    <ele>39.7</ele>
    <time>2020-06-14T09:26:49Z</time>
   </trkpt>
   <trkpt lat="51.1224950" lon="5.6498540">
    <ele>39.8</ele>
    <time>2020-06-14T09:26:50Z</time>
   </trkpt>
   <trkpt lat="51.1224710" lon="5.6499220">
    <ele>40.0</ele>
    <time>2020-06-14T09:26:51Z</time>
   </trkpt>
   <trkpt lat="51.1224510" lon="5.6499830">
    <ele>40.2</ele>
    <time>2020-06-14T09:26:52Z</time>
   </trkpt>
   <trkpt lat="51.1224480" lon="5.6500350">
    <ele>40.2</ele>
    <time>2020-06-14T09:26:53Z</time>
   </trkpt>
   <trkpt lat="51.1224730" lon="5.6500820">
    <ele>40.2</ele>
    <time>2020-06-14T09:26:54Z</time>
   </trkpt>
   <trkpt lat="51.1225170" lon="5.6500960">
    <ele>40.1</ele>
    <time>2020-06-14T09:26:55Z</time>
   </trkpt>
   <trkpt lat="51.1225760" lon="5.6500850">
    <ele>40.1</ele>
    <time>2020-06-14T09:26:56Z</time>
   </trkpt>
   <trkpt lat="51.1226390" lon="5.6500710">
    <ele>40.0</ele>
    <time>2020-06-14T09:26:57Z</time>
   </trkpt>
   <trkpt lat="51.1227010" lon="5.6500780">
    <ele>40.0</ele>
    <time>2020-06-14T09:26:58Z</time>
   </trkpt>
   <trkpt lat="51.1227660" lon="5.6500970">
    <ele>40.0</ele>
    <time>2020-06-14T09:26:59Z</time>
   </trkpt>
   <trkpt lat="51.1228330" lon="5.6501090">
    <ele>40.0</ele>
    <time>2020-06-14T09:27:00Z</time>
   </trkpt>
   <trkpt lat="51.1229140" lon="5.6500180">
    <ele>40.1</ele>
    <time>2020-06-14T09:27:01Z</time>
   </trkpt>
   <trkpt lat="51.1229860" lon="5.6500170">
    <ele>40.2</ele>
    <time>2020-06-14T09:27:02Z</time>
   </trkpt>
   <trkpt lat="51.1230590" lon="5.6500140">
    <ele>40.3</ele>
    <time>2020-06-14T09:27:03Z</time>
   </trkpt>
   <trkpt lat="51.1231380" lon="5.6500120">
    <ele>40.4</ele>
    <time>2020-06-14T09:27:04Z</time>
   </trkpt>
   <trkpt lat="51.1232180" lon="5.6500430">
    <ele>40.6</ele>
    <time>2020-06-14T09:27:05Z</time>
   </trkpt>
   <trkpt lat="51.1233000" lon="5.6500840">
    <ele>40.8</ele>
    <time>2020-06-14T09:27:06Z</time>
   </trkpt>
   <trkpt lat="51.1233780" lon="5.6501270">
    <ele>41.0</ele>
    <time>2020-06-14T09:27:07Z</time>
   </trkpt>
   <trkpt lat="51.1234520" lon="5.6501690">
    <ele>41.3</ele>
    <time>2020-06-14T09:27:08Z</time>
   </trkpt>
   <trkpt lat="51.1235230" lon="5.6502140">
    <ele>41.6</ele>
    <time>2020-06-14T09:27:09Z</time>
   </trkpt>
   <trkpt lat="51.1235810" lon="5.6503000">
    <ele>42.0</ele>
    <time>2020-06-14T09:27:10Z</time>
   </trkpt>
   <trkpt lat="51.1236400" lon="5.6503700">
    <ele>42.3</ele>
    <time>2020-06-14T09:27:11Z</time>
   </trkpt>
   <trkpt lat="51.1237010" lon="5.6504240">
    <ele>42.6</ele>
    <time>2020-06-14T09:27:12Z</time>
   </trkpt>
   <trkpt lat="51.1237620" lon="5.6504800">
    <ele>42.9</ele>
    <time>2020-06-14T09:27:13Z</time>
   </trkpt>
   <trkpt lat="51.1238200" lon="5.6505330">
    <ele>43.2</ele>
    <time>2020-06-14T09:27:14Z</time>
   </trkpt>
   <trkpt lat="51.1238720" lon="5.6505900">
    <ele>43.4</ele>
    <time>2020-06-14T09:27:15Z</time>
   </trkpt>
   <trkpt lat="51.1239260" lon="5.6506500">
    <ele>43.7</ele>
    <time>2020-06-14T09:27:16Z</time>
   </trkpt>
   <trkpt lat="51.1239820" lon="5.6507110">
    <ele>44.0</ele>
    <time>2020-06-14T09:27:17Z</time>
   </trkpt>
   <trkpt lat="51.1240340" lon="5.6507660">
    <ele>44.3</ele>
    <time>2020-06-14T09:27:18Z</time>
   </trkpt>
   <trkpt lat="51.1240850" lon="5.6508190">
    <ele>44.6</ele>
    <time>2020-06-14T09:27:19Z</time>
   </trkpt>
   <trkpt lat="51.1241370" lon="5.6508700">
    <ele>45.0</ele>
    <time>2020-06-14T09:27:20Z</time>
   </trkpt>
   <trkpt lat="51.1242030" lon="5.6509440">
    <ele>45.4</ele>
    <time>2020-06-14T09:27:21Z</time>
   </trkpt>
   <trkpt lat="51.1242550" lon="5.6510300">
    <ele>45.8</ele>
    <time>2020-06-14T09:27:22Z</time>
   </trkpt>
   <trkpt lat="51.1243090" lon="5.6510980">
    <ele>46.2</ele>
    <time>2020-06-14T09:27:23Z</time>
   </trkpt>
   <trkpt lat="51.1243560" lon="5.6511670">
    <ele>46.5</ele>
    <time>2020-06-14T09:27:24Z</time>
   </trkpt>
   <trkpt lat="51.1244050" lon="5.6512350">
    <ele>46.8</ele>
    <time>2020-06-14T09:27:25Z</time>
   </trkpt>
   <trkpt lat="51.1244550" lon="5.6513050">
    <ele>47.0</ele>
    <time>2020-06-14T09:27:26Z</time>
   </trkpt>
   <trkpt lat="51.1245020" lon="5.6513680">
    <ele>47.2</ele>
    <time>2020-06-14T09:27:27Z</time>
   </trkpt>
   <trkpt lat="51.1245550" lon="5.6514430">
    <ele>47.4</ele>
    <time>2020-06-14T09:27:28Z</time>
   </trkpt>
   <trkpt lat="51.1246100" lon="5.6515200">
    <ele>47.5</ele>
    <time>2020-06-14T09:27:29Z</time>
   </trkpt>
   <trkpt lat="51.1246580" lon="5.6515860">
    <ele>47.6</ele>
    <time>2020-06-14T09:27:30Z</time>
   </trkpt>
   <trkpt lat="51.1247000" lon="5.6516450">
    <ele>47.7</ele>
    <time>2020-06-14T09:27:31Z</time>
   </trkpt>
   <trkpt lat="51.1247510" lon="5.6517080">
    <ele>47.8</ele>
    <time>2020-06-14T09:27:32Z</time>
   </trkpt>
   <trkpt lat="51.1247930" lon="5.6517620">
    <ele>47.9</ele>
    <time>2020-06-14T09:27:33Z</time>
   </trkpt>
   <trkpt lat="51.1248370" lon="5.6518240">
    <ele>48.0</ele>
    <time>2020-06-14T09:27:34Z</time>
   </trkpt>
   <trkpt lat="51.1248800" lon="5.6518980">
    <ele>48.0</ele>
    <time>2020-06-14T09:27:35Z</time>
   </trkpt>
   <trkpt lat="51.1249300" lon="5.6519600">
    <ele>48.1</ele>
    <time>2020-06-14T09:27:36Z</time>
   </trkpt>
   <trkpt lat="51.1249720" lon="5.6520160">
    <ele>48.1</ele>
    <time>2020-06-14T09:27:37Z</time>
   </trkpt>
   <trkpt lat="51.1250220" lon="5.6520830">
    <ele>48.1</ele>
    <time>2020-06-14T09:27:38Z</time>
   </trkpt>
   <trkpt lat="51.1250620" lon="5.6521350">
    <ele>48.0</ele>
    <time>2020-06-14T09:27:39Z</time>
   </trkpt>
   <trkpt lat="51.1251040" lon="5.6521910">
    <ele>48.0</ele>
    <time>2020-06-14T09:27:40Z</time>
   </trkpt>
   <trkpt lat="51.1251480" lon="5.6522500">
    <ele>47.9</ele>
    <time>2020-06-14T09:27:41Z</time>
   </trkpt>
   <trkpt lat="51.1251920" lon="5.6523140">
    <ele>47.9</ele>
    <time>2020-06-14T09:27:42Z</time>
   </trkpt>
   <trkpt lat="51.1252380" lon="5.6523860">
    <ele>47.8</ele>
    <time>2020-06-14T09:27:43Z</time>
   </trkpt>
   <trkpt lat="51.1252800" lon="5.6524490">
    <ele>47.7</ele>
    <time>2020-06-14T09:27:44Z</time>
   </trkpt>
   <trkpt lat="51.1253200" lon="5.6525210">
    <ele>47.7</ele>
    <time>2020-06-14T09:27:45Z</time>
   </trkpt>
   <trkpt lat="51.1253660" lon="5.6525990">
    <ele>47.6</ele>
    <time>2020-06-14T09:27:46Z</time>
   </trkpt>
   <trkpt lat="51.1254150" lon="5.6526760">
    <ele>47.2</ele>
    <time>2020-06-14T09:27:47Z</time>
   </trkpt>
   <trkpt lat="51.1254660" lon="5.6527590">
    <ele>46.8</ele>
    <time>2020-06-14T09:27:48Z</time>
   </trkpt>
   <trkpt lat="51.1255130" lon="5.6528380">
    <ele>46.4</ele>
    <time>2020-06-14T09:27:49Z</time>
   </trkpt>
   <trkpt lat="51.1255690" lon="5.6529430">
    <ele>45.9</ele>
    <time>2020-06-14T09:27:50Z</time>
   </trkpt>
   <trkpt lat="51.1256170" lon="5.6530360">
    <ele>45.5</ele>
    <time>2020-06-14T09:27:51Z</time>
   </trkpt>
   <trkpt lat="51.1256670" lon="5.6531410">
    <ele>45.0</ele>
    <time>2020-06-14T09:27:52Z</time>
   </trkpt>
   <trkpt lat="51.1257200" lon="5.6532580">
    <ele>44.6</ele>
    <time>2020-06-14T09:27:53Z</time>
   </trkpt>
   <trkpt lat="51.1257680" lon="5.6533830">
    <ele>44.1</ele>
    <time>2020-06-14T09:27:54Z</time>
   </trkpt>
   <trkpt lat="51.1258180" lon="5.6535090">
    <ele>43.7</ele>
    <time>2020-06-14T09:27:55Z</time>
   </trkpt>
   <trkpt lat="51.1258670" lon="5.6536400">
    <ele>43.3</ele>
    <time>2020-06-14T09:27:56Z</time>
   </trkpt>
   <trkpt lat="51.1259110" lon="5.6537730">
    <ele>42.9</ele>
    <time>2020-06-14T09:27:57Z</time>
   </trkpt>
   <trkpt lat="51.1259500" lon="5.6539110">
    <ele>42.5</ele>
    <time>2020-06-14T09:27:58Z</time>
   </trkpt>
   <trkpt lat="51.1259880" lon="5.6540540">
    <ele>42.0</ele>
    <time>2020-06-14T09:27:59Z</time>
   </trkpt>
   <trkpt lat="51.1260270" lon="5.6542010">
    <ele>41.6</ele>
    <time>2020-06-14T09:28:00Z</time>
   </trkpt>
   <trkpt lat="51.1260650" lon="5.6543470">
    <ele>41.2</ele>
    <time>2020-06-14T09:28:01Z</time>
   </trkpt>
   <trkpt lat="51.1261050" lon="5.6544870">
    <ele>40.9</ele>
    <time>2020-06-14T09:28:02Z</time>
   </trkpt>
   <trkpt lat="51.1261460" lon="5.6546340">
    <ele>40.5</ele>
    <time>2020-06-14T09:28:03Z</time>
   </trkpt>
   <trkpt lat="51.1261890" lon="5.6547890">
    <ele>40.2</ele>
    <time>2020-06-14T09:28:04Z</time>
   </trkpt>
   <trkpt lat="51.1262300" lon="5.6549560">
    <ele>39.8</ele>
    <time>2020-06-14T09:28:05Z</time>
   </trkpt>
   <trkpt lat="51.1262720" lon="5.6551160">
    <ele>39.5</ele>
    <time>2020-06-14T09:28:06Z</time>
   </trkpt>
   <trkpt lat="51.1263170" lon="5.6552670">
    <ele>39.2</ele>
    <time>2020-06-14T09:28:07Z</time>
   </trkpt>
   <trkpt lat="51.1263650" lon="5.6554230">
    <ele>38.9</ele>
    <time>2020-06-14T09:28:08Z</time>
   </trkpt>
   <trkpt lat="51.1264120" lon="5.6555760">
    <ele>38.7</ele>
    <time>2020-06-14T09:28:09Z</time>
   </trkpt>
   <trkpt lat="51.1264580" lon="5.6557280">
    <ele>38.5</ele>
    <time>2020-06-14T09:28:10Z</time>
   </trkpt>
   <trkpt lat="51.1265140" lon="5.6558960">
    <ele>38.4</ele>
    <time>2020-06-14T09:28:11Z</time>
   </trkpt>
   <trkpt lat="51.1265630" lon="5.6560640">
    <ele>38.3</ele>
    <time>2020-06-14T09:28:12Z</time>
   </trkpt>
   <trkpt lat="51.1266160" lon="5.6562070">
    <ele>38.2</ele>
    <time>2020-06-14T09:28:13Z</time>
   </trkpt>
   <trkpt lat="51.1266660" lon="5.6563460">
    <ele>38.1</ele>
    <time>2020-06-14T09:28:14Z</time>
   </trkpt>
   <trkpt lat="51.1267250" lon="5.6564700">
    <ele>38.0</ele>
    <time>2020-06-14T09:28:15Z</time>
   </trkpt>
   <trkpt lat="51.1267770" lon="5.6566010">
    <ele>38.0</ele>
    <time>2020-06-14T09:28:16Z</time>
   </trkpt>
   <trkpt lat="51.1268240" lon="5.6567270">
    <ele>38.0</ele>
    <time>2020-06-14T09:28:17Z</time>
   </trkpt>
   <trkpt lat="51.1268760" lon="5.6568540">
    <ele>38.0</ele>
    <time>2020-06-14T09:28:18Z</time>
   </trkpt>
   <trkpt lat="51.1269260" lon="5.6569820">
    <ele>38.0</ele>
    <time>2020-06-14T09:28:19Z</time>
   </trkpt>
   <trkpt lat="51.1269770" lon="5.6571100">
    <ele>37.9</ele>
    <time>2020-06-14T09:28:20Z</time>
   </trkpt>
   <trkpt lat="51.1270310" lon="5.6572350">
    <ele>37.9</ele>
    <time>2020-06-14T09:28:21Z</time>
   </trkpt>
   <trkpt lat="51.1270800" lon="5.6573500">
    <ele>37.9</ele>
    <time>2020-06-14T09:28:22Z</time>
   </trkpt>
   <trkpt lat="51.1271270" lon="5.6574690">
    <ele>37.9</ele>
    <time>2020-06-14T09:28:23Z</time>
   </trkpt>
   <trkpt lat="51.1271780" lon="5.6575870">
    <ele>37.9</ele>
    <time>2020-06-14T09:28:24Z</time>
   </trkpt>
   <trkpt lat="51.1272270" lon="5.6577060">
    <ele>37.9</ele>
    <time>2020-06-14T09:28:25Z</time>
   </trkpt>
   <trkpt lat="51.1272780" lon="5.6578180">
    <ele>37.9</ele>
    <time>2020-06-14T09:28:26Z</time>
   </trkpt>
   <trkpt lat="51.1273270" lon="5.6579300">
    <ele>37.9</ele>
    <time>2020-06-14T09:28:27Z</time>
   </trkpt>
   <trkpt lat="51.1273770" lon="5.6580430">
    <ele>38.0</ele>
    <time>2020-06-14T09:28:28Z</time>
   </trkpt>
   <trkpt lat="51.1274270" lon="5.6581620">
    <ele>38.0</ele>
    <time>2020-06-14T09:28:29Z</time>
   </trkpt>
   <trkpt lat="51.1274780" lon="5.6582760">
    <ele>38.1</ele>
    <time>2020-06-14T09:28:30Z</time>
   </trkpt>
   <trkpt lat="51.1275160" lon="5.6583940">
    <ele>38.1</ele>
    <time>2020-06-14T09:28:31Z</time>
   </trkpt>
   <trkpt lat="51.1275670" lon="5.6584940">
    <ele>38.1</ele>
    <time>2020-06-14T09:28:32Z</time>
   </trkpt>
   <trkpt lat="51.1276140" lon="5.6585990">
    <ele>38.0</ele>
    <time>2020-06-14T09:28:33Z</time>
   </trkpt>
   <trkpt lat="51.1276610" lon="5.6587030">
    <ele>38.0</ele>
    <time>2020-06-14T09:28:34Z</time>
   </trkpt>
   <trkpt lat="51.1277120" lon="5.6588040">
    <ele>37.9</ele>
    <time>2020-06-14T09:28:35Z</time>
   </trkpt>
   <trkpt lat="51.1277640" lon="5.6589000">
    <ele>37.9</ele>
    <time>2020-06-14T09:28:36Z</time>
   </trkpt>
   <trkpt lat="51.1278180" lon="5.6589950">
    <ele>37.9</ele>
    <time>2020-06-14T09:28:37Z</time>
   </trkpt>
   <trkpt lat="51.1278730" lon="5.6590860">
    <ele>37.9</ele>
    <time>2020-06-14T09:28:38Z</time>
   </trkpt>
   <trkpt lat="51.1279210" lon="5.6591830">
    <ele>37.9</ele>
    <time>2020-06-14T09:28:39Z</time>
   </trkpt>
   <trkpt lat="51.1279670" lon="5.6592810">
    <ele>37.9</ele>
    <time>2020-06-14T09:28:40Z</time>
   </trkpt>
   <trkpt lat="51.1280080" lon="5.6593770">
    <ele>37.9</ele>
    <time>2020-06-14T09:28:41Z</time>
   </trkpt>
   <trkpt lat="51.1280500" lon="5.6594770">
    <ele>37.9</ele>
    <time>2020-06-14T09:28:42Z</time>
   </trkpt>
   <trkpt lat="51.1280920" lon="5.6595770">
    <ele>37.8</ele>
    <time>2020-06-14T09:28:43Z</time>
   </trkpt>
   <trkpt lat="51.1281360" lon="5.6596760">
    <ele>37.8</ele>
    <time>2020-06-14T09:28:44Z</time>
   </trkpt>
   <trkpt lat="51.1281840" lon="5.6597770">
    <ele>37.8</ele>
    <time>2020-06-14T09:28:45Z</time>
   </trkpt>
   <trkpt lat="51.1282200" lon="5.6598880">
    <ele>37.7</ele>
    <time>2020-06-14T09:28:46Z</time>
   </trkpt>
   <trkpt lat="51.1282610" lon="5.6599980">
    <ele>37.7</ele>
    <time>2020-06-14T09:28:47Z</time>
   </trkpt>
   <trkpt lat="51.1283010" lon="5.6601040">
    <ele>37.7</ele>
    <time>2020-06-14T09:28:48Z</time>
   </trkpt>
   <trkpt lat="51.1283360" lon="5.6602090">
    <ele>37.7</ele>
    <time>2020-06-14T09:28:49Z</time>
   </trkpt>
   <trkpt lat="51.1283670" lon="5.6603180">
    <ele>37.8</ele>
    <time>2020-06-14T09:28:50Z</time>
   </trkpt>
   <trkpt lat="51.1284000" lon="5.6604250">
    <ele>37.7</ele>
    <time>2020-06-14T09:28:51Z</time>
   </trkpt>
   <trkpt lat="51.1284260" lon="5.6605370">
    <ele>37.7</ele>
    <time>2020-06-14T09:28:52Z</time>
   </trkpt>
   <trkpt lat="51.1284540" lon="5.6606490">
    <ele>37.7</ele>
    <time>2020-06-14T09:28:53Z</time>
   </trkpt>
   <trkpt lat="51.1284650" lon="5.6607630">
    <ele>37.7</ele>
    <time>2020-06-14T09:28:54Z</time>
   </trkpt>
   <trkpt lat="51.1284870" lon="5.6608750">
    <ele>37.8</ele>
    <time>2020-06-14T09:28:55Z</time>
   </trkpt>
   <trkpt lat="51.1285050" lon="5.6609870">
    <ele>37.8</ele>
    <time>2020-06-14T09:28:56Z</time>
   </trkpt>
   <trkpt lat="51.1285270" lon="5.6610950">
    <ele>37.9</ele>
    <time>2020-06-14T09:28:57Z</time>
   </trkpt>
   <trkpt lat="51.1285480" lon="5.6612030">
    <ele>37.9</ele>
    <time>2020-06-14T09:28:58Z</time>
   </trkpt>
   <trkpt lat="51.1285700" lon="5.6613090">
    <ele>37.9</ele>
    <time>2020-06-14T09:28:59Z</time>
   </trkpt>
   <trkpt lat="51.1285930" lon="5.6614250">
    <ele>38.0</ele>
    <time>2020-06-14T09:29:00Z</time>
   </trkpt>
   <trkpt lat="51.1286150" lon="5.6615370">
    <ele>37.9</ele>
    <time>2020-06-14T09:29:01Z</time>
   </trkpt>
   <trkpt lat="51.1286350" lon="5.6616460">
    <ele>37.8</ele>
    <time>2020-06-14T09:29:02Z</time>
   </trkpt>
   <trkpt lat="51.1286510" lon="5.6617560">
    <ele>37.7</ele>
    <time>2020-06-14T09:29:03Z</time>
   </trkpt>
   <trkpt lat="51.1286670" lon="5.6618630">
    <ele>37.7</ele>
    <time>2020-06-14T09:29:04Z</time>
   </trkpt>
   <trkpt lat="51.1286800" lon="5.6619780">
    <ele>37.6</ele>
    <time>2020-06-14T09:29:05Z</time>
   </trkpt>
   <trkpt lat="51.1286890" lon="5.6620950">
    <ele>37.6</ele>
    <time>2020-06-14T09:29:06Z</time>
   </trkpt>
   <trkpt lat="51.1287040" lon="5.6622090">
    <ele>37.6</ele>
    <time>2020-06-14T09:29:07Z</time>
   </trkpt>
   <trkpt lat="51.1287180" lon="5.6623240">
    <ele>37.5</ele>
    <time>2020-06-14T09:29:08Z</time>
   </trkpt>
   <trkpt lat="51.1287340" lon="5.6624410">
    <ele>37.5</ele>
    <time>2020-06-14T09:29:09Z</time>
   </trkpt>
   <trkpt lat="51.1287600" lon="5.6625540">
    <ele>37.4</ele>
    <time>2020-06-14T09:29:10Z</time>
   </trkpt>
   <trkpt lat="51.1287750" lon="5.6626640">
    <ele>37.4</ele>
    <time>2020-06-14T09:29:11Z</time>
   </trkpt>
   <trkpt lat="51.1287920" lon="5.6627730">
    <ele>37.4</ele>
    <time>2020-06-14T09:29:12Z</time>
   </trkpt>
   <trkpt lat="51.1288090" lon="5.6628800">
    <ele>37.4</ele>
    <time>2020-06-14T09:29:13Z</time>
   </trkpt>
   <trkpt lat="51.1288240" lon="5.6629860">
    <ele>37.4</ele>
    <time>2020-06-14T09:29:14Z</time>
   </trkpt>
   <trkpt lat="51.1288410" lon="5.6630930">
    <ele>37.4</ele>
    <time>2020-06-14T09:29:15Z</time>
   </trkpt>
   <trkpt lat="51.1288570" lon="5.6631970">
    <ele>37.4</ele>
    <time>2020-06-14T09:29:16Z</time>
   </trkpt>
   <trkpt lat="51.1288770" lon="5.6632980">
    <ele>37.5</ele>
    <time>2020-06-14T09:29:17Z</time>
   </trkpt>
   <trkpt lat="51.1289040" lon="5.6633990">
    <ele>37.5</ele>
    <time>2020-06-14T09:29:18Z</time>
   </trkpt>
   <trkpt lat="51.1289370" lon="5.6634940">
    <ele>37.5</ele>
    <time>2020-06-14T09:29:19Z</time>
   </trkpt>
   <trkpt lat="51.1289790" lon="5.6635770">
    <ele>37.4</ele>
    <time>2020-06-14T09:29:20Z</time>
   </trkpt>
   <trkpt lat="51.1290300" lon="5.6636440">
    <ele>37.4</ele>
    <time>2020-06-14T09:29:21Z</time>
   </trkpt>
   <trkpt lat="51.1290990" lon="5.6636910">
    <ele>37.3</ele>
    <time>2020-06-14T09:29:22Z</time>
   </trkpt>
   <trkpt lat="51.1291740" lon="5.6637390">
    <ele>37.3</ele>
    <time>2020-06-14T09:29:23Z</time>
   </trkpt>
   <trkpt lat="51.1292690" lon="5.6637530">
    <ele>37.3</ele>
    <time>2020-06-14T09:29:24Z</time>
   </trkpt>
   <trkpt lat="51.1293510" lon="5.6638010">
    <ele>37.2</ele>
    <time>2020-06-14T09:29:25Z</time>
   </trkpt>
   <trkpt lat="51.1294290" lon="5.6638650">
    <ele>37.2</ele>
    <time>2020-06-14T09:29:26Z</time>
   </trkpt>
   <trkpt lat="51.1295110" lon="5.6639360">
    <ele>37.2</ele>
    <time>2020-06-14T09:29:27Z</time>
   </trkpt>
   <trkpt lat="51.1295900" lon="5.6640090">
    <ele>37.2</ele>
    <time>2020-06-14T09:29:28Z</time>
   </trkpt>
   <trkpt lat="51.1296690" lon="5.6640810">
    <ele>37.2</ele>
    <time>2020-06-14T09:29:29Z</time>
   </trkpt>
   <trkpt lat="51.1297480" lon="5.6641510">
    <ele>37.2</ele>
    <time>2020-06-14T09:29:30Z</time>
   </trkpt>
   <trkpt lat="51.1298220" lon="5.6642190">
    <ele>37.2</ele>
    <time>2020-06-14T09:29:31Z</time>
   </trkpt>
   <trkpt lat="51.1298970" lon="5.6642890">
    <ele>37.1</ele>
    <time>2020-06-14T09:29:32Z</time>
   </trkpt>
   <trkpt lat="51.1299770" lon="5.6643610">
    <ele>37.1</ele>
    <time>2020-06-14T09:29:33Z</time>
   </trkpt>
   <trkpt lat="51.1300550" lon="5.6644370">
    <ele>37.1</ele>
    <time>2020-06-14T09:29:34Z</time>
   </trkpt>
   <trkpt lat="51.1301330" lon="5.6645090">
    <ele>37.1</ele>
    <time>2020-06-14T09:29:35Z</time>
   </trkpt>
   <trkpt lat="51.1302080" lon="5.6645790">
    <ele>37.1</ele>
    <time>2020-06-14T09:29:36Z</time>
   </trkpt>
   <trkpt lat="51.1302820" lon="5.6646450">
    <ele>37.1</ele>
    <time>2020-06-14T09:29:37Z</time>
   </trkpt>
   <trkpt lat="51.1303560" lon="5.6647160">
    <ele>37.1</ele>
    <time>2020-06-14T09:29:38Z</time>
   </trkpt>
   <trkpt lat="51.1304350" lon="5.6647890">
    <ele>37.0</ele>
    <time>2020-06-14T09:29:39Z</time>
   </trkpt>
   <trkpt lat="51.1305110" lon="5.6648590">
    <ele>37.0</ele>
    <time>2020-06-14T09:29:40Z</time>
   </trkpt>
   <trkpt lat="51.1305860" lon="5.6649310">
    <ele>37.0</ele>
    <time>2020-06-14T09:29:41Z</time>
   </trkpt>
   <trkpt lat="51.1306590" lon="5.6650090">
    <ele>37.0</ele>
    <time>2020-06-14T09:29:42Z</time>
   </trkpt>
   <trkpt lat="51.1307340" lon="5.6650810">
    <ele>36.9</ele>
    <time>2020-06-14T09:29:43Z</time>
   </trkpt>
   <trkpt lat="51.1308080" lon="5.6651440">
    <ele>36.8</ele>
    <time>2020-06-14T09:29:44Z</time>
   </trkpt>
   <trkpt lat="51.1308750" lon="5.6652210">
    <ele>36.8</ele>
    <time>2020-06-14T09:29:45Z</time>
   </trkpt>
   <trkpt lat="51.1309450" lon="5.6652900">
    <ele>36.8</ele>
    <time>2020-06-14T09:29:46Z</time>
   </trkpt>
   <trkpt lat="51.1310110" lon="5.6653560">
    <ele>36.7</ele>
    <time>2020-06-14T09:29:47Z</time>
   </trkpt>
   <trkpt lat="51.1310850" lon="5.6654040">
    <ele>36.7</ele>
    <time>2020-06-14T09:29:48Z</time>
   </trkpt>
   <trkpt lat="51.1311550" lon="5.6654610">
    <ele>36.7</ele>
    <time>2020-06-14T09:29:49Z</time>
   </trkpt>
   <trkpt lat="51.1312270" lon="5.6655150">
    <ele>36.7</ele>
    <time>2020-06-14T09:29:50Z</time>
   </trkpt>
   <trkpt lat="51.1312980" lon="5.6655770">
    <ele>36.7</ele>
    <time>2020-06-14T09:29:51Z</time>
   </trkpt>
   <trkpt lat="51.1313700" lon="5.6656380">
    <ele>36.7</ele>
    <time>2020-06-14T09:29:52Z</time>
   </trkpt>
   <trkpt lat="51.1314380" lon="5.6657050">
    <ele>36.7</ele>
    <time>2020-06-14T09:29:53Z</time>
   </trkpt>
   <trkpt lat="51.1315040" lon="5.6657770">
    <ele>36.7</ele>
    <time>2020-06-14T09:29:54Z</time>
   </trkpt>
   <trkpt lat="51.1315730" lon="5.6658450">
    <ele>36.7</ele>
    <time>2020-06-14T09:29:55Z</time>
   </trkpt>
   <trkpt lat="51.1316420" lon="5.6659080">
    <ele>36.7</ele>
    <time>2020-06-14T09:29:56Z</time>
   </trkpt>
   <trkpt lat="51.1317080" lon="5.6659750">
    <ele>36.7</ele>
    <time>2020-06-14T09:29:57Z</time>
   </trkpt>
   <trkpt lat="51.1317740" lon="5.6660410">
    <ele>36.7</ele>
    <time>2020-06-14T09:29:58Z</time>
   </trkpt>
   <trkpt lat="51.1318480" lon="5.6660970">
    <ele>36.7</ele>
    <time>2020-06-14T09:29:59Z</time>
   </trkpt>
   <trkpt lat="51.1319180" lon="5.6661640">
    <ele>36.7</ele>
    <time>2020-06-14T09:30:00Z</time>
   </trkpt>
   <trkpt lat="51.1319870" lon="5.6662330">
    <ele>36.7</ele>
    <time>2020-06-14T09:30:01Z</time>
   </trkpt>
   <trkpt lat="51.1320650" lon="5.6662890">
    <ele>36.6</ele>
    <time>2020-06-14T09:30:02Z</time>
   </trkpt>
   <trkpt lat="51.1321340" lon="5.6663690">
    <ele>36.6</ele>
    <time>2020-06-14T09:30:03Z</time>
   </trkpt>
   <trkpt lat="51.1322030" lon="5.6664390">
    <ele>36.6</ele>
    <time>2020-06-14T09:30:04Z</time>
   </trkpt>
   <trkpt lat="51.1322720" lon="5.6665070">
    <ele>36.6</ele>
    <time>2020-06-14T09:30:05Z</time>
   </trkpt>
   <trkpt lat="51.1323390" lon="5.6665750">
    <ele>36.6</ele>
    <time>2020-06-14T09:30:06Z</time>
   </trkpt>
   <trkpt lat="51.1324030" lon="5.6666440">
    <ele>36.6</ele>
    <time>2020-06-14T09:30:07Z</time>
   </trkpt>
   <trkpt lat="51.1324680" lon="5.6667060">
    <ele>36.6</ele>
    <time>2020-06-14T09:30:08Z</time>
   </trkpt>
   <trkpt lat="51.1325340" lon="5.6667720">
    <ele>36.6</ele>
    <time>2020-06-14T09:30:09Z</time>
   </trkpt>
   <trkpt lat="51.1326010" lon="5.6668420">
    <ele>36.5</ele>
    <time>2020-06-14T09:30:10Z</time>
   </trkpt>
   <trkpt lat="51.1326700" lon="5.6669130">
    <ele>36.5</ele>
    <time>2020-06-14T09:30:11Z</time>
   </trkpt>
   <trkpt lat="51.1327370" lon="5.6669840">
    <ele>36.5</ele>
    <time>2020-06-14T09:30:12Z</time>
   </trkpt>
   <trkpt lat="51.1328030" lon="5.6670550">
    <ele>36.5</ele>
    <time>2020-06-14T09:30:13Z</time>
   </trkpt>
   <trkpt lat="51.1328690" lon="5.6671200">
    <ele>36.5</ele>
    <time>2020-06-14T09:30:14Z</time>
   </trkpt>
   <trkpt lat="51.1329340" lon="5.6671900">
    <ele>36.4</ele>
    <time>2020-06-14T09:30:15Z</time>
   </trkpt>
   <trkpt lat="51.1329990" lon="5.6672610">
    <ele>36.3</ele>
    <time>2020-06-14T09:30:16Z</time>
   </trkpt>
   <trkpt lat="51.1330600" lon="5.6673420">
    <ele>36.3</ele>
    <time>2020-06-14T09:30:17Z</time>
   </trkpt>
   <trkpt lat="51.1331250" lon="5.6674170">
    <ele>36.2</ele>
    <time>2020-06-14T09:30:18Z</time>
   </trkpt>
   <trkpt lat="51.1331900" lon="5.6675000">
    <ele>36.2</ele>
    <time>2020-06-14T09:30:19Z</time>
   </trkpt>
   <trkpt lat="51.1332520" lon="5.6675890">
    <ele>36.2</ele>
    <time>2020-06-14T09:30:20Z</time>
   </trkpt>
   <trkpt lat="51.1333120" lon="5.6676760">
    <ele>36.2</ele>
    <time>2020-06-14T09:30:21Z</time>
   </trkpt>
   <trkpt lat="51.1333700" lon="5.6677620">
    <ele>36.2</ele>
    <time>2020-06-14T09:30:22Z</time>
   </trkpt>
   <trkpt lat="51.1334280" lon="5.6678500">
    <ele>36.2</ele>
    <time>2020-06-14T09:30:23Z</time>
   </trkpt>
   <trkpt lat="51.1334860" lon="5.6679430">
    <ele>36.1</ele>
    <time>2020-06-14T09:30:24Z</time>
   </trkpt>
   <trkpt lat="51.1335670" lon="5.6680090">
    <ele>36.1</ele>
    <time>2020-06-14T09:30:25Z</time>
   </trkpt>
   <trkpt lat="51.1336390" lon="5.6680920">
    <ele>36.1</ele>
    <time>2020-06-14T09:30:26Z</time>
   </trkpt>
   <trkpt lat="51.1337080" lon="5.6681730">
    <ele>36.0</ele>
    <time>2020-06-14T09:30:27Z</time>
   </trkpt>
   <trkpt lat="51.1337740" lon="5.6682630">
    <ele>36.0</ele>
    <time>2020-06-14T09:30:28Z</time>
   </trkpt>
   <trkpt lat="51.1338380" lon="5.6683510">
    <ele>36.0</ele>
    <time>2020-06-14T09:30:29Z</time>
   </trkpt>
   <trkpt lat="51.1339030" lon="5.6684330">
    <ele>35.9</ele>
    <time>2020-06-14T09:30:30Z</time>
   </trkpt>
   <trkpt lat="51.1339670" lon="5.6685180">
    <ele>35.9</ele>
    <time>2020-06-14T09:30:31Z</time>
   </trkpt>
   <trkpt lat="51.1340300" lon="5.6686020">
    <ele>35.9</ele>
    <time>2020-06-14T09:30:32Z</time>
   </trkpt>
   <trkpt lat="51.1340930" lon="5.6686910">
    <ele>35.9</ele>
    <time>2020-06-14T09:30:33Z</time>
   </trkpt>
   <trkpt lat="51.1341510" lon="5.6687790">
    <ele>35.9</ele>
    <time>2020-06-14T09:30:34Z</time>
   </trkpt>
   <trkpt lat="51.1342110" lon="5.6688590">
    <ele>35.9</ele>
    <time>2020-06-14T09:30:35Z</time>
   </trkpt>
   <trkpt lat="51.1342690" lon="5.6689420">
    <ele>35.9</ele>
    <time>2020-06-14T09:30:36Z</time>
   </trkpt>
   <trkpt lat="51.1343270" lon="5.6690260">
    <ele>35.9</ele>
    <time>2020-06-14T09:30:37Z</time>
   </trkpt>
   <trkpt lat="51.1343830" lon="5.6691130">
    <ele>35.9</ele>
    <time>2020-06-14T09:30:38Z</time>
   </trkpt>
   <trkpt lat="51.1344420" lon="5.6692000">
    <ele>35.9</ele>
    <time>2020-06-14T09:30:39Z</time>
   </trkpt>
   <trkpt lat="51.1345020" lon="5.6692910">
    <ele>35.9</ele>
    <time>2020-06-14T09:30:40Z</time>
   </trkpt>
   <trkpt lat="51.1345590" lon="5.6693840">
    <ele>35.9</ele>
    <time>2020-06-14T09:30:41Z</time>
   </trkpt>
   <trkpt lat="51.1346190" lon="5.6694740">
    <ele>35.9</ele>
    <time>2020-06-14T09:30:42Z</time>
   </trkpt>
   <trkpt lat="51.1346720" lon="5.6695720">
    <ele>35.8</ele>
    <time>2020-06-14T09:30:43Z</time>
   </trkpt>
   <trkpt lat="51.1347190" lon="5.6696740">
    <ele>35.8</ele>
    <time>2020-06-14T09:30:44Z</time>
   </trkpt>
   <trkpt lat="51.1347630" lon="5.6697790">
    <ele>35.8</ele>
    <time>2020-06-14T09:30:45Z</time>
   </trkpt>
   <trkpt lat="51.1348060" lon="5.6698920">
    <ele>35.7</ele>
    <time>2020-06-14T09:30:46Z</time>
   </trkpt>
   <trkpt lat="51.1348450" lon="5.6700150">
    <ele>35.6</ele>
    <time>2020-06-14T09:30:47Z</time>
   </trkpt>
   <trkpt lat="51.1348780" lon="5.6701360">
    <ele>35.6</ele>
    <time>2020-06-14T09:30:48Z</time>
   </trkpt>
   <trkpt lat="51.1349030" lon="5.6702580">
    <ele>35.5</ele>
    <time>2020-06-14T09:30:49Z</time>
   </trkpt>
   <trkpt lat="51.1349300" lon="5.6703790">
    <ele>35.5</ele>
    <time>2020-06-14T09:30:50Z</time>
   </trkpt>
   <trkpt lat="51.1349610" lon="5.6704890">
    <ele>35.5</ele>
    <time>2020-06-14T09:30:51Z</time>
   </trkpt>
   <trkpt lat="51.1349920" lon="5.6706060">
    <ele>35.4</ele>
    <time>2020-06-14T09:30:52Z</time>
   </trkpt>
   <trkpt lat="51.1350250" lon="5.6707210">
    <ele>35.4</ele>
    <time>2020-06-14T09:30:53Z</time>
   </trkpt>
   <trkpt lat="51.1350580" lon="5.6708370">
    <ele>35.4</ele>
    <time>2020-06-14T09:30:54Z</time>
   </trkpt>
   <trkpt lat="51.1350860" lon="5.6709590">
    <ele>35.4</ele>
    <time>2020-06-14T09:30:55Z</time>
   </trkpt>
   <trkpt lat="51.1351140" lon="5.6710610">
    <ele>35.4</ele>
    <time>2020-06-14T09:30:56Z</time>
   </trkpt>
   <trkpt lat="51.1351520" lon="5.6711710">
    <ele>35.5</ele>
    <time>2020-06-14T09:30:57Z</time>
   </trkpt>
   <trkpt lat="51.1351860" lon="5.6712780">
    <ele>35.5</ele>
    <time>2020-06-14T09:30:58Z</time>
   </trkpt>
   <trkpt lat="51.1352290" lon="5.6713820">
    <ele>35.4</ele>
    <time>2020-06-14T09:30:59Z</time>
   </trkpt>
   <trkpt lat="51.1352740" lon="5.6714860">
    <ele>35.4</ele>
    <time>2020-06-14T09:31:00Z</time>
   </trkpt>
   <trkpt lat="51.1353190" lon="5.6715910">
    <ele>35.3</ele>
    <time>2020-06-14T09:31:01Z</time>
   </trkpt>
   <trkpt lat="51.1353700" lon="5.6716790">
    <ele>35.3</ele>
    <time>2020-06-14T09:31:02Z</time>
   </trkpt>
   <trkpt lat="51.1354210" lon="5.6717640">
    <ele>35.3</ele>
    <time>2020-06-14T09:31:03Z</time>
   </trkpt>
   <trkpt lat="51.1354750" lon="5.6718470">
    <ele>35.3</ele>
    <time>2020-06-14T09:31:04Z</time>
   </trkpt>
   <trkpt lat="51.1355300" lon="5.6719290">
    <ele>35.2</ele>
    <time>2020-06-14T09:31:05Z</time>
   </trkpt>
   <trkpt lat="51.1355870" lon="5.6720030">
    <ele>35.2</ele>
    <time>2020-06-14T09:31:06Z</time>
   </trkpt>
   <trkpt lat="51.1356820" lon="5.6720210">
    <ele>35.3</ele>
    <time>2020-06-14T09:31:07Z</time>
   </trkpt>
   <trkpt lat="51.1357390" lon="5.6720950">
    <ele>35.3</ele>
    <time>2020-06-14T09:31:08Z</time>
   </trkpt>
   <trkpt lat="51.1357990" lon="5.6721790">
    <ele>35.3</ele>
    <time>2020-06-14T09:31:09Z</time>
   </trkpt>
   <trkpt lat="51.1358600" lon="5.6722610">
    <ele>35.3</ele>
    <time>2020-06-14T09:31:10Z</time>
   </trkpt>
   <trkpt lat="51.1359170" lon="5.6723380">
    <ele>35.3</ele>
    <time>2020-06-14T09:31:11Z</time>
   </trkpt>
   <trkpt lat="51.1359730" lon="5.6724150">
    <ele>35.2</ele>
    <time>2020-06-14T09:31:12Z</time>
   </trkpt>
   <trkpt lat="51.1360340" lon="5.6724940">
    <ele>35.2</ele>
    <time>2020-06-14T09:31:13Z</time>
   </trkpt>
   <trkpt lat="51.1360960" lon="5.6725820">
    <ele>35.1</ele>
    <time>2020-06-14T09:31:14Z</time>
   </trkpt>
   <trkpt lat="51.1361690" lon="5.6726620">
    <ele>35.1</ele>
    <time>2020-06-14T09:31:15Z</time>
   </trkpt>
   <trkpt lat="51.1362430" lon="5.6727540">
    <ele>35.1</ele>
    <time>2020-06-14T09:31:16Z</time>
   </trkpt>
   <trkpt lat="51.1363150" lon="5.6728450">
    <ele>35.1</ele>
    <time>2020-06-14T09:31:17Z</time>
   </trkpt>
   <trkpt lat="51.1363840" lon="5.6729340">
    <ele>35.1</ele>
    <time>2020-06-14T09:31:18Z</time>
   </trkpt>
   <trkpt lat="51.1364540" lon="5.6730290">
    <ele>35.0</ele>
    <time>2020-06-14T09:31:19Z</time>
   </trkpt>
   <trkpt lat="51.1365230" lon="5.6731200">
    <ele>35.0</ele>
    <time>2020-06-14T09:31:20Z</time>
   </trkpt>
   <trkpt lat="51.1365900" lon="5.6732100">
    <ele>34.9</ele>
    <time>2020-06-14T09:31:21Z</time>
   </trkpt>
   <trkpt lat="51.1366520" lon="5.6733100">
    <ele>34.9</ele>
    <time>2020-06-14T09:31:22Z</time>
   </trkpt>
   <trkpt lat="51.1367170" lon="5.6734120">
    <ele>34.8</ele>
    <time>2020-06-14T09:31:23Z</time>
   </trkpt>
   <trkpt lat="51.1367810" lon="5.6735100">
    <ele>34.8</ele>
    <time>2020-06-14T09:31:24Z</time>
   </trkpt>
   <trkpt lat="51.1368430" lon="5.6736100">
    <ele>34.7</ele>
    <time>2020-06-14T09:31:25Z</time>
   </trkpt>
   <trkpt lat="51.1369140" lon="5.6736970">
    <ele>34.7</ele>
    <time>2020-06-14T09:31:26Z</time>
   </trkpt>
   <trkpt lat="51.1369780" lon="5.6737870">
    <ele>34.7</ele>
    <time>2020-06-14T09:31:27Z</time>
   </trkpt>
   <trkpt lat="51.1370390" lon="5.6738770">
    <ele>34.7</ele>
    <time>2020-06-14T09:31:28Z</time>
   </trkpt>
   <trkpt lat="51.1371000" lon="5.6739550">
    <ele>34.6</ele>
    <time>2020-06-14T09:31:29Z</time>
   </trkpt>
   <trkpt lat="51.1371610" lon="5.6740430">
    <ele>34.6</ele>
    <time>2020-06-14T09:31:30Z</time>
   </trkpt>
   <trkpt lat="51.1372190" lon="5.6741290">
    <ele>34.6</ele>
    <time>2020-06-14T09:31:31Z</time>
   </trkpt>
   <trkpt lat="51.1372810" lon="5.6742160">
    <ele>34.6</ele>
    <time>2020-06-14T09:31:32Z</time>
   </trkpt>
   <trkpt lat="51.1373420" lon="5.6743060">
    <ele>34.6</ele>
    <time>2020-06-14T09:31:33Z</time>
   </trkpt>
   <trkpt lat="51.1374000" lon="5.6743870">
    <ele>34.6</ele>
    <time>2020-06-14T09:31:34Z</time>
   </trkpt>
   <trkpt lat="51.1374570" lon="5.6744660">
    <ele>34.6</ele>
    <time>2020-06-14T09:31:35Z</time>
   </trkpt>
   <trkpt lat="51.1375120" lon="5.6745500">
    <ele>34.6</ele>
    <time>2020-06-14T09:31:36Z</time>
   </trkpt>
   <trkpt lat="51.1375690" lon="5.6746240">
    <ele>34.5</ele>
    <time>2020-06-14T09:31:37Z</time>
   </trkpt>
   <trkpt lat="51.1376300" lon="5.6746980">
    <ele>34.5</ele>
    <time>2020-06-14T09:31:38Z</time>
   </trkpt>
   <trkpt lat="51.1376890" lon="5.6747640">
    <ele>34.5</ele>
    <time>2020-06-14T09:31:39Z</time>
   </trkpt>
   <trkpt lat="51.1377430" lon="5.6748200">
    <ele>34.6</ele>
    <time>2020-06-14T09:31:40Z</time>
   </trkpt>
   <trkpt lat="51.1377960" lon="5.6748690">
    <ele>34.6</ele>
    <time>2020-06-14T09:31:41Z</time>
   </trkpt>
   <trkpt lat="51.1378570" lon="5.6749010">
    <ele>34.6</ele>
    <time>2020-06-14T09:31:42Z</time>
   </trkpt>
   <trkpt lat="51.1379050" lon="5.6749500">
    <ele>34.7</ele>
    <time>2020-06-14T09:31:43Z</time>
   </trkpt>
   <trkpt lat="51.1379490" lon="5.6750030">
    <ele>34.7</ele>
    <time>2020-06-14T09:31:44Z</time>
   </trkpt>
   <trkpt lat="51.1379910" lon="5.6750470">
    <ele>34.7</ele>
    <time>2020-06-14T09:31:45Z</time>
   </trkpt>
   <trkpt lat="51.1380290" lon="5.6750900">
    <ele>34.8</ele>
    <time>2020-06-14T09:31:46Z</time>
   </trkpt>
   <trkpt lat="51.1380690" lon="5.6751390">
    <ele>34.7</ele>
    <time>2020-06-14T09:31:47Z</time>
   </trkpt>
   <trkpt lat="51.1381110" lon="5.6752130">
    <ele>34.7</ele>
    <time>2020-06-14T09:31:48Z</time>
   </trkpt>
   <trkpt lat="51.1381350" lon="5.6752780">
    <ele>34.6</ele>
    <time>2020-06-14T09:31:49Z</time>
   </trkpt>
   <trkpt lat="51.1381420" lon="5.6753690">
    <ele>34.6</ele>
    <time>2020-06-14T09:31:50Z</time>
   </trkpt>
   <trkpt lat="51.1381410" lon="5.6754840">
    <ele>34.5</ele>
    <time>2020-06-14T09:31:51Z</time>
   </trkpt>
   <trkpt lat="51.1381110" lon="5.6755980">
    <ele>34.4</ele>
    <time>2020-06-14T09:31:52Z</time>
   </trkpt>
   <trkpt lat="51.1380690" lon="5.6757080">
    <ele>34.4</ele>
    <time>2020-06-14T09:31:53Z</time>
   </trkpt>
   <trkpt lat="51.1380270" lon="5.6758230">
    <ele>34.4</ele>
    <time>2020-06-14T09:31:54Z</time>
   </trkpt>
   <trkpt lat="51.1379800" lon="5.6759390">
    <ele>34.4</ele>
    <time>2020-06-14T09:31:55Z</time>
   </trkpt>
   <trkpt lat="51.1377460" lon="5.6759350">
    <ele>34.2</ele>
    <time>2020-06-14T09:31:56Z</time>
   </trkpt>
   <trkpt lat="51.1377020" lon="5.6759780">
    <ele>34.1</ele>
    <time>2020-06-14T09:31:57Z</time>
   </trkpt>
   <trkpt lat="51.1376350" lon="5.6760840">
    <ele>34.0</ele>
    <time>2020-06-14T09:31:58Z</time>
   </trkpt>
   <trkpt lat="51.1375730" lon="5.6761950">
    <ele>33.9</ele>
    <time>2020-06-14T09:31:59Z</time>
   </trkpt>
   <trkpt lat="51.1375120" lon="5.6763140">
    <ele>33.8</ele>
    <time>2020-06-14T09:32:00Z</time>
   </trkpt>
   <trkpt lat="51.1374560" lon="5.6764280">
    <ele>33.7</ele>
    <time>2020-06-14T09:32:01Z</time>
   </trkpt>
   <trkpt lat="51.1374010" lon="5.6765440">
    <ele>33.7</ele>
    <time>2020-06-14T09:32:02Z</time>
   </trkpt>
   <trkpt lat="51.1373490" lon="5.6766590">
    <ele>33.7</ele>
    <time>2020-06-14T09:32:03Z</time>
   </trkpt>
   <trkpt lat="51.1373000" lon="5.6767710">
    <ele>33.7</ele>
    <time>2020-06-14T09:32:04Z</time>
   </trkpt>
   <trkpt lat="51.1372530" lon="5.6768810">
    <ele>33.7</ele>
    <time>2020-06-14T09:32:05Z</time>
   </trkpt>
   <trkpt lat="51.1372060" lon="5.6769950">
    <ele>33.6</ele>
    <time>2020-06-14T09:32:06Z</time>
   </trkpt>
   <trkpt lat="51.1371500" lon="5.6771230">
    <ele>33.6</ele>
    <time>2020-06-14T09:32:07Z</time>
   </trkpt>
   <trkpt lat="51.1370890" lon="5.6772480">
    <ele>33.6</ele>
    <time>2020-06-14T09:32:08Z</time>
   </trkpt>
   <trkpt lat="51.1370370" lon="5.6773700">
    <ele>33.6</ele>
    <time>2020-06-14T09:32:09Z</time>
   </trkpt>
   <trkpt lat="51.1369890" lon="5.6774780">
    <ele>33.6</ele>
    <time>2020-06-14T09:32:10Z</time>
   </trkpt>
   <trkpt lat="51.1369420" lon="5.6775900">
    <ele>33.6</ele>
    <time>2020-06-14T09:32:11Z</time>
   </trkpt>
   <trkpt lat="51.1368950" lon="5.6776980">
    <ele>33.7</ele>
    <time>2020-06-14T09:32:12Z</time>
   </trkpt>
   <trkpt lat="51.1368540" lon="5.6777970">
    <ele>33.7</ele>
    <time>2020-06-14T09:32:13Z</time>
   </trkpt>
   <trkpt lat="51.1368160" lon="5.6778960">
    <ele>33.7</ele>
    <time>2020-06-14T09:32:14Z</time>
   </trkpt>
   <trkpt lat="51.1367760" lon="5.6779980">
    <ele>33.7</ele>
    <time>2020-06-14T09:32:15Z</time>
   </trkpt>
   <trkpt lat="51.1367290" lon="5.6781020">
    <ele>33.8</ele>
    <time>2020-06-14T09:32:16Z</time>
   </trkpt>
   <trkpt lat="51.1366750" lon="5.6782090">
    <ele>33.8</ele>
    <time>2020-06-14T09:32:17Z</time>
   </trkpt>
   <trkpt lat="51.1366270" lon="5.6783160">
    <ele>33.9</ele>
    <time>2020-06-14T09:32:18Z</time>
   </trkpt>
   <trkpt lat="51.1365740" lon="5.6784160">
    <ele>33.9</ele>
    <time>2020-06-14T09:32:19Z</time>
   </trkpt>
   <trkpt lat="51.1365250" lon="5.6785200">
    <ele>33.9</ele>
    <time>2020-06-14T09:32:20Z</time>
   </trkpt>
   <trkpt lat="51.1364760" lon="5.6786290">
    <ele>33.9</ele>
    <time>2020-06-14T09:32:21Z</time>
   </trkpt>
   <trkpt lat="51.1364270" lon="5.6787400">
    <ele>34.0</ele>
    <time>2020-06-14T09:32:22Z</time>
   </trkpt>
   <trkpt lat="51.1363810" lon="5.6788420">
    <ele>34.0</ele>
    <time>2020-06-14T09:32:23Z</time>
   </trkpt>
   <trkpt lat="51.1363330" lon="5.6789490">
    <ele>34.0</ele>
    <time>2020-06-14T09:32:24Z</time>
   </trkpt>
   <trkpt lat="51.1362840" lon="5.6790550">
    <ele>34.0</ele>
    <time>2020-06-14T09:32:25Z</time>
   </trkpt>
   <trkpt lat="51.1362400" lon="5.6791570">
    <ele>34.1</ele>
    <time>2020-06-14T09:32:26Z</time>
   </trkpt>
   <trkpt lat="51.1361970" lon="5.6792590">
    <ele>34.1</ele>
    <time>2020-06-14T09:32:27Z</time>
   </trkpt>
   <trkpt lat="51.1361530" lon="5.6793580">
    <ele>34.1</ele>
    <time>2020-06-14T09:32:28Z</time>
   </trkpt>
   <trkpt lat="51.1361100" lon="5.6794610">
    <ele>34.2</ele>
    <time>2020-06-14T09:32:29Z</time>
   </trkpt>
   <trkpt lat="51.1360690" lon="5.6795610">
    <ele>34.2</ele>
    <time>2020-06-14T09:32:30Z</time>
   </trkpt>
   <trkpt lat="51.1360260" lon="5.6796640">
    <ele>34.2</ele>
    <time>2020-06-14T09:32:31Z</time>
   </trkpt>
   <trkpt lat="51.1359840" lon="5.6797670">
    <ele>34.2</ele>
    <time>2020-06-14T09:32:32Z</time>
   </trkpt>
   <trkpt lat="51.1359410" lon="5.6798730">
    <ele>34.2</ele>
    <time>2020-06-14T09:32:33Z</time>
   </trkpt>
   <trkpt lat="51.1359000" lon="5.6799750">
    <ele>34.2</ele>
    <time>2020-06-14T09:32:34Z</time>
   </trkpt>
   <trkpt lat="51.1358600" lon="5.6800780">
    <ele>34.2</ele>
    <time>2020-06-14T09:32:35Z</time>
   </trkpt>
   <trkpt lat="51.1358200" lon="5.6801750">
    <ele>34.3</ele>
    <time>2020-06-14T09:32:36Z</time>
   </trkpt>
   <trkpt lat="51.1357740" lon="5.6802700">
    <ele>34.3</ele>
    <time>2020-06-14T09:32:37Z</time>
   </trkpt>
   <trkpt lat="51.1357350" lon="5.6803610">
    <ele>34.3</ele>
    <time>2020-06-14T09:32:38Z</time>
   </trkpt>
   <trkpt lat="51.1356950" lon="5.6804560">
    <ele>34.3</ele>
    <time>2020-06-14T09:32:39Z</time>
   </trkpt>
   <trkpt lat="51.1356580" lon="5.6805560">
    <ele>34.3</ele>
    <time>2020-06-14T09:32:40Z</time>
   </trkpt>
   <trkpt lat="51.1356160" lon="5.6806590">
    <ele>34.3</ele>
    <time>2020-06-14T09:32:41Z</time>
   </trkpt>
   <trkpt lat="51.1355780" lon="5.6807630">
    <ele>34.3</ele>
    <time>2020-06-14T09:32:42Z</time>
   </trkpt>
   <trkpt lat="51.1355330" lon="5.6808630">
    <ele>34.3</ele>
    <time>2020-06-14T09:32:43Z</time>
   </trkpt>
   <trkpt lat="51.1354920" lon="5.6809590">
    <ele>34.3</ele>
    <time>2020-06-14T09:32:44Z</time>
   </trkpt>
   <trkpt lat="51.1354460" lon="5.6810570">
    <ele>34.3</ele>
    <time>2020-06-14T09:32:45Z</time>
   </trkpt>
   <trkpt lat="51.1354040" lon="5.6811600">
    <ele>34.3</ele>
    <time>2020-06-14T09:32:46Z</time>
   </trkpt>
   <trkpt lat="51.1353660" lon="5.6812630">
    <ele>34.3</ele>
    <time>2020-06-14T09:32:47Z</time>
   </trkpt>
   <trkpt lat="51.1353240" lon="5.6813710">
    <ele>34.2</ele>
    <time>2020-06-14T09:32:48Z</time>
   </trkpt>
   <trkpt lat="51.1352870" lon="5.6814820">
    <ele>34.2</ele>
    <time>2020-06-14T09:32:49Z</time>
   </trkpt>
   <trkpt lat="51.1352080" lon="5.6815470">
    <ele>34.2</ele>
    <time>2020-06-14T09:32:50Z</time>
   </trkpt>
   <trkpt lat="51.1351530" lon="5.6816450">
    <ele>34.2</ele>
    <time>2020-06-14T09:32:51Z</time>
   </trkpt>
   <trkpt lat="51.1351020" lon="5.6817440">
    <ele>34.2</ele>
    <time>2020-06-14T09:32:52Z</time>
   </trkpt>
   <trkpt lat="51.1350550" lon="5.6818400">
    <ele>34.2</ele>
    <time>2020-06-14T09:32:53Z</time>
   </trkpt>
   <trkpt lat="51.1350090" lon="5.6819340">
    <ele>34.2</ele>
    <time>2020-06-14T09:32:54Z</time>
   </trkpt>
   <trkpt lat="51.1349650" lon="5.6820320">
    <ele>34.2</ele>
    <time>2020-06-14T09:32:55Z</time>
   </trkpt>
   <trkpt lat="51.1349190" lon="5.6821370">
    <ele>34.2</ele>
    <time>2020-06-14T09:32:56Z</time>
   </trkpt>
   <trkpt lat="51.1348700" lon="5.6822420">
    <ele>34.2</ele>
    <time>2020-06-14T09:32:57Z</time>
   </trkpt>
   <trkpt lat="51.1348220" lon="5.6823470">
    <ele>34.2</ele>
    <time>2020-06-14T09:32:58Z</time>
   </trkpt>
   <trkpt lat="51.1347740" lon="5.6824540">
    <ele>34.2</ele>
    <time>2020-06-14T09:32:59Z</time>
   </trkpt>
   <trkpt lat="51.1347280" lon="5.6825580">
    <ele>34.2</ele>
    <time>2020-06-14T09:33:00Z</time>
   </trkpt>
   <trkpt lat="51.1346850" lon="5.6826550">
    <ele>34.2</ele>
    <time>2020-06-14T09:33:01Z</time>
   </trkpt>
   <trkpt lat="51.1346370" lon="5.6827500">
    <ele>34.2</ele>
    <time>2020-06-14T09:33:02Z</time>
   </trkpt>
   <trkpt lat="51.1345950" lon="5.6828480">
    <ele>34.2</ele>
    <time>2020-06-14T09:33:03Z</time>
   </trkpt>
   <trkpt lat="51.1345570" lon="5.6829540">
    <ele>34.2</ele>
    <time>2020-06-14T09:33:04Z</time>
   </trkpt>
   <trkpt lat="51.1345150" lon="5.6830550">
    <ele>34.1</ele>
    <time>2020-06-14T09:33:05Z</time>
   </trkpt>
   <trkpt lat="51.1344780" lon="5.6831600">
    <ele>34.1</ele>
    <time>2020-06-14T09:33:06Z</time>
   </trkpt>
   <trkpt lat="51.1344410" lon="5.6832630">
    <ele>34.1</ele>
    <time>2020-06-14T09:33:07Z</time>
   </trkpt>
   <trkpt lat="51.1343980" lon="5.6833480">
    <ele>34.1</ele>
    <time>2020-06-14T09:33:08Z</time>
   </trkpt>
   <trkpt lat="51.1343520" lon="5.6834290">
    <ele>34.1</ele>
    <time>2020-06-14T09:33:09Z</time>
   </trkpt>
   <trkpt lat="51.1343070" lon="5.6835120">
    <ele>34.1</ele>
    <time>2020-06-14T09:33:10Z</time>
   </trkpt>
   <trkpt lat="51.1342640" lon="5.6835910">
    <ele>34.2</ele>
    <time>2020-06-14T09:33:11Z</time>
   </trkpt>
   <trkpt lat="51.1342220" lon="5.6836630">
    <ele>34.2</ele>
    <time>2020-06-14T09:33:12Z</time>
   </trkpt>
   <trkpt lat="51.1341840" lon="5.6837360">
    <ele>34.2</ele>
    <time>2020-06-14T09:33:13Z</time>
   </trkpt>
   <trkpt lat="51.1341470" lon="5.6838070">
    <ele>34.2</ele>
    <time>2020-06-14T09:33:14Z</time>
   </trkpt>
   <trkpt lat="51.1341090" lon="5.6838750">
    <ele>34.2</ele>
    <time>2020-06-14T09:33:15Z</time>
   </trkpt>
   <trkpt lat="51.1340710" lon="5.6839470">
    <ele>34.2</ele>
    <time>2020-06-14T09:33:16Z</time>
   </trkpt>
   <trkpt lat="51.1340330" lon="5.6840120">
    <ele>34.1</ele>
    <time>2020-06-14T09:33:17Z</time>
   </trkpt>
   <trkpt lat="51.1340010" lon="5.6840710">
    <ele>34.0</ele>
    <time>2020-06-14T09:33:18Z</time>
   </trkpt>
   <trkpt lat="51.1339810" lon="5.6841310">
    <ele>34.0</ele>
    <time>2020-06-14T09:33:19Z</time>
   </trkpt>
   <trkpt lat="51.1339850" lon="5.6842000">
    <ele>33.9</ele>
    <time>2020-06-14T09:33:20Z</time>
   </trkpt>
   <trkpt lat="51.1339970" lon="5.6842720">
    <ele>33.9</ele>
    <time>2020-06-14T09:33:21Z</time>
   </trkpt>
   <trkpt lat="51.1340280" lon="5.6843390">
    <ele>33.9</ele>
    <time>2020-06-14T09:33:22Z</time>
   </trkpt>
   <trkpt lat="51.1340680" lon="5.6844110">
    <ele>33.9</ele>
    <time>2020-06-14T09:33:23Z</time>
   </trkpt>
   <trkpt lat="51.1341170" lon="5.6844890">
    <ele>33.9</ele>
    <time>2020-06-14T09:33:24Z</time>
   </trkpt>
   <trkpt lat="51.1341630" lon="5.6845720">
    <ele>33.9</ele>
    <time>2020-06-14T09:33:25Z</time>
   </trkpt>
   <trkpt lat="51.1342100" lon="5.6846550">
    <ele>33.9</ele>
    <time>2020-06-14T09:33:26Z</time>
   </trkpt>
   <trkpt lat="51.1342580" lon="5.6847510">
    <ele>33.9</ele>
    <time>2020-06-14T09:33:27Z</time>
   </trkpt>
   <trkpt lat="51.1343110" lon="5.6848470">
    <ele>33.9</ele>
    <time>2020-06-14T09:33:28Z</time>
   </trkpt>
   <trkpt lat="51.1343610" lon="5.6849420">
    <ele>33.8</ele>
    <time>2020-06-14T09:33:29Z</time>
   </trkpt>
   <trkpt lat="51.1344120" lon="5.6850350">
    <ele>33.7</ele>
    <time>2020-06-14T09:33:30Z</time>
   </trkpt>
   <trkpt lat="51.1344670" lon="5.6851250">
    <ele>33.7</ele>
    <time>2020-06-14T09:33:31Z</time>
   </trkpt>
   <trkpt lat="51.1345150" lon="5.6852210">
    <ele>33.7</ele>
    <time>2020-06-14T09:33:32Z</time>
   </trkpt>
   <trkpt lat="51.1345650" lon="5.6853070">
    <ele>33.6</ele>
    <time>2020-06-14T09:33:33Z</time>
   </trkpt>
   <trkpt lat="51.1346150" lon="5.6854010">
    <ele>33.6</ele>
    <time>2020-06-14T09:33:34Z</time>
   </trkpt>
   <trkpt lat="51.1346670" lon="5.6855010">
    <ele>33.6</ele>
    <time>2020-06-14T09:33:35Z</time>
   </trkpt>
   <trkpt lat="51.1347200" lon="5.6855990">
    <ele>33.6</ele>
    <time>2020-06-14T09:33:36Z</time>
   </trkpt>
   <trkpt lat="51.1347820" lon="5.6857070">
    <ele>33.6</ele>
    <time>2020-06-14T09:33:37Z</time>
   </trkpt>
   <trkpt lat="51.1348350" lon="5.6858090">
    <ele>33.7</ele>
    <time>2020-06-14T09:33:38Z</time>
   </trkpt>
   <trkpt lat="51.1348870" lon="5.6858950">
    <ele>33.7</ele>
    <time>2020-06-14T09:33:39Z</time>
   </trkpt>
   <trkpt lat="51.1349370" lon="5.6859790">
    <ele>33.7</ele>
    <time>2020-06-14T09:33:40Z</time>
   </trkpt>
   <trkpt lat="51.1349900" lon="5.6860780">
    <ele>33.6</ele>
    <time>2020-06-14T09:33:41Z</time>
   </trkpt>
   <trkpt lat="51.1350420" lon="5.6861700">
    <ele>33.6</ele>
    <time>2020-06-14T09:33:42Z</time>
   </trkpt>
   <trkpt lat="51.1350920" lon="5.6862580">
    <ele>33.6</ele>
    <time>2020-06-14T09:33:43Z</time>
   </trkpt>
   <trkpt lat="51.1351500" lon="5.6863580">
    <ele>33.6</ele>
    <time>2020-06-14T09:33:44Z</time>
   </trkpt>
   <trkpt lat="51.1352010" lon="5.6864500">
    <ele>33.6</ele>
    <time>2020-06-14T09:33:45Z</time>
   </trkpt>
   <trkpt lat="51.1352490" lon="5.6865410">
    <ele>33.6</ele>
    <time>2020-06-14T09:33:46Z</time>
   </trkpt>
   <trkpt lat="51.1353030" lon="5.6866380">
    <ele>33.6</ele>
    <time>2020-06-14T09:33:47Z</time>
   </trkpt>
   <trkpt lat="51.1353560" lon="5.6867310">
    <ele>33.5</ele>
    <time>2020-06-14T09:33:48Z</time>
   </trkpt>
   <trkpt lat="51.1354100" lon="5.6868260">
    <ele>33.5</ele>
    <time>2020-06-14T09:33:49Z</time>
   </trkpt>
   <trkpt lat="51.1354610" lon="5.6869260">
    <ele>33.4</ele>
    <time>2020-06-14T09:33:50Z</time>
   </trkpt>
   <trkpt lat="51.1355120" lon="5.6870240">
    <ele>33.4</ele>
    <time>2020-06-14T09:33:51Z</time>
   </trkpt>
   <trkpt lat="51.1355680" lon="5.6871240">
    <ele>33.3</ele>
    <time>2020-06-14T09:33:52Z</time>
   </trkpt>
   <trkpt lat="51.1356200" lon="5.6872260">
    <ele>33.3</ele>
    <time>2020-06-14T09:33:53Z</time>
   </trkpt>
   <trkpt lat="51.1356730" lon="5.6873270">
    <ele>33.3</ele>
    <time>2020-06-14T09:33:54Z</time>
   </trkpt>
   <trkpt lat="51.1357260" lon="5.6874270">
    <ele>33.3</ele>
    <time>2020-06-14T09:33:55Z</time>
   </trkpt>
   <trkpt lat="51.1357790" lon="5.6875260">
    <ele>33.3</ele>
    <time>2020-06-14T09:33:56Z</time>
   </trkpt>
   <trkpt lat="51.1358290" lon="5.6876280">
    <ele>33.3</ele>
    <time>2020-06-14T09:33:57Z</time>
   </trkpt>
   <trkpt lat="51.1358750" lon="5.6877300">
    <ele>33.3</ele>
    <time>2020-06-14T09:33:58Z</time>
   </trkpt>
   <trkpt lat="51.1359230" lon="5.6878350">
    <ele>33.2</ele>
    <time>2020-06-14T09:33:59Z</time>
   </trkpt>
   <trkpt lat="51.1359710" lon="5.6879400">
    <ele>33.2</ele>
    <time>2020-06-14T09:34:00Z</time>
   </trkpt>
   <trkpt lat="51.1360180" lon="5.6880440">
    <ele>33.2</ele>
    <time>2020-06-14T09:34:01Z</time>
   </trkpt>
   <trkpt lat="51.1360640" lon="5.6881590">
    <ele>33.2</ele>
    <time>2020-06-14T09:34:02Z</time>
   </trkpt>
   <trkpt lat="51.1361120" lon="5.6882650">
    <ele>33.2</ele>
    <time>2020-06-14T09:34:03Z</time>
   </trkpt>
   <trkpt lat="51.1361600" lon="5.6883790">
    <ele>33.2</ele>
    <time>2020-06-14T09:34:04Z</time>
   </trkpt>
   <trkpt lat="51.1362060" lon="5.6884940">
    <ele>33.2</ele>
    <time>2020-06-14T09:34:05Z</time>
   </trkpt>
   <trkpt lat="51.1362480" lon="5.6886020">
    <ele>33.2</ele>
    <time>2020-06-14T09:34:06Z</time>
   </trkpt>
   <trkpt lat="51.1362890" lon="5.6887010">
    <ele>33.2</ele>
    <time>2020-06-14T09:34:07Z</time>
   </trkpt>
   <trkpt lat="51.1363340" lon="5.6888040">
    <ele>33.2</ele>
    <time>2020-06-14T09:34:08Z</time>
   </trkpt>
   <trkpt lat="51.1363710" lon="5.6889080">
    <ele>33.2</ele>
    <time>2020-06-14T09:34:09Z</time>
   </trkpt>
   <trkpt lat="51.1364140" lon="5.6889980">
    <ele>33.2</ele>
    <time>2020-06-14T09:34:10Z</time>
   </trkpt>
   <trkpt lat="51.1364540" lon="5.6890990">
    <ele>33.2</ele>
    <time>2020-06-14T09:34:11Z</time>
   </trkpt>
   <trkpt lat="51.1364930" lon="5.6891950">
    <ele>33.2</ele>
    <time>2020-06-14T09:34:12Z</time>
   </trkpt>
   <trkpt lat="51.1365340" lon="5.6892960">
    <ele>33.1</ele>
    <time>2020-06-14T09:34:13Z</time>
   </trkpt>
   <trkpt lat="51.1365790" lon="5.6894000">
    <ele>33.1</ele>
    <time>2020-06-14T09:34:14Z</time>
   </trkpt>
   <trkpt lat="51.1366220" lon="5.6895120">
    <ele>33.1</ele>
    <time>2020-06-14T09:34:15Z</time>
   </trkpt>
   <trkpt lat="51.1366650" lon="5.6896240">
    <ele>33.0</ele>
    <time>2020-06-14T09:34:16Z</time>
   </trkpt>
   <trkpt lat="51.1367090" lon="5.6897230">
    <ele>33.0</ele>
    <time>2020-06-14T09:34:17Z</time>
   </trkpt>
   <trkpt lat="51.1367500" lon="5.6898170">
    <ele>33.0</ele>
    <time>2020-06-14T09:34:18Z</time>
   </trkpt>
   <trkpt lat="51.1367920" lon="5.6899230">
    <ele>33.0</ele>
    <time>2020-06-14T09:34:19Z</time>
   </trkpt>
   <trkpt lat="51.1368350" lon="5.6900240">
    <ele>33.0</ele>
    <time>2020-06-14T09:34:20Z</time>
   </trkpt>
   <trkpt lat="51.1368680" lon="5.6901220">
    <ele>33.0</ele>
    <time>2020-06-14T09:34:21Z</time>
   </trkpt>
   <trkpt lat="51.1369060" lon="5.6902210">
    <ele>33.0</ele>
    <time>2020-06-14T09:34:22Z</time>
   </trkpt>
   <trkpt lat="51.1369460" lon="5.6903270">
    <ele>32.9</ele>
    <time>2020-06-14T09:34:23Z</time>
   </trkpt>
   <trkpt lat="51.1369770" lon="5.6904490">
    <ele>32.9</ele>
    <time>2020-06-14T09:34:24Z</time>
   </trkpt>
   <trkpt lat="51.1370100" lon="5.6905760">
    <ele>33.0</ele>
    <time>2020-06-14T09:34:25Z</time>
   </trkpt>
   <trkpt lat="51.1370290" lon="5.6907010">
    <ele>32.9</ele>
    <time>2020-06-14T09:34:26Z</time>
   </trkpt>
   <trkpt lat="51.1370390" lon="5.6908250">
    <ele>32.9</ele>
    <time>2020-06-14T09:34:27Z</time>
   </trkpt>
   <trkpt lat="51.1370450" lon="5.6909500">
    <ele>32.9</ele>
    <time>2020-06-14T09:34:28Z</time>
   </trkpt>
   <trkpt lat="51.1370500" lon="5.6910870">
    <ele>32.9</ele>
    <time>2020-06-14T09:34:29Z</time>
   </trkpt>
   <trkpt lat="51.1370580" lon="5.6912270">
    <ele>32.9</ele>
    <time>2020-06-14T09:34:30Z</time>
   </trkpt>
   <trkpt lat="51.1370660" lon="5.6913630">
    <ele>32.9</ele>
    <time>2020-06-14T09:34:31Z</time>
   </trkpt>
   <trkpt lat="51.1370770" lon="5.6914990">
    <ele>33.0</ele>
    <time>2020-06-14T09:34:32Z</time>
   </trkpt>
   <trkpt lat="51.1370830" lon="5.6916280">
    <ele>33.0</ele>
    <time>2020-06-14T09:34:33Z</time>
   </trkpt>
   <trkpt lat="51.1370900" lon="5.6917590">
    <ele>33.0</ele>
    <time>2020-06-14T09:34:34Z</time>
   </trkpt>
   <trkpt lat="51.1370890" lon="5.6918850">
    <ele>33.0</ele>
    <time>2020-06-14T09:34:35Z</time>
   </trkpt>
   <trkpt lat="51.1370890" lon="5.6920150">
    <ele>33.0</ele>
    <time>2020-06-14T09:34:36Z</time>
   </trkpt>
   <trkpt lat="51.1370960" lon="5.6921460">
    <ele>33.0</ele>
    <time>2020-06-14T09:34:37Z</time>
   </trkpt>
   <trkpt lat="51.1370990" lon="5.6922780">
    <ele>33.0</ele>
    <time>2020-06-14T09:34:38Z</time>
   </trkpt>
   <trkpt lat="51.1370980" lon="5.6924000">
    <ele>33.0</ele>
    <time>2020-06-14T09:34:39Z</time>
   </trkpt>
   <trkpt lat="51.1370980" lon="5.6925200">
    <ele>33.0</ele>
    <time>2020-06-14T09:34:40Z</time>
   </trkpt>
   <trkpt lat="51.1371020" lon="5.6926410">
    <ele>33.0</ele>
    <time>2020-06-14T09:34:41Z</time>
   </trkpt>
   <trkpt lat="51.1371010" lon="5.6927690">
    <ele>33.0</ele>
    <time>2020-06-14T09:34:42Z</time>
   </trkpt>
   <trkpt lat="51.1371010" lon="5.6929000">
    <ele>33.0</ele>
    <time>2020-06-14T09:34:43Z</time>
   </trkpt>
   <trkpt lat="51.1370960" lon="5.6930320">
    <ele>33.1</ele>
    <time>2020-06-14T09:34:44Z</time>
   </trkpt>
   <trkpt lat="51.1370900" lon="5.6931630">
    <ele>33.1</ele>
    <time>2020-06-14T09:34:45Z</time>
   </trkpt>
   <trkpt lat="51.1370830" lon="5.6933000">
    <ele>33.1</ele>
    <time>2020-06-14T09:34:46Z</time>
   </trkpt>
   <trkpt lat="51.1370810" lon="5.6934310">
    <ele>33.1</ele>
    <time>2020-06-14T09:34:47Z</time>
   </trkpt>
   <trkpt lat="51.1370950" lon="5.6935560">
    <ele>33.2</ele>
    <time>2020-06-14T09:34:48Z</time>
   </trkpt>
   <trkpt lat="51.1370940" lon="5.6936740">
    <ele>33.2</ele>
    <time>2020-06-14T09:34:49Z</time>
   </trkpt>
   <trkpt lat="51.1370930" lon="5.6937950">
    <ele>33.3</ele>
    <time>2020-06-14T09:34:50Z</time>
   </trkpt>
   <trkpt lat="51.1371010" lon="5.6939180">
    <ele>33.3</ele>
    <time>2020-06-14T09:34:51Z</time>
   </trkpt>
   <trkpt lat="51.1371040" lon="5.6940440">
    <ele>33.3</ele>
    <time>2020-06-14T09:34:52Z</time>
   </trkpt>
   <trkpt lat="51.1371090" lon="5.6941700">
    <ele>33.3</ele>
    <time>2020-06-14T09:34:53Z</time>
   </trkpt>
   <trkpt lat="51.1371120" lon="5.6942980">
    <ele>33.3</ele>
    <time>2020-06-14T09:34:54Z</time>
   </trkpt>
   <trkpt lat="51.1371160" lon="5.6944360">
    <ele>33.3</ele>
    <time>2020-06-14T09:34:55Z</time>
   </trkpt>
   <trkpt lat="51.1371230" lon="5.6945720">
    <ele>33.3</ele>
    <time>2020-06-14T09:34:56Z</time>
   </trkpt>
   <trkpt lat="51.1371320" lon="5.6947040">
    <ele>33.3</ele>
    <time>2020-06-14T09:34:57Z</time>
   </trkpt>
   <trkpt lat="51.1371420" lon="5.6948430">
    <ele>33.3</ele>
    <time>2020-06-14T09:34:58Z</time>
   </trkpt>
   <trkpt lat="51.1371540" lon="5.6949790">
    <ele>33.3</ele>
    <time>2020-06-14T09:34:59Z</time>
   </trkpt>
   <trkpt lat="51.1371660" lon="5.6951140">
    <ele>33.3</ele>
    <time>2020-06-14T09:35:00Z</time>
   </trkpt>
   <trkpt lat="51.1371810" lon="5.6952540">
    <ele>33.3</ele>
    <time>2020-06-14T09:35:01Z</time>
   </trkpt>
   <trkpt lat="51.1371960" lon="5.6953950">
    <ele>33.2</ele>
    <time>2020-06-14T09:35:02Z</time>
   </trkpt>
   <trkpt lat="51.1372090" lon="5.6955310">
    <ele>33.2</ele>
    <time>2020-06-14T09:35:03Z</time>
   </trkpt>
   <trkpt lat="51.1372230" lon="5.6956660">
    <ele>33.1</ele>
    <time>2020-06-14T09:35:04Z</time>
   </trkpt>
   <trkpt lat="51.1372400" lon="5.6957920">
    <ele>33.1</ele>
    <time>2020-06-14T09:35:05Z</time>
   </trkpt>
   <trkpt lat="51.1372590" lon="5.6959100">
    <ele>33.1</ele>
    <time>2020-06-14T09:35:06Z</time>
   </trkpt>
   <trkpt lat="51.1372760" lon="5.6960360">
    <ele>33.1</ele>
    <time>2020-06-14T09:35:07Z</time>
   </trkpt>
   <trkpt lat="51.1372990" lon="5.6961580">
    <ele>33.1</ele>
    <time>2020-06-14T09:35:08Z</time>
   </trkpt>
   <trkpt lat="51.1373180" lon="5.6962800">
    <ele>33.1</ele>
    <time>2020-06-14T09:35:09Z</time>
   </trkpt>
   <trkpt lat="51.1373340" lon="5.6964040">
    <ele>33.1</ele>
    <time>2020-06-14T09:35:10Z</time>
   </trkpt>
   <trkpt lat="51.1373560" lon="5.6965210">
    <ele>33.1</ele>
    <time>2020-06-14T09:35:11Z</time>
   </trkpt>
   <trkpt lat="51.1373770" lon="5.6966430">
    <ele>33.1</ele>
    <time>2020-06-14T09:35:12Z</time>
   </trkpt>
   <trkpt lat="51.1373960" lon="5.6967610">
    <ele>33.1</ele>
    <time>2020-06-14T09:35:13Z</time>
   </trkpt>
   <trkpt lat="51.1374120" lon="5.6968890">
    <ele>33.1</ele>
    <time>2020-06-14T09:35:14Z</time>
   </trkpt>
   <trkpt lat="51.1374270" lon="5.6970140">
    <ele>33.1</ele>
    <time>2020-06-14T09:35:15Z</time>
   </trkpt>
   <trkpt lat="51.1374440" lon="5.6971390">
    <ele>33.0</ele>
    <time>2020-06-14T09:35:16Z</time>
   </trkpt>
   <trkpt lat="51.1374590" lon="5.6972730">
    <ele>33.0</ele>
    <time>2020-06-14T09:35:17Z</time>
   </trkpt>
   <trkpt lat="51.1374750" lon="5.6973940">
    <ele>33.0</ele>
    <time>2020-06-14T09:35:18Z</time>
   </trkpt>
   <trkpt lat="51.1374930" lon="5.6975070">
    <ele>33.0</ele>
    <time>2020-06-14T09:35:19Z</time>
   </trkpt>
   <trkpt lat="51.1375090" lon="5.6976280">
    <ele>33.0</ele>
    <time>2020-06-14T09:35:20Z</time>
   </trkpt>
   <trkpt lat="51.1375230" lon="5.6977580">
    <ele>33.0</ele>
    <time>2020-06-14T09:35:21Z</time>
   </trkpt>
   <trkpt lat="51.1375380" lon="5.6978750">
    <ele>33.0</ele>
    <time>2020-06-14T09:35:22Z</time>
   </trkpt>
   <trkpt lat="51.1375570" lon="5.6979950">
    <ele>32.9</ele>
    <time>2020-06-14T09:35:23Z</time>
   </trkpt>
   <trkpt lat="51.1375790" lon="5.6981150">
    <ele>32.9</ele>
    <time>2020-06-14T09:35:24Z</time>
   </trkpt>
   <trkpt lat="51.1375940" lon="5.6982380">
    <ele>32.9</ele>
    <time>2020-06-14T09:35:25Z</time>
   </trkpt>
   <trkpt lat="51.1376150" lon="5.6983670">
    <ele>32.9</ele>
    <time>2020-06-14T09:35:26Z</time>
   </trkpt>
   <trkpt lat="51.1376330" lon="5.6984930">
    <ele>32.9</ele>
    <time>2020-06-14T09:35:27Z</time>
   </trkpt>
   <trkpt lat="51.1376450" lon="5.6986240">
    <ele>32.8</ele>
    <time>2020-06-14T09:35:28Z</time>
   </trkpt>
   <trkpt lat="51.1376590" lon="5.6987530">
    <ele>32.8</ele>
    <time>2020-06-14T09:35:29Z</time>
   </trkpt>
   <trkpt lat="51.1376730" lon="5.6988730">
    <ele>32.8</ele>
    <time>2020-06-14T09:35:30Z</time>
   </trkpt>
   <trkpt lat="51.1376870" lon="5.6989920">
    <ele>32.8</ele>
    <time>2020-06-14T09:35:31Z</time>
   </trkpt>
   <trkpt lat="51.1377000" lon="5.6991170">
    <ele>32.8</ele>
    <time>2020-06-14T09:35:32Z</time>
   </trkpt>
   <trkpt lat="51.1377120" lon="5.6992420">
    <ele>32.8</ele>
    <time>2020-06-14T09:35:33Z</time>
   </trkpt>
   <trkpt lat="51.1377270" lon="5.6993630">
    <ele>32.8</ele>
    <time>2020-06-14T09:35:34Z</time>
   </trkpt>
   <trkpt lat="51.1377440" lon="5.6994860">
    <ele>32.7</ele>
    <time>2020-06-14T09:35:35Z</time>
   </trkpt>
   <trkpt lat="51.1377630" lon="5.6996100">
    <ele>32.7</ele>
    <time>2020-06-14T09:35:36Z</time>
   </trkpt>
   <trkpt lat="51.1377830" lon="5.6997270">
    <ele>32.7</ele>
    <time>2020-06-14T09:35:37Z</time>
   </trkpt>
   <trkpt lat="51.1378000" lon="5.6998470">
    <ele>32.6</ele>
    <time>2020-06-14T09:35:38Z</time>
   </trkpt>
   <trkpt lat="51.1378190" lon="5.6999710">
    <ele>32.6</ele>
    <time>2020-06-14T09:35:39Z</time>
   </trkpt>
   <trkpt lat="51.1378380" lon="5.7001000">
    <ele>32.6</ele>
    <time>2020-06-14T09:35:40Z</time>
   </trkpt>
   <trkpt lat="51.1378550" lon="5.7002290">
    <ele>32.6</ele>
    <time>2020-06-14T09:35:41Z</time>
   </trkpt>
   <trkpt lat="51.1378760" lon="5.7003560">
    <ele>32.6</ele>
    <time>2020-06-14T09:35:42Z</time>
   </trkpt>
   <trkpt lat="51.1378930" lon="5.7004820">
    <ele>32.6</ele>
    <time>2020-06-14T09:35:43Z</time>
   </trkpt>
   <trkpt lat="51.1379090" lon="5.7006040">
    <ele>32.6</ele>
    <time>2020-06-14T09:35:44Z</time>
   </trkpt>
   <trkpt lat="51.1379210" lon="5.7007320">
    <ele>32.5</ele>
    <time>2020-06-14T09:35:45Z</time>
   </trkpt>
   <trkpt lat="51.1379390" lon="5.7008640">
    <ele>32.4</ele>
    <time>2020-06-14T09:35:46Z</time>
   </trkpt>
   <trkpt lat="51.1379530" lon="5.7010020">
    <ele>32.3</ele>
    <time>2020-06-14T09:35:47Z</time>
   </trkpt>
   <trkpt lat="51.1379630" lon="5.7011320">
    <ele>32.3</ele>
    <time>2020-06-14T09:35:48Z</time>
   </trkpt>
   <trkpt lat="51.1379730" lon="5.7012560">
    <ele>32.2</ele>
    <time>2020-06-14T09:35:49Z</time>
   </trkpt>
   <trkpt lat="51.1379830" lon="5.7013850">
    <ele>32.2</ele>
    <time>2020-06-14T09:35:50Z</time>
   </trkpt>
   <trkpt lat="51.1379990" lon="5.7015180">
    <ele>32.2</ele>
    <time>2020-06-14T09:35:51Z</time>
   </trkpt>
   <trkpt lat="51.1380130" lon="5.7016540">
    <ele>32.1</ele>
    <time>2020-06-14T09:35:52Z</time>
   </trkpt>
   <trkpt lat="51.1380310" lon="5.7017840">
    <ele>32.1</ele>
    <time>2020-06-14T09:35:53Z</time>
   </trkpt>
   <trkpt lat="51.1380510" lon="5.7019080">
    <ele>32.0</ele>
    <time>2020-06-14T09:35:54Z</time>
   </trkpt>
   <trkpt lat="51.1380670" lon="5.7020390">
    <ele>32.0</ele>
    <time>2020-06-14T09:35:55Z</time>
   </trkpt>
   <trkpt lat="51.1380840" lon="5.7021720">
    <ele>31.9</ele>
    <time>2020-06-14T09:35:56Z</time>
   </trkpt>
   <trkpt lat="51.1380970" lon="5.7023080">
    <ele>31.9</ele>
    <time>2020-06-14T09:35:57Z</time>
   </trkpt>
   <trkpt lat="51.1381180" lon="5.7024350">
    <ele>31.8</ele>
    <time>2020-06-14T09:35:58Z</time>
   </trkpt>
   <trkpt lat="51.1381370" lon="5.7025640">
    <ele>31.8</ele>
    <time>2020-06-14T09:35:59Z</time>
   </trkpt>
   <trkpt lat="51.1381560" lon="5.7026960">
    <ele>31.7</ele>
    <time>2020-06-14T09:36:00Z</time>
   </trkpt>
   <trkpt lat="51.1381730" lon="5.7028290">
    <ele>31.7</ele>
    <time>2020-06-14T09:36:01Z</time>
   </trkpt>
   <trkpt lat="51.1381910" lon="5.7029640">
    <ele>31.7</ele>
    <time>2020-06-14T09:36:02Z</time>
   </trkpt>
   <trkpt lat="51.1382060" lon="5.7031000">
    <ele>31.7</ele>
    <time>2020-06-14T09:36:03Z</time>
   </trkpt>
   <trkpt lat="51.1382240" lon="5.7032340">
    <ele>31.7</ele>
    <time>2020-06-14T09:36:04Z</time>
   </trkpt>
   <trkpt lat="51.1382400" lon="5.7033680">
    <ele>31.7</ele>
    <time>2020-06-14T09:36:05Z</time>
   </trkpt>
   <trkpt lat="51.1382570" lon="5.7034940">
    <ele>31.7</ele>
    <time>2020-06-14T09:36:06Z</time>
   </trkpt>
   <trkpt lat="51.1382710" lon="5.7036100">
    <ele>31.7</ele>
    <time>2020-06-14T09:36:07Z</time>
   </trkpt>
   <trkpt lat="51.1382900" lon="5.7037180">
    <ele>31.7</ele>
    <time>2020-06-14T09:36:08Z</time>
   </trkpt>
   <trkpt lat="51.1383100" lon="5.7038270">
    <ele>31.7</ele>
    <time>2020-06-14T09:36:09Z</time>
   </trkpt>
   <trkpt lat="51.1383300" lon="5.7039450">
    <ele>31.7</ele>
    <time>2020-06-14T09:36:10Z</time>
   </trkpt>
   <trkpt lat="51.1383470" lon="5.7040570">
    <ele>31.7</ele>
    <time>2020-06-14T09:36:11Z</time>
   </trkpt>
   <trkpt lat="51.1383630" lon="5.7041630">
    <ele>31.6</ele>
    <time>2020-06-14T09:36:12Z</time>
   </trkpt>
   <trkpt lat="51.1383750" lon="5.7042600">
    <ele>31.6</ele>
    <time>2020-06-14T09:36:13Z</time>
   </trkpt>
   <trkpt lat="51.1383900" lon="5.7043570">
    <ele>31.6</ele>
    <time>2020-06-14T09:36:14Z</time>
   </trkpt>
   <trkpt lat="51.1384430" lon="5.7044630">
    <ele>31.5</ele>
    <time>2020-06-14T09:36:15Z</time>
   </trkpt>
   <trkpt lat="51.1384620" lon="5.7045780">
    <ele>31.5</ele>
    <time>2020-06-14T09:36:16Z</time>
   </trkpt>
   <trkpt lat="51.1384790" lon="5.7047020">
    <ele>31.4</ele>
    <time>2020-06-14T09:36:17Z</time>
   </trkpt>
   <trkpt lat="51.1384880" lon="5.7048240">
    <ele>31.4</ele>
    <time>2020-06-14T09:36:18Z</time>
   </trkpt>
   <trkpt lat="51.1385010" lon="5.7049390">
    <ele>31.4</ele>
    <time>2020-06-14T09:36:19Z</time>
   </trkpt>
   <trkpt lat="51.1385240" lon="5.7050470">
    <ele>31.4</ele>
    <time>2020-06-14T09:36:20Z</time>
   </trkpt>
   <trkpt lat="51.1385250" lon="5.7051630">
    <ele>31.4</ele>
    <time>2020-06-14T09:36:21Z</time>
   </trkpt>
   <trkpt lat="51.1385150" lon="5.7052860">
    <ele>31.4</ele>
    <time>2020-06-14T09:36:22Z</time>
   </trkpt>
   <trkpt lat="51.1385190" lon="5.7054040">
    <ele>31.3</ele>
    <time>2020-06-14T09:36:23Z</time>
   </trkpt>
   <trkpt lat="51.1385450" lon="5.7055250">
    <ele>31.3</ele>
    <time>2020-06-14T09:36:24Z</time>
   </trkpt>
   <trkpt lat="51.1385510" lon="5.7056360">
    <ele>31.3</ele>
    <time>2020-06-14T09:36:25Z</time>
   </trkpt>
   <trkpt lat="51.1385400" lon="5.7057430">
    <ele>31.3</ele>
    <time>2020-06-14T09:36:26Z</time>
   </trkpt>
   <trkpt lat="51.1385410" lon="5.7058540">
    <ele>31.3</ele>
    <time>2020-06-14T09:36:27Z</time>
   </trkpt>
   <trkpt lat="51.1385460" lon="5.7059640">
    <ele>31.3</ele>
    <time>2020-06-14T09:36:28Z</time>
   </trkpt>
   <trkpt lat="51.1385430" lon="5.7060670">
    <ele>31.3</ele>
    <time>2020-06-14T09:36:29Z</time>
   </trkpt>
   <trkpt lat="51.1385430" lon="5.7061700">
    <ele>31.4</ele>
    <time>2020-06-14T09:36:30Z</time>
   </trkpt>
   <trkpt lat="51.1385440" lon="5.7062680">
    <ele>31.4</ele>
    <time>2020-06-14T09:36:31Z</time>
   </trkpt>
   <trkpt lat="51.1385470" lon="5.7063610">
    <ele>31.5</ele>
    <time>2020-06-14T09:36:32Z</time>
   </trkpt>
   <trkpt lat="51.1385500" lon="5.7064530">
    <ele>31.6</ele>
    <time>2020-06-14T09:36:33Z</time>
   </trkpt>
   <trkpt lat="51.1385500" lon="5.7065510">
    <ele>31.7</ele>
    <time>2020-06-14T09:36:34Z</time>
   </trkpt>
   <trkpt lat="51.1385510" lon="5.7066450">
    <ele>31.8</ele>
    <time>2020-06-14T09:36:35Z</time>
   </trkpt>
   <trkpt lat="51.1385480" lon="5.7067320">
    <ele>31.9</ele>
    <time>2020-06-14T09:36:36Z</time>
   </trkpt>
   <trkpt lat="51.1385360" lon="5.7068150">
    <ele>32.0</ele>
    <time>2020-06-14T09:36:37Z</time>
   </trkpt>
   <trkpt lat="51.1385100" lon="5.7068870">
    <ele>32.1</ele>
    <time>2020-06-14T09:36:38Z</time>
   </trkpt>
   <trkpt lat="51.1384740" lon="5.7069250">
    <ele>32.4</ele>
    <time>2020-06-14T09:36:39Z</time>
   </trkpt>
   <trkpt lat="51.1384200" lon="5.7069520">
    <ele>32.4</ele>
    <time>2020-06-14T09:36:40Z</time>
   </trkpt>
   <trkpt lat="51.1383570" lon="5.7069500">
    <ele>32.3</ele>
    <time>2020-06-14T09:36:41Z</time>
   </trkpt>
   <trkpt lat="51.1382830" lon="5.7069730">
    <ele>32.3</ele>
    <time>2020-06-14T09:36:42Z</time>
   </trkpt>
   <trkpt lat="51.1382040" lon="5.7070030">
    <ele>32.1</ele>
    <time>2020-06-14T09:36:43Z</time>
   </trkpt>
   <trkpt lat="51.1381280" lon="5.7070460">
    <ele>31.9</ele>
    <time>2020-06-14T09:36:44Z</time>
   </trkpt>
   <trkpt lat="51.1380570" lon="5.7071080">
    <ele>31.8</ele>
    <time>2020-06-14T09:36:45Z</time>
   </trkpt>
   <trkpt lat="51.1380230" lon="5.7072140">
    <ele>31.7</ele>
    <time>2020-06-14T09:36:46Z</time>
   </trkpt>
   <trkpt lat="51.1379860" lon="5.7073100">
    <ele>31.6</ele>
    <time>2020-06-14T09:36:47Z</time>
   </trkpt>
   <trkpt lat="51.1379590" lon="5.7074180">
    <ele>31.6</ele>
    <time>2020-06-14T09:36:48Z</time>
   </trkpt>
   <trkpt lat="51.1378880" lon="5.7075010">
    <ele>31.5</ele>
    <time>2020-06-14T09:36:49Z</time>
   </trkpt>
   <trkpt lat="51.1378410" lon="5.7076090">
    <ele>31.4</ele>
    <time>2020-06-14T09:36:50Z</time>
   </trkpt>
   <trkpt lat="51.1378070" lon="5.7077280">
    <ele>31.4</ele>
    <time>2020-06-14T09:36:51Z</time>
   </trkpt>
   <trkpt lat="51.1377700" lon="5.7078460">
    <ele>31.4</ele>
    <time>2020-06-14T09:36:52Z</time>
   </trkpt>
   <trkpt lat="51.1377230" lon="5.7079780">
    <ele>31.4</ele>
    <time>2020-06-14T09:36:53Z</time>
   </trkpt>
   <trkpt lat="51.1376780" lon="5.7081190">
    <ele>31.4</ele>
    <time>2020-06-14T09:36:54Z</time>
   </trkpt>
   <trkpt lat="51.1376420" lon="5.7082510">
    <ele>31.4</ele>
    <time>2020-06-14T09:36:55Z</time>
   </trkpt>
   <trkpt lat="51.1376040" lon="5.7083780">
    <ele>31.4</ele>
    <time>2020-06-14T09:36:56Z</time>
   </trkpt>
   <trkpt lat="51.1375330" lon="5.7085880">
    <ele>31.5</ele>
    <time>2020-06-14T09:36:57Z</time>
   </trkpt>
   <trkpt lat="51.1374990" lon="5.7086850">
    <ele>31.6</ele>
    <time>2020-06-14T09:36:58Z</time>
   </trkpt>
   <trkpt lat="51.1374680" lon="5.7087760">
    <ele>31.6</ele>
    <time>2020-06-14T09:36:59Z</time>
   </trkpt>
   <trkpt lat="51.1374400" lon="5.7088680">
    <ele>31.7</ele>
    <time>2020-06-14T09:37:00Z</time>
   </trkpt>
   <trkpt lat="51.1374120" lon="5.7089630">
    <ele>31.8</ele>
    <time>2020-06-14T09:37:01Z</time>
   </trkpt>
   <trkpt lat="51.1374000" lon="5.7090570">
    <ele>31.9</ele>
    <time>2020-06-14T09:37:02Z</time>
   </trkpt>
   <trkpt lat="51.1374140" lon="5.7091370">
    <ele>32.0</ele>
    <time>2020-06-14T09:37:03Z</time>
   </trkpt>
   <trkpt lat="51.1374430" lon="5.7091950">
    <ele>31.8</ele>
    <time>2020-06-14T09:37:04Z</time>
   </trkpt>
   <trkpt lat="51.1374990" lon="5.7092440">
    <ele>31.8</ele>
    <time>2020-06-14T09:37:05Z</time>
   </trkpt>
   <trkpt lat="51.1375690" lon="5.7092970">
    <ele>31.7</ele>
    <time>2020-06-14T09:37:06Z</time>
   </trkpt>
   <trkpt lat="51.1376420" lon="5.7093510">
    <ele>31.6</ele>
    <time>2020-06-14T09:37:07Z</time>
   </trkpt>
   <trkpt lat="51.1377140" lon="5.7094090">
    <ele>31.6</ele>
    <time>2020-06-14T09:37:08Z</time>
   </trkpt>
   <trkpt lat="51.1377790" lon="5.7094690">
    <ele>31.5</ele>
    <time>2020-06-14T09:37:09Z</time>
   </trkpt>
   <trkpt lat="51.1378460" lon="5.7095280">
    <ele>31.5</ele>
    <time>2020-06-14T09:37:10Z</time>
   </trkpt>
   <trkpt lat="51.1379140" lon="5.7095800">
    <ele>31.5</ele>
    <time>2020-06-14T09:37:11Z</time>
   </trkpt>
   <trkpt lat="51.1379830" lon="5.7096440">
    <ele>31.5</ele>
    <time>2020-06-14T09:37:12Z</time>
   </trkpt>
   <trkpt lat="51.1380490" lon="5.7097290">
    <ele>31.5</ele>
    <time>2020-06-14T09:37:13Z</time>
   </trkpt>
   <trkpt lat="51.1380980" lon="5.7098530">
    <ele>31.5</ele>
    <time>2020-06-14T09:37:14Z</time>
   </trkpt>
   <trkpt lat="51.1381290" lon="5.7100010">
    <ele>31.5</ele>
    <time>2020-06-14T09:37:15Z</time>
   </trkpt>
   <trkpt lat="51.1381510" lon="5.7101290">
    <ele>31.5</ele>
    <time>2020-06-14T09:37:16Z</time>
   </trkpt>
   <trkpt lat="51.1381610" lon="5.7102440">
    <ele>31.5</ele>
    <time>2020-06-14T09:37:17Z</time>
   </trkpt>
   <trkpt lat="51.1381850" lon="5.7103570">
    <ele>31.5</ele>
    <time>2020-06-14T09:37:18Z</time>
   </trkpt>
   <trkpt lat="51.1382110" lon="5.7104640">
    <ele>31.5</ele>
    <time>2020-06-14T09:37:19Z</time>
   </trkpt>
   <trkpt lat="51.1382430" lon="5.7105880">
    <ele>31.5</ele>
    <time>2020-06-14T09:37:20Z</time>
   </trkpt>
   <trkpt lat="51.1382700" lon="5.7106960">
    <ele>31.5</ele>
    <time>2020-06-14T09:37:21Z</time>
   </trkpt>
   <trkpt lat="51.1383010" lon="5.7108180">
    <ele>31.6</ele>
    <time>2020-06-14T09:37:22Z</time>
   </trkpt>
   <trkpt lat="51.1383260" lon="5.7109490">
    <ele>31.6</ele>
    <time>2020-06-14T09:37:23Z</time>
   </trkpt>
   <trkpt lat="51.1383590" lon="5.7110730">
    <ele>31.6</ele>
    <time>2020-06-14T09:37:24Z</time>
   </trkpt>
   <trkpt lat="51.1383950" lon="5.7111940">
    <ele>31.6</ele>
    <time>2020-06-14T09:37:25Z</time>
   </trkpt>
   <trkpt lat="51.1384300" lon="5.7113050">
    <ele>31.6</ele>
    <time>2020-06-14T09:37:26Z</time>
   </trkpt>
   <trkpt lat="51.1384550" lon="5.7114260">
    <ele>31.6</ele>
    <time>2020-06-14T09:37:27Z</time>
   </trkpt>
   <trkpt lat="51.1384850" lon="5.7115570">
    <ele>31.6</ele>
    <time>2020-06-14T09:37:28Z</time>
   </trkpt>
   <trkpt lat="51.1385250" lon="5.7116810">
    <ele>31.5</ele>
    <time>2020-06-14T09:37:29Z</time>
   </trkpt>
   <trkpt lat="51.1385600" lon="5.7117940">
    <ele>31.5</ele>
    <time>2020-06-14T09:37:30Z</time>
   </trkpt>
   <trkpt lat="51.1385910" lon="5.7119060">
    <ele>31.5</ele>
    <time>2020-06-14T09:37:31Z</time>
   </trkpt>
   <trkpt lat="51.1386230" lon="5.7120230">
    <ele>31.5</ele>
    <time>2020-06-14T09:37:32Z</time>
   </trkpt>
   <trkpt lat="51.1386540" lon="5.7121440">
    <ele>31.4</ele>
    <time>2020-06-14T09:37:33Z</time>
   </trkpt>
   <trkpt lat="51.1386830" lon="5.7122600">
    <ele>31.4</ele>
    <time>2020-06-14T09:37:34Z</time>
   </trkpt>
   <trkpt lat="51.1387140" lon="5.7123700">
    <ele>31.4</ele>
    <time>2020-06-14T09:37:35Z</time>
   </trkpt>
   <trkpt lat="51.1387450" lon="5.7124820">
    <ele>31.4</ele>
    <time>2020-06-14T09:37:36Z</time>
   </trkpt>
   <trkpt lat="51.1387750" lon="5.7125970">
    <ele>31.4</ele>
    <time>2020-06-14T09:37:37Z</time>
   </trkpt>
   <trkpt lat="51.1388090" lon="5.7127150">
    <ele>31.4</ele>
    <time>2020-06-14T09:37:38Z</time>
   </trkpt>
   <trkpt lat="51.1388410" lon="5.7128340">
    <ele>31.4</ele>
    <time>2020-06-14T09:37:39Z</time>
   </trkpt>
   <trkpt lat="51.1388720" lon="5.7129530">
    <ele>31.4</ele>
    <time>2020-06-14T09:37:40Z</time>
   </trkpt>
   <trkpt lat="51.1389030" lon="5.7130750">
    <ele>31.5</ele>
    <time>2020-06-14T09:37:41Z</time>
   </trkpt>
   <trkpt lat="51.1389360" lon="5.7131960">
    <ele>31.5</ele>
    <time>2020-06-14T09:37:42Z</time>
   </trkpt>
   <trkpt lat="51.1389670" lon="5.7133140">
    <ele>31.5</ele>
    <time>2020-06-14T09:37:43Z</time>
   </trkpt>
   <trkpt lat="51.1389970" lon="5.7134320">
    <ele>31.5</ele>
    <time>2020-06-14T09:37:44Z</time>
   </trkpt>
   <trkpt lat="51.1390240" lon="5.7135560">
    <ele>31.5</ele>
    <time>2020-06-14T09:37:45Z</time>
   </trkpt>
   <trkpt lat="51.1390540" lon="5.7136750">
    <ele>31.5</ele>
    <time>2020-06-14T09:37:46Z</time>
   </trkpt>
   <trkpt lat="51.1390870" lon="5.7137880">
    <ele>31.6</ele>
    <time>2020-06-14T09:37:47Z</time>
   </trkpt>
   <trkpt lat="51.1391200" lon="5.7138930">
    <ele>31.6</ele>
    <time>2020-06-14T09:37:48Z</time>
   </trkpt>
   <trkpt lat="51.1391520" lon="5.7139970">
    <ele>31.6</ele>
    <time>2020-06-14T09:37:49Z</time>
   </trkpt>
   <trkpt lat="51.1391780" lon="5.7141090">
    <ele>31.7</ele>
    <time>2020-06-14T09:37:50Z</time>
   </trkpt>
   <trkpt lat="51.1392130" lon="5.7142220">
    <ele>31.6</ele>
    <time>2020-06-14T09:37:51Z</time>
   </trkpt>
   <trkpt lat="51.1392480" lon="5.7143380">
    <ele>31.6</ele>
    <time>2020-06-14T09:37:52Z</time>
   </trkpt>
   <trkpt lat="51.1392770" lon="5.7144550">
    <ele>31.6</ele>
    <time>2020-06-14T09:37:53Z</time>
   </trkpt>
   <trkpt lat="51.1393060" lon="5.7145770">
    <ele>31.6</ele>
    <time>2020-06-14T09:37:54Z</time>
   </trkpt>
   <trkpt lat="51.1393360" lon="5.7147000">
    <ele>31.5</ele>
    <time>2020-06-14T09:37:55Z</time>
   </trkpt>
   <trkpt lat="51.1393660" lon="5.7148200">
    <ele>31.5</ele>
    <time>2020-06-14T09:37:56Z</time>
   </trkpt>
   <trkpt lat="51.1393870" lon="5.7149390">
    <ele>31.5</ele>
    <time>2020-06-14T09:37:57Z</time>
   </trkpt>
   <trkpt lat="51.1394100" lon="5.7150490">
    <ele>31.5</ele>
    <time>2020-06-14T09:37:58Z</time>
   </trkpt>
   <trkpt lat="51.1394340" lon="5.7151620">
    <ele>31.5</ele>
    <time>2020-06-14T09:37:59Z</time>
   </trkpt>
   <trkpt lat="51.1394640" lon="5.7152740">
    <ele>31.5</ele>
    <time>2020-06-14T09:38:00Z</time>
   </trkpt>
   <trkpt lat="51.1395160" lon="5.7153820">
    <ele>31.5</ele>
    <time>2020-06-14T09:38:01Z</time>
   </trkpt>
   <trkpt lat="51.1395490" lon="5.7155050">
    <ele>31.5</ele>
    <time>2020-06-14T09:38:02Z</time>
   </trkpt>
   <trkpt lat="51.1395830" lon="5.7156330">
    <ele>31.5</ele>
    <time>2020-06-14T09:38:03Z</time>
   </trkpt>
   <trkpt lat="51.1396170" lon="5.7157590">
    <ele>31.5</ele>
    <time>2020-06-14T09:38:04Z</time>
   </trkpt>
   <trkpt lat="51.1396490" lon="5.7158800">
    <ele>31.5</ele>
    <time>2020-06-14T09:38:05Z</time>
   </trkpt>
   <trkpt lat="51.1396780" lon="5.7160040">
    <ele>31.5</ele>
    <time>2020-06-14T09:38:06Z</time>
   </trkpt>
   <trkpt lat="51.1397060" lon="5.7161210">
    <ele>31.4</ele>
    <time>2020-06-14T09:38:07Z</time>
   </trkpt>
   <trkpt lat="51.1397370" lon="5.7162420">
    <ele>31.4</ele>
    <time>2020-06-14T09:38:08Z</time>
   </trkpt>
   <trkpt lat="51.1397700" lon="5.7163670">
    <ele>31.3</ele>
    <time>2020-06-14T09:38:09Z</time>
   </trkpt>
   <trkpt lat="51.1397970" lon="5.7164900">
    <ele>31.3</ele>
    <time>2020-06-14T09:38:10Z</time>
   </trkpt>
   <trkpt lat="51.1398240" lon="5.7166080">
    <ele>31.3</ele>
    <time>2020-06-14T09:38:11Z</time>
   </trkpt>
   <trkpt lat="51.1398520" lon="5.7167280">
    <ele>31.2</ele>
    <time>2020-06-14T09:38:12Z</time>
   </trkpt>
   <trkpt lat="51.1398810" lon="5.7168500">
    <ele>31.2</ele>
    <time>2020-06-14T09:38:13Z</time>
   </trkpt>
   <trkpt lat="51.1399130" lon="5.7169700">
    <ele>31.2</ele>
    <time>2020-06-14T09:38:14Z</time>
   </trkpt>
   <trkpt lat="51.1399480" lon="5.7170770">
    <ele>31.2</ele>
    <time>2020-06-14T09:38:15Z</time>
   </trkpt>
   <trkpt lat="51.1399780" lon="5.7171850">
    <ele>31.3</ele>
    <time>2020-06-14T09:38:16Z</time>
   </trkpt>
   <trkpt lat="51.1400060" lon="5.7172980">
    <ele>31.3</ele>
    <time>2020-06-14T09:38:17Z</time>
   </trkpt>
   <trkpt lat="51.1400290" lon="5.7174140">
    <ele>31.3</ele>
    <time>2020-06-14T09:38:18Z</time>
   </trkpt>
   <trkpt lat="51.1400550" lon="5.7175220">
    <ele>31.4</ele>
    <time>2020-06-14T09:38:19Z</time>
   </trkpt>
   <trkpt lat="51.1400850" lon="5.7176370">
    <ele>31.4</ele>
    <time>2020-06-14T09:38:20Z</time>
   </trkpt>
   <trkpt lat="51.1401080" lon="5.7177480">
    <ele>31.4</ele>
    <time>2020-06-14T09:38:21Z</time>
   </trkpt>
   <trkpt lat="51.1401290" lon="5.7178490">
    <ele>31.4</ele>
    <time>2020-06-14T09:38:22Z</time>
   </trkpt>
   <trkpt lat="51.1401500" lon="5.7179450">
    <ele>31.4</ele>
    <time>2020-06-14T09:38:23Z</time>
   </trkpt>
   <trkpt lat="51.1401730" lon="5.7180310">
    <ele>31.4</ele>
    <time>2020-06-14T09:38:24Z</time>
   </trkpt>
   <trkpt lat="51.1401950" lon="5.7181130">
    <ele>31.5</ele>
    <time>2020-06-14T09:38:25Z</time>
   </trkpt>
   <trkpt lat="51.1402170" lon="5.7181890">
    <ele>31.5</ele>
    <time>2020-06-14T09:38:26Z</time>
   </trkpt>
   <trkpt lat="51.1402290" lon="5.7182730">
    <ele>31.5</ele>
    <time>2020-06-14T09:38:27Z</time>
   </trkpt>
   <trkpt lat="51.1402500" lon="5.7183590">
    <ele>31.6</ele>
    <time>2020-06-14T09:38:28Z</time>
   </trkpt>
   <trkpt lat="51.1402720" lon="5.7184450">
    <ele>31.5</ele>
    <time>2020-06-14T09:38:29Z</time>
   </trkpt>
   <trkpt lat="51.1403030" lon="5.7185230">
    <ele>31.5</ele>
    <time>2020-06-14T09:38:30Z</time>
   </trkpt>
   <trkpt lat="51.1403600" lon="5.7185560">
    <ele>31.5</ele>
    <time>2020-06-14T09:38:31Z</time>
   </trkpt>
   <trkpt lat="51.1404300" lon="5.7185670">
    <ele>31.5</ele>
    <time>2020-06-14T09:38:32Z</time>
   </trkpt>
   <trkpt lat="51.1405100" lon="5.7185640">
    <ele>31.4</ele>
    <time>2020-06-14T09:38:33Z</time>
   </trkpt>
   <trkpt lat="51.1405960" lon="5.7185450">
    <ele>31.4</ele>
    <time>2020-06-14T09:38:34Z</time>
   </trkpt>
   <trkpt lat="51.1406810" lon="5.7185290">
    <ele>31.4</ele>
    <time>2020-06-14T09:38:35Z</time>
   </trkpt>
   <trkpt lat="51.1407690" lon="5.7185210">
    <ele>31.3</ele>
    <time>2020-06-14T09:38:36Z</time>
   </trkpt>
   <trkpt lat="51.1408560" lon="5.7185180">
    <ele>31.3</ele>
    <time>2020-06-14T09:38:37Z</time>
   </trkpt>
   <trkpt lat="51.1409430" lon="5.7185250">
    <ele>31.3</ele>
    <time>2020-06-14T09:38:38Z</time>
   </trkpt>
   <trkpt lat="51.1410250" lon="5.7184330">
    <ele>31.3</ele>
    <time>2020-06-14T09:38:39Z</time>
   </trkpt>
   <trkpt lat="51.1411070" lon="5.7184280">
    <ele>31.3</ele>
    <time>2020-06-14T09:38:40Z</time>
   </trkpt>
   <trkpt lat="51.1411860" lon="5.7184240">
    <ele>31.4</ele>
    <time>2020-06-14T09:38:41Z</time>
   </trkpt>
   <trkpt lat="51.1412620" lon="5.7184120">
    <ele>31.4</ele>
    <time>2020-06-14T09:38:42Z</time>
   </trkpt>
   <trkpt lat="51.1413360" lon="5.7184120">
    <ele>31.4</ele>
    <time>2020-06-14T09:38:43Z</time>
   </trkpt>
   <trkpt lat="51.1414110" lon="5.7184140">
    <ele>31.4</ele>
    <time>2020-06-14T09:38:44Z</time>
   </trkpt>
   <trkpt lat="51.1414870" lon="5.7184150">
    <ele>31.4</ele>
    <time>2020-06-14T09:38:45Z</time>
   </trkpt>
   <trkpt lat="51.1415660" lon="5.7184140">
    <ele>31.5</ele>
    <time>2020-06-14T09:38:46Z</time>
   </trkpt>
   <trkpt lat="51.1416420" lon="5.7184140">
    <ele>31.5</ele>
    <time>2020-06-14T09:38:47Z</time>
   </trkpt>
   <trkpt lat="51.1417140" lon="5.7184130">
    <ele>31.5</ele>
    <time>2020-06-14T09:38:48Z</time>
   </trkpt>
   <trkpt lat="51.1417850" lon="5.7184110">
    <ele>31.6</ele>
    <time>2020-06-14T09:38:49Z</time>
   </trkpt>
   <trkpt lat="51.1418630" lon="5.7184120">
    <ele>31.6</ele>
    <time>2020-06-14T09:38:50Z</time>
   </trkpt>
   <trkpt lat="51.1419370" lon="5.7184100">
    <ele>31.7</ele>
    <time>2020-06-14T09:38:51Z</time>
   </trkpt>
   <trkpt lat="51.1420030" lon="5.7184090">
    <ele>31.8</ele>
    <time>2020-06-14T09:38:52Z</time>
   </trkpt>
   <trkpt lat="51.1420660" lon="5.7184090">
    <ele>31.9</ele>
    <time>2020-06-14T09:38:53Z</time>
   </trkpt>
   <trkpt lat="51.1421250" lon="5.7184150">
    <ele>31.9</ele>
    <time>2020-06-14T09:38:54Z</time>
   </trkpt>
   <trkpt lat="51.1421810" lon="5.7184450">
    <ele>32.0</ele>
    <time>2020-06-14T09:38:55Z</time>
   </trkpt>
   <trkpt lat="51.1422290" lon="5.7184890">
    <ele>32.1</ele>
    <time>2020-06-14T09:38:56Z</time>
   </trkpt>
   <trkpt lat="51.1422630" lon="5.7185700">
    <ele>32.1</ele>
    <time>2020-06-14T09:38:57Z</time>
   </trkpt>
   <trkpt lat="51.1422900" lon="5.7186710">
    <ele>32.1</ele>
    <time>2020-06-14T09:38:58Z</time>
   </trkpt>
   <trkpt lat="51.1423130" lon="5.7187830">
    <ele>32.1</ele>
    <time>2020-06-14T09:38:59Z</time>
   </trkpt>
   <trkpt lat="51.1423360" lon="5.7189000">
    <ele>32.0</ele>
    <time>2020-06-14T09:39:00Z</time>
   </trkpt>
   <trkpt lat="51.1423620" lon="5.7190320">
    <ele>32.0</ele>
    <time>2020-06-14T09:39:01Z</time>
   </trkpt>
   <trkpt lat="51.1422950" lon="5.7191880">
    <ele>32.0</ele>
    <time>2020-06-14T09:39:02Z</time>
   </trkpt>
   <trkpt lat="51.1423040" lon="5.7193090">
    <ele>32.0</ele>
    <time>2020-06-14T09:39:03Z</time>
   </trkpt>
   <trkpt lat="51.1423170" lon="5.7194260">
    <ele>32.0</ele>
    <time>2020-06-14T09:39:04Z</time>
   </trkpt>
   <trkpt lat="51.1423320" lon="5.7195490">
    <ele>32.0</ele>
    <time>2020-06-14T09:39:05Z</time>
   </trkpt>
   <trkpt lat="51.1423500" lon="5.7196800">
    <ele>32.0</ele>
    <time>2020-06-14T09:39:06Z</time>
   </trkpt>
   <trkpt lat="51.1423670" lon="5.7198140">
    <ele>31.9</ele>
    <time>2020-06-14T09:39:07Z</time>
   </trkpt>
   <trkpt lat="51.1423850" lon="5.7199520">
    <ele>31.9</ele>
    <time>2020-06-14T09:39:08Z</time>
   </trkpt>
   <trkpt lat="51.1424070" lon="5.7200950">
    <ele>31.9</ele>
    <time>2020-06-14T09:39:09Z</time>
   </trkpt>
   <trkpt lat="51.1424280" lon="5.7202370">
    <ele>31.9</ele>
    <time>2020-06-14T09:39:10Z</time>
   </trkpt>
   <trkpt lat="51.1424560" lon="5.7203820">
    <ele>31.9</ele>
    <time>2020-06-14T09:39:11Z</time>
   </trkpt>
   <trkpt lat="51.1424760" lon="5.7205160">
    <ele>31.9</ele>
    <time>2020-06-14T09:39:12Z</time>
   </trkpt>
   <trkpt lat="51.1424970" lon="5.7206500">
    <ele>31.8</ele>
    <time>2020-06-14T09:39:13Z</time>
   </trkpt>
   <trkpt lat="51.1425180" lon="5.7207840">
    <ele>31.8</ele>
    <time>2020-06-14T09:39:14Z</time>
   </trkpt>
   <trkpt lat="51.1425390" lon="5.7209150">
    <ele>31.8</ele>
    <time>2020-06-14T09:39:15Z</time>
   </trkpt>
   <trkpt lat="51.1425610" lon="5.7210430">
    <ele>31.8</ele>
    <time>2020-06-14T09:39:16Z</time>
   </trkpt>
   <trkpt lat="51.1425840" lon="5.7211720">
    <ele>31.8</ele>
    <time>2020-06-14T09:39:17Z</time>
   </trkpt>
   <trkpt lat="51.1426030" lon="5.7212990">
    <ele>31.8</ele>
    <time>2020-06-14T09:39:18Z</time>
   </trkpt>
   <trkpt lat="51.1426230" lon="5.7214240">
    <ele>31.9</ele>
    <time>2020-06-14T09:39:19Z</time>
   </trkpt>
   <trkpt lat="51.1426430" lon="5.7215550">
    <ele>31.9</ele>
    <time>2020-06-14T09:39:20Z</time>
   </trkpt>
   <trkpt lat="51.1426640" lon="5.7216770">
    <ele>31.9</ele>
    <time>2020-06-14T09:39:21Z</time>
   </trkpt>
   <trkpt lat="51.1426840" lon="5.7217940">
    <ele>31.8</ele>
    <time>2020-06-14T09:39:22Z</time>
   </trkpt>
   <trkpt lat="51.1427060" lon="5.7219100">
    <ele>31.8</ele>
    <time>2020-06-14T09:39:23Z</time>
   </trkpt>
   <trkpt lat="51.1427230" lon="5.7220190">
    <ele>31.8</ele>
    <time>2020-06-14T09:39:24Z</time>
   </trkpt>
   <trkpt lat="51.1427390" lon="5.7221230">
    <ele>31.8</ele>
    <time>2020-06-14T09:39:25Z</time>
   </trkpt>
   <trkpt lat="51.1427560" lon="5.7222310">
    <ele>31.8</ele>
    <time>2020-06-14T09:39:26Z</time>
   </trkpt>
   <trkpt lat="51.1427740" lon="5.7223490">
    <ele>31.8</ele>
    <time>2020-06-14T09:39:27Z</time>
   </trkpt>
   <trkpt lat="51.1427930" lon="5.7224650">
    <ele>31.8</ele>
    <time>2020-06-14T09:39:28Z</time>
   </trkpt>
   <trkpt lat="51.1428140" lon="5.7225800">
    <ele>31.8</ele>
    <time>2020-06-14T09:39:29Z</time>
   </trkpt>
   <trkpt lat="51.1428330" lon="5.7226970">
    <ele>31.8</ele>
    <time>2020-06-14T09:39:30Z</time>
   </trkpt>
   <trkpt lat="51.1428520" lon="5.7228160">
    <ele>31.8</ele>
    <time>2020-06-14T09:39:31Z</time>
   </trkpt>
   <trkpt lat="51.1428770" lon="5.7229370">
    <ele>31.8</ele>
    <time>2020-06-14T09:39:32Z</time>
   </trkpt>
   <trkpt lat="51.1428970" lon="5.7230600">
    <ele>31.7</ele>
    <time>2020-06-14T09:39:33Z</time>
   </trkpt>
   <trkpt lat="51.1429560" lon="5.7231710">
    <ele>31.7</ele>
    <time>2020-06-14T09:39:34Z</time>
   </trkpt>
   <trkpt lat="51.1429760" lon="5.7232920">
    <ele>31.7</ele>
    <time>2020-06-14T09:39:35Z</time>
   </trkpt>
   <trkpt lat="51.1429980" lon="5.7234100">
    <ele>31.7</ele>
    <time>2020-06-14T09:39:36Z</time>
   </trkpt>
   <trkpt lat="51.1430280" lon="5.7235240">
    <ele>31.8</ele>
    <time>2020-06-14T09:39:37Z</time>
   </trkpt>
   <trkpt lat="51.1430600" lon="5.7236340">
    <ele>31.8</ele>
    <time>2020-06-14T09:39:38Z</time>
   </trkpt>
   <trkpt lat="51.1430910" lon="5.7237360">
    <ele>31.8</ele>
    <time>2020-06-14T09:39:39Z</time>
   </trkpt>
   <trkpt lat="51.1431260" lon="5.7238340">
    <ele>31.8</ele>
    <time>2020-06-14T09:39:40Z</time>
   </trkpt>
   <trkpt lat="51.1431610" lon="5.7239280">
    <ele>31.8</ele>
    <time>2020-06-14T09:39:41Z</time>
   </trkpt>
   <trkpt lat="51.1431920" lon="5.7240290">
    <ele>31.8</ele>
    <time>2020-06-14T09:39:42Z</time>
   </trkpt>
   <trkpt lat="51.1432260" lon="5.7241290">
    <ele>31.8</ele>
    <time>2020-06-14T09:39:43Z</time>
   </trkpt>
   <trkpt lat="51.1432550" lon="5.7242300">
    <ele>31.8</ele>
    <time>2020-06-14T09:39:44Z</time>
   </trkpt>
   <trkpt lat="51.1432800" lon="5.7243250">
    <ele>31.8</ele>
    <time>2020-06-14T09:39:45Z</time>
   </trkpt>
   <trkpt lat="51.1433050" lon="5.7244180">
    <ele>31.8</ele>
    <time>2020-06-14T09:39:46Z</time>
   </trkpt>
   <trkpt lat="51.1433300" lon="5.7245150">
    <ele>31.8</ele>
    <time>2020-06-14T09:39:47Z</time>
   </trkpt>
   <trkpt lat="51.1433570" lon="5.7246200">
    <ele>31.8</ele>
    <time>2020-06-14T09:39:48Z</time>
   </trkpt>
   <trkpt lat="51.1433800" lon="5.7247330">
    <ele>31.7</ele>
    <time>2020-06-14T09:39:49Z</time>
   </trkpt>
   <trkpt lat="51.1434020" lon="5.7248590">
    <ele>31.7</ele>
    <time>2020-06-14T09:39:50Z</time>
   </trkpt>
   <trkpt lat="51.1434280" lon="5.7249810">
    <ele>31.7</ele>
    <time>2020-06-14T09:39:51Z</time>
   </trkpt>
   <trkpt lat="51.1434520" lon="5.7251010">
    <ele>31.7</ele>
    <time>2020-06-14T09:39:52Z</time>
   </trkpt>
   <trkpt lat="51.1434730" lon="5.7252250">
    <ele>31.7</ele>
    <time>2020-06-14T09:39:53Z</time>
   </trkpt>
   <trkpt lat="51.1434950" lon="5.7253460">
    <ele>31.6</ele>
    <time>2020-06-14T09:39:54Z</time>
   </trkpt>
   <trkpt lat="51.1435220" lon="5.7254600">
    <ele>31.6</ele>
    <time>2020-06-14T09:39:55Z</time>
   </trkpt>
   <trkpt lat="51.1435450" lon="5.7255740">
    <ele>31.5</ele>
    <time>2020-06-14T09:39:56Z</time>
   </trkpt>
   <trkpt lat="51.1435690" lon="5.7256880">
    <ele>31.4</ele>
    <time>2020-06-14T09:39:57Z</time>
   </trkpt>
   <trkpt lat="51.1435890" lon="5.7258060">
    <ele>31.4</ele>
    <time>2020-06-14T09:39:58Z</time>
   </trkpt>
   <trkpt lat="51.1435940" lon="5.7259220">
    <ele>31.4</ele>
    <time>2020-06-14T09:39:59Z</time>
   </trkpt>
   <trkpt lat="51.1435870" lon="5.7260440">
    <ele>31.4</ele>
    <time>2020-06-14T09:40:00Z</time>
   </trkpt>
   <trkpt lat="51.1435840" lon="5.7261650">
    <ele>31.4</ele>
    <time>2020-06-14T09:40:01Z</time>
   </trkpt>
   <trkpt lat="51.1435840" lon="5.7262910">
    <ele>31.5</ele>
    <time>2020-06-14T09:40:02Z</time>
   </trkpt>
   <trkpt lat="51.1435820" lon="5.7264250">
    <ele>31.5</ele>
    <time>2020-06-14T09:40:03Z</time>
   </trkpt>
   <trkpt lat="51.1435740" lon="5.7265680">
    <ele>31.6</ele>
    <time>2020-06-14T09:40:04Z</time>
   </trkpt>
   <trkpt lat="51.1435750" lon="5.7267020">
    <ele>31.6</ele>
    <time>2020-06-14T09:40:05Z</time>
   </trkpt>
   <trkpt lat="51.1435790" lon="5.7268470">
    <ele>31.7</ele>
    <time>2020-06-14T09:40:06Z</time>
   </trkpt>
   <trkpt lat="51.1435770" lon="5.7269840">
    <ele>31.8</ele>
    <time>2020-06-14T09:40:07Z</time>
   </trkpt>
   <trkpt lat="51.1435680" lon="5.7271200">
    <ele>31.9</ele>
    <time>2020-06-14T09:40:08Z</time>
   </trkpt>
   <trkpt lat="51.1435630" lon="5.7272510">
    <ele>31.9</ele>
    <time>2020-06-14T09:40:09Z</time>
   </trkpt>
   <trkpt lat="51.1435580" lon="5.7273820">
    <ele>32.0</ele>
    <time>2020-06-14T09:40:10Z</time>
   </trkpt>
   <trkpt lat="51.1435500" lon="5.7275080">
    <ele>32.0</ele>
    <time>2020-06-14T09:40:11Z</time>
   </trkpt>
   <trkpt lat="51.1435440" lon="5.7276280">
    <ele>32.1</ele>
    <time>2020-06-14T09:40:12Z</time>
   </trkpt>
   <trkpt lat="51.1435360" lon="5.7277470">
    <ele>32.2</ele>
    <time>2020-06-14T09:40:13Z</time>
   </trkpt>
   <trkpt lat="51.1435270" lon="5.7278720">
    <ele>32.3</ele>
    <time>2020-06-14T09:40:14Z</time>
   </trkpt>
   <trkpt lat="51.1435200" lon="5.7279880">
    <ele>32.5</ele>
    <time>2020-06-14T09:40:15Z</time>
   </trkpt>
   <trkpt lat="51.1435100" lon="5.7281020">
    <ele>32.3</ele>
    <time>2020-06-14T09:40:16Z</time>
   </trkpt>
   <trkpt lat="51.1435050" lon="5.7282150">
    <ele>32.1</ele>
    <time>2020-06-14T09:40:17Z</time>
   </trkpt>
   <trkpt lat="51.1434980" lon="5.7283250">
    <ele>31.9</ele>
    <time>2020-06-14T09:40:18Z</time>
   </trkpt>
   <trkpt lat="51.1434920" lon="5.7284310">
    <ele>31.7</ele>
    <time>2020-06-14T09:40:19Z</time>
   </trkpt>
   <trkpt lat="51.1434870" lon="5.7285510">
    <ele>31.5</ele>
    <time>2020-06-14T09:40:20Z</time>
   </trkpt>
   <trkpt lat="51.1434760" lon="5.7286740">
    <ele>31.4</ele>
    <time>2020-06-14T09:40:21Z</time>
   </trkpt>
   <trkpt lat="51.1434630" lon="5.7288030">
    <ele>31.2</ele>
    <time>2020-06-14T09:40:22Z</time>
   </trkpt>
   <trkpt lat="51.1434500" lon="5.7289360">
    <ele>31.1</ele>
    <time>2020-06-14T09:40:23Z</time>
   </trkpt>
   <trkpt lat="51.1434380" lon="5.7290710">
    <ele>31.0</ele>
    <time>2020-06-14T09:40:24Z</time>
   </trkpt>
   <trkpt lat="51.1434290" lon="5.7292120">
    <ele>30.9</ele>
    <time>2020-06-14T09:40:25Z</time>
   </trkpt>
   <trkpt lat="51.1434190" lon="5.7293520">
    <ele>30.9</ele>
    <time>2020-06-14T09:40:26Z</time>
   </trkpt>
   <trkpt lat="51.1434090" lon="5.7294910">
    <ele>30.9</ele>
    <time>2020-06-14T09:40:27Z</time>
   </trkpt>
   <trkpt lat="51.1434010" lon="5.7296190">
    <ele>30.8</ele>
    <time>2020-06-14T09:40:28Z</time>
   </trkpt>
   <trkpt lat="51.1434010" lon="5.7297500">
    <ele>30.8</ele>
    <time>2020-06-14T09:40:29Z</time>
   </trkpt>
   <trkpt lat="51.1433990" lon="5.7298880">
    <ele>30.7</ele>
    <time>2020-06-14T09:40:30Z</time>
   </trkpt>
   <trkpt lat="51.1433940" lon="5.7300150">
    <ele>30.6</ele>
    <time>2020-06-14T09:40:31Z</time>
   </trkpt>
   <trkpt lat="51.1433930" lon="5.7301490">
    <ele>30.5</ele>
    <time>2020-06-14T09:40:32Z</time>
   </trkpt>
   <trkpt lat="51.1433900" lon="5.7302810">
    <ele>30.5</ele>
    <time>2020-06-14T09:40:33Z</time>
   </trkpt>
   <trkpt lat="51.1433850" lon="5.7304150">
    <ele>30.5</ele>
    <time>2020-06-14T09:40:34Z</time>
   </trkpt>
   <trkpt lat="51.1433790" lon="5.7305540">
    <ele>30.4</ele>
    <time>2020-06-14T09:40:35Z</time>
   </trkpt>
   <trkpt lat="51.1433620" lon="5.7306840">
    <ele>30.4</ele>
    <time>2020-06-14T09:40:36Z</time>
   </trkpt>
   <trkpt lat="51.1433350" lon="5.7308010">
    <ele>30.5</ele>
    <time>2020-06-14T09:40:37Z</time>
   </trkpt>
   <trkpt lat="51.1433040" lon="5.7309150">
    <ele>30.5</ele>
    <time>2020-06-14T09:40:38Z</time>
   </trkpt>
   <trkpt lat="51.1432710" lon="5.7310260">
    <ele>30.5</ele>
    <time>2020-06-14T09:40:39Z</time>
   </trkpt>
   <trkpt lat="51.1432390" lon="5.7311380">
    <ele>30.4</ele>
    <time>2020-06-14T09:40:40Z</time>
   </trkpt>
   <trkpt lat="51.1432050" lon="5.7312480">
    <ele>30.4</ele>
    <time>2020-06-14T09:40:41Z</time>
   </trkpt>
   <trkpt lat="51.1431750" lon="5.7313580">
    <ele>30.4</ele>
    <time>2020-06-14T09:40:42Z</time>
   </trkpt>
   <trkpt lat="51.1431370" lon="5.7314700">
    <ele>30.4</ele>
    <time>2020-06-14T09:40:43Z</time>
   </trkpt>
   <trkpt lat="51.1430960" lon="5.7315750">
    <ele>30.4</ele>
    <time>2020-06-14T09:40:44Z</time>
   </trkpt>
   <trkpt lat="51.1430540" lon="5.7316750">
    <ele>30.3</ele>
    <time>2020-06-14T09:40:45Z</time>
   </trkpt>
   <trkpt lat="51.1430150" lon="5.7317770">
    <ele>30.2</ele>
    <time>2020-06-14T09:40:46Z</time>
   </trkpt>
   <trkpt lat="51.1429790" lon="5.7318760">
    <ele>30.2</ele>
    <time>2020-06-14T09:40:47Z</time>
   </trkpt>
   <trkpt lat="51.1429490" lon="5.7319800">
    <ele>30.2</ele>
    <time>2020-06-14T09:40:48Z</time>
   </trkpt>
   <trkpt lat="51.1429250" lon="5.7320890">
    <ele>30.2</ele>
    <time>2020-06-14T09:40:49Z</time>
   </trkpt>
   <trkpt lat="51.1429190" lon="5.7322020">
    <ele>30.2</ele>
    <time>2020-06-14T09:40:50Z</time>
   </trkpt>
   <trkpt lat="51.1429200" lon="5.7323250">
    <ele>30.3</ele>
    <time>2020-06-14T09:40:51Z</time>
   </trkpt>
   <trkpt lat="51.1429290" lon="5.7324460">
    <ele>30.3</ele>
    <time>2020-06-14T09:40:52Z</time>
   </trkpt>
   <trkpt lat="51.1429430" lon="5.7325610">
    <ele>30.4</ele>
    <time>2020-06-14T09:40:53Z</time>
   </trkpt>
   <trkpt lat="51.1429640" lon="5.7326760">
    <ele>30.4</ele>
    <time>2020-06-14T09:40:54Z</time>
   </trkpt>
   <trkpt lat="51.1429880" lon="5.7327900">
    <ele>30.5</ele>
    <time>2020-06-14T09:40:55Z</time>
   </trkpt>
   <trkpt lat="51.1430120" lon="5.7329080">
    <ele>30.5</ele>
    <time>2020-06-14T09:40:56Z</time>
   </trkpt>
   <trkpt lat="51.1430350" lon="5.7330270">
    <ele>30.5</ele>
    <time>2020-06-14T09:40:57Z</time>
   </trkpt>
   <trkpt lat="51.1430630" lon="5.7331440">
    <ele>31.0</ele>
    <time>2020-06-14T09:40:58Z</time>
   </trkpt>
   <trkpt lat="51.1430870" lon="5.7332650">
    <ele>31.0</ele>
    <time>2020-06-14T09:40:59Z</time>
   </trkpt>
   <trkpt lat="51.1431100" lon="5.7333850">
    <ele>31.0</ele>
    <time>2020-06-14T09:41:00Z</time>
   </trkpt>
   <trkpt lat="51.1431280" lon="5.7335090">
    <ele>30.9</ele>
    <time>2020-06-14T09:41:01Z</time>
   </trkpt>
   <trkpt lat="51.1431490" lon="5.7336370">
    <ele>30.9</ele>
    <time>2020-06-14T09:41:02Z</time>
   </trkpt>
   <trkpt lat="51.1431770" lon="5.7337650">
    <ele>30.9</ele>
    <time>2020-06-14T09:41:03Z</time>
   </trkpt>
   <trkpt lat="51.1432070" lon="5.7338800">
    <ele>30.9</ele>
    <time>2020-06-14T09:41:04Z</time>
   </trkpt>
   <trkpt lat="51.1432450" lon="5.7339920">
    <ele>30.9</ele>
    <time>2020-06-14T09:41:05Z</time>
   </trkpt>
   <trkpt lat="51.1432850" lon="5.7341080">
    <ele>30.9</ele>
    <time>2020-06-14T09:41:06Z</time>
   </trkpt>
   <trkpt lat="51.1433240" lon="5.7342220">
    <ele>30.9</ele>
    <time>2020-06-14T09:41:07Z</time>
   </trkpt>
   <trkpt lat="51.1433700" lon="5.7343270">
    <ele>31.0</ele>
    <time>2020-06-14T09:41:08Z</time>
   </trkpt>
   <trkpt lat="51.1434200" lon="5.7344270">
    <ele>31.0</ele>
    <time>2020-06-14T09:41:09Z</time>
   </trkpt>
   <trkpt lat="51.1434680" lon="5.7345280">
    <ele>31.0</ele>
    <time>2020-06-14T09:41:10Z</time>
   </trkpt>
   <trkpt lat="51.1435180" lon="5.7346270">
    <ele>31.0</ele>
    <time>2020-06-14T09:41:11Z</time>
   </trkpt>
   <trkpt lat="51.1435710" lon="5.7347210">
    <ele>31.0</ele>
    <time>2020-06-14T09:41:12Z</time>
   </trkpt>
   <trkpt lat="51.1436260" lon="5.7348090">
    <ele>31.0</ele>
    <time>2020-06-14T09:41:13Z</time>
   </trkpt>
   <trkpt lat="51.1436830" lon="5.7348960">
    <ele>31.1</ele>
    <time>2020-06-14T09:41:14Z</time>
   </trkpt>
   <trkpt lat="51.1437360" lon="5.7349860">
    <ele>31.1</ele>
    <time>2020-06-14T09:41:15Z</time>
   </trkpt>
   <trkpt lat="51.1437870" lon="5.7350750">
    <ele>31.1</ele>
    <time>2020-06-14T09:41:16Z</time>
   </trkpt>
   <trkpt lat="51.1438350" lon="5.7351590">
    <ele>31.2</ele>
    <time>2020-06-14T09:41:17Z</time>
   </trkpt>
   <trkpt lat="51.1438860" lon="5.7352370">
    <ele>31.2</ele>
    <time>2020-06-14T09:41:18Z</time>
   </trkpt>
   <trkpt lat="51.1439350" lon="5.7353170">
    <ele>31.2</ele>
    <time>2020-06-14T09:41:19Z</time>
   </trkpt>
   <trkpt lat="51.1439850" lon="5.7353940">
    <ele>31.2</ele>
    <time>2020-06-14T09:41:20Z</time>
   </trkpt>
   <trkpt lat="51.1440380" lon="5.7354700">
    <ele>31.2</ele>
    <time>2020-06-14T09:41:21Z</time>
   </trkpt>
   <trkpt lat="51.1440860" lon="5.7355490">
    <ele>31.2</ele>
    <time>2020-06-14T09:41:22Z</time>
   </trkpt>
   <trkpt lat="51.1441330" lon="5.7356310">
    <ele>31.2</ele>
    <time>2020-06-14T09:41:23Z</time>
   </trkpt>
   <trkpt lat="51.1441790" lon="5.7357050">
    <ele>31.1</ele>
    <time>2020-06-14T09:41:24Z</time>
   </trkpt>
   <trkpt lat="51.1442200" lon="5.7357940">
    <ele>31.1</ele>
    <time>2020-06-14T09:41:25Z</time>
   </trkpt>
   <trkpt lat="51.1442560" lon="5.7358970">
    <ele>31.1</ele>
    <time>2020-06-14T09:41:26Z</time>
   </trkpt>
   <trkpt lat="51.1442890" lon="5.7360110">
    <ele>31.0</ele>
    <time>2020-06-14T09:41:27Z</time>
   </trkpt>
   <trkpt lat="51.1443220" lon="5.7361210">
    <ele>31.0</ele>
    <time>2020-06-14T09:41:28Z</time>
   </trkpt>
   <trkpt lat="51.1443490" lon="5.7362230">
    <ele>30.9</ele>
    <time>2020-06-14T09:41:29Z</time>
   </trkpt>
   <trkpt lat="51.1443740" lon="5.7363290">
    <ele>30.9</ele>
    <time>2020-06-14T09:41:30Z</time>
   </trkpt>
   <trkpt lat="51.1443930" lon="5.7364380">
    <ele>31.0</ele>
    <time>2020-06-14T09:41:31Z</time>
   </trkpt>
   <trkpt lat="51.1444110" lon="5.7365460">
    <ele>31.0</ele>
    <time>2020-06-14T09:41:32Z</time>
   </trkpt>
   <trkpt lat="51.1444280" lon="5.7366490">
    <ele>31.1</ele>
    <time>2020-06-14T09:41:33Z</time>
   </trkpt>
   <trkpt lat="51.1444470" lon="5.7367480">
    <ele>31.2</ele>
    <time>2020-06-14T09:41:34Z</time>
   </trkpt>
   <trkpt lat="51.1444610" lon="5.7368480">
    <ele>31.3</ele>
    <time>2020-06-14T09:41:35Z</time>
   </trkpt>
   <trkpt lat="51.1444760" lon="5.7369440">
    <ele>31.3</ele>
    <time>2020-06-14T09:41:36Z</time>
   </trkpt>
   <trkpt lat="51.1444990" lon="5.7370380">
    <ele>31.4</ele>
    <time>2020-06-14T09:41:37Z</time>
   </trkpt>
   <trkpt lat="51.1445340" lon="5.7371250">
    <ele>31.4</ele>
    <time>2020-06-14T09:41:38Z</time>
   </trkpt>
   <trkpt lat="51.1445760" lon="5.7371900">
    <ele>31.4</ele>
    <time>2020-06-14T09:41:39Z</time>
   </trkpt>
   <trkpt lat="51.1446250" lon="5.7372310">
    <ele>31.4</ele>
    <time>2020-06-14T09:41:40Z</time>
   </trkpt>
   <trkpt lat="51.1446780" lon="5.7372680">
    <ele>31.4</ele>
    <time>2020-06-14T09:41:41Z</time>
   </trkpt>
   <trkpt lat="51.1447170" lon="5.7373070">
    <ele>31.4</ele>
    <time>2020-06-14T09:41:42Z</time>
   </trkpt>
   <trkpt lat="51.1447690" lon="5.7373510">
    <ele>31.4</ele>
    <time>2020-06-14T09:41:43Z</time>
   </trkpt>
   <trkpt lat="51.1448050" lon="5.7374170">
    <ele>31.4</ele>
    <time>2020-06-14T09:41:44Z</time>
   </trkpt>
   <trkpt lat="51.1448300" lon="5.7375040">
    <ele>31.5</ele>
    <time>2020-06-14T09:41:45Z</time>
   </trkpt>
   <trkpt lat="51.1448450" lon="5.7376100">
    <ele>31.5</ele>
    <time>2020-06-14T09:41:46Z</time>
   </trkpt>
   <trkpt lat="51.1448690" lon="5.7377040">
    <ele>31.5</ele>
    <time>2020-06-14T09:41:47Z</time>
   </trkpt>
   <trkpt lat="51.1449020" lon="5.7378070">
    <ele>31.6</ele>
    <time>2020-06-14T09:41:48Z</time>
   </trkpt>
   <trkpt lat="51.1449350" lon="5.7379210">
    <ele>31.6</ele>
    <time>2020-06-14T09:41:49Z</time>
   </trkpt>
   <trkpt lat="51.1449700" lon="5.7380370">
    <ele>31.6</ele>
    <time>2020-06-14T09:41:50Z</time>
   </trkpt>
   <trkpt lat="51.1450020" lon="5.7381460">
    <ele>31.6</ele>
    <time>2020-06-14T09:41:51Z</time>
   </trkpt>
   <trkpt lat="51.1450340" lon="5.7382510">
    <ele>31.6</ele>
    <time>2020-06-14T09:41:52Z</time>
   </trkpt>
   <trkpt lat="51.1450670" lon="5.7383560">
    <ele>31.7</ele>
    <time>2020-06-14T09:41:53Z</time>
   </trkpt>
   <trkpt lat="51.1450950" lon="5.7384720">
    <ele>31.7</ele>
    <time>2020-06-14T09:41:54Z</time>
   </trkpt>
   <trkpt lat="51.1451250" lon="5.7385850">
    <ele>31.8</ele>
    <time>2020-06-14T09:41:55Z</time>
   </trkpt>
   <trkpt lat="51.1451800" lon="5.7386900">
    <ele>31.8</ele>
    <time>2020-06-14T09:41:56Z</time>
   </trkpt>
   <trkpt lat="51.1452190" lon="5.7387980">
    <ele>31.9</ele>
    <time>2020-06-14T09:41:57Z</time>
   </trkpt>
   <trkpt lat="51.1452450" lon="5.7389050">
    <ele>31.9</ele>
    <time>2020-06-14T09:41:58Z</time>
   </trkpt>
   <trkpt lat="51.1452710" lon="5.7390050">
    <ele>32.0</ele>
    <time>2020-06-14T09:41:59Z</time>
   </trkpt>
   <trkpt lat="51.1453010" lon="5.7391210">
    <ele>32.0</ele>
    <time>2020-06-14T09:42:00Z</time>
   </trkpt>
   <trkpt lat="51.1453200" lon="5.7392310">
    <ele>32.1</ele>
    <time>2020-06-14T09:42:01Z</time>
   </trkpt>
   <trkpt lat="51.1453330" lon="5.7393240">
    <ele>32.2</ele>
    <time>2020-06-14T09:42:02Z</time>
   </trkpt>
   <trkpt lat="51.1453490" lon="5.7394170">
    <ele>32.3</ele>
    <time>2020-06-14T09:42:03Z</time>
   </trkpt>
   <trkpt lat="51.1453750" lon="5.7395210">
    <ele>32.4</ele>
    <time>2020-06-14T09:42:04Z</time>
   </trkpt>
   <trkpt lat="51.1454030" lon="5.7396020">
    <ele>32.5</ele>
    <time>2020-06-14T09:42:05Z</time>
   </trkpt>
   <trkpt lat="51.1454300" lon="5.7396910">
    <ele>32.5</ele>
    <time>2020-06-14T09:42:06Z</time>
   </trkpt>
   <trkpt lat="51.1454580" lon="5.7397690">
    <ele>32.5</ele>
    <time>2020-06-14T09:42:07Z</time>
   </trkpt>
   <trkpt lat="51.1454890" lon="5.7398370">
    <ele>32.5</ele>
    <time>2020-06-14T09:42:08Z</time>
   </trkpt>
   <trkpt lat="51.1455130" lon="5.7399060">
    <ele>32.6</ele>
    <time>2020-06-14T09:42:09Z</time>
   </trkpt>
   <trkpt lat="51.1455280" lon="5.7399850">
    <ele>32.3</ele>
    <time>2020-06-14T09:42:10Z</time>
   </trkpt>
   <trkpt lat="51.1455330" lon="5.7400830">
    <ele>32.2</ele>
    <time>2020-06-14T09:42:11Z</time>
   </trkpt>
   <trkpt lat="51.1455370" lon="5.7401970">
    <ele>32.1</ele>
    <time>2020-06-14T09:42:12Z</time>
   </trkpt>
   <trkpt lat="51.1455390" lon="5.7403080">
    <ele>32.1</ele>
    <time>2020-06-14T09:42:13Z</time>
   </trkpt>
   <trkpt lat="51.1455460" lon="5.7403990">
    <ele>32.1</ele>
    <time>2020-06-14T09:42:14Z</time>
   </trkpt>
   <trkpt lat="51.1455480" lon="5.7405320">
    <ele>32.1</ele>
    <time>2020-06-14T09:42:15Z</time>
   </trkpt>
   <trkpt lat="51.1455540" lon="5.7406620">
    <ele>32.1</ele>
    <time>2020-06-14T09:42:16Z</time>
   </trkpt>
   <trkpt lat="51.1455550" lon="5.7407990">
    <ele>32.1</ele>
    <time>2020-06-14T09:42:17Z</time>
   </trkpt>
   <trkpt lat="51.1455520" lon="5.7409120">
    <ele>32.1</ele>
    <time>2020-06-14T09:42:18Z</time>
   </trkpt>
   <trkpt lat="51.1455540" lon="5.7410200">
    <ele>32.2</ele>
    <time>2020-06-14T09:42:19Z</time>
   </trkpt>
   <trkpt lat="51.1455640" lon="5.7411130">
    <ele>32.2</ele>
    <time>2020-06-14T09:42:20Z</time>
   </trkpt>
   <trkpt lat="51.1455570" lon="5.7412090">
    <ele>32.2</ele>
    <time>2020-06-14T09:42:21Z</time>
   </trkpt>
   <trkpt lat="51.1455490" lon="5.7412980">
    <ele>32.3</ele>
    <time>2020-06-14T09:42:22Z</time>
   </trkpt>
   <trkpt lat="51.1455450" lon="5.7413760">
    <ele>32.3</ele>
    <time>2020-06-14T09:42:23Z</time>
   </trkpt>
   <trkpt lat="51.1455440" lon="5.7414470">
    <ele>32.3</ele>
    <time>2020-06-14T09:42:24Z</time>
   </trkpt>
   <trkpt lat="51.1455260" lon="5.7415450">
    <ele>32.4</ele>
    <time>2020-06-14T09:42:25Z</time>
   </trkpt>
   <trkpt lat="51.1454900" lon="5.7416160">
    <ele>32.4</ele>
    <time>2020-06-14T09:42:26Z</time>
   </trkpt>
   <trkpt lat="51.1454590" lon="5.7416780">
    <ele>32.4</ele>
    <time>2020-06-14T09:42:27Z</time>
   </trkpt>
   <trkpt lat="51.1454370" lon="5.7417490">
    <ele>32.5</ele>
    <time>2020-06-14T09:42:28Z</time>
   </trkpt>
   <trkpt lat="51.1454360" lon="5.7418210">
    <ele>32.5</ele>
    <time>2020-06-14T09:42:29Z</time>
   </trkpt>
   <trkpt lat="51.1454470" lon="5.7418930">
    <ele>32.7</ele>
    <time>2020-06-14T09:42:30Z</time>
   </trkpt>
   <trkpt lat="51.1454740" lon="5.7419580">
    <ele>32.8</ele>
    <time>2020-06-14T09:42:31Z</time>
   </trkpt>
   <trkpt lat="51.1455080" lon="5.7420380">
    <ele>33.0</ele>
    <time>2020-06-14T09:42:32Z</time>
   </trkpt>
   <trkpt lat="51.1455420" lon="5.7421330">
    <ele>32.8</ele>
    <time>2020-06-14T09:42:33Z</time>
   </trkpt>
   <trkpt lat="51.1455740" lon="5.7422360">
    <ele>32.6</ele>
    <time>2020-06-14T09:42:34Z</time>
   </trkpt>
   <trkpt lat="51.1455950" lon="5.7423430">
    <ele>32.4</ele>
    <time>2020-06-14T09:42:35Z</time>
   </trkpt>
   <trkpt lat="51.1456140" lon="5.7424420">
    <ele>32.3</ele>
    <time>2020-06-14T09:42:36Z</time>
   </trkpt>
   <trkpt lat="51.1456320" lon="5.7425460">
    <ele>32.1</ele>
    <time>2020-06-14T09:42:37Z</time>
   </trkpt>
   <trkpt lat="51.1456430" lon="5.7426560">
    <ele>32.0</ele>
    <time>2020-06-14T09:42:38Z</time>
   </trkpt>
   <trkpt lat="51.1456610" lon="5.7427580">
    <ele>31.9</ele>
    <time>2020-06-14T09:42:39Z</time>
   </trkpt>
   <trkpt lat="51.1456830" lon="5.7428640">
    <ele>31.9</ele>
    <time>2020-06-14T09:42:40Z</time>
   </trkpt>
   <trkpt lat="51.1456970" lon="5.7429720">
    <ele>31.8</ele>
    <time>2020-06-14T09:42:41Z</time>
   </trkpt>
   <trkpt lat="51.1457080" lon="5.7430670">
    <ele>31.8</ele>
    <time>2020-06-14T09:42:42Z</time>
   </trkpt>
   <trkpt lat="51.1457170" lon="5.7431440">
    <ele>31.8</ele>
    <time>2020-06-14T09:42:43Z</time>
   </trkpt>
   <trkpt lat="51.1457070" lon="5.7432150">
    <ele>31.7</ele>
    <time>2020-06-14T09:42:44Z</time>
   </trkpt>
   <trkpt lat="51.1457040" lon="5.7432780">
    <ele>31.7</ele>
    <time>2020-06-14T09:42:45Z</time>
   </trkpt>
   <trkpt lat="51.1457020" lon="5.7432990">
    <ele>31.7</ele>
    <time>2020-06-14T09:42:46Z</time>
   </trkpt>
   <trkpt lat="51.1457120" lon="5.7433250">
    <ele>31.7</ele>
    <time>2020-06-14T09:42:47Z</time>
   </trkpt>
   <trkpt lat="51.1457300" lon="5.7433360">
    <ele>31.7</ele>
    <time>2020-06-14T09:42:48Z</time>
   </trkpt>
   <trkpt lat="51.1457600" lon="5.7433280">
    <ele>31.7</ele>
    <time>2020-06-14T09:42:49Z</time>
   </trkpt>
   <trkpt lat="51.1457950" lon="5.7433020">
    <ele>31.7</ele>
    <time>2020-06-14T09:42:50Z</time>
   </trkpt>
   <trkpt lat="51.1458050" lon="5.7432910">
    <ele>31.7</ele>
    <time>2020-06-14T09:42:51Z</time>
   </trkpt>
   <trkpt lat="51.1458190" lon="5.7432750">
    <ele>31.6</ele>
    <time>2020-06-14T09:42:52Z</time>
   </trkpt>
   <trkpt lat="51.1458380" lon="5.7432830">
    <ele>31.6</ele>
    <time>2020-06-14T09:42:53Z</time>
   </trkpt>
   <trkpt lat="51.1458280" lon="5.7432840">
    <ele>31.6</ele>
    <time>2020-06-14T09:42:54Z</time>
   </trkpt>
   <trkpt lat="51.1458240" lon="5.7433010">
    <ele>31.6</ele>
    <time>2020-06-14T09:42:55Z</time>
   </trkpt>
   <trkpt lat="51.1458220" lon="5.7432960">
    <ele>31.6</ele>
    <time>2020-06-14T09:42:56Z</time>
   </trkpt>
   <trkpt lat="51.1458190" lon="5.7432950">
    <ele>31.6</ele>
    <time>2020-06-14T09:42:57Z</time>
   </trkpt>
   <trkpt lat="51.1458140" lon="5.7432850">
    <ele>31.6</ele>
    <time>2020-06-14T09:42:58Z</time>
   </trkpt>
   <trkpt lat="51.1458310" lon="5.7432860">
    <ele>31.6</ele>
    <time>2020-06-14T09:42:59Z</time>
   </trkpt>
   <trkpt lat="51.1458290" lon="5.7432790">
    <ele>31.6</ele>
    <time>2020-06-14T09:43:00Z</time>
   </trkpt>
   <trkpt lat="51.1458290" lon="5.7432840">
    <ele>31.6</ele>
    <time>2020-06-14T09:43:01Z</time>
   </trkpt>
   <trkpt lat="51.1458300" lon="5.7432860">
    <ele>31.6</ele>
    <time>2020-06-14T09:43:02Z</time>
   </trkpt>
   <trkpt lat="51.1458300" lon="5.7432840">
    <ele>31.6</ele>
    <time>2020-06-14T09:43:03Z</time>
   </trkpt>
   <trkpt lat="51.1458270" lon="5.7432790">
    <ele>31.6</ele>
    <time>2020-06-14T09:43:04Z</time>
   </trkpt>
  </trkseg>
 </trk>
</gpx>
